<?xml version="1.0" encoding="UTF-8" standalone="no" ?>
<gpx xmlns="http://www.topografix.com/GPX/1/1" xmlns:xsi="http://www.w3.org/2001/XMLSchema-instance" xsi:schemaLocation="http://www.topografix.com/GPX/1/1 http://www.topografix.com/GPX/1/1/gpx.xsd" version="1.1" creator="VisuGPX - https://www.visugpx.com">
  <metadata>
    <name>Wallabies Tet Adriatique Juillet 2025/1</name>
    <desc><![CDATA[Les Wallabies Adriatique 2025]]></desc>
  </metadata>
  <trk>
    <name><![CDATA[1 ACT MNE_AL]]></name>
    <extensions>
      <line xmlns="http://www.topografix.com/GPX/gpx_style/0/2">
        <color>ff2600</color>
        <width>4</width>
      </line>
    </extensions>
    <trkseg>
      <trkpt lat="43.09881" lon="19.05105">
        <ele>1916.5300292969</ele>
        <time>2024-09-22T08:33:51.000Z</time>
      </trkpt>
      <trkpt lat="43.09869" lon="19.05103">
        <ele>1915.0799560547</ele>
        <time>2024-09-22T08:34:36.000Z</time>
      </trkpt>
      <trkpt lat="43.09861" lon="19.05102">
        <ele>1914.1199951172</ele>
        <time>2024-09-22T08:34:38.000Z</time>
      </trkpt>
      <trkpt lat="43.0986" lon="19.05102">
        <ele>1914.1199951172</ele>
        <time>2024-09-22T08:34:39.000Z</time>
      </trkpt>
      <trkpt lat="43.09839" lon="19.05095">
        <ele>1910.7600097656</ele>
        <time>2024-09-22T08:34:47.000Z</time>
      </trkpt>
      <trkpt lat="43.09841" lon="19.05083">
        <ele>1909.8000488281</ele>
        <time>2024-09-22T08:35:03.000Z</time>
      </trkpt>
      <trkpt lat="43.09843" lon="19.05075">
        <ele>1910.2800292969</ele>
        <time>2024-09-22T08:35:04.000Z</time>
      </trkpt>
      <trkpt lat="43.09845" lon="19.0507">
        <ele>1910.7600097656</ele>
        <time>2024-09-22T08:35:05.000Z</time>
      </trkpt>
      <trkpt lat="43.09855" lon="19.05058">
        <ele>1911.7199707031</ele>
        <time>2024-09-22T08:35:08.000Z</time>
      </trkpt>
      <trkpt lat="43.09857" lon="19.05056">
        <ele>1911.7199707031</ele>
        <time>2024-09-22T08:35:09.000Z</time>
      </trkpt>
      <trkpt lat="43.09861" lon="19.05054">
        <ele>1911.7199707031</ele>
        <time>2024-09-22T08:35:10.000Z</time>
      </trkpt>
      <trkpt lat="43.09867" lon="19.05052">
        <ele>1911.7199707031</ele>
        <time>2024-09-22T08:35:11.000Z</time>
      </trkpt>
      <trkpt lat="43.09879" lon="19.05051">
        <ele>1911.2399902344</ele>
        <time>2024-09-22T08:35:12.000Z</time>
      </trkpt>
      <trkpt lat="43.09888" lon="19.05049">
        <ele>1910.7600097656</ele>
        <time>2024-09-22T08:35:13.000Z</time>
      </trkpt>
      <trkpt lat="43.09901" lon="19.05043">
        <ele>1910.2800292969</ele>
        <time>2024-09-22T08:35:14.000Z</time>
      </trkpt>
      <trkpt lat="43.09908" lon="19.05038">
        <ele>1909.8000488281</ele>
        <time>2024-09-22T08:35:15.000Z</time>
      </trkpt>
      <trkpt lat="43.09959" lon="19.04997">
        <ele>1905.9499511719</ele>
        <time>2024-09-22T08:35:21.000Z</time>
      </trkpt>
      <trkpt lat="43.09972" lon="19.04984">
        <ele>1904.5100097656</ele>
        <time>2024-09-22T08:35:22.000Z</time>
      </trkpt>
      <trkpt lat="43.09974" lon="19.0498">
        <ele>1904.5100097656</ele>
        <time>2024-09-22T08:35:23.000Z</time>
      </trkpt>
      <trkpt lat="43.0998" lon="19.04973">
        <ele>1904.0300292969</ele>
        <time>2024-09-22T08:35:24.000Z</time>
      </trkpt>
      <trkpt lat="43.10007" lon="19.0493">
        <ele>1901.1400146484</ele>
        <time>2024-09-22T08:35:28.000Z</time>
      </trkpt>
      <trkpt lat="43.10009" lon="19.04926">
        <ele>1901.1400146484</ele>
        <time>2024-09-22T08:35:29.000Z</time>
      </trkpt>
      <trkpt lat="43.10014" lon="19.04915">
        <ele>1900.1800537109</ele>
        <time>2024-09-22T08:35:30.000Z</time>
      </trkpt>
      <trkpt lat="43.10034" lon="19.04854">
        <ele>1896.3399658203</ele>
        <time>2024-09-22T08:35:35.000Z</time>
      </trkpt>
      <trkpt lat="43.10038" lon="19.04844">
        <ele>1895.8599853516</ele>
        <time>2024-09-22T08:35:36.000Z</time>
      </trkpt>
      <trkpt lat="43.10043" lon="19.04834">
        <ele>1895.3800048828</ele>
        <time>2024-09-22T08:35:37.000Z</time>
      </trkpt>
      <trkpt lat="43.10049" lon="19.04825">
        <ele>1894.9000244141</ele>
        <time>2024-09-22T08:35:38.000Z</time>
      </trkpt>
      <trkpt lat="43.10054" lon="19.04818">
        <ele>1894.4200439453</ele>
        <time>2024-09-22T08:35:39.000Z</time>
      </trkpt>
      <trkpt lat="43.1006" lon="19.04812">
        <ele>1893.9300537109</ele>
        <time>2024-09-22T08:35:40.000Z</time>
      </trkpt>
      <trkpt lat="43.10067" lon="19.04805">
        <ele>1892.9699707031</ele>
        <time>2024-09-22T08:35:41.000Z</time>
      </trkpt>
      <trkpt lat="43.10073" lon="19.048">
        <ele>1892.4899902344</ele>
        <time>2024-09-22T08:35:42.000Z</time>
      </trkpt>
      <trkpt lat="43.10084" lon="19.04785">
        <ele>1892.0100097656</ele>
        <time>2024-09-22T08:35:43.000Z</time>
      </trkpt>
      <trkpt lat="43.10098" lon="19.04763">
        <ele>1890.0899658203</ele>
        <time>2024-09-22T08:35:45.000Z</time>
      </trkpt>
      <trkpt lat="43.10099" lon="19.0476">
        <ele>1889.6099853516</ele>
        <time>2024-09-22T08:35:46.000Z</time>
      </trkpt>
      <trkpt lat="43.10113" lon="19.04728">
        <ele>1888.1700439453</ele>
        <time>2024-09-22T08:35:49.000Z</time>
      </trkpt>
      <trkpt lat="43.10131" lon="19.04691">
        <ele>1885.7600097656</ele>
        <time>2024-09-22T08:35:52.000Z</time>
      </trkpt>
      <trkpt lat="43.10133" lon="19.04689">
        <ele>1885.7600097656</ele>
        <time>2024-09-22T08:35:53.000Z</time>
      </trkpt>
      <trkpt lat="43.10138" lon="19.04676">
        <ele>1884.8000488281</ele>
        <time>2024-09-22T08:35:54.000Z</time>
      </trkpt>
      <trkpt lat="43.10158" lon="19.04616">
        <ele>1880.9599609375</ele>
        <time>2024-09-22T08:35:58.000Z</time>
      </trkpt>
      <trkpt lat="43.10162" lon="19.04605">
        <ele>1880</ele>
        <time>2024-09-22T08:35:59.000Z</time>
      </trkpt>
      <trkpt lat="43.10164" lon="19.04598">
        <ele>1880</ele>
        <time>2024-09-22T08:36:00.000Z</time>
      </trkpt>
      <trkpt lat="43.10166" lon="19.04586">
        <ele>1879.0300292969</ele>
        <time>2024-09-22T08:36:01.000Z</time>
      </trkpt>
      <trkpt lat="43.10168" lon="19.04571">
        <ele>1877.5899658203</ele>
        <time>2024-09-22T08:36:02.000Z</time>
      </trkpt>
      <trkpt lat="43.10169" lon="19.04562">
        <ele>1877.1099853516</ele>
        <time>2024-09-22T08:36:03.000Z</time>
      </trkpt>
      <trkpt lat="43.10172" lon="19.04551">
        <ele>1876.1500244141</ele>
        <time>2024-09-22T08:36:04.000Z</time>
      </trkpt>
      <trkpt lat="43.10177" lon="19.0453">
        <ele>1874.7099609375</ele>
        <time>2024-09-22T08:36:05.000Z</time>
      </trkpt>
      <trkpt lat="43.10178" lon="19.04528">
        <ele>1874.2299804688</ele>
        <time>2024-09-22T08:36:06.000Z</time>
      </trkpt>
      <trkpt lat="43.1018" lon="19.04514">
        <ele>1873.2700195312</ele>
        <time>2024-09-22T08:36:07.000Z</time>
      </trkpt>
      <trkpt lat="43.10185" lon="19.04478">
        <ele>1871.8199462891</ele>
        <time>2024-09-22T08:36:10.000Z</time>
      </trkpt>
      <trkpt lat="43.10187" lon="19.04468">
        <ele>1871.3399658203</ele>
        <time>2024-09-22T08:36:11.000Z</time>
      </trkpt>
      <trkpt lat="43.10187" lon="19.04465">
        <ele>1871.3399658203</ele>
        <time>2024-09-22T08:36:12.000Z</time>
      </trkpt>
      <trkpt lat="43.10189" lon="19.04446">
        <ele>1870.3800048828</ele>
        <time>2024-09-22T08:36:14.000Z</time>
      </trkpt>
      <trkpt lat="43.10191" lon="19.04439">
        <ele>1870.3800048828</ele>
        <time>2024-09-22T08:36:15.000Z</time>
      </trkpt>
      <trkpt lat="43.10192" lon="19.0443">
        <ele>1869.9000244141</ele>
        <time>2024-09-22T08:36:16.000Z</time>
      </trkpt>
      <trkpt lat="43.10191" lon="19.04422">
        <ele>1869.4200439453</ele>
        <time>2024-09-22T08:36:17.000Z</time>
      </trkpt>
      <trkpt lat="43.10188" lon="19.04417">
        <ele>1869.9000244141</ele>
        <time>2024-09-22T08:36:18.000Z</time>
      </trkpt>
      <trkpt lat="43.10183" lon="19.04418">
        <ele>1869.9000244141</ele>
        <time>2024-09-22T08:36:19.000Z</time>
      </trkpt>
      <trkpt lat="43.1018" lon="19.04422">
        <ele>1869.9000244141</ele>
        <time>2024-09-22T08:36:20.000Z</time>
      </trkpt>
      <trkpt lat="43.10179" lon="19.0443">
        <ele>1869.4200439453</ele>
        <time>2024-09-22T08:36:21.000Z</time>
      </trkpt>
      <trkpt lat="43.10177" lon="19.04446">
        <ele>1868.9399414062</ele>
        <time>2024-09-22T08:36:22.000Z</time>
      </trkpt>
      <trkpt lat="43.10176" lon="19.04454">
        <ele>1868.9399414062</ele>
        <time>2024-09-22T08:36:23.000Z</time>
      </trkpt>
      <trkpt lat="43.10173" lon="19.04468">
        <ele>1868.4599609375</ele>
        <time>2024-09-22T08:36:24.000Z</time>
      </trkpt>
      <trkpt lat="43.10166" lon="19.04508">
        <ele>1866.5400390625</ele>
        <time>2024-09-22T08:36:26.000Z</time>
      </trkpt>
      <trkpt lat="43.10165" lon="19.04511">
        <ele>1866.5400390625</ele>
        <time>2024-09-22T08:36:27.000Z</time>
      </trkpt>
      <trkpt lat="43.1016" lon="19.04525">
        <ele>1865.5799560547</ele>
        <time>2024-09-22T08:36:28.000Z</time>
      </trkpt>
      <trkpt lat="43.10148" lon="19.04551">
        <ele>1864.6099853516</ele>
        <time>2024-09-22T08:36:30.000Z</time>
      </trkpt>
      <trkpt lat="43.10143" lon="19.04564">
        <ele>1864.1300048828</ele>
        <time>2024-09-22T08:36:31.000Z</time>
      </trkpt>
      <trkpt lat="43.10137" lon="19.0458">
        <ele>1862.6899414062</ele>
        <time>2024-09-22T08:36:32.000Z</time>
      </trkpt>
      <trkpt lat="43.10127" lon="19.04599">
        <ele>1862.2099609375</ele>
        <time>2024-09-22T08:36:33.000Z</time>
      </trkpt>
      <trkpt lat="43.10095" lon="19.04652">
        <ele>1858.8499755859</ele>
        <time>2024-09-22T08:36:36.000Z</time>
      </trkpt>
      <trkpt lat="43.10092" lon="19.04656">
        <ele>1858.3699951172</ele>
        <time>2024-09-22T08:36:37.000Z</time>
      </trkpt>
      <trkpt lat="43.10082" lon="19.04667">
        <ele>1857.4000244141</ele>
        <time>2024-09-22T08:36:38.000Z</time>
      </trkpt>
      <trkpt lat="43.10058" lon="19.04687">
        <ele>1855.4799804688</ele>
        <time>2024-09-22T08:36:40.000Z</time>
      </trkpt>
      <trkpt lat="43.10021" lon="19.04721">
        <ele>1852.5999755859</ele>
        <time>2024-09-22T08:36:43.000Z</time>
      </trkpt>
      <trkpt lat="43.10019" lon="19.04723">
        <ele>1852.5999755859</ele>
        <time>2024-09-22T08:36:44.000Z</time>
      </trkpt>
      <trkpt lat="43.10008" lon="19.04735">
        <ele>1852.1199951172</ele>
        <time>2024-09-22T08:36:45.000Z</time>
      </trkpt>
      <trkpt lat="43.09969" lon="19.04786">
        <ele>1849.7099609375</ele>
        <time>2024-09-22T08:36:49.000Z</time>
      </trkpt>
      <trkpt lat="43.09962" lon="19.04794">
        <ele>1849.2299804688</ele>
        <time>2024-09-22T08:36:50.000Z</time>
      </trkpt>
      <trkpt lat="43.09947" lon="19.04807">
        <ele>1849.2299804688</ele>
        <time>2024-09-22T08:36:51.000Z</time>
      </trkpt>
      <trkpt lat="43.09944" lon="19.04809">
        <ele>1848.75</ele>
        <time>2024-09-22T08:36:52.000Z</time>
      </trkpt>
      <trkpt lat="43.09934" lon="19.04815">
        <ele>1848.2700195312</ele>
        <time>2024-09-22T08:36:53.000Z</time>
      </trkpt>
      <trkpt lat="43.09925" lon="19.04816">
        <ele>1847.7900390625</ele>
        <time>2024-09-22T08:36:54.000Z</time>
      </trkpt>
      <trkpt lat="43.09916" lon="19.04812">
        <ele>1847.3100585938</ele>
        <time>2024-09-22T08:36:55.000Z</time>
      </trkpt>
      <trkpt lat="43.09909" lon="19.04805">
        <ele>1847.3100585938</ele>
        <time>2024-09-22T08:36:56.000Z</time>
      </trkpt>
      <trkpt lat="43.09904" lon="19.04794">
        <ele>1846.3499755859</ele>
        <time>2024-09-22T08:36:57.000Z</time>
      </trkpt>
      <trkpt lat="43.09904" lon="19.04785">
        <ele>1845.8699951172</ele>
        <time>2024-09-22T08:36:58.000Z</time>
      </trkpt>
      <trkpt lat="43.09907" lon="19.04777">
        <ele>1845.3900146484</ele>
        <time>2024-09-22T08:36:59.000Z</time>
      </trkpt>
      <trkpt lat="43.09914" lon="19.04774">
        <ele>1844.4300537109</ele>
        <time>2024-09-22T08:37:00.000Z</time>
      </trkpt>
      <trkpt lat="43.09921" lon="19.04775">
        <ele>1843.9499511719</ele>
        <time>2024-09-22T08:37:01.000Z</time>
      </trkpt>
      <trkpt lat="43.0993" lon="19.04778">
        <ele>1842.9799804688</ele>
        <time>2024-09-22T08:37:02.000Z</time>
      </trkpt>
      <trkpt lat="43.09938" lon="19.04778">
        <ele>1842.9799804688</ele>
        <time>2024-09-22T08:37:03.000Z</time>
      </trkpt>
      <trkpt lat="43.09945" lon="19.04773">
        <ele>1842.5</ele>
        <time>2024-09-22T08:37:04.000Z</time>
      </trkpt>
      <trkpt lat="43.09952" lon="19.04765">
        <ele>1842.5</ele>
        <time>2024-09-22T08:37:05.000Z</time>
      </trkpt>
      <trkpt lat="43.09957" lon="19.04755">
        <ele>1842.0200195312</ele>
        <time>2024-09-22T08:37:06.000Z</time>
      </trkpt>
      <trkpt lat="43.09965" lon="19.04744">
        <ele>1841.5400390625</ele>
        <time>2024-09-22T08:37:07.000Z</time>
      </trkpt>
      <trkpt lat="43.09981" lon="19.04724">
        <ele>1840.0999755859</ele>
        <time>2024-09-22T08:37:08.000Z</time>
      </trkpt>
      <trkpt lat="43.09998" lon="19.04699">
        <ele>1838.6600341797</ele>
        <time>2024-09-22T08:37:11.000Z</time>
      </trkpt>
      <trkpt lat="43.10007" lon="19.04684">
        <ele>1837.6999511719</ele>
        <time>2024-09-22T08:37:12.000Z</time>
      </trkpt>
      <trkpt lat="43.10012" lon="19.04671">
        <ele>1836.7399902344</ele>
        <time>2024-09-22T08:37:13.000Z</time>
      </trkpt>
      <trkpt lat="43.10016" lon="19.04658">
        <ele>1836.2600097656</ele>
        <time>2024-09-22T08:37:14.000Z</time>
      </trkpt>
      <trkpt lat="43.10042" lon="19.0456">
        <ele>1830.4899902344</ele>
        <time>2024-09-22T08:37:20.000Z</time>
      </trkpt>
      <trkpt lat="43.10046" lon="19.04547">
        <ele>1829.5300292969</ele>
        <time>2024-09-22T08:37:21.000Z</time>
      </trkpt>
      <trkpt lat="43.10104" lon="19.04404">
        <ele>1820.8699951172</ele>
        <time>2024-09-22T08:37:31.000Z</time>
      </trkpt>
      <trkpt lat="43.1011" lon="19.0438">
        <ele>1819.9100341797</ele>
        <time>2024-09-22T08:37:32.000Z</time>
      </trkpt>
      <trkpt lat="43.10125" lon="19.0432">
        <ele>1816.0699462891</ele>
        <time>2024-09-22T08:37:36.000Z</time>
      </trkpt>
      <trkpt lat="43.10129" lon="19.04309">
        <ele>1815.1099853516</ele>
        <time>2024-09-22T08:37:37.000Z</time>
      </trkpt>
      <trkpt lat="43.10136" lon="19.04295">
        <ele>1814.1500244141</ele>
        <time>2024-09-22T08:37:38.000Z</time>
      </trkpt>
      <trkpt lat="43.10145" lon="19.04283">
        <ele>1813.1800537109</ele>
        <time>2024-09-22T08:37:39.000Z</time>
      </trkpt>
      <trkpt lat="43.10156" lon="19.04273">
        <ele>1812.2199707031</ele>
        <time>2024-09-22T08:37:40.000Z</time>
      </trkpt>
      <trkpt lat="43.10165" lon="19.04264">
        <ele>1811.7399902344</ele>
        <time>2024-09-22T08:37:41.000Z</time>
      </trkpt>
      <trkpt lat="43.10174" lon="19.04252">
        <ele>1810.7800292969</ele>
        <time>2024-09-22T08:37:42.000Z</time>
      </trkpt>
      <trkpt lat="43.10182" lon="19.04239">
        <ele>1809.8199462891</ele>
        <time>2024-09-22T08:37:43.000Z</time>
      </trkpt>
      <trkpt lat="43.10205" lon="19.04186">
        <ele>1807.4200439453</ele>
        <time>2024-09-22T08:37:46.000Z</time>
      </trkpt>
      <trkpt lat="43.10207" lon="19.04182">
        <ele>1807.4200439453</ele>
        <time>2024-09-22T08:37:47.000Z</time>
      </trkpt>
      <trkpt lat="43.10214" lon="19.04169">
        <ele>1806.4499511719</ele>
        <time>2024-09-22T08:37:48.000Z</time>
      </trkpt>
      <trkpt lat="43.10223" lon="19.04157">
        <ele>1805.9699707031</ele>
        <time>2024-09-22T08:37:49.000Z</time>
      </trkpt>
      <trkpt lat="43.10228" lon="19.04142">
        <ele>1805.9699707031</ele>
        <time>2024-09-22T08:37:50.000Z</time>
      </trkpt>
      <trkpt lat="43.1023" lon="19.04126">
        <ele>1805.4899902344</ele>
        <time>2024-09-22T08:37:51.000Z</time>
      </trkpt>
      <trkpt lat="43.1023" lon="19.04111">
        <ele>1805.0100097656</ele>
        <time>2024-09-22T08:37:52.000Z</time>
      </trkpt>
      <trkpt lat="43.10227" lon="19.04074">
        <ele>1803.5699462891</ele>
        <time>2024-09-22T08:37:54.000Z</time>
      </trkpt>
      <trkpt lat="43.10227" lon="19.04016">
        <ele>1801.1700439453</ele>
        <time>2024-09-22T08:37:57.000Z</time>
      </trkpt>
      <trkpt lat="43.10227" lon="19.03999">
        <ele>1800.6899414062</ele>
        <time>2024-09-22T08:37:58.000Z</time>
      </trkpt>
      <trkpt lat="43.10228" lon="19.03988">
        <ele>1800.2099609375</ele>
        <time>2024-09-22T08:37:59.000Z</time>
      </trkpt>
      <trkpt lat="43.10231" lon="19.03971">
        <ele>1799.7299804688</ele>
        <time>2024-09-22T08:38:00.000Z</time>
      </trkpt>
      <trkpt lat="43.10234" lon="19.03956">
        <ele>1798.7600097656</ele>
        <time>2024-09-22T08:38:01.000Z</time>
      </trkpt>
      <trkpt lat="43.1024" lon="19.03935">
        <ele>1797.3199462891</ele>
        <time>2024-09-22T08:38:02.000Z</time>
      </trkpt>
      <trkpt lat="43.10244" lon="19.0392">
        <ele>1796.3599853516</ele>
        <time>2024-09-22T08:38:03.000Z</time>
      </trkpt>
      <trkpt lat="43.10245" lon="19.03906">
        <ele>1795.8800048828</ele>
        <time>2024-09-22T08:38:04.000Z</time>
      </trkpt>
      <trkpt lat="43.10245" lon="19.0387">
        <ele>1794.4399414062</ele>
        <time>2024-09-22T08:38:06.000Z</time>
      </trkpt>
      <trkpt lat="43.10245" lon="19.03855">
        <ele>1793.9599609375</ele>
        <time>2024-09-22T08:38:07.000Z</time>
      </trkpt>
      <trkpt lat="43.10247" lon="19.03839">
        <ele>1793.4799804688</ele>
        <time>2024-09-22T08:38:08.000Z</time>
      </trkpt>
      <trkpt lat="43.10253" lon="19.03824">
        <ele>1793</ele>
        <time>2024-09-22T08:38:09.000Z</time>
      </trkpt>
      <trkpt lat="43.1026" lon="19.03811">
        <ele>1792.5200195312</ele>
        <time>2024-09-22T08:38:10.000Z</time>
      </trkpt>
      <trkpt lat="43.10268" lon="19.03799">
        <ele>1792.0300292969</ele>
        <time>2024-09-22T08:38:11.000Z</time>
      </trkpt>
      <trkpt lat="43.10278" lon="19.03787">
        <ele>1790.5899658203</ele>
        <time>2024-09-22T08:38:12.000Z</time>
      </trkpt>
      <trkpt lat="43.10288" lon="19.03777">
        <ele>1789.6300048828</ele>
        <time>2024-09-22T08:38:13.000Z</time>
      </trkpt>
      <trkpt lat="43.10302" lon="19.03767">
        <ele>1788.6700439453</ele>
        <time>2024-09-22T08:38:14.000Z</time>
      </trkpt>
      <trkpt lat="43.10353" lon="19.0373">
        <ele>1785.3100585938</ele>
        <time>2024-09-22T08:38:19.000Z</time>
      </trkpt>
      <trkpt lat="43.10364" lon="19.03719">
        <ele>1784.3399658203</ele>
        <time>2024-09-22T08:38:20.000Z</time>
      </trkpt>
      <trkpt lat="43.10372" lon="19.03711">
        <ele>1783.8599853516</ele>
        <time>2024-09-22T08:38:21.000Z</time>
      </trkpt>
      <trkpt lat="43.1038" lon="19.03699">
        <ele>1783.3800048828</ele>
        <time>2024-09-22T08:38:22.000Z</time>
      </trkpt>
      <trkpt lat="43.10387" lon="19.03685">
        <ele>1782.4200439453</ele>
        <time>2024-09-22T08:38:23.000Z</time>
      </trkpt>
      <trkpt lat="43.10391" lon="19.0367">
        <ele>1782.4200439453</ele>
        <time>2024-09-22T08:38:24.000Z</time>
      </trkpt>
      <trkpt lat="43.10391" lon="19.03655">
        <ele>1781.9399414062</ele>
        <time>2024-09-22T08:38:25.000Z</time>
      </trkpt>
      <trkpt lat="43.10385" lon="19.03637">
        <ele>1781.4599609375</ele>
        <time>2024-09-22T08:38:26.000Z</time>
      </trkpt>
      <trkpt lat="43.10383" lon="19.03626">
        <ele>1780.9799804688</ele>
        <time>2024-09-22T08:38:27.000Z</time>
      </trkpt>
      <trkpt lat="43.10384" lon="19.03612">
        <ele>1780.5</ele>
        <time>2024-09-22T08:38:28.000Z</time>
      </trkpt>
      <trkpt lat="43.10387" lon="19.03599">
        <ele>1780.5</ele>
        <time>2024-09-22T08:38:29.000Z</time>
      </trkpt>
      <trkpt lat="43.10405" lon="19.03551">
        <ele>1778.5799560547</ele>
        <time>2024-09-22T08:38:33.000Z</time>
      </trkpt>
      <trkpt lat="43.10408" lon="19.0354">
        <ele>1778.0999755859</ele>
        <time>2024-09-22T08:38:34.000Z</time>
      </trkpt>
      <trkpt lat="43.10409" lon="19.03528">
        <ele>1777.1300048828</ele>
        <time>2024-09-22T08:38:35.000Z</time>
      </trkpt>
      <trkpt lat="43.10408" lon="19.03515">
        <ele>1776.6500244141</ele>
        <time>2024-09-22T08:38:36.000Z</time>
      </trkpt>
      <trkpt lat="43.10406" lon="19.03494">
        <ele>1775.6899414062</ele>
        <time>2024-09-22T08:38:37.000Z</time>
      </trkpt>
      <trkpt lat="43.10406" lon="19.03489">
        <ele>1775.2099609375</ele>
        <time>2024-09-22T08:38:38.000Z</time>
      </trkpt>
      <trkpt lat="43.10406" lon="19.03477">
        <ele>1774.7299804688</ele>
        <time>2024-09-22T08:38:39.000Z</time>
      </trkpt>
      <trkpt lat="43.10408" lon="19.03464">
        <ele>1773.7700195312</ele>
        <time>2024-09-22T08:38:40.000Z</time>
      </trkpt>
      <trkpt lat="43.10416" lon="19.03409">
        <ele>1770.4100341797</ele>
        <time>2024-09-22T08:38:44.000Z</time>
      </trkpt>
      <trkpt lat="43.10422" lon="19.03368">
        <ele>1767.5200195312</ele>
        <time>2024-09-22T08:38:47.000Z</time>
      </trkpt>
      <trkpt lat="43.10423" lon="19.03362">
        <ele>1767.0400390625</ele>
        <time>2024-09-22T08:38:48.000Z</time>
      </trkpt>
      <trkpt lat="43.10423" lon="19.03347">
        <ele>1766.0799560547</ele>
        <time>2024-09-22T08:38:49.000Z</time>
      </trkpt>
      <trkpt lat="43.1042" lon="19.03333">
        <ele>1765.5999755859</ele>
        <time>2024-09-22T08:38:50.000Z</time>
      </trkpt>
      <trkpt lat="43.10416" lon="19.03321">
        <ele>1765.1199951172</ele>
        <time>2024-09-22T08:38:51.000Z</time>
      </trkpt>
      <trkpt lat="43.10414" lon="19.03306">
        <ele>1764.1600341797</ele>
        <time>2024-09-22T08:38:52.000Z</time>
      </trkpt>
      <trkpt lat="43.10415" lon="19.03291">
        <ele>1763.6800537109</ele>
        <time>2024-09-22T08:38:53.000Z</time>
      </trkpt>
      <trkpt lat="43.1042" lon="19.03277">
        <ele>1762.7099609375</ele>
        <time>2024-09-22T08:38:54.000Z</time>
      </trkpt>
      <trkpt lat="43.10426" lon="19.03266">
        <ele>1761.75</ele>
        <time>2024-09-22T08:38:55.000Z</time>
      </trkpt>
      <trkpt lat="43.10432" lon="19.0326">
        <ele>1760.7900390625</ele>
        <time>2024-09-22T08:38:56.000Z</time>
      </trkpt>
      <trkpt lat="43.10437" lon="19.03253">
        <ele>1761.2700195312</ele>
        <time>2024-09-22T08:39:02.000Z</time>
      </trkpt>
      <trkpt lat="43.10443" lon="19.03241">
        <ele>1760.7900390625</ele>
        <time>2024-09-22T08:39:04.000Z</time>
      </trkpt>
      <trkpt lat="43.10452" lon="19.03224">
        <ele>1759.3499755859</ele>
        <time>2024-09-22T08:39:07.000Z</time>
      </trkpt>
      <trkpt lat="43.10465" lon="19.03202">
        <ele>1757.9100341797</ele>
        <time>2024-09-22T08:39:10.000Z</time>
      </trkpt>
      <trkpt lat="43.10511" lon="19.0313">
        <ele>1752.6199951172</ele>
        <time>2024-09-22T08:39:18.000Z</time>
      </trkpt>
      <trkpt lat="43.10516" lon="19.0312">
        <ele>1752.1400146484</ele>
        <time>2024-09-22T08:39:19.000Z</time>
      </trkpt>
      <trkpt lat="43.10521" lon="19.03105">
        <ele>1751.1800537109</ele>
        <time>2024-09-22T08:39:20.000Z</time>
      </trkpt>
      <trkpt lat="43.10535" lon="19.03048">
        <ele>1746.3699951172</ele>
        <time>2024-09-22T08:39:23.000Z</time>
      </trkpt>
      <trkpt lat="43.10537" lon="19.03038">
        <ele>1745.8900146484</ele>
        <time>2024-09-22T08:39:24.000Z</time>
      </trkpt>
      <trkpt lat="43.10539" lon="19.03018">
        <ele>1744.4499511719</ele>
        <time>2024-09-22T08:39:25.000Z</time>
      </trkpt>
      <trkpt lat="43.10541" lon="19.02995">
        <ele>1743.0100097656</ele>
        <time>2024-09-22T08:39:26.000Z</time>
      </trkpt>
      <trkpt lat="43.10543" lon="19.02978">
        <ele>1742.0500488281</ele>
        <time>2024-09-22T08:39:27.000Z</time>
      </trkpt>
      <trkpt lat="43.1055" lon="19.02923">
        <ele>1738.6800537109</ele>
        <time>2024-09-22T08:39:30.000Z</time>
      </trkpt>
      <trkpt lat="43.10551" lon="19.02908">
        <ele>1737.7199707031</ele>
        <time>2024-09-22T08:39:31.000Z</time>
      </trkpt>
      <trkpt lat="43.10552" lon="19.02868">
        <ele>1735.3199462891</ele>
        <time>2024-09-22T08:39:33.000Z</time>
      </trkpt>
      <trkpt lat="43.10554" lon="19.02853">
        <ele>1734.3599853516</ele>
        <time>2024-09-22T08:39:34.000Z</time>
      </trkpt>
      <trkpt lat="43.10556" lon="19.02837">
        <ele>1733.3900146484</ele>
        <time>2024-09-22T08:39:35.000Z</time>
      </trkpt>
      <trkpt lat="43.10567" lon="19.02764">
        <ele>1729.5500488281</ele>
        <time>2024-09-22T08:39:39.000Z</time>
      </trkpt>
      <trkpt lat="43.10567" lon="19.02761">
        <ele>1729.5500488281</ele>
        <time>2024-09-22T08:39:40.000Z</time>
      </trkpt>
      <trkpt lat="43.1057" lon="19.02723">
        <ele>1728.1099853516</ele>
        <time>2024-09-22T08:39:42.000Z</time>
      </trkpt>
      <trkpt lat="43.10572" lon="19.02664">
        <ele>1727.1500244141</ele>
        <time>2024-09-22T08:39:47.000Z</time>
      </trkpt>
      <trkpt lat="43.10573" lon="19.02657">
        <ele>1727.1500244141</ele>
        <time>2024-09-22T08:39:48.000Z</time>
      </trkpt>
      <trkpt lat="43.10574" lon="19.02644">
        <ele>1727.1500244141</ele>
        <time>2024-09-22T08:39:49.000Z</time>
      </trkpt>
      <trkpt lat="43.10577" lon="19.02633">
        <ele>1727.1500244141</ele>
        <time>2024-09-22T08:39:50.000Z</time>
      </trkpt>
      <trkpt lat="43.10581" lon="19.02612">
        <ele>1727.1500244141</ele>
        <time>2024-09-22T08:39:52.000Z</time>
      </trkpt>
      <trkpt lat="43.10591" lon="19.02573">
        <ele>1727.1500244141</ele>
        <time>2024-09-22T08:39:56.000Z</time>
      </trkpt>
      <trkpt lat="43.10592" lon="19.02569">
        <ele>1727.1500244141</ele>
        <time>2024-09-22T08:39:57.000Z</time>
      </trkpt>
      <trkpt lat="43.10598" lon="19.02556">
        <ele>1727.1500244141</ele>
        <time>2024-09-22T08:39:58.000Z</time>
      </trkpt>
      <trkpt lat="43.10603" lon="19.02545">
        <ele>1727.6300048828</ele>
        <time>2024-09-22T08:39:59.000Z</time>
      </trkpt>
      <trkpt lat="43.10606" lon="19.02539">
        <ele>1727.6300048828</ele>
        <time>2024-09-22T08:40:00.000Z</time>
      </trkpt>
      <trkpt lat="43.10609" lon="19.02533">
        <ele>1728.1099853516</ele>
        <time>2024-09-22T08:40:01.000Z</time>
      </trkpt>
      <trkpt lat="43.10614" lon="19.02526">
        <ele>1728.1099853516</ele>
        <time>2024-09-22T08:40:02.000Z</time>
      </trkpt>
      <trkpt lat="43.10623" lon="19.02516">
        <ele>1728.1099853516</ele>
        <time>2024-09-22T08:40:03.000Z</time>
      </trkpt>
      <trkpt lat="43.10626" lon="19.02513">
        <ele>1728.1099853516</ele>
        <time>2024-09-22T08:40:04.000Z</time>
      </trkpt>
      <trkpt lat="43.1063" lon="19.02508">
        <ele>1728.5899658203</ele>
        <time>2024-09-22T08:40:05.000Z</time>
      </trkpt>
      <trkpt lat="43.10636" lon="19.02502">
        <ele>1728.5899658203</ele>
        <time>2024-09-22T08:40:06.000Z</time>
      </trkpt>
      <trkpt lat="43.1064" lon="19.02499">
        <ele>1728.5899658203</ele>
        <time>2024-09-22T08:40:07.000Z</time>
      </trkpt>
      <trkpt lat="43.10651" lon="19.02486">
        <ele>1728.5899658203</ele>
        <time>2024-09-22T08:40:08.000Z</time>
      </trkpt>
      <trkpt lat="43.10656" lon="19.02482">
        <ele>1728.5899658203</ele>
        <time>2024-09-22T08:40:09.000Z</time>
      </trkpt>
      <trkpt lat="43.10659" lon="19.02479">
        <ele>1728.5899658203</ele>
        <time>2024-09-22T08:40:10.000Z</time>
      </trkpt>
      <trkpt lat="43.10664" lon="19.02474">
        <ele>1728.5899658203</ele>
        <time>2024-09-22T08:40:11.000Z</time>
      </trkpt>
      <trkpt lat="43.10672" lon="19.02468">
        <ele>1728.1099853516</ele>
        <time>2024-09-22T08:40:12.000Z</time>
      </trkpt>
      <trkpt lat="43.10676" lon="19.02465">
        <ele>1728.1099853516</ele>
        <time>2024-09-22T08:40:13.000Z</time>
      </trkpt>
      <trkpt lat="43.1068" lon="19.02458">
        <ele>1727.6300048828</ele>
        <time>2024-09-22T08:40:14.000Z</time>
      </trkpt>
      <trkpt lat="43.10682" lon="19.0245">
        <ele>1727.1500244141</ele>
        <time>2024-09-22T08:40:15.000Z</time>
      </trkpt>
      <trkpt lat="43.10681" lon="19.0244">
        <ele>1726.6700439453</ele>
        <time>2024-09-22T08:40:16.000Z</time>
      </trkpt>
      <trkpt lat="43.10678" lon="19.02431">
        <ele>1726.6700439453</ele>
        <time>2024-09-22T08:40:17.000Z</time>
      </trkpt>
      <trkpt lat="43.10672" lon="19.02421">
        <ele>1726.1800537109</ele>
        <time>2024-09-22T08:40:18.000Z</time>
      </trkpt>
      <trkpt lat="43.10669" lon="19.02415">
        <ele>1726.1800537109</ele>
        <time>2024-09-22T08:40:19.000Z</time>
      </trkpt>
      <trkpt lat="43.10665" lon="19.02407">
        <ele>1726.1800537109</ele>
        <time>2024-09-22T08:40:20.000Z</time>
      </trkpt>
      <trkpt lat="43.10656" lon="19.02379">
        <ele>1725.2199707031</ele>
        <time>2024-09-22T08:40:22.000Z</time>
      </trkpt>
      <trkpt lat="43.10645" lon="19.02353">
        <ele>1723.7800292969</ele>
        <time>2024-09-22T08:40:25.000Z</time>
      </trkpt>
      <trkpt lat="43.10643" lon="19.02348">
        <ele>1723.3000488281</ele>
        <time>2024-09-22T08:40:26.000Z</time>
      </trkpt>
      <trkpt lat="43.1064" lon="19.02339">
        <ele>1723.3000488281</ele>
        <time>2024-09-22T08:40:27.000Z</time>
      </trkpt>
      <trkpt lat="43.10639" lon="19.02337">
        <ele>1722.8199462891</ele>
        <time>2024-09-22T08:40:28.000Z</time>
      </trkpt>
      <trkpt lat="43.10629" lon="19.02323">
        <ele>1721.8599853516</ele>
        <time>2024-09-22T08:40:30.000Z</time>
      </trkpt>
      <trkpt lat="43.10623" lon="19.02315">
        <ele>1721.3800048828</ele>
        <time>2024-09-22T08:40:31.000Z</time>
      </trkpt>
      <trkpt lat="43.10622" lon="19.02313">
        <ele>1721.3800048828</ele>
        <time>2024-09-22T08:40:32.000Z</time>
      </trkpt>
      <trkpt lat="43.10612" lon="19.02301">
        <ele>1720.4200439453</ele>
        <time>2024-09-22T08:40:33.000Z</time>
      </trkpt>
      <trkpt lat="43.10611" lon="19.023">
        <ele>1719.9399414062</ele>
        <time>2024-09-22T08:40:34.000Z</time>
      </trkpt>
      <trkpt lat="43.10605" lon="19.02294">
        <ele>1719.4599609375</ele>
        <time>2024-09-22T08:40:35.000Z</time>
      </trkpt>
      <trkpt lat="43.10599" lon="19.0229">
        <ele>1718.9699707031</ele>
        <time>2024-09-22T08:40:36.000Z</time>
      </trkpt>
      <trkpt lat="43.10584" lon="19.02282">
        <ele>1718.0100097656</ele>
        <time>2024-09-22T08:40:38.000Z</time>
      </trkpt>
      <trkpt lat="43.10577" lon="19.02278">
        <ele>1717.0500488281</ele>
        <time>2024-09-22T08:40:39.000Z</time>
      </trkpt>
      <trkpt lat="43.10576" lon="19.02277">
        <ele>1716.5699462891</ele>
        <time>2024-09-22T08:40:40.000Z</time>
      </trkpt>
      <trkpt lat="43.10567" lon="19.02274">
        <ele>1716.0899658203</ele>
        <time>2024-09-22T08:40:41.000Z</time>
      </trkpt>
      <trkpt lat="43.10561" lon="19.02271">
        <ele>1715.6099853516</ele>
        <time>2024-09-22T08:40:42.000Z</time>
      </trkpt>
      <trkpt lat="43.10558" lon="19.02269">
        <ele>1715.6099853516</ele>
        <time>2024-09-22T08:40:43.000Z</time>
      </trkpt>
      <trkpt lat="43.10553" lon="19.02265">
        <ele>1715.1300048828</ele>
        <time>2024-09-22T08:40:44.000Z</time>
      </trkpt>
      <trkpt lat="43.10549" lon="19.0226">
        <ele>1714.6500244141</ele>
        <time>2024-09-22T08:40:45.000Z</time>
      </trkpt>
      <trkpt lat="43.10541" lon="19.0225">
        <ele>1714.1700439453</ele>
        <time>2024-09-22T08:40:46.000Z</time>
      </trkpt>
      <trkpt lat="43.10539" lon="19.02248">
        <ele>1714.1700439453</ele>
        <time>2024-09-22T08:40:47.000Z</time>
      </trkpt>
      <trkpt lat="43.10534" lon="19.02243">
        <ele>1713.6899414062</ele>
        <time>2024-09-22T08:40:48.000Z</time>
      </trkpt>
      <trkpt lat="43.10529" lon="19.02239">
        <ele>1713.2099609375</ele>
        <time>2024-09-22T08:40:49.000Z</time>
      </trkpt>
      <trkpt lat="43.10523" lon="19.02236">
        <ele>1713.2099609375</ele>
        <time>2024-09-22T08:40:50.000Z</time>
      </trkpt>
      <trkpt lat="43.10518" lon="19.02233">
        <ele>1712.7299804688</ele>
        <time>2024-09-22T08:40:51.000Z</time>
      </trkpt>
      <trkpt lat="43.10513" lon="19.02227">
        <ele>1712.25</ele>
        <time>2024-09-22T08:40:52.000Z</time>
      </trkpt>
      <trkpt lat="43.10507" lon="19.02219">
        <ele>1712.25</ele>
        <time>2024-09-22T08:40:53.000Z</time>
      </trkpt>
      <trkpt lat="43.10504" lon="19.02212">
        <ele>1711.7600097656</ele>
        <time>2024-09-22T08:40:54.000Z</time>
      </trkpt>
      <trkpt lat="43.10499" lon="19.02199">
        <ele>1711.7600097656</ele>
        <time>2024-09-22T08:40:55.000Z</time>
      </trkpt>
      <trkpt lat="43.10495" lon="19.02191">
        <ele>1711.2800292969</ele>
        <time>2024-09-22T08:40:56.000Z</time>
      </trkpt>
      <trkpt lat="43.10488" lon="19.02177">
        <ele>1710.8000488281</ele>
        <time>2024-09-22T08:40:57.000Z</time>
      </trkpt>
      <trkpt lat="43.10486" lon="19.02173">
        <ele>1710.8000488281</ele>
        <time>2024-09-22T08:40:58.000Z</time>
      </trkpt>
      <trkpt lat="43.10484" lon="19.02163">
        <ele>1710.3199462891</ele>
        <time>2024-09-22T08:40:59.000Z</time>
      </trkpt>
      <trkpt lat="43.10485" lon="19.02152">
        <ele>1709.8399658203</ele>
        <time>2024-09-22T08:41:00.000Z</time>
      </trkpt>
      <trkpt lat="43.10486" lon="19.02141">
        <ele>1708.8800048828</ele>
        <time>2024-09-22T08:41:01.000Z</time>
      </trkpt>
      <trkpt lat="43.10485" lon="19.02128">
        <ele>1708.4000244141</ele>
        <time>2024-09-22T08:41:02.000Z</time>
      </trkpt>
      <trkpt lat="43.10481" lon="19.02099">
        <ele>1707.4399414062</ele>
        <time>2024-09-22T08:41:04.000Z</time>
      </trkpt>
      <trkpt lat="43.1048" lon="19.02092">
        <ele>1707.4399414062</ele>
        <time>2024-09-22T08:41:05.000Z</time>
      </trkpt>
      <trkpt lat="43.10473" lon="19.02058">
        <ele>1706.4799804688</ele>
        <time>2024-09-22T08:41:08.000Z</time>
      </trkpt>
      <trkpt lat="43.10472" lon="19.02051">
        <ele>1706.4799804688</ele>
        <time>2024-09-22T08:41:09.000Z</time>
      </trkpt>
      <trkpt lat="43.10471" lon="19.02044">
        <ele>1706</ele>
        <time>2024-09-22T08:41:10.000Z</time>
      </trkpt>
      <trkpt lat="43.10471" lon="19.02034">
        <ele>1706</ele>
        <time>2024-09-22T08:41:11.000Z</time>
      </trkpt>
      <trkpt lat="43.10469" lon="19.02025">
        <ele>1705.5200195312</ele>
        <time>2024-09-22T08:41:12.000Z</time>
      </trkpt>
      <trkpt lat="43.10464" lon="19.02017">
        <ele>1705.5200195312</ele>
        <time>2024-09-22T08:41:13.000Z</time>
      </trkpt>
      <trkpt lat="43.10457" lon="19.02013">
        <ele>1705.5200195312</ele>
        <time>2024-09-22T08:41:14.000Z</time>
      </trkpt>
      <trkpt lat="43.10448" lon="19.0201">
        <ele>1705.5200195312</ele>
        <time>2024-09-22T08:41:15.000Z</time>
      </trkpt>
      <trkpt lat="43.10443" lon="19.02008">
        <ele>1705.5200195312</ele>
        <time>2024-09-22T08:41:16.000Z</time>
      </trkpt>
      <trkpt lat="43.10436" lon="19.02004">
        <ele>1705.0400390625</ele>
        <time>2024-09-22T08:41:17.000Z</time>
      </trkpt>
      <trkpt lat="43.10431" lon="19.01998">
        <ele>1705.0400390625</ele>
        <time>2024-09-22T08:41:18.000Z</time>
      </trkpt>
      <trkpt lat="43.10427" lon="19.01989">
        <ele>1704.5500488281</ele>
        <time>2024-09-22T08:41:19.000Z</time>
      </trkpt>
      <trkpt lat="43.10425" lon="19.01979">
        <ele>1704.0699462891</ele>
        <time>2024-09-22T08:41:20.000Z</time>
      </trkpt>
      <trkpt lat="43.10425" lon="19.01968">
        <ele>1703.5899658203</ele>
        <time>2024-09-22T08:41:21.000Z</time>
      </trkpt>
      <trkpt lat="43.10428" lon="19.01954">
        <ele>1703.5899658203</ele>
        <time>2024-09-22T08:41:22.000Z</time>
      </trkpt>
      <trkpt lat="43.10429" lon="19.01948">
        <ele>1703.5899658203</ele>
        <time>2024-09-22T08:41:23.000Z</time>
      </trkpt>
      <trkpt lat="43.10429" lon="19.01938">
        <ele>1703.5899658203</ele>
        <time>2024-09-22T08:41:24.000Z</time>
      </trkpt>
      <trkpt lat="43.10428" lon="19.01928">
        <ele>1703.5899658203</ele>
        <time>2024-09-22T08:41:25.000Z</time>
      </trkpt>
      <trkpt lat="43.10424" lon="19.01918">
        <ele>1703.1099853516</ele>
        <time>2024-09-22T08:41:26.000Z</time>
      </trkpt>
      <trkpt lat="43.10419" lon="19.01909">
        <ele>1703.1099853516</ele>
        <time>2024-09-22T08:41:27.000Z</time>
      </trkpt>
      <trkpt lat="43.10414" lon="19.01902">
        <ele>1703.5899658203</ele>
        <time>2024-09-22T08:41:28.000Z</time>
      </trkpt>
      <trkpt lat="43.10408" lon="19.01892">
        <ele>1703.5899658203</ele>
        <time>2024-09-22T08:41:29.000Z</time>
      </trkpt>
      <trkpt lat="43.10404" lon="19.01882">
        <ele>1703.5899658203</ele>
        <time>2024-09-22T08:41:30.000Z</time>
      </trkpt>
      <trkpt lat="43.10401" lon="19.0187">
        <ele>1704.0699462891</ele>
        <time>2024-09-22T08:41:31.000Z</time>
      </trkpt>
      <trkpt lat="43.104" lon="19.01858">
        <ele>1704.0699462891</ele>
        <time>2024-09-22T08:41:32.000Z</time>
      </trkpt>
      <trkpt lat="43.10402" lon="19.01777">
        <ele>1707.4399414062</ele>
        <time>2024-09-22T08:41:40.000Z</time>
      </trkpt>
      <trkpt lat="43.10404" lon="19.01758">
        <ele>1707.9200439453</ele>
        <time>2024-09-22T08:41:42.000Z</time>
      </trkpt>
      <trkpt lat="43.10409" lon="19.01727">
        <ele>1708.8800048828</ele>
        <time>2024-09-22T08:41:45.000Z</time>
      </trkpt>
      <trkpt lat="43.1042" lon="19.01681">
        <ele>1711.2800292969</ele>
        <time>2024-09-22T08:41:49.000Z</time>
      </trkpt>
      <trkpt lat="43.10422" lon="19.01675">
        <ele>1711.2800292969</ele>
        <time>2024-09-22T08:41:50.000Z</time>
      </trkpt>
      <trkpt lat="43.10459" lon="19.01569">
        <ele>1718.4899902344</ele>
        <time>2024-09-22T08:41:58.000Z</time>
      </trkpt>
      <trkpt lat="43.10477" lon="19.01529">
        <ele>1720.9000244141</ele>
        <time>2024-09-22T08:42:01.000Z</time>
      </trkpt>
      <trkpt lat="43.10479" lon="19.01527">
        <ele>1720.9000244141</ele>
        <time>2024-09-22T08:42:02.000Z</time>
      </trkpt>
      <trkpt lat="43.10535" lon="19.01454">
        <ele>1726.1800537109</ele>
        <time>2024-09-22T08:42:08.000Z</time>
      </trkpt>
      <trkpt lat="43.10537" lon="19.01451">
        <ele>1726.6700439453</ele>
        <time>2024-09-22T08:42:09.000Z</time>
      </trkpt>
      <trkpt lat="43.10545" lon="19.01439">
        <ele>1727.6300048828</ele>
        <time>2024-09-22T08:42:10.000Z</time>
      </trkpt>
      <trkpt lat="43.10608" lon="19.01302">
        <ele>1736.2800292969</ele>
        <time>2024-09-22T08:42:18.000Z</time>
      </trkpt>
      <trkpt lat="43.10623" lon="19.01266">
        <ele>1738.1999511719</ele>
        <time>2024-09-22T08:42:21.000Z</time>
      </trkpt>
      <trkpt lat="43.1063" lon="19.01252">
        <ele>1739.1600341797</ele>
        <time>2024-09-22T08:42:22.000Z</time>
      </trkpt>
      <trkpt lat="43.10639" lon="19.01241">
        <ele>1739.6400146484</ele>
        <time>2024-09-22T08:42:23.000Z</time>
      </trkpt>
      <trkpt lat="43.10644" lon="19.01233">
        <ele>1740.1199951172</ele>
        <time>2024-09-22T08:42:24.000Z</time>
      </trkpt>
      <trkpt lat="43.10648" lon="19.01221">
        <ele>1741.0799560547</ele>
        <time>2024-09-22T08:42:25.000Z</time>
      </trkpt>
      <trkpt lat="43.1065" lon="19.01207">
        <ele>1741.5699462891</ele>
        <time>2024-09-22T08:42:26.000Z</time>
      </trkpt>
      <trkpt lat="43.10653" lon="19.01193">
        <ele>1742.5300292969</ele>
        <time>2024-09-22T08:42:27.000Z</time>
      </trkpt>
      <trkpt lat="43.10659" lon="19.01178">
        <ele>1743.0100097656</ele>
        <time>2024-09-22T08:42:28.000Z</time>
      </trkpt>
      <trkpt lat="43.10698" lon="19.01095">
        <ele>1748.2900390625</ele>
        <time>2024-09-22T08:42:33.000Z</time>
      </trkpt>
      <trkpt lat="43.10704" lon="19.01082">
        <ele>1748.7800292969</ele>
        <time>2024-09-22T08:42:34.000Z</time>
      </trkpt>
      <trkpt lat="43.10762" lon="19.00922">
        <ele>1757.4300537109</ele>
        <time>2024-09-22T08:42:44.000Z</time>
      </trkpt>
      <trkpt lat="43.10788" lon="19.0084">
        <ele>1762.7099609375</ele>
        <time>2024-09-22T08:42:49.000Z</time>
      </trkpt>
      <trkpt lat="43.10791" lon="19.0083">
        <ele>1763.1999511719</ele>
        <time>2024-09-22T08:42:50.000Z</time>
      </trkpt>
      <trkpt lat="43.10801" lon="19.00805">
        <ele>1764.1600341797</ele>
        <time>2024-09-22T08:42:51.000Z</time>
      </trkpt>
      <trkpt lat="43.10803" lon="19.00799">
        <ele>1764.1600341797</ele>
        <time>2024-09-22T08:42:52.000Z</time>
      </trkpt>
      <trkpt lat="43.10806" lon="19.00784">
        <ele>1765.5999755859</ele>
        <time>2024-09-22T08:42:53.000Z</time>
      </trkpt>
      <trkpt lat="43.10805" lon="19.00769">
        <ele>1767.0400390625</ele>
        <time>2024-09-22T08:42:54.000Z</time>
      </trkpt>
      <trkpt lat="43.10803" lon="19.00756">
        <ele>1768</ele>
        <time>2024-09-22T08:42:55.000Z</time>
      </trkpt>
      <trkpt lat="43.10802" lon="19.0074">
        <ele>1768.9599609375</ele>
        <time>2024-09-22T08:42:56.000Z</time>
      </trkpt>
      <trkpt lat="43.10803" lon="19.00725">
        <ele>1769.9200439453</ele>
        <time>2024-09-22T08:42:57.000Z</time>
      </trkpt>
      <trkpt lat="43.10809" lon="19.00704">
        <ele>1770.8900146484</ele>
        <time>2024-09-22T08:42:58.000Z</time>
      </trkpt>
      <trkpt lat="43.10811" lon="19.00696">
        <ele>1771.3699951172</ele>
        <time>2024-09-22T08:42:59.000Z</time>
      </trkpt>
      <trkpt lat="43.10811" lon="19.00682">
        <ele>1771.3699951172</ele>
        <time>2024-09-22T08:43:00.000Z</time>
      </trkpt>
      <trkpt lat="43.10811" lon="19.00671">
        <ele>1772.3299560547</ele>
        <time>2024-09-22T08:43:01.000Z</time>
      </trkpt>
      <trkpt lat="43.10805" lon="19.00624">
        <ele>1775.2099609375</ele>
        <time>2024-09-22T08:43:05.000Z</time>
      </trkpt>
      <trkpt lat="43.10804" lon="19.00616">
        <ele>1776.1700439453</ele>
        <time>2024-09-22T08:43:06.000Z</time>
      </trkpt>
      <trkpt lat="43.108" lon="19.00607">
        <ele>1776.6500244141</ele>
        <time>2024-09-22T08:43:07.000Z</time>
      </trkpt>
      <trkpt lat="43.10796" lon="19.006">
        <ele>1777.1300048828</ele>
        <time>2024-09-22T08:43:08.000Z</time>
      </trkpt>
      <trkpt lat="43.10787" lon="19.00592">
        <ele>1778.0999755859</ele>
        <time>2024-09-22T08:43:09.000Z</time>
      </trkpt>
      <trkpt lat="43.10783" lon="19.00587">
        <ele>1778.5799560547</ele>
        <time>2024-09-22T08:43:10.000Z</time>
      </trkpt>
      <trkpt lat="43.10777" lon="19.00578">
        <ele>1779.5400390625</ele>
        <time>2024-09-22T08:43:11.000Z</time>
      </trkpt>
      <trkpt lat="43.10772" lon="19.00569">
        <ele>1780.0200195312</ele>
        <time>2024-09-22T08:43:12.000Z</time>
      </trkpt>
      <trkpt lat="43.10766" lon="19.00551">
        <ele>1781.4599609375</ele>
        <time>2024-09-22T08:43:13.000Z</time>
      </trkpt>
      <trkpt lat="43.10764" lon="19.00546">
        <ele>1781.9399414062</ele>
        <time>2024-09-22T08:43:14.000Z</time>
      </trkpt>
      <trkpt lat="43.10762" lon="19.00537">
        <ele>1782.4200439453</ele>
        <time>2024-09-22T08:43:15.000Z</time>
      </trkpt>
      <trkpt lat="43.1076" lon="19.00526">
        <ele>1782.9000244141</ele>
        <time>2024-09-22T08:43:16.000Z</time>
      </trkpt>
      <trkpt lat="43.1076" lon="19.0051">
        <ele>1783.8599853516</ele>
        <time>2024-09-22T08:43:17.000Z</time>
      </trkpt>
      <trkpt lat="43.1076" lon="19.00502">
        <ele>1784.8199462891</ele>
        <time>2024-09-22T08:43:18.000Z</time>
      </trkpt>
      <trkpt lat="43.10763" lon="19.00461">
        <ele>1787.2299804688</ele>
        <time>2024-09-22T08:43:21.000Z</time>
      </trkpt>
      <trkpt lat="43.10763" lon="19.00454">
        <ele>1787.7099609375</ele>
        <time>2024-09-22T08:43:22.000Z</time>
      </trkpt>
      <trkpt lat="43.10763" lon="19.00445">
        <ele>1788.1899414062</ele>
        <time>2024-09-22T08:43:23.000Z</time>
      </trkpt>
      <trkpt lat="43.1076" lon="19.00423">
        <ele>1789.6300048828</ele>
        <time>2024-09-22T08:43:25.000Z</time>
      </trkpt>
      <trkpt lat="43.10758" lon="19.00405">
        <ele>1790.5899658203</ele>
        <time>2024-09-22T08:43:26.000Z</time>
      </trkpt>
      <trkpt lat="43.10757" lon="19.004">
        <ele>1791.0699462891</ele>
        <time>2024-09-22T08:43:27.000Z</time>
      </trkpt>
      <trkpt lat="43.10754" lon="19.00387">
        <ele>1791.5500488281</ele>
        <time>2024-09-22T08:43:28.000Z</time>
      </trkpt>
      <trkpt lat="43.10752" lon="19.00378">
        <ele>1792.5200195312</ele>
        <time>2024-09-22T08:43:29.000Z</time>
      </trkpt>
      <trkpt lat="43.10748" lon="19.00368">
        <ele>1793</ele>
        <time>2024-09-22T08:43:30.000Z</time>
      </trkpt>
      <trkpt lat="43.10744" lon="19.00359">
        <ele>1793.4799804688</ele>
        <time>2024-09-22T08:43:31.000Z</time>
      </trkpt>
      <trkpt lat="43.10737" lon="19.00352">
        <ele>1793.9599609375</ele>
        <time>2024-09-22T08:43:32.000Z</time>
      </trkpt>
      <trkpt lat="43.10729" lon="19.00348">
        <ele>1794.9200439453</ele>
        <time>2024-09-22T08:43:33.000Z</time>
      </trkpt>
      <trkpt lat="43.10722" lon="19.00345">
        <ele>1795.4000244141</ele>
        <time>2024-09-22T08:43:34.000Z</time>
      </trkpt>
      <trkpt lat="43.10712" lon="19.00343">
        <ele>1796.3599853516</ele>
        <time>2024-09-22T08:43:35.000Z</time>
      </trkpt>
      <trkpt lat="43.10708" lon="19.00342">
        <ele>1796.8399658203</ele>
        <time>2024-09-22T08:43:36.000Z</time>
      </trkpt>
      <trkpt lat="43.107" lon="19.00342">
        <ele>1797.3199462891</ele>
        <time>2024-09-22T08:43:37.000Z</time>
      </trkpt>
      <trkpt lat="43.10691" lon="19.00346">
        <ele>1797.8000488281</ele>
        <time>2024-09-22T08:43:38.000Z</time>
      </trkpt>
      <trkpt lat="43.10683" lon="19.00353">
        <ele>1798.7600097656</ele>
        <time>2024-09-22T08:43:39.000Z</time>
      </trkpt>
      <trkpt lat="43.10662" lon="19.00374">
        <ele>1800.2099609375</ele>
        <time>2024-09-22T08:43:41.000Z</time>
      </trkpt>
      <trkpt lat="43.10658" lon="19.00378">
        <ele>1800.6899414062</ele>
        <time>2024-09-22T08:43:42.000Z</time>
      </trkpt>
      <trkpt lat="43.1065" lon="19.00382">
        <ele>1801.1700439453</ele>
        <time>2024-09-22T08:43:43.000Z</time>
      </trkpt>
      <trkpt lat="43.10639" lon="19.00385">
        <ele>1801.6500244141</ele>
        <time>2024-09-22T08:43:44.000Z</time>
      </trkpt>
      <trkpt lat="43.10632" lon="19.00387">
        <ele>1801.6500244141</ele>
        <time>2024-09-22T08:43:45.000Z</time>
      </trkpt>
      <trkpt lat="43.10624" lon="19.00394">
        <ele>1802.6099853516</ele>
        <time>2024-09-22T08:43:46.000Z</time>
      </trkpt>
      <trkpt lat="43.10615" lon="19.00408">
        <ele>1803.5699462891</ele>
        <time>2024-09-22T08:43:47.000Z</time>
      </trkpt>
      <trkpt lat="43.10611" lon="19.00414">
        <ele>1804.0500488281</ele>
        <time>2024-09-22T08:43:48.000Z</time>
      </trkpt>
      <trkpt lat="43.10604" lon="19.00418">
        <ele>1804.0500488281</ele>
        <time>2024-09-22T08:43:49.000Z</time>
      </trkpt>
      <trkpt lat="43.10597" lon="19.00416">
        <ele>1805.0100097656</ele>
        <time>2024-09-22T08:43:50.000Z</time>
      </trkpt>
      <trkpt lat="43.10593" lon="19.00409">
        <ele>1805.4899902344</ele>
        <time>2024-09-22T08:43:51.000Z</time>
      </trkpt>
      <trkpt lat="43.10592" lon="19.00397">
        <ele>1805.9699707031</ele>
        <time>2024-09-22T08:43:52.000Z</time>
      </trkpt>
      <trkpt lat="43.10594" lon="19.0038">
        <ele>1806.4499511719</ele>
        <time>2024-09-22T08:43:53.000Z</time>
      </trkpt>
      <trkpt lat="43.10595" lon="19.00365">
        <ele>1806.9399414062</ele>
        <time>2024-09-22T08:43:54.000Z</time>
      </trkpt>
      <trkpt lat="43.10596" lon="19.00358">
        <ele>1807.4200439453</ele>
        <time>2024-09-22T08:43:55.000Z</time>
      </trkpt>
      <trkpt lat="43.10598" lon="19.00345">
        <ele>1807.9000244141</ele>
        <time>2024-09-22T08:43:56.000Z</time>
      </trkpt>
      <trkpt lat="43.10603" lon="19.00333">
        <ele>1808.8599853516</ele>
        <time>2024-09-22T08:43:57.000Z</time>
      </trkpt>
      <trkpt lat="43.1061" lon="19.00324">
        <ele>1809.3399658203</ele>
        <time>2024-09-22T08:43:58.000Z</time>
      </trkpt>
      <trkpt lat="43.10617" lon="19.00314">
        <ele>1809.8199462891</ele>
        <time>2024-09-22T08:43:59.000Z</time>
      </trkpt>
      <trkpt lat="43.10624" lon="19.00303">
        <ele>1810.7800292969</ele>
        <time>2024-09-22T08:44:00.000Z</time>
      </trkpt>
      <trkpt lat="43.10635" lon="19.00282">
        <ele>1812.2199707031</ele>
        <time>2024-09-22T08:44:01.000Z</time>
      </trkpt>
      <trkpt lat="43.10636" lon="19.0028">
        <ele>1812.2199707031</ele>
        <time>2024-09-22T08:44:02.000Z</time>
      </trkpt>
      <trkpt lat="43.10642" lon="19.0027">
        <ele>1813.1800537109</ele>
        <time>2024-09-22T08:44:03.000Z</time>
      </trkpt>
      <trkpt lat="43.10649" lon="19.00265">
        <ele>1813.1800537109</ele>
        <time>2024-09-22T08:44:04.000Z</time>
      </trkpt>
      <trkpt lat="43.10668" lon="19.00259">
        <ele>1815.1099853516</ele>
        <time>2024-09-22T08:44:06.000Z</time>
      </trkpt>
      <trkpt lat="43.10672" lon="19.00257">
        <ele>1815.1099853516</ele>
        <time>2024-09-22T08:44:07.000Z</time>
      </trkpt>
      <trkpt lat="43.1068" lon="19.00253">
        <ele>1816.0699462891</ele>
        <time>2024-09-22T08:44:08.000Z</time>
      </trkpt>
      <trkpt lat="43.10686" lon="19.00246">
        <ele>1816.5500488281</ele>
        <time>2024-09-22T08:44:09.000Z</time>
      </trkpt>
      <trkpt lat="43.10693" lon="19.00238">
        <ele>1817.0300292969</ele>
        <time>2024-09-22T08:44:10.000Z</time>
      </trkpt>
      <trkpt lat="43.1073" lon="19.00172">
        <ele>1822.3199462891</ele>
        <time>2024-09-22T08:44:16.000Z</time>
      </trkpt>
      <trkpt lat="43.10734" lon="19.00165">
        <ele>1822.8000488281</ele>
        <time>2024-09-22T08:44:17.000Z</time>
      </trkpt>
      <trkpt lat="43.10742" lon="19.00156">
        <ele>1823.7600097656</ele>
        <time>2024-09-22T08:44:18.000Z</time>
      </trkpt>
      <trkpt lat="43.10754" lon="19.00148">
        <ele>1825.6800537109</ele>
        <time>2024-09-22T08:44:19.000Z</time>
      </trkpt>
      <trkpt lat="43.10759" lon="19.00144">
        <ele>1826.1600341797</ele>
        <time>2024-09-22T08:44:20.000Z</time>
      </trkpt>
      <trkpt lat="43.10767" lon="19.00135">
        <ele>1826.6400146484</ele>
        <time>2024-09-22T08:44:21.000Z</time>
      </trkpt>
      <trkpt lat="43.10773" lon="19.00125">
        <ele>1827.1199951172</ele>
        <time>2024-09-22T08:44:22.000Z</time>
      </trkpt>
      <trkpt lat="43.1079" lon="19.00084">
        <ele>1829.5300292969</ele>
        <time>2024-09-22T08:44:25.000Z</time>
      </trkpt>
      <trkpt lat="43.10792" lon="19.0008">
        <ele>1829.5300292969</ele>
        <time>2024-09-22T08:44:26.000Z</time>
      </trkpt>
      <trkpt lat="43.10794" lon="19.00068">
        <ele>1830.0100097656</ele>
        <time>2024-09-22T08:44:27.000Z</time>
      </trkpt>
      <trkpt lat="43.10795" lon="19.00056">
        <ele>1830.4899902344</ele>
        <time>2024-09-22T08:44:28.000Z</time>
      </trkpt>
      <trkpt lat="43.10797" lon="19.00045">
        <ele>1830.9699707031</ele>
        <time>2024-09-22T08:44:29.000Z</time>
      </trkpt>
      <trkpt lat="43.10801" lon="19.00035">
        <ele>1830.9699707031</ele>
        <time>2024-09-22T08:44:30.000Z</time>
      </trkpt>
      <trkpt lat="43.10807" lon="19.00028">
        <ele>1831.4499511719</ele>
        <time>2024-09-22T08:44:31.000Z</time>
      </trkpt>
      <trkpt lat="43.10814" lon="19.00018">
        <ele>1830.9699707031</ele>
        <time>2024-09-22T08:44:32.000Z</time>
      </trkpt>
      <trkpt lat="43.10819" lon="19.00009">
        <ele>1830.4899902344</ele>
        <time>2024-09-22T08:44:33.000Z</time>
      </trkpt>
      <trkpt lat="43.10824" lon="18.99998">
        <ele>1830.9699707031</ele>
        <time>2024-09-22T08:44:34.000Z</time>
      </trkpt>
      <trkpt lat="43.10826" lon="18.99985">
        <ele>1830.9699707031</ele>
        <time>2024-09-22T08:44:35.000Z</time>
      </trkpt>
      <trkpt lat="43.10826" lon="18.9997">
        <ele>1831.4499511719</ele>
        <time>2024-09-22T08:44:36.000Z</time>
      </trkpt>
      <trkpt lat="43.10827" lon="18.99957">
        <ele>1831.4499511719</ele>
        <time>2024-09-22T08:44:37.000Z</time>
      </trkpt>
      <trkpt lat="43.10829" lon="18.99941">
        <ele>1831.4499511719</ele>
        <time>2024-09-22T08:44:38.000Z</time>
      </trkpt>
      <trkpt lat="43.10832" lon="18.99926">
        <ele>1831.9300537109</ele>
        <time>2024-09-22T08:44:39.000Z</time>
      </trkpt>
      <trkpt lat="43.10836" lon="18.99914">
        <ele>1831.9300537109</ele>
        <time>2024-09-22T08:44:40.000Z</time>
      </trkpt>
      <trkpt lat="43.10841" lon="18.999">
        <ele>1831.9300537109</ele>
        <time>2024-09-22T08:44:41.000Z</time>
      </trkpt>
      <trkpt lat="43.10848" lon="18.99886">
        <ele>1832.4100341797</ele>
        <time>2024-09-22T08:44:42.000Z</time>
      </trkpt>
      <trkpt lat="43.10855" lon="18.99874">
        <ele>1832.4100341797</ele>
        <time>2024-09-22T08:44:43.000Z</time>
      </trkpt>
      <trkpt lat="43.10874" lon="18.99854">
        <ele>1833.3699951172</ele>
        <time>2024-09-22T08:44:45.000Z</time>
      </trkpt>
      <trkpt lat="43.10889" lon="18.99836">
        <ele>1833.8499755859</ele>
        <time>2024-09-22T08:44:46.000Z</time>
      </trkpt>
      <trkpt lat="43.10891" lon="18.99834">
        <ele>1834.3299560547</ele>
        <time>2024-09-22T08:44:47.000Z</time>
      </trkpt>
      <trkpt lat="43.10899" lon="18.99822">
        <ele>1834.8100585938</ele>
        <time>2024-09-22T08:44:48.000Z</time>
      </trkpt>
      <trkpt lat="43.10905" lon="18.9981">
        <ele>1835.2900390625</ele>
        <time>2024-09-22T08:44:49.000Z</time>
      </trkpt>
      <trkpt lat="43.10909" lon="18.99797">
        <ele>1835.7700195312</ele>
        <time>2024-09-22T08:44:50.000Z</time>
      </trkpt>
      <trkpt lat="43.10911" lon="18.99785">
        <ele>1835.7700195312</ele>
        <time>2024-09-22T08:44:51.000Z</time>
      </trkpt>
      <trkpt lat="43.1093" lon="18.99676">
        <ele>1834.3299560547</ele>
        <time>2024-09-22T08:44:57.000Z</time>
      </trkpt>
      <trkpt lat="43.10931" lon="18.99673">
        <ele>1834.3299560547</ele>
        <time>2024-09-22T08:44:58.000Z</time>
      </trkpt>
      <trkpt lat="43.10936" lon="18.99657">
        <ele>1833.8499755859</ele>
        <time>2024-09-22T08:44:59.000Z</time>
      </trkpt>
      <trkpt lat="43.10942" lon="18.99642">
        <ele>1833.3699951172</ele>
        <time>2024-09-22T08:45:00.000Z</time>
      </trkpt>
      <trkpt lat="43.10949" lon="18.9963">
        <ele>1833.3699951172</ele>
        <time>2024-09-22T08:45:01.000Z</time>
      </trkpt>
      <trkpt lat="43.10957" lon="18.9962">
        <ele>1832.8900146484</ele>
        <time>2024-09-22T08:45:02.000Z</time>
      </trkpt>
      <trkpt lat="43.1097" lon="18.9961">
        <ele>1832.8900146484</ele>
        <time>2024-09-22T08:45:03.000Z</time>
      </trkpt>
      <trkpt lat="43.10973" lon="18.99607">
        <ele>1832.8900146484</ele>
        <time>2024-09-22T08:45:04.000Z</time>
      </trkpt>
      <trkpt lat="43.10981" lon="18.99599">
        <ele>1832.4100341797</ele>
        <time>2024-09-22T08:45:05.000Z</time>
      </trkpt>
      <trkpt lat="43.10988" lon="18.99589">
        <ele>1832.4100341797</ele>
        <time>2024-09-22T08:45:06.000Z</time>
      </trkpt>
      <trkpt lat="43.10994" lon="18.99578">
        <ele>1832.4100341797</ele>
        <time>2024-09-22T08:45:07.000Z</time>
      </trkpt>
      <trkpt lat="43.10999" lon="18.99567">
        <ele>1831.9300537109</ele>
        <time>2024-09-22T08:45:08.000Z</time>
      </trkpt>
      <trkpt lat="43.11017" lon="18.99507">
        <ele>1830.0100097656</ele>
        <time>2024-09-22T08:45:12.000Z</time>
      </trkpt>
      <trkpt lat="43.11017" lon="18.99502">
        <ele>1830.0100097656</ele>
        <time>2024-09-22T08:45:13.000Z</time>
      </trkpt>
      <trkpt lat="43.11019" lon="18.99489">
        <ele>1829.5300292969</ele>
        <time>2024-09-22T08:45:14.000Z</time>
      </trkpt>
      <trkpt lat="43.11019" lon="18.99473">
        <ele>1829.0500488281</ele>
        <time>2024-09-22T08:45:15.000Z</time>
      </trkpt>
      <trkpt lat="43.11019" lon="18.99463">
        <ele>1828.5600585938</ele>
        <time>2024-09-22T08:45:16.000Z</time>
      </trkpt>
      <trkpt lat="43.11017" lon="18.99451">
        <ele>1828.0799560547</ele>
        <time>2024-09-22T08:45:17.000Z</time>
      </trkpt>
      <trkpt lat="43.11013" lon="18.99438">
        <ele>1827.5999755859</ele>
        <time>2024-09-22T08:45:18.000Z</time>
      </trkpt>
      <trkpt lat="43.11011" lon="18.99429">
        <ele>1827.1199951172</ele>
        <time>2024-09-22T08:45:19.000Z</time>
      </trkpt>
      <trkpt lat="43.1101" lon="18.99417">
        <ele>1826.6400146484</ele>
        <time>2024-09-22T08:45:20.000Z</time>
      </trkpt>
      <trkpt lat="43.11011" lon="18.99405">
        <ele>1826.1600341797</ele>
        <time>2024-09-22T08:45:21.000Z</time>
      </trkpt>
      <trkpt lat="43.11014" lon="18.99395">
        <ele>1825.6800537109</ele>
        <time>2024-09-22T08:45:22.000Z</time>
      </trkpt>
      <trkpt lat="43.11018" lon="18.99386">
        <ele>1825.6800537109</ele>
        <time>2024-09-22T08:45:23.000Z</time>
      </trkpt>
      <trkpt lat="43.11023" lon="18.99376">
        <ele>1826.1600341797</ele>
        <time>2024-09-22T08:45:24.000Z</time>
      </trkpt>
      <trkpt lat="43.11025" lon="18.9937">
        <ele>1826.1600341797</ele>
        <time>2024-09-22T08:45:25.000Z</time>
      </trkpt>
      <trkpt lat="43.11026" lon="18.99364">
        <ele>1826.6400146484</ele>
        <time>2024-09-22T08:45:26.000Z</time>
      </trkpt>
      <trkpt lat="43.11019" lon="18.9935">
        <ele>1827.5999755859</ele>
        <time>2024-09-22T08:45:29.000Z</time>
      </trkpt>
      <trkpt lat="43.11014" lon="18.99346">
        <ele>1827.5999755859</ele>
        <time>2024-09-22T08:45:30.000Z</time>
      </trkpt>
      <trkpt lat="43.11012" lon="18.99344">
        <ele>1827.5999755859</ele>
        <time>2024-09-22T08:45:31.000Z</time>
      </trkpt>
      <trkpt lat="43.10996" lon="18.99334">
        <ele>1830.0100097656</ele>
        <time>2024-09-22T08:45:39.000Z</time>
      </trkpt>
      <trkpt lat="43.10974" lon="18.99316">
        <ele>1832.8900146484</ele>
        <time>2024-09-22T08:45:47.000Z</time>
      </trkpt>
      <trkpt lat="43.10962" lon="18.99311">
        <ele>1833.3699951172</ele>
        <time>2024-09-22T08:45:50.000Z</time>
      </trkpt>
      <trkpt lat="43.1096" lon="18.9931">
        <ele>1833.3699951172</ele>
        <time>2024-09-22T08:45:51.000Z</time>
      </trkpt>
      <trkpt lat="43.10956" lon="18.99308">
        <ele>1833.3699951172</ele>
        <time>2024-09-22T08:45:52.000Z</time>
      </trkpt>
      <trkpt lat="43.10953" lon="18.99304">
        <ele>1832.8900146484</ele>
        <time>2024-09-22T08:45:53.000Z</time>
      </trkpt>
      <trkpt lat="43.10949" lon="18.993">
        <ele>1832.8900146484</ele>
        <time>2024-09-22T08:45:54.000Z</time>
      </trkpt>
      <trkpt lat="43.10946" lon="18.99295">
        <ele>1832.4100341797</ele>
        <time>2024-09-22T08:45:55.000Z</time>
      </trkpt>
      <trkpt lat="43.10943" lon="18.99289">
        <ele>1831.9300537109</ele>
        <time>2024-09-22T08:45:56.000Z</time>
      </trkpt>
      <trkpt lat="43.10934" lon="18.99277">
        <ele>1830.4899902344</ele>
        <time>2024-09-22T08:46:03.000Z</time>
      </trkpt>
      <trkpt lat="43.10933" lon="18.99276">
        <ele>1829.0500488281</ele>
        <time>2024-09-22T08:46:50.000Z</time>
      </trkpt>
      <trkpt lat="43.10933" lon="18.99276">
        <ele>1829.0500488281</ele>
        <time>2024-09-22T08:49:48.000Z</time>
      </trkpt>
      <trkpt lat="43.10916" lon="18.99261">
        <ele>1825.1999511719</ele>
        <time>2024-09-22T08:51:36.000Z</time>
      </trkpt>
      <trkpt lat="43.10893" lon="18.99256">
        <ele>1820.3900146484</ele>
        <time>2024-09-22T08:51:43.000Z</time>
      </trkpt>
      <trkpt lat="43.10888" lon="18.99259">
        <ele>1819.4300537109</ele>
        <time>2024-09-22T08:51:44.000Z</time>
      </trkpt>
      <trkpt lat="43.10885" lon="18.9926">
        <ele>1818.9499511719</ele>
        <time>2024-09-22T08:51:45.000Z</time>
      </trkpt>
      <trkpt lat="43.10882" lon="18.99262">
        <ele>1818.4699707031</ele>
        <time>2024-09-22T08:51:46.000Z</time>
      </trkpt>
      <trkpt lat="43.10877" lon="18.99266">
        <ele>1817.5100097656</ele>
        <time>2024-09-22T08:51:47.000Z</time>
      </trkpt>
      <trkpt lat="43.10875" lon="18.99268">
        <ele>1816.5500488281</ele>
        <time>2024-09-22T08:51:48.000Z</time>
      </trkpt>
      <trkpt lat="43.1087" lon="18.99271">
        <ele>1815.5899658203</ele>
        <time>2024-09-22T08:51:49.000Z</time>
      </trkpt>
      <trkpt lat="43.10866" lon="18.99274">
        <ele>1814.6300048828</ele>
        <time>2024-09-22T08:51:50.000Z</time>
      </trkpt>
      <trkpt lat="43.1086" lon="18.99277">
        <ele>1813.6600341797</ele>
        <time>2024-09-22T08:51:51.000Z</time>
      </trkpt>
      <trkpt lat="43.10857" lon="18.99278">
        <ele>1813.1800537109</ele>
        <time>2024-09-22T08:51:52.000Z</time>
      </trkpt>
      <trkpt lat="43.10849" lon="18.99283">
        <ele>1811.7399902344</ele>
        <time>2024-09-22T08:51:53.000Z</time>
      </trkpt>
      <trkpt lat="43.10846" lon="18.99285">
        <ele>1811.2600097656</ele>
        <time>2024-09-22T08:51:54.000Z</time>
      </trkpt>
      <trkpt lat="43.10843" lon="18.99287">
        <ele>1811.2600097656</ele>
        <time>2024-09-22T08:51:55.000Z</time>
      </trkpt>
      <trkpt lat="43.10839" lon="18.99291">
        <ele>1810.7800292969</ele>
        <time>2024-09-22T08:51:56.000Z</time>
      </trkpt>
      <trkpt lat="43.10835" lon="18.99294">
        <ele>1810.3000488281</ele>
        <time>2024-09-22T08:51:57.000Z</time>
      </trkpt>
      <trkpt lat="43.1083" lon="18.99297">
        <ele>1809.3399658203</ele>
        <time>2024-09-22T08:51:58.000Z</time>
      </trkpt>
      <trkpt lat="43.10826" lon="18.99299">
        <ele>1808.3800048828</ele>
        <time>2024-09-22T08:51:59.000Z</time>
      </trkpt>
      <trkpt lat="43.10822" lon="18.99301">
        <ele>1807.4200439453</ele>
        <time>2024-09-22T08:52:00.000Z</time>
      </trkpt>
      <trkpt lat="43.10817" lon="18.99302">
        <ele>1806.9399414062</ele>
        <time>2024-09-22T08:52:01.000Z</time>
      </trkpt>
      <trkpt lat="43.10812" lon="18.99303">
        <ele>1805.9699707031</ele>
        <time>2024-09-22T08:52:02.000Z</time>
      </trkpt>
      <trkpt lat="43.10807" lon="18.99302">
        <ele>1805.0100097656</ele>
        <time>2024-09-22T08:52:03.000Z</time>
      </trkpt>
      <trkpt lat="43.10797" lon="18.99299">
        <ele>1803.5699462891</ele>
        <time>2024-09-22T08:52:05.000Z</time>
      </trkpt>
      <trkpt lat="43.10777" lon="18.9929">
        <ele>1800.2099609375</ele>
        <time>2024-09-22T08:52:10.000Z</time>
      </trkpt>
      <trkpt lat="43.10776" lon="18.99287">
        <ele>1799.7299804688</ele>
        <time>2024-09-22T08:52:11.000Z</time>
      </trkpt>
      <trkpt lat="43.10773" lon="18.99281">
        <ele>1798.7600097656</ele>
        <time>2024-09-22T08:52:12.000Z</time>
      </trkpt>
      <trkpt lat="43.10768" lon="18.99271">
        <ele>1797.8000488281</ele>
        <time>2024-09-22T08:52:13.000Z</time>
      </trkpt>
      <trkpt lat="43.10766" lon="18.99266">
        <ele>1797.3199462891</ele>
        <time>2024-09-22T08:52:14.000Z</time>
      </trkpt>
      <trkpt lat="43.10765" lon="18.99262">
        <ele>1796.8399658203</ele>
        <time>2024-09-22T08:52:15.000Z</time>
      </trkpt>
      <trkpt lat="43.10763" lon="18.99256">
        <ele>1795.8800048828</ele>
        <time>2024-09-22T08:52:16.000Z</time>
      </trkpt>
      <trkpt lat="43.10762" lon="18.99249">
        <ele>1795.4000244141</ele>
        <time>2024-09-22T08:52:17.000Z</time>
      </trkpt>
      <trkpt lat="43.10762" lon="18.99239">
        <ele>1795.4000244141</ele>
        <time>2024-09-22T08:52:18.000Z</time>
      </trkpt>
      <trkpt lat="43.10761" lon="18.99232">
        <ele>1794.9200439453</ele>
        <time>2024-09-22T08:52:19.000Z</time>
      </trkpt>
      <trkpt lat="43.1076" lon="18.99227">
        <ele>1794.9200439453</ele>
        <time>2024-09-22T08:52:20.000Z</time>
      </trkpt>
      <trkpt lat="43.10758" lon="18.99221">
        <ele>1794.4399414062</ele>
        <time>2024-09-22T08:52:21.000Z</time>
      </trkpt>
      <trkpt lat="43.10755" lon="18.99216">
        <ele>1794.4399414062</ele>
        <time>2024-09-22T08:52:22.000Z</time>
      </trkpt>
      <trkpt lat="43.10753" lon="18.99213">
        <ele>1793.9599609375</ele>
        <time>2024-09-22T08:52:23.000Z</time>
      </trkpt>
      <trkpt lat="43.1075" lon="18.99207">
        <ele>1793.4799804688</ele>
        <time>2024-09-22T08:52:24.000Z</time>
      </trkpt>
      <trkpt lat="43.10747" lon="18.99201">
        <ele>1793</ele>
        <time>2024-09-22T08:52:25.000Z</time>
      </trkpt>
      <trkpt lat="43.10745" lon="18.99197">
        <ele>1792.5200195312</ele>
        <time>2024-09-22T08:52:26.000Z</time>
      </trkpt>
      <trkpt lat="43.10743" lon="18.99191">
        <ele>1792.0300292969</ele>
        <time>2024-09-22T08:52:27.000Z</time>
      </trkpt>
      <trkpt lat="43.1074" lon="18.99185">
        <ele>1792.0300292969</ele>
        <time>2024-09-22T08:52:28.000Z</time>
      </trkpt>
      <trkpt lat="43.10739" lon="18.99179">
        <ele>1791.5500488281</ele>
        <time>2024-09-22T08:52:29.000Z</time>
      </trkpt>
      <trkpt lat="43.10738" lon="18.99172">
        <ele>1791.0699462891</ele>
        <time>2024-09-22T08:52:30.000Z</time>
      </trkpt>
      <trkpt lat="43.10736" lon="18.99158">
        <ele>1789.6300048828</ele>
        <time>2024-09-22T08:52:32.000Z</time>
      </trkpt>
      <trkpt lat="43.10735" lon="18.99151">
        <ele>1789.1500244141</ele>
        <time>2024-09-22T08:52:33.000Z</time>
      </trkpt>
      <trkpt lat="43.10733" lon="18.99145">
        <ele>1789.1500244141</ele>
        <time>2024-09-22T08:52:34.000Z</time>
      </trkpt>
      <trkpt lat="43.10731" lon="18.99138">
        <ele>1788.6700439453</ele>
        <time>2024-09-22T08:52:35.000Z</time>
      </trkpt>
      <trkpt lat="43.10728" lon="18.99131">
        <ele>1787.7099609375</ele>
        <time>2024-09-22T08:52:36.000Z</time>
      </trkpt>
      <trkpt lat="43.10726" lon="18.99124">
        <ele>1787.2299804688</ele>
        <time>2024-09-22T08:52:37.000Z</time>
      </trkpt>
      <trkpt lat="43.10724" lon="18.99118">
        <ele>1786.75</ele>
        <time>2024-09-22T08:52:38.000Z</time>
      </trkpt>
      <trkpt lat="43.1072" lon="18.99111">
        <ele>1786.2700195312</ele>
        <time>2024-09-22T08:52:39.000Z</time>
      </trkpt>
      <trkpt lat="43.10716" lon="18.99107">
        <ele>1785.7900390625</ele>
        <time>2024-09-22T08:52:40.000Z</time>
      </trkpt>
      <trkpt lat="43.10711" lon="18.99103">
        <ele>1784.8199462891</ele>
        <time>2024-09-22T08:52:41.000Z</time>
      </trkpt>
      <trkpt lat="43.10704" lon="18.99098">
        <ele>1784.3399658203</ele>
        <time>2024-09-22T08:52:42.000Z</time>
      </trkpt>
      <trkpt lat="43.10701" lon="18.99097">
        <ele>1783.8599853516</ele>
        <time>2024-09-22T08:52:43.000Z</time>
      </trkpt>
      <trkpt lat="43.10696" lon="18.99095">
        <ele>1783.3800048828</ele>
        <time>2024-09-22T08:52:44.000Z</time>
      </trkpt>
      <trkpt lat="43.1069" lon="18.99094">
        <ele>1782.9000244141</ele>
        <time>2024-09-22T08:52:45.000Z</time>
      </trkpt>
      <trkpt lat="43.10684" lon="18.99095">
        <ele>1782.4200439453</ele>
        <time>2024-09-22T08:52:46.000Z</time>
      </trkpt>
      <trkpt lat="43.10679" lon="18.99095">
        <ele>1781.9399414062</ele>
        <time>2024-09-22T08:52:47.000Z</time>
      </trkpt>
      <trkpt lat="43.1067" lon="18.99096">
        <ele>1780.9799804688</ele>
        <time>2024-09-22T08:52:48.000Z</time>
      </trkpt>
      <trkpt lat="43.10668" lon="18.99095">
        <ele>1780.5</ele>
        <time>2024-09-22T08:52:49.000Z</time>
      </trkpt>
      <trkpt lat="43.10662" lon="18.99095">
        <ele>1780.0200195312</ele>
        <time>2024-09-22T08:52:50.000Z</time>
      </trkpt>
      <trkpt lat="43.10657" lon="18.99094">
        <ele>1779.0600585938</ele>
        <time>2024-09-22T08:52:51.000Z</time>
      </trkpt>
      <trkpt lat="43.10647" lon="18.99092">
        <ele>1777.6099853516</ele>
        <time>2024-09-22T08:52:52.000Z</time>
      </trkpt>
      <trkpt lat="43.10643" lon="18.99091">
        <ele>1777.1300048828</ele>
        <time>2024-09-22T08:52:53.000Z</time>
      </trkpt>
      <trkpt lat="43.10634" lon="18.99089">
        <ele>1776.1700439453</ele>
        <time>2024-09-22T08:52:55.000Z</time>
      </trkpt>
      <trkpt lat="43.10628" lon="18.99088">
        <ele>1775.2099609375</ele>
        <time>2024-09-22T08:52:56.000Z</time>
      </trkpt>
      <trkpt lat="43.10621" lon="18.99086">
        <ele>1774.7299804688</ele>
        <time>2024-09-22T08:52:57.000Z</time>
      </trkpt>
      <trkpt lat="43.10615" lon="18.99085">
        <ele>1774.25</ele>
        <time>2024-09-22T08:52:58.000Z</time>
      </trkpt>
      <trkpt lat="43.1061" lon="18.99085">
        <ele>1773.7700195312</ele>
        <time>2024-09-22T08:52:59.000Z</time>
      </trkpt>
      <trkpt lat="43.10605" lon="18.99085">
        <ele>1773.2900390625</ele>
        <time>2024-09-22T08:53:00.000Z</time>
      </trkpt>
      <trkpt lat="43.10601" lon="18.99084">
        <ele>1772.8100585938</ele>
        <time>2024-09-22T08:53:01.000Z</time>
      </trkpt>
      <trkpt lat="43.10595" lon="18.99083">
        <ele>1771.8499755859</ele>
        <time>2024-09-22T08:53:02.000Z</time>
      </trkpt>
      <trkpt lat="43.1059" lon="18.99082">
        <ele>1770.8900146484</ele>
        <time>2024-09-22T08:53:03.000Z</time>
      </trkpt>
      <trkpt lat="43.10585" lon="18.99081">
        <ele>1770.4100341797</ele>
        <time>2024-09-22T08:53:04.000Z</time>
      </trkpt>
      <trkpt lat="43.1058" lon="18.99079">
        <ele>1769.4399414062</ele>
        <time>2024-09-22T08:53:05.000Z</time>
      </trkpt>
      <trkpt lat="43.10576" lon="18.99077">
        <ele>1768.4799804688</ele>
        <time>2024-09-22T08:53:06.000Z</time>
      </trkpt>
      <trkpt lat="43.10565" lon="18.99072">
        <ele>1766.0799560547</ele>
        <time>2024-09-22T08:53:08.000Z</time>
      </trkpt>
      <trkpt lat="43.10558" lon="18.99069">
        <ele>1764.6400146484</ele>
        <time>2024-09-22T08:53:09.000Z</time>
      </trkpt>
      <trkpt lat="43.10553" lon="18.99067">
        <ele>1763.6800537109</ele>
        <time>2024-09-22T08:53:10.000Z</time>
      </trkpt>
      <trkpt lat="43.10548" lon="18.99065">
        <ele>1762.7099609375</ele>
        <time>2024-09-22T08:53:11.000Z</time>
      </trkpt>
      <trkpt lat="43.10543" lon="18.99063">
        <ele>1761.75</ele>
        <time>2024-09-22T08:53:12.000Z</time>
      </trkpt>
      <trkpt lat="43.10538" lon="18.99062">
        <ele>1761.2700195312</ele>
        <time>2024-09-22T08:53:13.000Z</time>
      </trkpt>
      <trkpt lat="43.10533" lon="18.99062">
        <ele>1760.3100585938</ele>
        <time>2024-09-22T08:53:14.000Z</time>
      </trkpt>
      <trkpt lat="43.10528" lon="18.99063">
        <ele>1759.8299560547</ele>
        <time>2024-09-22T08:53:15.000Z</time>
      </trkpt>
      <trkpt lat="43.1052" lon="18.99066">
        <ele>1758.8699951172</ele>
        <time>2024-09-22T08:53:16.000Z</time>
      </trkpt>
      <trkpt lat="43.10515" lon="18.99068">
        <ele>1758.3900146484</ele>
        <time>2024-09-22T08:53:17.000Z</time>
      </trkpt>
      <trkpt lat="43.10508" lon="18.99071">
        <ele>1757.9100341797</ele>
        <time>2024-09-22T08:53:18.000Z</time>
      </trkpt>
      <trkpt lat="43.10504" lon="18.99074">
        <ele>1757.4300537109</ele>
        <time>2024-09-22T08:53:19.000Z</time>
      </trkpt>
      <trkpt lat="43.105" lon="18.99077">
        <ele>1756.9499511719</ele>
        <time>2024-09-22T08:53:20.000Z</time>
      </trkpt>
      <trkpt lat="43.10495" lon="18.99081">
        <ele>1756.9499511719</ele>
        <time>2024-09-22T08:53:21.000Z</time>
      </trkpt>
      <trkpt lat="43.10491" lon="18.99087">
        <ele>1756.4699707031</ele>
        <time>2024-09-22T08:53:22.000Z</time>
      </trkpt>
      <trkpt lat="43.10487" lon="18.99092">
        <ele>1755.5</ele>
        <time>2024-09-22T08:53:23.000Z</time>
      </trkpt>
      <trkpt lat="43.10481" lon="18.99097">
        <ele>1754.5400390625</ele>
        <time>2024-09-22T08:53:24.000Z</time>
      </trkpt>
      <trkpt lat="43.10476" lon="18.991">
        <ele>1754.0600585938</ele>
        <time>2024-09-22T08:53:25.000Z</time>
      </trkpt>
      <trkpt lat="43.10471" lon="18.99103">
        <ele>1753.0999755859</ele>
        <time>2024-09-22T08:53:26.000Z</time>
      </trkpt>
      <trkpt lat="43.1046" lon="18.99109">
        <ele>1751.6600341797</ele>
        <time>2024-09-22T08:53:28.000Z</time>
      </trkpt>
      <trkpt lat="43.10454" lon="18.99112">
        <ele>1751.1800537109</ele>
        <time>2024-09-22T08:53:29.000Z</time>
      </trkpt>
      <trkpt lat="43.10448" lon="18.99114">
        <ele>1750.2199707031</ele>
        <time>2024-09-22T08:53:30.000Z</time>
      </trkpt>
      <trkpt lat="43.1044" lon="18.99117">
        <ele>1749.2600097656</ele>
        <time>2024-09-22T08:53:31.000Z</time>
      </trkpt>
      <trkpt lat="43.1042" lon="18.99122">
        <ele>1745.8900146484</ele>
        <time>2024-09-22T08:53:34.000Z</time>
      </trkpt>
      <trkpt lat="43.10403" lon="18.99127">
        <ele>1743.4899902344</ele>
        <time>2024-09-22T08:53:36.000Z</time>
      </trkpt>
      <trkpt lat="43.10398" lon="18.99128">
        <ele>1743.0100097656</ele>
        <time>2024-09-22T08:53:37.000Z</time>
      </trkpt>
      <trkpt lat="43.10393" lon="18.99129">
        <ele>1742.5300292969</ele>
        <time>2024-09-22T08:53:38.000Z</time>
      </trkpt>
      <trkpt lat="43.10387" lon="18.9913">
        <ele>1741.5699462891</ele>
        <time>2024-09-22T08:53:39.000Z</time>
      </trkpt>
      <trkpt lat="43.10376" lon="18.99131">
        <ele>1740.5999755859</ele>
        <time>2024-09-22T08:53:40.000Z</time>
      </trkpt>
      <trkpt lat="43.10372" lon="18.99131">
        <ele>1740.1199951172</ele>
        <time>2024-09-22T08:53:41.000Z</time>
      </trkpt>
      <trkpt lat="43.10364" lon="18.99131">
        <ele>1738.6800537109</ele>
        <time>2024-09-22T08:53:42.000Z</time>
      </trkpt>
      <trkpt lat="43.10362" lon="18.9913">
        <ele>1738.6800537109</ele>
        <time>2024-09-22T08:53:43.000Z</time>
      </trkpt>
      <trkpt lat="43.10353" lon="18.99129">
        <ele>1737.7199707031</ele>
        <time>2024-09-22T08:53:44.000Z</time>
      </trkpt>
      <trkpt lat="43.10342" lon="18.99127">
        <ele>1737.2399902344</ele>
        <time>2024-09-22T08:53:46.000Z</time>
      </trkpt>
      <trkpt lat="43.10336" lon="18.99126">
        <ele>1736.7600097656</ele>
        <time>2024-09-22T08:53:47.000Z</time>
      </trkpt>
      <trkpt lat="43.10331" lon="18.99125">
        <ele>1736.7600097656</ele>
        <time>2024-09-22T08:53:48.000Z</time>
      </trkpt>
      <trkpt lat="43.10324" lon="18.99124">
        <ele>1736.7600097656</ele>
        <time>2024-09-22T08:53:49.000Z</time>
      </trkpt>
      <trkpt lat="43.10314" lon="18.99122">
        <ele>1736.7600097656</ele>
        <time>2024-09-22T08:53:50.000Z</time>
      </trkpt>
      <trkpt lat="43.10312" lon="18.99122">
        <ele>1736.7600097656</ele>
        <time>2024-09-22T08:53:51.000Z</time>
      </trkpt>
      <trkpt lat="43.10302" lon="18.99122">
        <ele>1736.2800292969</ele>
        <time>2024-09-22T08:53:52.000Z</time>
      </trkpt>
      <trkpt lat="43.10298" lon="18.99122">
        <ele>1735.8000488281</ele>
        <time>2024-09-22T08:53:53.000Z</time>
      </trkpt>
      <trkpt lat="43.10294" lon="18.99121">
        <ele>1735.3199462891</ele>
        <time>2024-09-22T08:53:54.000Z</time>
      </trkpt>
      <trkpt lat="43.10288" lon="18.99119">
        <ele>1734.3599853516</ele>
        <time>2024-09-22T08:53:55.000Z</time>
      </trkpt>
      <trkpt lat="43.10281" lon="18.99116">
        <ele>1733.3900146484</ele>
        <time>2024-09-22T08:53:56.000Z</time>
      </trkpt>
      <trkpt lat="43.10276" lon="18.99115">
        <ele>1732.9100341797</ele>
        <time>2024-09-22T08:53:57.000Z</time>
      </trkpt>
      <trkpt lat="43.10268" lon="18.99114">
        <ele>1731.9499511719</ele>
        <time>2024-09-22T08:53:58.000Z</time>
      </trkpt>
      <trkpt lat="43.10263" lon="18.99114">
        <ele>1731.4699707031</ele>
        <time>2024-09-22T08:53:59.000Z</time>
      </trkpt>
      <trkpt lat="43.10255" lon="18.99116">
        <ele>1730.9899902344</ele>
        <time>2024-09-22T08:54:00.000Z</time>
      </trkpt>
      <trkpt lat="43.10249" lon="18.99117">
        <ele>1730.0300292969</ele>
        <time>2024-09-22T08:54:01.000Z</time>
      </trkpt>
      <trkpt lat="43.10244" lon="18.99118">
        <ele>1729.5500488281</ele>
        <time>2024-09-22T08:54:02.000Z</time>
      </trkpt>
      <trkpt lat="43.10237" lon="18.99121">
        <ele>1728.5899658203</ele>
        <time>2024-09-22T08:54:03.000Z</time>
      </trkpt>
      <trkpt lat="43.10229" lon="18.99124">
        <ele>1728.1099853516</ele>
        <time>2024-09-22T08:54:04.000Z</time>
      </trkpt>
      <trkpt lat="43.10225" lon="18.99125">
        <ele>1727.1500244141</ele>
        <time>2024-09-22T08:54:05.000Z</time>
      </trkpt>
      <trkpt lat="43.1022" lon="18.99127">
        <ele>1726.6700439453</ele>
        <time>2024-09-22T08:54:06.000Z</time>
      </trkpt>
      <trkpt lat="43.10212" lon="18.99129">
        <ele>1725.6999511719</ele>
        <time>2024-09-22T08:54:07.000Z</time>
      </trkpt>
      <trkpt lat="43.10207" lon="18.99129">
        <ele>1724.7399902344</ele>
        <time>2024-09-22T08:54:08.000Z</time>
      </trkpt>
      <trkpt lat="43.10203" lon="18.9913">
        <ele>1724.2600097656</ele>
        <time>2024-09-22T08:54:09.000Z</time>
      </trkpt>
      <trkpt lat="43.1019" lon="18.99129">
        <ele>1722.3399658203</ele>
        <time>2024-09-22T08:54:11.000Z</time>
      </trkpt>
      <trkpt lat="43.10185" lon="18.99128">
        <ele>1721.8599853516</ele>
        <time>2024-09-22T08:54:12.000Z</time>
      </trkpt>
      <trkpt lat="43.1018" lon="18.99128">
        <ele>1721.3800048828</ele>
        <time>2024-09-22T08:54:13.000Z</time>
      </trkpt>
      <trkpt lat="43.10172" lon="18.99127">
        <ele>1720.9000244141</ele>
        <time>2024-09-22T08:54:14.000Z</time>
      </trkpt>
      <trkpt lat="43.10168" lon="18.99125">
        <ele>1719.9399414062</ele>
        <time>2024-09-22T08:54:15.000Z</time>
      </trkpt>
      <trkpt lat="43.10165" lon="18.99124">
        <ele>1719.4599609375</ele>
        <time>2024-09-22T08:54:16.000Z</time>
      </trkpt>
      <trkpt lat="43.10158" lon="18.99122">
        <ele>1718.4899902344</ele>
        <time>2024-09-22T08:54:17.000Z</time>
      </trkpt>
      <trkpt lat="43.10154" lon="18.99121">
        <ele>1718.0100097656</ele>
        <time>2024-09-22T08:54:18.000Z</time>
      </trkpt>
      <trkpt lat="43.10147" lon="18.99121">
        <ele>1717.5300292969</ele>
        <time>2024-09-22T08:54:19.000Z</time>
      </trkpt>
      <trkpt lat="43.1014" lon="18.99121">
        <ele>1717.0500488281</ele>
        <time>2024-09-22T08:54:20.000Z</time>
      </trkpt>
      <trkpt lat="43.10132" lon="18.99122">
        <ele>1717.0500488281</ele>
        <time>2024-09-22T08:54:21.000Z</time>
      </trkpt>
      <trkpt lat="43.10128" lon="18.99122">
        <ele>1716.5699462891</ele>
        <time>2024-09-22T08:54:22.000Z</time>
      </trkpt>
      <trkpt lat="43.10123" lon="18.99122">
        <ele>1716.5699462891</ele>
        <time>2024-09-22T08:54:23.000Z</time>
      </trkpt>
      <trkpt lat="43.10118" lon="18.99122">
        <ele>1716.0899658203</ele>
        <time>2024-09-22T08:54:24.000Z</time>
      </trkpt>
      <trkpt lat="43.10113" lon="18.9912">
        <ele>1715.6099853516</ele>
        <time>2024-09-22T08:54:25.000Z</time>
      </trkpt>
      <trkpt lat="43.10109" lon="18.99118">
        <ele>1715.1300048828</ele>
        <time>2024-09-22T08:54:26.000Z</time>
      </trkpt>
      <trkpt lat="43.10093" lon="18.99102">
        <ele>1714.6500244141</ele>
        <time>2024-09-22T08:54:34.000Z</time>
      </trkpt>
      <trkpt lat="43.10092" lon="18.99102">
        <ele>1715.1300048828</ele>
        <time>2024-09-22T08:54:37.000Z</time>
      </trkpt>
      <trkpt lat="43.1008" lon="18.99094">
        <ele>1714.6500244141</ele>
        <time>2024-09-22T08:54:41.000Z</time>
      </trkpt>
      <trkpt lat="43.10078" lon="18.99092">
        <ele>1714.6500244141</ele>
        <time>2024-09-22T08:54:42.000Z</time>
      </trkpt>
      <trkpt lat="43.10073" lon="18.99089">
        <ele>1713.6899414062</ele>
        <time>2024-09-22T08:54:43.000Z</time>
      </trkpt>
      <trkpt lat="43.10071" lon="18.99087">
        <ele>1713.2099609375</ele>
        <time>2024-09-22T08:54:44.000Z</time>
      </trkpt>
      <trkpt lat="43.10059" lon="18.99061">
        <ele>1712.25</ele>
        <time>2024-09-22T08:54:51.000Z</time>
      </trkpt>
      <trkpt lat="43.10048" lon="18.99058">
        <ele>1712.25</ele>
        <time>2024-09-22T08:54:57.000Z</time>
      </trkpt>
      <trkpt lat="43.10048" lon="18.99058">
        <ele>1712.25</ele>
        <time>2024-09-22T08:55:37.000Z</time>
      </trkpt>
      <trkpt lat="43.10037" lon="18.99059">
        <ele>1713.2099609375</ele>
        <time>2024-09-22T09:05:50.000Z</time>
      </trkpt>
      <trkpt lat="43.10026" lon="18.99053">
        <ele>1713.2099609375</ele>
        <time>2024-09-22T09:05:59.000Z</time>
      </trkpt>
      <trkpt lat="43.10014" lon="18.99048">
        <ele>1712.25</ele>
        <time>2024-09-22T09:06:02.000Z</time>
      </trkpt>
      <trkpt lat="43.10013" lon="18.99047">
        <ele>1712.25</ele>
        <time>2024-09-22T09:06:03.000Z</time>
      </trkpt>
      <trkpt lat="43.10008" lon="18.99045">
        <ele>1711.7600097656</ele>
        <time>2024-09-22T09:06:04.000Z</time>
      </trkpt>
      <trkpt lat="43.10004" lon="18.99043">
        <ele>1711.2800292969</ele>
        <time>2024-09-22T09:06:05.000Z</time>
      </trkpt>
      <trkpt lat="43.09997" lon="18.99038">
        <ele>1710.3199462891</ele>
        <time>2024-09-22T09:06:06.000Z</time>
      </trkpt>
      <trkpt lat="43.09992" lon="18.99035">
        <ele>1709.8399658203</ele>
        <time>2024-09-22T09:06:07.000Z</time>
      </trkpt>
      <trkpt lat="43.09989" lon="18.99034">
        <ele>1709.3599853516</ele>
        <time>2024-09-22T09:06:08.000Z</time>
      </trkpt>
      <trkpt lat="43.09983" lon="18.9903">
        <ele>1708.8800048828</ele>
        <time>2024-09-22T09:06:09.000Z</time>
      </trkpt>
      <trkpt lat="43.0998" lon="18.99029">
        <ele>1708.8800048828</ele>
        <time>2024-09-22T09:06:10.000Z</time>
      </trkpt>
      <trkpt lat="43.09976" lon="18.99027">
        <ele>1708.8800048828</ele>
        <time>2024-09-22T09:06:11.000Z</time>
      </trkpt>
      <trkpt lat="43.09972" lon="18.99026">
        <ele>1708.8800048828</ele>
        <time>2024-09-22T09:06:12.000Z</time>
      </trkpt>
      <trkpt lat="43.09968" lon="18.99024">
        <ele>1708.8800048828</ele>
        <time>2024-09-22T09:06:13.000Z</time>
      </trkpt>
      <trkpt lat="43.09963" lon="18.99023">
        <ele>1708.4000244141</ele>
        <time>2024-09-22T09:06:14.000Z</time>
      </trkpt>
      <trkpt lat="43.09958" lon="18.99022">
        <ele>1708.4000244141</ele>
        <time>2024-09-22T09:06:15.000Z</time>
      </trkpt>
      <trkpt lat="43.09951" lon="18.9902">
        <ele>1707.4399414062</ele>
        <time>2024-09-22T09:06:16.000Z</time>
      </trkpt>
      <trkpt lat="43.09949" lon="18.99019">
        <ele>1706.9599609375</ele>
        <time>2024-09-22T09:06:17.000Z</time>
      </trkpt>
      <trkpt lat="43.0994" lon="18.99017">
        <ele>1706.9599609375</ele>
        <time>2024-09-22T09:06:19.000Z</time>
      </trkpt>
      <trkpt lat="43.09938" lon="18.99017">
        <ele>1706.9599609375</ele>
        <time>2024-09-22T09:06:20.000Z</time>
      </trkpt>
      <trkpt lat="43.09932" lon="18.99018">
        <ele>1707.4399414062</ele>
        <time>2024-09-22T09:06:21.000Z</time>
      </trkpt>
      <trkpt lat="43.09928" lon="18.99018">
        <ele>1707.9200439453</ele>
        <time>2024-09-22T09:06:22.000Z</time>
      </trkpt>
      <trkpt lat="43.09923" lon="18.99019">
        <ele>1707.9200439453</ele>
        <time>2024-09-22T09:06:23.000Z</time>
      </trkpt>
      <trkpt lat="43.09916" lon="18.9902">
        <ele>1708.4000244141</ele>
        <time>2024-09-22T09:06:24.000Z</time>
      </trkpt>
      <trkpt lat="43.09907" lon="18.99021">
        <ele>1708.8800048828</ele>
        <time>2024-09-22T09:06:26.000Z</time>
      </trkpt>
      <trkpt lat="43.09903" lon="18.99022">
        <ele>1708.8800048828</ele>
        <time>2024-09-22T09:06:27.000Z</time>
      </trkpt>
      <trkpt lat="43.09898" lon="18.99021">
        <ele>1708.4000244141</ele>
        <time>2024-09-22T09:06:28.000Z</time>
      </trkpt>
      <trkpt lat="43.09894" lon="18.99021">
        <ele>1707.9200439453</ele>
        <time>2024-09-22T09:06:29.000Z</time>
      </trkpt>
      <trkpt lat="43.09889" lon="18.99019">
        <ele>1707.4399414062</ele>
        <time>2024-09-22T09:06:30.000Z</time>
      </trkpt>
      <trkpt lat="43.09884" lon="18.99017">
        <ele>1707.4399414062</ele>
        <time>2024-09-22T09:06:31.000Z</time>
      </trkpt>
      <trkpt lat="43.09879" lon="18.99016">
        <ele>1707.4399414062</ele>
        <time>2024-09-22T09:06:32.000Z</time>
      </trkpt>
      <trkpt lat="43.09873" lon="18.99015">
        <ele>1707.4399414062</ele>
        <time>2024-09-22T09:06:33.000Z</time>
      </trkpt>
      <trkpt lat="43.09868" lon="18.99014">
        <ele>1706.9599609375</ele>
        <time>2024-09-22T09:06:34.000Z</time>
      </trkpt>
      <trkpt lat="43.09863" lon="18.99012">
        <ele>1706.9599609375</ele>
        <time>2024-09-22T09:06:35.000Z</time>
      </trkpt>
      <trkpt lat="43.09859" lon="18.99008">
        <ele>1706.4799804688</ele>
        <time>2024-09-22T09:06:36.000Z</time>
      </trkpt>
      <trkpt lat="43.09854" lon="18.99004">
        <ele>1706.4799804688</ele>
        <time>2024-09-22T09:06:37.000Z</time>
      </trkpt>
      <trkpt lat="43.0985" lon="18.98999">
        <ele>1705.5200195312</ele>
        <time>2024-09-22T09:06:38.000Z</time>
      </trkpt>
      <trkpt lat="43.09846" lon="18.98997">
        <ele>1705.0400390625</ele>
        <time>2024-09-22T09:06:39.000Z</time>
      </trkpt>
      <trkpt lat="43.09841" lon="18.98996">
        <ele>1705.0400390625</ele>
        <time>2024-09-22T09:06:40.000Z</time>
      </trkpt>
      <trkpt lat="43.09836" lon="18.98996">
        <ele>1704.5500488281</ele>
        <time>2024-09-22T09:06:41.000Z</time>
      </trkpt>
      <trkpt lat="43.09832" lon="18.98996">
        <ele>1704.5500488281</ele>
        <time>2024-09-22T09:06:42.000Z</time>
      </trkpt>
      <trkpt lat="43.09826" lon="18.98995">
        <ele>1704.0699462891</ele>
        <time>2024-09-22T09:06:43.000Z</time>
      </trkpt>
      <trkpt lat="43.09819" lon="18.98994">
        <ele>1703.5899658203</ele>
        <time>2024-09-22T09:06:44.000Z</time>
      </trkpt>
      <trkpt lat="43.09816" lon="18.98993">
        <ele>1703.1099853516</ele>
        <time>2024-09-22T09:06:45.000Z</time>
      </trkpt>
      <trkpt lat="43.0981" lon="18.98991">
        <ele>1702.6300048828</ele>
        <time>2024-09-22T09:06:46.000Z</time>
      </trkpt>
      <trkpt lat="43.09805" lon="18.98988">
        <ele>1702.1500244141</ele>
        <time>2024-09-22T09:06:47.000Z</time>
      </trkpt>
      <trkpt lat="43.09797" lon="18.98983">
        <ele>1701.6700439453</ele>
        <time>2024-09-22T09:06:48.000Z</time>
      </trkpt>
      <trkpt lat="43.09795" lon="18.98982">
        <ele>1701.6700439453</ele>
        <time>2024-09-22T09:06:49.000Z</time>
      </trkpt>
      <trkpt lat="43.0979" lon="18.98981">
        <ele>1701.1899414062</ele>
        <time>2024-09-22T09:06:50.000Z</time>
      </trkpt>
      <trkpt lat="43.09785" lon="18.9898">
        <ele>1701.1899414062</ele>
        <time>2024-09-22T09:06:51.000Z</time>
      </trkpt>
      <trkpt lat="43.09779" lon="18.98981">
        <ele>1700.7099609375</ele>
        <time>2024-09-22T09:06:52.000Z</time>
      </trkpt>
      <trkpt lat="43.09774" lon="18.98982">
        <ele>1700.2299804688</ele>
        <time>2024-09-22T09:06:53.000Z</time>
      </trkpt>
      <trkpt lat="43.09768" lon="18.98984">
        <ele>1700.2299804688</ele>
        <time>2024-09-22T09:06:54.000Z</time>
      </trkpt>
      <trkpt lat="43.09763" lon="18.98984">
        <ele>1699.75</ele>
        <time>2024-09-22T09:06:55.000Z</time>
      </trkpt>
      <trkpt lat="43.09757" lon="18.98983">
        <ele>1699.2700195312</ele>
        <time>2024-09-22T09:06:56.000Z</time>
      </trkpt>
      <trkpt lat="43.09753" lon="18.98982">
        <ele>1698.7900390625</ele>
        <time>2024-09-22T09:06:57.000Z</time>
      </trkpt>
      <trkpt lat="43.09746" lon="18.98981">
        <ele>1698.3100585938</ele>
        <time>2024-09-22T09:06:58.000Z</time>
      </trkpt>
      <trkpt lat="43.09741" lon="18.98979">
        <ele>1697.8299560547</ele>
        <time>2024-09-22T09:06:59.000Z</time>
      </trkpt>
      <trkpt lat="43.0973" lon="18.98977">
        <ele>1696.8599853516</ele>
        <time>2024-09-22T09:07:00.000Z</time>
      </trkpt>
      <trkpt lat="43.09717" lon="18.98976">
        <ele>1696.3800048828</ele>
        <time>2024-09-22T09:07:02.000Z</time>
      </trkpt>
      <trkpt lat="43.09714" lon="18.98976">
        <ele>1696.3800048828</ele>
        <time>2024-09-22T09:07:03.000Z</time>
      </trkpt>
      <trkpt lat="43.09705" lon="18.98978">
        <ele>1696.3800048828</ele>
        <time>2024-09-22T09:07:04.000Z</time>
      </trkpt>
      <trkpt lat="43.09702" lon="18.98979">
        <ele>1696.3800048828</ele>
        <time>2024-09-22T09:07:05.000Z</time>
      </trkpt>
      <trkpt lat="43.09695" lon="18.98979">
        <ele>1695.9000244141</ele>
        <time>2024-09-22T09:07:06.000Z</time>
      </trkpt>
      <trkpt lat="43.09689" lon="18.98979">
        <ele>1695.9000244141</ele>
        <time>2024-09-22T09:07:07.000Z</time>
      </trkpt>
      <trkpt lat="43.09672" lon="18.98977">
        <ele>1694.4599609375</ele>
        <time>2024-09-22T09:07:09.000Z</time>
      </trkpt>
      <trkpt lat="43.09668" lon="18.98976">
        <ele>1694.4599609375</ele>
        <time>2024-09-22T09:07:10.000Z</time>
      </trkpt>
      <trkpt lat="43.09659" lon="18.98977">
        <ele>1693.5</ele>
        <time>2024-09-22T09:07:11.000Z</time>
      </trkpt>
      <trkpt lat="43.09652" lon="18.98978">
        <ele>1693.0200195312</ele>
        <time>2024-09-22T09:07:12.000Z</time>
      </trkpt>
      <trkpt lat="43.09646" lon="18.98979">
        <ele>1692.5400390625</ele>
        <time>2024-09-22T09:07:13.000Z</time>
      </trkpt>
      <trkpt lat="43.09637" lon="18.9898">
        <ele>1692.0600585938</ele>
        <time>2024-09-22T09:07:14.000Z</time>
      </trkpt>
      <trkpt lat="43.0963" lon="18.98981">
        <ele>1691.5799560547</ele>
        <time>2024-09-22T09:07:15.000Z</time>
      </trkpt>
      <trkpt lat="43.09624" lon="18.98983">
        <ele>1691.0999755859</ele>
        <time>2024-09-22T09:07:16.000Z</time>
      </trkpt>
      <trkpt lat="43.09616" lon="18.98984">
        <ele>1690.6199951172</ele>
        <time>2024-09-22T09:07:17.000Z</time>
      </trkpt>
      <trkpt lat="43.0961" lon="18.98986">
        <ele>1690.6199951172</ele>
        <time>2024-09-22T09:07:18.000Z</time>
      </trkpt>
      <trkpt lat="43.09604" lon="18.98988">
        <ele>1690.1400146484</ele>
        <time>2024-09-22T09:07:19.000Z</time>
      </trkpt>
      <trkpt lat="43.09598" lon="18.98991">
        <ele>1689.6500244141</ele>
        <time>2024-09-22T09:07:20.000Z</time>
      </trkpt>
      <trkpt lat="43.09592" lon="18.98994">
        <ele>1689.1700439453</ele>
        <time>2024-09-22T09:07:21.000Z</time>
      </trkpt>
      <trkpt lat="43.09588" lon="18.98996">
        <ele>1688.6899414062</ele>
        <time>2024-09-22T09:07:22.000Z</time>
      </trkpt>
      <trkpt lat="43.09584" lon="18.99">
        <ele>1688.6899414062</ele>
        <time>2024-09-22T09:07:23.000Z</time>
      </trkpt>
      <trkpt lat="43.09582" lon="18.99006">
        <ele>1688.6899414062</ele>
        <time>2024-09-22T09:07:24.000Z</time>
      </trkpt>
      <trkpt lat="43.09581" lon="18.99013">
        <ele>1688.6899414062</ele>
        <time>2024-09-22T09:07:25.000Z</time>
      </trkpt>
      <trkpt lat="43.09581" lon="18.99022">
        <ele>1689.1700439453</ele>
        <time>2024-09-22T09:07:26.000Z</time>
      </trkpt>
      <trkpt lat="43.09581" lon="18.99026">
        <ele>1689.6500244141</ele>
        <time>2024-09-22T09:07:27.000Z</time>
      </trkpt>
      <trkpt lat="43.09575" lon="18.99038">
        <ele>1689.6500244141</ele>
        <time>2024-09-22T09:07:30.000Z</time>
      </trkpt>
      <trkpt lat="43.09568" lon="18.99046">
        <ele>1688.6899414062</ele>
        <time>2024-09-22T09:07:31.000Z</time>
      </trkpt>
      <trkpt lat="43.09566" lon="18.99047">
        <ele>1688.6899414062</ele>
        <time>2024-09-22T09:07:32.000Z</time>
      </trkpt>
      <trkpt lat="43.09561" lon="18.99051">
        <ele>1688.2099609375</ele>
        <time>2024-09-22T09:07:33.000Z</time>
      </trkpt>
      <trkpt lat="43.09556" lon="18.99054">
        <ele>1687.7299804688</ele>
        <time>2024-09-22T09:07:34.000Z</time>
      </trkpt>
      <trkpt lat="43.09548" lon="18.99055">
        <ele>1687.25</ele>
        <time>2024-09-22T09:07:35.000Z</time>
      </trkpt>
      <trkpt lat="43.09542" lon="18.99056">
        <ele>1686.7700195312</ele>
        <time>2024-09-22T09:07:36.000Z</time>
      </trkpt>
      <trkpt lat="43.09538" lon="18.99056">
        <ele>1686.7700195312</ele>
        <time>2024-09-22T09:07:37.000Z</time>
      </trkpt>
      <trkpt lat="43.09529" lon="18.99056">
        <ele>1686.7700195312</ele>
        <time>2024-09-22T09:07:38.000Z</time>
      </trkpt>
      <trkpt lat="43.09522" lon="18.99056">
        <ele>1686.2900390625</ele>
        <time>2024-09-22T09:07:39.000Z</time>
      </trkpt>
      <trkpt lat="43.09518" lon="18.99056">
        <ele>1686.2900390625</ele>
        <time>2024-09-22T09:07:40.000Z</time>
      </trkpt>
      <trkpt lat="43.09513" lon="18.99056">
        <ele>1686.2900390625</ele>
        <time>2024-09-22T09:07:41.000Z</time>
      </trkpt>
      <trkpt lat="43.09506" lon="18.99058">
        <ele>1686.2900390625</ele>
        <time>2024-09-22T09:07:42.000Z</time>
      </trkpt>
      <trkpt lat="43.09497" lon="18.99062">
        <ele>1686.2900390625</ele>
        <time>2024-09-22T09:07:43.000Z</time>
      </trkpt>
      <trkpt lat="43.09492" lon="18.99065">
        <ele>1685.8100585938</ele>
        <time>2024-09-22T09:07:44.000Z</time>
      </trkpt>
      <trkpt lat="43.09485" lon="18.99071">
        <ele>1685.8100585938</ele>
        <time>2024-09-22T09:07:45.000Z</time>
      </trkpt>
      <trkpt lat="43.09482" lon="18.99073">
        <ele>1685.8100585938</ele>
        <time>2024-09-22T09:07:46.000Z</time>
      </trkpt>
      <trkpt lat="43.09475" lon="18.99078">
        <ele>1685.8100585938</ele>
        <time>2024-09-22T09:07:47.000Z</time>
      </trkpt>
      <trkpt lat="43.09469" lon="18.99084">
        <ele>1685.8100585938</ele>
        <time>2024-09-22T09:07:48.000Z</time>
      </trkpt>
      <trkpt lat="43.09465" lon="18.99086">
        <ele>1686.2900390625</ele>
        <time>2024-09-22T09:07:49.000Z</time>
      </trkpt>
      <trkpt lat="43.0946" lon="18.99089">
        <ele>1686.2900390625</ele>
        <time>2024-09-22T09:07:50.000Z</time>
      </trkpt>
      <trkpt lat="43.09456" lon="18.99089">
        <ele>1686.7700195312</ele>
        <time>2024-09-22T09:07:51.000Z</time>
      </trkpt>
      <trkpt lat="43.09451" lon="18.99087">
        <ele>1686.7700195312</ele>
        <time>2024-09-22T09:07:52.000Z</time>
      </trkpt>
      <trkpt lat="43.09446" lon="18.99085">
        <ele>1686.2900390625</ele>
        <time>2024-09-22T09:07:53.000Z</time>
      </trkpt>
      <trkpt lat="43.09442" lon="18.99084">
        <ele>1685.8100585938</ele>
        <time>2024-09-22T09:07:54.000Z</time>
      </trkpt>
      <trkpt lat="43.09429" lon="18.99082">
        <ele>1684.8499755859</ele>
        <time>2024-09-22T09:07:56.000Z</time>
      </trkpt>
      <trkpt lat="43.09427" lon="18.99082">
        <ele>1684.3699951172</ele>
        <time>2024-09-22T09:07:57.000Z</time>
      </trkpt>
      <trkpt lat="43.09419" lon="18.9908">
        <ele>1683.8900146484</ele>
        <time>2024-09-22T09:07:58.000Z</time>
      </trkpt>
      <trkpt lat="43.09409" lon="18.99078">
        <ele>1682.9300537109</ele>
        <time>2024-09-22T09:08:00.000Z</time>
      </trkpt>
      <trkpt lat="43.09403" lon="18.99077">
        <ele>1682.4399414062</ele>
        <time>2024-09-22T09:08:01.000Z</time>
      </trkpt>
      <trkpt lat="43.09394" lon="18.99078">
        <ele>1681.9599609375</ele>
        <time>2024-09-22T09:08:02.000Z</time>
      </trkpt>
      <trkpt lat="43.0939" lon="18.99078">
        <ele>1681.4799804688</ele>
        <time>2024-09-22T09:08:03.000Z</time>
      </trkpt>
      <trkpt lat="43.09362" lon="18.99079">
        <ele>1680.5200195312</ele>
        <time>2024-09-22T09:08:07.000Z</time>
      </trkpt>
      <trkpt lat="43.09358" lon="18.99079">
        <ele>1680.5200195312</ele>
        <time>2024-09-22T09:08:08.000Z</time>
      </trkpt>
      <trkpt lat="43.09351" lon="18.99079">
        <ele>1680.5200195312</ele>
        <time>2024-09-22T09:08:09.000Z</time>
      </trkpt>
      <trkpt lat="43.09345" lon="18.99079">
        <ele>1680.0400390625</ele>
        <time>2024-09-22T09:08:10.000Z</time>
      </trkpt>
      <trkpt lat="43.09337" lon="18.9908">
        <ele>1680.0400390625</ele>
        <time>2024-09-22T09:08:11.000Z</time>
      </trkpt>
      <trkpt lat="43.09333" lon="18.99081">
        <ele>1680.0400390625</ele>
        <time>2024-09-22T09:08:12.000Z</time>
      </trkpt>
      <trkpt lat="43.09328" lon="18.99081">
        <ele>1680.0400390625</ele>
        <time>2024-09-22T09:08:13.000Z</time>
      </trkpt>
      <trkpt lat="43.09321" lon="18.99082">
        <ele>1679.5600585938</ele>
        <time>2024-09-22T09:08:14.000Z</time>
      </trkpt>
      <trkpt lat="43.09315" lon="18.99082">
        <ele>1679.0799560547</ele>
        <time>2024-09-22T09:08:15.000Z</time>
      </trkpt>
      <trkpt lat="43.093" lon="18.99086">
        <ele>1678.1199951172</ele>
        <time>2024-09-22T09:08:17.000Z</time>
      </trkpt>
      <trkpt lat="43.09294" lon="18.99087">
        <ele>1677.6400146484</ele>
        <time>2024-09-22T09:08:18.000Z</time>
      </trkpt>
      <trkpt lat="43.0929" lon="18.99088">
        <ele>1677.6400146484</ele>
        <time>2024-09-22T09:08:19.000Z</time>
      </trkpt>
      <trkpt lat="43.09285" lon="18.99089">
        <ele>1677.1600341797</ele>
        <time>2024-09-22T09:08:20.000Z</time>
      </trkpt>
      <trkpt lat="43.09277" lon="18.99093">
        <ele>1676.6800537109</ele>
        <time>2024-09-22T09:08:21.000Z</time>
      </trkpt>
      <trkpt lat="43.0927" lon="18.99095">
        <ele>1676.1999511719</ele>
        <time>2024-09-22T09:08:22.000Z</time>
      </trkpt>
      <trkpt lat="43.09266" lon="18.99097">
        <ele>1676.1999511719</ele>
        <time>2024-09-22T09:08:23.000Z</time>
      </trkpt>
      <trkpt lat="43.09259" lon="18.99098">
        <ele>1675.7199707031</ele>
        <time>2024-09-22T09:08:24.000Z</time>
      </trkpt>
      <trkpt lat="43.09251" lon="18.99098">
        <ele>1675.7199707031</ele>
        <time>2024-09-22T09:08:25.000Z</time>
      </trkpt>
      <trkpt lat="43.09244" lon="18.99097">
        <ele>1675.2299804688</ele>
        <time>2024-09-22T09:08:26.000Z</time>
      </trkpt>
      <trkpt lat="43.0924" lon="18.99097">
        <ele>1675.2299804688</ele>
        <time>2024-09-22T09:08:27.000Z</time>
      </trkpt>
      <trkpt lat="43.09222" lon="18.99094">
        <ele>1675.2299804688</ele>
        <time>2024-09-22T09:08:29.000Z</time>
      </trkpt>
      <trkpt lat="43.09221" lon="18.99094">
        <ele>1675.2299804688</ele>
        <time>2024-09-22T09:08:30.000Z</time>
      </trkpt>
      <trkpt lat="43.09215" lon="18.99092">
        <ele>1674.75</ele>
        <time>2024-09-22T09:08:31.000Z</time>
      </trkpt>
      <trkpt lat="43.09208" lon="18.99091">
        <ele>1674.75</ele>
        <time>2024-09-22T09:08:32.000Z</time>
      </trkpt>
      <trkpt lat="43.09202" lon="18.99089">
        <ele>1674.2700195312</ele>
        <time>2024-09-22T09:08:33.000Z</time>
      </trkpt>
      <trkpt lat="43.09195" lon="18.99087">
        <ele>1674.2700195312</ele>
        <time>2024-09-22T09:08:34.000Z</time>
      </trkpt>
      <trkpt lat="43.09188" lon="18.99086">
        <ele>1674.2700195312</ele>
        <time>2024-09-22T09:08:35.000Z</time>
      </trkpt>
      <trkpt lat="43.09177" lon="18.99087">
        <ele>1674.2700195312</ele>
        <time>2024-09-22T09:08:36.000Z</time>
      </trkpt>
      <trkpt lat="43.09173" lon="18.99087">
        <ele>1673.7900390625</ele>
        <time>2024-09-22T09:08:37.000Z</time>
      </trkpt>
      <trkpt lat="43.09167" lon="18.99088">
        <ele>1673.7900390625</ele>
        <time>2024-09-22T09:08:38.000Z</time>
      </trkpt>
      <trkpt lat="43.09159" lon="18.99088">
        <ele>1673.3100585938</ele>
        <time>2024-09-22T09:08:39.000Z</time>
      </trkpt>
      <trkpt lat="43.09143" lon="18.99089">
        <ele>1672.8299560547</ele>
        <time>2024-09-22T09:08:41.000Z</time>
      </trkpt>
      <trkpt lat="43.0914" lon="18.99089">
        <ele>1672.3499755859</ele>
        <time>2024-09-22T09:08:42.000Z</time>
      </trkpt>
      <trkpt lat="43.09131" lon="18.99089">
        <ele>1672.3499755859</ele>
        <time>2024-09-22T09:08:43.000Z</time>
      </trkpt>
      <trkpt lat="43.09125" lon="18.9909">
        <ele>1672.3499755859</ele>
        <time>2024-09-22T09:08:44.000Z</time>
      </trkpt>
      <trkpt lat="43.0912" lon="18.99091">
        <ele>1671.8699951172</ele>
        <time>2024-09-22T09:08:45.000Z</time>
      </trkpt>
      <trkpt lat="43.09114" lon="18.99091">
        <ele>1671.8699951172</ele>
        <time>2024-09-22T09:08:46.000Z</time>
      </trkpt>
      <trkpt lat="43.09111" lon="18.9909">
        <ele>1671.8699951172</ele>
        <time>2024-09-22T09:08:47.000Z</time>
      </trkpt>
      <trkpt lat="43.09106" lon="18.99088">
        <ele>1671.3900146484</ele>
        <time>2024-09-22T09:08:48.000Z</time>
      </trkpt>
      <trkpt lat="43.09102" lon="18.99086">
        <ele>1671.3900146484</ele>
        <time>2024-09-22T09:08:49.000Z</time>
      </trkpt>
      <trkpt lat="43.09097" lon="18.99085">
        <ele>1671.3900146484</ele>
        <time>2024-09-22T09:08:50.000Z</time>
      </trkpt>
      <trkpt lat="43.09093" lon="18.99084">
        <ele>1671.3900146484</ele>
        <time>2024-09-22T09:08:51.000Z</time>
      </trkpt>
      <trkpt lat="43.09089" lon="18.99083">
        <ele>1671.3900146484</ele>
        <time>2024-09-22T09:08:52.000Z</time>
      </trkpt>
      <trkpt lat="43.09084" lon="18.99083">
        <ele>1671.3900146484</ele>
        <time>2024-09-22T09:08:53.000Z</time>
      </trkpt>
      <trkpt lat="43.0908" lon="18.99083">
        <ele>1670.9100341797</ele>
        <time>2024-09-22T09:08:54.000Z</time>
      </trkpt>
      <trkpt lat="43.09075" lon="18.99083">
        <ele>1670.9100341797</ele>
        <time>2024-09-22T09:08:55.000Z</time>
      </trkpt>
      <trkpt lat="43.09068" lon="18.99084">
        <ele>1670.4300537109</ele>
        <time>2024-09-22T09:08:56.000Z</time>
      </trkpt>
      <trkpt lat="43.09066" lon="18.99085">
        <ele>1669.9499511719</ele>
        <time>2024-09-22T09:08:57.000Z</time>
      </trkpt>
      <trkpt lat="43.09061" lon="18.99085">
        <ele>1669.9499511719</ele>
        <time>2024-09-22T09:08:58.000Z</time>
      </trkpt>
      <trkpt lat="43.09055" lon="18.99086">
        <ele>1669.4699707031</ele>
        <time>2024-09-22T09:08:59.000Z</time>
      </trkpt>
      <trkpt lat="43.09052" lon="18.99086">
        <ele>1669.4699707031</ele>
        <time>2024-09-22T09:09:00.000Z</time>
      </trkpt>
      <trkpt lat="43.09048" lon="18.99086">
        <ele>1668.9899902344</ele>
        <time>2024-09-22T09:09:01.000Z</time>
      </trkpt>
      <trkpt lat="43.09044" lon="18.99086">
        <ele>1668.9899902344</ele>
        <time>2024-09-22T09:09:02.000Z</time>
      </trkpt>
      <trkpt lat="43.0904" lon="18.99085">
        <ele>1668.5100097656</ele>
        <time>2024-09-22T09:09:03.000Z</time>
      </trkpt>
      <trkpt lat="43.09035" lon="18.99084">
        <ele>1668.5100097656</ele>
        <time>2024-09-22T09:09:04.000Z</time>
      </trkpt>
      <trkpt lat="43.09029" lon="18.99085">
        <ele>1668.5100097656</ele>
        <time>2024-09-22T09:09:05.000Z</time>
      </trkpt>
      <trkpt lat="43.09023" lon="18.99086">
        <ele>1668.0200195312</ele>
        <time>2024-09-22T09:09:06.000Z</time>
      </trkpt>
      <trkpt lat="43.09019" lon="18.99086">
        <ele>1668.0200195312</ele>
        <time>2024-09-22T09:09:07.000Z</time>
      </trkpt>
      <trkpt lat="43.09012" lon="18.99087">
        <ele>1667.5400390625</ele>
        <time>2024-09-22T09:09:08.000Z</time>
      </trkpt>
      <trkpt lat="43.09005" lon="18.99086">
        <ele>1667.5400390625</ele>
        <time>2024-09-22T09:09:09.000Z</time>
      </trkpt>
      <trkpt lat="43.09" lon="18.99084">
        <ele>1667.0600585938</ele>
        <time>2024-09-22T09:09:10.000Z</time>
      </trkpt>
      <trkpt lat="43.08994" lon="18.99083">
        <ele>1667.0600585938</ele>
        <time>2024-09-22T09:09:11.000Z</time>
      </trkpt>
      <trkpt lat="43.08988" lon="18.99082">
        <ele>1666.5799560547</ele>
        <time>2024-09-22T09:09:12.000Z</time>
      </trkpt>
      <trkpt lat="43.08979" lon="18.99081">
        <ele>1666.5799560547</ele>
        <time>2024-09-22T09:09:13.000Z</time>
      </trkpt>
      <trkpt lat="43.08973" lon="18.99081">
        <ele>1667.0600585938</ele>
        <time>2024-09-22T09:09:14.000Z</time>
      </trkpt>
      <trkpt lat="43.08968" lon="18.99081">
        <ele>1667.0600585938</ele>
        <time>2024-09-22T09:09:15.000Z</time>
      </trkpt>
      <trkpt lat="43.08962" lon="18.99082">
        <ele>1667.0600585938</ele>
        <time>2024-09-22T09:09:16.000Z</time>
      </trkpt>
      <trkpt lat="43.08957" lon="18.99083">
        <ele>1667.5400390625</ele>
        <time>2024-09-22T09:09:17.000Z</time>
      </trkpt>
      <trkpt lat="43.0895" lon="18.99087">
        <ele>1667.5400390625</ele>
        <time>2024-09-22T09:09:18.000Z</time>
      </trkpt>
      <trkpt lat="43.08943" lon="18.99092">
        <ele>1667.0600585938</ele>
        <time>2024-09-22T09:09:19.000Z</time>
      </trkpt>
      <trkpt lat="43.08936" lon="18.99098">
        <ele>1667.0600585938</ele>
        <time>2024-09-22T09:09:20.000Z</time>
      </trkpt>
      <trkpt lat="43.08932" lon="18.991">
        <ele>1667.0600585938</ele>
        <time>2024-09-22T09:09:21.000Z</time>
      </trkpt>
      <trkpt lat="43.08923" lon="18.99105">
        <ele>1667.0600585938</ele>
        <time>2024-09-22T09:09:22.000Z</time>
      </trkpt>
      <trkpt lat="43.08918" lon="18.99107">
        <ele>1666.5799560547</ele>
        <time>2024-09-22T09:09:23.000Z</time>
      </trkpt>
      <trkpt lat="43.0891" lon="18.9911">
        <ele>1667.0600585938</ele>
        <time>2024-09-22T09:09:24.000Z</time>
      </trkpt>
      <trkpt lat="43.08904" lon="18.99112">
        <ele>1667.0600585938</ele>
        <time>2024-09-22T09:09:25.000Z</time>
      </trkpt>
      <trkpt lat="43.08897" lon="18.99114">
        <ele>1667.5400390625</ele>
        <time>2024-09-22T09:09:26.000Z</time>
      </trkpt>
      <trkpt lat="43.0889" lon="18.99116">
        <ele>1668.0200195312</ele>
        <time>2024-09-22T09:09:27.000Z</time>
      </trkpt>
      <trkpt lat="43.08878" lon="18.99118">
        <ele>1668.5100097656</ele>
        <time>2024-09-22T09:09:28.000Z</time>
      </trkpt>
      <trkpt lat="43.08876" lon="18.99119">
        <ele>1668.5100097656</ele>
        <time>2024-09-22T09:09:29.000Z</time>
      </trkpt>
      <trkpt lat="43.08862" lon="18.99121">
        <ele>1669.4699707031</ele>
        <time>2024-09-22T09:09:30.000Z</time>
      </trkpt>
      <trkpt lat="43.08857" lon="18.99122">
        <ele>1669.4699707031</ele>
        <time>2024-09-22T09:09:31.000Z</time>
      </trkpt>
      <trkpt lat="43.08853" lon="18.99123">
        <ele>1669.4699707031</ele>
        <time>2024-09-22T09:09:32.000Z</time>
      </trkpt>
      <trkpt lat="43.08845" lon="18.99125">
        <ele>1669.4699707031</ele>
        <time>2024-09-22T09:09:33.000Z</time>
      </trkpt>
      <trkpt lat="43.08836" lon="18.99129">
        <ele>1669.4699707031</ele>
        <time>2024-09-22T09:09:34.000Z</time>
      </trkpt>
      <trkpt lat="43.08814" lon="18.99139">
        <ele>1670.4300537109</ele>
        <time>2024-09-22T09:09:36.000Z</time>
      </trkpt>
      <trkpt lat="43.08785" lon="18.9915">
        <ele>1670.4300537109</ele>
        <time>2024-09-22T09:09:40.000Z</time>
      </trkpt>
      <trkpt lat="43.0877" lon="18.99156">
        <ele>1670.4300537109</ele>
        <time>2024-09-22T09:09:41.000Z</time>
      </trkpt>
      <trkpt lat="43.08762" lon="18.99159">
        <ele>1670.4300537109</ele>
        <time>2024-09-22T09:09:42.000Z</time>
      </trkpt>
      <trkpt lat="43.0876" lon="18.99159">
        <ele>1670.4300537109</ele>
        <time>2024-09-22T09:09:43.000Z</time>
      </trkpt>
      <trkpt lat="43.08753" lon="18.99162">
        <ele>1670.9100341797</ele>
        <time>2024-09-22T09:09:44.000Z</time>
      </trkpt>
      <trkpt lat="43.08739" lon="18.99167">
        <ele>1670.9100341797</ele>
        <time>2024-09-22T09:09:46.000Z</time>
      </trkpt>
      <trkpt lat="43.08734" lon="18.99169">
        <ele>1670.4300537109</ele>
        <time>2024-09-22T09:09:47.000Z</time>
      </trkpt>
      <trkpt lat="43.08728" lon="18.99169">
        <ele>1670.4300537109</ele>
        <time>2024-09-22T09:09:48.000Z</time>
      </trkpt>
      <trkpt lat="43.08722" lon="18.99166">
        <ele>1669.9499511719</ele>
        <time>2024-09-22T09:09:49.000Z</time>
      </trkpt>
      <trkpt lat="43.08715" lon="18.99163">
        <ele>1669.9499511719</ele>
        <time>2024-09-22T09:09:50.000Z</time>
      </trkpt>
      <trkpt lat="43.08709" lon="18.9916">
        <ele>1669.4699707031</ele>
        <time>2024-09-22T09:09:51.000Z</time>
      </trkpt>
      <trkpt lat="43.08703" lon="18.99159">
        <ele>1668.9899902344</ele>
        <time>2024-09-22T09:09:52.000Z</time>
      </trkpt>
      <trkpt lat="43.08695" lon="18.99159">
        <ele>1668.5100097656</ele>
        <time>2024-09-22T09:09:53.000Z</time>
      </trkpt>
      <trkpt lat="43.08687" lon="18.99161">
        <ele>1668.0200195312</ele>
        <time>2024-09-22T09:09:54.000Z</time>
      </trkpt>
      <trkpt lat="43.0868" lon="18.99164">
        <ele>1667.5400390625</ele>
        <time>2024-09-22T09:09:55.000Z</time>
      </trkpt>
      <trkpt lat="43.08661" lon="18.99174">
        <ele>1666.0999755859</ele>
        <time>2024-09-22T09:09:57.000Z</time>
      </trkpt>
      <trkpt lat="43.08655" lon="18.99177">
        <ele>1665.6199951172</ele>
        <time>2024-09-22T09:09:58.000Z</time>
      </trkpt>
      <trkpt lat="43.08652" lon="18.99179">
        <ele>1665.6199951172</ele>
        <time>2024-09-22T09:09:59.000Z</time>
      </trkpt>
      <trkpt lat="43.08645" lon="18.99182">
        <ele>1664.6600341797</ele>
        <time>2024-09-22T09:10:00.000Z</time>
      </trkpt>
      <trkpt lat="43.08635" lon="18.99184">
        <ele>1664.1800537109</ele>
        <time>2024-09-22T09:10:01.000Z</time>
      </trkpt>
      <trkpt lat="43.08625" lon="18.99187">
        <ele>1663.2199707031</ele>
        <time>2024-09-22T09:10:02.000Z</time>
      </trkpt>
      <trkpt lat="43.08622" lon="18.99188">
        <ele>1663.2199707031</ele>
        <time>2024-09-22T09:10:03.000Z</time>
      </trkpt>
      <trkpt lat="43.08615" lon="18.99189">
        <ele>1662.7399902344</ele>
        <time>2024-09-22T09:10:04.000Z</time>
      </trkpt>
      <trkpt lat="43.08608" lon="18.99191">
        <ele>1662.2600097656</ele>
        <time>2024-09-22T09:10:05.000Z</time>
      </trkpt>
      <trkpt lat="43.08598" lon="18.99193">
        <ele>1661.7800292969</ele>
        <time>2024-09-22T09:10:06.000Z</time>
      </trkpt>
      <trkpt lat="43.08593" lon="18.99194">
        <ele>1661.7800292969</ele>
        <time>2024-09-22T09:10:07.000Z</time>
      </trkpt>
      <trkpt lat="43.08588" lon="18.99196">
        <ele>1661.3000488281</ele>
        <time>2024-09-22T09:10:08.000Z</time>
      </trkpt>
      <trkpt lat="43.08581" lon="18.99197">
        <ele>1661.3000488281</ele>
        <time>2024-09-22T09:10:09.000Z</time>
      </trkpt>
      <trkpt lat="43.08573" lon="18.99197">
        <ele>1660.8100585938</ele>
        <time>2024-09-22T09:10:10.000Z</time>
      </trkpt>
      <trkpt lat="43.08566" lon="18.99197">
        <ele>1660.8100585938</ele>
        <time>2024-09-22T09:10:11.000Z</time>
      </trkpt>
      <trkpt lat="43.08557" lon="18.99197">
        <ele>1660.3299560547</ele>
        <time>2024-09-22T09:10:12.000Z</time>
      </trkpt>
      <trkpt lat="43.08553" lon="18.99197">
        <ele>1660.3299560547</ele>
        <time>2024-09-22T09:10:13.000Z</time>
      </trkpt>
      <trkpt lat="43.08546" lon="18.99196">
        <ele>1659.8499755859</ele>
        <time>2024-09-22T09:10:14.000Z</time>
      </trkpt>
      <trkpt lat="43.08542" lon="18.99195">
        <ele>1659.8499755859</ele>
        <time>2024-09-22T09:10:15.000Z</time>
      </trkpt>
      <trkpt lat="43.0853" lon="18.99193">
        <ele>1659.3699951172</ele>
        <time>2024-09-22T09:10:17.000Z</time>
      </trkpt>
      <trkpt lat="43.08524" lon="18.99193">
        <ele>1658.4100341797</ele>
        <time>2024-09-22T09:10:18.000Z</time>
      </trkpt>
      <trkpt lat="43.08515" lon="18.99193">
        <ele>1657.4499511719</ele>
        <time>2024-09-22T09:10:19.000Z</time>
      </trkpt>
      <trkpt lat="43.08507" lon="18.99193">
        <ele>1656.4899902344</ele>
        <time>2024-09-22T09:10:20.000Z</time>
      </trkpt>
      <trkpt lat="43.08494" lon="18.99194">
        <ele>1655.5300292969</ele>
        <time>2024-09-22T09:10:22.000Z</time>
      </trkpt>
      <trkpt lat="43.08473" lon="18.99193">
        <ele>1654.0899658203</ele>
        <time>2024-09-22T09:10:25.000Z</time>
      </trkpt>
      <trkpt lat="43.08468" lon="18.99193">
        <ele>1653.5999755859</ele>
        <time>2024-09-22T09:10:26.000Z</time>
      </trkpt>
      <trkpt lat="43.0845" lon="18.99194">
        <ele>1652.1600341797</ele>
        <time>2024-09-22T09:10:28.000Z</time>
      </trkpt>
      <trkpt lat="43.08445" lon="18.99195">
        <ele>1651.6800537109</ele>
        <time>2024-09-22T09:10:29.000Z</time>
      </trkpt>
      <trkpt lat="43.0844" lon="18.99195">
        <ele>1651.6800537109</ele>
        <time>2024-09-22T09:10:30.000Z</time>
      </trkpt>
      <trkpt lat="43.08438" lon="18.99195">
        <ele>1651.6800537109</ele>
        <time>2024-09-22T09:10:31.000Z</time>
      </trkpt>
      <trkpt lat="43.08433" lon="18.99195">
        <ele>1651.1999511719</ele>
        <time>2024-09-22T09:10:32.000Z</time>
      </trkpt>
      <trkpt lat="43.08427" lon="18.99194">
        <ele>1650.7199707031</ele>
        <time>2024-09-22T09:10:33.000Z</time>
      </trkpt>
      <trkpt lat="43.08423" lon="18.99194">
        <ele>1650.7199707031</ele>
        <time>2024-09-22T09:10:34.000Z</time>
      </trkpt>
      <trkpt lat="43.08419" lon="18.99194">
        <ele>1650.2399902344</ele>
        <time>2024-09-22T09:10:35.000Z</time>
      </trkpt>
      <trkpt lat="43.0841" lon="18.99196">
        <ele>1649.7600097656</ele>
        <time>2024-09-22T09:10:36.000Z</time>
      </trkpt>
      <trkpt lat="43.08408" lon="18.99196">
        <ele>1649.2800292969</ele>
        <time>2024-09-22T09:10:37.000Z</time>
      </trkpt>
      <trkpt lat="43.08404" lon="18.99197">
        <ele>1649.2800292969</ele>
        <time>2024-09-22T09:10:38.000Z</time>
      </trkpt>
      <trkpt lat="43.084" lon="18.99197">
        <ele>1648.8000488281</ele>
        <time>2024-09-22T09:10:39.000Z</time>
      </trkpt>
      <trkpt lat="43.08397" lon="18.99198">
        <ele>1648.8000488281</ele>
        <time>2024-09-22T09:10:40.000Z</time>
      </trkpt>
      <trkpt lat="43.08393" lon="18.99197">
        <ele>1648.3199462891</ele>
        <time>2024-09-22T09:10:41.000Z</time>
      </trkpt>
      <trkpt lat="43.08383" lon="18.99194">
        <ele>1648.3199462891</ele>
        <time>2024-09-22T09:10:43.000Z</time>
      </trkpt>
      <trkpt lat="43.08353" lon="18.99188">
        <ele>1647.3599853516</ele>
        <time>2024-09-22T09:10:52.000Z</time>
      </trkpt>
      <trkpt lat="43.08339" lon="18.99181">
        <ele>1647.3599853516</ele>
        <time>2024-09-22T09:10:57.000Z</time>
      </trkpt>
      <trkpt lat="43.08326" lon="18.99178">
        <ele>1647.3599853516</ele>
        <time>2024-09-22T09:11:00.000Z</time>
      </trkpt>
      <trkpt lat="43.08322" lon="18.99177">
        <ele>1647.3599853516</ele>
        <time>2024-09-22T09:11:01.000Z</time>
      </trkpt>
      <trkpt lat="43.08317" lon="18.99176">
        <ele>1647.3599853516</ele>
        <time>2024-09-22T09:11:02.000Z</time>
      </trkpt>
      <trkpt lat="43.08314" lon="18.99176">
        <ele>1647.3599853516</ele>
        <time>2024-09-22T09:11:03.000Z</time>
      </trkpt>
      <trkpt lat="43.08306" lon="18.99174">
        <ele>1646.8800048828</ele>
        <time>2024-09-22T09:11:04.000Z</time>
      </trkpt>
      <trkpt lat="43.08305" lon="18.99174">
        <ele>1646.8800048828</ele>
        <time>2024-09-22T09:11:05.000Z</time>
      </trkpt>
      <trkpt lat="43.08299" lon="18.99174">
        <ele>1646.4000244141</ele>
        <time>2024-09-22T09:11:06.000Z</time>
      </trkpt>
      <trkpt lat="43.08293" lon="18.99173">
        <ele>1646.4000244141</ele>
        <time>2024-09-22T09:11:07.000Z</time>
      </trkpt>
      <trkpt lat="43.08289" lon="18.99173">
        <ele>1646.4000244141</ele>
        <time>2024-09-22T09:11:08.000Z</time>
      </trkpt>
      <trkpt lat="43.08272" lon="18.99173">
        <ele>1644.9499511719</ele>
        <time>2024-09-22T09:11:10.000Z</time>
      </trkpt>
      <trkpt lat="43.08265" lon="18.99174">
        <ele>1644.4699707031</ele>
        <time>2024-09-22T09:11:11.000Z</time>
      </trkpt>
      <trkpt lat="43.08248" lon="18.99173">
        <ele>1643.5100097656</ele>
        <time>2024-09-22T09:11:13.000Z</time>
      </trkpt>
      <trkpt lat="43.08239" lon="18.99173">
        <ele>1643.5100097656</ele>
        <time>2024-09-22T09:11:14.000Z</time>
      </trkpt>
      <trkpt lat="43.0823" lon="18.99173">
        <ele>1642.5500488281</ele>
        <time>2024-09-22T09:11:15.000Z</time>
      </trkpt>
      <trkpt lat="43.08216" lon="18.99173">
        <ele>1641.1099853516</ele>
        <time>2024-09-22T09:11:16.000Z</time>
      </trkpt>
      <trkpt lat="43.082" lon="18.99175">
        <ele>1640.1500244141</ele>
        <time>2024-09-22T09:11:18.000Z</time>
      </trkpt>
      <trkpt lat="43.08195" lon="18.99175">
        <ele>1640.1500244141</ele>
        <time>2024-09-22T09:11:19.000Z</time>
      </trkpt>
      <trkpt lat="43.08192" lon="18.99175">
        <ele>1639.6700439453</ele>
        <time>2024-09-22T09:11:20.000Z</time>
      </trkpt>
      <trkpt lat="43.08187" lon="18.99174">
        <ele>1639.1899414062</ele>
        <time>2024-09-22T09:11:21.000Z</time>
      </trkpt>
      <trkpt lat="43.08182" lon="18.9917">
        <ele>1638.6999511719</ele>
        <time>2024-09-22T09:11:22.000Z</time>
      </trkpt>
      <trkpt lat="43.08178" lon="18.99165">
        <ele>1638.2199707031</ele>
        <time>2024-09-22T09:11:23.000Z</time>
      </trkpt>
      <trkpt lat="43.08174" lon="18.99159">
        <ele>1637.7399902344</ele>
        <time>2024-09-22T09:11:24.000Z</time>
      </trkpt>
      <trkpt lat="43.0817" lon="18.99156">
        <ele>1637.7399902344</ele>
        <time>2024-09-22T09:11:25.000Z</time>
      </trkpt>
      <trkpt lat="43.08164" lon="18.99155">
        <ele>1638.2199707031</ele>
        <time>2024-09-22T09:11:26.000Z</time>
      </trkpt>
      <trkpt lat="43.08158" lon="18.99156">
        <ele>1637.7399902344</ele>
        <time>2024-09-22T09:11:27.000Z</time>
      </trkpt>
      <trkpt lat="43.0815" lon="18.99159">
        <ele>1637.2600097656</ele>
        <time>2024-09-22T09:11:28.000Z</time>
      </trkpt>
      <trkpt lat="43.0814" lon="18.99163">
        <ele>1636.3000488281</ele>
        <time>2024-09-22T09:11:29.000Z</time>
      </trkpt>
      <trkpt lat="43.08114" lon="18.99171">
        <ele>1634.8599853516</ele>
        <time>2024-09-22T09:11:32.000Z</time>
      </trkpt>
      <trkpt lat="43.08105" lon="18.99172">
        <ele>1634.3800048828</ele>
        <time>2024-09-22T09:11:33.000Z</time>
      </trkpt>
      <trkpt lat="43.08091" lon="18.99173">
        <ele>1633.4200439453</ele>
        <time>2024-09-22T09:11:34.000Z</time>
      </trkpt>
      <trkpt lat="43.08088" lon="18.99173">
        <ele>1633.4200439453</ele>
        <time>2024-09-22T09:11:35.000Z</time>
      </trkpt>
      <trkpt lat="43.08069" lon="18.99171">
        <ele>1632.4599609375</ele>
        <time>2024-09-22T09:11:37.000Z</time>
      </trkpt>
      <trkpt lat="43.08062" lon="18.99171">
        <ele>1632.4599609375</ele>
        <time>2024-09-22T09:11:38.000Z</time>
      </trkpt>
      <trkpt lat="43.08052" lon="18.99173">
        <ele>1632.4599609375</ele>
        <time>2024-09-22T09:11:39.000Z</time>
      </trkpt>
      <trkpt lat="43.08039" lon="18.99176">
        <ele>1631.9799804688</ele>
        <time>2024-09-22T09:11:40.000Z</time>
      </trkpt>
      <trkpt lat="43.08035" lon="18.99177">
        <ele>1631.4899902344</ele>
        <time>2024-09-22T09:11:41.000Z</time>
      </trkpt>
      <trkpt lat="43.08023" lon="18.99179">
        <ele>1630.5300292969</ele>
        <time>2024-09-22T09:11:42.000Z</time>
      </trkpt>
      <trkpt lat="43.08019" lon="18.9918">
        <ele>1630.5300292969</ele>
        <time>2024-09-22T09:11:43.000Z</time>
      </trkpt>
      <trkpt lat="43.08011" lon="18.99185">
        <ele>1630.0500488281</ele>
        <time>2024-09-22T09:11:44.000Z</time>
      </trkpt>
      <trkpt lat="43.08005" lon="18.99191">
        <ele>1629.5699462891</ele>
        <time>2024-09-22T09:11:45.000Z</time>
      </trkpt>
      <trkpt lat="43.07998" lon="18.99198">
        <ele>1629.0899658203</ele>
        <time>2024-09-22T09:11:46.000Z</time>
      </trkpt>
      <trkpt lat="43.07991" lon="18.99202">
        <ele>1628.1300048828</ele>
        <time>2024-09-22T09:11:47.000Z</time>
      </trkpt>
      <trkpt lat="43.07984" lon="18.99203">
        <ele>1627.6500244141</ele>
        <time>2024-09-22T09:11:48.000Z</time>
      </trkpt>
      <trkpt lat="43.07976" lon="18.99203">
        <ele>1627.6500244141</ele>
        <time>2024-09-22T09:11:49.000Z</time>
      </trkpt>
      <trkpt lat="43.07967" lon="18.99202">
        <ele>1627.1700439453</ele>
        <time>2024-09-22T09:11:50.000Z</time>
      </trkpt>
      <trkpt lat="43.07953" lon="18.99199">
        <ele>1626.2099609375</ele>
        <time>2024-09-22T09:11:51.000Z</time>
      </trkpt>
      <trkpt lat="43.07951" lon="18.99199">
        <ele>1626.2099609375</ele>
        <time>2024-09-22T09:11:52.000Z</time>
      </trkpt>
      <trkpt lat="43.07942" lon="18.99199">
        <ele>1625.7299804688</ele>
        <time>2024-09-22T09:11:53.000Z</time>
      </trkpt>
      <trkpt lat="43.07934" lon="18.99199">
        <ele>1625.25</ele>
        <time>2024-09-22T09:11:54.000Z</time>
      </trkpt>
      <trkpt lat="43.07916" lon="18.992">
        <ele>1624.2800292969</ele>
        <time>2024-09-22T09:11:55.000Z</time>
      </trkpt>
      <trkpt lat="43.07915" lon="18.992">
        <ele>1623.8000488281</ele>
        <time>2024-09-22T09:11:56.000Z</time>
      </trkpt>
      <trkpt lat="43.07905" lon="18.99199">
        <ele>1623.3199462891</ele>
        <time>2024-09-22T09:11:57.000Z</time>
      </trkpt>
      <trkpt lat="43.07892" lon="18.99197">
        <ele>1622.8399658203</ele>
        <time>2024-09-22T09:11:58.000Z</time>
      </trkpt>
      <trkpt lat="43.07884" lon="18.99196">
        <ele>1622.3599853516</ele>
        <time>2024-09-22T09:11:59.000Z</time>
      </trkpt>
      <trkpt lat="43.07853" lon="18.99194">
        <ele>1619.4799804688</ele>
        <time>2024-09-22T09:12:02.000Z</time>
      </trkpt>
      <trkpt lat="43.07811" lon="18.99197">
        <ele>1616.5899658203</ele>
        <time>2024-09-22T09:12:08.000Z</time>
      </trkpt>
      <trkpt lat="43.07795" lon="18.99198">
        <ele>1616.5899658203</ele>
        <time>2024-09-22T09:12:12.000Z</time>
      </trkpt>
      <trkpt lat="43.07785" lon="18.992">
        <ele>1616.5899658203</ele>
        <time>2024-09-22T09:12:14.000Z</time>
      </trkpt>
      <trkpt lat="43.07781" lon="18.992">
        <ele>1617.0699462891</ele>
        <time>2024-09-22T09:12:15.000Z</time>
      </trkpt>
      <trkpt lat="43.07774" lon="18.99201">
        <ele>1617.0699462891</ele>
        <time>2024-09-22T09:12:16.000Z</time>
      </trkpt>
      <trkpt lat="43.0777" lon="18.99202">
        <ele>1617.0699462891</ele>
        <time>2024-09-22T09:12:17.000Z</time>
      </trkpt>
      <trkpt lat="43.0776" lon="18.99203">
        <ele>1617.0699462891</ele>
        <time>2024-09-22T09:12:18.000Z</time>
      </trkpt>
      <trkpt lat="43.07754" lon="18.99204">
        <ele>1617.0699462891</ele>
        <time>2024-09-22T09:12:19.000Z</time>
      </trkpt>
      <trkpt lat="43.0775" lon="18.99204">
        <ele>1617.5600585938</ele>
        <time>2024-09-22T09:12:20.000Z</time>
      </trkpt>
      <trkpt lat="43.07745" lon="18.99206">
        <ele>1617.5600585938</ele>
        <time>2024-09-22T09:12:21.000Z</time>
      </trkpt>
      <trkpt lat="43.07739" lon="18.99209">
        <ele>1617.5600585938</ele>
        <time>2024-09-22T09:12:22.000Z</time>
      </trkpt>
      <trkpt lat="43.07732" lon="18.99213">
        <ele>1618.0400390625</ele>
        <time>2024-09-22T09:12:23.000Z</time>
      </trkpt>
      <trkpt lat="43.07727" lon="18.99216">
        <ele>1618.0400390625</ele>
        <time>2024-09-22T09:12:24.000Z</time>
      </trkpt>
      <trkpt lat="43.0772" lon="18.99221">
        <ele>1618.0400390625</ele>
        <time>2024-09-22T09:12:25.000Z</time>
      </trkpt>
      <trkpt lat="43.07717" lon="18.99223">
        <ele>1618.0400390625</ele>
        <time>2024-09-22T09:12:26.000Z</time>
      </trkpt>
      <trkpt lat="43.07714" lon="18.99225">
        <ele>1618.5200195312</ele>
        <time>2024-09-22T09:12:27.000Z</time>
      </trkpt>
      <trkpt lat="43.0771" lon="18.99229">
        <ele>1618.5200195312</ele>
        <time>2024-09-22T09:12:28.000Z</time>
      </trkpt>
      <trkpt lat="43.07704" lon="18.99237">
        <ele>1618.5200195312</ele>
        <time>2024-09-22T09:12:30.000Z</time>
      </trkpt>
      <trkpt lat="43.07683" lon="18.99264">
        <ele>1619</ele>
        <time>2024-09-22T09:12:39.000Z</time>
      </trkpt>
      <trkpt lat="43.07667" lon="18.99275">
        <ele>1618.0400390625</ele>
        <time>2024-09-22T09:12:50.000Z</time>
      </trkpt>
      <trkpt lat="43.07654" lon="18.99282">
        <ele>1618.0400390625</ele>
        <time>2024-09-22T09:13:21.000Z</time>
      </trkpt>
      <trkpt lat="43.07621" lon="18.99285">
        <ele>1618.5200195312</ele>
        <time>2024-09-22T09:13:32.000Z</time>
      </trkpt>
      <trkpt lat="43.07599" lon="18.99286">
        <ele>1620.4399414062</ele>
        <time>2024-09-22T09:13:41.000Z</time>
      </trkpt>
      <trkpt lat="43.07593" lon="18.99285">
        <ele>1619.9599609375</ele>
        <time>2024-09-22T09:13:57.000Z</time>
      </trkpt>
      <trkpt lat="43.07588" lon="18.99284">
        <ele>1619.9599609375</ele>
        <time>2024-09-22T09:13:58.000Z</time>
      </trkpt>
      <trkpt lat="43.0758" lon="18.99283">
        <ele>1620.4399414062</ele>
        <time>2024-09-22T09:13:59.000Z</time>
      </trkpt>
      <trkpt lat="43.07574" lon="18.99282">
        <ele>1620.4399414062</ele>
        <time>2024-09-22T09:14:00.000Z</time>
      </trkpt>
      <trkpt lat="43.07569" lon="18.99281">
        <ele>1619.9599609375</ele>
        <time>2024-09-22T09:14:01.000Z</time>
      </trkpt>
      <trkpt lat="43.07559" lon="18.9928">
        <ele>1619.9599609375</ele>
        <time>2024-09-22T09:14:02.000Z</time>
      </trkpt>
      <trkpt lat="43.07554" lon="18.9928">
        <ele>1619.4799804688</ele>
        <time>2024-09-22T09:14:03.000Z</time>
      </trkpt>
      <trkpt lat="43.07545" lon="18.99279">
        <ele>1619</ele>
        <time>2024-09-22T09:14:04.000Z</time>
      </trkpt>
      <trkpt lat="43.07538" lon="18.9928">
        <ele>1619</ele>
        <time>2024-09-22T09:14:05.000Z</time>
      </trkpt>
      <trkpt lat="43.07531" lon="18.99284">
        <ele>1619</ele>
        <time>2024-09-22T09:14:06.000Z</time>
      </trkpt>
      <trkpt lat="43.07522" lon="18.99289">
        <ele>1619</ele>
        <time>2024-09-22T09:14:07.000Z</time>
      </trkpt>
      <trkpt lat="43.07514" lon="18.99295">
        <ele>1619</ele>
        <time>2024-09-22T09:14:08.000Z</time>
      </trkpt>
      <trkpt lat="43.07507" lon="18.99303">
        <ele>1619</ele>
        <time>2024-09-22T09:14:09.000Z</time>
      </trkpt>
      <trkpt lat="43.07491" lon="18.99323">
        <ele>1618.5200195312</ele>
        <time>2024-09-22T09:14:11.000Z</time>
      </trkpt>
      <trkpt lat="43.07489" lon="18.99326">
        <ele>1618.0400390625</ele>
        <time>2024-09-22T09:14:12.000Z</time>
      </trkpt>
      <trkpt lat="43.07485" lon="18.99332">
        <ele>1618.0400390625</ele>
        <time>2024-09-22T09:14:13.000Z</time>
      </trkpt>
      <trkpt lat="43.07481" lon="18.99341">
        <ele>1618.0400390625</ele>
        <time>2024-09-22T09:14:14.000Z</time>
      </trkpt>
      <trkpt lat="43.07478" lon="18.99349">
        <ele>1617.5600585938</ele>
        <time>2024-09-22T09:14:15.000Z</time>
      </trkpt>
      <trkpt lat="43.07474" lon="18.99355">
        <ele>1617.5600585938</ele>
        <time>2024-09-22T09:14:16.000Z</time>
      </trkpt>
      <trkpt lat="43.07465" lon="18.99363">
        <ele>1617.0699462891</ele>
        <time>2024-09-22T09:14:17.000Z</time>
      </trkpt>
      <trkpt lat="43.07464" lon="18.99364">
        <ele>1617.0699462891</ele>
        <time>2024-09-22T09:14:18.000Z</time>
      </trkpt>
      <trkpt lat="43.07457" lon="18.9937">
        <ele>1616.5899658203</ele>
        <time>2024-09-22T09:14:19.000Z</time>
      </trkpt>
      <trkpt lat="43.07431" lon="18.99386">
        <ele>1615.6300048828</ele>
        <time>2024-09-22T09:14:22.000Z</time>
      </trkpt>
      <trkpt lat="43.07427" lon="18.99388">
        <ele>1615.6300048828</ele>
        <time>2024-09-22T09:14:23.000Z</time>
      </trkpt>
      <trkpt lat="43.07421" lon="18.99392">
        <ele>1615.1500244141</ele>
        <time>2024-09-22T09:14:24.000Z</time>
      </trkpt>
      <trkpt lat="43.07387" lon="18.99408">
        <ele>1614.1899414062</ele>
        <time>2024-09-22T09:14:28.000Z</time>
      </trkpt>
      <trkpt lat="43.07385" lon="18.99408">
        <ele>1613.7099609375</ele>
        <time>2024-09-22T09:14:29.000Z</time>
      </trkpt>
      <trkpt lat="43.07377" lon="18.99411">
        <ele>1613.7099609375</ele>
        <time>2024-09-22T09:14:30.000Z</time>
      </trkpt>
      <trkpt lat="43.07373" lon="18.99413">
        <ele>1613.7099609375</ele>
        <time>2024-09-22T09:14:31.000Z</time>
      </trkpt>
      <trkpt lat="43.07368" lon="18.99414">
        <ele>1613.7099609375</ele>
        <time>2024-09-22T09:14:32.000Z</time>
      </trkpt>
      <trkpt lat="43.07364" lon="18.99416">
        <ele>1614.1899414062</ele>
        <time>2024-09-22T09:14:33.000Z</time>
      </trkpt>
      <trkpt lat="43.0736" lon="18.9942">
        <ele>1614.1899414062</ele>
        <time>2024-09-22T09:14:34.000Z</time>
      </trkpt>
      <trkpt lat="43.07355" lon="18.99424">
        <ele>1613.7099609375</ele>
        <time>2024-09-22T09:14:35.000Z</time>
      </trkpt>
      <trkpt lat="43.0735" lon="18.99428">
        <ele>1613.2299804688</ele>
        <time>2024-09-22T09:14:36.000Z</time>
      </trkpt>
      <trkpt lat="43.07339" lon="18.99437">
        <ele>1612.2700195312</ele>
        <time>2024-09-22T09:14:38.000Z</time>
      </trkpt>
      <trkpt lat="43.07326" lon="18.99444">
        <ele>1611.3100585938</ele>
        <time>2024-09-22T09:14:40.000Z</time>
      </trkpt>
      <trkpt lat="43.07321" lon="18.99447">
        <ele>1610.8299560547</ele>
        <time>2024-09-22T09:14:41.000Z</time>
      </trkpt>
      <trkpt lat="43.07313" lon="18.9945">
        <ele>1610.3499755859</ele>
        <time>2024-09-22T09:14:42.000Z</time>
      </trkpt>
      <trkpt lat="43.07304" lon="18.99452">
        <ele>1609.8599853516</ele>
        <time>2024-09-22T09:14:43.000Z</time>
      </trkpt>
      <trkpt lat="43.07298" lon="18.99454">
        <ele>1609.8599853516</ele>
        <time>2024-09-22T09:14:44.000Z</time>
      </trkpt>
      <trkpt lat="43.07291" lon="18.99455">
        <ele>1610.3499755859</ele>
        <time>2024-09-22T09:14:45.000Z</time>
      </trkpt>
      <trkpt lat="43.07285" lon="18.99456">
        <ele>1610.3499755859</ele>
        <time>2024-09-22T09:14:46.000Z</time>
      </trkpt>
      <trkpt lat="43.07276" lon="18.99459">
        <ele>1610.8299560547</ele>
        <time>2024-09-22T09:14:47.000Z</time>
      </trkpt>
      <trkpt lat="43.07266" lon="18.99464">
        <ele>1611.7900390625</ele>
        <time>2024-09-22T09:14:48.000Z</time>
      </trkpt>
      <trkpt lat="43.07261" lon="18.99465">
        <ele>1612.2700195312</ele>
        <time>2024-09-22T09:14:49.000Z</time>
      </trkpt>
      <trkpt lat="43.07254" lon="18.99466">
        <ele>1612.75</ele>
        <time>2024-09-22T09:14:50.000Z</time>
      </trkpt>
      <trkpt lat="43.07247" lon="18.99466">
        <ele>1612.75</ele>
        <time>2024-09-22T09:14:51.000Z</time>
      </trkpt>
      <trkpt lat="43.0724" lon="18.99464">
        <ele>1612.75</ele>
        <time>2024-09-22T09:14:52.000Z</time>
      </trkpt>
      <trkpt lat="43.07235" lon="18.99464">
        <ele>1612.2700195312</ele>
        <time>2024-09-22T09:14:53.000Z</time>
      </trkpt>
      <trkpt lat="43.07228" lon="18.99465">
        <ele>1612.2700195312</ele>
        <time>2024-09-22T09:14:54.000Z</time>
      </trkpt>
      <trkpt lat="43.07219" lon="18.99468">
        <ele>1611.3100585938</ele>
        <time>2024-09-22T09:14:55.000Z</time>
      </trkpt>
      <trkpt lat="43.07214" lon="18.9947">
        <ele>1611.3100585938</ele>
        <time>2024-09-22T09:14:56.000Z</time>
      </trkpt>
      <trkpt lat="43.07202" lon="18.99477">
        <ele>1610.3499755859</ele>
        <time>2024-09-22T09:14:57.000Z</time>
      </trkpt>
      <trkpt lat="43.0717" lon="18.99498">
        <ele>1607.9399414062</ele>
        <time>2024-09-22T09:15:02.000Z</time>
      </trkpt>
      <trkpt lat="43.07157" lon="18.99507">
        <ele>1606.9799804688</ele>
        <time>2024-09-22T09:15:03.000Z</time>
      </trkpt>
      <trkpt lat="43.07152" lon="18.9951">
        <ele>1606.5</ele>
        <time>2024-09-22T09:15:04.000Z</time>
      </trkpt>
      <trkpt lat="43.0712" lon="18.99534">
        <ele>1604.0999755859</ele>
        <time>2024-09-22T09:15:08.000Z</time>
      </trkpt>
      <trkpt lat="43.07114" lon="18.99539">
        <ele>1603.6199951172</ele>
        <time>2024-09-22T09:15:09.000Z</time>
      </trkpt>
      <trkpt lat="43.07109" lon="18.99542">
        <ele>1603.6199951172</ele>
        <time>2024-09-22T09:15:10.000Z</time>
      </trkpt>
      <trkpt lat="43.07099" lon="18.99547">
        <ele>1603.6199951172</ele>
        <time>2024-09-22T09:15:11.000Z</time>
      </trkpt>
      <trkpt lat="43.07091" lon="18.9955">
        <ele>1603.1400146484</ele>
        <time>2024-09-22T09:15:12.000Z</time>
      </trkpt>
      <trkpt lat="43.07083" lon="18.99552">
        <ele>1602.6600341797</ele>
        <time>2024-09-22T09:15:13.000Z</time>
      </trkpt>
      <trkpt lat="43.07077" lon="18.99554">
        <ele>1602.1700439453</ele>
        <time>2024-09-22T09:15:14.000Z</time>
      </trkpt>
      <trkpt lat="43.07068" lon="18.99555">
        <ele>1601.6899414062</ele>
        <time>2024-09-22T09:15:15.000Z</time>
      </trkpt>
      <trkpt lat="43.07063" lon="18.99556">
        <ele>1601.2099609375</ele>
        <time>2024-09-22T09:15:16.000Z</time>
      </trkpt>
      <trkpt lat="43.07055" lon="18.99559">
        <ele>1600.7299804688</ele>
        <time>2024-09-22T09:15:17.000Z</time>
      </trkpt>
      <trkpt lat="43.07048" lon="18.99563">
        <ele>1600.25</ele>
        <time>2024-09-22T09:15:18.000Z</time>
      </trkpt>
      <trkpt lat="43.07042" lon="18.99567">
        <ele>1599.2900390625</ele>
        <time>2024-09-22T09:15:19.000Z</time>
      </trkpt>
      <trkpt lat="43.07025" lon="18.9958">
        <ele>1597.3699951172</ele>
        <time>2024-09-22T09:15:21.000Z</time>
      </trkpt>
      <trkpt lat="43.07022" lon="18.99582">
        <ele>1596.8900146484</ele>
        <time>2024-09-22T09:15:22.000Z</time>
      </trkpt>
      <trkpt lat="43.07015" lon="18.99588">
        <ele>1595.9300537109</ele>
        <time>2024-09-22T09:15:23.000Z</time>
      </trkpt>
      <trkpt lat="43.07009" lon="18.99592">
        <ele>1595.4499511719</ele>
        <time>2024-09-22T09:15:24.000Z</time>
      </trkpt>
      <trkpt lat="43.07004" lon="18.99595">
        <ele>1594.9599609375</ele>
        <time>2024-09-22T09:15:25.000Z</time>
      </trkpt>
      <trkpt lat="43.06998" lon="18.99597">
        <ele>1594.4799804688</ele>
        <time>2024-09-22T09:15:26.000Z</time>
      </trkpt>
      <trkpt lat="43.06992" lon="18.99598">
        <ele>1594</ele>
        <time>2024-09-22T09:15:27.000Z</time>
      </trkpt>
      <trkpt lat="43.06984" lon="18.99599">
        <ele>1593.5200195312</ele>
        <time>2024-09-22T09:15:28.000Z</time>
      </trkpt>
      <trkpt lat="43.06977" lon="18.996">
        <ele>1593.0400390625</ele>
        <time>2024-09-22T09:15:29.000Z</time>
      </trkpt>
      <trkpt lat="43.0697" lon="18.99602">
        <ele>1593.0400390625</ele>
        <time>2024-09-22T09:15:30.000Z</time>
      </trkpt>
      <trkpt lat="43.06961" lon="18.99605">
        <ele>1593.0400390625</ele>
        <time>2024-09-22T09:15:31.000Z</time>
      </trkpt>
      <trkpt lat="43.06953" lon="18.99609">
        <ele>1593.0400390625</ele>
        <time>2024-09-22T09:15:32.000Z</time>
      </trkpt>
      <trkpt lat="43.06946" lon="18.99613">
        <ele>1593.0400390625</ele>
        <time>2024-09-22T09:15:33.000Z</time>
      </trkpt>
      <trkpt lat="43.0693" lon="18.99618">
        <ele>1592.5600585938</ele>
        <time>2024-09-22T09:15:35.000Z</time>
      </trkpt>
      <trkpt lat="43.06921" lon="18.99622">
        <ele>1592.5600585938</ele>
        <time>2024-09-22T09:15:36.000Z</time>
      </trkpt>
      <trkpt lat="43.06918" lon="18.99623">
        <ele>1592.5600585938</ele>
        <time>2024-09-22T09:15:37.000Z</time>
      </trkpt>
      <trkpt lat="43.06912" lon="18.99626">
        <ele>1592.0799560547</ele>
        <time>2024-09-22T09:15:38.000Z</time>
      </trkpt>
      <trkpt lat="43.06906" lon="18.99631">
        <ele>1591.5999755859</ele>
        <time>2024-09-22T09:15:39.000Z</time>
      </trkpt>
      <trkpt lat="43.06898" lon="18.99636">
        <ele>1591.1199951172</ele>
        <time>2024-09-22T09:15:40.000Z</time>
      </trkpt>
      <trkpt lat="43.06879" lon="18.99644">
        <ele>1592.5600585938</ele>
        <time>2024-09-22T09:15:42.000Z</time>
      </trkpt>
      <trkpt lat="43.0687" lon="18.99649">
        <ele>1594</ele>
        <time>2024-09-22T09:15:43.000Z</time>
      </trkpt>
      <trkpt lat="43.06864" lon="18.99651">
        <ele>1594.4799804688</ele>
        <time>2024-09-22T09:15:44.000Z</time>
      </trkpt>
      <trkpt lat="43.06856" lon="18.99655">
        <ele>1594.9599609375</ele>
        <time>2024-09-22T09:15:45.000Z</time>
      </trkpt>
      <trkpt lat="43.06851" lon="18.99657">
        <ele>1594</ele>
        <time>2024-09-22T09:15:46.000Z</time>
      </trkpt>
      <trkpt lat="43.06843" lon="18.99661">
        <ele>1593.5200195312</ele>
        <time>2024-09-22T09:15:47.000Z</time>
      </trkpt>
      <trkpt lat="43.06836" lon="18.99663">
        <ele>1593.0400390625</ele>
        <time>2024-09-22T09:15:48.000Z</time>
      </trkpt>
      <trkpt lat="43.06828" lon="18.99665">
        <ele>1592.5600585938</ele>
        <time>2024-09-22T09:15:49.000Z</time>
      </trkpt>
      <trkpt lat="43.06814" lon="18.99668">
        <ele>1592.0799560547</ele>
        <time>2024-09-22T09:15:50.000Z</time>
      </trkpt>
      <trkpt lat="43.06812" lon="18.99669">
        <ele>1592.0799560547</ele>
        <time>2024-09-22T09:15:51.000Z</time>
      </trkpt>
      <trkpt lat="43.06801" lon="18.9967">
        <ele>1591.1199951172</ele>
        <time>2024-09-22T09:15:52.000Z</time>
      </trkpt>
      <trkpt lat="43.0679" lon="18.9967">
        <ele>1589.1999511719</ele>
        <time>2024-09-22T09:15:53.000Z</time>
      </trkpt>
      <trkpt lat="43.06774" lon="18.9967">
        <ele>1587.2700195312</ele>
        <time>2024-09-22T09:15:55.000Z</time>
      </trkpt>
      <trkpt lat="43.0677" lon="18.9967">
        <ele>1586.7900390625</ele>
        <time>2024-09-22T09:15:56.000Z</time>
      </trkpt>
      <trkpt lat="43.06763" lon="18.99668">
        <ele>1585.8299560547</ele>
        <time>2024-09-22T09:15:57.000Z</time>
      </trkpt>
      <trkpt lat="43.06755" lon="18.99665">
        <ele>1585.3499755859</ele>
        <time>2024-09-22T09:15:58.000Z</time>
      </trkpt>
      <trkpt lat="43.06747" lon="18.99662">
        <ele>1584.3900146484</ele>
        <time>2024-09-22T09:15:59.000Z</time>
      </trkpt>
      <trkpt lat="43.0674" lon="18.9966">
        <ele>1583.9100341797</ele>
        <time>2024-09-22T09:16:00.000Z</time>
      </trkpt>
      <trkpt lat="43.06727" lon="18.99659">
        <ele>1582.9499511719</ele>
        <time>2024-09-22T09:16:01.000Z</time>
      </trkpt>
      <trkpt lat="43.06723" lon="18.99658">
        <ele>1582.9499511719</ele>
        <time>2024-09-22T09:16:02.000Z</time>
      </trkpt>
      <trkpt lat="43.06717" lon="18.99658">
        <ele>1583.4300537109</ele>
        <time>2024-09-22T09:16:03.000Z</time>
      </trkpt>
      <trkpt lat="43.0671" lon="18.99659">
        <ele>1583.9100341797</ele>
        <time>2024-09-22T09:16:04.000Z</time>
      </trkpt>
      <trkpt lat="43.06705" lon="18.99662">
        <ele>1584.8699951172</ele>
        <time>2024-09-22T09:16:05.000Z</time>
      </trkpt>
      <trkpt lat="43.067" lon="18.99665">
        <ele>1585.3499755859</ele>
        <time>2024-09-22T09:16:06.000Z</time>
      </trkpt>
      <trkpt lat="43.06694" lon="18.99672">
        <ele>1584.8699951172</ele>
        <time>2024-09-22T09:16:07.000Z</time>
      </trkpt>
      <trkpt lat="43.06688" lon="18.99677">
        <ele>1584.8699951172</ele>
        <time>2024-09-22T09:16:08.000Z</time>
      </trkpt>
      <trkpt lat="43.06683" lon="18.99683">
        <ele>1585.3499755859</ele>
        <time>2024-09-22T09:16:09.000Z</time>
      </trkpt>
      <trkpt lat="43.06671" lon="18.99701">
        <ele>1585.8299560547</ele>
        <time>2024-09-22T09:16:11.000Z</time>
      </trkpt>
      <trkpt lat="43.06667" lon="18.99705">
        <ele>1585.8299560547</ele>
        <time>2024-09-22T09:16:12.000Z</time>
      </trkpt>
      <trkpt lat="43.06663" lon="18.9971">
        <ele>1585.8299560547</ele>
        <time>2024-09-22T09:16:13.000Z</time>
      </trkpt>
      <trkpt lat="43.06655" lon="18.99719">
        <ele>1584.8699951172</ele>
        <time>2024-09-22T09:16:14.000Z</time>
      </trkpt>
      <trkpt lat="43.06652" lon="18.99723">
        <ele>1583.9100341797</ele>
        <time>2024-09-22T09:16:15.000Z</time>
      </trkpt>
      <trkpt lat="43.06646" lon="18.9973">
        <ele>1583.4300537109</ele>
        <time>2024-09-22T09:16:16.000Z</time>
      </trkpt>
      <trkpt lat="43.0664" lon="18.99739">
        <ele>1582.4699707031</ele>
        <time>2024-09-22T09:16:17.000Z</time>
      </trkpt>
      <trkpt lat="43.06634" lon="18.99747">
        <ele>1582.4699707031</ele>
        <time>2024-09-22T09:16:18.000Z</time>
      </trkpt>
      <trkpt lat="43.06628" lon="18.99755">
        <ele>1582.4699707031</ele>
        <time>2024-09-22T09:16:19.000Z</time>
      </trkpt>
      <trkpt lat="43.06618" lon="18.99768">
        <ele>1582.9499511719</ele>
        <time>2024-09-22T09:16:20.000Z</time>
      </trkpt>
      <trkpt lat="43.06614" lon="18.99774">
        <ele>1583.4300537109</ele>
        <time>2024-09-22T09:16:21.000Z</time>
      </trkpt>
      <trkpt lat="43.0661" lon="18.99779">
        <ele>1583.9100341797</ele>
        <time>2024-09-22T09:16:22.000Z</time>
      </trkpt>
      <trkpt lat="43.06604" lon="18.99788">
        <ele>1584.3900146484</ele>
        <time>2024-09-22T09:16:23.000Z</time>
      </trkpt>
      <trkpt lat="43.066" lon="18.99796">
        <ele>1584.3900146484</ele>
        <time>2024-09-22T09:16:24.000Z</time>
      </trkpt>
      <trkpt lat="43.06596" lon="18.99805">
        <ele>1583.4300537109</ele>
        <time>2024-09-22T09:16:25.000Z</time>
      </trkpt>
      <trkpt lat="43.06592" lon="18.99816">
        <ele>1582.9499511719</ele>
        <time>2024-09-22T09:16:26.000Z</time>
      </trkpt>
      <trkpt lat="43.06586" lon="18.99824">
        <ele>1582.4699707031</ele>
        <time>2024-09-22T09:16:27.000Z</time>
      </trkpt>
      <trkpt lat="43.06573" lon="18.99843">
        <ele>1582.4699707031</ele>
        <time>2024-09-22T09:16:28.000Z</time>
      </trkpt>
      <trkpt lat="43.06567" lon="18.99852">
        <ele>1582.9499511719</ele>
        <time>2024-09-22T09:16:29.000Z</time>
      </trkpt>
      <trkpt lat="43.06564" lon="18.99856">
        <ele>1582.9499511719</ele>
        <time>2024-09-22T09:16:30.000Z</time>
      </trkpt>
      <trkpt lat="43.06557" lon="18.99866">
        <ele>1583.4300537109</ele>
        <time>2024-09-22T09:16:31.000Z</time>
      </trkpt>
      <trkpt lat="43.06551" lon="18.99873">
        <ele>1583.4300537109</ele>
        <time>2024-09-22T09:16:32.000Z</time>
      </trkpt>
      <trkpt lat="43.06541" lon="18.99883">
        <ele>1582.9499511719</ele>
        <time>2024-09-22T09:16:33.000Z</time>
      </trkpt>
      <trkpt lat="43.06534" lon="18.99891">
        <ele>1582.4699707031</ele>
        <time>2024-09-22T09:16:34.000Z</time>
      </trkpt>
      <trkpt lat="43.06526" lon="18.99903">
        <ele>1581.5100097656</ele>
        <time>2024-09-22T09:16:35.000Z</time>
      </trkpt>
      <trkpt lat="43.06522" lon="18.99908">
        <ele>1581.5100097656</ele>
        <time>2024-09-22T09:16:36.000Z</time>
      </trkpt>
      <trkpt lat="43.06511" lon="18.99922">
        <ele>1581.0300292969</ele>
        <time>2024-09-22T09:16:37.000Z</time>
      </trkpt>
      <trkpt lat="43.0651" lon="18.99924">
        <ele>1581.0300292969</ele>
        <time>2024-09-22T09:16:38.000Z</time>
      </trkpt>
      <trkpt lat="43.06503" lon="18.99933">
        <ele>1581.0300292969</ele>
        <time>2024-09-22T09:16:39.000Z</time>
      </trkpt>
      <trkpt lat="43.06496" lon="18.99942">
        <ele>1581.0300292969</ele>
        <time>2024-09-22T09:16:40.000Z</time>
      </trkpt>
      <trkpt lat="43.06488" lon="18.99953">
        <ele>1580.0600585938</ele>
        <time>2024-09-22T09:16:41.000Z</time>
      </trkpt>
      <trkpt lat="43.06484" lon="18.99959">
        <ele>1579.5799560547</ele>
        <time>2024-09-22T09:16:42.000Z</time>
      </trkpt>
      <trkpt lat="43.06478" lon="18.99968">
        <ele>1579.0999755859</ele>
        <time>2024-09-22T09:16:43.000Z</time>
      </trkpt>
      <trkpt lat="43.06472" lon="18.99977">
        <ele>1579.0999755859</ele>
        <time>2024-09-22T09:16:44.000Z</time>
      </trkpt>
      <trkpt lat="43.06464" lon="18.99993">
        <ele>1578.6199951172</ele>
        <time>2024-09-22T09:16:45.000Z</time>
      </trkpt>
      <trkpt lat="43.06458" lon="19.00004">
        <ele>1578.6199951172</ele>
        <time>2024-09-22T09:16:46.000Z</time>
      </trkpt>
      <trkpt lat="43.06453" lon="19.00014">
        <ele>1578.6199951172</ele>
        <time>2024-09-22T09:16:47.000Z</time>
      </trkpt>
      <trkpt lat="43.06446" lon="19.00025">
        <ele>1579.0999755859</ele>
        <time>2024-09-22T09:16:48.000Z</time>
      </trkpt>
      <trkpt lat="43.06444" lon="19.00029">
        <ele>1579.0999755859</ele>
        <time>2024-09-22T09:16:49.000Z</time>
      </trkpt>
      <trkpt lat="43.06438" lon="19.00037">
        <ele>1579.5799560547</ele>
        <time>2024-09-22T09:16:50.000Z</time>
      </trkpt>
      <trkpt lat="43.06431" lon="19.00046">
        <ele>1579.5799560547</ele>
        <time>2024-09-22T09:16:51.000Z</time>
      </trkpt>
      <trkpt lat="43.06425" lon="19.00052">
        <ele>1579.5799560547</ele>
        <time>2024-09-22T09:16:52.000Z</time>
      </trkpt>
      <trkpt lat="43.06416" lon="19.00058">
        <ele>1578.6199951172</ele>
        <time>2024-09-22T09:16:53.000Z</time>
      </trkpt>
      <trkpt lat="43.06411" lon="19.00062">
        <ele>1578.1400146484</ele>
        <time>2024-09-22T09:16:54.000Z</time>
      </trkpt>
      <trkpt lat="43.06403" lon="19.0007">
        <ele>1578.1400146484</ele>
        <time>2024-09-22T09:16:55.000Z</time>
      </trkpt>
      <trkpt lat="43.06397" lon="19.00076">
        <ele>1577.6600341797</ele>
        <time>2024-09-22T09:16:56.000Z</time>
      </trkpt>
      <trkpt lat="43.06391" lon="19.00082">
        <ele>1577.6600341797</ele>
        <time>2024-09-22T09:16:57.000Z</time>
      </trkpt>
      <trkpt lat="43.06359" lon="19.0011">
        <ele>1578.6199951172</ele>
        <time>2024-09-22T09:17:01.000Z</time>
      </trkpt>
      <trkpt lat="43.06316" lon="19.00141">
        <ele>1581.9899902344</ele>
        <time>2024-09-22T09:17:06.000Z</time>
      </trkpt>
      <trkpt lat="43.06311" lon="19.00145">
        <ele>1581.9899902344</ele>
        <time>2024-09-22T09:17:07.000Z</time>
      </trkpt>
      <trkpt lat="43.06298" lon="19.00156">
        <ele>1582.9499511719</ele>
        <time>2024-09-22T09:17:08.000Z</time>
      </trkpt>
      <trkpt lat="43.06296" lon="19.00159">
        <ele>1582.9499511719</ele>
        <time>2024-09-22T09:17:09.000Z</time>
      </trkpt>
      <trkpt lat="43.06288" lon="19.00163">
        <ele>1583.4300537109</ele>
        <time>2024-09-22T09:17:10.000Z</time>
      </trkpt>
      <trkpt lat="43.06283" lon="19.00164">
        <ele>1583.4300537109</ele>
        <time>2024-09-22T09:17:11.000Z</time>
      </trkpt>
      <trkpt lat="43.06276" lon="19.00168">
        <ele>1583.9100341797</ele>
        <time>2024-09-22T09:17:12.000Z</time>
      </trkpt>
      <trkpt lat="43.06271" lon="19.00174">
        <ele>1584.3900146484</ele>
        <time>2024-09-22T09:17:13.000Z</time>
      </trkpt>
      <trkpt lat="43.06265" lon="19.00182">
        <ele>1585.3499755859</ele>
        <time>2024-09-22T09:17:14.000Z</time>
      </trkpt>
      <trkpt lat="43.0626" lon="19.00191">
        <ele>1585.8299560547</ele>
        <time>2024-09-22T09:17:15.000Z</time>
      </trkpt>
      <trkpt lat="43.06256" lon="19.00197">
        <ele>1585.3499755859</ele>
        <time>2024-09-22T09:17:16.000Z</time>
      </trkpt>
      <trkpt lat="43.0625" lon="19.00208">
        <ele>1584.8699951172</ele>
        <time>2024-09-22T09:17:17.000Z</time>
      </trkpt>
      <trkpt lat="43.06242" lon="19.0022">
        <ele>1584.3900146484</ele>
        <time>2024-09-22T09:17:18.000Z</time>
      </trkpt>
      <trkpt lat="43.06236" lon="19.00228">
        <ele>1584.3900146484</ele>
        <time>2024-09-22T09:17:19.000Z</time>
      </trkpt>
      <trkpt lat="43.06233" lon="19.00231">
        <ele>1584.3900146484</ele>
        <time>2024-09-22T09:17:20.000Z</time>
      </trkpt>
      <trkpt lat="43.06222" lon="19.00243">
        <ele>1584.8699951172</ele>
        <time>2024-09-22T09:17:21.000Z</time>
      </trkpt>
      <trkpt lat="43.06218" lon="19.00249">
        <ele>1585.3499755859</ele>
        <time>2024-09-22T09:17:22.000Z</time>
      </trkpt>
      <trkpt lat="43.06212" lon="19.00258">
        <ele>1585.8299560547</ele>
        <time>2024-09-22T09:17:23.000Z</time>
      </trkpt>
      <trkpt lat="43.06204" lon="19.00272">
        <ele>1586.7900390625</ele>
        <time>2024-09-22T09:17:24.000Z</time>
      </trkpt>
      <trkpt lat="43.06201" lon="19.00277">
        <ele>1587.2700195312</ele>
        <time>2024-09-22T09:17:25.000Z</time>
      </trkpt>
      <trkpt lat="43.06195" lon="19.00287">
        <ele>1588.2399902344</ele>
        <time>2024-09-22T09:17:26.000Z</time>
      </trkpt>
      <trkpt lat="43.06189" lon="19.00297">
        <ele>1589.1999511719</ele>
        <time>2024-09-22T09:17:27.000Z</time>
      </trkpt>
      <trkpt lat="43.0618" lon="19.00309">
        <ele>1590.6400146484</ele>
        <time>2024-09-22T09:17:28.000Z</time>
      </trkpt>
      <trkpt lat="43.06175" lon="19.00316">
        <ele>1591.5999755859</ele>
        <time>2024-09-22T09:17:29.000Z</time>
      </trkpt>
      <trkpt lat="43.06171" lon="19.00322">
        <ele>1592.5600585938</ele>
        <time>2024-09-22T09:17:30.000Z</time>
      </trkpt>
      <trkpt lat="43.06164" lon="19.00329">
        <ele>1593.0400390625</ele>
        <time>2024-09-22T09:17:31.000Z</time>
      </trkpt>
      <trkpt lat="43.06159" lon="19.00337">
        <ele>1593.5200195312</ele>
        <time>2024-09-22T09:17:32.000Z</time>
      </trkpt>
      <trkpt lat="43.06154" lon="19.00347">
        <ele>1592.5600585938</ele>
        <time>2024-09-22T09:17:33.000Z</time>
      </trkpt>
      <trkpt lat="43.06149" lon="19.00359">
        <ele>1591.5999755859</ele>
        <time>2024-09-22T09:17:34.000Z</time>
      </trkpt>
      <trkpt lat="43.06147" lon="19.00366">
        <ele>1591.1199951172</ele>
        <time>2024-09-22T09:17:35.000Z</time>
      </trkpt>
      <trkpt lat="43.06144" lon="19.00372">
        <ele>1590.6400146484</ele>
        <time>2024-09-22T09:17:36.000Z</time>
      </trkpt>
      <trkpt lat="43.06141" lon="19.00379">
        <ele>1590.1600341797</ele>
        <time>2024-09-22T09:17:37.000Z</time>
      </trkpt>
      <trkpt lat="43.06136" lon="19.00389">
        <ele>1590.1600341797</ele>
        <time>2024-09-22T09:17:38.000Z</time>
      </trkpt>
      <trkpt lat="43.0613" lon="19.00397">
        <ele>1589.6800537109</ele>
        <time>2024-09-22T09:17:39.000Z</time>
      </trkpt>
      <trkpt lat="43.0612" lon="19.00409">
        <ele>1589.6800537109</ele>
        <time>2024-09-22T09:17:40.000Z</time>
      </trkpt>
      <trkpt lat="43.06112" lon="19.00419">
        <ele>1589.6800537109</ele>
        <time>2024-09-22T09:17:42.000Z</time>
      </trkpt>
      <trkpt lat="43.06106" lon="19.00427">
        <ele>1589.6800537109</ele>
        <time>2024-09-22T09:17:43.000Z</time>
      </trkpt>
      <trkpt lat="43.06101" lon="19.00432">
        <ele>1589.6800537109</ele>
        <time>2024-09-22T09:17:44.000Z</time>
      </trkpt>
      <trkpt lat="43.06095" lon="19.00437">
        <ele>1589.6800537109</ele>
        <time>2024-09-22T09:17:45.000Z</time>
      </trkpt>
      <trkpt lat="43.06089" lon="19.0044">
        <ele>1590.1600341797</ele>
        <time>2024-09-22T09:17:46.000Z</time>
      </trkpt>
      <trkpt lat="43.06083" lon="19.0044">
        <ele>1590.1600341797</ele>
        <time>2024-09-22T09:17:47.000Z</time>
      </trkpt>
      <trkpt lat="43.06078" lon="19.00438">
        <ele>1590.1600341797</ele>
        <time>2024-09-22T09:17:48.000Z</time>
      </trkpt>
      <trkpt lat="43.06071" lon="19.00433">
        <ele>1590.6400146484</ele>
        <time>2024-09-22T09:17:49.000Z</time>
      </trkpt>
      <trkpt lat="43.06063" lon="19.00427">
        <ele>1591.1199951172</ele>
        <time>2024-09-22T09:17:50.000Z</time>
      </trkpt>
      <trkpt lat="43.06057" lon="19.00421">
        <ele>1591.1199951172</ele>
        <time>2024-09-22T09:17:51.000Z</time>
      </trkpt>
      <trkpt lat="43.06051" lon="19.00416">
        <ele>1590.6400146484</ele>
        <time>2024-09-22T09:17:52.000Z</time>
      </trkpt>
      <trkpt lat="43.0603" lon="19.00403">
        <ele>1592.0799560547</ele>
        <time>2024-09-22T09:17:54.000Z</time>
      </trkpt>
      <trkpt lat="43.0602" lon="19.00396">
        <ele>1592.5600585938</ele>
        <time>2024-09-22T09:17:56.000Z</time>
      </trkpt>
      <trkpt lat="43.06012" lon="19.00391">
        <ele>1592.5600585938</ele>
        <time>2024-09-22T09:17:57.000Z</time>
      </trkpt>
      <trkpt lat="43.06004" lon="19.00385">
        <ele>1593.0400390625</ele>
        <time>2024-09-22T09:17:58.000Z</time>
      </trkpt>
      <trkpt lat="43.05997" lon="19.0038">
        <ele>1593.0400390625</ele>
        <time>2024-09-22T09:17:59.000Z</time>
      </trkpt>
      <trkpt lat="43.05985" lon="19.00369">
        <ele>1593.5200195312</ele>
        <time>2024-09-22T09:18:00.000Z</time>
      </trkpt>
      <trkpt lat="43.05979" lon="19.00363">
        <ele>1594</ele>
        <time>2024-09-22T09:18:01.000Z</time>
      </trkpt>
      <trkpt lat="43.05973" lon="19.00354">
        <ele>1594.4799804688</ele>
        <time>2024-09-22T09:18:02.000Z</time>
      </trkpt>
      <trkpt lat="43.05971" lon="19.00351">
        <ele>1594.4799804688</ele>
        <time>2024-09-22T09:18:03.000Z</time>
      </trkpt>
      <trkpt lat="43.05966" lon="19.00341">
        <ele>1594</ele>
        <time>2024-09-22T09:18:04.000Z</time>
      </trkpt>
      <trkpt lat="43.05963" lon="19.00335">
        <ele>1593.5200195312</ele>
        <time>2024-09-22T09:18:05.000Z</time>
      </trkpt>
      <trkpt lat="43.05958" lon="19.00328">
        <ele>1593.0400390625</ele>
        <time>2024-09-22T09:18:06.000Z</time>
      </trkpt>
      <trkpt lat="43.05946" lon="19.00318">
        <ele>1594</ele>
        <time>2024-09-22T09:18:08.000Z</time>
      </trkpt>
      <trkpt lat="43.0594" lon="19.00314">
        <ele>1593.5200195312</ele>
        <time>2024-09-22T09:18:09.000Z</time>
      </trkpt>
      <trkpt lat="43.05933" lon="19.00308">
        <ele>1593.5200195312</ele>
        <time>2024-09-22T09:18:10.000Z</time>
      </trkpt>
      <trkpt lat="43.05928" lon="19.00306">
        <ele>1593.5200195312</ele>
        <time>2024-09-22T09:18:11.000Z</time>
      </trkpt>
      <trkpt lat="43.05922" lon="19.00303">
        <ele>1594</ele>
        <time>2024-09-22T09:18:12.000Z</time>
      </trkpt>
      <trkpt lat="43.05916" lon="19.00302">
        <ele>1594</ele>
        <time>2024-09-22T09:18:13.000Z</time>
      </trkpt>
      <trkpt lat="43.05912" lon="19.00302">
        <ele>1594.9599609375</ele>
        <time>2024-09-22T09:18:14.000Z</time>
      </trkpt>
      <trkpt lat="43.059" lon="19.00305">
        <ele>1596.8900146484</ele>
        <time>2024-09-22T09:18:16.000Z</time>
      </trkpt>
      <trkpt lat="43.05894" lon="19.00307">
        <ele>1597.8499755859</ele>
        <time>2024-09-22T09:18:17.000Z</time>
      </trkpt>
      <trkpt lat="43.05888" lon="19.00307">
        <ele>1598.3299560547</ele>
        <time>2024-09-22T09:18:18.000Z</time>
      </trkpt>
      <trkpt lat="43.05881" lon="19.00305">
        <ele>1598.8100585938</ele>
        <time>2024-09-22T09:18:19.000Z</time>
      </trkpt>
      <trkpt lat="43.05874" lon="19.00302">
        <ele>1599.7700195312</ele>
        <time>2024-09-22T09:18:20.000Z</time>
      </trkpt>
      <trkpt lat="43.05868" lon="19.00298">
        <ele>1600.25</ele>
        <time>2024-09-22T09:18:21.000Z</time>
      </trkpt>
      <trkpt lat="43.05862" lon="19.00293">
        <ele>1601.2099609375</ele>
        <time>2024-09-22T09:18:22.000Z</time>
      </trkpt>
      <trkpt lat="43.05854" lon="19.00283">
        <ele>1602.1700439453</ele>
        <time>2024-09-22T09:18:23.000Z</time>
      </trkpt>
      <trkpt lat="43.05853" lon="19.00282">
        <ele>1602.6600341797</ele>
        <time>2024-09-22T09:18:24.000Z</time>
      </trkpt>
      <trkpt lat="43.05848" lon="19.00277">
        <ele>1603.1400146484</ele>
        <time>2024-09-22T09:18:25.000Z</time>
      </trkpt>
      <trkpt lat="43.05836" lon="19.0027">
        <ele>1604.0999755859</ele>
        <time>2024-09-22T09:18:26.000Z</time>
      </trkpt>
      <trkpt lat="43.05834" lon="19.00269">
        <ele>1604.0999755859</ele>
        <time>2024-09-22T09:18:27.000Z</time>
      </trkpt>
      <trkpt lat="43.05823" lon="19.00263">
        <ele>1604.5799560547</ele>
        <time>2024-09-22T09:18:28.000Z</time>
      </trkpt>
      <trkpt lat="43.05817" lon="19.00261">
        <ele>1604.5799560547</ele>
        <time>2024-09-22T09:18:29.000Z</time>
      </trkpt>
      <trkpt lat="43.05812" lon="19.00259">
        <ele>1604.0999755859</ele>
        <time>2024-09-22T09:18:30.000Z</time>
      </trkpt>
      <trkpt lat="43.05805" lon="19.00257">
        <ele>1604.0999755859</ele>
        <time>2024-09-22T09:18:31.000Z</time>
      </trkpt>
      <trkpt lat="43.05798" lon="19.00257">
        <ele>1604.0999755859</ele>
        <time>2024-09-22T09:18:32.000Z</time>
      </trkpt>
      <trkpt lat="43.05791" lon="19.00259">
        <ele>1604.0999755859</ele>
        <time>2024-09-22T09:18:33.000Z</time>
      </trkpt>
      <trkpt lat="43.05782" lon="19.00263">
        <ele>1604.0999755859</ele>
        <time>2024-09-22T09:18:34.000Z</time>
      </trkpt>
      <trkpt lat="43.05778" lon="19.00265">
        <ele>1604.5799560547</ele>
        <time>2024-09-22T09:18:35.000Z</time>
      </trkpt>
      <trkpt lat="43.05771" lon="19.0027">
        <ele>1605.5400390625</ele>
        <time>2024-09-22T09:18:36.000Z</time>
      </trkpt>
      <trkpt lat="43.05766" lon="19.00275">
        <ele>1606.0200195312</ele>
        <time>2024-09-22T09:18:37.000Z</time>
      </trkpt>
      <trkpt lat="43.05758" lon="19.00288">
        <ele>1606.9799804688</ele>
        <time>2024-09-22T09:18:38.000Z</time>
      </trkpt>
      <trkpt lat="43.05756" lon="19.00291">
        <ele>1606.9799804688</ele>
        <time>2024-09-22T09:18:39.000Z</time>
      </trkpt>
      <trkpt lat="43.05751" lon="19.00297">
        <ele>1607.4599609375</ele>
        <time>2024-09-22T09:18:40.000Z</time>
      </trkpt>
      <trkpt lat="43.05744" lon="19.00305">
        <ele>1608.4200439453</ele>
        <time>2024-09-22T09:18:41.000Z</time>
      </trkpt>
      <trkpt lat="43.05739" lon="19.0031">
        <ele>1609.3800048828</ele>
        <time>2024-09-22T09:18:42.000Z</time>
      </trkpt>
      <trkpt lat="43.05731" lon="19.00315">
        <ele>1609.3800048828</ele>
        <time>2024-09-22T09:18:43.000Z</time>
      </trkpt>
      <trkpt lat="43.05725" lon="19.0032">
        <ele>1609.3800048828</ele>
        <time>2024-09-22T09:18:44.000Z</time>
      </trkpt>
      <trkpt lat="43.05718" lon="19.00323">
        <ele>1609.3800048828</ele>
        <time>2024-09-22T09:18:45.000Z</time>
      </trkpt>
      <trkpt lat="43.05706" lon="19.00326">
        <ele>1609.3800048828</ele>
        <time>2024-09-22T09:18:47.000Z</time>
      </trkpt>
      <trkpt lat="43.057" lon="19.00328">
        <ele>1608.9000244141</ele>
        <time>2024-09-22T09:18:48.000Z</time>
      </trkpt>
      <trkpt lat="43.05695" lon="19.0033">
        <ele>1608.9000244141</ele>
        <time>2024-09-22T09:18:49.000Z</time>
      </trkpt>
      <trkpt lat="43.05689" lon="19.00334">
        <ele>1608.4200439453</ele>
        <time>2024-09-22T09:18:50.000Z</time>
      </trkpt>
      <trkpt lat="43.05684" lon="19.00341">
        <ele>1607.9399414062</ele>
        <time>2024-09-22T09:18:51.000Z</time>
      </trkpt>
      <trkpt lat="43.05679" lon="19.00349">
        <ele>1607.9399414062</ele>
        <time>2024-09-22T09:18:52.000Z</time>
      </trkpt>
      <trkpt lat="43.05672" lon="19.00359">
        <ele>1608.4200439453</ele>
        <time>2024-09-22T09:18:53.000Z</time>
      </trkpt>
      <trkpt lat="43.05668" lon="19.00364">
        <ele>1608.9000244141</ele>
        <time>2024-09-22T09:18:54.000Z</time>
      </trkpt>
      <trkpt lat="43.05662" lon="19.00369">
        <ele>1609.8599853516</ele>
        <time>2024-09-22T09:18:55.000Z</time>
      </trkpt>
      <trkpt lat="43.05656" lon="19.00372">
        <ele>1610.3499755859</ele>
        <time>2024-09-22T09:18:56.000Z</time>
      </trkpt>
      <trkpt lat="43.05649" lon="19.00373">
        <ele>1610.8299560547</ele>
        <time>2024-09-22T09:18:57.000Z</time>
      </trkpt>
      <trkpt lat="43.05644" lon="19.00374">
        <ele>1610.8299560547</ele>
        <time>2024-09-22T09:18:58.000Z</time>
      </trkpt>
      <trkpt lat="43.05637" lon="19.00375">
        <ele>1611.3100585938</ele>
        <time>2024-09-22T09:18:59.000Z</time>
      </trkpt>
      <trkpt lat="43.05631" lon="19.00377">
        <ele>1611.3100585938</ele>
        <time>2024-09-22T09:19:00.000Z</time>
      </trkpt>
      <trkpt lat="43.05626" lon="19.0038">
        <ele>1611.3100585938</ele>
        <time>2024-09-22T09:19:01.000Z</time>
      </trkpt>
      <trkpt lat="43.05622" lon="19.00382">
        <ele>1611.7900390625</ele>
        <time>2024-09-22T09:19:02.000Z</time>
      </trkpt>
      <trkpt lat="43.05601" lon="19.004">
        <ele>1611.3100585938</ele>
        <time>2024-09-22T09:19:08.000Z</time>
      </trkpt>
      <trkpt lat="43.05598" lon="19.00404">
        <ele>1610.8299560547</ele>
        <time>2024-09-22T09:19:09.000Z</time>
      </trkpt>
      <trkpt lat="43.05595" lon="19.00408">
        <ele>1610.8299560547</ele>
        <time>2024-09-22T09:19:10.000Z</time>
      </trkpt>
      <trkpt lat="43.0559" lon="19.00414">
        <ele>1610.3499755859</ele>
        <time>2024-09-22T09:19:11.000Z</time>
      </trkpt>
      <trkpt lat="43.05588" lon="19.00415">
        <ele>1610.3499755859</ele>
        <time>2024-09-22T09:19:12.000Z</time>
      </trkpt>
      <trkpt lat="43.05584" lon="19.0042">
        <ele>1609.8599853516</ele>
        <time>2024-09-22T09:19:13.000Z</time>
      </trkpt>
      <trkpt lat="43.05581" lon="19.00422">
        <ele>1609.8599853516</ele>
        <time>2024-09-22T09:19:14.000Z</time>
      </trkpt>
      <trkpt lat="43.05577" lon="19.00425">
        <ele>1609.8599853516</ele>
        <time>2024-09-22T09:19:15.000Z</time>
      </trkpt>
      <trkpt lat="43.05571" lon="19.00429">
        <ele>1609.3800048828</ele>
        <time>2024-09-22T09:19:16.000Z</time>
      </trkpt>
      <trkpt lat="43.05569" lon="19.0043">
        <ele>1609.3800048828</ele>
        <time>2024-09-22T09:19:17.000Z</time>
      </trkpt>
      <trkpt lat="43.05566" lon="19.00433">
        <ele>1608.9000244141</ele>
        <time>2024-09-22T09:19:18.000Z</time>
      </trkpt>
      <trkpt lat="43.05562" lon="19.00437">
        <ele>1608.4200439453</ele>
        <time>2024-09-22T09:19:19.000Z</time>
      </trkpt>
      <trkpt lat="43.05559" lon="19.0044">
        <ele>1608.4200439453</ele>
        <time>2024-09-22T09:19:20.000Z</time>
      </trkpt>
      <trkpt lat="43.05555" lon="19.00445">
        <ele>1607.9399414062</ele>
        <time>2024-09-22T09:19:21.000Z</time>
      </trkpt>
      <trkpt lat="43.05553" lon="19.00449">
        <ele>1607.9399414062</ele>
        <time>2024-09-22T09:19:22.000Z</time>
      </trkpt>
      <trkpt lat="43.05552" lon="19.00455">
        <ele>1607.4599609375</ele>
        <time>2024-09-22T09:19:23.000Z</time>
      </trkpt>
      <trkpt lat="43.0555" lon="19.00462">
        <ele>1606.9799804688</ele>
        <time>2024-09-22T09:19:24.000Z</time>
      </trkpt>
      <trkpt lat="43.0555" lon="19.00467">
        <ele>1606.5</ele>
        <time>2024-09-22T09:19:25.000Z</time>
      </trkpt>
      <trkpt lat="43.05549" lon="19.00475">
        <ele>1606.5</ele>
        <time>2024-09-22T09:19:26.000Z</time>
      </trkpt>
      <trkpt lat="43.05549" lon="19.00481">
        <ele>1606.0200195312</ele>
        <time>2024-09-22T09:19:27.000Z</time>
      </trkpt>
      <trkpt lat="43.05548" lon="19.00488">
        <ele>1605.5400390625</ele>
        <time>2024-09-22T09:19:28.000Z</time>
      </trkpt>
      <trkpt lat="43.05548" lon="19.00494">
        <ele>1605.5400390625</ele>
        <time>2024-09-22T09:19:29.000Z</time>
      </trkpt>
      <trkpt lat="43.05549" lon="19.00501">
        <ele>1605.0600585938</ele>
        <time>2024-09-22T09:19:30.000Z</time>
      </trkpt>
      <trkpt lat="43.0555" lon="19.00508">
        <ele>1604.5799560547</ele>
        <time>2024-09-22T09:19:31.000Z</time>
      </trkpt>
      <trkpt lat="43.05551" lon="19.00515">
        <ele>1604.0999755859</ele>
        <time>2024-09-22T09:19:32.000Z</time>
      </trkpt>
      <trkpt lat="43.05551" lon="19.00521">
        <ele>1604.0999755859</ele>
        <time>2024-09-22T09:19:33.000Z</time>
      </trkpt>
      <trkpt lat="43.05549" lon="19.00527">
        <ele>1604.0999755859</ele>
        <time>2024-09-22T09:19:34.000Z</time>
      </trkpt>
      <trkpt lat="43.05546" lon="19.00532">
        <ele>1604.0999755859</ele>
        <time>2024-09-22T09:19:35.000Z</time>
      </trkpt>
      <trkpt lat="43.05539" lon="19.00539">
        <ele>1605.0600585938</ele>
        <time>2024-09-22T09:19:36.000Z</time>
      </trkpt>
      <trkpt lat="43.05537" lon="19.00542">
        <ele>1605.0600585938</ele>
        <time>2024-09-22T09:19:37.000Z</time>
      </trkpt>
      <trkpt lat="43.05533" lon="19.00545">
        <ele>1605.5400390625</ele>
        <time>2024-09-22T09:19:38.000Z</time>
      </trkpt>
      <trkpt lat="43.05529" lon="19.0055">
        <ele>1605.5400390625</ele>
        <time>2024-09-22T09:19:39.000Z</time>
      </trkpt>
      <trkpt lat="43.05522" lon="19.00555">
        <ele>1606.0200195312</ele>
        <time>2024-09-22T09:19:40.000Z</time>
      </trkpt>
      <trkpt lat="43.05516" lon="19.00558">
        <ele>1606.5</ele>
        <time>2024-09-22T09:19:41.000Z</time>
      </trkpt>
      <trkpt lat="43.05509" lon="19.00559">
        <ele>1606.5</ele>
        <time>2024-09-22T09:19:42.000Z</time>
      </trkpt>
      <trkpt lat="43.05503" lon="19.00559">
        <ele>1606.5</ele>
        <time>2024-09-22T09:19:43.000Z</time>
      </trkpt>
      <trkpt lat="43.05497" lon="19.00556">
        <ele>1606.5</ele>
        <time>2024-09-22T09:19:44.000Z</time>
      </trkpt>
      <trkpt lat="43.0549" lon="19.00553">
        <ele>1606.0200195312</ele>
        <time>2024-09-22T09:19:45.000Z</time>
      </trkpt>
      <trkpt lat="43.05482" lon="19.0055">
        <ele>1606.0200195312</ele>
        <time>2024-09-22T09:19:46.000Z</time>
      </trkpt>
      <trkpt lat="43.05474" lon="19.00549">
        <ele>1606.0200195312</ele>
        <time>2024-09-22T09:19:47.000Z</time>
      </trkpt>
      <trkpt lat="43.05465" lon="19.00549">
        <ele>1606.0200195312</ele>
        <time>2024-09-22T09:19:48.000Z</time>
      </trkpt>
      <trkpt lat="43.05461" lon="19.00549">
        <ele>1606.0200195312</ele>
        <time>2024-09-22T09:19:49.000Z</time>
      </trkpt>
      <trkpt lat="43.05455" lon="19.00551">
        <ele>1606.0200195312</ele>
        <time>2024-09-22T09:19:50.000Z</time>
      </trkpt>
      <trkpt lat="43.05449" lon="19.00553">
        <ele>1605.5400390625</ele>
        <time>2024-09-22T09:19:51.000Z</time>
      </trkpt>
      <trkpt lat="43.05443" lon="19.00556">
        <ele>1605.5400390625</ele>
        <time>2024-09-22T09:19:52.000Z</time>
      </trkpt>
      <trkpt lat="43.05437" lon="19.00558">
        <ele>1605.5400390625</ele>
        <time>2024-09-22T09:19:53.000Z</time>
      </trkpt>
      <trkpt lat="43.05432" lon="19.0056">
        <ele>1605.0600585938</ele>
        <time>2024-09-22T09:19:54.000Z</time>
      </trkpt>
      <trkpt lat="43.05427" lon="19.00559">
        <ele>1605.0600585938</ele>
        <time>2024-09-22T09:19:55.000Z</time>
      </trkpt>
      <trkpt lat="43.05422" lon="19.00557">
        <ele>1605.0600585938</ele>
        <time>2024-09-22T09:19:56.000Z</time>
      </trkpt>
      <trkpt lat="43.05418" lon="19.00553">
        <ele>1605.0600585938</ele>
        <time>2024-09-22T09:19:57.000Z</time>
      </trkpt>
      <trkpt lat="43.05414" lon="19.00547">
        <ele>1604.0999755859</ele>
        <time>2024-09-22T09:19:58.000Z</time>
      </trkpt>
      <trkpt lat="43.05409" lon="19.00543">
        <ele>1603.1400146484</ele>
        <time>2024-09-22T09:19:59.000Z</time>
      </trkpt>
      <trkpt lat="43.05404" lon="19.00539">
        <ele>1602.1700439453</ele>
        <time>2024-09-22T09:20:00.000Z</time>
      </trkpt>
      <trkpt lat="43.05399" lon="19.00537">
        <ele>1601.6899414062</ele>
        <time>2024-09-22T09:20:01.000Z</time>
      </trkpt>
      <trkpt lat="43.05395" lon="19.00537">
        <ele>1601.2099609375</ele>
        <time>2024-09-22T09:20:02.000Z</time>
      </trkpt>
      <trkpt lat="43.0539" lon="19.00539">
        <ele>1601.2099609375</ele>
        <time>2024-09-22T09:20:03.000Z</time>
      </trkpt>
      <trkpt lat="43.05382" lon="19.00545">
        <ele>1600.25</ele>
        <time>2024-09-22T09:20:04.000Z</time>
      </trkpt>
      <trkpt lat="43.05379" lon="19.00547">
        <ele>1600.25</ele>
        <time>2024-09-22T09:20:05.000Z</time>
      </trkpt>
      <trkpt lat="43.05371" lon="19.00553">
        <ele>1599.2900390625</ele>
        <time>2024-09-22T09:20:06.000Z</time>
      </trkpt>
      <trkpt lat="43.05365" lon="19.00556">
        <ele>1599.2900390625</ele>
        <time>2024-09-22T09:20:07.000Z</time>
      </trkpt>
      <trkpt lat="43.0536" lon="19.00558">
        <ele>1598.8100585938</ele>
        <time>2024-09-22T09:20:08.000Z</time>
      </trkpt>
      <trkpt lat="43.05353" lon="19.0056">
        <ele>1598.3299560547</ele>
        <time>2024-09-22T09:20:09.000Z</time>
      </trkpt>
      <trkpt lat="43.05346" lon="19.00561">
        <ele>1597.8499755859</ele>
        <time>2024-09-22T09:20:10.000Z</time>
      </trkpt>
      <trkpt lat="43.05338" lon="19.0056">
        <ele>1597.8499755859</ele>
        <time>2024-09-22T09:20:11.000Z</time>
      </trkpt>
      <trkpt lat="43.05333" lon="19.00559">
        <ele>1597.3699951172</ele>
        <time>2024-09-22T09:20:12.000Z</time>
      </trkpt>
      <trkpt lat="43.05327" lon="19.00558">
        <ele>1596.8900146484</ele>
        <time>2024-09-22T09:20:13.000Z</time>
      </trkpt>
      <trkpt lat="43.05321" lon="19.00555">
        <ele>1596.8900146484</ele>
        <time>2024-09-22T09:20:14.000Z</time>
      </trkpt>
      <trkpt lat="43.05316" lon="19.00552">
        <ele>1596.4100341797</ele>
        <time>2024-09-22T09:20:15.000Z</time>
      </trkpt>
      <trkpt lat="43.0531" lon="19.00549">
        <ele>1595.9300537109</ele>
        <time>2024-09-22T09:20:16.000Z</time>
      </trkpt>
      <trkpt lat="43.05305" lon="19.00545">
        <ele>1594.4799804688</ele>
        <time>2024-09-22T09:20:17.000Z</time>
      </trkpt>
      <trkpt lat="43.05301" lon="19.00543">
        <ele>1594</ele>
        <time>2024-09-22T09:20:18.000Z</time>
      </trkpt>
      <trkpt lat="43.05297" lon="19.00541">
        <ele>1593.5200195312</ele>
        <time>2024-09-22T09:20:19.000Z</time>
      </trkpt>
      <trkpt lat="43.05293" lon="19.00541">
        <ele>1592.5600585938</ele>
        <time>2024-09-22T09:20:20.000Z</time>
      </trkpt>
      <trkpt lat="43.05289" lon="19.00543">
        <ele>1592.0799560547</ele>
        <time>2024-09-22T09:20:21.000Z</time>
      </trkpt>
      <trkpt lat="43.05285" lon="19.00548">
        <ele>1591.5999755859</ele>
        <time>2024-09-22T09:20:22.000Z</time>
      </trkpt>
      <trkpt lat="43.05283" lon="19.00555">
        <ele>1591.1199951172</ele>
        <time>2024-09-22T09:20:23.000Z</time>
      </trkpt>
      <trkpt lat="43.0528" lon="19.00565">
        <ele>1591.1199951172</ele>
        <time>2024-09-22T09:20:24.000Z</time>
      </trkpt>
      <trkpt lat="43.05279" lon="19.00571">
        <ele>1591.1199951172</ele>
        <time>2024-09-22T09:20:25.000Z</time>
      </trkpt>
      <trkpt lat="43.05277" lon="19.0058">
        <ele>1590.6400146484</ele>
        <time>2024-09-22T09:20:26.000Z</time>
      </trkpt>
      <trkpt lat="43.05275" lon="19.00586">
        <ele>1590.6400146484</ele>
        <time>2024-09-22T09:20:27.000Z</time>
      </trkpt>
      <trkpt lat="43.05273" lon="19.00598">
        <ele>1589.6800537109</ele>
        <time>2024-09-22T09:20:28.000Z</time>
      </trkpt>
      <trkpt lat="43.05272" lon="19.00603">
        <ele>1589.6800537109</ele>
        <time>2024-09-22T09:20:29.000Z</time>
      </trkpt>
      <trkpt lat="43.05271" lon="19.00611">
        <ele>1589.1999511719</ele>
        <time>2024-09-22T09:20:30.000Z</time>
      </trkpt>
      <trkpt lat="43.05269" lon="19.00619">
        <ele>1588.7199707031</ele>
        <time>2024-09-22T09:20:31.000Z</time>
      </trkpt>
      <trkpt lat="43.05268" lon="19.00624">
        <ele>1588.7199707031</ele>
        <time>2024-09-22T09:20:32.000Z</time>
      </trkpt>
      <trkpt lat="43.05265" lon="19.00629">
        <ele>1588.7199707031</ele>
        <time>2024-09-22T09:20:33.000Z</time>
      </trkpt>
      <trkpt lat="43.05263" lon="19.00634">
        <ele>1588.7199707031</ele>
        <time>2024-09-22T09:20:34.000Z</time>
      </trkpt>
      <trkpt lat="43.05259" lon="19.00639">
        <ele>1588.7199707031</ele>
        <time>2024-09-22T09:20:35.000Z</time>
      </trkpt>
      <trkpt lat="43.05253" lon="19.00643">
        <ele>1589.1999511719</ele>
        <time>2024-09-22T09:20:36.000Z</time>
      </trkpt>
      <trkpt lat="43.05245" lon="19.00645">
        <ele>1589.1999511719</ele>
        <time>2024-09-22T09:20:37.000Z</time>
      </trkpt>
      <trkpt lat="43.05241" lon="19.00646">
        <ele>1589.6800537109</ele>
        <time>2024-09-22T09:20:38.000Z</time>
      </trkpt>
      <trkpt lat="43.05235" lon="19.00647">
        <ele>1589.6800537109</ele>
        <time>2024-09-22T09:20:39.000Z</time>
      </trkpt>
      <trkpt lat="43.0523" lon="19.00647">
        <ele>1590.1600341797</ele>
        <time>2024-09-22T09:20:40.000Z</time>
      </trkpt>
      <trkpt lat="43.05223" lon="19.00646">
        <ele>1590.1600341797</ele>
        <time>2024-09-22T09:20:41.000Z</time>
      </trkpt>
      <trkpt lat="43.05217" lon="19.00643">
        <ele>1590.6400146484</ele>
        <time>2024-09-22T09:20:42.000Z</time>
      </trkpt>
      <trkpt lat="43.0521" lon="19.00639">
        <ele>1591.1199951172</ele>
        <time>2024-09-22T09:20:43.000Z</time>
      </trkpt>
      <trkpt lat="43.052" lon="19.00632">
        <ele>1592.5600585938</ele>
        <time>2024-09-22T09:20:44.000Z</time>
      </trkpt>
      <trkpt lat="43.05199" lon="19.00631">
        <ele>1593.0400390625</ele>
        <time>2024-09-22T09:20:45.000Z</time>
      </trkpt>
      <trkpt lat="43.05193" lon="19.00628">
        <ele>1594.4799804688</ele>
        <time>2024-09-22T09:20:46.000Z</time>
      </trkpt>
      <trkpt lat="43.05188" lon="19.00628">
        <ele>1595.9300537109</ele>
        <time>2024-09-22T09:20:47.000Z</time>
      </trkpt>
      <trkpt lat="43.05182" lon="19.00628">
        <ele>1596.8900146484</ele>
        <time>2024-09-22T09:20:48.000Z</time>
      </trkpt>
      <trkpt lat="43.05178" lon="19.00627">
        <ele>1597.8499755859</ele>
        <time>2024-09-22T09:20:49.000Z</time>
      </trkpt>
      <trkpt lat="43.05173" lon="19.00626">
        <ele>1598.3299560547</ele>
        <time>2024-09-22T09:20:50.000Z</time>
      </trkpt>
      <trkpt lat="43.05168" lon="19.00623">
        <ele>1598.8100585938</ele>
        <time>2024-09-22T09:20:51.000Z</time>
      </trkpt>
      <trkpt lat="43.05164" lon="19.0062">
        <ele>1598.3299560547</ele>
        <time>2024-09-22T09:20:52.000Z</time>
      </trkpt>
      <trkpt lat="43.05161" lon="19.00617">
        <ele>1598.3299560547</ele>
        <time>2024-09-22T09:20:53.000Z</time>
      </trkpt>
      <trkpt lat="43.05157" lon="19.00615">
        <ele>1597.8499755859</ele>
        <time>2024-09-22T09:20:54.000Z</time>
      </trkpt>
      <trkpt lat="43.0514" lon="19.00611">
        <ele>1597.3699951172</ele>
        <time>2024-09-22T09:20:58.000Z</time>
      </trkpt>
      <trkpt lat="43.0512" lon="19.00612">
        <ele>1596.8900146484</ele>
        <time>2024-09-22T09:21:06.000Z</time>
      </trkpt>
      <trkpt lat="43.05112" lon="19.00614">
        <ele>1597.3699951172</ele>
        <time>2024-09-22T09:21:30.000Z</time>
      </trkpt>
      <trkpt lat="43.05112" lon="19.00614">
        <ele>1599.7700195312</ele>
        <time>2024-09-22T09:30:34.000Z</time>
      </trkpt>
      <trkpt lat="43.05115" lon="19.0061">
        <ele>1599.2900390625</ele>
        <time>2024-09-22T09:30:51.000Z</time>
      </trkpt>
      <trkpt lat="43.05117" lon="19.0061">
        <ele>1598.8100585938</ele>
        <time>2024-09-22T09:30:53.000Z</time>
      </trkpt>
      <trkpt lat="43.05146" lon="19.00613">
        <ele>1598.3299560547</ele>
        <time>2024-09-22T09:31:02.000Z</time>
      </trkpt>
      <trkpt lat="43.0517" lon="19.00624">
        <ele>1599.2900390625</ele>
        <time>2024-09-22T09:31:11.000Z</time>
      </trkpt>
      <trkpt lat="43.05174" lon="19.00624">
        <ele>1599.7700195312</ele>
        <time>2024-09-22T09:31:21.000Z</time>
      </trkpt>
      <trkpt lat="43.05176" lon="19.00625">
        <ele>1600.25</ele>
        <time>2024-09-22T09:32:59.000Z</time>
      </trkpt>
      <trkpt lat="43.05189" lon="19.00627">
        <ele>1597.3699951172</ele>
        <time>2024-09-22T09:33:31.000Z</time>
      </trkpt>
      <trkpt lat="43.0519" lon="19.00627">
        <ele>1597.3699951172</ele>
        <time>2024-09-22T09:33:32.000Z</time>
      </trkpt>
      <trkpt lat="43.05195" lon="19.00629">
        <ele>1596.4100341797</ele>
        <time>2024-09-22T09:33:33.000Z</time>
      </trkpt>
      <trkpt lat="43.052" lon="19.00632">
        <ele>1595.9300537109</ele>
        <time>2024-09-22T09:33:34.000Z</time>
      </trkpt>
      <trkpt lat="43.05211" lon="19.0064">
        <ele>1594.4799804688</ele>
        <time>2024-09-22T09:33:35.000Z</time>
      </trkpt>
      <trkpt lat="43.05212" lon="19.00641">
        <ele>1594</ele>
        <time>2024-09-22T09:33:36.000Z</time>
      </trkpt>
      <trkpt lat="43.05219" lon="19.00645">
        <ele>1593.5200195312</ele>
        <time>2024-09-22T09:33:37.000Z</time>
      </trkpt>
      <trkpt lat="43.05227" lon="19.00646">
        <ele>1593.5200195312</ele>
        <time>2024-09-22T09:33:38.000Z</time>
      </trkpt>
      <trkpt lat="43.05234" lon="19.00647">
        <ele>1593.0400390625</ele>
        <time>2024-09-22T09:33:39.000Z</time>
      </trkpt>
      <trkpt lat="43.0524" lon="19.00646">
        <ele>1592.5600585938</ele>
        <time>2024-09-22T09:33:40.000Z</time>
      </trkpt>
      <trkpt lat="43.05247" lon="19.00644">
        <ele>1592.0799560547</ele>
        <time>2024-09-22T09:33:41.000Z</time>
      </trkpt>
      <trkpt lat="43.05253" lon="19.00641">
        <ele>1591.5999755859</ele>
        <time>2024-09-22T09:33:42.000Z</time>
      </trkpt>
      <trkpt lat="43.05257" lon="19.00638">
        <ele>1591.1199951172</ele>
        <time>2024-09-22T09:33:43.000Z</time>
      </trkpt>
      <trkpt lat="43.05263" lon="19.00628">
        <ele>1590.6400146484</ele>
        <time>2024-09-22T09:33:45.000Z</time>
      </trkpt>
      <trkpt lat="43.05265" lon="19.00625">
        <ele>1590.6400146484</ele>
        <time>2024-09-22T09:33:46.000Z</time>
      </trkpt>
      <trkpt lat="43.05267" lon="19.0062">
        <ele>1590.1600341797</ele>
        <time>2024-09-22T09:33:47.000Z</time>
      </trkpt>
      <trkpt lat="43.0527" lon="19.00613">
        <ele>1590.6400146484</ele>
        <time>2024-09-22T09:33:48.000Z</time>
      </trkpt>
      <trkpt lat="43.05271" lon="19.00605">
        <ele>1591.1199951172</ele>
        <time>2024-09-22T09:33:49.000Z</time>
      </trkpt>
      <trkpt lat="43.05272" lon="19.00596">
        <ele>1591.1199951172</ele>
        <time>2024-09-22T09:33:50.000Z</time>
      </trkpt>
      <trkpt lat="43.05274" lon="19.00589">
        <ele>1591.5999755859</ele>
        <time>2024-09-22T09:33:51.000Z</time>
      </trkpt>
      <trkpt lat="43.05277" lon="19.00575">
        <ele>1592.5600585938</ele>
        <time>2024-09-22T09:33:52.000Z</time>
      </trkpt>
      <trkpt lat="43.05279" lon="19.00568">
        <ele>1592.5600585938</ele>
        <time>2024-09-22T09:33:53.000Z</time>
      </trkpt>
      <trkpt lat="43.05281" lon="19.00558">
        <ele>1592.5600585938</ele>
        <time>2024-09-22T09:33:54.000Z</time>
      </trkpt>
      <trkpt lat="43.05284" lon="19.00548">
        <ele>1593.0400390625</ele>
        <time>2024-09-22T09:33:55.000Z</time>
      </trkpt>
      <trkpt lat="43.05287" lon="19.00542">
        <ele>1593.5200195312</ele>
        <time>2024-09-22T09:33:56.000Z</time>
      </trkpt>
      <trkpt lat="43.05291" lon="19.00539">
        <ele>1594</ele>
        <time>2024-09-22T09:33:57.000Z</time>
      </trkpt>
      <trkpt lat="43.05296" lon="19.00539">
        <ele>1594.9599609375</ele>
        <time>2024-09-22T09:33:58.000Z</time>
      </trkpt>
      <trkpt lat="43.05302" lon="19.0054">
        <ele>1595.9300537109</ele>
        <time>2024-09-22T09:33:59.000Z</time>
      </trkpt>
      <trkpt lat="43.05308" lon="19.00544">
        <ele>1597.3699951172</ele>
        <time>2024-09-22T09:34:00.000Z</time>
      </trkpt>
      <trkpt lat="43.05315" lon="19.00549">
        <ele>1598.3299560547</ele>
        <time>2024-09-22T09:34:01.000Z</time>
      </trkpt>
      <trkpt lat="43.0532" lon="19.00552">
        <ele>1598.8100585938</ele>
        <time>2024-09-22T09:34:02.000Z</time>
      </trkpt>
      <trkpt lat="43.05327" lon="19.00556">
        <ele>1599.2900390625</ele>
        <time>2024-09-22T09:34:03.000Z</time>
      </trkpt>
      <trkpt lat="43.05335" lon="19.00559">
        <ele>1599.7700195312</ele>
        <time>2024-09-22T09:34:04.000Z</time>
      </trkpt>
      <trkpt lat="43.0534" lon="19.00559">
        <ele>1600.25</ele>
        <time>2024-09-22T09:34:05.000Z</time>
      </trkpt>
      <trkpt lat="43.05348" lon="19.00559">
        <ele>1600.25</ele>
        <time>2024-09-22T09:34:06.000Z</time>
      </trkpt>
      <trkpt lat="43.05355" lon="19.00559">
        <ele>1600.7299804688</ele>
        <time>2024-09-22T09:34:07.000Z</time>
      </trkpt>
      <trkpt lat="43.05362" lon="19.00558">
        <ele>1601.2099609375</ele>
        <time>2024-09-22T09:34:08.000Z</time>
      </trkpt>
      <trkpt lat="43.05369" lon="19.00555">
        <ele>1601.6899414062</ele>
        <time>2024-09-22T09:34:09.000Z</time>
      </trkpt>
      <trkpt lat="43.05376" lon="19.00551">
        <ele>1602.1700439453</ele>
        <time>2024-09-22T09:34:10.000Z</time>
      </trkpt>
      <trkpt lat="43.05384" lon="19.00543">
        <ele>1603.1400146484</ele>
        <time>2024-09-22T09:34:11.000Z</time>
      </trkpt>
      <trkpt lat="43.05386" lon="19.00542">
        <ele>1603.1400146484</ele>
        <time>2024-09-22T09:34:12.000Z</time>
      </trkpt>
      <trkpt lat="43.05392" lon="19.00537">
        <ele>1603.6199951172</ele>
        <time>2024-09-22T09:34:13.000Z</time>
      </trkpt>
      <trkpt lat="43.05396" lon="19.00536">
        <ele>1604.0999755859</ele>
        <time>2024-09-22T09:34:14.000Z</time>
      </trkpt>
      <trkpt lat="43.054" lon="19.00536">
        <ele>1604.5799560547</ele>
        <time>2024-09-22T09:34:15.000Z</time>
      </trkpt>
      <trkpt lat="43.05405" lon="19.00538">
        <ele>1605.0600585938</ele>
        <time>2024-09-22T09:34:16.000Z</time>
      </trkpt>
      <trkpt lat="43.05409" lon="19.00542">
        <ele>1605.5400390625</ele>
        <time>2024-09-22T09:34:17.000Z</time>
      </trkpt>
      <trkpt lat="43.05414" lon="19.00547">
        <ele>1606.5</ele>
        <time>2024-09-22T09:34:18.000Z</time>
      </trkpt>
      <trkpt lat="43.05417" lon="19.0055">
        <ele>1606.9799804688</ele>
        <time>2024-09-22T09:34:19.000Z</time>
      </trkpt>
      <trkpt lat="43.05432" lon="19.00559">
        <ele>1606.5</ele>
        <time>2024-09-22T09:34:23.000Z</time>
      </trkpt>
      <trkpt lat="43.05436" lon="19.00558">
        <ele>1606.5</ele>
        <time>2024-09-22T09:34:24.000Z</time>
      </trkpt>
      <trkpt lat="43.05441" lon="19.00557">
        <ele>1606.5</ele>
        <time>2024-09-22T09:34:25.000Z</time>
      </trkpt>
      <trkpt lat="43.05451" lon="19.00552">
        <ele>1606.5</ele>
        <time>2024-09-22T09:34:26.000Z</time>
      </trkpt>
      <trkpt lat="43.05454" lon="19.00551">
        <ele>1606.9799804688</ele>
        <time>2024-09-22T09:34:27.000Z</time>
      </trkpt>
      <trkpt lat="43.05461" lon="19.00549">
        <ele>1606.9799804688</ele>
        <time>2024-09-22T09:34:28.000Z</time>
      </trkpt>
      <trkpt lat="43.05467" lon="19.00548">
        <ele>1606.9799804688</ele>
        <time>2024-09-22T09:34:29.000Z</time>
      </trkpt>
      <trkpt lat="43.05472" lon="19.00548">
        <ele>1607.4599609375</ele>
        <time>2024-09-22T09:34:30.000Z</time>
      </trkpt>
      <trkpt lat="43.05485" lon="19.00548">
        <ele>1607.4599609375</ele>
        <time>2024-09-22T09:34:36.000Z</time>
      </trkpt>
      <trkpt lat="43.05478" lon="19.00546">
        <ele>1607.9399414062</ele>
        <time>2024-09-22T09:34:39.000Z</time>
      </trkpt>
      <trkpt lat="43.05471" lon="19.00547">
        <ele>1607.9399414062</ele>
        <time>2024-09-22T09:34:40.000Z</time>
      </trkpt>
      <trkpt lat="43.05468" lon="19.00547">
        <ele>1607.9399414062</ele>
        <time>2024-09-22T09:34:41.000Z</time>
      </trkpt>
      <trkpt lat="43.05464" lon="19.00548">
        <ele>1607.4599609375</ele>
        <time>2024-09-22T09:34:42.000Z</time>
      </trkpt>
      <trkpt lat="43.05458" lon="19.0055">
        <ele>1607.4599609375</ele>
        <time>2024-09-22T09:34:43.000Z</time>
      </trkpt>
      <trkpt lat="43.05455" lon="19.00551">
        <ele>1607.4599609375</ele>
        <time>2024-09-22T09:34:44.000Z</time>
      </trkpt>
      <trkpt lat="43.05441" lon="19.00556">
        <ele>1606.5</ele>
        <time>2024-09-22T09:34:51.000Z</time>
      </trkpt>
      <trkpt lat="43.05439" lon="19.00557">
        <ele>1606.0200195312</ele>
        <time>2024-09-22T09:35:09.000Z</time>
      </trkpt>
      <trkpt lat="43.05438" lon="19.00558">
        <ele>1608.4200439453</ele>
        <time>2024-09-22T09:38:19.000Z</time>
      </trkpt>
      <trkpt lat="43.05419" lon="19.00552">
        <ele>1608.9000244141</ele>
        <time>2024-09-22T09:38:27.000Z</time>
      </trkpt>
      <trkpt lat="43.05416" lon="19.00548">
        <ele>1608.4200439453</ele>
        <time>2024-09-22T09:38:28.000Z</time>
      </trkpt>
      <trkpt lat="43.05414" lon="19.00547">
        <ele>1607.9399414062</ele>
        <time>2024-09-22T09:38:29.000Z</time>
      </trkpt>
      <trkpt lat="43.05411" lon="19.00543">
        <ele>1606.9799804688</ele>
        <time>2024-09-22T09:38:30.000Z</time>
      </trkpt>
      <trkpt lat="43.05407" lon="19.0054">
        <ele>1606.5</ele>
        <time>2024-09-22T09:38:31.000Z</time>
      </trkpt>
      <trkpt lat="43.05402" lon="19.00537">
        <ele>1605.5400390625</ele>
        <time>2024-09-22T09:38:32.000Z</time>
      </trkpt>
      <trkpt lat="43.05397" lon="19.00536">
        <ele>1605.0600585938</ele>
        <time>2024-09-22T09:38:33.000Z</time>
      </trkpt>
      <trkpt lat="43.05393" lon="19.00536">
        <ele>1605.0600585938</ele>
        <time>2024-09-22T09:38:34.000Z</time>
      </trkpt>
      <trkpt lat="43.05389" lon="19.00538">
        <ele>1604.5799560547</ele>
        <time>2024-09-22T09:38:35.000Z</time>
      </trkpt>
      <trkpt lat="43.05385" lon="19.00541">
        <ele>1604.5799560547</ele>
        <time>2024-09-22T09:38:36.000Z</time>
      </trkpt>
      <trkpt lat="43.05379" lon="19.00547">
        <ele>1603.6199951172</ele>
        <time>2024-09-22T09:38:37.000Z</time>
      </trkpt>
      <trkpt lat="43.05374" lon="19.00551">
        <ele>1603.6199951172</ele>
        <time>2024-09-22T09:38:38.000Z</time>
      </trkpt>
      <trkpt lat="43.05368" lon="19.00555">
        <ele>1603.1400146484</ele>
        <time>2024-09-22T09:38:39.000Z</time>
      </trkpt>
      <trkpt lat="43.05366" lon="19.00556">
        <ele>1602.6600341797</ele>
        <time>2024-09-22T09:38:40.000Z</time>
      </trkpt>
      <trkpt lat="43.05361" lon="19.00558">
        <ele>1602.1700439453</ele>
        <time>2024-09-22T09:38:41.000Z</time>
      </trkpt>
      <trkpt lat="43.05354" lon="19.0056">
        <ele>1601.6899414062</ele>
        <time>2024-09-22T09:38:42.000Z</time>
      </trkpt>
      <trkpt lat="43.05347" lon="19.0056">
        <ele>1601.6899414062</ele>
        <time>2024-09-22T09:38:43.000Z</time>
      </trkpt>
      <trkpt lat="43.05343" lon="19.0056">
        <ele>1601.6899414062</ele>
        <time>2024-09-22T09:38:44.000Z</time>
      </trkpt>
      <trkpt lat="43.05336" lon="19.00559">
        <ele>1601.6899414062</ele>
        <time>2024-09-22T09:38:45.000Z</time>
      </trkpt>
      <trkpt lat="43.0533" lon="19.00558">
        <ele>1601.2099609375</ele>
        <time>2024-09-22T09:38:46.000Z</time>
      </trkpt>
      <trkpt lat="43.05324" lon="19.00556">
        <ele>1600.7299804688</ele>
        <time>2024-09-22T09:38:47.000Z</time>
      </trkpt>
      <trkpt lat="43.05319" lon="19.00554">
        <ele>1600.7299804688</ele>
        <time>2024-09-22T09:38:48.000Z</time>
      </trkpt>
      <trkpt lat="43.05314" lon="19.0055">
        <ele>1600.25</ele>
        <time>2024-09-22T09:38:49.000Z</time>
      </trkpt>
      <trkpt lat="43.05309" lon="19.00547">
        <ele>1599.7700195312</ele>
        <time>2024-09-22T09:38:50.000Z</time>
      </trkpt>
      <trkpt lat="43.05305" lon="19.00543">
        <ele>1598.8100585938</ele>
        <time>2024-09-22T09:38:51.000Z</time>
      </trkpt>
      <trkpt lat="43.053" lon="19.00541">
        <ele>1598.3299560547</ele>
        <time>2024-09-22T09:38:52.000Z</time>
      </trkpt>
      <trkpt lat="43.05296" lon="19.00539">
        <ele>1597.3699951172</ele>
        <time>2024-09-22T09:38:53.000Z</time>
      </trkpt>
      <trkpt lat="43.05292" lon="19.0054">
        <ele>1596.8900146484</ele>
        <time>2024-09-22T09:38:54.000Z</time>
      </trkpt>
      <trkpt lat="43.05288" lon="19.00542">
        <ele>1596.4100341797</ele>
        <time>2024-09-22T09:38:55.000Z</time>
      </trkpt>
      <trkpt lat="43.05284" lon="19.00547">
        <ele>1595.9300537109</ele>
        <time>2024-09-22T09:38:56.000Z</time>
      </trkpt>
      <trkpt lat="43.05283" lon="19.00553">
        <ele>1595.4499511719</ele>
        <time>2024-09-22T09:38:57.000Z</time>
      </trkpt>
      <trkpt lat="43.05281" lon="19.00567">
        <ele>1595.4499511719</ele>
        <time>2024-09-22T09:38:59.000Z</time>
      </trkpt>
      <trkpt lat="43.05279" lon="19.00573">
        <ele>1595.4499511719</ele>
        <time>2024-09-22T09:39:00.000Z</time>
      </trkpt>
      <trkpt lat="43.05277" lon="19.0058">
        <ele>1594.9599609375</ele>
        <time>2024-09-22T09:39:01.000Z</time>
      </trkpt>
      <trkpt lat="43.05275" lon="19.00586">
        <ele>1594.4799804688</ele>
        <time>2024-09-22T09:39:02.000Z</time>
      </trkpt>
      <trkpt lat="43.05273" lon="19.00596">
        <ele>1593.5200195312</ele>
        <time>2024-09-22T09:39:03.000Z</time>
      </trkpt>
      <trkpt lat="43.05272" lon="19.00601">
        <ele>1593.0400390625</ele>
        <time>2024-09-22T09:39:04.000Z</time>
      </trkpt>
      <trkpt lat="43.05271" lon="19.0061">
        <ele>1592.5600585938</ele>
        <time>2024-09-22T09:39:05.000Z</time>
      </trkpt>
      <trkpt lat="43.05269" lon="19.00618">
        <ele>1592.0799560547</ele>
        <time>2024-09-22T09:39:06.000Z</time>
      </trkpt>
      <trkpt lat="43.05266" lon="19.00624">
        <ele>1592.0799560547</ele>
        <time>2024-09-22T09:39:07.000Z</time>
      </trkpt>
      <trkpt lat="43.05264" lon="19.0063">
        <ele>1591.5999755859</ele>
        <time>2024-09-22T09:39:08.000Z</time>
      </trkpt>
      <trkpt lat="43.05261" lon="19.00635">
        <ele>1592.0799560547</ele>
        <time>2024-09-22T09:39:09.000Z</time>
      </trkpt>
      <trkpt lat="43.05257" lon="19.0064">
        <ele>1592.0799560547</ele>
        <time>2024-09-22T09:39:10.000Z</time>
      </trkpt>
      <trkpt lat="43.05251" lon="19.00643">
        <ele>1592.0799560547</ele>
        <time>2024-09-22T09:39:11.000Z</time>
      </trkpt>
      <trkpt lat="43.05245" lon="19.00645">
        <ele>1592.5600585938</ele>
        <time>2024-09-22T09:39:12.000Z</time>
      </trkpt>
      <trkpt lat="43.05238" lon="19.00646">
        <ele>1592.5600585938</ele>
        <time>2024-09-22T09:39:13.000Z</time>
      </trkpt>
      <trkpt lat="43.05232" lon="19.00646">
        <ele>1593.0400390625</ele>
        <time>2024-09-22T09:39:14.000Z</time>
      </trkpt>
      <trkpt lat="43.05227" lon="19.00646">
        <ele>1593.5200195312</ele>
        <time>2024-09-22T09:39:15.000Z</time>
      </trkpt>
      <trkpt lat="43.05221" lon="19.00644">
        <ele>1594</ele>
        <time>2024-09-22T09:39:16.000Z</time>
      </trkpt>
      <trkpt lat="43.05214" lon="19.0064">
        <ele>1594.4799804688</ele>
        <time>2024-09-22T09:39:17.000Z</time>
      </trkpt>
      <trkpt lat="43.05205" lon="19.00634">
        <ele>1595.4499511719</ele>
        <time>2024-09-22T09:39:18.000Z</time>
      </trkpt>
      <trkpt lat="43.05201" lon="19.00631">
        <ele>1596.4100341797</ele>
        <time>2024-09-22T09:39:19.000Z</time>
      </trkpt>
      <trkpt lat="43.05197" lon="19.00629">
        <ele>1596.8900146484</ele>
        <time>2024-09-22T09:39:20.000Z</time>
      </trkpt>
      <trkpt lat="43.05191" lon="19.00627">
        <ele>1598.3299560547</ele>
        <time>2024-09-22T09:39:21.000Z</time>
      </trkpt>
      <trkpt lat="43.05186" lon="19.00626">
        <ele>1599.2900390625</ele>
        <time>2024-09-22T09:39:22.000Z</time>
      </trkpt>
      <trkpt lat="43.05179" lon="19.00626">
        <ele>1600.7299804688</ele>
        <time>2024-09-22T09:39:23.000Z</time>
      </trkpt>
      <trkpt lat="43.05175" lon="19.00626">
        <ele>1601.2099609375</ele>
        <time>2024-09-22T09:39:24.000Z</time>
      </trkpt>
      <trkpt lat="43.0517" lon="19.00624">
        <ele>1601.6899414062</ele>
        <time>2024-09-22T09:39:25.000Z</time>
      </trkpt>
      <trkpt lat="43.05164" lon="19.00621">
        <ele>1602.1700439453</ele>
        <time>2024-09-22T09:39:26.000Z</time>
      </trkpt>
      <trkpt lat="43.05161" lon="19.0062">
        <ele>1601.6899414062</ele>
        <time>2024-09-22T09:39:27.000Z</time>
      </trkpt>
      <trkpt lat="43.05156" lon="19.00617">
        <ele>1601.6899414062</ele>
        <time>2024-09-22T09:39:28.000Z</time>
      </trkpt>
      <trkpt lat="43.0515" lon="19.00613">
        <ele>1601.2099609375</ele>
        <time>2024-09-22T09:39:29.000Z</time>
      </trkpt>
      <trkpt lat="43.05144" lon="19.00609">
        <ele>1600.7299804688</ele>
        <time>2024-09-22T09:39:30.000Z</time>
      </trkpt>
      <trkpt lat="43.05142" lon="19.00608">
        <ele>1600.7299804688</ele>
        <time>2024-09-22T09:39:31.000Z</time>
      </trkpt>
      <trkpt lat="43.05137" lon="19.00605">
        <ele>1600.25</ele>
        <time>2024-09-22T09:39:32.000Z</time>
      </trkpt>
      <trkpt lat="43.05132" lon="19.00609">
        <ele>1600.7299804688</ele>
        <time>2024-09-22T09:39:37.000Z</time>
      </trkpt>
      <trkpt lat="43.05139" lon="19.00611">
        <ele>1600.25</ele>
        <time>2024-09-22T09:39:40.000Z</time>
      </trkpt>
      <trkpt lat="43.05143" lon="19.00612">
        <ele>1600.25</ele>
        <time>2024-09-22T09:39:41.000Z</time>
      </trkpt>
      <trkpt lat="43.05148" lon="19.00615">
        <ele>1600.7299804688</ele>
        <time>2024-09-22T09:39:42.000Z</time>
      </trkpt>
      <trkpt lat="43.05154" lon="19.00617">
        <ele>1600.7299804688</ele>
        <time>2024-09-22T09:39:43.000Z</time>
      </trkpt>
      <trkpt lat="43.05158" lon="19.00619">
        <ele>1601.2099609375</ele>
        <time>2024-09-22T09:39:44.000Z</time>
      </trkpt>
      <trkpt lat="43.05162" lon="19.00621">
        <ele>1601.2099609375</ele>
        <time>2024-09-22T09:39:45.000Z</time>
      </trkpt>
      <trkpt lat="43.05189" lon="19.00628">
        <ele>1599.2900390625</ele>
        <time>2024-09-22T09:39:52.000Z</time>
      </trkpt>
      <trkpt lat="43.0519" lon="19.00628">
        <ele>1598.8100585938</ele>
        <time>2024-09-22T09:39:53.000Z</time>
      </trkpt>
      <trkpt lat="43.05195" lon="19.00628">
        <ele>1598.3299560547</ele>
        <time>2024-09-22T09:39:54.000Z</time>
      </trkpt>
      <trkpt lat="43.05198" lon="19.0063">
        <ele>1597.8499755859</ele>
        <time>2024-09-22T09:39:55.000Z</time>
      </trkpt>
      <trkpt lat="43.05206" lon="19.00635">
        <ele>1596.4100341797</ele>
        <time>2024-09-22T09:39:56.000Z</time>
      </trkpt>
      <trkpt lat="43.05215" lon="19.00642">
        <ele>1594.9599609375</ele>
        <time>2024-09-22T09:39:58.000Z</time>
      </trkpt>
      <trkpt lat="43.05221" lon="19.00644">
        <ele>1594.4799804688</ele>
        <time>2024-09-22T09:39:59.000Z</time>
      </trkpt>
      <trkpt lat="43.05229" lon="19.00647">
        <ele>1594</ele>
        <time>2024-09-22T09:40:00.000Z</time>
      </trkpt>
      <trkpt lat="43.05235" lon="19.00647">
        <ele>1593.5200195312</ele>
        <time>2024-09-22T09:40:01.000Z</time>
      </trkpt>
      <trkpt lat="43.05242" lon="19.00645">
        <ele>1593.0400390625</ele>
        <time>2024-09-22T09:40:02.000Z</time>
      </trkpt>
      <trkpt lat="43.05249" lon="19.00643">
        <ele>1592.0799560547</ele>
        <time>2024-09-22T09:40:03.000Z</time>
      </trkpt>
      <trkpt lat="43.05255" lon="19.0064">
        <ele>1591.5999755859</ele>
        <time>2024-09-22T09:40:04.000Z</time>
      </trkpt>
      <trkpt lat="43.0526" lon="19.00635">
        <ele>1591.5999755859</ele>
        <time>2024-09-22T09:40:05.000Z</time>
      </trkpt>
      <trkpt lat="43.05264" lon="19.00629">
        <ele>1591.1199951172</ele>
        <time>2024-09-22T09:40:06.000Z</time>
      </trkpt>
      <trkpt lat="43.05268" lon="19.00621">
        <ele>1591.1199951172</ele>
        <time>2024-09-22T09:40:07.000Z</time>
      </trkpt>
      <trkpt lat="43.0527" lon="19.00614">
        <ele>1591.1199951172</ele>
        <time>2024-09-22T09:40:08.000Z</time>
      </trkpt>
      <trkpt lat="43.05273" lon="19.00604">
        <ele>1591.5999755859</ele>
        <time>2024-09-22T09:40:09.000Z</time>
      </trkpt>
      <trkpt lat="43.05274" lon="19.00593">
        <ele>1592.0799560547</ele>
        <time>2024-09-22T09:40:10.000Z</time>
      </trkpt>
      <trkpt lat="43.05276" lon="19.00585">
        <ele>1592.5600585938</ele>
        <time>2024-09-22T09:40:11.000Z</time>
      </trkpt>
      <trkpt lat="43.0528" lon="19.00572">
        <ele>1593.0400390625</ele>
        <time>2024-09-22T09:40:12.000Z</time>
      </trkpt>
      <trkpt lat="43.05282" lon="19.00563">
        <ele>1593.0400390625</ele>
        <time>2024-09-22T09:40:13.000Z</time>
      </trkpt>
      <trkpt lat="43.05284" lon="19.00553">
        <ele>1593.5200195312</ele>
        <time>2024-09-22T09:40:14.000Z</time>
      </trkpt>
      <trkpt lat="43.05287" lon="19.00545">
        <ele>1594</ele>
        <time>2024-09-22T09:40:15.000Z</time>
      </trkpt>
      <trkpt lat="43.0529" lon="19.00541">
        <ele>1594.4799804688</ele>
        <time>2024-09-22T09:40:16.000Z</time>
      </trkpt>
      <trkpt lat="43.05295" lon="19.0054">
        <ele>1594.9599609375</ele>
        <time>2024-09-22T09:40:17.000Z</time>
      </trkpt>
      <trkpt lat="43.05299" lon="19.0054">
        <ele>1595.4499511719</ele>
        <time>2024-09-22T09:40:18.000Z</time>
      </trkpt>
      <trkpt lat="43.05304" lon="19.00543">
        <ele>1596.4100341797</ele>
        <time>2024-09-22T09:40:19.000Z</time>
      </trkpt>
      <trkpt lat="43.05311" lon="19.00548">
        <ele>1597.8499755859</ele>
        <time>2024-09-22T09:40:20.000Z</time>
      </trkpt>
      <trkpt lat="43.05318" lon="19.00552">
        <ele>1598.8100585938</ele>
        <time>2024-09-22T09:40:21.000Z</time>
      </trkpt>
      <trkpt lat="43.05322" lon="19.00555">
        <ele>1599.2900390625</ele>
        <time>2024-09-22T09:40:22.000Z</time>
      </trkpt>
      <trkpt lat="43.05328" lon="19.00558">
        <ele>1599.7700195312</ele>
        <time>2024-09-22T09:40:23.000Z</time>
      </trkpt>
      <trkpt lat="43.05336" lon="19.0056">
        <ele>1600.25</ele>
        <time>2024-09-22T09:40:24.000Z</time>
      </trkpt>
      <trkpt lat="43.05342" lon="19.00561">
        <ele>1600.25</ele>
        <time>2024-09-22T09:40:25.000Z</time>
      </trkpt>
      <trkpt lat="43.05349" lon="19.0056">
        <ele>1600.25</ele>
        <time>2024-09-22T09:40:26.000Z</time>
      </trkpt>
      <trkpt lat="43.05355" lon="19.00559">
        <ele>1600.7299804688</ele>
        <time>2024-09-22T09:40:27.000Z</time>
      </trkpt>
      <trkpt lat="43.05362" lon="19.00558">
        <ele>1601.2099609375</ele>
        <time>2024-09-22T09:40:28.000Z</time>
      </trkpt>
      <trkpt lat="43.0537" lon="19.00554">
        <ele>1601.2099609375</ele>
        <time>2024-09-22T09:40:29.000Z</time>
      </trkpt>
      <trkpt lat="43.0539" lon="19.00539">
        <ele>1603.1400146484</ele>
        <time>2024-09-22T09:40:32.000Z</time>
      </trkpt>
      <trkpt lat="43.05394" lon="19.00537">
        <ele>1603.1400146484</ele>
        <time>2024-09-22T09:40:33.000Z</time>
      </trkpt>
      <trkpt lat="43.05399" lon="19.00536">
        <ele>1603.6199951172</ele>
        <time>2024-09-22T09:40:34.000Z</time>
      </trkpt>
      <trkpt lat="43.05405" lon="19.00538">
        <ele>1604.0999755859</ele>
        <time>2024-09-22T09:40:35.000Z</time>
      </trkpt>
      <trkpt lat="43.05409" lon="19.00541">
        <ele>1605.0600585938</ele>
        <time>2024-09-22T09:40:36.000Z</time>
      </trkpt>
      <trkpt lat="43.05419" lon="19.00552">
        <ele>1606.9799804688</ele>
        <time>2024-09-22T09:40:38.000Z</time>
      </trkpt>
      <trkpt lat="43.05423" lon="19.00555">
        <ele>1606.9799804688</ele>
        <time>2024-09-22T09:40:39.000Z</time>
      </trkpt>
      <trkpt lat="43.05427" lon="19.00557">
        <ele>1606.9799804688</ele>
        <time>2024-09-22T09:40:40.000Z</time>
      </trkpt>
      <trkpt lat="43.05431" lon="19.00558">
        <ele>1606.5</ele>
        <time>2024-09-22T09:40:41.000Z</time>
      </trkpt>
      <trkpt lat="43.05437" lon="19.00557">
        <ele>1606.5</ele>
        <time>2024-09-22T09:40:42.000Z</time>
      </trkpt>
      <trkpt lat="43.05448" lon="19.00553">
        <ele>1606.5</ele>
        <time>2024-09-22T09:40:43.000Z</time>
      </trkpt>
      <trkpt lat="43.05452" lon="19.00552">
        <ele>1606.5</ele>
        <time>2024-09-22T09:40:44.000Z</time>
      </trkpt>
      <trkpt lat="43.05462" lon="19.00549">
        <ele>1606.9799804688</ele>
        <time>2024-09-22T09:40:45.000Z</time>
      </trkpt>
      <trkpt lat="43.05466" lon="19.00548">
        <ele>1606.9799804688</ele>
        <time>2024-09-22T09:40:46.000Z</time>
      </trkpt>
      <trkpt lat="43.05472" lon="19.00548">
        <ele>1606.9799804688</ele>
        <time>2024-09-22T09:40:47.000Z</time>
      </trkpt>
      <trkpt lat="43.05477" lon="19.00548">
        <ele>1607.4599609375</ele>
        <time>2024-09-22T09:40:48.000Z</time>
      </trkpt>
      <trkpt lat="43.05485" lon="19.00547">
        <ele>1607.9399414062</ele>
        <time>2024-09-22T09:40:54.000Z</time>
      </trkpt>
      <trkpt lat="43.0548" lon="19.00545">
        <ele>1608.4200439453</ele>
        <time>2024-09-22T09:40:55.000Z</time>
      </trkpt>
      <trkpt lat="43.05475" lon="19.00545">
        <ele>1607.9399414062</ele>
        <time>2024-09-22T09:40:57.000Z</time>
      </trkpt>
      <trkpt lat="43.05469" lon="19.00545">
        <ele>1608.4200439453</ele>
        <time>2024-09-22T09:40:58.000Z</time>
      </trkpt>
      <trkpt lat="43.05465" lon="19.00546">
        <ele>1607.9399414062</ele>
        <time>2024-09-22T09:40:59.000Z</time>
      </trkpt>
      <trkpt lat="43.05447" lon="19.00553">
        <ele>1607.9399414062</ele>
        <time>2024-09-22T09:41:07.000Z</time>
      </trkpt>
      <trkpt lat="43.05432" lon="19.00558">
        <ele>1606.9799804688</ele>
        <time>2024-09-22T09:41:21.000Z</time>
      </trkpt>
      <trkpt lat="43.05418" lon="19.00551">
        <ele>1606.9799804688</ele>
        <time>2024-09-22T09:41:25.000Z</time>
      </trkpt>
      <trkpt lat="43.05416" lon="19.00549">
        <ele>1606.9799804688</ele>
        <time>2024-09-22T09:41:26.000Z</time>
      </trkpt>
      <trkpt lat="43.05412" lon="19.00545">
        <ele>1606.0200195312</ele>
        <time>2024-09-22T09:41:27.000Z</time>
      </trkpt>
      <trkpt lat="43.05407" lon="19.0054">
        <ele>1604.5799560547</ele>
        <time>2024-09-22T09:41:28.000Z</time>
      </trkpt>
      <trkpt lat="43.05404" lon="19.00537">
        <ele>1604.0999755859</ele>
        <time>2024-09-22T09:41:29.000Z</time>
      </trkpt>
      <trkpt lat="43.05399" lon="19.00536">
        <ele>1603.6199951172</ele>
        <time>2024-09-22T09:41:30.000Z</time>
      </trkpt>
      <trkpt lat="43.05394" lon="19.00536">
        <ele>1603.1400146484</ele>
        <time>2024-09-22T09:41:31.000Z</time>
      </trkpt>
      <trkpt lat="43.0539" lon="19.00537">
        <ele>1603.1400146484</ele>
        <time>2024-09-22T09:41:32.000Z</time>
      </trkpt>
      <trkpt lat="43.05385" lon="19.00541">
        <ele>1602.6600341797</ele>
        <time>2024-09-22T09:41:33.000Z</time>
      </trkpt>
      <trkpt lat="43.05381" lon="19.00545">
        <ele>1602.6600341797</ele>
        <time>2024-09-22T09:41:34.000Z</time>
      </trkpt>
      <trkpt lat="43.05373" lon="19.0055">
        <ele>1601.6899414062</ele>
        <time>2024-09-22T09:41:35.000Z</time>
      </trkpt>
      <trkpt lat="43.05369" lon="19.00553">
        <ele>1601.6899414062</ele>
        <time>2024-09-22T09:41:36.000Z</time>
      </trkpt>
      <trkpt lat="43.05362" lon="19.00556">
        <ele>1601.2099609375</ele>
        <time>2024-09-22T09:41:37.000Z</time>
      </trkpt>
      <trkpt lat="43.05355" lon="19.00559">
        <ele>1600.25</ele>
        <time>2024-09-22T09:41:38.000Z</time>
      </trkpt>
      <trkpt lat="43.05347" lon="19.0056">
        <ele>1600.25</ele>
        <time>2024-09-22T09:41:39.000Z</time>
      </trkpt>
      <trkpt lat="43.0534" lon="19.00559">
        <ele>1600.25</ele>
        <time>2024-09-22T09:41:40.000Z</time>
      </trkpt>
      <trkpt lat="43.05334" lon="19.00558">
        <ele>1600.25</ele>
        <time>2024-09-22T09:41:41.000Z</time>
      </trkpt>
      <trkpt lat="43.05328" lon="19.00556">
        <ele>1600.25</ele>
        <time>2024-09-22T09:41:42.000Z</time>
      </trkpt>
      <trkpt lat="43.05323" lon="19.00555">
        <ele>1599.7700195312</ele>
        <time>2024-09-22T09:41:43.000Z</time>
      </trkpt>
      <trkpt lat="43.05316" lon="19.00551">
        <ele>1599.7700195312</ele>
        <time>2024-09-22T09:41:44.000Z</time>
      </trkpt>
      <trkpt lat="43.05311" lon="19.00548">
        <ele>1599.2900390625</ele>
        <time>2024-09-22T09:41:45.000Z</time>
      </trkpt>
      <trkpt lat="43.05308" lon="19.00545">
        <ele>1598.3299560547</ele>
        <time>2024-09-22T09:41:46.000Z</time>
      </trkpt>
      <trkpt lat="43.05302" lon="19.00542">
        <ele>1597.8499755859</ele>
        <time>2024-09-22T09:41:47.000Z</time>
      </trkpt>
      <trkpt lat="43.05297" lon="19.0054">
        <ele>1597.3699951172</ele>
        <time>2024-09-22T09:41:48.000Z</time>
      </trkpt>
      <trkpt lat="43.0529" lon="19.0054">
        <ele>1595.9300537109</ele>
        <time>2024-09-22T09:41:49.000Z</time>
      </trkpt>
      <trkpt lat="43.05289" lon="19.00541">
        <ele>1595.9300537109</ele>
        <time>2024-09-22T09:41:50.000Z</time>
      </trkpt>
      <trkpt lat="43.05286" lon="19.00544">
        <ele>1595.4499511719</ele>
        <time>2024-09-22T09:41:51.000Z</time>
      </trkpt>
      <trkpt lat="43.05283" lon="19.0055">
        <ele>1595.4499511719</ele>
        <time>2024-09-22T09:41:52.000Z</time>
      </trkpt>
      <trkpt lat="43.05282" lon="19.00559">
        <ele>1594.9599609375</ele>
        <time>2024-09-22T09:41:53.000Z</time>
      </trkpt>
      <trkpt lat="43.05281" lon="19.00567">
        <ele>1594.9599609375</ele>
        <time>2024-09-22T09:41:54.000Z</time>
      </trkpt>
      <trkpt lat="43.05278" lon="19.00576">
        <ele>1594.9599609375</ele>
        <time>2024-09-22T09:41:55.000Z</time>
      </trkpt>
      <trkpt lat="43.05275" lon="19.00584">
        <ele>1594</ele>
        <time>2024-09-22T09:41:56.000Z</time>
      </trkpt>
      <trkpt lat="43.0527" lon="19.0061">
        <ele>1592.0799560547</ele>
        <time>2024-09-22T09:41:59.000Z</time>
      </trkpt>
      <trkpt lat="43.05268" lon="19.00617">
        <ele>1591.5999755859</ele>
        <time>2024-09-22T09:42:00.000Z</time>
      </trkpt>
      <trkpt lat="43.05265" lon="19.00626">
        <ele>1591.5999755859</ele>
        <time>2024-09-22T09:42:01.000Z</time>
      </trkpt>
      <trkpt lat="43.05261" lon="19.00633">
        <ele>1591.1199951172</ele>
        <time>2024-09-22T09:42:02.000Z</time>
      </trkpt>
      <trkpt lat="43.05255" lon="19.00639">
        <ele>1591.5999755859</ele>
        <time>2024-09-22T09:42:03.000Z</time>
      </trkpt>
      <trkpt lat="43.05249" lon="19.00643">
        <ele>1591.5999755859</ele>
        <time>2024-09-22T09:42:04.000Z</time>
      </trkpt>
      <trkpt lat="43.05242" lon="19.00645">
        <ele>1592.0799560547</ele>
        <time>2024-09-22T09:42:05.000Z</time>
      </trkpt>
      <trkpt lat="43.05234" lon="19.00646">
        <ele>1593.0400390625</ele>
        <time>2024-09-22T09:42:06.000Z</time>
      </trkpt>
      <trkpt lat="43.05228" lon="19.00646">
        <ele>1593.5200195312</ele>
        <time>2024-09-22T09:42:07.000Z</time>
      </trkpt>
      <trkpt lat="43.05221" lon="19.00644">
        <ele>1594</ele>
        <time>2024-09-22T09:42:08.000Z</time>
      </trkpt>
      <trkpt lat="43.05214" lon="19.00641">
        <ele>1594.4799804688</ele>
        <time>2024-09-22T09:42:09.000Z</time>
      </trkpt>
      <trkpt lat="43.05205" lon="19.00634">
        <ele>1595.4499511719</ele>
        <time>2024-09-22T09:42:10.000Z</time>
      </trkpt>
      <trkpt lat="43.052" lon="19.0063">
        <ele>1596.4100341797</ele>
        <time>2024-09-22T09:42:11.000Z</time>
      </trkpt>
      <trkpt lat="43.05195" lon="19.00627">
        <ele>1597.3699951172</ele>
        <time>2024-09-22T09:42:12.000Z</time>
      </trkpt>
      <trkpt lat="43.05189" lon="19.00625">
        <ele>1598.8100585938</ele>
        <time>2024-09-22T09:42:13.000Z</time>
      </trkpt>
      <trkpt lat="43.05182" lon="19.00625">
        <ele>1599.7700195312</ele>
        <time>2024-09-22T09:42:14.000Z</time>
      </trkpt>
      <trkpt lat="43.05177" lon="19.00625">
        <ele>1600.7299804688</ele>
        <time>2024-09-22T09:42:15.000Z</time>
      </trkpt>
      <trkpt lat="43.05171" lon="19.00623">
        <ele>1601.2099609375</ele>
        <time>2024-09-22T09:42:16.000Z</time>
      </trkpt>
      <trkpt lat="43.05165" lon="19.0062">
        <ele>1601.6899414062</ele>
        <time>2024-09-22T09:42:17.000Z</time>
      </trkpt>
      <trkpt lat="43.0516" lon="19.00616">
        <ele>1601.2099609375</ele>
        <time>2024-09-22T09:42:18.000Z</time>
      </trkpt>
      <trkpt lat="43.05157" lon="19.00614">
        <ele>1601.2099609375</ele>
        <time>2024-09-22T09:42:19.000Z</time>
      </trkpt>
      <trkpt lat="43.0515" lon="19.00613">
        <ele>1600.7299804688</ele>
        <time>2024-09-22T09:42:20.000Z</time>
      </trkpt>
      <trkpt lat="43.05146" lon="19.00611">
        <ele>1600.7299804688</ele>
        <time>2024-09-22T09:42:21.000Z</time>
      </trkpt>
      <trkpt lat="43.05139" lon="19.0061">
        <ele>1600.25</ele>
        <time>2024-09-22T09:42:22.000Z</time>
      </trkpt>
      <trkpt lat="43.05132" lon="19.00609">
        <ele>1600.25</ele>
        <time>2024-09-22T09:42:23.000Z</time>
      </trkpt>
      <trkpt lat="43.05125" lon="19.0061">
        <ele>1600.25</ele>
        <time>2024-09-22T09:42:24.000Z</time>
      </trkpt>
      <trkpt lat="43.05119" lon="19.00611">
        <ele>1600.25</ele>
        <time>2024-09-22T09:42:25.000Z</time>
      </trkpt>
      <trkpt lat="43.05102" lon="19.00616">
        <ele>1602.1700439453</ele>
        <time>2024-09-22T09:42:27.000Z</time>
      </trkpt>
      <trkpt lat="43.05096" lon="19.00618">
        <ele>1603.1400146484</ele>
        <time>2024-09-22T09:42:28.000Z</time>
      </trkpt>
      <trkpt lat="43.05089" lon="19.0062">
        <ele>1603.6199951172</ele>
        <time>2024-09-22T09:42:29.000Z</time>
      </trkpt>
      <trkpt lat="43.05085" lon="19.00621">
        <ele>1603.6199951172</ele>
        <time>2024-09-22T09:42:30.000Z</time>
      </trkpt>
      <trkpt lat="43.0508" lon="19.00622">
        <ele>1604.0999755859</ele>
        <time>2024-09-22T09:42:31.000Z</time>
      </trkpt>
      <trkpt lat="43.05075" lon="19.00623">
        <ele>1604.0999755859</ele>
        <time>2024-09-22T09:42:32.000Z</time>
      </trkpt>
      <trkpt lat="43.05068" lon="19.00628">
        <ele>1604.0999755859</ele>
        <time>2024-09-22T09:42:33.000Z</time>
      </trkpt>
      <trkpt lat="43.05061" lon="19.00633">
        <ele>1604.5799560547</ele>
        <time>2024-09-22T09:42:35.000Z</time>
      </trkpt>
      <trkpt lat="43.0506" lon="19.00634">
        <ele>1604.5799560547</ele>
        <time>2024-09-22T09:42:36.000Z</time>
      </trkpt>
      <trkpt lat="43.05057" lon="19.00637">
        <ele>1604.5799560547</ele>
        <time>2024-09-22T09:42:37.000Z</time>
      </trkpt>
      <trkpt lat="43.05054" lon="19.00639">
        <ele>1604.5799560547</ele>
        <time>2024-09-22T09:42:38.000Z</time>
      </trkpt>
      <trkpt lat="43.05049" lon="19.00644">
        <ele>1605.0600585938</ele>
        <time>2024-09-22T09:42:39.000Z</time>
      </trkpt>
      <trkpt lat="43.05047" lon="19.00647">
        <ele>1605.0600585938</ele>
        <time>2024-09-22T09:42:40.000Z</time>
      </trkpt>
      <trkpt lat="43.05043" lon="19.00651">
        <ele>1605.0600585938</ele>
        <time>2024-09-22T09:42:41.000Z</time>
      </trkpt>
      <trkpt lat="43.05039" lon="19.00658">
        <ele>1604.5799560547</ele>
        <time>2024-09-22T09:42:42.000Z</time>
      </trkpt>
      <trkpt lat="43.05035" lon="19.00666">
        <ele>1604.5799560547</ele>
        <time>2024-09-22T09:42:43.000Z</time>
      </trkpt>
      <trkpt lat="43.0503" lon="19.00674">
        <ele>1604.5799560547</ele>
        <time>2024-09-22T09:42:44.000Z</time>
      </trkpt>
      <trkpt lat="43.05025" lon="19.0068">
        <ele>1604.0999755859</ele>
        <time>2024-09-22T09:42:45.000Z</time>
      </trkpt>
      <trkpt lat="43.05019" lon="19.00684">
        <ele>1604.0999755859</ele>
        <time>2024-09-22T09:42:46.000Z</time>
      </trkpt>
      <trkpt lat="43.05012" lon="19.00687">
        <ele>1604.0999755859</ele>
        <time>2024-09-22T09:42:47.000Z</time>
      </trkpt>
      <trkpt lat="43.05006" lon="19.00688">
        <ele>1604.5799560547</ele>
        <time>2024-09-22T09:42:48.000Z</time>
      </trkpt>
      <trkpt lat="43.04999" lon="19.00691">
        <ele>1605.0600585938</ele>
        <time>2024-09-22T09:42:49.000Z</time>
      </trkpt>
      <trkpt lat="43.04994" lon="19.00693">
        <ele>1605.0600585938</ele>
        <time>2024-09-22T09:42:50.000Z</time>
      </trkpt>
      <trkpt lat="43.04988" lon="19.00696">
        <ele>1605.5400390625</ele>
        <time>2024-09-22T09:42:51.000Z</time>
      </trkpt>
      <trkpt lat="43.04984" lon="19.00699">
        <ele>1605.5400390625</ele>
        <time>2024-09-22T09:42:52.000Z</time>
      </trkpt>
      <trkpt lat="43.04966" lon="19.00716">
        <ele>1605.5400390625</ele>
        <time>2024-09-22T09:43:01.000Z</time>
      </trkpt>
      <trkpt lat="43.04955" lon="19.00731">
        <ele>1607.4599609375</ele>
        <time>2024-09-22T09:47:44.000Z</time>
      </trkpt>
      <trkpt lat="43.04934" lon="19.00753">
        <ele>1607.4599609375</ele>
        <time>2024-09-22T09:47:53.000Z</time>
      </trkpt>
      <trkpt lat="43.04927" lon="19.00763">
        <ele>1606.9799804688</ele>
        <time>2024-09-22T09:47:59.000Z</time>
      </trkpt>
      <trkpt lat="43.04926" lon="19.00765">
        <ele>1606.9799804688</ele>
        <time>2024-09-22T09:48:00.000Z</time>
      </trkpt>
      <trkpt lat="43.04924" lon="19.00771">
        <ele>1606.9799804688</ele>
        <time>2024-09-22T09:48:01.000Z</time>
      </trkpt>
      <trkpt lat="43.04923" lon="19.00777">
        <ele>1606.9799804688</ele>
        <time>2024-09-22T09:48:02.000Z</time>
      </trkpt>
      <trkpt lat="43.04923" lon="19.00784">
        <ele>1606.9799804688</ele>
        <time>2024-09-22T09:48:03.000Z</time>
      </trkpt>
      <trkpt lat="43.04924" lon="19.00795">
        <ele>1606.9799804688</ele>
        <time>2024-09-22T09:48:04.000Z</time>
      </trkpt>
      <trkpt lat="43.04924" lon="19.00798">
        <ele>1606.9799804688</ele>
        <time>2024-09-22T09:48:05.000Z</time>
      </trkpt>
      <trkpt lat="43.04924" lon="19.00806">
        <ele>1606.9799804688</ele>
        <time>2024-09-22T09:48:06.000Z</time>
      </trkpt>
      <trkpt lat="43.04922" lon="19.00814">
        <ele>1607.4599609375</ele>
        <time>2024-09-22T09:48:07.000Z</time>
      </trkpt>
      <trkpt lat="43.04919" lon="19.00822">
        <ele>1607.4599609375</ele>
        <time>2024-09-22T09:48:08.000Z</time>
      </trkpt>
      <trkpt lat="43.04916" lon="19.00828">
        <ele>1607.9399414062</ele>
        <time>2024-09-22T09:48:09.000Z</time>
      </trkpt>
      <trkpt lat="43.04912" lon="19.00835">
        <ele>1608.4200439453</ele>
        <time>2024-09-22T09:48:10.000Z</time>
      </trkpt>
      <trkpt lat="43.04907" lon="19.0084">
        <ele>1608.9000244141</ele>
        <time>2024-09-22T09:48:11.000Z</time>
      </trkpt>
      <trkpt lat="43.04899" lon="19.00846">
        <ele>1609.8599853516</ele>
        <time>2024-09-22T09:48:12.000Z</time>
      </trkpt>
      <trkpt lat="43.04896" lon="19.00849">
        <ele>1609.8599853516</ele>
        <time>2024-09-22T09:48:13.000Z</time>
      </trkpt>
      <trkpt lat="43.0489" lon="19.00854">
        <ele>1610.8299560547</ele>
        <time>2024-09-22T09:48:14.000Z</time>
      </trkpt>
      <trkpt lat="43.04885" lon="19.00859">
        <ele>1611.3100585938</ele>
        <time>2024-09-22T09:48:15.000Z</time>
      </trkpt>
      <trkpt lat="43.04876" lon="19.00867">
        <ele>1613.2299804688</ele>
        <time>2024-09-22T09:48:16.000Z</time>
      </trkpt>
      <trkpt lat="43.04873" lon="19.00869">
        <ele>1613.7099609375</ele>
        <time>2024-09-22T09:48:17.000Z</time>
      </trkpt>
      <trkpt lat="43.04865" lon="19.00877">
        <ele>1615.1500244141</ele>
        <time>2024-09-22T09:48:18.000Z</time>
      </trkpt>
      <trkpt lat="43.04861" lon="19.00881">
        <ele>1615.6300048828</ele>
        <time>2024-09-22T09:48:19.000Z</time>
      </trkpt>
      <trkpt lat="43.04853" lon="19.00888">
        <ele>1617.0699462891</ele>
        <time>2024-09-22T09:48:20.000Z</time>
      </trkpt>
      <trkpt lat="43.04849" lon="19.00892">
        <ele>1618.0400390625</ele>
        <time>2024-09-22T09:48:21.000Z</time>
      </trkpt>
      <trkpt lat="43.04839" lon="19.00902">
        <ele>1619.4799804688</ele>
        <time>2024-09-22T09:48:22.000Z</time>
      </trkpt>
      <trkpt lat="43.04838" lon="19.00904">
        <ele>1619.9599609375</ele>
        <time>2024-09-22T09:48:23.000Z</time>
      </trkpt>
      <trkpt lat="43.0483" lon="19.00912">
        <ele>1620.9200439453</ele>
        <time>2024-09-22T09:48:24.000Z</time>
      </trkpt>
      <trkpt lat="43.04827" lon="19.00916">
        <ele>1621.4000244141</ele>
        <time>2024-09-22T09:48:25.000Z</time>
      </trkpt>
      <trkpt lat="43.0482" lon="19.00921">
        <ele>1622.3599853516</ele>
        <time>2024-09-22T09:48:26.000Z</time>
      </trkpt>
      <trkpt lat="43.04814" lon="19.00925">
        <ele>1623.3199462891</ele>
        <time>2024-09-22T09:48:27.000Z</time>
      </trkpt>
      <trkpt lat="43.04808" lon="19.00931">
        <ele>1624.2800292969</ele>
        <time>2024-09-22T09:48:28.000Z</time>
      </trkpt>
      <trkpt lat="43.04802" lon="19.00938">
        <ele>1624.7700195312</ele>
        <time>2024-09-22T09:48:29.000Z</time>
      </trkpt>
      <trkpt lat="43.04792" lon="19.00951">
        <ele>1626.6899414062</ele>
        <time>2024-09-22T09:48:30.000Z</time>
      </trkpt>
      <trkpt lat="43.04789" lon="19.00954">
        <ele>1627.1700439453</ele>
        <time>2024-09-22T09:48:31.000Z</time>
      </trkpt>
      <trkpt lat="43.04782" lon="19.00962">
        <ele>1628.6099853516</ele>
        <time>2024-09-22T09:48:32.000Z</time>
      </trkpt>
      <trkpt lat="43.04772" lon="19.0097">
        <ele>1630.0500488281</ele>
        <time>2024-09-22T09:48:33.000Z</time>
      </trkpt>
      <trkpt lat="43.0477" lon="19.00972">
        <ele>1630.5300292969</ele>
        <time>2024-09-22T09:48:34.000Z</time>
      </trkpt>
      <trkpt lat="43.04764" lon="19.00977">
        <ele>1631.4899902344</ele>
        <time>2024-09-22T09:48:35.000Z</time>
      </trkpt>
      <trkpt lat="43.04758" lon="19.00983">
        <ele>1632.9399414062</ele>
        <time>2024-09-22T09:48:36.000Z</time>
      </trkpt>
      <trkpt lat="43.04754" lon="19.00985">
        <ele>1633.4200439453</ele>
        <time>2024-09-22T09:48:37.000Z</time>
      </trkpt>
      <trkpt lat="43.04745" lon="19.00984">
        <ele>1634.8599853516</ele>
        <time>2024-09-22T09:48:39.000Z</time>
      </trkpt>
      <trkpt lat="43.04744" lon="19.00983">
        <ele>1635.3399658203</ele>
        <time>2024-09-22T09:48:40.000Z</time>
      </trkpt>
      <trkpt lat="43.04742" lon="19.00979">
        <ele>1635.8199462891</ele>
        <time>2024-09-22T09:48:41.000Z</time>
      </trkpt>
      <trkpt lat="43.0474" lon="19.00973">
        <ele>1636.3000488281</ele>
        <time>2024-09-22T09:48:42.000Z</time>
      </trkpt>
      <trkpt lat="43.0474" lon="19.00965">
        <ele>1636.3000488281</ele>
        <time>2024-09-22T09:48:43.000Z</time>
      </trkpt>
      <trkpt lat="43.04738" lon="19.00958">
        <ele>1636.3000488281</ele>
        <time>2024-09-22T09:48:44.000Z</time>
      </trkpt>
      <trkpt lat="43.04735" lon="19.0095">
        <ele>1636.7800292969</ele>
        <time>2024-09-22T09:48:45.000Z</time>
      </trkpt>
      <trkpt lat="43.04729" lon="19.00939">
        <ele>1637.7399902344</ele>
        <time>2024-09-22T09:48:46.000Z</time>
      </trkpt>
      <trkpt lat="43.04728" lon="19.00936">
        <ele>1637.7399902344</ele>
        <time>2024-09-22T09:48:47.000Z</time>
      </trkpt>
      <trkpt lat="43.04724" lon="19.00928">
        <ele>1638.6999511719</ele>
        <time>2024-09-22T09:48:48.000Z</time>
      </trkpt>
      <trkpt lat="43.0472" lon="19.00919">
        <ele>1639.6700439453</ele>
        <time>2024-09-22T09:48:49.000Z</time>
      </trkpt>
      <trkpt lat="43.04712" lon="19.00891">
        <ele>1640.6300048828</ele>
        <time>2024-09-22T09:48:56.000Z</time>
      </trkpt>
      <trkpt lat="43.04713" lon="19.00891">
        <ele>1640.6300048828</ele>
        <time>2024-09-22T09:49:32.000Z</time>
      </trkpt>
      <trkpt lat="43.0471" lon="19.0088">
        <ele>1641.1099853516</ele>
        <time>2024-09-22T09:49:35.000Z</time>
      </trkpt>
      <trkpt lat="43.0471" lon="19.00879">
        <ele>1641.1099853516</ele>
        <time>2024-09-22T09:49:36.000Z</time>
      </trkpt>
      <trkpt lat="43.04708" lon="19.00873">
        <ele>1641.1099853516</ele>
        <time>2024-09-22T09:49:37.000Z</time>
      </trkpt>
      <trkpt lat="43.04706" lon="19.00867">
        <ele>1641.1099853516</ele>
        <time>2024-09-22T09:49:38.000Z</time>
      </trkpt>
      <trkpt lat="43.04704" lon="19.0086">
        <ele>1641.5899658203</ele>
        <time>2024-09-22T09:49:39.000Z</time>
      </trkpt>
      <trkpt lat="43.04703" lon="19.00855">
        <ele>1641.1099853516</ele>
        <time>2024-09-22T09:49:40.000Z</time>
      </trkpt>
      <trkpt lat="43.04701" lon="19.00849">
        <ele>1641.1099853516</ele>
        <time>2024-09-22T09:49:41.000Z</time>
      </trkpt>
      <trkpt lat="43.04699" lon="19.00844">
        <ele>1641.1099853516</ele>
        <time>2024-09-22T09:49:42.000Z</time>
      </trkpt>
      <trkpt lat="43.04695" lon="19.00834">
        <ele>1640.6300048828</ele>
        <time>2024-09-22T09:49:44.000Z</time>
      </trkpt>
      <trkpt lat="43.04683" lon="19.00812">
        <ele>1639.1899414062</ele>
        <time>2024-09-22T09:49:49.000Z</time>
      </trkpt>
      <trkpt lat="43.04657" lon="19.00798">
        <ele>1634.8599853516</ele>
        <time>2024-09-22T09:49:57.000Z</time>
      </trkpt>
      <trkpt lat="43.04652" lon="19.00807">
        <ele>1633.9000244141</ele>
        <time>2024-09-22T09:49:59.000Z</time>
      </trkpt>
      <trkpt lat="43.04652" lon="19.00809">
        <ele>1633.4200439453</ele>
        <time>2024-09-22T09:50:00.000Z</time>
      </trkpt>
      <trkpt lat="43.0465" lon="19.00816">
        <ele>1632.9399414062</ele>
        <time>2024-09-22T09:50:01.000Z</time>
      </trkpt>
      <trkpt lat="43.04647" lon="19.00821">
        <ele>1631.9799804688</ele>
        <time>2024-09-22T09:50:02.000Z</time>
      </trkpt>
      <trkpt lat="43.04643" lon="19.00825">
        <ele>1631.4899902344</ele>
        <time>2024-09-22T09:50:03.000Z</time>
      </trkpt>
      <trkpt lat="43.04638" lon="19.00828">
        <ele>1631.0100097656</ele>
        <time>2024-09-22T09:50:04.000Z</time>
      </trkpt>
      <trkpt lat="43.04632" lon="19.00832">
        <ele>1630.0500488281</ele>
        <time>2024-09-22T09:50:05.000Z</time>
      </trkpt>
      <trkpt lat="43.04629" lon="19.00834">
        <ele>1629.5699462891</ele>
        <time>2024-09-22T09:50:06.000Z</time>
      </trkpt>
      <trkpt lat="43.04624" lon="19.00837">
        <ele>1629.0899658203</ele>
        <time>2024-09-22T09:50:07.000Z</time>
      </trkpt>
      <trkpt lat="43.0462" lon="19.0084">
        <ele>1628.1300048828</ele>
        <time>2024-09-22T09:50:08.000Z</time>
      </trkpt>
      <trkpt lat="43.04609" lon="19.0085">
        <ele>1626.2099609375</ele>
        <time>2024-09-22T09:50:10.000Z</time>
      </trkpt>
      <trkpt lat="43.04606" lon="19.00855">
        <ele>1625.25</ele>
        <time>2024-09-22T09:50:11.000Z</time>
      </trkpt>
      <trkpt lat="43.04602" lon="19.0086">
        <ele>1624.2800292969</ele>
        <time>2024-09-22T09:50:12.000Z</time>
      </trkpt>
      <trkpt lat="43.04599" lon="19.00865">
        <ele>1623.8000488281</ele>
        <time>2024-09-22T09:50:13.000Z</time>
      </trkpt>
      <trkpt lat="43.04595" lon="19.00868">
        <ele>1622.8399658203</ele>
        <time>2024-09-22T09:50:14.000Z</time>
      </trkpt>
      <trkpt lat="43.0459" lon="19.00869">
        <ele>1621.4000244141</ele>
        <time>2024-09-22T09:50:15.000Z</time>
      </trkpt>
      <trkpt lat="43.04585" lon="19.00867">
        <ele>1620.4399414062</ele>
        <time>2024-09-22T09:50:16.000Z</time>
      </trkpt>
      <trkpt lat="43.0458" lon="19.00865">
        <ele>1619.9599609375</ele>
        <time>2024-09-22T09:50:17.000Z</time>
      </trkpt>
      <trkpt lat="43.04576" lon="19.00863">
        <ele>1619.4799804688</ele>
        <time>2024-09-22T09:50:18.000Z</time>
      </trkpt>
      <trkpt lat="43.04572" lon="19.0086">
        <ele>1619.9599609375</ele>
        <time>2024-09-22T09:50:19.000Z</time>
      </trkpt>
      <trkpt lat="43.04555" lon="19.00865">
        <ele>1619.4799804688</ele>
        <time>2024-09-22T09:50:26.000Z</time>
      </trkpt>
      <trkpt lat="43.04555" lon="19.00865">
        <ele>1619.4799804688</ele>
        <time>2024-09-22T09:50:35.000Z</time>
      </trkpt>
      <trkpt lat="43.04556" lon="19.00865">
        <ele>1619.4799804688</ele>
        <time>2024-09-22T09:50:40.000Z</time>
      </trkpt>
      <trkpt lat="43.04563" lon="19.0086">
        <ele>1619.4799804688</ele>
        <time>2024-09-22T09:50:45.000Z</time>
      </trkpt>
      <trkpt lat="43.04579" lon="19.00865">
        <ele>1619.4799804688</ele>
        <time>2024-09-22T09:50:51.000Z</time>
      </trkpt>
      <trkpt lat="43.04582" lon="19.00866">
        <ele>1619.4799804688</ele>
        <time>2024-09-22T09:50:52.000Z</time>
      </trkpt>
      <trkpt lat="43.04586" lon="19.00868">
        <ele>1619.9599609375</ele>
        <time>2024-09-22T09:50:53.000Z</time>
      </trkpt>
      <trkpt lat="43.04591" lon="19.00868">
        <ele>1619.9599609375</ele>
        <time>2024-09-22T09:50:54.000Z</time>
      </trkpt>
      <trkpt lat="43.04596" lon="19.00867">
        <ele>1620.4399414062</ele>
        <time>2024-09-22T09:50:55.000Z</time>
      </trkpt>
      <trkpt lat="43.046" lon="19.00863">
        <ele>1620.9200439453</ele>
        <time>2024-09-22T09:50:56.000Z</time>
      </trkpt>
      <trkpt lat="43.04604" lon="19.00858">
        <ele>1621.8800048828</ele>
        <time>2024-09-22T09:50:57.000Z</time>
      </trkpt>
      <trkpt lat="43.04608" lon="19.00853">
        <ele>1622.8399658203</ele>
        <time>2024-09-22T09:50:58.000Z</time>
      </trkpt>
      <trkpt lat="43.04613" lon="19.00848">
        <ele>1623.8000488281</ele>
        <time>2024-09-22T09:50:59.000Z</time>
      </trkpt>
      <trkpt lat="43.04617" lon="19.00845">
        <ele>1624.2800292969</ele>
        <time>2024-09-22T09:51:00.000Z</time>
      </trkpt>
      <trkpt lat="43.0462" lon="19.00842">
        <ele>1625.25</ele>
        <time>2024-09-22T09:51:01.000Z</time>
      </trkpt>
      <trkpt lat="43.04626" lon="19.00837">
        <ele>1626.2099609375</ele>
        <time>2024-09-22T09:51:02.000Z</time>
      </trkpt>
      <trkpt lat="43.04632" lon="19.00834">
        <ele>1626.6899414062</ele>
        <time>2024-09-22T09:51:03.000Z</time>
      </trkpt>
      <trkpt lat="43.04635" lon="19.00832">
        <ele>1627.1700439453</ele>
        <time>2024-09-22T09:51:04.000Z</time>
      </trkpt>
      <trkpt lat="43.04641" lon="19.00828">
        <ele>1627.6500244141</ele>
        <time>2024-09-22T09:51:05.000Z</time>
      </trkpt>
      <trkpt lat="43.04645" lon="19.00825">
        <ele>1627.6500244141</ele>
        <time>2024-09-22T09:51:06.000Z</time>
      </trkpt>
      <trkpt lat="43.04649" lon="19.00821">
        <ele>1628.6099853516</ele>
        <time>2024-09-22T09:51:07.000Z</time>
      </trkpt>
      <trkpt lat="43.04652" lon="19.00816">
        <ele>1629.5699462891</ele>
        <time>2024-09-22T09:51:08.000Z</time>
      </trkpt>
      <trkpt lat="43.04655" lon="19.00809">
        <ele>1630.5300292969</ele>
        <time>2024-09-22T09:51:09.000Z</time>
      </trkpt>
      <trkpt lat="43.04667" lon="19.008">
        <ele>1633.4200439453</ele>
        <time>2024-09-22T09:51:13.000Z</time>
      </trkpt>
      <trkpt lat="43.0467" lon="19.00802">
        <ele>1633.9000244141</ele>
        <time>2024-09-22T09:51:14.000Z</time>
      </trkpt>
      <trkpt lat="43.04676" lon="19.00808">
        <ele>1634.8599853516</ele>
        <time>2024-09-22T09:51:15.000Z</time>
      </trkpt>
      <trkpt lat="43.04679" lon="19.0081">
        <ele>1635.3399658203</ele>
        <time>2024-09-22T09:51:16.000Z</time>
      </trkpt>
      <trkpt lat="43.04682" lon="19.00813">
        <ele>1635.8199462891</ele>
        <time>2024-09-22T09:51:17.000Z</time>
      </trkpt>
      <trkpt lat="43.04685" lon="19.00815">
        <ele>1636.3000488281</ele>
        <time>2024-09-22T09:51:18.000Z</time>
      </trkpt>
      <trkpt lat="43.04689" lon="19.00819">
        <ele>1636.7800292969</ele>
        <time>2024-09-22T09:51:19.000Z</time>
      </trkpt>
      <trkpt lat="43.04691" lon="19.00824">
        <ele>1637.7399902344</ele>
        <time>2024-09-22T09:51:20.000Z</time>
      </trkpt>
      <trkpt lat="43.04697" lon="19.00836">
        <ele>1638.2199707031</ele>
        <time>2024-09-22T09:51:22.000Z</time>
      </trkpt>
      <trkpt lat="43.04699" lon="19.00842">
        <ele>1639.1899414062</ele>
        <time>2024-09-22T09:51:23.000Z</time>
      </trkpt>
      <trkpt lat="43.04701" lon="19.00847">
        <ele>1639.1899414062</ele>
        <time>2024-09-22T09:51:24.000Z</time>
      </trkpt>
      <trkpt lat="43.04703" lon="19.00859">
        <ele>1639.6700439453</ele>
        <time>2024-09-22T09:51:25.000Z</time>
      </trkpt>
      <trkpt lat="43.04704" lon="19.00862">
        <ele>1639.6700439453</ele>
        <time>2024-09-22T09:51:26.000Z</time>
      </trkpt>
      <trkpt lat="43.04706" lon="19.00868">
        <ele>1639.6700439453</ele>
        <time>2024-09-22T09:51:27.000Z</time>
      </trkpt>
      <trkpt lat="43.04707" lon="19.00874">
        <ele>1639.1899414062</ele>
        <time>2024-09-22T09:51:28.000Z</time>
      </trkpt>
      <trkpt lat="43.04709" lon="19.00879">
        <ele>1639.1899414062</ele>
        <time>2024-09-22T09:51:29.000Z</time>
      </trkpt>
      <trkpt lat="43.0471" lon="19.00886">
        <ele>1639.1899414062</ele>
        <time>2024-09-22T09:51:30.000Z</time>
      </trkpt>
      <trkpt lat="43.04711" lon="19.00894">
        <ele>1640.1500244141</ele>
        <time>2024-09-22T09:51:36.000Z</time>
      </trkpt>
      <trkpt lat="43.04712" lon="19.00896">
        <ele>1642.0699462891</ele>
        <time>2024-09-22T09:52:03.000Z</time>
      </trkpt>
      <trkpt lat="43.04714" lon="19.00901">
        <ele>1642.0699462891</ele>
        <time>2024-09-22T09:52:04.000Z</time>
      </trkpt>
      <trkpt lat="43.04715" lon="19.00904">
        <ele>1642.0699462891</ele>
        <time>2024-09-22T09:52:05.000Z</time>
      </trkpt>
      <trkpt lat="43.04718" lon="19.00913">
        <ele>1642.0699462891</ele>
        <time>2024-09-22T09:52:06.000Z</time>
      </trkpt>
      <trkpt lat="43.04722" lon="19.00924">
        <ele>1642.0699462891</ele>
        <time>2024-09-22T09:52:07.000Z</time>
      </trkpt>
      <trkpt lat="43.04726" lon="19.00932">
        <ele>1641.5899658203</ele>
        <time>2024-09-22T09:52:08.000Z</time>
      </trkpt>
      <trkpt lat="43.04729" lon="19.00941">
        <ele>1640.6300048828</ele>
        <time>2024-09-22T09:52:09.000Z</time>
      </trkpt>
      <trkpt lat="43.04734" lon="19.0095">
        <ele>1640.1500244141</ele>
        <time>2024-09-22T09:52:10.000Z</time>
      </trkpt>
      <trkpt lat="43.04737" lon="19.00956">
        <ele>1640.1500244141</ele>
        <time>2024-09-22T09:52:11.000Z</time>
      </trkpt>
      <trkpt lat="43.0474" lon="19.00963">
        <ele>1639.6700439453</ele>
        <time>2024-09-22T09:52:12.000Z</time>
      </trkpt>
      <trkpt lat="43.04742" lon="19.00968">
        <ele>1639.1899414062</ele>
        <time>2024-09-22T09:52:13.000Z</time>
      </trkpt>
      <trkpt lat="43.04757" lon="19.00984">
        <ele>1636.3000488281</ele>
        <time>2024-09-22T09:52:20.000Z</time>
      </trkpt>
      <trkpt lat="43.04761" lon="19.0098">
        <ele>1635.3399658203</ele>
        <time>2024-09-22T09:52:21.000Z</time>
      </trkpt>
      <trkpt lat="43.04767" lon="19.00974">
        <ele>1633.9000244141</ele>
        <time>2024-09-22T09:52:22.000Z</time>
      </trkpt>
      <trkpt lat="43.04771" lon="19.0097">
        <ele>1632.9399414062</ele>
        <time>2024-09-22T09:52:23.000Z</time>
      </trkpt>
      <trkpt lat="43.04775" lon="19.00966">
        <ele>1631.9799804688</ele>
        <time>2024-09-22T09:52:24.000Z</time>
      </trkpt>
      <trkpt lat="43.0479" lon="19.00952">
        <ele>1629.0899658203</ele>
        <time>2024-09-22T09:52:26.000Z</time>
      </trkpt>
      <trkpt lat="43.04792" lon="19.00949">
        <ele>1628.6099853516</ele>
        <time>2024-09-22T09:52:27.000Z</time>
      </trkpt>
      <trkpt lat="43.04798" lon="19.00943">
        <ele>1627.6500244141</ele>
        <time>2024-09-22T09:52:28.000Z</time>
      </trkpt>
      <trkpt lat="43.04803" lon="19.00937">
        <ele>1626.6899414062</ele>
        <time>2024-09-22T09:52:29.000Z</time>
      </trkpt>
      <trkpt lat="43.04809" lon="19.0093">
        <ele>1625.7299804688</ele>
        <time>2024-09-22T09:52:30.000Z</time>
      </trkpt>
      <trkpt lat="43.04812" lon="19.00926">
        <ele>1625.25</ele>
        <time>2024-09-22T09:52:31.000Z</time>
      </trkpt>
      <trkpt lat="43.04818" lon="19.00921">
        <ele>1623.8000488281</ele>
        <time>2024-09-22T09:52:32.000Z</time>
      </trkpt>
      <trkpt lat="43.04823" lon="19.00917">
        <ele>1622.8399658203</ele>
        <time>2024-09-22T09:52:33.000Z</time>
      </trkpt>
      <trkpt lat="43.04829" lon="19.00912">
        <ele>1621.8800048828</ele>
        <time>2024-09-22T09:52:34.000Z</time>
      </trkpt>
      <trkpt lat="43.04836" lon="19.00905">
        <ele>1621.4000244141</ele>
        <time>2024-09-22T09:52:35.000Z</time>
      </trkpt>
      <trkpt lat="43.04842" lon="19.00899">
        <ele>1620.4399414062</ele>
        <time>2024-09-22T09:52:36.000Z</time>
      </trkpt>
      <trkpt lat="43.04851" lon="19.00889">
        <ele>1618.5200195312</ele>
        <time>2024-09-22T09:52:37.000Z</time>
      </trkpt>
      <trkpt lat="43.04859" lon="19.00882">
        <ele>1617.0699462891</ele>
        <time>2024-09-22T09:52:38.000Z</time>
      </trkpt>
      <trkpt lat="43.04861" lon="19.0088">
        <ele>1617.0699462891</ele>
        <time>2024-09-22T09:52:39.000Z</time>
      </trkpt>
      <trkpt lat="43.04866" lon="19.00875">
        <ele>1616.1099853516</ele>
        <time>2024-09-22T09:52:40.000Z</time>
      </trkpt>
      <trkpt lat="43.04873" lon="19.00868">
        <ele>1614.1899414062</ele>
        <time>2024-09-22T09:52:41.000Z</time>
      </trkpt>
      <trkpt lat="43.04879" lon="19.00863">
        <ele>1613.2299804688</ele>
        <time>2024-09-22T09:52:42.000Z</time>
      </trkpt>
      <trkpt lat="43.04885" lon="19.00856">
        <ele>1612.2700195312</ele>
        <time>2024-09-22T09:52:43.000Z</time>
      </trkpt>
      <trkpt lat="43.04893" lon="19.00848">
        <ele>1610.8299560547</ele>
        <time>2024-09-22T09:52:44.000Z</time>
      </trkpt>
      <trkpt lat="43.04896" lon="19.00845">
        <ele>1610.3499755859</ele>
        <time>2024-09-22T09:52:45.000Z</time>
      </trkpt>
      <trkpt lat="43.04908" lon="19.00835">
        <ele>1608.4200439453</ele>
        <time>2024-09-22T09:52:46.000Z</time>
      </trkpt>
      <trkpt lat="43.0491" lon="19.00833">
        <ele>1608.4200439453</ele>
        <time>2024-09-22T09:52:47.000Z</time>
      </trkpt>
      <trkpt lat="43.04914" lon="19.00829">
        <ele>1607.4599609375</ele>
        <time>2024-09-22T09:52:48.000Z</time>
      </trkpt>
      <trkpt lat="43.04918" lon="19.00822">
        <ele>1606.5</ele>
        <time>2024-09-22T09:52:49.000Z</time>
      </trkpt>
      <trkpt lat="43.04923" lon="19.00811">
        <ele>1605.5400390625</ele>
        <time>2024-09-22T09:52:50.000Z</time>
      </trkpt>
      <trkpt lat="43.04925" lon="19.00803">
        <ele>1605.0600585938</ele>
        <time>2024-09-22T09:52:51.000Z</time>
      </trkpt>
      <trkpt lat="43.04926" lon="19.00795">
        <ele>1604.5799560547</ele>
        <time>2024-09-22T09:52:52.000Z</time>
      </trkpt>
      <trkpt lat="43.04926" lon="19.00786">
        <ele>1604.5799560547</ele>
        <time>2024-09-22T09:52:53.000Z</time>
      </trkpt>
      <trkpt lat="43.04926" lon="19.00775">
        <ele>1604.5799560547</ele>
        <time>2024-09-22T09:52:54.000Z</time>
      </trkpt>
      <trkpt lat="43.04926" lon="19.00768">
        <ele>1604.5799560547</ele>
        <time>2024-09-22T09:52:55.000Z</time>
      </trkpt>
      <trkpt lat="43.04929" lon="19.00762">
        <ele>1604.5799560547</ele>
        <time>2024-09-22T09:52:56.000Z</time>
      </trkpt>
      <trkpt lat="43.04933" lon="19.00756">
        <ele>1604.0999755859</ele>
        <time>2024-09-22T09:52:57.000Z</time>
      </trkpt>
      <trkpt lat="43.04948" lon="19.00741">
        <ele>1603.1400146484</ele>
        <time>2024-09-22T09:52:59.000Z</time>
      </trkpt>
      <trkpt lat="43.04956" lon="19.00732">
        <ele>1602.6600341797</ele>
        <time>2024-09-22T09:53:00.000Z</time>
      </trkpt>
      <trkpt lat="43.04975" lon="19.00709">
        <ele>1602.6600341797</ele>
        <time>2024-09-22T09:53:03.000Z</time>
      </trkpt>
      <trkpt lat="43.04978" lon="19.00706">
        <ele>1602.6600341797</ele>
        <time>2024-09-22T09:53:04.000Z</time>
      </trkpt>
      <trkpt lat="43.04983" lon="19.00701">
        <ele>1602.6600341797</ele>
        <time>2024-09-22T09:53:05.000Z</time>
      </trkpt>
      <trkpt lat="43.04991" lon="19.00696">
        <ele>1602.6600341797</ele>
        <time>2024-09-22T09:53:06.000Z</time>
      </trkpt>
      <trkpt lat="43.05002" lon="19.0069">
        <ele>1602.1700439453</ele>
        <time>2024-09-22T09:53:07.000Z</time>
      </trkpt>
      <trkpt lat="43.05016" lon="19.00684">
        <ele>1601.6899414062</ele>
        <time>2024-09-22T09:53:09.000Z</time>
      </trkpt>
      <trkpt lat="43.05024" lon="19.00679">
        <ele>1601.6899414062</ele>
        <time>2024-09-22T09:53:10.000Z</time>
      </trkpt>
      <trkpt lat="43.0503" lon="19.00673">
        <ele>1601.6899414062</ele>
        <time>2024-09-22T09:53:11.000Z</time>
      </trkpt>
      <trkpt lat="43.05042" lon="19.00654">
        <ele>1602.1700439453</ele>
        <time>2024-09-22T09:53:13.000Z</time>
      </trkpt>
      <trkpt lat="43.05045" lon="19.0065">
        <ele>1602.6600341797</ele>
        <time>2024-09-22T09:53:14.000Z</time>
      </trkpt>
      <trkpt lat="43.05049" lon="19.00644">
        <ele>1603.1400146484</ele>
        <time>2024-09-22T09:53:15.000Z</time>
      </trkpt>
      <trkpt lat="43.05053" lon="19.00639">
        <ele>1603.1400146484</ele>
        <time>2024-09-22T09:53:16.000Z</time>
      </trkpt>
      <trkpt lat="43.05059" lon="19.00634">
        <ele>1603.1400146484</ele>
        <time>2024-09-22T09:53:17.000Z</time>
      </trkpt>
      <trkpt lat="43.05063" lon="19.00631">
        <ele>1603.1400146484</ele>
        <time>2024-09-22T09:53:18.000Z</time>
      </trkpt>
      <trkpt lat="43.05074" lon="19.00624">
        <ele>1602.6600341797</ele>
        <time>2024-09-22T09:53:19.000Z</time>
      </trkpt>
      <trkpt lat="43.05075" lon="19.00623">
        <ele>1602.6600341797</ele>
        <time>2024-09-22T09:53:20.000Z</time>
      </trkpt>
      <trkpt lat="43.0508" lon="19.00621">
        <ele>1602.6600341797</ele>
        <time>2024-09-22T09:53:21.000Z</time>
      </trkpt>
      <trkpt lat="43.05086" lon="19.00619">
        <ele>1602.1700439453</ele>
        <time>2024-09-22T09:53:22.000Z</time>
      </trkpt>
      <trkpt lat="43.05093" lon="19.00618">
        <ele>1602.1700439453</ele>
        <time>2024-09-22T09:53:23.000Z</time>
      </trkpt>
      <trkpt lat="43.051" lon="19.00617">
        <ele>1601.6899414062</ele>
        <time>2024-09-22T09:53:24.000Z</time>
      </trkpt>
      <trkpt lat="43.05105" lon="19.00616">
        <ele>1601.2099609375</ele>
        <time>2024-09-22T09:53:25.000Z</time>
      </trkpt>
      <trkpt lat="43.05113" lon="19.00612">
        <ele>1599.7700195312</ele>
        <time>2024-09-22T09:53:26.000Z</time>
      </trkpt>
      <trkpt lat="43.05116" lon="19.00611">
        <ele>1599.2900390625</ele>
        <time>2024-09-22T09:53:27.000Z</time>
      </trkpt>
      <trkpt lat="43.05119" lon="19.00611">
        <ele>1598.8100585938</ele>
        <time>2024-09-22T09:53:28.000Z</time>
      </trkpt>
      <trkpt lat="43.05124" lon="19.0061">
        <ele>1598.3299560547</ele>
        <time>2024-09-22T09:53:29.000Z</time>
      </trkpt>
      <trkpt lat="43.05133" lon="19.00603">
        <ele>1598.8100585938</ele>
        <time>2024-09-22T09:53:35.000Z</time>
      </trkpt>
      <trkpt lat="43.05119" lon="19.00609">
        <ele>1599.2900390625</ele>
        <time>2024-09-22T09:53:43.000Z</time>
      </trkpt>
      <trkpt lat="43.05095" lon="19.00618">
        <ele>1602.1700439453</ele>
        <time>2024-09-22T09:53:52.000Z</time>
      </trkpt>
      <trkpt lat="43.0509" lon="19.00619">
        <ele>1603.1400146484</ele>
        <time>2024-09-22T09:54:10.000Z</time>
      </trkpt>
      <trkpt lat="43.05086" lon="19.0062">
        <ele>1603.1400146484</ele>
        <time>2024-09-22T09:54:11.000Z</time>
      </trkpt>
      <trkpt lat="43.05077" lon="19.00625">
        <ele>1603.6199951172</ele>
        <time>2024-09-22T09:54:16.000Z</time>
      </trkpt>
      <trkpt lat="43.05079" lon="19.00627">
        <ele>1603.6199951172</ele>
        <time>2024-09-22T09:54:19.000Z</time>
      </trkpt>
      <trkpt lat="43.05096" lon="19.00621">
        <ele>1603.1400146484</ele>
        <time>2024-09-22T09:54:26.000Z</time>
      </trkpt>
      <trkpt lat="43.05102" lon="19.00618">
        <ele>1602.1700439453</ele>
        <time>2024-09-22T09:54:27.000Z</time>
      </trkpt>
      <trkpt lat="43.05105" lon="19.00617">
        <ele>1601.6899414062</ele>
        <time>2024-09-22T09:54:28.000Z</time>
      </trkpt>
      <trkpt lat="43.0511" lon="19.00615">
        <ele>1600.7299804688</ele>
        <time>2024-09-22T09:54:29.000Z</time>
      </trkpt>
      <trkpt lat="43.05119" lon="19.00613">
        <ele>1599.7700195312</ele>
        <time>2024-09-22T09:54:30.000Z</time>
      </trkpt>
      <trkpt lat="43.05123" lon="19.00612">
        <ele>1599.2900390625</ele>
        <time>2024-09-22T09:54:31.000Z</time>
      </trkpt>
      <trkpt lat="43.05132" lon="19.00611">
        <ele>1598.8100585938</ele>
        <time>2024-09-22T09:54:32.000Z</time>
      </trkpt>
      <trkpt lat="43.05139" lon="19.00612">
        <ele>1598.8100585938</ele>
        <time>2024-09-22T09:54:33.000Z</time>
      </trkpt>
      <trkpt lat="43.05146" lon="19.00614">
        <ele>1599.2900390625</ele>
        <time>2024-09-22T09:54:34.000Z</time>
      </trkpt>
      <trkpt lat="43.05156" lon="19.00618">
        <ele>1599.7700195312</ele>
        <time>2024-09-22T09:54:35.000Z</time>
      </trkpt>
      <trkpt lat="43.0516" lon="19.0062">
        <ele>1599.7700195312</ele>
        <time>2024-09-22T09:54:36.000Z</time>
      </trkpt>
      <trkpt lat="43.05165" lon="19.00622">
        <ele>1600.25</ele>
        <time>2024-09-22T09:54:37.000Z</time>
      </trkpt>
      <trkpt lat="43.05169" lon="19.00625">
        <ele>1600.25</ele>
        <time>2024-09-22T09:54:38.000Z</time>
      </trkpt>
      <trkpt lat="43.05177" lon="19.00629">
        <ele>1600.7299804688</ele>
        <time>2024-09-22T09:54:45.000Z</time>
      </trkpt>
      <trkpt lat="43.05185" lon="19.00629">
        <ele>1600.25</ele>
        <time>2024-09-22T09:54:55.000Z</time>
      </trkpt>
      <trkpt lat="43.05188" lon="19.00629">
        <ele>1599.7700195312</ele>
        <time>2024-09-22T09:54:56.000Z</time>
      </trkpt>
      <trkpt lat="43.05192" lon="19.00629">
        <ele>1599.2900390625</ele>
        <time>2024-09-22T09:54:57.000Z</time>
      </trkpt>
      <trkpt lat="43.05197" lon="19.0063">
        <ele>1598.8100585938</ele>
        <time>2024-09-22T09:54:58.000Z</time>
      </trkpt>
      <trkpt lat="43.05202" lon="19.00633">
        <ele>1597.8499755859</ele>
        <time>2024-09-22T09:54:59.000Z</time>
      </trkpt>
      <trkpt lat="43.05212" lon="19.00641">
        <ele>1596.4100341797</ele>
        <time>2024-09-22T09:55:00.000Z</time>
      </trkpt>
      <trkpt lat="43.05213" lon="19.00641">
        <ele>1596.4100341797</ele>
        <time>2024-09-22T09:55:01.000Z</time>
      </trkpt>
      <trkpt lat="43.0522" lon="19.00645">
        <ele>1595.4499511719</ele>
        <time>2024-09-22T09:55:02.000Z</time>
      </trkpt>
      <trkpt lat="43.05228" lon="19.00648">
        <ele>1594.9599609375</ele>
        <time>2024-09-22T09:55:03.000Z</time>
      </trkpt>
      <trkpt lat="43.05234" lon="19.00648">
        <ele>1594.4799804688</ele>
        <time>2024-09-22T09:55:04.000Z</time>
      </trkpt>
      <trkpt lat="43.05241" lon="19.00647">
        <ele>1594</ele>
        <time>2024-09-22T09:55:05.000Z</time>
      </trkpt>
      <trkpt lat="43.05246" lon="19.00645">
        <ele>1593.5200195312</ele>
        <time>2024-09-22T09:55:06.000Z</time>
      </trkpt>
      <trkpt lat="43.05253" lon="19.00643">
        <ele>1593.0400390625</ele>
        <time>2024-09-22T09:55:07.000Z</time>
      </trkpt>
      <trkpt lat="43.05257" lon="19.00641">
        <ele>1592.5600585938</ele>
        <time>2024-09-22T09:55:08.000Z</time>
      </trkpt>
      <trkpt lat="43.05272" lon="19.00624">
        <ele>1591.5999755859</ele>
        <time>2024-09-22T09:55:15.000Z</time>
      </trkpt>
      <trkpt lat="43.05263" lon="19.0063">
        <ele>1591.5999755859</ele>
        <time>2024-09-22T09:55:21.000Z</time>
      </trkpt>
      <trkpt lat="43.05254" lon="19.00639">
        <ele>1592.0799560547</ele>
        <time>2024-09-22T09:55:28.000Z</time>
      </trkpt>
      <trkpt lat="43.05243" lon="19.00646">
        <ele>1589.1999511719</ele>
        <time>2024-09-22T09:56:01.000Z</time>
      </trkpt>
      <trkpt lat="43.05241" lon="19.00646">
        <ele>1589.1999511719</ele>
        <time>2024-09-22T09:56:02.000Z</time>
      </trkpt>
      <trkpt lat="43.05235" lon="19.00648">
        <ele>1589.6800537109</ele>
        <time>2024-09-22T09:56:03.000Z</time>
      </trkpt>
      <trkpt lat="43.0523" lon="19.00648">
        <ele>1590.1600341797</ele>
        <time>2024-09-22T09:56:04.000Z</time>
      </trkpt>
      <trkpt lat="43.05223" lon="19.00648">
        <ele>1590.6400146484</ele>
        <time>2024-09-22T09:56:05.000Z</time>
      </trkpt>
      <trkpt lat="43.0522" lon="19.00647">
        <ele>1590.6400146484</ele>
        <time>2024-09-22T09:56:06.000Z</time>
      </trkpt>
      <trkpt lat="43.05213" lon="19.00644">
        <ele>1591.5999755859</ele>
        <time>2024-09-22T09:56:07.000Z</time>
      </trkpt>
      <trkpt lat="43.05205" lon="19.00639">
        <ele>1592.5600585938</ele>
        <time>2024-09-22T09:56:08.000Z</time>
      </trkpt>
      <trkpt lat="43.05199" lon="19.00634">
        <ele>1594</ele>
        <time>2024-09-22T09:56:09.000Z</time>
      </trkpt>
      <trkpt lat="43.05197" lon="19.00633">
        <ele>1594</ele>
        <time>2024-09-22T09:56:10.000Z</time>
      </trkpt>
      <trkpt lat="43.05192" lon="19.0063">
        <ele>1595.4499511719</ele>
        <time>2024-09-22T09:56:11.000Z</time>
      </trkpt>
      <trkpt lat="43.05185" lon="19.0063">
        <ele>1596.8900146484</ele>
        <time>2024-09-22T09:56:12.000Z</time>
      </trkpt>
      <trkpt lat="43.05181" lon="19.0063">
        <ele>1597.8499755859</ele>
        <time>2024-09-22T09:56:13.000Z</time>
      </trkpt>
      <trkpt lat="43.05175" lon="19.00629">
        <ele>1599.2900390625</ele>
        <time>2024-09-22T09:56:14.000Z</time>
      </trkpt>
      <trkpt lat="43.05165" lon="19.00625">
        <ele>1599.7700195312</ele>
        <time>2024-09-22T09:56:15.000Z</time>
      </trkpt>
      <trkpt lat="43.05162" lon="19.00624">
        <ele>1599.7700195312</ele>
        <time>2024-09-22T09:56:16.000Z</time>
      </trkpt>
      <trkpt lat="43.05156" lon="19.00621">
        <ele>1599.7700195312</ele>
        <time>2024-09-22T09:56:17.000Z</time>
      </trkpt>
      <trkpt lat="43.05148" lon="19.00616">
        <ele>1599.2900390625</ele>
        <time>2024-09-22T09:56:18.000Z</time>
      </trkpt>
      <trkpt lat="43.05143" lon="19.00613">
        <ele>1598.8100585938</ele>
        <time>2024-09-22T09:56:19.000Z</time>
      </trkpt>
      <trkpt lat="43.05136" lon="19.00611">
        <ele>1598.8100585938</ele>
        <time>2024-09-22T09:56:20.000Z</time>
      </trkpt>
      <trkpt lat="43.0513" lon="19.00611">
        <ele>1598.8100585938</ele>
        <time>2024-09-22T09:56:21.000Z</time>
      </trkpt>
      <trkpt lat="43.05122" lon="19.00612">
        <ele>1599.2900390625</ele>
        <time>2024-09-22T09:56:22.000Z</time>
      </trkpt>
      <trkpt lat="43.05116" lon="19.00613">
        <ele>1599.2900390625</ele>
        <time>2024-09-22T09:56:23.000Z</time>
      </trkpt>
      <trkpt lat="43.05108" lon="19.00616">
        <ele>1600.25</ele>
        <time>2024-09-22T09:56:24.000Z</time>
      </trkpt>
      <trkpt lat="43.05099" lon="19.00619">
        <ele>1601.6899414062</ele>
        <time>2024-09-22T09:56:25.000Z</time>
      </trkpt>
      <trkpt lat="43.05085" lon="19.00623">
        <ele>1602.6600341797</ele>
        <time>2024-09-22T09:56:27.000Z</time>
      </trkpt>
      <trkpt lat="43.0508" lon="19.00625">
        <ele>1603.1400146484</ele>
        <time>2024-09-22T09:56:28.000Z</time>
      </trkpt>
      <trkpt lat="43.05075" lon="19.00627">
        <ele>1603.1400146484</ele>
        <time>2024-09-22T09:56:29.000Z</time>
      </trkpt>
      <trkpt lat="43.05069" lon="19.0063">
        <ele>1603.6199951172</ele>
        <time>2024-09-22T09:56:30.000Z</time>
      </trkpt>
      <trkpt lat="43.05062" lon="19.00634">
        <ele>1603.6199951172</ele>
        <time>2024-09-22T09:56:31.000Z</time>
      </trkpt>
      <trkpt lat="43.05057" lon="19.00639">
        <ele>1603.6199951172</ele>
        <time>2024-09-22T09:56:32.000Z</time>
      </trkpt>
      <trkpt lat="43.05052" lon="19.00643">
        <ele>1604.0999755859</ele>
        <time>2024-09-22T09:56:33.000Z</time>
      </trkpt>
      <trkpt lat="43.05047" lon="19.00649">
        <ele>1604.0999755859</ele>
        <time>2024-09-22T09:56:34.000Z</time>
      </trkpt>
      <trkpt lat="43.05042" lon="19.00657">
        <ele>1603.6199951172</ele>
        <time>2024-09-22T09:56:35.000Z</time>
      </trkpt>
      <trkpt lat="43.05034" lon="19.00668">
        <ele>1603.6199951172</ele>
        <time>2024-09-22T09:56:36.000Z</time>
      </trkpt>
      <trkpt lat="43.05029" lon="19.00675">
        <ele>1603.1400146484</ele>
        <time>2024-09-22T09:56:37.000Z</time>
      </trkpt>
      <trkpt lat="43.05025" lon="19.0068">
        <ele>1603.1400146484</ele>
        <time>2024-09-22T09:56:38.000Z</time>
      </trkpt>
      <trkpt lat="43.05018" lon="19.00685">
        <ele>1603.1400146484</ele>
        <time>2024-09-22T09:56:39.000Z</time>
      </trkpt>
      <trkpt lat="43.05011" lon="19.00688">
        <ele>1603.1400146484</ele>
        <time>2024-09-22T09:56:40.000Z</time>
      </trkpt>
      <trkpt lat="43.05003" lon="19.00691">
        <ele>1603.6199951172</ele>
        <time>2024-09-22T09:56:41.000Z</time>
      </trkpt>
      <trkpt lat="43.04995" lon="19.00695">
        <ele>1604.0999755859</ele>
        <time>2024-09-22T09:56:42.000Z</time>
      </trkpt>
      <trkpt lat="43.04985" lon="19.00702">
        <ele>1604.5799560547</ele>
        <time>2024-09-22T09:56:43.000Z</time>
      </trkpt>
      <trkpt lat="43.04982" lon="19.00704">
        <ele>1604.5799560547</ele>
        <time>2024-09-22T09:56:44.000Z</time>
      </trkpt>
      <trkpt lat="43.04975" lon="19.0071">
        <ele>1604.5799560547</ele>
        <time>2024-09-22T09:56:45.000Z</time>
      </trkpt>
      <trkpt lat="43.04969" lon="19.00717">
        <ele>1604.5799560547</ele>
        <time>2024-09-22T09:56:46.000Z</time>
      </trkpt>
      <trkpt lat="43.04959" lon="19.00729">
        <ele>1604.0999755859</ele>
        <time>2024-09-22T09:56:47.000Z</time>
      </trkpt>
      <trkpt lat="43.04951" lon="19.00739">
        <ele>1604.0999755859</ele>
        <time>2024-09-22T09:56:49.000Z</time>
      </trkpt>
      <trkpt lat="43.04944" lon="19.00747">
        <ele>1604.5799560547</ele>
        <time>2024-09-22T09:56:50.000Z</time>
      </trkpt>
      <trkpt lat="43.04932" lon="19.00758">
        <ele>1605.0600585938</ele>
        <time>2024-09-22T09:56:52.000Z</time>
      </trkpt>
      <trkpt lat="43.0493" lon="19.00761">
        <ele>1605.0600585938</ele>
        <time>2024-09-22T09:56:53.000Z</time>
      </trkpt>
      <trkpt lat="43.04927" lon="19.00767">
        <ele>1605.0600585938</ele>
        <time>2024-09-22T09:56:54.000Z</time>
      </trkpt>
      <trkpt lat="43.04925" lon="19.00775">
        <ele>1605.0600585938</ele>
        <time>2024-09-22T09:56:55.000Z</time>
      </trkpt>
      <trkpt lat="43.04925" lon="19.00785">
        <ele>1605.0600585938</ele>
        <time>2024-09-22T09:56:56.000Z</time>
      </trkpt>
      <trkpt lat="43.04926" lon="19.00796">
        <ele>1605.0600585938</ele>
        <time>2024-09-22T09:56:57.000Z</time>
      </trkpt>
      <trkpt lat="43.04926" lon="19.00804">
        <ele>1605.0600585938</ele>
        <time>2024-09-22T09:56:58.000Z</time>
      </trkpt>
      <trkpt lat="43.04925" lon="19.00811">
        <ele>1605.0600585938</ele>
        <time>2024-09-22T09:56:59.000Z</time>
      </trkpt>
      <trkpt lat="43.04923" lon="19.00817">
        <ele>1605.5400390625</ele>
        <time>2024-09-22T09:57:00.000Z</time>
      </trkpt>
      <trkpt lat="43.04918" lon="19.00827">
        <ele>1605.5400390625</ele>
        <time>2024-09-22T09:57:07.000Z</time>
      </trkpt>
      <trkpt lat="43.04914" lon="19.00835">
        <ele>1602.6600341797</ele>
        <time>2024-09-22T09:58:01.000Z</time>
      </trkpt>
      <trkpt lat="43.04913" lon="19.00837">
        <ele>1603.1400146484</ele>
        <time>2024-09-22T09:58:02.000Z</time>
      </trkpt>
      <trkpt lat="43.04908" lon="19.00842">
        <ele>1603.1400146484</ele>
        <time>2024-09-22T09:58:03.000Z</time>
      </trkpt>
      <trkpt lat="43.04902" lon="19.00848">
        <ele>1603.6199951172</ele>
        <time>2024-09-22T09:58:04.000Z</time>
      </trkpt>
      <trkpt lat="43.04897" lon="19.00853">
        <ele>1604.0999755859</ele>
        <time>2024-09-22T09:58:05.000Z</time>
      </trkpt>
      <trkpt lat="43.04892" lon="19.00857">
        <ele>1604.5799560547</ele>
        <time>2024-09-22T09:58:06.000Z</time>
      </trkpt>
      <trkpt lat="43.04884" lon="19.00865">
        <ele>1605.5400390625</ele>
        <time>2024-09-22T09:58:07.000Z</time>
      </trkpt>
      <trkpt lat="43.04879" lon="19.0087">
        <ele>1606.5</ele>
        <time>2024-09-22T09:58:08.000Z</time>
      </trkpt>
      <trkpt lat="43.04872" lon="19.00875">
        <ele>1607.4599609375</ele>
        <time>2024-09-22T09:58:09.000Z</time>
      </trkpt>
      <trkpt lat="43.04865" lon="19.00881">
        <ele>1609.3800048828</ele>
        <time>2024-09-22T09:58:10.000Z</time>
      </trkpt>
      <trkpt lat="43.04855" lon="19.00891">
        <ele>1610.8299560547</ele>
        <time>2024-09-22T09:58:11.000Z</time>
      </trkpt>
      <trkpt lat="43.04851" lon="19.00895">
        <ele>1611.7900390625</ele>
        <time>2024-09-22T09:58:12.000Z</time>
      </trkpt>
      <trkpt lat="43.04846" lon="19.009">
        <ele>1612.75</ele>
        <time>2024-09-22T09:58:13.000Z</time>
      </trkpt>
      <trkpt lat="43.04839" lon="19.00906">
        <ele>1614.1899414062</ele>
        <time>2024-09-22T09:58:14.000Z</time>
      </trkpt>
      <trkpt lat="43.04837" lon="19.00909">
        <ele>1614.6700439453</ele>
        <time>2024-09-22T09:58:15.000Z</time>
      </trkpt>
      <trkpt lat="43.04833" lon="19.00914">
        <ele>1615.1500244141</ele>
        <time>2024-09-22T09:58:16.000Z</time>
      </trkpt>
      <trkpt lat="43.04829" lon="19.00918">
        <ele>1616.1099853516</ele>
        <time>2024-09-22T09:58:17.000Z</time>
      </trkpt>
      <trkpt lat="43.04824" lon="19.00921">
        <ele>1616.5899658203</ele>
        <time>2024-09-22T09:58:18.000Z</time>
      </trkpt>
      <trkpt lat="43.04819" lon="19.00924">
        <ele>1617.5600585938</ele>
        <time>2024-09-22T09:58:19.000Z</time>
      </trkpt>
      <trkpt lat="43.04814" lon="19.00927">
        <ele>1618.5200195312</ele>
        <time>2024-09-22T09:58:20.000Z</time>
      </trkpt>
      <trkpt lat="43.04811" lon="19.00931">
        <ele>1619.4799804688</ele>
        <time>2024-09-22T09:58:21.000Z</time>
      </trkpt>
      <trkpt lat="43.04805" lon="19.00937">
        <ele>1619.9599609375</ele>
        <time>2024-09-22T09:58:22.000Z</time>
      </trkpt>
      <trkpt lat="43.04801" lon="19.00943">
        <ele>1620.9200439453</ele>
        <time>2024-09-22T09:58:23.000Z</time>
      </trkpt>
      <trkpt lat="43.04792" lon="19.00953">
        <ele>1622.8399658203</ele>
        <time>2024-09-22T09:58:24.000Z</time>
      </trkpt>
      <trkpt lat="43.04789" lon="19.00956">
        <ele>1623.3199462891</ele>
        <time>2024-09-22T09:58:25.000Z</time>
      </trkpt>
      <trkpt lat="43.0478" lon="19.00964">
        <ele>1625.25</ele>
        <time>2024-09-22T09:58:27.000Z</time>
      </trkpt>
      <trkpt lat="43.04774" lon="19.00969">
        <ele>1626.2099609375</ele>
        <time>2024-09-22T09:58:28.000Z</time>
      </trkpt>
      <trkpt lat="43.04764" lon="19.00978">
        <ele>1628.6099853516</ele>
        <time>2024-09-22T09:58:30.000Z</time>
      </trkpt>
      <trkpt lat="43.0476" lon="19.00981">
        <ele>1629.0899658203</ele>
        <time>2024-09-22T09:58:31.000Z</time>
      </trkpt>
      <trkpt lat="43.04755" lon="19.00986">
        <ele>1630.0500488281</ele>
        <time>2024-09-22T09:58:32.000Z</time>
      </trkpt>
      <trkpt lat="43.04747" lon="19.00987">
        <ele>1631.4899902344</ele>
        <time>2024-09-22T09:58:34.000Z</time>
      </trkpt>
      <trkpt lat="43.04744" lon="19.00984">
        <ele>1632.4599609375</ele>
        <time>2024-09-22T09:58:35.000Z</time>
      </trkpt>
      <trkpt lat="43.04741" lon="19.00979">
        <ele>1632.9399414062</ele>
        <time>2024-09-22T09:58:36.000Z</time>
      </trkpt>
      <trkpt lat="43.04739" lon="19.00969">
        <ele>1633.9000244141</ele>
        <time>2024-09-22T09:58:37.000Z</time>
      </trkpt>
      <trkpt lat="43.04738" lon="19.00963">
        <ele>1634.3800048828</ele>
        <time>2024-09-22T09:58:38.000Z</time>
      </trkpt>
      <trkpt lat="43.04736" lon="19.00956">
        <ele>1634.3800048828</ele>
        <time>2024-09-22T09:58:39.000Z</time>
      </trkpt>
      <trkpt lat="43.04732" lon="19.00948">
        <ele>1635.3399658203</ele>
        <time>2024-09-22T09:58:40.000Z</time>
      </trkpt>
      <trkpt lat="43.04729" lon="19.00941">
        <ele>1635.8199462891</ele>
        <time>2024-09-22T09:58:41.000Z</time>
      </trkpt>
      <trkpt lat="43.04725" lon="19.00933">
        <ele>1636.7800292969</ele>
        <time>2024-09-22T09:58:42.000Z</time>
      </trkpt>
      <trkpt lat="43.04722" lon="19.00926">
        <ele>1637.7399902344</ele>
        <time>2024-09-22T09:58:43.000Z</time>
      </trkpt>
      <trkpt lat="43.04719" lon="19.00917">
        <ele>1638.2199707031</ele>
        <time>2024-09-22T09:58:44.000Z</time>
      </trkpt>
      <trkpt lat="43.04716" lon="19.0091">
        <ele>1638.6999511719</ele>
        <time>2024-09-22T09:58:45.000Z</time>
      </trkpt>
      <trkpt lat="43.04713" lon="19.00903">
        <ele>1638.6999511719</ele>
        <time>2024-09-22T09:58:46.000Z</time>
      </trkpt>
      <trkpt lat="43.04711" lon="19.00893">
        <ele>1638.6999511719</ele>
        <time>2024-09-22T09:58:47.000Z</time>
      </trkpt>
      <trkpt lat="43.04709" lon="19.00882">
        <ele>1638.2199707031</ele>
        <time>2024-09-22T09:58:48.000Z</time>
      </trkpt>
      <trkpt lat="43.04708" lon="19.00875">
        <ele>1638.2199707031</ele>
        <time>2024-09-22T09:58:49.000Z</time>
      </trkpt>
      <trkpt lat="43.04705" lon="19.00866">
        <ele>1639.1899414062</ele>
        <time>2024-09-22T09:58:50.000Z</time>
      </trkpt>
      <trkpt lat="43.04702" lon="19.00855">
        <ele>1638.6999511719</ele>
        <time>2024-09-22T09:58:51.000Z</time>
      </trkpt>
      <trkpt lat="43.047" lon="19.00851">
        <ele>1639.1899414062</ele>
        <time>2024-09-22T09:58:52.000Z</time>
      </trkpt>
      <trkpt lat="43.04697" lon="19.00842">
        <ele>1638.6999511719</ele>
        <time>2024-09-22T09:58:53.000Z</time>
      </trkpt>
      <trkpt lat="43.04693" lon="19.00832">
        <ele>1637.7399902344</ele>
        <time>2024-09-22T09:58:54.000Z</time>
      </trkpt>
      <trkpt lat="43.04692" lon="19.00831">
        <ele>1637.7399902344</ele>
        <time>2024-09-22T09:58:55.000Z</time>
      </trkpt>
      <trkpt lat="43.04687" lon="19.00821">
        <ele>1637.2600097656</ele>
        <time>2024-09-22T09:58:56.000Z</time>
      </trkpt>
      <trkpt lat="43.04686" lon="19.00819">
        <ele>1636.7800292969</ele>
        <time>2024-09-22T09:58:57.000Z</time>
      </trkpt>
      <trkpt lat="43.04683" lon="19.00815">
        <ele>1636.3000488281</ele>
        <time>2024-09-22T09:58:58.000Z</time>
      </trkpt>
      <trkpt lat="43.04679" lon="19.00811">
        <ele>1635.8199462891</ele>
        <time>2024-09-22T09:58:59.000Z</time>
      </trkpt>
      <trkpt lat="43.04669" lon="19.00803">
        <ele>1634.3800048828</ele>
        <time>2024-09-22T09:59:01.000Z</time>
      </trkpt>
      <trkpt lat="43.04666" lon="19.008">
        <ele>1633.4200439453</ele>
        <time>2024-09-22T09:59:02.000Z</time>
      </trkpt>
      <trkpt lat="43.04655" lon="19.00805">
        <ele>1631.9799804688</ele>
        <time>2024-09-22T09:59:06.000Z</time>
      </trkpt>
      <trkpt lat="43.04652" lon="19.00812">
        <ele>1631.0100097656</ele>
        <time>2024-09-22T09:59:07.000Z</time>
      </trkpt>
      <trkpt lat="43.0465" lon="19.00817">
        <ele>1630.5300292969</ele>
        <time>2024-09-22T09:59:08.000Z</time>
      </trkpt>
      <trkpt lat="43.04646" lon="19.00823">
        <ele>1630.0500488281</ele>
        <time>2024-09-22T09:59:09.000Z</time>
      </trkpt>
      <trkpt lat="43.04641" lon="19.00827">
        <ele>1629.5699462891</ele>
        <time>2024-09-22T09:59:10.000Z</time>
      </trkpt>
      <trkpt lat="43.04635" lon="19.00832">
        <ele>1629.0899658203</ele>
        <time>2024-09-22T09:59:11.000Z</time>
      </trkpt>
      <trkpt lat="43.04627" lon="19.00836">
        <ele>1628.1300048828</ele>
        <time>2024-09-22T09:59:12.000Z</time>
      </trkpt>
      <trkpt lat="43.04625" lon="19.00838">
        <ele>1627.6500244141</ele>
        <time>2024-09-22T09:59:13.000Z</time>
      </trkpt>
      <trkpt lat="43.0462" lon="19.00842">
        <ele>1626.6899414062</ele>
        <time>2024-09-22T09:59:14.000Z</time>
      </trkpt>
      <trkpt lat="43.04614" lon="19.00848">
        <ele>1625.7299804688</ele>
        <time>2024-09-22T09:59:15.000Z</time>
      </trkpt>
      <trkpt lat="43.0461" lon="19.00851">
        <ele>1625.25</ele>
        <time>2024-09-22T09:59:16.000Z</time>
      </trkpt>
      <trkpt lat="43.04607" lon="19.00855">
        <ele>1624.7700195312</ele>
        <time>2024-09-22T09:59:17.000Z</time>
      </trkpt>
      <trkpt lat="43.04604" lon="19.0086">
        <ele>1623.8000488281</ele>
        <time>2024-09-22T09:59:18.000Z</time>
      </trkpt>
      <trkpt lat="43.04601" lon="19.00865">
        <ele>1622.8399658203</ele>
        <time>2024-09-22T09:59:19.000Z</time>
      </trkpt>
      <trkpt lat="43.04597" lon="19.00869">
        <ele>1621.8800048828</ele>
        <time>2024-09-22T09:59:20.000Z</time>
      </trkpt>
      <trkpt lat="43.04593" lon="19.00871">
        <ele>1620.9200439453</ele>
        <time>2024-09-22T09:59:21.000Z</time>
      </trkpt>
      <trkpt lat="43.04588" lon="19.00871">
        <ele>1619.9599609375</ele>
        <time>2024-09-22T09:59:22.000Z</time>
      </trkpt>
      <trkpt lat="43.04585" lon="19.0087">
        <ele>1619.4799804688</ele>
        <time>2024-09-22T09:59:23.000Z</time>
      </trkpt>
      <trkpt lat="43.04581" lon="19.00868">
        <ele>1618.5200195312</ele>
        <time>2024-09-22T09:59:24.000Z</time>
      </trkpt>
      <trkpt lat="43.04577" lon="19.00865">
        <ele>1618.0400390625</ele>
        <time>2024-09-22T09:59:25.000Z</time>
      </trkpt>
      <trkpt lat="43.04573" lon="19.00862">
        <ele>1618.5200195312</ele>
        <time>2024-09-22T09:59:26.000Z</time>
      </trkpt>
      <trkpt lat="43.04569" lon="19.0086">
        <ele>1619.4799804688</ele>
        <time>2024-09-22T09:59:27.000Z</time>
      </trkpt>
      <trkpt lat="43.04564" lon="19.0086">
        <ele>1619.4799804688</ele>
        <time>2024-09-22T09:59:28.000Z</time>
      </trkpt>
      <trkpt lat="43.04559" lon="19.0086">
        <ele>1619</ele>
        <time>2024-09-22T09:59:29.000Z</time>
      </trkpt>
      <trkpt lat="43.04554" lon="19.0086">
        <ele>1619.4799804688</ele>
        <time>2024-09-22T09:59:30.000Z</time>
      </trkpt>
      <trkpt lat="43.04549" lon="19.00859">
        <ele>1619.4799804688</ele>
        <time>2024-09-22T09:59:31.000Z</time>
      </trkpt>
      <trkpt lat="43.04544" lon="19.00837">
        <ele>1617.5600585938</ele>
        <time>2024-09-22T09:59:36.000Z</time>
      </trkpt>
      <trkpt lat="43.04552" lon="19.00833">
        <ele>1616.5899658203</ele>
        <time>2024-09-22T09:59:38.000Z</time>
      </trkpt>
      <trkpt lat="43.04553" lon="19.00833">
        <ele>1616.5899658203</ele>
        <time>2024-09-22T09:59:39.000Z</time>
      </trkpt>
      <trkpt lat="43.04557" lon="19.00833">
        <ele>1615.6300048828</ele>
        <time>2024-09-22T09:59:40.000Z</time>
      </trkpt>
      <trkpt lat="43.04562" lon="19.00832">
        <ele>1615.6300048828</ele>
        <time>2024-09-22T09:59:41.000Z</time>
      </trkpt>
      <trkpt lat="43.04569" lon="19.00833">
        <ele>1614.6700439453</ele>
        <time>2024-09-22T09:59:42.000Z</time>
      </trkpt>
      <trkpt lat="43.04572" lon="19.00833">
        <ele>1614.6700439453</ele>
        <time>2024-09-22T09:59:43.000Z</time>
      </trkpt>
      <trkpt lat="43.04578" lon="19.00832">
        <ele>1614.1899414062</ele>
        <time>2024-09-22T09:59:44.000Z</time>
      </trkpt>
      <trkpt lat="43.04582" lon="19.0083">
        <ele>1613.7099609375</ele>
        <time>2024-09-22T09:59:45.000Z</time>
      </trkpt>
      <trkpt lat="43.04585" lon="19.00826">
        <ele>1613.2299804688</ele>
        <time>2024-09-22T09:59:46.000Z</time>
      </trkpt>
      <trkpt lat="43.04588" lon="19.0082">
        <ele>1612.75</ele>
        <time>2024-09-22T09:59:47.000Z</time>
      </trkpt>
      <trkpt lat="43.04589" lon="19.00813">
        <ele>1611.7900390625</ele>
        <time>2024-09-22T09:59:48.000Z</time>
      </trkpt>
      <trkpt lat="43.04589" lon="19.00807">
        <ele>1611.7900390625</ele>
        <time>2024-09-22T09:59:49.000Z</time>
      </trkpt>
      <trkpt lat="43.04587" lon="19.008">
        <ele>1611.7900390625</ele>
        <time>2024-09-22T09:59:50.000Z</time>
      </trkpt>
      <trkpt lat="43.04585" lon="19.00794">
        <ele>1611.7900390625</ele>
        <time>2024-09-22T09:59:51.000Z</time>
      </trkpt>
      <trkpt lat="43.04583" lon="19.00784">
        <ele>1610.8299560547</ele>
        <time>2024-09-22T09:59:52.000Z</time>
      </trkpt>
      <trkpt lat="43.04583" lon="19.00777">
        <ele>1609.8599853516</ele>
        <time>2024-09-22T09:59:53.000Z</time>
      </trkpt>
      <trkpt lat="43.04582" lon="19.00768">
        <ele>1609.8599853516</ele>
        <time>2024-09-22T09:59:54.000Z</time>
      </trkpt>
      <trkpt lat="43.04579" lon="19.00756">
        <ele>1610.3499755859</ele>
        <time>2024-09-22T09:59:55.000Z</time>
      </trkpt>
      <trkpt lat="43.04578" lon="19.00748">
        <ele>1610.3499755859</ele>
        <time>2024-09-22T09:59:56.000Z</time>
      </trkpt>
      <trkpt lat="43.04577" lon="19.00743">
        <ele>1610.3499755859</ele>
        <time>2024-09-22T09:59:57.000Z</time>
      </trkpt>
      <trkpt lat="43.04575" lon="19.00737">
        <ele>1609.8599853516</ele>
        <time>2024-09-22T09:59:58.000Z</time>
      </trkpt>
      <trkpt lat="43.04573" lon="19.0073">
        <ele>1609.3800048828</ele>
        <time>2024-09-22T09:59:59.000Z</time>
      </trkpt>
      <trkpt lat="43.04569" lon="19.00724">
        <ele>1608.4200439453</ele>
        <time>2024-09-22T10:00:00.000Z</time>
      </trkpt>
      <trkpt lat="43.04563" lon="19.0072">
        <ele>1607.9399414062</ele>
        <time>2024-09-22T10:00:01.000Z</time>
      </trkpt>
      <trkpt lat="43.04547" lon="19.00711">
        <ele>1606.0200195312</ele>
        <time>2024-09-22T10:00:03.000Z</time>
      </trkpt>
      <trkpt lat="43.04543" lon="19.00709">
        <ele>1605.5400390625</ele>
        <time>2024-09-22T10:00:04.000Z</time>
      </trkpt>
      <trkpt lat="43.04538" lon="19.00705">
        <ele>1604.5799560547</ele>
        <time>2024-09-22T10:00:05.000Z</time>
      </trkpt>
      <trkpt lat="43.04533" lon="19.00699">
        <ele>1604.0999755859</ele>
        <time>2024-09-22T10:00:06.000Z</time>
      </trkpt>
      <trkpt lat="43.0453" lon="19.00693">
        <ele>1603.1400146484</ele>
        <time>2024-09-22T10:00:07.000Z</time>
      </trkpt>
      <trkpt lat="43.04529" lon="19.00684">
        <ele>1603.1400146484</ele>
        <time>2024-09-22T10:00:08.000Z</time>
      </trkpt>
      <trkpt lat="43.04528" lon="19.00675">
        <ele>1602.6600341797</ele>
        <time>2024-09-22T10:00:09.000Z</time>
      </trkpt>
      <trkpt lat="43.04529" lon="19.00667">
        <ele>1602.1700439453</ele>
        <time>2024-09-22T10:00:10.000Z</time>
      </trkpt>
      <trkpt lat="43.04531" lon="19.00659">
        <ele>1601.6899414062</ele>
        <time>2024-09-22T10:00:11.000Z</time>
      </trkpt>
      <trkpt lat="43.04534" lon="19.00651">
        <ele>1600.7299804688</ele>
        <time>2024-09-22T10:00:12.000Z</time>
      </trkpt>
      <trkpt lat="43.04543" lon="19.00623">
        <ele>1598.3299560547</ele>
        <time>2024-09-22T10:00:15.000Z</time>
      </trkpt>
      <trkpt lat="43.04544" lon="19.00618">
        <ele>1597.8499755859</ele>
        <time>2024-09-22T10:00:16.000Z</time>
      </trkpt>
      <trkpt lat="43.04546" lon="19.00612">
        <ele>1596.8900146484</ele>
        <time>2024-09-22T10:00:17.000Z</time>
      </trkpt>
      <trkpt lat="43.04546" lon="19.00606">
        <ele>1595.9300537109</ele>
        <time>2024-09-22T10:00:18.000Z</time>
      </trkpt>
      <trkpt lat="43.04537" lon="19.00599">
        <ele>1594.4799804688</ele>
        <time>2024-09-22T10:00:21.000Z</time>
      </trkpt>
      <trkpt lat="43.04535" lon="19.00601">
        <ele>1594</ele>
        <time>2024-09-22T10:00:22.000Z</time>
      </trkpt>
      <trkpt lat="43.0453" lon="19.00605">
        <ele>1593.5200195312</ele>
        <time>2024-09-22T10:00:23.000Z</time>
      </trkpt>
      <trkpt lat="43.04526" lon="19.00611">
        <ele>1593.0400390625</ele>
        <time>2024-09-22T10:00:24.000Z</time>
      </trkpt>
      <trkpt lat="43.04521" lon="19.00616">
        <ele>1592.0799560547</ele>
        <time>2024-09-22T10:00:25.000Z</time>
      </trkpt>
      <trkpt lat="43.04514" lon="19.00619">
        <ele>1591.5999755859</ele>
        <time>2024-09-22T10:00:26.000Z</time>
      </trkpt>
      <trkpt lat="43.04505" lon="19.00622">
        <ele>1591.1199951172</ele>
        <time>2024-09-22T10:00:27.000Z</time>
      </trkpt>
      <trkpt lat="43.04499" lon="19.00624">
        <ele>1590.6400146484</ele>
        <time>2024-09-22T10:00:28.000Z</time>
      </trkpt>
      <trkpt lat="43.04491" lon="19.00624">
        <ele>1589.6800537109</ele>
        <time>2024-09-22T10:00:29.000Z</time>
      </trkpt>
      <trkpt lat="43.04485" lon="19.00623">
        <ele>1588.2399902344</ele>
        <time>2024-09-22T10:00:30.000Z</time>
      </trkpt>
      <trkpt lat="43.04481" lon="19.00622">
        <ele>1587.2700195312</ele>
        <time>2024-09-22T10:00:31.000Z</time>
      </trkpt>
      <trkpt lat="43.04474" lon="19.00618">
        <ele>1585.8299560547</ele>
        <time>2024-09-22T10:00:32.000Z</time>
      </trkpt>
      <trkpt lat="43.04468" lon="19.00614">
        <ele>1584.8699951172</ele>
        <time>2024-09-22T10:00:33.000Z</time>
      </trkpt>
      <trkpt lat="43.04464" lon="19.00609">
        <ele>1583.4300537109</ele>
        <time>2024-09-22T10:00:34.000Z</time>
      </trkpt>
      <trkpt lat="43.04459" lon="19.00602">
        <ele>1582.4699707031</ele>
        <time>2024-09-22T10:00:35.000Z</time>
      </trkpt>
      <trkpt lat="43.04455" lon="19.00594">
        <ele>1581.9899902344</ele>
        <time>2024-09-22T10:00:36.000Z</time>
      </trkpt>
      <trkpt lat="43.04449" lon="19.00587">
        <ele>1581.0300292969</ele>
        <time>2024-09-22T10:00:37.000Z</time>
      </trkpt>
      <trkpt lat="43.04443" lon="19.00583">
        <ele>1580.5400390625</ele>
        <time>2024-09-22T10:00:38.000Z</time>
      </trkpt>
      <trkpt lat="43.04437" lon="19.00579">
        <ele>1580.5400390625</ele>
        <time>2024-09-22T10:00:39.000Z</time>
      </trkpt>
      <trkpt lat="43.0443" lon="19.00572">
        <ele>1580.0600585938</ele>
        <time>2024-09-22T10:00:46.000Z</time>
      </trkpt>
      <trkpt lat="43.04428" lon="19.00564">
        <ele>1581.5100097656</ele>
        <time>2024-09-22T10:00:57.000Z</time>
      </trkpt>
      <trkpt lat="43.04428" lon="19.00561">
        <ele>1581.5100097656</ele>
        <time>2024-09-22T10:00:58.000Z</time>
      </trkpt>
      <trkpt lat="43.04428" lon="19.0055">
        <ele>1581.0300292969</ele>
        <time>2024-09-22T10:00:59.000Z</time>
      </trkpt>
      <trkpt lat="43.04428" lon="19.00546">
        <ele>1581.0300292969</ele>
        <time>2024-09-22T10:01:00.000Z</time>
      </trkpt>
      <trkpt lat="43.04426" lon="19.00521">
        <ele>1579.5799560547</ele>
        <time>2024-09-22T10:01:02.000Z</time>
      </trkpt>
      <trkpt lat="43.04426" lon="19.00517">
        <ele>1579.0999755859</ele>
        <time>2024-09-22T10:01:03.000Z</time>
      </trkpt>
      <trkpt lat="43.04426" lon="19.00505">
        <ele>1578.6199951172</ele>
        <time>2024-09-22T10:01:04.000Z</time>
      </trkpt>
      <trkpt lat="43.04425" lon="19.00488">
        <ele>1578.1400146484</ele>
        <time>2024-09-22T10:01:05.000Z</time>
      </trkpt>
      <trkpt lat="43.04425" lon="19.00486">
        <ele>1578.1400146484</ele>
        <time>2024-09-22T10:01:06.000Z</time>
      </trkpt>
      <trkpt lat="43.04425" lon="19.00479">
        <ele>1577.6600341797</ele>
        <time>2024-09-22T10:01:07.000Z</time>
      </trkpt>
      <trkpt lat="43.04426" lon="19.00471">
        <ele>1576.6999511719</ele>
        <time>2024-09-22T10:01:08.000Z</time>
      </trkpt>
      <trkpt lat="43.04428" lon="19.00463">
        <ele>1576.2199707031</ele>
        <time>2024-09-22T10:01:09.000Z</time>
      </trkpt>
      <trkpt lat="43.04433" lon="19.00452">
        <ele>1575.2600097656</ele>
        <time>2024-09-22T10:01:10.000Z</time>
      </trkpt>
      <trkpt lat="43.04435" lon="19.00448">
        <ele>1574.7800292969</ele>
        <time>2024-09-22T10:01:11.000Z</time>
      </trkpt>
      <trkpt lat="43.04437" lon="19.00441">
        <ele>1574.3000488281</ele>
        <time>2024-09-22T10:01:12.000Z</time>
      </trkpt>
      <trkpt lat="43.04438" lon="19.00434">
        <ele>1573.8199462891</ele>
        <time>2024-09-22T10:01:13.000Z</time>
      </trkpt>
      <trkpt lat="43.04429" lon="19.00425">
        <ele>1573.3299560547</ele>
        <time>2024-09-22T10:01:16.000Z</time>
      </trkpt>
      <trkpt lat="43.04425" lon="19.00426">
        <ele>1572.8499755859</ele>
        <time>2024-09-22T10:01:17.000Z</time>
      </trkpt>
      <trkpt lat="43.04419" lon="19.00428">
        <ele>1572.3699951172</ele>
        <time>2024-09-22T10:01:18.000Z</time>
      </trkpt>
      <trkpt lat="43.04414" lon="19.00429">
        <ele>1571.8900146484</ele>
        <time>2024-09-22T10:01:19.000Z</time>
      </trkpt>
      <trkpt lat="43.04408" lon="19.00429">
        <ele>1570.9300537109</ele>
        <time>2024-09-22T10:01:20.000Z</time>
      </trkpt>
      <trkpt lat="43.04403" lon="19.00426">
        <ele>1570.4499511719</ele>
        <time>2024-09-22T10:01:21.000Z</time>
      </trkpt>
      <trkpt lat="43.04399" lon="19.00421">
        <ele>1569.9699707031</ele>
        <time>2024-09-22T10:01:22.000Z</time>
      </trkpt>
      <trkpt lat="43.04394" lon="19.00412">
        <ele>1569.9699707031</ele>
        <time>2024-09-22T10:01:23.000Z</time>
      </trkpt>
      <trkpt lat="43.0439" lon="19.00401">
        <ele>1569.9699707031</ele>
        <time>2024-09-22T10:01:24.000Z</time>
      </trkpt>
      <trkpt lat="43.04389" lon="19.00398">
        <ele>1569.9699707031</ele>
        <time>2024-09-22T10:01:25.000Z</time>
      </trkpt>
      <trkpt lat="43.04385" lon="19.0039">
        <ele>1570.4499511719</ele>
        <time>2024-09-22T10:01:26.000Z</time>
      </trkpt>
      <trkpt lat="43.04381" lon="19.00384">
        <ele>1570.4499511719</ele>
        <time>2024-09-22T10:01:27.000Z</time>
      </trkpt>
      <trkpt lat="43.04376" lon="19.00377">
        <ele>1570.9300537109</ele>
        <time>2024-09-22T10:01:28.000Z</time>
      </trkpt>
      <trkpt lat="43.04372" lon="19.0037">
        <ele>1570.9300537109</ele>
        <time>2024-09-22T10:01:29.000Z</time>
      </trkpt>
      <trkpt lat="43.04368" lon="19.00362">
        <ele>1570.4499511719</ele>
        <time>2024-09-22T10:01:30.000Z</time>
      </trkpt>
      <trkpt lat="43.04363" lon="19.00356">
        <ele>1570.9300537109</ele>
        <time>2024-09-22T10:01:31.000Z</time>
      </trkpt>
      <trkpt lat="43.04358" lon="19.00352">
        <ele>1570.9300537109</ele>
        <time>2024-09-22T10:01:32.000Z</time>
      </trkpt>
      <trkpt lat="43.04353" lon="19.00351">
        <ele>1570.4499511719</ele>
        <time>2024-09-22T10:01:33.000Z</time>
      </trkpt>
      <trkpt lat="43.04347" lon="19.00352">
        <ele>1569.9699707031</ele>
        <time>2024-09-22T10:01:34.000Z</time>
      </trkpt>
      <trkpt lat="43.04337" lon="19.00355">
        <ele>1569.0100097656</ele>
        <time>2024-09-22T10:01:35.000Z</time>
      </trkpt>
      <trkpt lat="43.04332" lon="19.00357">
        <ele>1568.5300292969</ele>
        <time>2024-09-22T10:01:36.000Z</time>
      </trkpt>
      <trkpt lat="43.04329" lon="19.00358">
        <ele>1568.0500488281</ele>
        <time>2024-09-22T10:01:37.000Z</time>
      </trkpt>
      <trkpt lat="43.04323" lon="19.0036">
        <ele>1567.5699462891</ele>
        <time>2024-09-22T10:01:38.000Z</time>
      </trkpt>
      <trkpt lat="43.0431" lon="19.00361">
        <ele>1565.6400146484</ele>
        <time>2024-09-22T10:01:39.000Z</time>
      </trkpt>
      <trkpt lat="43.04308" lon="19.00361">
        <ele>1565.1600341797</ele>
        <time>2024-09-22T10:01:40.000Z</time>
      </trkpt>
      <trkpt lat="43.04301" lon="19.00362">
        <ele>1564.1999511719</ele>
        <time>2024-09-22T10:01:41.000Z</time>
      </trkpt>
      <trkpt lat="43.04293" lon="19.00364">
        <ele>1563.2399902344</ele>
        <time>2024-09-22T10:01:42.000Z</time>
      </trkpt>
      <trkpt lat="43.04284" lon="19.00367">
        <ele>1561.8000488281</ele>
        <time>2024-09-22T10:01:43.000Z</time>
      </trkpt>
      <trkpt lat="43.0428" lon="19.00368">
        <ele>1560.8399658203</ele>
        <time>2024-09-22T10:01:44.000Z</time>
      </trkpt>
      <trkpt lat="43.04273" lon="19.0037">
        <ele>1559.4000244141</ele>
        <time>2024-09-22T10:01:45.000Z</time>
      </trkpt>
      <trkpt lat="43.04266" lon="19.00372">
        <ele>1558.4300537109</ele>
        <time>2024-09-22T10:01:46.000Z</time>
      </trkpt>
      <trkpt lat="43.0426" lon="19.00376">
        <ele>1556.9899902344</ele>
        <time>2024-09-22T10:01:47.000Z</time>
      </trkpt>
      <trkpt lat="43.04231" lon="19.00389">
        <ele>1552.6700439453</ele>
        <time>2024-09-22T10:01:51.000Z</time>
      </trkpt>
      <trkpt lat="43.04204" lon="19.00397">
        <ele>1550.2600097656</ele>
        <time>2024-09-22T10:01:54.000Z</time>
      </trkpt>
      <trkpt lat="43.04197" lon="19.004">
        <ele>1549.3000488281</ele>
        <time>2024-09-22T10:01:55.000Z</time>
      </trkpt>
      <trkpt lat="43.04192" lon="19.00401">
        <ele>1548.8199462891</ele>
        <time>2024-09-22T10:01:56.000Z</time>
      </trkpt>
      <trkpt lat="43.04185" lon="19.00402">
        <ele>1548.3399658203</ele>
        <time>2024-09-22T10:01:57.000Z</time>
      </trkpt>
      <trkpt lat="43.04165" lon="19.00402">
        <ele>1545.9399414062</ele>
        <time>2024-09-22T10:01:59.000Z</time>
      </trkpt>
      <trkpt lat="43.04157" lon="19.00402">
        <ele>1545.9399414062</ele>
        <time>2024-09-22T10:02:00.000Z</time>
      </trkpt>
      <trkpt lat="43.04153" lon="19.00402">
        <ele>1545.9399414062</ele>
        <time>2024-09-22T10:02:01.000Z</time>
      </trkpt>
      <trkpt lat="43.04146" lon="19.00404">
        <ele>1545.4599609375</ele>
        <time>2024-09-22T10:02:02.000Z</time>
      </trkpt>
      <trkpt lat="43.04138" lon="19.00405">
        <ele>1544.5</ele>
        <time>2024-09-22T10:02:03.000Z</time>
      </trkpt>
      <trkpt lat="43.04128" lon="19.00406">
        <ele>1544.0100097656</ele>
        <time>2024-09-22T10:02:04.000Z</time>
      </trkpt>
      <trkpt lat="43.04124" lon="19.00407">
        <ele>1544.0100097656</ele>
        <time>2024-09-22T10:02:05.000Z</time>
      </trkpt>
      <trkpt lat="43.04119" lon="19.0041">
        <ele>1544.0100097656</ele>
        <time>2024-09-22T10:02:06.000Z</time>
      </trkpt>
      <trkpt lat="43.04115" lon="19.00416">
        <ele>1544.0100097656</ele>
        <time>2024-09-22T10:02:07.000Z</time>
      </trkpt>
      <trkpt lat="43.04112" lon="19.00422">
        <ele>1544.0100097656</ele>
        <time>2024-09-22T10:02:08.000Z</time>
      </trkpt>
      <trkpt lat="43.0411" lon="19.00431">
        <ele>1544.0100097656</ele>
        <time>2024-09-22T10:02:09.000Z</time>
      </trkpt>
      <trkpt lat="43.04106" lon="19.00439">
        <ele>1543.5300292969</ele>
        <time>2024-09-22T10:02:10.000Z</time>
      </trkpt>
      <trkpt lat="43.04102" lon="19.00444">
        <ele>1543.5300292969</ele>
        <time>2024-09-22T10:02:11.000Z</time>
      </trkpt>
      <trkpt lat="43.04095" lon="19.00451">
        <ele>1542.0899658203</ele>
        <time>2024-09-22T10:02:12.000Z</time>
      </trkpt>
      <trkpt lat="43.04092" lon="19.00455">
        <ele>1541.6099853516</ele>
        <time>2024-09-22T10:02:13.000Z</time>
      </trkpt>
      <trkpt lat="43.04086" lon="19.00463">
        <ele>1541.1300048828</ele>
        <time>2024-09-22T10:02:14.000Z</time>
      </trkpt>
      <trkpt lat="43.04081" lon="19.00471">
        <ele>1540.1700439453</ele>
        <time>2024-09-22T10:02:15.000Z</time>
      </trkpt>
      <trkpt lat="43.04078" lon="19.00477">
        <ele>1540.1700439453</ele>
        <time>2024-09-22T10:02:16.000Z</time>
      </trkpt>
      <trkpt lat="43.04073" lon="19.00486">
        <ele>1539.6899414062</ele>
        <time>2024-09-22T10:02:17.000Z</time>
      </trkpt>
      <trkpt lat="43.0407" lon="19.00493">
        <ele>1539.6899414062</ele>
        <time>2024-09-22T10:02:18.000Z</time>
      </trkpt>
      <trkpt lat="43.04067" lon="19.00502">
        <ele>1539.2099609375</ele>
        <time>2024-09-22T10:02:19.000Z</time>
      </trkpt>
      <trkpt lat="43.04064" lon="19.00511">
        <ele>1539.6899414062</ele>
        <time>2024-09-22T10:02:20.000Z</time>
      </trkpt>
      <trkpt lat="43.04062" lon="19.00526">
        <ele>1538.7299804688</ele>
        <time>2024-09-22T10:02:21.000Z</time>
      </trkpt>
      <trkpt lat="43.04062" lon="19.00531">
        <ele>1538.7299804688</ele>
        <time>2024-09-22T10:02:22.000Z</time>
      </trkpt>
      <trkpt lat="43.04059" lon="19.0054">
        <ele>1538.25</ele>
        <time>2024-09-22T10:02:23.000Z</time>
      </trkpt>
      <trkpt lat="43.04056" lon="19.00548">
        <ele>1537.2900390625</ele>
        <time>2024-09-22T10:02:24.000Z</time>
      </trkpt>
      <trkpt lat="43.04051" lon="19.00558">
        <ele>1536.3199462891</ele>
        <time>2024-09-22T10:02:25.000Z</time>
      </trkpt>
      <trkpt lat="43.04045" lon="19.00568">
        <ele>1535.8399658203</ele>
        <time>2024-09-22T10:02:26.000Z</time>
      </trkpt>
      <trkpt lat="43.04042" lon="19.00573">
        <ele>1535.3599853516</ele>
        <time>2024-09-22T10:02:27.000Z</time>
      </trkpt>
      <trkpt lat="43.04036" lon="19.00581">
        <ele>1534.8800048828</ele>
        <time>2024-09-22T10:02:28.000Z</time>
      </trkpt>
      <trkpt lat="43.04029" lon="19.00595">
        <ele>1533.9200439453</ele>
        <time>2024-09-22T10:02:29.000Z</time>
      </trkpt>
      <trkpt lat="43.04027" lon="19.00599">
        <ele>1533.4399414062</ele>
        <time>2024-09-22T10:02:30.000Z</time>
      </trkpt>
      <trkpt lat="43.04024" lon="19.00607">
        <ele>1532.9599609375</ele>
        <time>2024-09-22T10:02:31.000Z</time>
      </trkpt>
      <trkpt lat="43.04022" lon="19.00619">
        <ele>1532</ele>
        <time>2024-09-22T10:02:32.000Z</time>
      </trkpt>
      <trkpt lat="43.04019" lon="19.00643">
        <ele>1532</ele>
        <time>2024-09-22T10:02:34.000Z</time>
      </trkpt>
      <trkpt lat="43.04016" lon="19.0066">
        <ele>1531.5200195312</ele>
        <time>2024-09-22T10:02:36.000Z</time>
      </trkpt>
      <trkpt lat="43.04014" lon="19.00669">
        <ele>1531.5200195312</ele>
        <time>2024-09-22T10:02:37.000Z</time>
      </trkpt>
      <trkpt lat="43.04013" lon="19.00683">
        <ele>1530.5600585938</ele>
        <time>2024-09-22T10:02:38.000Z</time>
      </trkpt>
      <trkpt lat="43.04012" lon="19.00701">
        <ele>1531.0400390625</ele>
        <time>2024-09-22T10:02:40.000Z</time>
      </trkpt>
      <trkpt lat="43.04011" lon="19.00711">
        <ele>1531.5200195312</ele>
        <time>2024-09-22T10:02:41.000Z</time>
      </trkpt>
      <trkpt lat="43.04009" lon="19.00718">
        <ele>1532</ele>
        <time>2024-09-22T10:02:42.000Z</time>
      </trkpt>
      <trkpt lat="43.04006" lon="19.00724">
        <ele>1532</ele>
        <time>2024-09-22T10:02:43.000Z</time>
      </trkpt>
      <trkpt lat="43.04001" lon="19.00727">
        <ele>1532</ele>
        <time>2024-09-22T10:02:44.000Z</time>
      </trkpt>
      <trkpt lat="43.03995" lon="19.00728">
        <ele>1532</ele>
        <time>2024-09-22T10:02:45.000Z</time>
      </trkpt>
      <trkpt lat="43.03989" lon="19.00727">
        <ele>1532.4799804688</ele>
        <time>2024-09-22T10:02:46.000Z</time>
      </trkpt>
      <trkpt lat="43.03982" lon="19.00724">
        <ele>1532.9599609375</ele>
        <time>2024-09-22T10:02:47.000Z</time>
      </trkpt>
      <trkpt lat="43.03976" lon="19.00724">
        <ele>1532.9599609375</ele>
        <time>2024-09-22T10:02:48.000Z</time>
      </trkpt>
      <trkpt lat="43.03971" lon="19.00727">
        <ele>1532.9599609375</ele>
        <time>2024-09-22T10:02:49.000Z</time>
      </trkpt>
      <trkpt lat="43.03966" lon="19.00733">
        <ele>1532.4799804688</ele>
        <time>2024-09-22T10:02:50.000Z</time>
      </trkpt>
      <trkpt lat="43.0396" lon="19.00744">
        <ele>1532</ele>
        <time>2024-09-22T10:02:51.000Z</time>
      </trkpt>
      <trkpt lat="43.03955" lon="19.00753">
        <ele>1531.5200195312</ele>
        <time>2024-09-22T10:02:52.000Z</time>
      </trkpt>
      <trkpt lat="43.03954" lon="19.00758">
        <ele>1531.0400390625</ele>
        <time>2024-09-22T10:02:53.000Z</time>
      </trkpt>
      <trkpt lat="43.03953" lon="19.00764">
        <ele>1530.5600585938</ele>
        <time>2024-09-22T10:02:54.000Z</time>
      </trkpt>
      <trkpt lat="43.03953" lon="19.0077">
        <ele>1530.0799560547</ele>
        <time>2024-09-22T10:02:55.000Z</time>
      </trkpt>
      <trkpt lat="43.03953" lon="19.00777">
        <ele>1529.1099853516</ele>
        <time>2024-09-22T10:02:56.000Z</time>
      </trkpt>
      <trkpt lat="43.03954" lon="19.00786">
        <ele>1528.1500244141</ele>
        <time>2024-09-22T10:02:57.000Z</time>
      </trkpt>
      <trkpt lat="43.03955" lon="19.00792">
        <ele>1527.1899414062</ele>
        <time>2024-09-22T10:02:58.000Z</time>
      </trkpt>
      <trkpt lat="43.03957" lon="19.008">
        <ele>1526.2299804688</ele>
        <time>2024-09-22T10:02:59.000Z</time>
      </trkpt>
      <trkpt lat="43.03954" lon="19.00817">
        <ele>1523.3499755859</ele>
        <time>2024-09-22T10:03:03.000Z</time>
      </trkpt>
      <trkpt lat="43.03949" lon="19.00821">
        <ele>1522.3900146484</ele>
        <time>2024-09-22T10:03:04.000Z</time>
      </trkpt>
      <trkpt lat="43.03941" lon="19.00825">
        <ele>1521.4200439453</ele>
        <time>2024-09-22T10:03:05.000Z</time>
      </trkpt>
      <trkpt lat="43.03932" lon="19.00828">
        <ele>1521.4200439453</ele>
        <time>2024-09-22T10:03:06.000Z</time>
      </trkpt>
      <trkpt lat="43.03931" lon="19.00829">
        <ele>1521.4200439453</ele>
        <time>2024-09-22T10:03:07.000Z</time>
      </trkpt>
      <trkpt lat="43.03924" lon="19.0083">
        <ele>1521.9000244141</ele>
        <time>2024-09-22T10:03:08.000Z</time>
      </trkpt>
      <trkpt lat="43.03917" lon="19.0083">
        <ele>1521.9000244141</ele>
        <time>2024-09-22T10:03:09.000Z</time>
      </trkpt>
      <trkpt lat="43.03907" lon="19.00829">
        <ele>1520.4599609375</ele>
        <time>2024-09-22T10:03:10.000Z</time>
      </trkpt>
      <trkpt lat="43.03897" lon="19.00828">
        <ele>1519.5</ele>
        <time>2024-09-22T10:03:11.000Z</time>
      </trkpt>
      <trkpt lat="43.03893" lon="19.00827">
        <ele>1519.5</ele>
        <time>2024-09-22T10:03:12.000Z</time>
      </trkpt>
      <trkpt lat="43.03885" lon="19.00825">
        <ele>1518.5400390625</ele>
        <time>2024-09-22T10:03:13.000Z</time>
      </trkpt>
      <trkpt lat="43.03878" lon="19.00824">
        <ele>1517.5799560547</ele>
        <time>2024-09-22T10:03:14.000Z</time>
      </trkpt>
      <trkpt lat="43.03872" lon="19.00823">
        <ele>1517.0999755859</ele>
        <time>2024-09-22T10:03:15.000Z</time>
      </trkpt>
      <trkpt lat="43.03867" lon="19.00823">
        <ele>1516.6199951172</ele>
        <time>2024-09-22T10:03:16.000Z</time>
      </trkpt>
      <trkpt lat="43.03858" lon="19.00826">
        <ele>1516.6199951172</ele>
        <time>2024-09-22T10:03:17.000Z</time>
      </trkpt>
      <trkpt lat="43.03855" lon="19.00826">
        <ele>1516.1400146484</ele>
        <time>2024-09-22T10:03:18.000Z</time>
      </trkpt>
      <trkpt lat="43.0385" lon="19.00827">
        <ele>1516.6199951172</ele>
        <time>2024-09-22T10:03:19.000Z</time>
      </trkpt>
      <trkpt lat="43.03844" lon="19.00825">
        <ele>1516.6199951172</ele>
        <time>2024-09-22T10:03:20.000Z</time>
      </trkpt>
      <trkpt lat="43.03838" lon="19.00821">
        <ele>1516.6199951172</ele>
        <time>2024-09-22T10:03:21.000Z</time>
      </trkpt>
      <trkpt lat="43.03832" lon="19.00815">
        <ele>1516.6199951172</ele>
        <time>2024-09-22T10:03:22.000Z</time>
      </trkpt>
      <trkpt lat="43.03828" lon="19.00809">
        <ele>1517.0999755859</ele>
        <time>2024-09-22T10:03:23.000Z</time>
      </trkpt>
      <trkpt lat="43.03823" lon="19.00804">
        <ele>1516.6199951172</ele>
        <time>2024-09-22T10:03:24.000Z</time>
      </trkpt>
      <trkpt lat="43.03817" lon="19.008">
        <ele>1516.1400146484</ele>
        <time>2024-09-22T10:03:25.000Z</time>
      </trkpt>
      <trkpt lat="43.03811" lon="19.008">
        <ele>1516.1400146484</ele>
        <time>2024-09-22T10:03:26.000Z</time>
      </trkpt>
      <trkpt lat="43.03805" lon="19.00803">
        <ele>1515.6600341797</ele>
        <time>2024-09-22T10:03:27.000Z</time>
      </trkpt>
      <trkpt lat="43.038" lon="19.00808">
        <ele>1515.6600341797</ele>
        <time>2024-09-22T10:03:28.000Z</time>
      </trkpt>
      <trkpt lat="43.03793" lon="19.00816">
        <ele>1515.1800537109</ele>
        <time>2024-09-22T10:03:29.000Z</time>
      </trkpt>
      <trkpt lat="43.03791" lon="19.00819">
        <ele>1514.6899414062</ele>
        <time>2024-09-22T10:03:30.000Z</time>
      </trkpt>
      <trkpt lat="43.03786" lon="19.0083">
        <ele>1514.2099609375</ele>
        <time>2024-09-22T10:03:32.000Z</time>
      </trkpt>
      <trkpt lat="43.03784" lon="19.00847">
        <ele>1513.25</ele>
        <time>2024-09-22T10:03:35.000Z</time>
      </trkpt>
      <trkpt lat="43.03783" lon="19.00848">
        <ele>1513.25</ele>
        <time>2024-09-22T10:03:36.000Z</time>
      </trkpt>
      <trkpt lat="43.03782" lon="19.00855">
        <ele>1512.7700195312</ele>
        <time>2024-09-22T10:03:37.000Z</time>
      </trkpt>
      <trkpt lat="43.0378" lon="19.0086">
        <ele>1512.7700195312</ele>
        <time>2024-09-22T10:03:38.000Z</time>
      </trkpt>
      <trkpt lat="43.03777" lon="19.00865">
        <ele>1512.2900390625</ele>
        <time>2024-09-22T10:03:39.000Z</time>
      </trkpt>
      <trkpt lat="43.03774" lon="19.00871">
        <ele>1511.8100585938</ele>
        <time>2024-09-22T10:03:40.000Z</time>
      </trkpt>
      <trkpt lat="43.03769" lon="19.00878">
        <ele>1511.3299560547</ele>
        <time>2024-09-22T10:03:41.000Z</time>
      </trkpt>
      <trkpt lat="43.03767" lon="19.00881">
        <ele>1510.8499755859</ele>
        <time>2024-09-22T10:03:42.000Z</time>
      </trkpt>
      <trkpt lat="43.03764" lon="19.00887">
        <ele>1510.3699951172</ele>
        <time>2024-09-22T10:03:43.000Z</time>
      </trkpt>
      <trkpt lat="43.0376" lon="19.00895">
        <ele>1509.8900146484</ele>
        <time>2024-09-22T10:03:44.000Z</time>
      </trkpt>
      <trkpt lat="43.03757" lon="19.00903">
        <ele>1508.9300537109</ele>
        <time>2024-09-22T10:03:45.000Z</time>
      </trkpt>
      <trkpt lat="43.03754" lon="19.00909">
        <ele>1508.4499511719</ele>
        <time>2024-09-22T10:03:46.000Z</time>
      </trkpt>
      <trkpt lat="43.0375" lon="19.00915">
        <ele>1507.4799804688</ele>
        <time>2024-09-22T10:03:47.000Z</time>
      </trkpt>
      <trkpt lat="43.03748" lon="19.00922">
        <ele>1507</ele>
        <time>2024-09-22T10:03:48.000Z</time>
      </trkpt>
      <trkpt lat="43.03746" lon="19.00929">
        <ele>1506.0400390625</ele>
        <time>2024-09-22T10:03:49.000Z</time>
      </trkpt>
      <trkpt lat="43.03745" lon="19.00936">
        <ele>1505.5600585938</ele>
        <time>2024-09-22T10:03:50.000Z</time>
      </trkpt>
      <trkpt lat="43.03745" lon="19.00942">
        <ele>1505.0799560547</ele>
        <time>2024-09-22T10:03:51.000Z</time>
      </trkpt>
      <trkpt lat="43.03747" lon="19.00947">
        <ele>1505.0799560547</ele>
        <time>2024-09-22T10:03:52.000Z</time>
      </trkpt>
      <trkpt lat="43.03755" lon="19.00951">
        <ele>1505.0799560547</ele>
        <time>2024-09-22T10:03:54.000Z</time>
      </trkpt>
      <trkpt lat="43.03758" lon="19.00951">
        <ele>1505.0799560547</ele>
        <time>2024-09-22T10:03:55.000Z</time>
      </trkpt>
      <trkpt lat="43.03766" lon="19.00949">
        <ele>1504.5999755859</ele>
        <time>2024-09-22T10:03:56.000Z</time>
      </trkpt>
      <trkpt lat="43.03768" lon="19.00948">
        <ele>1504.1199951172</ele>
        <time>2024-09-22T10:03:57.000Z</time>
      </trkpt>
      <trkpt lat="43.03775" lon="19.00944">
        <ele>1503.1600341797</ele>
        <time>2024-09-22T10:03:58.000Z</time>
      </trkpt>
      <trkpt lat="43.03779" lon="19.00943">
        <ele>1502.6800537109</ele>
        <time>2024-09-22T10:03:59.000Z</time>
      </trkpt>
      <trkpt lat="43.03789" lon="19.00936">
        <ele>1502.1999511719</ele>
        <time>2024-09-22T10:04:00.000Z</time>
      </trkpt>
      <trkpt lat="43.03792" lon="19.00935">
        <ele>1501.7199707031</ele>
        <time>2024-09-22T10:04:01.000Z</time>
      </trkpt>
      <trkpt lat="43.03798" lon="19.0093">
        <ele>1501.2399902344</ele>
        <time>2024-09-22T10:04:02.000Z</time>
      </trkpt>
      <trkpt lat="43.03813" lon="19.00919">
        <ele>1499.3100585938</ele>
        <time>2024-09-22T10:04:04.000Z</time>
      </trkpt>
      <trkpt lat="43.03814" lon="19.00918">
        <ele>1499.3100585938</ele>
        <time>2024-09-22T10:04:05.000Z</time>
      </trkpt>
      <trkpt lat="43.03819" lon="19.00916">
        <ele>1498.8299560547</ele>
        <time>2024-09-22T10:04:06.000Z</time>
      </trkpt>
      <trkpt lat="43.03823" lon="19.00917">
        <ele>1498.3499755859</ele>
        <time>2024-09-22T10:04:07.000Z</time>
      </trkpt>
      <trkpt lat="43.03827" lon="19.00919">
        <ele>1497.3900146484</ele>
        <time>2024-09-22T10:04:08.000Z</time>
      </trkpt>
      <trkpt lat="43.03828" lon="19.0093">
        <ele>1495.9499511719</ele>
        <time>2024-09-22T10:04:10.000Z</time>
      </trkpt>
      <trkpt lat="43.03827" lon="19.00932">
        <ele>1495.9499511719</ele>
        <time>2024-09-22T10:04:11.000Z</time>
      </trkpt>
      <trkpt lat="43.03823" lon="19.00937">
        <ele>1495.4699707031</ele>
        <time>2024-09-22T10:04:12.000Z</time>
      </trkpt>
      <trkpt lat="43.03819" lon="19.00941">
        <ele>1495.4699707031</ele>
        <time>2024-09-22T10:04:13.000Z</time>
      </trkpt>
      <trkpt lat="43.03814" lon="19.00945">
        <ele>1495.4699707031</ele>
        <time>2024-09-22T10:04:14.000Z</time>
      </trkpt>
      <trkpt lat="43.0381" lon="19.00951">
        <ele>1494.9899902344</ele>
        <time>2024-09-22T10:04:15.000Z</time>
      </trkpt>
      <trkpt lat="43.03808" lon="19.00956">
        <ele>1495.4699707031</ele>
        <time>2024-09-22T10:04:16.000Z</time>
      </trkpt>
      <trkpt lat="43.03805" lon="19.00961">
        <ele>1495.4699707031</ele>
        <time>2024-09-22T10:04:17.000Z</time>
      </trkpt>
      <trkpt lat="43.03802" lon="19.0097">
        <ele>1495.4699707031</ele>
        <time>2024-09-22T10:04:18.000Z</time>
      </trkpt>
      <trkpt lat="43.038" lon="19.00975">
        <ele>1494.9899902344</ele>
        <time>2024-09-22T10:04:19.000Z</time>
      </trkpt>
      <trkpt lat="43.03796" lon="19.00981">
        <ele>1494.5100097656</ele>
        <time>2024-09-22T10:04:20.000Z</time>
      </trkpt>
      <trkpt lat="43.03791" lon="19.0099">
        <ele>1494.0300292969</ele>
        <time>2024-09-22T10:04:21.000Z</time>
      </trkpt>
      <trkpt lat="43.03788" lon="19.00994">
        <ele>1493.5500488281</ele>
        <time>2024-09-22T10:04:22.000Z</time>
      </trkpt>
      <trkpt lat="43.03783" lon="19.01">
        <ele>1493.0600585938</ele>
        <time>2024-09-22T10:04:23.000Z</time>
      </trkpt>
      <trkpt lat="43.03774" lon="19.01011">
        <ele>1492.0999755859</ele>
        <time>2024-09-22T10:04:24.000Z</time>
      </trkpt>
      <trkpt lat="43.03773" lon="19.01012">
        <ele>1492.0999755859</ele>
        <time>2024-09-22T10:04:25.000Z</time>
      </trkpt>
      <trkpt lat="43.03769" lon="19.0102">
        <ele>1492.0999755859</ele>
        <time>2024-09-22T10:04:26.000Z</time>
      </trkpt>
      <trkpt lat="43.03765" lon="19.01026">
        <ele>1492.0999755859</ele>
        <time>2024-09-22T10:04:27.000Z</time>
      </trkpt>
      <trkpt lat="43.03762" lon="19.01034">
        <ele>1491.6199951172</ele>
        <time>2024-09-22T10:04:28.000Z</time>
      </trkpt>
      <trkpt lat="43.03759" lon="19.01043">
        <ele>1491.1400146484</ele>
        <time>2024-09-22T10:04:29.000Z</time>
      </trkpt>
      <trkpt lat="43.03758" lon="19.0105">
        <ele>1490.6600341797</ele>
        <time>2024-09-22T10:04:30.000Z</time>
      </trkpt>
      <trkpt lat="43.03757" lon="19.01059">
        <ele>1490.1800537109</ele>
        <time>2024-09-22T10:04:31.000Z</time>
      </trkpt>
      <trkpt lat="43.03758" lon="19.01068">
        <ele>1489.6999511719</ele>
        <time>2024-09-22T10:04:32.000Z</time>
      </trkpt>
      <trkpt lat="43.03759" lon="19.01076">
        <ele>1489.2199707031</ele>
        <time>2024-09-22T10:04:33.000Z</time>
      </trkpt>
      <trkpt lat="43.03759" lon="19.01086">
        <ele>1488.7399902344</ele>
        <time>2024-09-22T10:04:34.000Z</time>
      </trkpt>
      <trkpt lat="43.03758" lon="19.01094">
        <ele>1488.2600097656</ele>
        <time>2024-09-22T10:04:35.000Z</time>
      </trkpt>
      <trkpt lat="43.03756" lon="19.01101">
        <ele>1487.7800292969</ele>
        <time>2024-09-22T10:04:36.000Z</time>
      </trkpt>
      <trkpt lat="43.03753" lon="19.01108">
        <ele>1486.8199462891</ele>
        <time>2024-09-22T10:04:37.000Z</time>
      </trkpt>
      <trkpt lat="43.03749" lon="19.01115">
        <ele>1486.3399658203</ele>
        <time>2024-09-22T10:04:38.000Z</time>
      </trkpt>
      <trkpt lat="43.03745" lon="19.01122">
        <ele>1485.8499755859</ele>
        <time>2024-09-22T10:04:39.000Z</time>
      </trkpt>
      <trkpt lat="43.03741" lon="19.01129">
        <ele>1485.3699951172</ele>
        <time>2024-09-22T10:04:40.000Z</time>
      </trkpt>
      <trkpt lat="43.03738" lon="19.01136">
        <ele>1484.8900146484</ele>
        <time>2024-09-22T10:04:41.000Z</time>
      </trkpt>
      <trkpt lat="43.03737" lon="19.01145">
        <ele>1484.4100341797</ele>
        <time>2024-09-22T10:04:42.000Z</time>
      </trkpt>
      <trkpt lat="43.03738" lon="19.01153">
        <ele>1483.9300537109</ele>
        <time>2024-09-22T10:04:43.000Z</time>
      </trkpt>
      <trkpt lat="43.0374" lon="19.01164">
        <ele>1483.4499511719</ele>
        <time>2024-09-22T10:04:44.000Z</time>
      </trkpt>
      <trkpt lat="43.03743" lon="19.01175">
        <ele>1482.9699707031</ele>
        <time>2024-09-22T10:04:45.000Z</time>
      </trkpt>
      <trkpt lat="43.03749" lon="19.01204">
        <ele>1482.4899902344</ele>
        <time>2024-09-22T10:04:48.000Z</time>
      </trkpt>
      <trkpt lat="43.03751" lon="19.0121">
        <ele>1482.9699707031</ele>
        <time>2024-09-22T10:04:49.000Z</time>
      </trkpt>
      <trkpt lat="43.03754" lon="19.01219">
        <ele>1483.9300537109</ele>
        <time>2024-09-22T10:04:50.000Z</time>
      </trkpt>
      <trkpt lat="43.03756" lon="19.01227">
        <ele>1484.8900146484</ele>
        <time>2024-09-22T10:04:51.000Z</time>
      </trkpt>
      <trkpt lat="43.03759" lon="19.01234">
        <ele>1485.3699951172</ele>
        <time>2024-09-22T10:04:52.000Z</time>
      </trkpt>
      <trkpt lat="43.03763" lon="19.01242">
        <ele>1485.3699951172</ele>
        <time>2024-09-22T10:04:53.000Z</time>
      </trkpt>
      <trkpt lat="43.03767" lon="19.0125">
        <ele>1485.3699951172</ele>
        <time>2024-09-22T10:04:54.000Z</time>
      </trkpt>
      <trkpt lat="43.03771" lon="19.01257">
        <ele>1485.3699951172</ele>
        <time>2024-09-22T10:04:55.000Z</time>
      </trkpt>
      <trkpt lat="43.03774" lon="19.01265">
        <ele>1485.8499755859</ele>
        <time>2024-09-22T10:04:56.000Z</time>
      </trkpt>
      <trkpt lat="43.03776" lon="19.01273">
        <ele>1485.8499755859</ele>
        <time>2024-09-22T10:04:57.000Z</time>
      </trkpt>
      <trkpt lat="43.03776" lon="19.0128">
        <ele>1485.3699951172</ele>
        <time>2024-09-22T10:04:58.000Z</time>
      </trkpt>
      <trkpt lat="43.03775" lon="19.0129">
        <ele>1485.3699951172</ele>
        <time>2024-09-22T10:04:59.000Z</time>
      </trkpt>
      <trkpt lat="43.03771" lon="19.01313">
        <ele>1484.8900146484</ele>
        <time>2024-09-22T10:05:01.000Z</time>
      </trkpt>
      <trkpt lat="43.03769" lon="19.0132">
        <ele>1484.4100341797</ele>
        <time>2024-09-22T10:05:02.000Z</time>
      </trkpt>
      <trkpt lat="43.03766" lon="19.01336">
        <ele>1484.8900146484</ele>
        <time>2024-09-22T10:05:03.000Z</time>
      </trkpt>
      <trkpt lat="43.03765" lon="19.01339">
        <ele>1484.8900146484</ele>
        <time>2024-09-22T10:05:04.000Z</time>
      </trkpt>
      <trkpt lat="43.03763" lon="19.01347">
        <ele>1485.3699951172</ele>
        <time>2024-09-22T10:05:05.000Z</time>
      </trkpt>
      <trkpt lat="43.03759" lon="19.01353">
        <ele>1485.3699951172</ele>
        <time>2024-09-22T10:05:06.000Z</time>
      </trkpt>
      <trkpt lat="43.03754" lon="19.0136">
        <ele>1484.8900146484</ele>
        <time>2024-09-22T10:05:07.000Z</time>
      </trkpt>
      <trkpt lat="43.0375" lon="19.01365">
        <ele>1484.4100341797</ele>
        <time>2024-09-22T10:05:08.000Z</time>
      </trkpt>
      <trkpt lat="43.03745" lon="19.0137">
        <ele>1483.4499511719</ele>
        <time>2024-09-22T10:05:09.000Z</time>
      </trkpt>
      <trkpt lat="43.03742" lon="19.01377">
        <ele>1482.4899902344</ele>
        <time>2024-09-22T10:05:10.000Z</time>
      </trkpt>
      <trkpt lat="43.03739" lon="19.01384">
        <ele>1482.0100097656</ele>
        <time>2024-09-22T10:05:11.000Z</time>
      </trkpt>
      <trkpt lat="43.03737" lon="19.01392">
        <ele>1481.0500488281</ele>
        <time>2024-09-22T10:05:12.000Z</time>
      </trkpt>
      <trkpt lat="43.03736" lon="19.01397">
        <ele>1480.5699462891</ele>
        <time>2024-09-22T10:05:13.000Z</time>
      </trkpt>
      <trkpt lat="43.03736" lon="19.01406">
        <ele>1479.6099853516</ele>
        <time>2024-09-22T10:05:14.000Z</time>
      </trkpt>
      <trkpt lat="43.03736" lon="19.01416">
        <ele>1478.6500244141</ele>
        <time>2024-09-22T10:05:15.000Z</time>
      </trkpt>
      <trkpt lat="43.03738" lon="19.01429">
        <ele>1477.6800537109</ele>
        <time>2024-09-22T10:05:16.000Z</time>
      </trkpt>
      <trkpt lat="43.0374" lon="19.01442">
        <ele>1476.7199707031</ele>
        <time>2024-09-22T10:05:17.000Z</time>
      </trkpt>
      <trkpt lat="43.03742" lon="19.01448">
        <ele>1476.2399902344</ele>
        <time>2024-09-22T10:05:18.000Z</time>
      </trkpt>
      <trkpt lat="43.03742" lon="19.01452">
        <ele>1476.2399902344</ele>
        <time>2024-09-22T10:05:19.000Z</time>
      </trkpt>
      <trkpt lat="43.03745" lon="19.01462">
        <ele>1475.7600097656</ele>
        <time>2024-09-22T10:05:20.000Z</time>
      </trkpt>
      <trkpt lat="43.03748" lon="19.01471">
        <ele>1475.7600097656</ele>
        <time>2024-09-22T10:05:21.000Z</time>
      </trkpt>
      <trkpt lat="43.03752" lon="19.01482">
        <ele>1475.7600097656</ele>
        <time>2024-09-22T10:05:22.000Z</time>
      </trkpt>
      <trkpt lat="43.03756" lon="19.01492">
        <ele>1475.7600097656</ele>
        <time>2024-09-22T10:05:23.000Z</time>
      </trkpt>
      <trkpt lat="43.03759" lon="19.01499">
        <ele>1475.7600097656</ele>
        <time>2024-09-22T10:05:24.000Z</time>
      </trkpt>
      <trkpt lat="43.03767" lon="19.0152">
        <ele>1475.2800292969</ele>
        <time>2024-09-22T10:05:26.000Z</time>
      </trkpt>
      <trkpt lat="43.03768" lon="19.01525">
        <ele>1474.8000488281</ele>
        <time>2024-09-22T10:05:27.000Z</time>
      </trkpt>
      <trkpt lat="43.03771" lon="19.01535">
        <ele>1474.8000488281</ele>
        <time>2024-09-22T10:05:28.000Z</time>
      </trkpt>
      <trkpt lat="43.03774" lon="19.01553">
        <ele>1473.8399658203</ele>
        <time>2024-09-22T10:05:30.000Z</time>
      </trkpt>
      <trkpt lat="43.03776" lon="19.01565">
        <ele>1473.8399658203</ele>
        <time>2024-09-22T10:05:31.000Z</time>
      </trkpt>
      <trkpt lat="43.03777" lon="19.01574">
        <ele>1473.3599853516</ele>
        <time>2024-09-22T10:05:32.000Z</time>
      </trkpt>
      <trkpt lat="43.03777" lon="19.01587">
        <ele>1473.3599853516</ele>
        <time>2024-09-22T10:05:33.000Z</time>
      </trkpt>
      <trkpt lat="43.03778" lon="19.01597">
        <ele>1473.3599853516</ele>
        <time>2024-09-22T10:05:34.000Z</time>
      </trkpt>
      <trkpt lat="43.03777" lon="19.01606">
        <ele>1473.8399658203</ele>
        <time>2024-09-22T10:05:35.000Z</time>
      </trkpt>
      <trkpt lat="43.03776" lon="19.01616">
        <ele>1473.8399658203</ele>
        <time>2024-09-22T10:05:36.000Z</time>
      </trkpt>
      <trkpt lat="43.03775" lon="19.01625">
        <ele>1473.8399658203</ele>
        <time>2024-09-22T10:05:37.000Z</time>
      </trkpt>
      <trkpt lat="43.03775" lon="19.01631">
        <ele>1473.3599853516</ele>
        <time>2024-09-22T10:05:38.000Z</time>
      </trkpt>
      <trkpt lat="43.03776" lon="19.01639">
        <ele>1472.4000244141</ele>
        <time>2024-09-22T10:05:39.000Z</time>
      </trkpt>
      <trkpt lat="43.03779" lon="19.01648">
        <ele>1471.4399414062</ele>
        <time>2024-09-22T10:05:40.000Z</time>
      </trkpt>
      <trkpt lat="43.03781" lon="19.01654">
        <ele>1470.9499511719</ele>
        <time>2024-09-22T10:05:41.000Z</time>
      </trkpt>
      <trkpt lat="43.03782" lon="19.01662">
        <ele>1469.9899902344</ele>
        <time>2024-09-22T10:05:42.000Z</time>
      </trkpt>
      <trkpt lat="43.03775" lon="19.01679">
        <ele>1467.1099853516</ele>
        <time>2024-09-22T10:05:46.000Z</time>
      </trkpt>
      <trkpt lat="43.03773" lon="19.0168">
        <ele>1467.1099853516</ele>
        <time>2024-09-22T10:05:47.000Z</time>
      </trkpt>
      <trkpt lat="43.03768" lon="19.01681">
        <ele>1466.1500244141</ele>
        <time>2024-09-22T10:05:48.000Z</time>
      </trkpt>
      <trkpt lat="43.03762" lon="19.01683">
        <ele>1465.6700439453</ele>
        <time>2024-09-22T10:05:49.000Z</time>
      </trkpt>
      <trkpt lat="43.03756" lon="19.01686">
        <ele>1465.1899414062</ele>
        <time>2024-09-22T10:05:50.000Z</time>
      </trkpt>
      <trkpt lat="43.03751" lon="19.0169">
        <ele>1464.2299804688</ele>
        <time>2024-09-22T10:05:51.000Z</time>
      </trkpt>
      <trkpt lat="43.03744" lon="19.01696">
        <ele>1463.2600097656</ele>
        <time>2024-09-22T10:05:52.000Z</time>
      </trkpt>
      <trkpt lat="43.03739" lon="19.017">
        <ele>1462.3000488281</ele>
        <time>2024-09-22T10:05:53.000Z</time>
      </trkpt>
      <trkpt lat="43.0373" lon="19.01709">
        <ele>1460.8599853516</ele>
        <time>2024-09-22T10:05:54.000Z</time>
      </trkpt>
      <trkpt lat="43.03727" lon="19.01713">
        <ele>1460.3800048828</ele>
        <time>2024-09-22T10:05:55.000Z</time>
      </trkpt>
      <trkpt lat="43.03722" lon="19.0172">
        <ele>1459.9000244141</ele>
        <time>2024-09-22T10:05:56.000Z</time>
      </trkpt>
      <trkpt lat="43.03715" lon="19.01733">
        <ele>1458.9399414062</ele>
        <time>2024-09-22T10:05:57.000Z</time>
      </trkpt>
      <trkpt lat="43.03714" lon="19.01736">
        <ele>1458.9399414062</ele>
        <time>2024-09-22T10:05:58.000Z</time>
      </trkpt>
      <trkpt lat="43.0371" lon="19.01743">
        <ele>1457.9799804688</ele>
        <time>2024-09-22T10:05:59.000Z</time>
      </trkpt>
      <trkpt lat="43.03704" lon="19.01755">
        <ele>1457.0200195312</ele>
        <time>2024-09-22T10:06:00.000Z</time>
      </trkpt>
      <trkpt lat="43.03695" lon="19.01768">
        <ele>1456.0500488281</ele>
        <time>2024-09-22T10:06:02.000Z</time>
      </trkpt>
      <trkpt lat="43.0369" lon="19.01776">
        <ele>1455.5699462891</ele>
        <time>2024-09-22T10:06:03.000Z</time>
      </trkpt>
      <trkpt lat="43.03677" lon="19.01799">
        <ele>1454.6099853516</ele>
        <time>2024-09-22T10:06:05.000Z</time>
      </trkpt>
      <trkpt lat="43.03674" lon="19.01804">
        <ele>1454.1300048828</ele>
        <time>2024-09-22T10:06:06.000Z</time>
      </trkpt>
      <trkpt lat="43.03669" lon="19.01811">
        <ele>1453.6500244141</ele>
        <time>2024-09-22T10:06:07.000Z</time>
      </trkpt>
      <trkpt lat="43.03663" lon="19.01819">
        <ele>1453.1700439453</ele>
        <time>2024-09-22T10:06:08.000Z</time>
      </trkpt>
      <trkpt lat="43.03659" lon="19.01823">
        <ele>1452.6899414062</ele>
        <time>2024-09-22T10:06:09.000Z</time>
      </trkpt>
      <trkpt lat="43.03647" lon="19.01835">
        <ele>1450.2900390625</ele>
        <time>2024-09-22T10:06:11.000Z</time>
      </trkpt>
      <trkpt lat="43.03643" lon="19.0184">
        <ele>1449.8100585938</ele>
        <time>2024-09-22T10:06:12.000Z</time>
      </trkpt>
      <trkpt lat="43.0364" lon="19.01845">
        <ele>1448.8399658203</ele>
        <time>2024-09-22T10:06:13.000Z</time>
      </trkpt>
      <trkpt lat="43.03632" lon="19.01859">
        <ele>1447.4000244141</ele>
        <time>2024-09-22T10:06:14.000Z</time>
      </trkpt>
      <trkpt lat="43.03631" lon="19.01862">
        <ele>1446.9200439453</ele>
        <time>2024-09-22T10:06:15.000Z</time>
      </trkpt>
      <trkpt lat="43.03626" lon="19.01871">
        <ele>1446.4399414062</ele>
        <time>2024-09-22T10:06:16.000Z</time>
      </trkpt>
      <trkpt lat="43.03623" lon="19.01879">
        <ele>1445.9599609375</ele>
        <time>2024-09-22T10:06:17.000Z</time>
      </trkpt>
      <trkpt lat="43.0362" lon="19.01884">
        <ele>1445.9599609375</ele>
        <time>2024-09-22T10:06:18.000Z</time>
      </trkpt>
      <trkpt lat="43.03616" lon="19.01892">
        <ele>1445.9599609375</ele>
        <time>2024-09-22T10:06:19.000Z</time>
      </trkpt>
      <trkpt lat="43.03611" lon="19.01899">
        <ele>1445.4799804688</ele>
        <time>2024-09-22T10:06:20.000Z</time>
      </trkpt>
      <trkpt lat="43.03606" lon="19.01905">
        <ele>1445.4799804688</ele>
        <time>2024-09-22T10:06:21.000Z</time>
      </trkpt>
      <trkpt lat="43.03604" lon="19.01909">
        <ele>1445.4799804688</ele>
        <time>2024-09-22T10:06:22.000Z</time>
      </trkpt>
      <trkpt lat="43.03598" lon="19.0192">
        <ele>1445.4799804688</ele>
        <time>2024-09-22T10:06:23.000Z</time>
      </trkpt>
      <trkpt lat="43.03595" lon="19.01925">
        <ele>1445.4799804688</ele>
        <time>2024-09-22T10:06:24.000Z</time>
      </trkpt>
      <trkpt lat="43.0359" lon="19.01932">
        <ele>1445.9599609375</ele>
        <time>2024-09-22T10:06:25.000Z</time>
      </trkpt>
      <trkpt lat="43.03585" lon="19.01939">
        <ele>1445.9599609375</ele>
        <time>2024-09-22T10:06:26.000Z</time>
      </trkpt>
      <trkpt lat="43.03573" lon="19.01953">
        <ele>1446.4399414062</ele>
        <time>2024-09-22T10:06:28.000Z</time>
      </trkpt>
      <trkpt lat="43.03567" lon="19.0196">
        <ele>1446.4399414062</ele>
        <time>2024-09-22T10:06:29.000Z</time>
      </trkpt>
      <trkpt lat="43.03562" lon="19.01969">
        <ele>1446.9200439453</ele>
        <time>2024-09-22T10:06:30.000Z</time>
      </trkpt>
      <trkpt lat="43.03557" lon="19.01976">
        <ele>1446.9200439453</ele>
        <time>2024-09-22T10:06:31.000Z</time>
      </trkpt>
      <trkpt lat="43.03549" lon="19.01986">
        <ele>1447.4000244141</ele>
        <time>2024-09-22T10:06:32.000Z</time>
      </trkpt>
      <trkpt lat="43.03546" lon="19.0199">
        <ele>1447.4000244141</ele>
        <time>2024-09-22T10:06:33.000Z</time>
      </trkpt>
      <trkpt lat="43.0354" lon="19.01995">
        <ele>1447.4000244141</ele>
        <time>2024-09-22T10:06:34.000Z</time>
      </trkpt>
      <trkpt lat="43.03531" lon="19.02001">
        <ele>1447.4000244141</ele>
        <time>2024-09-22T10:06:35.000Z</time>
      </trkpt>
      <trkpt lat="43.03526" lon="19.02005">
        <ele>1447.4000244141</ele>
        <time>2024-09-22T10:06:36.000Z</time>
      </trkpt>
      <trkpt lat="43.03524" lon="19.02007">
        <ele>1447.4000244141</ele>
        <time>2024-09-22T10:06:37.000Z</time>
      </trkpt>
      <trkpt lat="43.0352" lon="19.02012">
        <ele>1447.4000244141</ele>
        <time>2024-09-22T10:06:38.000Z</time>
      </trkpt>
      <trkpt lat="43.03516" lon="19.02018">
        <ele>1447.8800048828</ele>
        <time>2024-09-22T10:06:39.000Z</time>
      </trkpt>
      <trkpt lat="43.03511" lon="19.02024">
        <ele>1447.8800048828</ele>
        <time>2024-09-22T10:06:40.000Z</time>
      </trkpt>
      <trkpt lat="43.03498" lon="19.02038">
        <ele>1448.3599853516</ele>
        <time>2024-09-22T10:06:42.000Z</time>
      </trkpt>
      <trkpt lat="43.03494" lon="19.02042">
        <ele>1448.3599853516</ele>
        <time>2024-09-22T10:06:43.000Z</time>
      </trkpt>
      <trkpt lat="43.0348" lon="19.0206">
        <ele>1450.7700195312</ele>
        <time>2024-09-22T10:06:45.000Z</time>
      </trkpt>
      <trkpt lat="43.03478" lon="19.02062">
        <ele>1451.25</ele>
        <time>2024-09-22T10:06:46.000Z</time>
      </trkpt>
      <trkpt lat="43.03472" lon="19.02068">
        <ele>1452.2099609375</ele>
        <time>2024-09-22T10:06:47.000Z</time>
      </trkpt>
      <trkpt lat="43.03466" lon="19.02071">
        <ele>1452.2099609375</ele>
        <time>2024-09-22T10:06:48.000Z</time>
      </trkpt>
      <trkpt lat="43.03458" lon="19.02074">
        <ele>1452.2099609375</ele>
        <time>2024-09-22T10:06:49.000Z</time>
      </trkpt>
      <trkpt lat="43.03453" lon="19.02076">
        <ele>1452.6899414062</ele>
        <time>2024-09-22T10:06:50.000Z</time>
      </trkpt>
      <trkpt lat="43.03448" lon="19.0208">
        <ele>1452.2099609375</ele>
        <time>2024-09-22T10:06:51.000Z</time>
      </trkpt>
      <trkpt lat="43.03442" lon="19.02086">
        <ele>1451.7299804688</ele>
        <time>2024-09-22T10:06:52.000Z</time>
      </trkpt>
      <trkpt lat="43.03438" lon="19.02093">
        <ele>1451.7299804688</ele>
        <time>2024-09-22T10:06:53.000Z</time>
      </trkpt>
      <trkpt lat="43.03433" lon="19.02102">
        <ele>1451.25</ele>
        <time>2024-09-22T10:06:54.000Z</time>
      </trkpt>
      <trkpt lat="43.0343" lon="19.02109">
        <ele>1450.7700195312</ele>
        <time>2024-09-22T10:06:55.000Z</time>
      </trkpt>
      <trkpt lat="43.03421" lon="19.02125">
        <ele>1450.2900390625</ele>
        <time>2024-09-22T10:06:57.000Z</time>
      </trkpt>
      <trkpt lat="43.03414" lon="19.02139">
        <ele>1448.8399658203</ele>
        <time>2024-09-22T10:06:58.000Z</time>
      </trkpt>
      <trkpt lat="43.03412" lon="19.02142">
        <ele>1448.8399658203</ele>
        <time>2024-09-22T10:06:59.000Z</time>
      </trkpt>
      <trkpt lat="43.03403" lon="19.02155">
        <ele>1448.3599853516</ele>
        <time>2024-09-22T10:07:00.000Z</time>
      </trkpt>
      <trkpt lat="43.03402" lon="19.02157">
        <ele>1448.8399658203</ele>
        <time>2024-09-22T10:07:01.000Z</time>
      </trkpt>
      <trkpt lat="43.03397" lon="19.02164">
        <ele>1449.3199462891</ele>
        <time>2024-09-22T10:07:02.000Z</time>
      </trkpt>
      <trkpt lat="43.03393" lon="19.0217">
        <ele>1449.3199462891</ele>
        <time>2024-09-22T10:07:03.000Z</time>
      </trkpt>
      <trkpt lat="43.03389" lon="19.02178">
        <ele>1449.3199462891</ele>
        <time>2024-09-22T10:07:04.000Z</time>
      </trkpt>
      <trkpt lat="43.03386" lon="19.02186">
        <ele>1448.8399658203</ele>
        <time>2024-09-22T10:07:05.000Z</time>
      </trkpt>
      <trkpt lat="43.0338" lon="19.02204">
        <ele>1448.8399658203</ele>
        <time>2024-09-22T10:07:07.000Z</time>
      </trkpt>
      <trkpt lat="43.03377" lon="19.02213">
        <ele>1448.8399658203</ele>
        <time>2024-09-22T10:07:08.000Z</time>
      </trkpt>
      <trkpt lat="43.03374" lon="19.02221">
        <ele>1448.8399658203</ele>
        <time>2024-09-22T10:07:09.000Z</time>
      </trkpt>
      <trkpt lat="43.03371" lon="19.02227">
        <ele>1449.3199462891</ele>
        <time>2024-09-22T10:07:10.000Z</time>
      </trkpt>
      <trkpt lat="43.03368" lon="19.02233">
        <ele>1449.3199462891</ele>
        <time>2024-09-22T10:07:11.000Z</time>
      </trkpt>
      <trkpt lat="43.03363" lon="19.02237">
        <ele>1448.8399658203</ele>
        <time>2024-09-22T10:07:12.000Z</time>
      </trkpt>
      <trkpt lat="43.03358" lon="19.02241">
        <ele>1447.8800048828</ele>
        <time>2024-09-22T10:07:13.000Z</time>
      </trkpt>
      <trkpt lat="43.03352" lon="19.02244">
        <ele>1447.4000244141</ele>
        <time>2024-09-22T10:07:14.000Z</time>
      </trkpt>
      <trkpt lat="43.03346" lon="19.02245">
        <ele>1445.9599609375</ele>
        <time>2024-09-22T10:07:15.000Z</time>
      </trkpt>
      <trkpt lat="43.03338" lon="19.02246">
        <ele>1444.5200195312</ele>
        <time>2024-09-22T10:07:16.000Z</time>
      </trkpt>
      <trkpt lat="43.0333" lon="19.02247">
        <ele>1443.0799560547</ele>
        <time>2024-09-22T10:07:17.000Z</time>
      </trkpt>
      <trkpt lat="43.03323" lon="19.02248">
        <ele>1442.1099853516</ele>
        <time>2024-09-22T10:07:18.000Z</time>
      </trkpt>
      <trkpt lat="43.03317" lon="19.02251">
        <ele>1442.1099853516</ele>
        <time>2024-09-22T10:07:19.000Z</time>
      </trkpt>
      <trkpt lat="43.0331" lon="19.02257">
        <ele>1441.6300048828</ele>
        <time>2024-09-22T10:07:20.000Z</time>
      </trkpt>
      <trkpt lat="43.03305" lon="19.02262">
        <ele>1441.1500244141</ele>
        <time>2024-09-22T10:07:21.000Z</time>
      </trkpt>
      <trkpt lat="43.03293" lon="19.02272">
        <ele>1440.6700439453</ele>
        <time>2024-09-22T10:07:23.000Z</time>
      </trkpt>
      <trkpt lat="43.03288" lon="19.02276">
        <ele>1440.1899414062</ele>
        <time>2024-09-22T10:07:24.000Z</time>
      </trkpt>
      <trkpt lat="43.03281" lon="19.02283">
        <ele>1439.7099609375</ele>
        <time>2024-09-22T10:07:25.000Z</time>
      </trkpt>
      <trkpt lat="43.03275" lon="19.02289">
        <ele>1439.2299804688</ele>
        <time>2024-09-22T10:07:26.000Z</time>
      </trkpt>
      <trkpt lat="43.03272" lon="19.02293">
        <ele>1439.2299804688</ele>
        <time>2024-09-22T10:07:27.000Z</time>
      </trkpt>
      <trkpt lat="43.03263" lon="19.02303">
        <ele>1438.75</ele>
        <time>2024-09-22T10:07:28.000Z</time>
      </trkpt>
      <trkpt lat="43.03261" lon="19.02305">
        <ele>1438.2700195312</ele>
        <time>2024-09-22T10:07:29.000Z</time>
      </trkpt>
      <trkpt lat="43.03255" lon="19.0231">
        <ele>1438.2700195312</ele>
        <time>2024-09-22T10:07:30.000Z</time>
      </trkpt>
      <trkpt lat="43.03247" lon="19.02314">
        <ele>1438.2700195312</ele>
        <time>2024-09-22T10:07:31.000Z</time>
      </trkpt>
      <trkpt lat="43.03241" lon="19.02316">
        <ele>1437.7900390625</ele>
        <time>2024-09-22T10:07:32.000Z</time>
      </trkpt>
      <trkpt lat="43.03234" lon="19.02319">
        <ele>1437.3100585938</ele>
        <time>2024-09-22T10:07:33.000Z</time>
      </trkpt>
      <trkpt lat="43.03226" lon="19.0232">
        <ele>1437.3100585938</ele>
        <time>2024-09-22T10:07:34.000Z</time>
      </trkpt>
      <trkpt lat="43.03222" lon="19.02321">
        <ele>1437.3100585938</ele>
        <time>2024-09-22T10:07:35.000Z</time>
      </trkpt>
      <trkpt lat="43.03217" lon="19.02322">
        <ele>1436.8299560547</ele>
        <time>2024-09-22T10:07:36.000Z</time>
      </trkpt>
      <trkpt lat="43.0321" lon="19.02322">
        <ele>1436.8299560547</ele>
        <time>2024-09-22T10:07:37.000Z</time>
      </trkpt>
      <trkpt lat="43.03207" lon="19.02322">
        <ele>1436.8299560547</ele>
        <time>2024-09-22T10:07:38.000Z</time>
      </trkpt>
      <trkpt lat="43.03201" lon="19.02323">
        <ele>1436.8299560547</ele>
        <time>2024-09-22T10:07:39.000Z</time>
      </trkpt>
      <trkpt lat="43.03183" lon="19.02327">
        <ele>1435.8699951172</ele>
        <time>2024-09-22T10:07:42.000Z</time>
      </trkpt>
      <trkpt lat="43.03178" lon="19.02329">
        <ele>1435.3900146484</ele>
        <time>2024-09-22T10:07:43.000Z</time>
      </trkpt>
      <trkpt lat="43.03171" lon="19.02333">
        <ele>1434.9100341797</ele>
        <time>2024-09-22T10:07:44.000Z</time>
      </trkpt>
      <trkpt lat="43.03159" lon="19.02343">
        <ele>1433.9399414062</ele>
        <time>2024-09-22T10:07:46.000Z</time>
      </trkpt>
      <trkpt lat="43.03154" lon="19.02346">
        <ele>1433.9399414062</ele>
        <time>2024-09-22T10:07:47.000Z</time>
      </trkpt>
      <trkpt lat="43.03147" lon="19.02349">
        <ele>1433.4599609375</ele>
        <time>2024-09-22T10:07:48.000Z</time>
      </trkpt>
      <trkpt lat="43.03139" lon="19.02352">
        <ele>1433.9399414062</ele>
        <time>2024-09-22T10:07:49.000Z</time>
      </trkpt>
      <trkpt lat="43.03134" lon="19.02355">
        <ele>1433.9399414062</ele>
        <time>2024-09-22T10:07:50.000Z</time>
      </trkpt>
      <trkpt lat="43.03127" lon="19.02359">
        <ele>1433.9399414062</ele>
        <time>2024-09-22T10:07:51.000Z</time>
      </trkpt>
      <trkpt lat="43.0312" lon="19.02363">
        <ele>1433.4599609375</ele>
        <time>2024-09-22T10:07:52.000Z</time>
      </trkpt>
      <trkpt lat="43.03114" lon="19.02367">
        <ele>1433.4599609375</ele>
        <time>2024-09-22T10:07:53.000Z</time>
      </trkpt>
      <trkpt lat="43.03108" lon="19.02373">
        <ele>1433.4599609375</ele>
        <time>2024-09-22T10:07:54.000Z</time>
      </trkpt>
      <trkpt lat="43.03103" lon="19.02378">
        <ele>1433.4599609375</ele>
        <time>2024-09-22T10:07:55.000Z</time>
      </trkpt>
      <trkpt lat="43.03093" lon="19.02383">
        <ele>1433.9399414062</ele>
        <time>2024-09-22T10:07:56.000Z</time>
      </trkpt>
      <trkpt lat="43.03089" lon="19.02385">
        <ele>1434.4200439453</ele>
        <time>2024-09-22T10:07:57.000Z</time>
      </trkpt>
      <trkpt lat="43.03083" lon="19.02389">
        <ele>1435.3900146484</ele>
        <time>2024-09-22T10:07:58.000Z</time>
      </trkpt>
      <trkpt lat="43.03078" lon="19.02393">
        <ele>1435.8699951172</ele>
        <time>2024-09-22T10:07:59.000Z</time>
      </trkpt>
      <trkpt lat="43.03071" lon="19.02396">
        <ele>1435.3900146484</ele>
        <time>2024-09-22T10:08:00.000Z</time>
      </trkpt>
      <trkpt lat="43.03064" lon="19.02399">
        <ele>1434.9100341797</ele>
        <time>2024-09-22T10:08:01.000Z</time>
      </trkpt>
      <trkpt lat="43.0306" lon="19.02402">
        <ele>1434.4200439453</ele>
        <time>2024-09-22T10:08:02.000Z</time>
      </trkpt>
      <trkpt lat="43.03053" lon="19.02405">
        <ele>1433.9399414062</ele>
        <time>2024-09-22T10:08:03.000Z</time>
      </trkpt>
      <trkpt lat="43.03039" lon="19.02412">
        <ele>1432.5</ele>
        <time>2024-09-22T10:08:05.000Z</time>
      </trkpt>
      <trkpt lat="43.03028" lon="19.02416">
        <ele>1431.5400390625</ele>
        <time>2024-09-22T10:08:06.000Z</time>
      </trkpt>
      <trkpt lat="43.03023" lon="19.02417">
        <ele>1431.0600585938</ele>
        <time>2024-09-22T10:08:07.000Z</time>
      </trkpt>
      <trkpt lat="43.03018" lon="19.02419">
        <ele>1430.5799560547</ele>
        <time>2024-09-22T10:08:08.000Z</time>
      </trkpt>
      <trkpt lat="43.03011" lon="19.02425">
        <ele>1429.6199951172</ele>
        <time>2024-09-22T10:08:09.000Z</time>
      </trkpt>
      <trkpt lat="43.03002" lon="19.02433">
        <ele>1428.6600341797</ele>
        <time>2024-09-22T10:08:10.000Z</time>
      </trkpt>
      <trkpt lat="43.02998" lon="19.02436">
        <ele>1428.1800537109</ele>
        <time>2024-09-22T10:08:11.000Z</time>
      </trkpt>
      <trkpt lat="43.02978" lon="19.02448">
        <ele>1425.7700195312</ele>
        <time>2024-09-22T10:08:13.000Z</time>
      </trkpt>
      <trkpt lat="43.0297" lon="19.02453">
        <ele>1424.8100585938</ele>
        <time>2024-09-22T10:08:14.000Z</time>
      </trkpt>
      <trkpt lat="43.02958" lon="19.0246">
        <ele>1424.3299560547</ele>
        <time>2024-09-22T10:08:16.000Z</time>
      </trkpt>
      <trkpt lat="43.02952" lon="19.02464">
        <ele>1423.8499755859</ele>
        <time>2024-09-22T10:08:17.000Z</time>
      </trkpt>
      <trkpt lat="43.02939" lon="19.0247">
        <ele>1422.4100341797</ele>
        <time>2024-09-22T10:08:18.000Z</time>
      </trkpt>
      <trkpt lat="43.02929" lon="19.02473">
        <ele>1421.9300537109</ele>
        <time>2024-09-22T10:08:19.000Z</time>
      </trkpt>
      <trkpt lat="43.02922" lon="19.02476">
        <ele>1421.9300537109</ele>
        <time>2024-09-22T10:08:20.000Z</time>
      </trkpt>
      <trkpt lat="43.02915" lon="19.0248">
        <ele>1421.4499511719</ele>
        <time>2024-09-22T10:08:21.000Z</time>
      </trkpt>
      <trkpt lat="43.02912" lon="19.02481">
        <ele>1421.4499511719</ele>
        <time>2024-09-22T10:08:22.000Z</time>
      </trkpt>
      <trkpt lat="43.02905" lon="19.02486">
        <ele>1421.4499511719</ele>
        <time>2024-09-22T10:08:23.000Z</time>
      </trkpt>
      <trkpt lat="43.02901" lon="19.02489">
        <ele>1421.4499511719</ele>
        <time>2024-09-22T10:08:24.000Z</time>
      </trkpt>
      <trkpt lat="43.02894" lon="19.02493">
        <ele>1421.4499511719</ele>
        <time>2024-09-22T10:08:25.000Z</time>
      </trkpt>
      <trkpt lat="43.02887" lon="19.02498">
        <ele>1421.4499511719</ele>
        <time>2024-09-22T10:08:26.000Z</time>
      </trkpt>
      <trkpt lat="43.0288" lon="19.02502">
        <ele>1421.9300537109</ele>
        <time>2024-09-22T10:08:27.000Z</time>
      </trkpt>
      <trkpt lat="43.02874" lon="19.02504">
        <ele>1421.9300537109</ele>
        <time>2024-09-22T10:08:28.000Z</time>
      </trkpt>
      <trkpt lat="43.02867" lon="19.02504">
        <ele>1422.4100341797</ele>
        <time>2024-09-22T10:08:29.000Z</time>
      </trkpt>
      <trkpt lat="43.02858" lon="19.02501">
        <ele>1422.4100341797</ele>
        <time>2024-09-22T10:08:30.000Z</time>
      </trkpt>
      <trkpt lat="43.02855" lon="19.02501">
        <ele>1422.4100341797</ele>
        <time>2024-09-22T10:08:31.000Z</time>
      </trkpt>
      <trkpt lat="43.02848" lon="19.025">
        <ele>1422.8900146484</ele>
        <time>2024-09-22T10:08:32.000Z</time>
      </trkpt>
      <trkpt lat="43.02842" lon="19.02502">
        <ele>1422.4100341797</ele>
        <time>2024-09-22T10:08:33.000Z</time>
      </trkpt>
      <trkpt lat="43.02836" lon="19.02507">
        <ele>1422.4100341797</ele>
        <time>2024-09-22T10:08:34.000Z</time>
      </trkpt>
      <trkpt lat="43.02829" lon="19.02516">
        <ele>1422.4100341797</ele>
        <time>2024-09-22T10:08:35.000Z</time>
      </trkpt>
      <trkpt lat="43.02826" lon="19.02519">
        <ele>1422.4100341797</ele>
        <time>2024-09-22T10:08:36.000Z</time>
      </trkpt>
      <trkpt lat="43.02822" lon="19.02527">
        <ele>1422.4100341797</ele>
        <time>2024-09-22T10:08:37.000Z</time>
      </trkpt>
      <trkpt lat="43.02819" lon="19.02534">
        <ele>1422.4100341797</ele>
        <time>2024-09-22T10:08:38.000Z</time>
      </trkpt>
      <trkpt lat="43.02815" lon="19.02543">
        <ele>1421.9300537109</ele>
        <time>2024-09-22T10:08:39.000Z</time>
      </trkpt>
      <trkpt lat="43.02813" lon="19.02548">
        <ele>1421.4499511719</ele>
        <time>2024-09-22T10:08:40.000Z</time>
      </trkpt>
      <trkpt lat="43.02809" lon="19.02554">
        <ele>1420.9699707031</ele>
        <time>2024-09-22T10:08:41.000Z</time>
      </trkpt>
      <trkpt lat="43.02803" lon="19.02559">
        <ele>1420</ele>
        <time>2024-09-22T10:08:42.000Z</time>
      </trkpt>
      <trkpt lat="43.02797" lon="19.02562">
        <ele>1419.5200195312</ele>
        <time>2024-09-22T10:08:43.000Z</time>
      </trkpt>
      <trkpt lat="43.0279" lon="19.02562">
        <ele>1419.5200195312</ele>
        <time>2024-09-22T10:08:44.000Z</time>
      </trkpt>
      <trkpt lat="43.02782" lon="19.02562">
        <ele>1419.0400390625</ele>
        <time>2024-09-22T10:08:45.000Z</time>
      </trkpt>
      <trkpt lat="43.02774" lon="19.02561">
        <ele>1419.0400390625</ele>
        <time>2024-09-22T10:08:46.000Z</time>
      </trkpt>
      <trkpt lat="43.02767" lon="19.0256">
        <ele>1419.0400390625</ele>
        <time>2024-09-22T10:08:47.000Z</time>
      </trkpt>
      <trkpt lat="43.0275" lon="19.02562">
        <ele>1418.5600585938</ele>
        <time>2024-09-22T10:08:49.000Z</time>
      </trkpt>
      <trkpt lat="43.02741" lon="19.02563">
        <ele>1418.0799560547</ele>
        <time>2024-09-22T10:08:50.000Z</time>
      </trkpt>
      <trkpt lat="43.02738" lon="19.02563">
        <ele>1418.0799560547</ele>
        <time>2024-09-22T10:08:51.000Z</time>
      </trkpt>
      <trkpt lat="43.02732" lon="19.02565">
        <ele>1418.0799560547</ele>
        <time>2024-09-22T10:08:52.000Z</time>
      </trkpt>
      <trkpt lat="43.02727" lon="19.0257">
        <ele>1418.0799560547</ele>
        <time>2024-09-22T10:08:53.000Z</time>
      </trkpt>
      <trkpt lat="43.02722" lon="19.02576">
        <ele>1418.0799560547</ele>
        <time>2024-09-22T10:08:54.000Z</time>
      </trkpt>
      <trkpt lat="43.02715" lon="19.02588">
        <ele>1418.0799560547</ele>
        <time>2024-09-22T10:08:55.000Z</time>
      </trkpt>
      <trkpt lat="43.0271" lon="19.02598">
        <ele>1418.5600585938</ele>
        <time>2024-09-22T10:08:56.000Z</time>
      </trkpt>
      <trkpt lat="43.02703" lon="19.02611">
        <ele>1419.5200195312</ele>
        <time>2024-09-22T10:08:58.000Z</time>
      </trkpt>
      <trkpt lat="43.02695" lon="19.02623">
        <ele>1419.5200195312</ele>
        <time>2024-09-22T10:08:59.000Z</time>
      </trkpt>
      <trkpt lat="43.02692" lon="19.02629">
        <ele>1419.5200195312</ele>
        <time>2024-09-22T10:09:00.000Z</time>
      </trkpt>
      <trkpt lat="43.02689" lon="19.02636">
        <ele>1419.0400390625</ele>
        <time>2024-09-22T10:09:01.000Z</time>
      </trkpt>
      <trkpt lat="43.02686" lon="19.02644">
        <ele>1418.5600585938</ele>
        <time>2024-09-22T10:09:02.000Z</time>
      </trkpt>
      <trkpt lat="43.02683" lon="19.02653">
        <ele>1417.5999755859</ele>
        <time>2024-09-22T10:09:03.000Z</time>
      </trkpt>
      <trkpt lat="43.02677" lon="19.02668">
        <ele>1416.6400146484</ele>
        <time>2024-09-22T10:09:04.000Z</time>
      </trkpt>
      <trkpt lat="43.02676" lon="19.02669">
        <ele>1416.1600341797</ele>
        <time>2024-09-22T10:09:05.000Z</time>
      </trkpt>
      <trkpt lat="43.02673" lon="19.02677">
        <ele>1415.1999511719</ele>
        <time>2024-09-22T10:09:06.000Z</time>
      </trkpt>
      <trkpt lat="43.02669" lon="19.02684">
        <ele>1414.2399902344</ele>
        <time>2024-09-22T10:09:07.000Z</time>
      </trkpt>
      <trkpt lat="43.02664" lon="19.02689">
        <ele>1413.7600097656</ele>
        <time>2024-09-22T10:09:08.000Z</time>
      </trkpt>
      <trkpt lat="43.02658" lon="19.02693">
        <ele>1413.2800292969</ele>
        <time>2024-09-22T10:09:09.000Z</time>
      </trkpt>
      <trkpt lat="43.02652" lon="19.02696">
        <ele>1412.3100585938</ele>
        <time>2024-09-22T10:09:10.000Z</time>
      </trkpt>
      <trkpt lat="43.02644" lon="19.02698">
        <ele>1412.3100585938</ele>
        <time>2024-09-22T10:09:11.000Z</time>
      </trkpt>
      <trkpt lat="43.02636" lon="19.02698">
        <ele>1411.8299560547</ele>
        <time>2024-09-22T10:09:12.000Z</time>
      </trkpt>
      <trkpt lat="43.02629" lon="19.02699">
        <ele>1411.3499755859</ele>
        <time>2024-09-22T10:09:13.000Z</time>
      </trkpt>
      <trkpt lat="43.02615" lon="19.02702">
        <ele>1411.3499755859</ele>
        <time>2024-09-22T10:09:15.000Z</time>
      </trkpt>
      <trkpt lat="43.02607" lon="19.02702">
        <ele>1411.3499755859</ele>
        <time>2024-09-22T10:09:16.000Z</time>
      </trkpt>
      <trkpt lat="43.026" lon="19.02704">
        <ele>1411.3499755859</ele>
        <time>2024-09-22T10:09:17.000Z</time>
      </trkpt>
      <trkpt lat="43.02591" lon="19.02707">
        <ele>1411.3499755859</ele>
        <time>2024-09-22T10:09:18.000Z</time>
      </trkpt>
      <trkpt lat="43.02579" lon="19.02712">
        <ele>1410.3900146484</ele>
        <time>2024-09-22T10:09:19.000Z</time>
      </trkpt>
      <trkpt lat="43.02567" lon="19.02719">
        <ele>1409.4300537109</ele>
        <time>2024-09-22T10:09:21.000Z</time>
      </trkpt>
      <trkpt lat="43.02561" lon="19.02722">
        <ele>1408.9499511719</ele>
        <time>2024-09-22T10:09:22.000Z</time>
      </trkpt>
      <trkpt lat="43.02553" lon="19.02725">
        <ele>1407.9899902344</ele>
        <time>2024-09-22T10:09:23.000Z</time>
      </trkpt>
      <trkpt lat="43.02544" lon="19.02726">
        <ele>1407.0300292969</ele>
        <time>2024-09-22T10:09:24.000Z</time>
      </trkpt>
      <trkpt lat="43.02536" lon="19.02726">
        <ele>1406.5500488281</ele>
        <time>2024-09-22T10:09:25.000Z</time>
      </trkpt>
      <trkpt lat="43.0253" lon="19.02725">
        <ele>1406.0699462891</ele>
        <time>2024-09-22T10:09:26.000Z</time>
      </trkpt>
      <trkpt lat="43.02525" lon="19.02723">
        <ele>1405.0999755859</ele>
        <time>2024-09-22T10:09:27.000Z</time>
      </trkpt>
      <trkpt lat="43.0252" lon="19.0272">
        <ele>1404.1400146484</ele>
        <time>2024-09-22T10:09:28.000Z</time>
      </trkpt>
      <trkpt lat="43.02514" lon="19.02714">
        <ele>1403.6600341797</ele>
        <time>2024-09-22T10:09:29.000Z</time>
      </trkpt>
      <trkpt lat="43.0251" lon="19.02709">
        <ele>1402.6999511719</ele>
        <time>2024-09-22T10:09:30.000Z</time>
      </trkpt>
      <trkpt lat="43.02505" lon="19.02702">
        <ele>1402.2199707031</ele>
        <time>2024-09-22T10:09:31.000Z</time>
      </trkpt>
      <trkpt lat="43.02501" lon="19.02694">
        <ele>1401.7399902344</ele>
        <time>2024-09-22T10:09:32.000Z</time>
      </trkpt>
      <trkpt lat="43.02495" lon="19.0268">
        <ele>1400.7800292969</ele>
        <time>2024-09-22T10:09:33.000Z</time>
      </trkpt>
      <trkpt lat="43.02493" lon="19.02676">
        <ele>1400.3000488281</ele>
        <time>2024-09-22T10:09:34.000Z</time>
      </trkpt>
      <trkpt lat="43.0249" lon="19.0267">
        <ele>1400.3000488281</ele>
        <time>2024-09-22T10:09:35.000Z</time>
      </trkpt>
      <trkpt lat="43.02483" lon="19.02666">
        <ele>1399.8199462891</ele>
        <time>2024-09-22T10:09:37.000Z</time>
      </trkpt>
      <trkpt lat="43.02479" lon="19.02667">
        <ele>1399.3399658203</ele>
        <time>2024-09-22T10:09:38.000Z</time>
      </trkpt>
      <trkpt lat="43.02474" lon="19.02671">
        <ele>1398.3699951172</ele>
        <time>2024-09-22T10:09:39.000Z</time>
      </trkpt>
      <trkpt lat="43.0247" lon="19.02674">
        <ele>1397.8900146484</ele>
        <time>2024-09-22T10:09:40.000Z</time>
      </trkpt>
      <trkpt lat="43.02464" lon="19.02678">
        <ele>1397.4100341797</ele>
        <time>2024-09-22T10:09:41.000Z</time>
      </trkpt>
      <trkpt lat="43.02455" lon="19.02682">
        <ele>1396.4499511719</ele>
        <time>2024-09-22T10:09:42.000Z</time>
      </trkpt>
      <trkpt lat="43.02452" lon="19.02683">
        <ele>1395.9699707031</ele>
        <time>2024-09-22T10:09:43.000Z</time>
      </trkpt>
      <trkpt lat="43.02436" lon="19.02684">
        <ele>1395.4899902344</ele>
        <time>2024-09-22T10:09:45.000Z</time>
      </trkpt>
      <trkpt lat="43.0243" lon="19.02684">
        <ele>1395.0100097656</ele>
        <time>2024-09-22T10:09:46.000Z</time>
      </trkpt>
      <trkpt lat="43.02424" lon="19.02685">
        <ele>1395.0100097656</ele>
        <time>2024-09-22T10:09:47.000Z</time>
      </trkpt>
      <trkpt lat="43.02418" lon="19.02684">
        <ele>1395.0100097656</ele>
        <time>2024-09-22T10:09:48.000Z</time>
      </trkpt>
      <trkpt lat="43.02412" lon="19.02684">
        <ele>1394.0500488281</ele>
        <time>2024-09-22T10:09:49.000Z</time>
      </trkpt>
      <trkpt lat="43.02402" lon="19.02686">
        <ele>1393.5699462891</ele>
        <time>2024-09-22T10:09:50.000Z</time>
      </trkpt>
      <trkpt lat="43.02394" lon="19.02687">
        <ele>1393.5699462891</ele>
        <time>2024-09-22T10:09:51.000Z</time>
      </trkpt>
      <trkpt lat="43.0239" lon="19.02687">
        <ele>1393.0899658203</ele>
        <time>2024-09-22T10:09:52.000Z</time>
      </trkpt>
      <trkpt lat="43.02383" lon="19.02687">
        <ele>1393.0899658203</ele>
        <time>2024-09-22T10:09:53.000Z</time>
      </trkpt>
      <trkpt lat="43.02364" lon="19.02684">
        <ele>1392.6099853516</ele>
        <time>2024-09-22T10:09:55.000Z</time>
      </trkpt>
      <trkpt lat="43.02355" lon="19.02684">
        <ele>1392.6099853516</ele>
        <time>2024-09-22T10:09:56.000Z</time>
      </trkpt>
      <trkpt lat="43.02349" lon="19.02684">
        <ele>1392.6099853516</ele>
        <time>2024-09-22T10:09:57.000Z</time>
      </trkpt>
      <trkpt lat="43.02342" lon="19.02682">
        <ele>1392.6099853516</ele>
        <time>2024-09-22T10:09:58.000Z</time>
      </trkpt>
      <trkpt lat="43.0233" lon="19.02677">
        <ele>1392.6099853516</ele>
        <time>2024-09-22T10:09:59.000Z</time>
      </trkpt>
      <trkpt lat="43.02326" lon="19.02675">
        <ele>1392.6099853516</ele>
        <time>2024-09-22T10:10:00.000Z</time>
      </trkpt>
      <trkpt lat="43.02319" lon="19.02673">
        <ele>1392.6099853516</ele>
        <time>2024-09-22T10:10:01.000Z</time>
      </trkpt>
      <trkpt lat="43.02311" lon="19.02674">
        <ele>1391.6500244141</ele>
        <time>2024-09-22T10:10:02.000Z</time>
      </trkpt>
      <trkpt lat="43.02303" lon="19.02677">
        <ele>1391.6500244141</ele>
        <time>2024-09-22T10:10:03.000Z</time>
      </trkpt>
      <trkpt lat="43.0229" lon="19.02684">
        <ele>1390.6800537109</ele>
        <time>2024-09-22T10:10:04.000Z</time>
      </trkpt>
      <trkpt lat="43.02287" lon="19.02687">
        <ele>1390.6800537109</ele>
        <time>2024-09-22T10:10:05.000Z</time>
      </trkpt>
      <trkpt lat="43.02279" lon="19.02692">
        <ele>1390.1999511719</ele>
        <time>2024-09-22T10:10:06.000Z</time>
      </trkpt>
      <trkpt lat="43.02274" lon="19.02696">
        <ele>1390.1999511719</ele>
        <time>2024-09-22T10:10:07.000Z</time>
      </trkpt>
      <trkpt lat="43.0226" lon="19.02704">
        <ele>1388.7600097656</ele>
        <time>2024-09-22T10:10:09.000Z</time>
      </trkpt>
      <trkpt lat="43.02211" lon="19.02737">
        <ele>1387.3199462891</ele>
        <time>2024-09-22T10:10:15.000Z</time>
      </trkpt>
      <trkpt lat="43.022" lon="19.02742">
        <ele>1386.8399658203</ele>
        <time>2024-09-22T10:10:16.000Z</time>
      </trkpt>
      <trkpt lat="43.02196" lon="19.02744">
        <ele>1386.8399658203</ele>
        <time>2024-09-22T10:10:17.000Z</time>
      </trkpt>
      <trkpt lat="43.02179" lon="19.02751">
        <ele>1386.3599853516</ele>
        <time>2024-09-22T10:10:19.000Z</time>
      </trkpt>
      <trkpt lat="43.02163" lon="19.02756">
        <ele>1385.8800048828</ele>
        <time>2024-09-22T10:10:20.000Z</time>
      </trkpt>
      <trkpt lat="43.02157" lon="19.02758">
        <ele>1385.4000244141</ele>
        <time>2024-09-22T10:10:21.000Z</time>
      </trkpt>
      <trkpt lat="43.02149" lon="19.02761">
        <ele>1384.9200439453</ele>
        <time>2024-09-22T10:10:22.000Z</time>
      </trkpt>
      <trkpt lat="43.02145" lon="19.02762">
        <ele>1384.9200439453</ele>
        <time>2024-09-22T10:10:23.000Z</time>
      </trkpt>
      <trkpt lat="43.02136" lon="19.02766">
        <ele>1384.4399414062</ele>
        <time>2024-09-22T10:10:24.000Z</time>
      </trkpt>
      <trkpt lat="43.02129" lon="19.0277">
        <ele>1383.9599609375</ele>
        <time>2024-09-22T10:10:25.000Z</time>
      </trkpt>
      <trkpt lat="43.02121" lon="19.02774">
        <ele>1382.9899902344</ele>
        <time>2024-09-22T10:10:26.000Z</time>
      </trkpt>
      <trkpt lat="43.02114" lon="19.02777">
        <ele>1382.0300292969</ele>
        <time>2024-09-22T10:10:27.000Z</time>
      </trkpt>
      <trkpt lat="43.02107" lon="19.02779">
        <ele>1382.0300292969</ele>
        <time>2024-09-22T10:10:28.000Z</time>
      </trkpt>
      <trkpt lat="43.02098" lon="19.0278">
        <ele>1381.0699462891</ele>
        <time>2024-09-22T10:10:29.000Z</time>
      </trkpt>
      <trkpt lat="43.02092" lon="19.02781">
        <ele>1380.5899658203</ele>
        <time>2024-09-22T10:10:30.000Z</time>
      </trkpt>
      <trkpt lat="43.02086" lon="19.02784">
        <ele>1380.1099853516</ele>
        <time>2024-09-22T10:10:31.000Z</time>
      </trkpt>
      <trkpt lat="43.02075" lon="19.02793">
        <ele>1379.1500244141</ele>
        <time>2024-09-22T10:10:32.000Z</time>
      </trkpt>
      <trkpt lat="43.02072" lon="19.02795">
        <ele>1378.6700439453</ele>
        <time>2024-09-22T10:10:33.000Z</time>
      </trkpt>
      <trkpt lat="43.02066" lon="19.02799">
        <ele>1378.1899414062</ele>
        <time>2024-09-22T10:10:34.000Z</time>
      </trkpt>
      <trkpt lat="43.0206" lon="19.02803">
        <ele>1377.2299804688</ele>
        <time>2024-09-22T10:10:35.000Z</time>
      </trkpt>
      <trkpt lat="43.02052" lon="19.02806">
        <ele>1376.75</ele>
        <time>2024-09-22T10:10:36.000Z</time>
      </trkpt>
      <trkpt lat="43.02044" lon="19.02809">
        <ele>1375.7800292969</ele>
        <time>2024-09-22T10:10:37.000Z</time>
      </trkpt>
      <trkpt lat="43.02037" lon="19.02809">
        <ele>1374.8199462891</ele>
        <time>2024-09-22T10:10:38.000Z</time>
      </trkpt>
      <trkpt lat="43.02031" lon="19.02808">
        <ele>1374.3399658203</ele>
        <time>2024-09-22T10:10:39.000Z</time>
      </trkpt>
      <trkpt lat="43.02021" lon="19.02803">
        <ele>1373.3800048828</ele>
        <time>2024-09-22T10:10:40.000Z</time>
      </trkpt>
      <trkpt lat="43.02016" lon="19.02801">
        <ele>1372.9000244141</ele>
        <time>2024-09-22T10:10:41.000Z</time>
      </trkpt>
      <trkpt lat="43.02007" lon="19.02799">
        <ele>1372.4200439453</ele>
        <time>2024-09-22T10:10:42.000Z</time>
      </trkpt>
      <trkpt lat="43.01986" lon="19.02797">
        <ele>1370.5</ele>
        <time>2024-09-22T10:10:44.000Z</time>
      </trkpt>
      <trkpt lat="43.01967" lon="19.02794">
        <ele>1369.5400390625</ele>
        <time>2024-09-22T10:10:46.000Z</time>
      </trkpt>
      <trkpt lat="43.01942" lon="19.02793">
        <ele>1368.0899658203</ele>
        <time>2024-09-22T10:10:49.000Z</time>
      </trkpt>
      <trkpt lat="43.01936" lon="19.02794">
        <ele>1368.0899658203</ele>
        <time>2024-09-22T10:10:50.000Z</time>
      </trkpt>
      <trkpt lat="43.0192" lon="19.02795">
        <ele>1368.0899658203</ele>
        <time>2024-09-22T10:10:51.000Z</time>
      </trkpt>
      <trkpt lat="43.01908" lon="19.02796">
        <ele>1367.6099853516</ele>
        <time>2024-09-22T10:10:53.000Z</time>
      </trkpt>
      <trkpt lat="43.01895" lon="19.02796">
        <ele>1367.6099853516</ele>
        <time>2024-09-22T10:10:55.000Z</time>
      </trkpt>
      <trkpt lat="43.01891" lon="19.02795">
        <ele>1367.6099853516</ele>
        <time>2024-09-22T10:10:56.000Z</time>
      </trkpt>
      <trkpt lat="43.01886" lon="19.02794">
        <ele>1368.0899658203</ele>
        <time>2024-09-22T10:10:57.000Z</time>
      </trkpt>
      <trkpt lat="43.01878" lon="19.02792">
        <ele>1368.0899658203</ele>
        <time>2024-09-22T10:10:58.000Z</time>
      </trkpt>
      <trkpt lat="43.0187" lon="19.0279">
        <ele>1368.0899658203</ele>
        <time>2024-09-22T10:10:59.000Z</time>
      </trkpt>
      <trkpt lat="43.01851" lon="19.02787">
        <ele>1368.0899658203</ele>
        <time>2024-09-22T10:11:01.000Z</time>
      </trkpt>
      <trkpt lat="43.01846" lon="19.02786">
        <ele>1367.6099853516</ele>
        <time>2024-09-22T10:11:02.000Z</time>
      </trkpt>
      <trkpt lat="43.01835" lon="19.02783">
        <ele>1366.6500244141</ele>
        <time>2024-09-22T10:11:03.000Z</time>
      </trkpt>
      <trkpt lat="43.01822" lon="19.0278">
        <ele>1365.2099609375</ele>
        <time>2024-09-22T10:11:05.000Z</time>
      </trkpt>
      <trkpt lat="43.01813" lon="19.02778">
        <ele>1364.25</ele>
        <time>2024-09-22T10:11:06.000Z</time>
      </trkpt>
      <trkpt lat="43.01807" lon="19.02777">
        <ele>1363.7700195312</ele>
        <time>2024-09-22T10:11:07.000Z</time>
      </trkpt>
      <trkpt lat="43.01799" lon="19.02778">
        <ele>1362.8100585938</ele>
        <time>2024-09-22T10:11:08.000Z</time>
      </trkpt>
      <trkpt lat="43.01791" lon="19.0278">
        <ele>1362.3299560547</ele>
        <time>2024-09-22T10:11:09.000Z</time>
      </trkpt>
      <trkpt lat="43.0178" lon="19.02786">
        <ele>1361.3599853516</ele>
        <time>2024-09-22T10:11:10.000Z</time>
      </trkpt>
      <trkpt lat="43.01775" lon="19.02789">
        <ele>1360.8800048828</ele>
        <time>2024-09-22T10:11:11.000Z</time>
      </trkpt>
      <trkpt lat="43.01762" lon="19.02794">
        <ele>1359.9200439453</ele>
        <time>2024-09-22T10:11:12.000Z</time>
      </trkpt>
      <trkpt lat="43.01756" lon="19.02796">
        <ele>1359.9200439453</ele>
        <time>2024-09-22T10:11:13.000Z</time>
      </trkpt>
      <trkpt lat="43.01749" lon="19.02798">
        <ele>1359.4399414062</ele>
        <time>2024-09-22T10:11:14.000Z</time>
      </trkpt>
      <trkpt lat="43.01709" lon="19.02802">
        <ele>1359.9200439453</ele>
        <time>2024-09-22T10:11:18.000Z</time>
      </trkpt>
      <trkpt lat="43.017" lon="19.02803">
        <ele>1360.4000244141</ele>
        <time>2024-09-22T10:11:19.000Z</time>
      </trkpt>
      <trkpt lat="43.01693" lon="19.02805">
        <ele>1360.4000244141</ele>
        <time>2024-09-22T10:11:20.000Z</time>
      </trkpt>
      <trkpt lat="43.01685" lon="19.02809">
        <ele>1360.8800048828</ele>
        <time>2024-09-22T10:11:21.000Z</time>
      </trkpt>
      <trkpt lat="43.01674" lon="19.02817">
        <ele>1361.3599853516</ele>
        <time>2024-09-22T10:11:22.000Z</time>
      </trkpt>
      <trkpt lat="43.01668" lon="19.0282">
        <ele>1361.3599853516</ele>
        <time>2024-09-22T10:11:23.000Z</time>
      </trkpt>
      <trkpt lat="43.0166" lon="19.02823">
        <ele>1360.4000244141</ele>
        <time>2024-09-22T10:11:24.000Z</time>
      </trkpt>
      <trkpt lat="43.01625" lon="19.02827">
        <ele>1357.0400390625</ele>
        <time>2024-09-22T10:11:28.000Z</time>
      </trkpt>
      <trkpt lat="43.01609" lon="19.02827">
        <ele>1355.5999755859</ele>
        <time>2024-09-22T10:11:29.000Z</time>
      </trkpt>
      <trkpt lat="43.01605" lon="19.02827">
        <ele>1355.1199951172</ele>
        <time>2024-09-22T10:11:30.000Z</time>
      </trkpt>
      <trkpt lat="43.01598" lon="19.02826">
        <ele>1355.1199951172</ele>
        <time>2024-09-22T10:11:31.000Z</time>
      </trkpt>
      <trkpt lat="43.0159" lon="19.02825">
        <ele>1354.1500244141</ele>
        <time>2024-09-22T10:11:32.000Z</time>
      </trkpt>
      <trkpt lat="43.01569" lon="19.02826">
        <ele>1352.2299804688</ele>
        <time>2024-09-22T10:11:34.000Z</time>
      </trkpt>
      <trkpt lat="43.01555" lon="19.02826">
        <ele>1351.75</ele>
        <time>2024-09-22T10:11:35.000Z</time>
      </trkpt>
      <trkpt lat="43.0155" lon="19.02825">
        <ele>1351.2700195312</ele>
        <time>2024-09-22T10:11:36.000Z</time>
      </trkpt>
      <trkpt lat="43.01532" lon="19.02823">
        <ele>1349.8299560547</ele>
        <time>2024-09-22T10:11:38.000Z</time>
      </trkpt>
      <trkpt lat="43.01526" lon="19.02822">
        <ele>1349.3499755859</ele>
        <time>2024-09-22T10:11:39.000Z</time>
      </trkpt>
      <trkpt lat="43.01508" lon="19.02817">
        <ele>1348.3900146484</ele>
        <time>2024-09-22T10:11:41.000Z</time>
      </trkpt>
      <trkpt lat="43.01493" lon="19.02814">
        <ele>1346.9399414062</ele>
        <time>2024-09-22T10:11:42.000Z</time>
      </trkpt>
      <trkpt lat="43.01478" lon="19.02811">
        <ele>1345.9799804688</ele>
        <time>2024-09-22T10:11:44.000Z</time>
      </trkpt>
      <trkpt lat="43.0147" lon="19.0281">
        <ele>1345.0200195312</ele>
        <time>2024-09-22T10:11:45.000Z</time>
      </trkpt>
      <trkpt lat="43.0146" lon="19.0281">
        <ele>1344.5400390625</ele>
        <time>2024-09-22T10:11:46.000Z</time>
      </trkpt>
      <trkpt lat="43.01453" lon="19.02811">
        <ele>1344.5400390625</ele>
        <time>2024-09-22T10:11:47.000Z</time>
      </trkpt>
      <trkpt lat="43.01443" lon="19.02814">
        <ele>1344.0600585938</ele>
        <time>2024-09-22T10:11:48.000Z</time>
      </trkpt>
      <trkpt lat="43.01435" lon="19.02816">
        <ele>1344.0600585938</ele>
        <time>2024-09-22T10:11:49.000Z</time>
      </trkpt>
      <trkpt lat="43.01428" lon="19.02817">
        <ele>1344.0600585938</ele>
        <time>2024-09-22T10:11:50.000Z</time>
      </trkpt>
      <trkpt lat="43.01421" lon="19.02817">
        <ele>1344.0600585938</ele>
        <time>2024-09-22T10:11:51.000Z</time>
      </trkpt>
      <trkpt lat="43.01414" lon="19.02817">
        <ele>1344.0600585938</ele>
        <time>2024-09-22T10:11:52.000Z</time>
      </trkpt>
      <trkpt lat="43.01378" lon="19.02811">
        <ele>1345.5</ele>
        <time>2024-09-22T10:11:55.000Z</time>
      </trkpt>
      <trkpt lat="43.01376" lon="19.02811">
        <ele>1345.5</ele>
        <time>2024-09-22T10:11:56.000Z</time>
      </trkpt>
      <trkpt lat="43.01364" lon="19.02807">
        <ele>1345.5</ele>
        <time>2024-09-22T10:11:57.000Z</time>
      </trkpt>
      <trkpt lat="43.01355" lon="19.02802">
        <ele>1345.5</ele>
        <time>2024-09-22T10:11:58.000Z</time>
      </trkpt>
      <trkpt lat="43.01345" lon="19.02799">
        <ele>1345.0200195312</ele>
        <time>2024-09-22T10:11:59.000Z</time>
      </trkpt>
      <trkpt lat="43.01327" lon="19.02795">
        <ele>1344.0600585938</ele>
        <time>2024-09-22T10:12:00.000Z</time>
      </trkpt>
      <trkpt lat="43.01324" lon="19.02795">
        <ele>1344.0600585938</ele>
        <time>2024-09-22T10:12:01.000Z</time>
      </trkpt>
      <trkpt lat="43.01309" lon="19.02792">
        <ele>1342.6199951172</ele>
        <time>2024-09-22T10:12:02.000Z</time>
      </trkpt>
      <trkpt lat="43.01304" lon="19.0279">
        <ele>1342.1400146484</ele>
        <time>2024-09-22T10:12:03.000Z</time>
      </trkpt>
      <trkpt lat="43.01297" lon="19.02788">
        <ele>1341.6600341797</ele>
        <time>2024-09-22T10:12:04.000Z</time>
      </trkpt>
      <trkpt lat="43.01287" lon="19.02784">
        <ele>1340.6999511719</ele>
        <time>2024-09-22T10:12:05.000Z</time>
      </trkpt>
      <trkpt lat="43.01279" lon="19.02778">
        <ele>1339.7299804688</ele>
        <time>2024-09-22T10:12:06.000Z</time>
      </trkpt>
      <trkpt lat="43.01263" lon="19.02764">
        <ele>1339.7299804688</ele>
        <time>2024-09-22T10:12:07.000Z</time>
      </trkpt>
      <trkpt lat="43.0126" lon="19.02761">
        <ele>1340.2199707031</ele>
        <time>2024-09-22T10:12:08.000Z</time>
      </trkpt>
      <trkpt lat="43.01248" lon="19.02751">
        <ele>1341.1800537109</ele>
        <time>2024-09-22T10:12:09.000Z</time>
      </trkpt>
      <trkpt lat="43.01241" lon="19.02747">
        <ele>1341.1800537109</ele>
        <time>2024-09-22T10:12:10.000Z</time>
      </trkpt>
      <trkpt lat="43.01231" lon="19.0274">
        <ele>1341.1800537109</ele>
        <time>2024-09-22T10:12:11.000Z</time>
      </trkpt>
      <trkpt lat="43.01226" lon="19.02736">
        <ele>1341.1800537109</ele>
        <time>2024-09-22T10:12:12.000Z</time>
      </trkpt>
      <trkpt lat="43.01219" lon="19.02733">
        <ele>1341.1800537109</ele>
        <time>2024-09-22T10:12:13.000Z</time>
      </trkpt>
      <trkpt lat="43.01212" lon="19.02731">
        <ele>1341.1800537109</ele>
        <time>2024-09-22T10:12:14.000Z</time>
      </trkpt>
      <trkpt lat="43.01204" lon="19.02732">
        <ele>1341.1800537109</ele>
        <time>2024-09-22T10:12:15.000Z</time>
      </trkpt>
      <trkpt lat="43.01196" lon="19.02735">
        <ele>1341.1800537109</ele>
        <time>2024-09-22T10:12:16.000Z</time>
      </trkpt>
      <trkpt lat="43.01187" lon="19.02741">
        <ele>1341.1800537109</ele>
        <time>2024-09-22T10:12:17.000Z</time>
      </trkpt>
      <trkpt lat="43.0118" lon="19.02744">
        <ele>1340.6999511719</ele>
        <time>2024-09-22T10:12:18.000Z</time>
      </trkpt>
      <trkpt lat="43.01171" lon="19.02746">
        <ele>1340.2199707031</ele>
        <time>2024-09-22T10:12:19.000Z</time>
      </trkpt>
      <trkpt lat="43.0114" lon="19.02749">
        <ele>1340.2199707031</ele>
        <time>2024-09-22T10:12:22.000Z</time>
      </trkpt>
      <trkpt lat="43.01131" lon="19.02749">
        <ele>1340.6999511719</ele>
        <time>2024-09-22T10:12:23.000Z</time>
      </trkpt>
      <trkpt lat="43.01113" lon="19.02749">
        <ele>1341.1800537109</ele>
        <time>2024-09-22T10:12:25.000Z</time>
      </trkpt>
      <trkpt lat="43.01105" lon="19.0275">
        <ele>1342.1400146484</ele>
        <time>2024-09-22T10:12:26.000Z</time>
      </trkpt>
      <trkpt lat="43.01094" lon="19.02752">
        <ele>1343.0999755859</ele>
        <time>2024-09-22T10:12:27.000Z</time>
      </trkpt>
      <trkpt lat="43.0109" lon="19.02754">
        <ele>1343.0999755859</ele>
        <time>2024-09-22T10:12:28.000Z</time>
      </trkpt>
      <trkpt lat="43.01083" lon="19.02757">
        <ele>1343.0999755859</ele>
        <time>2024-09-22T10:12:29.000Z</time>
      </trkpt>
      <trkpt lat="43.01075" lon="19.02763">
        <ele>1342.1400146484</ele>
        <time>2024-09-22T10:12:30.000Z</time>
      </trkpt>
      <trkpt lat="43.01068" lon="19.02769">
        <ele>1341.6600341797</ele>
        <time>2024-09-22T10:12:31.000Z</time>
      </trkpt>
      <trkpt lat="43.01061" lon="19.02779">
        <ele>1340.6999511719</ele>
        <time>2024-09-22T10:12:32.000Z</time>
      </trkpt>
      <trkpt lat="43.01057" lon="19.02783">
        <ele>1340.6999511719</ele>
        <time>2024-09-22T10:12:33.000Z</time>
      </trkpt>
      <trkpt lat="43.0105" lon="19.02788">
        <ele>1340.6999511719</ele>
        <time>2024-09-22T10:12:34.000Z</time>
      </trkpt>
      <trkpt lat="43.01021" lon="19.02798">
        <ele>1341.6600341797</ele>
        <time>2024-09-22T10:12:37.000Z</time>
      </trkpt>
      <trkpt lat="43.01014" lon="19.02801">
        <ele>1341.6600341797</ele>
        <time>2024-09-22T10:12:38.000Z</time>
      </trkpt>
      <trkpt lat="43.0101" lon="19.02803">
        <ele>1341.6600341797</ele>
        <time>2024-09-22T10:12:39.000Z</time>
      </trkpt>
      <trkpt lat="43.00984" lon="19.02816">
        <ele>1342.6199951172</ele>
        <time>2024-09-22T10:12:42.000Z</time>
      </trkpt>
      <trkpt lat="43.00981" lon="19.02818">
        <ele>1342.6199951172</ele>
        <time>2024-09-22T10:12:43.000Z</time>
      </trkpt>
      <trkpt lat="43.00974" lon="19.02823">
        <ele>1343.5799560547</ele>
        <time>2024-09-22T10:12:44.000Z</time>
      </trkpt>
      <trkpt lat="43.00969" lon="19.02828">
        <ele>1344.0600585938</ele>
        <time>2024-09-22T10:12:45.000Z</time>
      </trkpt>
      <trkpt lat="43.00964" lon="19.02837">
        <ele>1344.5400390625</ele>
        <time>2024-09-22T10:12:46.000Z</time>
      </trkpt>
      <trkpt lat="43.00962" lon="19.02842">
        <ele>1344.5400390625</ele>
        <time>2024-09-22T10:12:47.000Z</time>
      </trkpt>
      <trkpt lat="43.00956" lon="19.02848">
        <ele>1344.0600585938</ele>
        <time>2024-09-22T10:12:48.000Z</time>
      </trkpt>
      <trkpt lat="43.0095" lon="19.02853">
        <ele>1343.0999755859</ele>
        <time>2024-09-22T10:12:49.000Z</time>
      </trkpt>
      <trkpt lat="43.00943" lon="19.02858">
        <ele>1342.1400146484</ele>
        <time>2024-09-22T10:12:50.000Z</time>
      </trkpt>
      <trkpt lat="43.00936" lon="19.02863">
        <ele>1341.1800537109</ele>
        <time>2024-09-22T10:12:51.000Z</time>
      </trkpt>
      <trkpt lat="43.00926" lon="19.02867">
        <ele>1339.25</ele>
        <time>2024-09-22T10:12:52.000Z</time>
      </trkpt>
      <trkpt lat="43.00918" lon="19.0287">
        <ele>1337.8100585938</ele>
        <time>2024-09-22T10:12:53.000Z</time>
      </trkpt>
      <trkpt lat="43.00912" lon="19.02871">
        <ele>1336.8499755859</ele>
        <time>2024-09-22T10:12:54.000Z</time>
      </trkpt>
      <trkpt lat="43.00905" lon="19.02871">
        <ele>1335.8900146484</ele>
        <time>2024-09-22T10:12:55.000Z</time>
      </trkpt>
      <trkpt lat="43.00898" lon="19.0287">
        <ele>1334.9300537109</ele>
        <time>2024-09-22T10:12:56.000Z</time>
      </trkpt>
      <trkpt lat="43.0089" lon="19.02867">
        <ele>1333.9699707031</ele>
        <time>2024-09-22T10:12:57.000Z</time>
      </trkpt>
      <trkpt lat="43.00878" lon="19.02861">
        <ele>1332.5200195312</ele>
        <time>2024-09-22T10:12:58.000Z</time>
      </trkpt>
      <trkpt lat="43.00873" lon="19.02858">
        <ele>1332.5200195312</ele>
        <time>2024-09-22T10:12:59.000Z</time>
      </trkpt>
      <trkpt lat="43.00868" lon="19.02856">
        <ele>1332.0400390625</ele>
        <time>2024-09-22T10:13:00.000Z</time>
      </trkpt>
      <trkpt lat="43.0086" lon="19.02854">
        <ele>1331.0799560547</ele>
        <time>2024-09-22T10:13:01.000Z</time>
      </trkpt>
      <trkpt lat="43.00853" lon="19.02854">
        <ele>1330.5999755859</ele>
        <time>2024-09-22T10:13:02.000Z</time>
      </trkpt>
      <trkpt lat="43.00847" lon="19.02853">
        <ele>1329.1600341797</ele>
        <time>2024-09-22T10:13:03.000Z</time>
      </trkpt>
      <trkpt lat="43.00841" lon="19.02852">
        <ele>1328.1999511719</ele>
        <time>2024-09-22T10:13:04.000Z</time>
      </trkpt>
      <trkpt lat="43.00834" lon="19.02848">
        <ele>1327.2399902344</ele>
        <time>2024-09-22T10:13:05.000Z</time>
      </trkpt>
      <trkpt lat="43.00827" lon="19.02844">
        <ele>1325.8000488281</ele>
        <time>2024-09-22T10:13:06.000Z</time>
      </trkpt>
      <trkpt lat="43.00822" lon="19.02838">
        <ele>1324.8299560547</ele>
        <time>2024-09-22T10:13:07.000Z</time>
      </trkpt>
      <trkpt lat="43.00815" lon="19.02831">
        <ele>1323.8699951172</ele>
        <time>2024-09-22T10:13:08.000Z</time>
      </trkpt>
      <trkpt lat="43.00809" lon="19.02826">
        <ele>1322.9100341797</ele>
        <time>2024-09-22T10:13:09.000Z</time>
      </trkpt>
      <trkpt lat="43.00802" lon="19.02822">
        <ele>1322.4300537109</ele>
        <time>2024-09-22T10:13:10.000Z</time>
      </trkpt>
      <trkpt lat="43.00794" lon="19.02819">
        <ele>1321.4699707031</ele>
        <time>2024-09-22T10:13:11.000Z</time>
      </trkpt>
      <trkpt lat="43.00785" lon="19.02818">
        <ele>1320.5100097656</ele>
        <time>2024-09-22T10:13:12.000Z</time>
      </trkpt>
      <trkpt lat="43.00749" lon="19.02813">
        <ele>1318.5899658203</ele>
        <time>2024-09-22T10:13:16.000Z</time>
      </trkpt>
      <trkpt lat="43.00737" lon="19.0281">
        <ele>1318.0999755859</ele>
        <time>2024-09-22T10:13:17.000Z</time>
      </trkpt>
      <trkpt lat="43.00722" lon="19.02805">
        <ele>1317.6199951172</ele>
        <time>2024-09-22T10:13:18.000Z</time>
      </trkpt>
      <trkpt lat="43.00719" lon="19.02803">
        <ele>1317.6199951172</ele>
        <time>2024-09-22T10:13:19.000Z</time>
      </trkpt>
      <trkpt lat="43.00706" lon="19.02796">
        <ele>1317.6199951172</ele>
        <time>2024-09-22T10:13:20.000Z</time>
      </trkpt>
      <trkpt lat="43.00701" lon="19.02791">
        <ele>1317.6199951172</ele>
        <time>2024-09-22T10:13:21.000Z</time>
      </trkpt>
      <trkpt lat="43.00694" lon="19.02784">
        <ele>1317.6199951172</ele>
        <time>2024-09-22T10:13:22.000Z</time>
      </trkpt>
      <trkpt lat="43.00689" lon="19.02774">
        <ele>1317.6199951172</ele>
        <time>2024-09-22T10:13:23.000Z</time>
      </trkpt>
      <trkpt lat="43.00684" lon="19.02765">
        <ele>1317.6199951172</ele>
        <time>2024-09-22T10:13:24.000Z</time>
      </trkpt>
      <trkpt lat="43.0068" lon="19.02753">
        <ele>1317.6199951172</ele>
        <time>2024-09-22T10:13:25.000Z</time>
      </trkpt>
      <trkpt lat="43.00674" lon="19.02735">
        <ele>1317.1400146484</ele>
        <time>2024-09-22T10:13:26.000Z</time>
      </trkpt>
      <trkpt lat="43.00669" lon="19.02715">
        <ele>1316.6600341797</ele>
        <time>2024-09-22T10:13:28.000Z</time>
      </trkpt>
      <trkpt lat="43.00667" lon="19.02709">
        <ele>1316.1800537109</ele>
        <time>2024-09-22T10:13:29.000Z</time>
      </trkpt>
      <trkpt lat="43.00665" lon="19.02696">
        <ele>1315.6999511719</ele>
        <time>2024-09-22T10:13:30.000Z</time>
      </trkpt>
      <trkpt lat="43.00664" lon="19.02685">
        <ele>1315.2199707031</ele>
        <time>2024-09-22T10:13:31.000Z</time>
      </trkpt>
      <trkpt lat="43.00665" lon="19.02675">
        <ele>1314.2600097656</ele>
        <time>2024-09-22T10:13:32.000Z</time>
      </trkpt>
      <trkpt lat="43.00668" lon="19.0266">
        <ele>1313.3000488281</ele>
        <time>2024-09-22T10:13:33.000Z</time>
      </trkpt>
      <trkpt lat="43.00668" lon="19.02654">
        <ele>1312.8199462891</ele>
        <time>2024-09-22T10:13:34.000Z</time>
      </trkpt>
      <trkpt lat="43.00669" lon="19.02644">
        <ele>1311.8599853516</ele>
        <time>2024-09-22T10:13:35.000Z</time>
      </trkpt>
      <trkpt lat="43.00668" lon="19.02635">
        <ele>1311.3800048828</ele>
        <time>2024-09-22T10:13:36.000Z</time>
      </trkpt>
      <trkpt lat="43.00666" lon="19.02626">
        <ele>1310.4100341797</ele>
        <time>2024-09-22T10:13:37.000Z</time>
      </trkpt>
      <trkpt lat="43.00662" lon="19.02618">
        <ele>1309.4499511719</ele>
        <time>2024-09-22T10:13:38.000Z</time>
      </trkpt>
      <trkpt lat="43.00657" lon="19.02611">
        <ele>1308.4899902344</ele>
        <time>2024-09-22T10:13:39.000Z</time>
      </trkpt>
      <trkpt lat="43.00652" lon="19.02606">
        <ele>1308.0100097656</ele>
        <time>2024-09-22T10:13:40.000Z</time>
      </trkpt>
      <trkpt lat="43.00647" lon="19.02602">
        <ele>1307.5300292969</ele>
        <time>2024-09-22T10:13:41.000Z</time>
      </trkpt>
      <trkpt lat="43.00641" lon="19.02602">
        <ele>1307.5300292969</ele>
        <time>2024-09-22T10:13:42.000Z</time>
      </trkpt>
      <trkpt lat="43.00629" lon="19.02605">
        <ele>1306.5699462891</ele>
        <time>2024-09-22T10:13:43.000Z</time>
      </trkpt>
      <trkpt lat="43.00616" lon="19.02607">
        <ele>1305.6099853516</ele>
        <time>2024-09-22T10:13:45.000Z</time>
      </trkpt>
      <trkpt lat="43.00603" lon="19.0261">
        <ele>1304.6500244141</ele>
        <time>2024-09-22T10:13:47.000Z</time>
      </trkpt>
      <trkpt lat="43.00594" lon="19.02611">
        <ele>1303.6899414062</ele>
        <time>2024-09-22T10:13:48.000Z</time>
      </trkpt>
      <trkpt lat="43.00586" lon="19.02613">
        <ele>1302.7199707031</ele>
        <time>2024-09-22T10:13:49.000Z</time>
      </trkpt>
      <trkpt lat="43.00578" lon="19.02614">
        <ele>1301.2800292969</ele>
        <time>2024-09-22T10:13:50.000Z</time>
      </trkpt>
      <trkpt lat="43.0057" lon="19.02615">
        <ele>1299.8399658203</ele>
        <time>2024-09-22T10:13:51.000Z</time>
      </trkpt>
      <trkpt lat="43.0056" lon="19.02614">
        <ele>1298.8800048828</ele>
        <time>2024-09-22T10:13:52.000Z</time>
      </trkpt>
      <trkpt lat="43.00553" lon="19.02614">
        <ele>1297.9200439453</ele>
        <time>2024-09-22T10:13:53.000Z</time>
      </trkpt>
      <trkpt lat="43.0054" lon="19.02614">
        <ele>1296.9599609375</ele>
        <time>2024-09-22T10:13:54.000Z</time>
      </trkpt>
      <trkpt lat="43.00525" lon="19.02613">
        <ele>1295.5100097656</ele>
        <time>2024-09-22T10:13:56.000Z</time>
      </trkpt>
      <trkpt lat="43.00521" lon="19.02612">
        <ele>1295.0300292969</ele>
        <time>2024-09-22T10:13:57.000Z</time>
      </trkpt>
      <trkpt lat="43.00512" lon="19.02611">
        <ele>1294.0699462891</ele>
        <time>2024-09-22T10:13:58.000Z</time>
      </trkpt>
      <trkpt lat="43.00504" lon="19.02609">
        <ele>1293.1099853516</ele>
        <time>2024-09-22T10:13:59.000Z</time>
      </trkpt>
      <trkpt lat="43.00496" lon="19.02609">
        <ele>1292.6300048828</ele>
        <time>2024-09-22T10:14:00.000Z</time>
      </trkpt>
      <trkpt lat="43.00485" lon="19.02609">
        <ele>1291.6700439453</ele>
        <time>2024-09-22T10:14:01.000Z</time>
      </trkpt>
      <trkpt lat="43.00473" lon="19.0261">
        <ele>1291.1899414062</ele>
        <time>2024-09-22T10:14:02.000Z</time>
      </trkpt>
      <trkpt lat="43.00465" lon="19.02612">
        <ele>1290.7099609375</ele>
        <time>2024-09-22T10:14:03.000Z</time>
      </trkpt>
      <trkpt lat="43.00458" lon="19.02613">
        <ele>1290.2299804688</ele>
        <time>2024-09-22T10:14:04.000Z</time>
      </trkpt>
      <trkpt lat="43.00453" lon="19.02615">
        <ele>1290.2299804688</ele>
        <time>2024-09-22T10:14:05.000Z</time>
      </trkpt>
      <trkpt lat="43.00445" lon="19.02617">
        <ele>1289.75</ele>
        <time>2024-09-22T10:14:06.000Z</time>
      </trkpt>
      <trkpt lat="43.00436" lon="19.02622">
        <ele>1289.2700195312</ele>
        <time>2024-09-22T10:14:07.000Z</time>
      </trkpt>
      <trkpt lat="43.00429" lon="19.02626">
        <ele>1288.7800292969</ele>
        <time>2024-09-22T10:14:08.000Z</time>
      </trkpt>
      <trkpt lat="43.0042" lon="19.0263">
        <ele>1288.7800292969</ele>
        <time>2024-09-22T10:14:09.000Z</time>
      </trkpt>
      <trkpt lat="43.00413" lon="19.02632">
        <ele>1288.3000488281</ele>
        <time>2024-09-22T10:14:10.000Z</time>
      </trkpt>
      <trkpt lat="43.00404" lon="19.02633">
        <ele>1288.7800292969</ele>
        <time>2024-09-22T10:14:11.000Z</time>
      </trkpt>
      <trkpt lat="43.00389" lon="19.02631">
        <ele>1288.3000488281</ele>
        <time>2024-09-22T10:14:12.000Z</time>
      </trkpt>
      <trkpt lat="43.00386" lon="19.02631">
        <ele>1288.3000488281</ele>
        <time>2024-09-22T10:14:13.000Z</time>
      </trkpt>
      <trkpt lat="43.00373" lon="19.02627">
        <ele>1287.8199462891</ele>
        <time>2024-09-22T10:14:14.000Z</time>
      </trkpt>
      <trkpt lat="43.00363" lon="19.02623">
        <ele>1287.3399658203</ele>
        <time>2024-09-22T10:14:15.000Z</time>
      </trkpt>
      <trkpt lat="43.00358" lon="19.0262">
        <ele>1287.3399658203</ele>
        <time>2024-09-22T10:14:16.000Z</time>
      </trkpt>
      <trkpt lat="43.00348" lon="19.02615">
        <ele>1288.3000488281</ele>
        <time>2024-09-22T10:14:17.000Z</time>
      </trkpt>
      <trkpt lat="43.00343" lon="19.02613">
        <ele>1288.7800292969</ele>
        <time>2024-09-22T10:14:18.000Z</time>
      </trkpt>
      <trkpt lat="43.00334" lon="19.02609">
        <ele>1288.7800292969</ele>
        <time>2024-09-22T10:14:19.000Z</time>
      </trkpt>
      <trkpt lat="43.00329" lon="19.02606">
        <ele>1288.7800292969</ele>
        <time>2024-09-22T10:14:20.000Z</time>
      </trkpt>
      <trkpt lat="43.00322" lon="19.02601">
        <ele>1288.7800292969</ele>
        <time>2024-09-22T10:14:21.000Z</time>
      </trkpt>
      <trkpt lat="43.00304" lon="19.02589">
        <ele>1288.7800292969</ele>
        <time>2024-09-22T10:14:23.000Z</time>
      </trkpt>
      <trkpt lat="43.00294" lon="19.02582">
        <ele>1288.7800292969</ele>
        <time>2024-09-22T10:14:25.000Z</time>
      </trkpt>
      <trkpt lat="43.00286" lon="19.02578">
        <ele>1288.3000488281</ele>
        <time>2024-09-22T10:14:26.000Z</time>
      </trkpt>
      <trkpt lat="43.00278" lon="19.02576">
        <ele>1288.3000488281</ele>
        <time>2024-09-22T10:14:27.000Z</time>
      </trkpt>
      <trkpt lat="43.00268" lon="19.02576">
        <ele>1288.3000488281</ele>
        <time>2024-09-22T10:14:28.000Z</time>
      </trkpt>
      <trkpt lat="43.00258" lon="19.02578">
        <ele>1288.3000488281</ele>
        <time>2024-09-22T10:14:29.000Z</time>
      </trkpt>
      <trkpt lat="43.0025" lon="19.02581">
        <ele>1288.3000488281</ele>
        <time>2024-09-22T10:14:30.000Z</time>
      </trkpt>
      <trkpt lat="43.00244" lon="19.02585">
        <ele>1288.7800292969</ele>
        <time>2024-09-22T10:14:31.000Z</time>
      </trkpt>
      <trkpt lat="43.00239" lon="19.02592">
        <ele>1289.2700195312</ele>
        <time>2024-09-22T10:14:32.000Z</time>
      </trkpt>
      <trkpt lat="43.00232" lon="19.02606">
        <ele>1289.75</ele>
        <time>2024-09-22T10:14:33.000Z</time>
      </trkpt>
      <trkpt lat="43.0023" lon="19.02609">
        <ele>1289.75</ele>
        <time>2024-09-22T10:14:34.000Z</time>
      </trkpt>
      <trkpt lat="43.00225" lon="19.02616">
        <ele>1289.2700195312</ele>
        <time>2024-09-22T10:14:35.000Z</time>
      </trkpt>
      <trkpt lat="43.00219" lon="19.02623">
        <ele>1288.7800292969</ele>
        <time>2024-09-22T10:14:36.000Z</time>
      </trkpt>
      <trkpt lat="43.00212" lon="19.02628">
        <ele>1288.7800292969</ele>
        <time>2024-09-22T10:14:37.000Z</time>
      </trkpt>
      <trkpt lat="43.00205" lon="19.02633">
        <ele>1287.8199462891</ele>
        <time>2024-09-22T10:14:38.000Z</time>
      </trkpt>
      <trkpt lat="43.00189" lon="19.02642">
        <ele>1286.3800048828</ele>
        <time>2024-09-22T10:14:40.000Z</time>
      </trkpt>
      <trkpt lat="43.00184" lon="19.02645">
        <ele>1285.9000244141</ele>
        <time>2024-09-22T10:14:41.000Z</time>
      </trkpt>
      <trkpt lat="43.00174" lon="19.02649">
        <ele>1283.9799804688</ele>
        <time>2024-09-22T10:14:42.000Z</time>
      </trkpt>
      <trkpt lat="43.00168" lon="19.02652">
        <ele>1283.0200195312</ele>
        <time>2024-09-22T10:14:43.000Z</time>
      </trkpt>
      <trkpt lat="43.0016" lon="19.02655">
        <ele>1282.0600585938</ele>
        <time>2024-09-22T10:14:44.000Z</time>
      </trkpt>
      <trkpt lat="43.00153" lon="19.02659">
        <ele>1281.0899658203</ele>
        <time>2024-09-22T10:14:45.000Z</time>
      </trkpt>
      <trkpt lat="43.00149" lon="19.02661">
        <ele>1280.1300048828</ele>
        <time>2024-09-22T10:14:46.000Z</time>
      </trkpt>
      <trkpt lat="43.00144" lon="19.02666">
        <ele>1279.1700439453</ele>
        <time>2024-09-22T10:14:47.000Z</time>
      </trkpt>
      <trkpt lat="43.00139" lon="19.02673">
        <ele>1277.7299804688</ele>
        <time>2024-09-22T10:14:48.000Z</time>
      </trkpt>
      <trkpt lat="43.00133" lon="19.02684">
        <ele>1276.7700195312</ele>
        <time>2024-09-22T10:14:49.000Z</time>
      </trkpt>
      <trkpt lat="43.00131" lon="19.02686">
        <ele>1276.7700195312</ele>
        <time>2024-09-22T10:14:50.000Z</time>
      </trkpt>
      <trkpt lat="43.00127" lon="19.02692">
        <ele>1275.8100585938</ele>
        <time>2024-09-22T10:14:51.000Z</time>
      </trkpt>
      <trkpt lat="43.00122" lon="19.02696">
        <ele>1274.8499755859</ele>
        <time>2024-09-22T10:14:52.000Z</time>
      </trkpt>
      <trkpt lat="43.00116" lon="19.02699">
        <ele>1274.3599853516</ele>
        <time>2024-09-22T10:14:53.000Z</time>
      </trkpt>
      <trkpt lat="43.00111" lon="19.02701">
        <ele>1273.8800048828</ele>
        <time>2024-09-22T10:14:54.000Z</time>
      </trkpt>
      <trkpt lat="43.00105" lon="19.02701">
        <ele>1272.9200439453</ele>
        <time>2024-09-22T10:14:55.000Z</time>
      </trkpt>
      <trkpt lat="43.00099" lon="19.02702">
        <ele>1271.9599609375</ele>
        <time>2024-09-22T10:14:56.000Z</time>
      </trkpt>
      <trkpt lat="43.00088" lon="19.02705">
        <ele>1270.0400390625</ele>
        <time>2024-09-22T10:14:57.000Z</time>
      </trkpt>
      <trkpt lat="43.00086" lon="19.02705">
        <ele>1270.0400390625</ele>
        <time>2024-09-22T10:14:58.000Z</time>
      </trkpt>
      <trkpt lat="43.0008" lon="19.02707">
        <ele>1268.5999755859</ele>
        <time>2024-09-22T10:14:59.000Z</time>
      </trkpt>
      <trkpt lat="43.00073" lon="19.02711">
        <ele>1267.6400146484</ele>
        <time>2024-09-22T10:15:00.000Z</time>
      </trkpt>
      <trkpt lat="43.00068" lon="19.02716">
        <ele>1266.6700439453</ele>
        <time>2024-09-22T10:15:01.000Z</time>
      </trkpt>
      <trkpt lat="43.00062" lon="19.02724">
        <ele>1265.7099609375</ele>
        <time>2024-09-22T10:15:02.000Z</time>
      </trkpt>
      <trkpt lat="43.00055" lon="19.0273">
        <ele>1264.75</ele>
        <time>2024-09-22T10:15:03.000Z</time>
      </trkpt>
      <trkpt lat="43.0005" lon="19.02734">
        <ele>1263.7900390625</ele>
        <time>2024-09-22T10:15:04.000Z</time>
      </trkpt>
      <trkpt lat="43.00033" lon="19.0275">
        <ele>1261.3900146484</ele>
        <time>2024-09-22T10:15:06.000Z</time>
      </trkpt>
      <trkpt lat="43.00032" lon="19.02751">
        <ele>1260.9100341797</ele>
        <time>2024-09-22T10:15:07.000Z</time>
      </trkpt>
      <trkpt lat="43.00025" lon="19.02758">
        <ele>1259.9399414062</ele>
        <time>2024-09-22T10:15:08.000Z</time>
      </trkpt>
      <trkpt lat="43.00019" lon="19.02767">
        <ele>1259.4599609375</ele>
        <time>2024-09-22T10:15:09.000Z</time>
      </trkpt>
      <trkpt lat="43.00015" lon="19.02773">
        <ele>1258.5</ele>
        <time>2024-09-22T10:15:10.000Z</time>
      </trkpt>
      <trkpt lat="43.00007" lon="19.02786">
        <ele>1256.5799560547</ele>
        <time>2024-09-22T10:15:11.000Z</time>
      </trkpt>
      <trkpt lat="43.00002" lon="19.02795">
        <ele>1255.1400146484</ele>
        <time>2024-09-22T10:15:12.000Z</time>
      </trkpt>
      <trkpt lat="43" lon="19.02799">
        <ele>1254.6600341797</ele>
        <time>2024-09-22T10:15:13.000Z</time>
      </trkpt>
      <trkpt lat="42.99996" lon="19.02807">
        <ele>1253.2199707031</ele>
        <time>2024-09-22T10:15:14.000Z</time>
      </trkpt>
      <trkpt lat="42.9999" lon="19.02818">
        <ele>1251.7700195312</ele>
        <time>2024-09-22T10:15:15.000Z</time>
      </trkpt>
      <trkpt lat="42.99985" lon="19.02827">
        <ele>1250.3299560547</ele>
        <time>2024-09-22T10:15:16.000Z</time>
      </trkpt>
      <trkpt lat="42.99981" lon="19.02834">
        <ele>1249.3699951172</ele>
        <time>2024-09-22T10:15:17.000Z</time>
      </trkpt>
      <trkpt lat="42.99975" lon="19.02842">
        <ele>1247.9300537109</ele>
        <time>2024-09-22T10:15:18.000Z</time>
      </trkpt>
      <trkpt lat="42.9997" lon="19.02848">
        <ele>1247.4499511719</ele>
        <time>2024-09-22T10:15:19.000Z</time>
      </trkpt>
      <trkpt lat="42.99964" lon="19.02855">
        <ele>1246.0100097656</ele>
        <time>2024-09-22T10:15:20.000Z</time>
      </trkpt>
      <trkpt lat="42.99957" lon="19.02862">
        <ele>1245.0400390625</ele>
        <time>2024-09-22T10:15:21.000Z</time>
      </trkpt>
      <trkpt lat="42.99952" lon="19.02867">
        <ele>1244.0799560547</ele>
        <time>2024-09-22T10:15:22.000Z</time>
      </trkpt>
      <trkpt lat="42.99947" lon="19.02875">
        <ele>1242.6400146484</ele>
        <time>2024-09-22T10:15:23.000Z</time>
      </trkpt>
      <trkpt lat="42.99943" lon="19.02883">
        <ele>1241.6800537109</ele>
        <time>2024-09-22T10:15:24.000Z</time>
      </trkpt>
      <trkpt lat="42.99939" lon="19.02892">
        <ele>1240.7199707031</ele>
        <time>2024-09-22T10:15:25.000Z</time>
      </trkpt>
      <trkpt lat="42.99936" lon="19.02901">
        <ele>1240.2399902344</ele>
        <time>2024-09-22T10:15:26.000Z</time>
      </trkpt>
      <trkpt lat="42.99935" lon="19.02903">
        <ele>1239.7600097656</ele>
        <time>2024-09-22T10:15:27.000Z</time>
      </trkpt>
      <trkpt lat="42.99921" lon="19.02899">
        <ele>1237.8299560547</ele>
        <time>2024-09-22T10:15:32.000Z</time>
      </trkpt>
      <trkpt lat="42.99921" lon="19.02893">
        <ele>1237.3499755859</ele>
        <time>2024-09-22T10:15:33.000Z</time>
      </trkpt>
      <trkpt lat="42.99921" lon="19.02888">
        <ele>1236.8699951172</ele>
        <time>2024-09-22T10:15:34.000Z</time>
      </trkpt>
      <trkpt lat="42.99922" lon="19.02881">
        <ele>1236.8699951172</ele>
        <time>2024-09-22T10:15:35.000Z</time>
      </trkpt>
      <trkpt lat="42.99924" lon="19.02874">
        <ele>1236.3900146484</ele>
        <time>2024-09-22T10:15:36.000Z</time>
      </trkpt>
      <trkpt lat="42.99926" lon="19.02868">
        <ele>1235.9100341797</ele>
        <time>2024-09-22T10:15:37.000Z</time>
      </trkpt>
      <trkpt lat="42.99929" lon="19.02863">
        <ele>1235.9100341797</ele>
        <time>2024-09-22T10:15:38.000Z</time>
      </trkpt>
      <trkpt lat="42.99935" lon="19.02853">
        <ele>1235.9100341797</ele>
        <time>2024-09-22T10:15:39.000Z</time>
      </trkpt>
      <trkpt lat="42.9994" lon="19.02844">
        <ele>1235.4300537109</ele>
        <time>2024-09-22T10:15:40.000Z</time>
      </trkpt>
      <trkpt lat="42.99944" lon="19.02837">
        <ele>1234.9499511719</ele>
        <time>2024-09-22T10:15:41.000Z</time>
      </trkpt>
      <trkpt lat="42.99946" lon="19.02835">
        <ele>1234.9499511719</ele>
        <time>2024-09-22T10:15:42.000Z</time>
      </trkpt>
      <trkpt lat="42.99947" lon="19.02831">
        <ele>1234.4699707031</ele>
        <time>2024-09-22T10:15:43.000Z</time>
      </trkpt>
      <trkpt lat="42.99939" lon="19.02822">
        <ele>1234.4699707031</ele>
        <time>2024-09-22T10:15:47.000Z</time>
      </trkpt>
      <trkpt lat="42.99937" lon="19.02824">
        <ele>1233.9899902344</ele>
        <time>2024-09-22T10:15:48.000Z</time>
      </trkpt>
      <trkpt lat="42.99933" lon="19.0283">
        <ele>1233.5100097656</ele>
        <time>2024-09-22T10:15:49.000Z</time>
      </trkpt>
      <trkpt lat="42.9993" lon="19.02833">
        <ele>1233.0300292969</ele>
        <time>2024-09-22T10:15:50.000Z</time>
      </trkpt>
      <trkpt lat="42.99927" lon="19.02837">
        <ele>1232.5500488281</ele>
        <time>2024-09-22T10:15:51.000Z</time>
      </trkpt>
      <trkpt lat="42.99923" lon="19.02841">
        <ele>1232.0699462891</ele>
        <time>2024-09-22T10:15:52.000Z</time>
      </trkpt>
      <trkpt lat="42.99918" lon="19.02845">
        <ele>1231.1099853516</ele>
        <time>2024-09-22T10:15:53.000Z</time>
      </trkpt>
      <trkpt lat="42.99912" lon="19.02849">
        <ele>1230.1400146484</ele>
        <time>2024-09-22T10:15:54.000Z</time>
      </trkpt>
      <trkpt lat="42.999" lon="19.02854">
        <ele>1228.2199707031</ele>
        <time>2024-09-22T10:15:56.000Z</time>
      </trkpt>
      <trkpt lat="42.9989" lon="19.02858">
        <ele>1226.3000488281</ele>
        <time>2024-09-22T10:15:57.000Z</time>
      </trkpt>
      <trkpt lat="42.99884" lon="19.0286">
        <ele>1225.3399658203</ele>
        <time>2024-09-22T10:15:58.000Z</time>
      </trkpt>
      <trkpt lat="42.99881" lon="19.02861">
        <ele>1224.8599853516</ele>
        <time>2024-09-22T10:15:59.000Z</time>
      </trkpt>
      <trkpt lat="42.99875" lon="19.02862">
        <ele>1223.9000244141</ele>
        <time>2024-09-22T10:16:00.000Z</time>
      </trkpt>
      <trkpt lat="42.99868" lon="19.02862">
        <ele>1222.4499511719</ele>
        <time>2024-09-22T10:16:01.000Z</time>
      </trkpt>
      <trkpt lat="42.99863" lon="19.02862">
        <ele>1221.0100097656</ele>
        <time>2024-09-22T10:16:02.000Z</time>
      </trkpt>
      <trkpt lat="42.99856" lon="19.0286">
        <ele>1219.5699462891</ele>
        <time>2024-09-22T10:16:03.000Z</time>
      </trkpt>
      <trkpt lat="42.9985" lon="19.02858">
        <ele>1218.6099853516</ele>
        <time>2024-09-22T10:16:04.000Z</time>
      </trkpt>
      <trkpt lat="42.99842" lon="19.02854">
        <ele>1217.1700439453</ele>
        <time>2024-09-22T10:16:05.000Z</time>
      </trkpt>
      <trkpt lat="42.99837" lon="19.02851">
        <ele>1215.7199707031</ele>
        <time>2024-09-22T10:16:06.000Z</time>
      </trkpt>
      <trkpt lat="42.9983" lon="19.02848">
        <ele>1214.2800292969</ele>
        <time>2024-09-22T10:16:07.000Z</time>
      </trkpt>
      <trkpt lat="42.99822" lon="19.02845">
        <ele>1212.8399658203</ele>
        <time>2024-09-22T10:16:08.000Z</time>
      </trkpt>
      <trkpt lat="42.99814" lon="19.02844">
        <ele>1211.4000244141</ele>
        <time>2024-09-22T10:16:09.000Z</time>
      </trkpt>
      <trkpt lat="42.99809" lon="19.02843">
        <ele>1210.4399414062</ele>
        <time>2024-09-22T10:16:10.000Z</time>
      </trkpt>
      <trkpt lat="42.99802" lon="19.02844">
        <ele>1209.4799804688</ele>
        <time>2024-09-22T10:16:11.000Z</time>
      </trkpt>
      <trkpt lat="42.99795" lon="19.02845">
        <ele>1208.5100097656</ele>
        <time>2024-09-22T10:16:12.000Z</time>
      </trkpt>
      <trkpt lat="42.99787" lon="19.02847">
        <ele>1207.5500488281</ele>
        <time>2024-09-22T10:16:13.000Z</time>
      </trkpt>
      <trkpt lat="42.99738" lon="19.02869">
        <ele>1198.4200439453</ele>
        <time>2024-09-22T10:16:19.000Z</time>
      </trkpt>
      <trkpt lat="42.9973" lon="19.02873">
        <ele>1196.9799804688</ele>
        <time>2024-09-22T10:16:20.000Z</time>
      </trkpt>
      <trkpt lat="42.99724" lon="19.02875">
        <ele>1196.0200195312</ele>
        <time>2024-09-22T10:16:21.000Z</time>
      </trkpt>
      <trkpt lat="42.99716" lon="19.02877">
        <ele>1194.5799560547</ele>
        <time>2024-09-22T10:16:22.000Z</time>
      </trkpt>
      <trkpt lat="42.99706" lon="19.02879">
        <ele>1193.1300048828</ele>
        <time>2024-09-22T10:16:23.000Z</time>
      </trkpt>
      <trkpt lat="42.99663" lon="19.02883">
        <ele>1187.3699951172</ele>
        <time>2024-09-22T10:16:27.000Z</time>
      </trkpt>
      <trkpt lat="42.99661" lon="19.02883">
        <ele>1186.8800048828</ele>
        <time>2024-09-22T10:16:28.000Z</time>
      </trkpt>
      <trkpt lat="42.99652" lon="19.02885">
        <ele>1185.9200439453</ele>
        <time>2024-09-22T10:16:29.000Z</time>
      </trkpt>
      <trkpt lat="42.99642" lon="19.02886">
        <ele>1184</ele>
        <time>2024-09-22T10:16:30.000Z</time>
      </trkpt>
      <trkpt lat="42.99634" lon="19.02887">
        <ele>1183.0400390625</ele>
        <time>2024-09-22T10:16:31.000Z</time>
      </trkpt>
      <trkpt lat="42.99625" lon="19.02886">
        <ele>1181.5999755859</ele>
        <time>2024-09-22T10:16:32.000Z</time>
      </trkpt>
      <trkpt lat="42.99617" lon="19.02885">
        <ele>1180.6400146484</ele>
        <time>2024-09-22T10:16:33.000Z</time>
      </trkpt>
      <trkpt lat="42.99602" lon="19.0288">
        <ele>1178.7099609375</ele>
        <time>2024-09-22T10:16:34.000Z</time>
      </trkpt>
      <trkpt lat="42.99597" lon="19.02879">
        <ele>1177.75</ele>
        <time>2024-09-22T10:16:35.000Z</time>
      </trkpt>
      <trkpt lat="42.9959" lon="19.02879">
        <ele>1177.2700195312</ele>
        <time>2024-09-22T10:16:36.000Z</time>
      </trkpt>
      <trkpt lat="42.99581" lon="19.02879">
        <ele>1176.3100585938</ele>
        <time>2024-09-22T10:16:37.000Z</time>
      </trkpt>
      <trkpt lat="42.99567" lon="19.02881">
        <ele>1174.8699951172</ele>
        <time>2024-09-22T10:16:38.000Z</time>
      </trkpt>
      <trkpt lat="42.99516" lon="19.02882">
        <ele>1167.6600341797</ele>
        <time>2024-09-22T10:16:44.000Z</time>
      </trkpt>
      <trkpt lat="42.99506" lon="19.02882">
        <ele>1166.2199707031</ele>
        <time>2024-09-22T10:16:45.000Z</time>
      </trkpt>
      <trkpt lat="42.99497" lon="19.02885">
        <ele>1165.2600097656</ele>
        <time>2024-09-22T10:16:46.000Z</time>
      </trkpt>
      <trkpt lat="42.99488" lon="19.02889">
        <ele>1164.2900390625</ele>
        <time>2024-09-22T10:16:47.000Z</time>
      </trkpt>
      <trkpt lat="42.99476" lon="19.02896">
        <ele>1162.8499755859</ele>
        <time>2024-09-22T10:16:48.000Z</time>
      </trkpt>
      <trkpt lat="42.99471" lon="19.02899">
        <ele>1162.3699951172</ele>
        <time>2024-09-22T10:16:49.000Z</time>
      </trkpt>
      <trkpt lat="42.99458" lon="19.02902">
        <ele>1161.4100341797</ele>
        <time>2024-09-22T10:16:50.000Z</time>
      </trkpt>
      <trkpt lat="42.99432" lon="19.02906">
        <ele>1159.9699707031</ele>
        <time>2024-09-22T10:16:53.000Z</time>
      </trkpt>
      <trkpt lat="42.9941" lon="19.02914">
        <ele>1157.5600585938</ele>
        <time>2024-09-22T10:16:55.000Z</time>
      </trkpt>
      <trkpt lat="42.99401" lon="19.02918">
        <ele>1156.1199951172</ele>
        <time>2024-09-22T10:16:56.000Z</time>
      </trkpt>
      <trkpt lat="42.994" lon="19.02919">
        <ele>1155.6400146484</ele>
        <time>2024-09-22T10:16:57.000Z</time>
      </trkpt>
      <trkpt lat="42.9939" lon="19.02924">
        <ele>1154.1999511719</ele>
        <time>2024-09-22T10:16:58.000Z</time>
      </trkpt>
      <trkpt lat="42.99385" lon="19.02927">
        <ele>1153.2399902344</ele>
        <time>2024-09-22T10:16:59.000Z</time>
      </trkpt>
      <trkpt lat="42.99377" lon="19.0293">
        <ele>1151.8000488281</ele>
        <time>2024-09-22T10:17:00.000Z</time>
      </trkpt>
      <trkpt lat="42.99368" lon="19.0293">
        <ele>1150.3499755859</ele>
        <time>2024-09-22T10:17:01.000Z</time>
      </trkpt>
      <trkpt lat="42.99361" lon="19.02931">
        <ele>1148.9100341797</ele>
        <time>2024-09-22T10:17:02.000Z</time>
      </trkpt>
      <trkpt lat="42.9935" lon="19.02935">
        <ele>1147.9499511719</ele>
        <time>2024-09-22T10:17:03.000Z</time>
      </trkpt>
      <trkpt lat="42.99343" lon="19.02939">
        <ele>1146.9899902344</ele>
        <time>2024-09-22T10:17:04.000Z</time>
      </trkpt>
      <trkpt lat="42.99337" lon="19.02942">
        <ele>1146.0300292969</ele>
        <time>2024-09-22T10:17:05.000Z</time>
      </trkpt>
      <trkpt lat="42.99327" lon="19.02945">
        <ele>1145.0699462891</ele>
        <time>2024-09-22T10:17:06.000Z</time>
      </trkpt>
      <trkpt lat="42.99318" lon="19.02947">
        <ele>1144.5899658203</ele>
        <time>2024-09-22T10:17:07.000Z</time>
      </trkpt>
      <trkpt lat="42.993" lon="19.0295">
        <ele>1142.6600341797</ele>
        <time>2024-09-22T10:17:09.000Z</time>
      </trkpt>
      <trkpt lat="42.99294" lon="19.02951">
        <ele>1141.6999511719</ele>
        <time>2024-09-22T10:17:10.000Z</time>
      </trkpt>
      <trkpt lat="42.99284" lon="19.02953">
        <ele>1140.7399902344</ele>
        <time>2024-09-22T10:17:11.000Z</time>
      </trkpt>
      <trkpt lat="42.99274" lon="19.02954">
        <ele>1139.7800292969</ele>
        <time>2024-09-22T10:17:12.000Z</time>
      </trkpt>
      <trkpt lat="42.99267" lon="19.02954">
        <ele>1139.3000488281</ele>
        <time>2024-09-22T10:17:13.000Z</time>
      </trkpt>
      <trkpt lat="42.99253" lon="19.02953">
        <ele>1137.8599853516</ele>
        <time>2024-09-22T10:17:14.000Z</time>
      </trkpt>
      <trkpt lat="42.9925" lon="19.02953">
        <ele>1137.8599853516</ele>
        <time>2024-09-22T10:17:15.000Z</time>
      </trkpt>
      <trkpt lat="42.99241" lon="19.02954">
        <ele>1136.9000244141</ele>
        <time>2024-09-22T10:17:16.000Z</time>
      </trkpt>
      <trkpt lat="42.99234" lon="19.02956">
        <ele>1136.9000244141</ele>
        <time>2024-09-22T10:17:17.000Z</time>
      </trkpt>
      <trkpt lat="42.99226" lon="19.0296">
        <ele>1135.9399414062</ele>
        <time>2024-09-22T10:17:18.000Z</time>
      </trkpt>
      <trkpt lat="42.99222" lon="19.02964">
        <ele>1135.4499511719</ele>
        <time>2024-09-22T10:17:19.000Z</time>
      </trkpt>
      <trkpt lat="42.99217" lon="19.02969">
        <ele>1134.9699707031</ele>
        <time>2024-09-22T10:17:20.000Z</time>
      </trkpt>
      <trkpt lat="42.99212" lon="19.02975">
        <ele>1134.4899902344</ele>
        <time>2024-09-22T10:17:21.000Z</time>
      </trkpt>
      <trkpt lat="42.99205" lon="19.02989">
        <ele>1133.0500488281</ele>
        <time>2024-09-22T10:17:22.000Z</time>
      </trkpt>
      <trkpt lat="42.99204" lon="19.02991">
        <ele>1133.0500488281</ele>
        <time>2024-09-22T10:17:23.000Z</time>
      </trkpt>
      <trkpt lat="42.992" lon="19.02997">
        <ele>1132.0899658203</ele>
        <time>2024-09-22T10:17:24.000Z</time>
      </trkpt>
      <trkpt lat="42.99194" lon="19.03003">
        <ele>1131.1300048828</ele>
        <time>2024-09-22T10:17:25.000Z</time>
      </trkpt>
      <trkpt lat="42.9919" lon="19.03007">
        <ele>1131.1300048828</ele>
        <time>2024-09-22T10:17:26.000Z</time>
      </trkpt>
      <trkpt lat="42.99188" lon="19.03012">
        <ele>1131.1300048828</ele>
        <time>2024-09-22T10:17:27.000Z</time>
      </trkpt>
      <trkpt lat="42.99187" lon="19.03018">
        <ele>1130.6500244141</ele>
        <time>2024-09-22T10:17:28.000Z</time>
      </trkpt>
      <trkpt lat="42.99188" lon="19.03024">
        <ele>1130.1700439453</ele>
        <time>2024-09-22T10:17:29.000Z</time>
      </trkpt>
      <trkpt lat="42.99189" lon="19.03031">
        <ele>1129.6899414062</ele>
        <time>2024-09-22T10:17:30.000Z</time>
      </trkpt>
      <trkpt lat="42.99191" lon="19.03039">
        <ele>1129.2099609375</ele>
        <time>2024-09-22T10:17:31.000Z</time>
      </trkpt>
      <trkpt lat="42.99194" lon="19.03048">
        <ele>1128.7299804688</ele>
        <time>2024-09-22T10:17:32.000Z</time>
      </trkpt>
      <trkpt lat="42.99196" lon="19.03057">
        <ele>1128.2399902344</ele>
        <time>2024-09-22T10:17:33.000Z</time>
      </trkpt>
      <trkpt lat="42.99198" lon="19.03063">
        <ele>1127.7600097656</ele>
        <time>2024-09-22T10:17:34.000Z</time>
      </trkpt>
      <trkpt lat="42.99199" lon="19.03082">
        <ele>1126.8000488281</ele>
        <time>2024-09-22T10:17:40.000Z</time>
      </trkpt>
      <trkpt lat="42.99199" lon="19.03087">
        <ele>1128.7299804688</ele>
        <time>2024-09-22T10:17:49.000Z</time>
      </trkpt>
      <trkpt lat="42.99197" lon="19.03095">
        <ele>1129.2099609375</ele>
        <time>2024-09-22T10:17:52.000Z</time>
      </trkpt>
      <trkpt lat="42.99191" lon="19.03107">
        <ele>1129.6899414062</ele>
        <time>2024-09-22T10:17:53.000Z</time>
      </trkpt>
      <trkpt lat="42.99182" lon="19.03123">
        <ele>1129.6899414062</ele>
        <time>2024-09-22T10:17:55.000Z</time>
      </trkpt>
      <trkpt lat="42.99181" lon="19.03126">
        <ele>1129.6899414062</ele>
        <time>2024-09-22T10:17:56.000Z</time>
      </trkpt>
      <trkpt lat="42.99175" lon="19.03135">
        <ele>1129.6899414062</ele>
        <time>2024-09-22T10:17:57.000Z</time>
      </trkpt>
      <trkpt lat="42.9917" lon="19.03142">
        <ele>1129.2099609375</ele>
        <time>2024-09-22T10:17:58.000Z</time>
      </trkpt>
      <trkpt lat="42.99163" lon="19.0315">
        <ele>1128.7299804688</ele>
        <time>2024-09-22T10:17:59.000Z</time>
      </trkpt>
      <trkpt lat="42.99158" lon="19.03156">
        <ele>1128.2399902344</ele>
        <time>2024-09-22T10:18:00.000Z</time>
      </trkpt>
      <trkpt lat="42.99155" lon="19.03164">
        <ele>1126.8000488281</ele>
        <time>2024-09-22T10:18:01.000Z</time>
      </trkpt>
      <trkpt lat="42.99153" lon="19.03175">
        <ele>1125.8399658203</ele>
        <time>2024-09-22T10:18:02.000Z</time>
      </trkpt>
      <trkpt lat="42.99155" lon="19.03199">
        <ele>1124.4000244141</ele>
        <time>2024-09-22T10:18:03.000Z</time>
      </trkpt>
      <trkpt lat="42.99155" lon="19.03204">
        <ele>1123.9200439453</ele>
        <time>2024-09-22T10:18:04.000Z</time>
      </trkpt>
      <trkpt lat="42.99155" lon="19.03253">
        <ele>1123.9200439453</ele>
        <time>2024-09-22T10:18:07.000Z</time>
      </trkpt>
      <trkpt lat="42.99152" lon="19.03281">
        <ele>1125.3599853516</ele>
        <time>2024-09-22T10:18:08.000Z</time>
      </trkpt>
      <trkpt lat="42.99151" lon="19.03286">
        <ele>1125.8399658203</ele>
        <time>2024-09-22T10:18:09.000Z</time>
      </trkpt>
      <trkpt lat="42.99149" lon="19.03303">
        <ele>1127.2800292969</ele>
        <time>2024-09-22T10:18:10.000Z</time>
      </trkpt>
      <trkpt lat="42.99147" lon="19.03324">
        <ele>1126.8000488281</ele>
        <time>2024-09-22T10:18:11.000Z</time>
      </trkpt>
      <trkpt lat="42.99145" lon="19.03338">
        <ele>1127.2800292969</ele>
        <time>2024-09-22T10:18:12.000Z</time>
      </trkpt>
      <trkpt lat="42.99142" lon="19.03351">
        <ele>1128.2399902344</ele>
        <time>2024-09-22T10:18:13.000Z</time>
      </trkpt>
      <trkpt lat="42.99141" lon="19.03366">
        <ele>1130.1700439453</ele>
        <time>2024-09-22T10:18:14.000Z</time>
      </trkpt>
      <trkpt lat="42.9914" lon="19.03379">
        <ele>1130.6500244141</ele>
        <time>2024-09-22T10:18:15.000Z</time>
      </trkpt>
      <trkpt lat="42.99141" lon="19.03393">
        <ele>1131.6099853516</ele>
        <time>2024-09-22T10:18:16.000Z</time>
      </trkpt>
      <trkpt lat="42.99145" lon="19.03406">
        <ele>1131.6099853516</ele>
        <time>2024-09-22T10:18:17.000Z</time>
      </trkpt>
      <trkpt lat="42.9915" lon="19.03425">
        <ele>1131.6099853516</ele>
        <time>2024-09-22T10:18:18.000Z</time>
      </trkpt>
      <trkpt lat="42.99153" lon="19.03434">
        <ele>1131.6099853516</ele>
        <time>2024-09-22T10:18:19.000Z</time>
      </trkpt>
      <trkpt lat="42.99155" lon="19.03447">
        <ele>1131.6099853516</ele>
        <time>2024-09-22T10:18:20.000Z</time>
      </trkpt>
      <trkpt lat="42.99155" lon="19.03457">
        <ele>1131.6099853516</ele>
        <time>2024-09-22T10:18:21.000Z</time>
      </trkpt>
      <trkpt lat="42.99152" lon="19.03467">
        <ele>1132.0899658203</ele>
        <time>2024-09-22T10:18:22.000Z</time>
      </trkpt>
      <trkpt lat="42.99148" lon="19.03471">
        <ele>1132.0899658203</ele>
        <time>2024-09-22T10:18:23.000Z</time>
      </trkpt>
      <trkpt lat="42.99142" lon="19.03473">
        <ele>1132.0899658203</ele>
        <time>2024-09-22T10:18:24.000Z</time>
      </trkpt>
      <trkpt lat="42.99134" lon="19.03474">
        <ele>1132.5699462891</ele>
        <time>2024-09-22T10:18:25.000Z</time>
      </trkpt>
      <trkpt lat="42.99128" lon="19.03476">
        <ele>1132.5699462891</ele>
        <time>2024-09-22T10:18:26.000Z</time>
      </trkpt>
      <trkpt lat="42.99123" lon="19.03481">
        <ele>1132.5699462891</ele>
        <time>2024-09-22T10:18:27.000Z</time>
      </trkpt>
      <trkpt lat="42.99119" lon="19.03489">
        <ele>1132.5699462891</ele>
        <time>2024-09-22T10:18:28.000Z</time>
      </trkpt>
      <trkpt lat="42.99114" lon="19.03501">
        <ele>1132.0899658203</ele>
        <time>2024-09-22T10:18:29.000Z</time>
      </trkpt>
      <trkpt lat="42.99109" lon="19.03513">
        <ele>1131.1300048828</ele>
        <time>2024-09-22T10:18:30.000Z</time>
      </trkpt>
      <trkpt lat="42.99101" lon="19.03524">
        <ele>1130.6500244141</ele>
        <time>2024-09-22T10:18:31.000Z</time>
      </trkpt>
      <trkpt lat="42.99091" lon="19.03535">
        <ele>1130.1700439453</ele>
        <time>2024-09-22T10:18:32.000Z</time>
      </trkpt>
      <trkpt lat="42.99064" lon="19.0356">
        <ele>1127.2800292969</ele>
        <time>2024-09-22T10:18:35.000Z</time>
      </trkpt>
      <trkpt lat="42.99055" lon="19.03566">
        <ele>1125.8399658203</ele>
        <time>2024-09-22T10:18:36.000Z</time>
      </trkpt>
      <trkpt lat="42.99046" lon="19.03568">
        <ele>1124.8800048828</ele>
        <time>2024-09-22T10:18:37.000Z</time>
      </trkpt>
      <trkpt lat="42.99021" lon="19.03567">
        <ele>1123.4399414062</ele>
        <time>2024-09-22T10:18:39.000Z</time>
      </trkpt>
      <trkpt lat="42.99007" lon="19.03566">
        <ele>1122.4799804688</ele>
        <time>2024-09-22T10:18:40.000Z</time>
      </trkpt>
      <trkpt lat="42.99001" lon="19.03565">
        <ele>1122.4799804688</ele>
        <time>2024-09-22T10:18:41.000Z</time>
      </trkpt>
      <trkpt lat="42.98981" lon="19.03561">
        <ele>1121.5200195312</ele>
        <time>2024-09-22T10:18:43.000Z</time>
      </trkpt>
      <trkpt lat="42.98972" lon="19.0356">
        <ele>1121.5200195312</ele>
        <time>2024-09-22T10:18:44.000Z</time>
      </trkpt>
      <trkpt lat="42.98967" lon="19.03562">
        <ele>1121.0300292969</ele>
        <time>2024-09-22T10:18:45.000Z</time>
      </trkpt>
      <trkpt lat="42.98962" lon="19.03569">
        <ele>1120.0699462891</ele>
        <time>2024-09-22T10:18:46.000Z</time>
      </trkpt>
      <trkpt lat="42.98958" lon="19.03578">
        <ele>1119.5899658203</ele>
        <time>2024-09-22T10:18:47.000Z</time>
      </trkpt>
      <trkpt lat="42.98954" lon="19.03591">
        <ele>1118.6300048828</ele>
        <time>2024-09-22T10:18:48.000Z</time>
      </trkpt>
      <trkpt lat="42.98949" lon="19.03603">
        <ele>1117.6700439453</ele>
        <time>2024-09-22T10:18:49.000Z</time>
      </trkpt>
      <trkpt lat="42.98945" lon="19.03612">
        <ele>1117.1899414062</ele>
        <time>2024-09-22T10:18:50.000Z</time>
      </trkpt>
      <trkpt lat="42.98939" lon="19.0362">
        <ele>1116.7099609375</ele>
        <time>2024-09-22T10:18:51.000Z</time>
      </trkpt>
      <trkpt lat="42.98931" lon="19.03624">
        <ele>1116.2299804688</ele>
        <time>2024-09-22T10:18:52.000Z</time>
      </trkpt>
      <trkpt lat="42.98925" lon="19.03623">
        <ele>1115.2700195312</ele>
        <time>2024-09-22T10:18:53.000Z</time>
      </trkpt>
      <trkpt lat="42.98919" lon="19.03618">
        <ele>1114.7900390625</ele>
        <time>2024-09-22T10:18:54.000Z</time>
      </trkpt>
      <trkpt lat="42.98914" lon="19.03608">
        <ele>1113.3399658203</ele>
        <time>2024-09-22T10:18:55.000Z</time>
      </trkpt>
      <trkpt lat="42.989" lon="19.03585">
        <ele>1110.4599609375</ele>
        <time>2024-09-22T10:18:57.000Z</time>
      </trkpt>
      <trkpt lat="42.98894" lon="19.03571">
        <ele>1109.5</ele>
        <time>2024-09-22T10:18:58.000Z</time>
      </trkpt>
      <trkpt lat="42.98888" lon="19.03555">
        <ele>1108.5400390625</ele>
        <time>2024-09-22T10:18:59.000Z</time>
      </trkpt>
      <trkpt lat="42.98866" lon="19.0349">
        <ele>1102.7700195312</ele>
        <time>2024-09-22T10:19:03.000Z</time>
      </trkpt>
      <trkpt lat="42.98861" lon="19.03479">
        <ele>1102.2900390625</ele>
        <time>2024-09-22T10:19:04.000Z</time>
      </trkpt>
      <trkpt lat="42.98854" lon="19.03468">
        <ele>1101.3299560547</ele>
        <time>2024-09-22T10:19:05.000Z</time>
      </trkpt>
      <trkpt lat="42.98846" lon="19.03458">
        <ele>1100.3699951172</ele>
        <time>2024-09-22T10:19:06.000Z</time>
      </trkpt>
      <trkpt lat="42.98838" lon="19.0345">
        <ele>1099.4000244141</ele>
        <time>2024-09-22T10:19:07.000Z</time>
      </trkpt>
      <trkpt lat="42.98821" lon="19.03434">
        <ele>1097</ele>
        <time>2024-09-22T10:19:08.000Z</time>
      </trkpt>
      <trkpt lat="42.98819" lon="19.03432">
        <ele>1096.5200195312</ele>
        <time>2024-09-22T10:19:09.000Z</time>
      </trkpt>
      <trkpt lat="42.98809" lon="19.03421">
        <ele>1095.5600585938</ele>
        <time>2024-09-22T10:19:10.000Z</time>
      </trkpt>
      <trkpt lat="42.98764" lon="19.03361">
        <ele>1090.75</ele>
        <time>2024-09-22T10:19:15.000Z</time>
      </trkpt>
      <trkpt lat="42.98759" lon="19.03353">
        <ele>1090.2700195312</ele>
        <time>2024-09-22T10:19:16.000Z</time>
      </trkpt>
      <trkpt lat="42.98756" lon="19.03348">
        <ele>1089.7900390625</ele>
        <time>2024-09-22T10:19:17.000Z</time>
      </trkpt>
      <trkpt lat="42.98729" lon="19.03297">
        <ele>1084.0200195312</ele>
        <time>2024-09-22T10:19:20.000Z</time>
      </trkpt>
      <trkpt lat="42.98713" lon="19.03271">
        <ele>1081.1400146484</ele>
        <time>2024-09-22T10:19:22.000Z</time>
      </trkpt>
      <trkpt lat="42.98711" lon="19.03267">
        <ele>1081.1400146484</ele>
        <time>2024-09-22T10:19:23.000Z</time>
      </trkpt>
      <trkpt lat="42.98694" lon="19.03239">
        <ele>1079.6999511719</ele>
        <time>2024-09-22T10:19:25.000Z</time>
      </trkpt>
      <trkpt lat="42.98686" lon="19.03224">
        <ele>1078.2600097656</ele>
        <time>2024-09-22T10:19:26.000Z</time>
      </trkpt>
      <trkpt lat="42.98629" lon="19.031">
        <ele>1072.0100097656</ele>
        <time>2024-09-22T10:19:35.000Z</time>
      </trkpt>
      <trkpt lat="42.98626" lon="19.03094">
        <ele>1072.0100097656</ele>
        <time>2024-09-22T10:19:36.000Z</time>
      </trkpt>
      <trkpt lat="42.9862" lon="19.03085">
        <ele>1072.0100097656</ele>
        <time>2024-09-22T10:19:37.000Z</time>
      </trkpt>
      <trkpt lat="42.98612" lon="19.03077">
        <ele>1071.5300292969</ele>
        <time>2024-09-22T10:19:38.000Z</time>
      </trkpt>
      <trkpt lat="42.98599" lon="19.03068">
        <ele>1070.5699462891</ele>
        <time>2024-09-22T10:19:39.000Z</time>
      </trkpt>
      <trkpt lat="42.98593" lon="19.03062">
        <ele>1070.0799560547</ele>
        <time>2024-09-22T10:19:40.000Z</time>
      </trkpt>
      <trkpt lat="42.98575" lon="19.03043">
        <ele>1069.1199951172</ele>
        <time>2024-09-22T10:19:42.000Z</time>
      </trkpt>
      <trkpt lat="42.98569" lon="19.03036">
        <ele>1068.6400146484</ele>
        <time>2024-09-22T10:19:43.000Z</time>
      </trkpt>
      <trkpt lat="42.98521" lon="19.02993">
        <ele>1064.3199462891</ele>
        <time>2024-09-22T10:19:48.000Z</time>
      </trkpt>
      <trkpt lat="42.98504" lon="19.0298">
        <ele>1062.3900146484</ele>
        <time>2024-09-22T10:19:49.000Z</time>
      </trkpt>
      <trkpt lat="42.98484" lon="19.02963">
        <ele>1061.4300537109</ele>
        <time>2024-09-22T10:19:52.000Z</time>
      </trkpt>
      <trkpt lat="42.98477" lon="19.02956">
        <ele>1061.4300537109</ele>
        <time>2024-09-22T10:19:53.000Z</time>
      </trkpt>
      <trkpt lat="42.98471" lon="19.02948">
        <ele>1060.9499511719</ele>
        <time>2024-09-22T10:19:54.000Z</time>
      </trkpt>
      <trkpt lat="42.98459" lon="19.02924">
        <ele>1060.4699707031</ele>
        <time>2024-09-22T10:19:56.000Z</time>
      </trkpt>
      <trkpt lat="42.98456" lon="19.02919">
        <ele>1060.4699707031</ele>
        <time>2024-09-22T10:19:57.000Z</time>
      </trkpt>
      <trkpt lat="42.98423" lon="19.02862">
        <ele>1058.5500488281</ele>
        <time>2024-09-22T10:20:02.000Z</time>
      </trkpt>
      <trkpt lat="42.98416" lon="19.02852">
        <ele>1058.5500488281</ele>
        <time>2024-09-22T10:20:03.000Z</time>
      </trkpt>
      <trkpt lat="42.98409" lon="19.02844">
        <ele>1058.5500488281</ele>
        <time>2024-09-22T10:20:04.000Z</time>
      </trkpt>
      <trkpt lat="42.98401" lon="19.02835">
        <ele>1058.5500488281</ele>
        <time>2024-09-22T10:20:05.000Z</time>
      </trkpt>
      <trkpt lat="42.98393" lon="19.02826">
        <ele>1058.0699462891</ele>
        <time>2024-09-22T10:20:06.000Z</time>
      </trkpt>
      <trkpt lat="42.98379" lon="19.02806">
        <ele>1057.1099853516</ele>
        <time>2024-09-22T10:20:07.000Z</time>
      </trkpt>
      <trkpt lat="42.98377" lon="19.02802">
        <ele>1056.6300048828</ele>
        <time>2024-09-22T10:20:08.000Z</time>
      </trkpt>
      <trkpt lat="42.98371" lon="19.0279">
        <ele>1056.1500244141</ele>
        <time>2024-09-22T10:20:09.000Z</time>
      </trkpt>
      <trkpt lat="42.98367" lon="19.02778">
        <ele>1055.1800537109</ele>
        <time>2024-09-22T10:20:10.000Z</time>
      </trkpt>
      <trkpt lat="42.98364" lon="19.02765">
        <ele>1054.6999511719</ele>
        <time>2024-09-22T10:20:11.000Z</time>
      </trkpt>
      <trkpt lat="42.98361" lon="19.02744">
        <ele>1053.2600097656</ele>
        <time>2024-09-22T10:20:13.000Z</time>
      </trkpt>
      <trkpt lat="42.98359" lon="19.02737">
        <ele>1052.7800292969</ele>
        <time>2024-09-22T10:20:14.000Z</time>
      </trkpt>
      <trkpt lat="42.98356" lon="19.02731">
        <ele>1051.8199462891</ele>
        <time>2024-09-22T10:20:15.000Z</time>
      </trkpt>
      <trkpt lat="42.98352" lon="19.02728">
        <ele>1051.8199462891</ele>
        <time>2024-09-22T10:20:16.000Z</time>
      </trkpt>
      <trkpt lat="42.98344" lon="19.02734">
        <ele>1051.8199462891</ele>
        <time>2024-09-22T10:20:19.000Z</time>
      </trkpt>
      <trkpt lat="42.98343" lon="19.02742">
        <ele>1051.8199462891</ele>
        <time>2024-09-22T10:20:20.000Z</time>
      </trkpt>
      <trkpt lat="42.98342" lon="19.0275">
        <ele>1051.3399658203</ele>
        <time>2024-09-22T10:20:21.000Z</time>
      </trkpt>
      <trkpt lat="42.98342" lon="19.02759">
        <ele>1051.8199462891</ele>
        <time>2024-09-22T10:20:22.000Z</time>
      </trkpt>
      <trkpt lat="42.98341" lon="19.0278">
        <ele>1051.8199462891</ele>
        <time>2024-09-22T10:20:24.000Z</time>
      </trkpt>
      <trkpt lat="42.98342" lon="19.02795">
        <ele>1052.3000488281</ele>
        <time>2024-09-22T10:20:25.000Z</time>
      </trkpt>
      <trkpt lat="42.98342" lon="19.02801">
        <ele>1052.3000488281</ele>
        <time>2024-09-22T10:20:26.000Z</time>
      </trkpt>
      <trkpt lat="42.98344" lon="19.02812">
        <ele>1052.7800292969</ele>
        <time>2024-09-22T10:20:27.000Z</time>
      </trkpt>
      <trkpt lat="42.98357" lon="19.02874">
        <ele>1053.7399902344</ele>
        <time>2024-09-22T10:20:31.000Z</time>
      </trkpt>
      <trkpt lat="42.98365" lon="19.02918">
        <ele>1054.6999511719</ele>
        <time>2024-09-22T10:20:35.000Z</time>
      </trkpt>
      <trkpt lat="42.98369" lon="19.02953">
        <ele>1055.6700439453</ele>
        <time>2024-09-22T10:20:38.000Z</time>
      </trkpt>
      <trkpt lat="42.98372" lon="19.03008">
        <ele>1056.6300048828</ele>
        <time>2024-09-22T10:20:43.000Z</time>
      </trkpt>
      <trkpt lat="42.98372" lon="19.03013">
        <ele>1057.1099853516</ele>
        <time>2024-09-22T10:20:44.000Z</time>
      </trkpt>
      <trkpt lat="42.98371" lon="19.03022">
        <ele>1057.5899658203</ele>
        <time>2024-09-22T10:20:50.000Z</time>
      </trkpt>
      <trkpt lat="42.98371" lon="19.03023">
        <ele>1058.5500488281</ele>
        <time>2024-09-22T10:21:28.000Z</time>
      </trkpt>
      <trkpt lat="42.9837" lon="19.03019">
        <ele>1059.0300292969</ele>
        <time>2024-09-22T10:21:40.000Z</time>
      </trkpt>
      <trkpt lat="42.98372" lon="19.03019">
        <ele>1058.5500488281</ele>
        <time>2024-09-22T10:38:41.000Z</time>
      </trkpt>
      <trkpt lat="42.98375" lon="19.03032">
        <ele>1058.5500488281</ele>
        <time>2024-09-22T10:38:45.000Z</time>
      </trkpt>
      <trkpt lat="42.98376" lon="19.03036">
        <ele>1058.5500488281</ele>
        <time>2024-09-22T10:38:46.000Z</time>
      </trkpt>
      <trkpt lat="42.98377" lon="19.03043">
        <ele>1058.5500488281</ele>
        <time>2024-09-22T10:38:47.000Z</time>
      </trkpt>
      <trkpt lat="42.98379" lon="19.03052">
        <ele>1059.0300292969</ele>
        <time>2024-09-22T10:38:48.000Z</time>
      </trkpt>
      <trkpt lat="42.98381" lon="19.03056">
        <ele>1059.0300292969</ele>
        <time>2024-09-22T10:38:49.000Z</time>
      </trkpt>
      <trkpt lat="42.98394" lon="19.031">
        <ele>1059.5100097656</ele>
        <time>2024-09-22T10:38:58.000Z</time>
      </trkpt>
      <trkpt lat="42.98396" lon="19.03107">
        <ele>1059.5100097656</ele>
        <time>2024-09-22T10:38:59.000Z</time>
      </trkpt>
      <trkpt lat="42.98397" lon="19.03115">
        <ele>1059.9899902344</ele>
        <time>2024-09-22T10:39:00.000Z</time>
      </trkpt>
      <trkpt lat="42.98397" lon="19.03127">
        <ele>1060.4699707031</ele>
        <time>2024-09-22T10:39:01.000Z</time>
      </trkpt>
      <trkpt lat="42.98397" lon="19.03135">
        <ele>1060.4699707031</ele>
        <time>2024-09-22T10:39:02.000Z</time>
      </trkpt>
      <trkpt lat="42.98397" lon="19.03146">
        <ele>1060.4699707031</ele>
        <time>2024-09-22T10:39:03.000Z</time>
      </trkpt>
      <trkpt lat="42.98395" lon="19.03155">
        <ele>1060.4699707031</ele>
        <time>2024-09-22T10:39:04.000Z</time>
      </trkpt>
      <trkpt lat="42.98388" lon="19.03187">
        <ele>1060.9499511719</ele>
        <time>2024-09-22T10:39:06.000Z</time>
      </trkpt>
      <trkpt lat="42.98379" lon="19.03232">
        <ele>1060.9499511719</ele>
        <time>2024-09-22T10:39:11.000Z</time>
      </trkpt>
      <trkpt lat="42.98378" lon="19.03239">
        <ele>1061.4300537109</ele>
        <time>2024-09-22T10:39:12.000Z</time>
      </trkpt>
      <trkpt lat="42.98378" lon="19.03248">
        <ele>1061.4300537109</ele>
        <time>2024-09-22T10:39:13.000Z</time>
      </trkpt>
      <trkpt lat="42.98379" lon="19.03258">
        <ele>1061.9100341797</ele>
        <time>2024-09-22T10:39:14.000Z</time>
      </trkpt>
      <trkpt lat="42.98383" lon="19.03269">
        <ele>1061.9100341797</ele>
        <time>2024-09-22T10:39:15.000Z</time>
      </trkpt>
      <trkpt lat="42.98386" lon="19.03275">
        <ele>1062.3900146484</ele>
        <time>2024-09-22T10:39:16.000Z</time>
      </trkpt>
      <trkpt lat="42.9839" lon="19.03284">
        <ele>1062.3900146484</ele>
        <time>2024-09-22T10:39:17.000Z</time>
      </trkpt>
      <trkpt lat="42.98396" lon="19.03294">
        <ele>1062.8699951172</ele>
        <time>2024-09-22T10:39:18.000Z</time>
      </trkpt>
      <trkpt lat="42.98399" lon="19.03298">
        <ele>1062.8699951172</ele>
        <time>2024-09-22T10:39:19.000Z</time>
      </trkpt>
      <trkpt lat="42.98402" lon="19.03307">
        <ele>1062.8699951172</ele>
        <time>2024-09-22T10:39:20.000Z</time>
      </trkpt>
      <trkpt lat="42.98404" lon="19.03316">
        <ele>1062.8699951172</ele>
        <time>2024-09-22T10:39:21.000Z</time>
      </trkpt>
      <trkpt lat="42.98405" lon="19.03327">
        <ele>1063.3599853516</ele>
        <time>2024-09-22T10:39:22.000Z</time>
      </trkpt>
      <trkpt lat="42.98403" lon="19.03352">
        <ele>1063.8399658203</ele>
        <time>2024-09-22T10:39:24.000Z</time>
      </trkpt>
      <trkpt lat="42.984" lon="19.03374">
        <ele>1064.3199462891</ele>
        <time>2024-09-22T10:39:26.000Z</time>
      </trkpt>
      <trkpt lat="42.98391" lon="19.03411">
        <ele>1065.7600097656</ele>
        <time>2024-09-22T10:39:29.000Z</time>
      </trkpt>
      <trkpt lat="42.9839" lon="19.03416">
        <ele>1066.2399902344</ele>
        <time>2024-09-22T10:39:30.000Z</time>
      </trkpt>
      <trkpt lat="42.98388" lon="19.03426">
        <ele>1066.7199707031</ele>
        <time>2024-09-22T10:39:31.000Z</time>
      </trkpt>
      <trkpt lat="42.98387" lon="19.03436">
        <ele>1067.1999511719</ele>
        <time>2024-09-22T10:39:32.000Z</time>
      </trkpt>
      <trkpt lat="42.98387" lon="19.03442">
        <ele>1067.6800537109</ele>
        <time>2024-09-22T10:39:33.000Z</time>
      </trkpt>
      <trkpt lat="42.98392" lon="19.03465">
        <ele>1069.1199951172</ele>
        <time>2024-09-22T10:39:38.000Z</time>
      </trkpt>
      <trkpt lat="42.98394" lon="19.03473">
        <ele>1069.5999755859</ele>
        <time>2024-09-22T10:39:39.000Z</time>
      </trkpt>
      <trkpt lat="42.98397" lon="19.03491">
        <ele>1069.5999755859</ele>
        <time>2024-09-22T10:39:40.000Z</time>
      </trkpt>
      <trkpt lat="42.98398" lon="19.03495">
        <ele>1069.5999755859</ele>
        <time>2024-09-22T10:39:41.000Z</time>
      </trkpt>
      <trkpt lat="42.984" lon="19.03504">
        <ele>1069.5999755859</ele>
        <time>2024-09-22T10:39:42.000Z</time>
      </trkpt>
      <trkpt lat="42.98403" lon="19.03514">
        <ele>1069.5999755859</ele>
        <time>2024-09-22T10:39:43.000Z</time>
      </trkpt>
      <trkpt lat="42.98409" lon="19.03529">
        <ele>1070.0799560547</ele>
        <time>2024-09-22T10:39:44.000Z</time>
      </trkpt>
      <trkpt lat="42.98411" lon="19.03535">
        <ele>1070.0799560547</ele>
        <time>2024-09-22T10:39:45.000Z</time>
      </trkpt>
      <trkpt lat="42.98415" lon="19.03546">
        <ele>1070.5699462891</ele>
        <time>2024-09-22T10:39:46.000Z</time>
      </trkpt>
      <trkpt lat="42.98419" lon="19.03565">
        <ele>1072.4899902344</ele>
        <time>2024-09-22T10:39:47.000Z</time>
      </trkpt>
      <trkpt lat="42.98421" lon="19.03573">
        <ele>1073.4499511719</ele>
        <time>2024-09-22T10:39:48.000Z</time>
      </trkpt>
      <trkpt lat="42.98423" lon="19.0358">
        <ele>1073.9300537109</ele>
        <time>2024-09-22T10:39:49.000Z</time>
      </trkpt>
      <trkpt lat="42.98425" lon="19.03591">
        <ele>1074.8900146484</ele>
        <time>2024-09-22T10:39:50.000Z</time>
      </trkpt>
      <trkpt lat="42.98428" lon="19.03604">
        <ele>1075.8499755859</ele>
        <time>2024-09-22T10:39:52.000Z</time>
      </trkpt>
      <trkpt lat="42.98429" lon="19.03609">
        <ele>1076.3299560547</ele>
        <time>2024-09-22T10:39:53.000Z</time>
      </trkpt>
      <trkpt lat="42.98431" lon="19.0362">
        <ele>1076.3299560547</ele>
        <time>2024-09-22T10:39:55.000Z</time>
      </trkpt>
      <trkpt lat="42.98432" lon="19.03626">
        <ele>1076.3299560547</ele>
        <time>2024-09-22T10:39:56.000Z</time>
      </trkpt>
      <trkpt lat="42.98433" lon="19.03634">
        <ele>1076.8100585938</ele>
        <time>2024-09-22T10:39:57.000Z</time>
      </trkpt>
      <trkpt lat="42.98434" lon="19.03642">
        <ele>1076.8100585938</ele>
        <time>2024-09-22T10:39:58.000Z</time>
      </trkpt>
      <trkpt lat="42.98435" lon="19.03662">
        <ele>1077.7800292969</ele>
        <time>2024-09-22T10:40:00.000Z</time>
      </trkpt>
      <trkpt lat="42.98438" lon="19.03681">
        <ele>1078.7399902344</ele>
        <time>2024-09-22T10:40:01.000Z</time>
      </trkpt>
      <trkpt lat="42.98439" lon="19.03685">
        <ele>1079.2199707031</ele>
        <time>2024-09-22T10:40:02.000Z</time>
      </trkpt>
      <trkpt lat="42.98442" lon="19.03696">
        <ele>1079.6999511719</ele>
        <time>2024-09-22T10:40:03.000Z</time>
      </trkpt>
      <trkpt lat="42.98449" lon="19.03725">
        <ele>1082.0999755859</ele>
        <time>2024-09-22T10:40:05.000Z</time>
      </trkpt>
      <trkpt lat="42.9845" lon="19.03729">
        <ele>1082.5799560547</ele>
        <time>2024-09-22T10:40:06.000Z</time>
      </trkpt>
      <trkpt lat="42.98452" lon="19.03738">
        <ele>1083.5400390625</ele>
        <time>2024-09-22T10:40:07.000Z</time>
      </trkpt>
      <trkpt lat="42.98454" lon="19.03755">
        <ele>1084.5</ele>
        <time>2024-09-22T10:40:08.000Z</time>
      </trkpt>
      <trkpt lat="42.98455" lon="19.03759">
        <ele>1084.9899902344</ele>
        <time>2024-09-22T10:40:09.000Z</time>
      </trkpt>
      <trkpt lat="42.98457" lon="19.03772">
        <ele>1085.9499511719</ele>
        <time>2024-09-22T10:40:10.000Z</time>
      </trkpt>
      <trkpt lat="42.98474" lon="19.03839">
        <ele>1089.3100585938</ele>
        <time>2024-09-22T10:40:15.000Z</time>
      </trkpt>
      <trkpt lat="42.98476" lon="19.03847">
        <ele>1089.3100585938</ele>
        <time>2024-09-22T10:40:16.000Z</time>
      </trkpt>
      <trkpt lat="42.98478" lon="19.03863">
        <ele>1089.3100585938</ele>
        <time>2024-09-22T10:40:17.000Z</time>
      </trkpt>
      <trkpt lat="42.9848" lon="19.03878">
        <ele>1089.3100585938</ele>
        <time>2024-09-22T10:40:18.000Z</time>
      </trkpt>
      <trkpt lat="42.9848" lon="19.03904">
        <ele>1090.75</ele>
        <time>2024-09-22T10:40:19.000Z</time>
      </trkpt>
      <trkpt lat="42.9848" lon="19.03907">
        <ele>1090.75</ele>
        <time>2024-09-22T10:40:20.000Z</time>
      </trkpt>
      <trkpt lat="42.98478" lon="19.03942">
        <ele>1092.1999511719</ele>
        <time>2024-09-22T10:40:23.000Z</time>
      </trkpt>
      <trkpt lat="42.98478" lon="19.03954">
        <ele>1091.7099609375</ele>
        <time>2024-09-22T10:40:24.000Z</time>
      </trkpt>
      <trkpt lat="42.98482" lon="19.0398">
        <ele>1089.7900390625</ele>
        <time>2024-09-22T10:40:26.000Z</time>
      </trkpt>
      <trkpt lat="42.98483" lon="19.0399">
        <ele>1088.8299560547</ele>
        <time>2024-09-22T10:40:27.000Z</time>
      </trkpt>
      <trkpt lat="42.98484" lon="19.04002">
        <ele>1087.8699951172</ele>
        <time>2024-09-22T10:40:28.000Z</time>
      </trkpt>
      <trkpt lat="42.98482" lon="19.04015">
        <ele>1087.3900146484</ele>
        <time>2024-09-22T10:40:29.000Z</time>
      </trkpt>
      <trkpt lat="42.98477" lon="19.04026">
        <ele>1087.3900146484</ele>
        <time>2024-09-22T10:40:30.000Z</time>
      </trkpt>
      <trkpt lat="42.98467" lon="19.04043">
        <ele>1087.8699951172</ele>
        <time>2024-09-22T10:40:32.000Z</time>
      </trkpt>
      <trkpt lat="42.98464" lon="19.0405">
        <ele>1087.8699951172</ele>
        <time>2024-09-22T10:40:33.000Z</time>
      </trkpt>
      <trkpt lat="42.98462" lon="19.04056">
        <ele>1087.8699951172</ele>
        <time>2024-09-22T10:40:34.000Z</time>
      </trkpt>
      <trkpt lat="42.9846" lon="19.04063">
        <ele>1087.3900146484</ele>
        <time>2024-09-22T10:40:35.000Z</time>
      </trkpt>
      <trkpt lat="42.98459" lon="19.04072">
        <ele>1086.9100341797</ele>
        <time>2024-09-22T10:40:36.000Z</time>
      </trkpt>
      <trkpt lat="42.98462" lon="19.04095">
        <ele>1085.4699707031</ele>
        <time>2024-09-22T10:40:38.000Z</time>
      </trkpt>
      <trkpt lat="42.98463" lon="19.04112">
        <ele>1084.5</ele>
        <time>2024-09-22T10:40:39.000Z</time>
      </trkpt>
      <trkpt lat="42.98461" lon="19.04129">
        <ele>1084.0200195312</ele>
        <time>2024-09-22T10:40:40.000Z</time>
      </trkpt>
      <trkpt lat="42.98458" lon="19.04156">
        <ele>1083.5400390625</ele>
        <time>2024-09-22T10:40:41.000Z</time>
      </trkpt>
      <trkpt lat="42.98457" lon="19.04159">
        <ele>1083.5400390625</ele>
        <time>2024-09-22T10:40:42.000Z</time>
      </trkpt>
      <trkpt lat="42.98457" lon="19.04173">
        <ele>1083.0600585938</ele>
        <time>2024-09-22T10:40:43.000Z</time>
      </trkpt>
      <trkpt lat="42.98459" lon="19.04197">
        <ele>1082.0999755859</ele>
        <time>2024-09-22T10:40:44.000Z</time>
      </trkpt>
      <trkpt lat="42.98459" lon="19.042">
        <ele>1082.0999755859</ele>
        <time>2024-09-22T10:40:45.000Z</time>
      </trkpt>
      <trkpt lat="42.98459" lon="19.04214">
        <ele>1081.6199951172</ele>
        <time>2024-09-22T10:40:46.000Z</time>
      </trkpt>
      <trkpt lat="42.98456" lon="19.04228">
        <ele>1081.6199951172</ele>
        <time>2024-09-22T10:40:47.000Z</time>
      </trkpt>
      <trkpt lat="42.9845" lon="19.04244">
        <ele>1082.5799560547</ele>
        <time>2024-09-22T10:40:48.000Z</time>
      </trkpt>
      <trkpt lat="42.98448" lon="19.04255">
        <ele>1082.5799560547</ele>
        <time>2024-09-22T10:40:49.000Z</time>
      </trkpt>
      <trkpt lat="42.98446" lon="19.04268">
        <ele>1082.5799560547</ele>
        <time>2024-09-22T10:40:50.000Z</time>
      </trkpt>
      <trkpt lat="42.98448" lon="19.0428">
        <ele>1082.5799560547</ele>
        <time>2024-09-22T10:40:51.000Z</time>
      </trkpt>
      <trkpt lat="42.98457" lon="19.04314">
        <ele>1081.6199951172</ele>
        <time>2024-09-22T10:40:53.000Z</time>
      </trkpt>
      <trkpt lat="42.98458" lon="19.04319">
        <ele>1081.6199951172</ele>
        <time>2024-09-22T10:40:54.000Z</time>
      </trkpt>
      <trkpt lat="42.98464" lon="19.04369">
        <ele>1081.6199951172</ele>
        <time>2024-09-22T10:40:57.000Z</time>
      </trkpt>
      <trkpt lat="42.98465" lon="19.04373">
        <ele>1082.0999755859</ele>
        <time>2024-09-22T10:40:58.000Z</time>
      </trkpt>
      <trkpt lat="42.98467" lon="19.04383">
        <ele>1082.0999755859</ele>
        <time>2024-09-22T10:40:59.000Z</time>
      </trkpt>
      <trkpt lat="42.98475" lon="19.04399">
        <ele>1083.0600585938</ele>
        <time>2024-09-22T10:41:06.000Z</time>
      </trkpt>
      <trkpt lat="42.98481" lon="19.04405">
        <ele>1083.0600585938</ele>
        <time>2024-09-22T10:41:19.000Z</time>
      </trkpt>
      <trkpt lat="42.98482" lon="19.04406">
        <ele>1083.0600585938</ele>
        <time>2024-09-22T10:41:20.000Z</time>
      </trkpt>
      <trkpt lat="42.98506" lon="19.04431">
        <ele>1082.5799560547</ele>
        <time>2024-09-22T10:41:23.000Z</time>
      </trkpt>
      <trkpt lat="42.9851" lon="19.04435">
        <ele>1082.5799560547</ele>
        <time>2024-09-22T10:41:24.000Z</time>
      </trkpt>
      <trkpt lat="42.9852" lon="19.04441">
        <ele>1082.5799560547</ele>
        <time>2024-09-22T10:41:25.000Z</time>
      </trkpt>
      <trkpt lat="42.98531" lon="19.0445">
        <ele>1081.6199951172</ele>
        <time>2024-09-22T10:41:26.000Z</time>
      </trkpt>
      <trkpt lat="42.9854" lon="19.0446">
        <ele>1081.6199951172</ele>
        <time>2024-09-22T10:41:27.000Z</time>
      </trkpt>
      <trkpt lat="42.98545" lon="19.04474">
        <ele>1082.0999755859</ele>
        <time>2024-09-22T10:41:28.000Z</time>
      </trkpt>
      <trkpt lat="42.98549" lon="19.04491">
        <ele>1082.5799560547</ele>
        <time>2024-09-22T10:41:29.000Z</time>
      </trkpt>
      <trkpt lat="42.98553" lon="19.04506">
        <ele>1083.0600585938</ele>
        <time>2024-09-22T10:41:30.000Z</time>
      </trkpt>
      <trkpt lat="42.98559" lon="19.04518">
        <ele>1083.5400390625</ele>
        <time>2024-09-22T10:41:31.000Z</time>
      </trkpt>
      <trkpt lat="42.98566" lon="19.04529">
        <ele>1083.5400390625</ele>
        <time>2024-09-22T10:41:32.000Z</time>
      </trkpt>
      <trkpt lat="42.98572" lon="19.04538">
        <ele>1084.0200195312</ele>
        <time>2024-09-22T10:41:33.000Z</time>
      </trkpt>
      <trkpt lat="42.98584" lon="19.04555">
        <ele>1084.5</ele>
        <time>2024-09-22T10:41:34.000Z</time>
      </trkpt>
      <trkpt lat="42.98587" lon="19.04559">
        <ele>1084.5</ele>
        <time>2024-09-22T10:41:35.000Z</time>
      </trkpt>
      <trkpt lat="42.98592" lon="19.04567">
        <ele>1085.4699707031</ele>
        <time>2024-09-22T10:41:36.000Z</time>
      </trkpt>
      <trkpt lat="42.98596" lon="19.04576">
        <ele>1085.9499511719</ele>
        <time>2024-09-22T10:41:37.000Z</time>
      </trkpt>
      <trkpt lat="42.98599" lon="19.04582">
        <ele>1086.9100341797</ele>
        <time>2024-09-22T10:41:38.000Z</time>
      </trkpt>
      <trkpt lat="42.98601" lon="19.0459">
        <ele>1087.3900146484</ele>
        <time>2024-09-22T10:41:39.000Z</time>
      </trkpt>
      <trkpt lat="42.98601" lon="19.04597">
        <ele>1087.3900146484</ele>
        <time>2024-09-22T10:41:40.000Z</time>
      </trkpt>
      <trkpt lat="42.98598" lon="19.04603">
        <ele>1087.8699951172</ele>
        <time>2024-09-22T10:41:41.000Z</time>
      </trkpt>
      <trkpt lat="42.98593" lon="19.04607">
        <ele>1087.8699951172</ele>
        <time>2024-09-22T10:41:42.000Z</time>
      </trkpt>
      <trkpt lat="42.98586" lon="19.04608">
        <ele>1088.3499755859</ele>
        <time>2024-09-22T10:41:43.000Z</time>
      </trkpt>
      <trkpt lat="42.9858" lon="19.04606">
        <ele>1088.8299560547</ele>
        <time>2024-09-22T10:41:44.000Z</time>
      </trkpt>
      <trkpt lat="42.98573" lon="19.04602">
        <ele>1089.3100585938</ele>
        <time>2024-09-22T10:41:45.000Z</time>
      </trkpt>
      <trkpt lat="42.98569" lon="19.046">
        <ele>1089.7900390625</ele>
        <time>2024-09-22T10:41:46.000Z</time>
      </trkpt>
      <trkpt lat="42.98562" lon="19.046">
        <ele>1090.2700195312</ele>
        <time>2024-09-22T10:41:47.000Z</time>
      </trkpt>
      <trkpt lat="42.98555" lon="19.04602">
        <ele>1090.2700195312</ele>
        <time>2024-09-22T10:41:48.000Z</time>
      </trkpt>
      <trkpt lat="42.98537" lon="19.04608">
        <ele>1091.2299804688</ele>
        <time>2024-09-22T10:41:50.000Z</time>
      </trkpt>
      <trkpt lat="42.98531" lon="19.04611">
        <ele>1091.7099609375</ele>
        <time>2024-09-22T10:41:51.000Z</time>
      </trkpt>
      <trkpt lat="42.98526" lon="19.04616">
        <ele>1092.1999511719</ele>
        <time>2024-09-22T10:41:52.000Z</time>
      </trkpt>
      <trkpt lat="42.98523" lon="19.04623">
        <ele>1092.1999511719</ele>
        <time>2024-09-22T10:41:53.000Z</time>
      </trkpt>
      <trkpt lat="42.98523" lon="19.04633">
        <ele>1092.6800537109</ele>
        <time>2024-09-22T10:41:54.000Z</time>
      </trkpt>
      <trkpt lat="42.98527" lon="19.04657">
        <ele>1093.1600341797</ele>
        <time>2024-09-22T10:41:56.000Z</time>
      </trkpt>
      <trkpt lat="42.98529" lon="19.04672">
        <ele>1093.1600341797</ele>
        <time>2024-09-22T10:41:57.000Z</time>
      </trkpt>
      <trkpt lat="42.9853" lon="19.04678">
        <ele>1093.1600341797</ele>
        <time>2024-09-22T10:41:58.000Z</time>
      </trkpt>
      <trkpt lat="42.98533" lon="19.04688">
        <ele>1093.6400146484</ele>
        <time>2024-09-22T10:41:59.000Z</time>
      </trkpt>
      <trkpt lat="42.98536" lon="19.04694">
        <ele>1093.6400146484</ele>
        <time>2024-09-22T10:42:00.000Z</time>
      </trkpt>
      <trkpt lat="42.98539" lon="19.04702">
        <ele>1093.6400146484</ele>
        <time>2024-09-22T10:42:01.000Z</time>
      </trkpt>
      <trkpt lat="42.9854" lon="19.04708">
        <ele>1093.6400146484</ele>
        <time>2024-09-22T10:42:02.000Z</time>
      </trkpt>
      <trkpt lat="42.98534" lon="19.04719">
        <ele>1095.0799560547</ele>
        <time>2024-09-22T10:42:04.000Z</time>
      </trkpt>
      <trkpt lat="42.98533" lon="19.04719">
        <ele>1095.0799560547</ele>
        <time>2024-09-22T10:42:05.000Z</time>
      </trkpt>
      <trkpt lat="42.98525" lon="19.04719">
        <ele>1095.5600585938</ele>
        <time>2024-09-22T10:42:06.000Z</time>
      </trkpt>
      <trkpt lat="42.98523" lon="19.04719">
        <ele>1095.5600585938</ele>
        <time>2024-09-22T10:42:07.000Z</time>
      </trkpt>
      <trkpt lat="42.98518" lon="19.0472">
        <ele>1095.5600585938</ele>
        <time>2024-09-22T10:42:08.000Z</time>
      </trkpt>
      <trkpt lat="42.98513" lon="19.04724">
        <ele>1096.0400390625</ele>
        <time>2024-09-22T10:42:09.000Z</time>
      </trkpt>
      <trkpt lat="42.98506" lon="19.04733">
        <ele>1096.0400390625</ele>
        <time>2024-09-22T10:42:10.000Z</time>
      </trkpt>
      <trkpt lat="42.98503" lon="19.04738">
        <ele>1096.5200195312</ele>
        <time>2024-09-22T10:42:11.000Z</time>
      </trkpt>
      <trkpt lat="42.98499" lon="19.04746">
        <ele>1097.4799804688</ele>
        <time>2024-09-22T10:42:12.000Z</time>
      </trkpt>
      <trkpt lat="42.98496" lon="19.04753">
        <ele>1098.4399414062</ele>
        <time>2024-09-22T10:42:13.000Z</time>
      </trkpt>
      <trkpt lat="42.98496" lon="19.04763">
        <ele>1098.9200439453</ele>
        <time>2024-09-22T10:42:14.000Z</time>
      </trkpt>
      <trkpt lat="42.98498" lon="19.04774">
        <ele>1098.9200439453</ele>
        <time>2024-09-22T10:42:15.000Z</time>
      </trkpt>
      <trkpt lat="42.98502" lon="19.04786">
        <ele>1099.4000244141</ele>
        <time>2024-09-22T10:42:16.000Z</time>
      </trkpt>
      <trkpt lat="42.98508" lon="19.04799">
        <ele>1099.4000244141</ele>
        <time>2024-09-22T10:42:17.000Z</time>
      </trkpt>
      <trkpt lat="42.98512" lon="19.04809">
        <ele>1099.8900146484</ele>
        <time>2024-09-22T10:42:18.000Z</time>
      </trkpt>
      <trkpt lat="42.98515" lon="19.04822">
        <ele>1100.3699951172</ele>
        <time>2024-09-22T10:42:19.000Z</time>
      </trkpt>
      <trkpt lat="42.98518" lon="19.04836">
        <ele>1100.8499755859</ele>
        <time>2024-09-22T10:42:20.000Z</time>
      </trkpt>
      <trkpt lat="42.98517" lon="19.04848">
        <ele>1101.3299560547</ele>
        <time>2024-09-22T10:42:21.000Z</time>
      </trkpt>
      <trkpt lat="42.98515" lon="19.04858">
        <ele>1101.8100585938</ele>
        <time>2024-09-22T10:42:22.000Z</time>
      </trkpt>
      <trkpt lat="42.98512" lon="19.04871">
        <ele>1102.2900390625</ele>
        <time>2024-09-22T10:42:23.000Z</time>
      </trkpt>
      <trkpt lat="42.98511" lon="19.04884">
        <ele>1102.2900390625</ele>
        <time>2024-09-22T10:42:24.000Z</time>
      </trkpt>
      <trkpt lat="42.9851" lon="19.04897">
        <ele>1102.2900390625</ele>
        <time>2024-09-22T10:42:25.000Z</time>
      </trkpt>
      <trkpt lat="42.98511" lon="19.04911">
        <ele>1101.8100585938</ele>
        <time>2024-09-22T10:42:26.000Z</time>
      </trkpt>
      <trkpt lat="42.98513" lon="19.04928">
        <ele>1101.8100585938</ele>
        <time>2024-09-22T10:42:27.000Z</time>
      </trkpt>
      <trkpt lat="42.98514" lon="19.04936">
        <ele>1101.8100585938</ele>
        <time>2024-09-22T10:42:28.000Z</time>
      </trkpt>
      <trkpt lat="42.98516" lon="19.04946">
        <ele>1101.3299560547</ele>
        <time>2024-09-22T10:42:29.000Z</time>
      </trkpt>
      <trkpt lat="42.98519" lon="19.04957">
        <ele>1100.8499755859</ele>
        <time>2024-09-22T10:42:30.000Z</time>
      </trkpt>
      <trkpt lat="42.98521" lon="19.04964">
        <ele>1100.8499755859</ele>
        <time>2024-09-22T10:42:31.000Z</time>
      </trkpt>
      <trkpt lat="42.98521" lon="19.04973">
        <ele>1099.8900146484</ele>
        <time>2024-09-22T10:42:32.000Z</time>
      </trkpt>
      <trkpt lat="42.98517" lon="19.04982">
        <ele>1099.4000244141</ele>
        <time>2024-09-22T10:42:33.000Z</time>
      </trkpt>
      <trkpt lat="42.98512" lon="19.04987">
        <ele>1099.4000244141</ele>
        <time>2024-09-22T10:42:34.000Z</time>
      </trkpt>
      <trkpt lat="42.98505" lon="19.04991">
        <ele>1099.4000244141</ele>
        <time>2024-09-22T10:42:35.000Z</time>
      </trkpt>
      <trkpt lat="42.98498" lon="19.04997">
        <ele>1099.4000244141</ele>
        <time>2024-09-22T10:42:36.000Z</time>
      </trkpt>
      <trkpt lat="42.98494" lon="19.05006">
        <ele>1098.9200439453</ele>
        <time>2024-09-22T10:42:37.000Z</time>
      </trkpt>
      <trkpt lat="42.98489" lon="19.05017">
        <ele>1098.9200439453</ele>
        <time>2024-09-22T10:42:38.000Z</time>
      </trkpt>
      <trkpt lat="42.98486" lon="19.05025">
        <ele>1098.4399414062</ele>
        <time>2024-09-22T10:42:39.000Z</time>
      </trkpt>
      <trkpt lat="42.98485" lon="19.05036">
        <ele>1097.9599609375</ele>
        <time>2024-09-22T10:42:40.000Z</time>
      </trkpt>
      <trkpt lat="42.98486" lon="19.05051">
        <ele>1097.9599609375</ele>
        <time>2024-09-22T10:42:41.000Z</time>
      </trkpt>
      <trkpt lat="42.98486" lon="19.05062">
        <ele>1097.4799804688</ele>
        <time>2024-09-22T10:42:42.000Z</time>
      </trkpt>
      <trkpt lat="42.98486" lon="19.05077">
        <ele>1097</ele>
        <time>2024-09-22T10:42:43.000Z</time>
      </trkpt>
      <trkpt lat="42.98483" lon="19.0509">
        <ele>1096.5200195312</ele>
        <time>2024-09-22T10:42:44.000Z</time>
      </trkpt>
      <trkpt lat="42.98478" lon="19.05112">
        <ele>1096.0400390625</ele>
        <time>2024-09-22T10:42:45.000Z</time>
      </trkpt>
      <trkpt lat="42.98477" lon="19.05119">
        <ele>1095.5600585938</ele>
        <time>2024-09-22T10:42:46.000Z</time>
      </trkpt>
      <trkpt lat="42.98472" lon="19.05154">
        <ele>1094.5999755859</ele>
        <time>2024-09-22T10:42:48.000Z</time>
      </trkpt>
      <trkpt lat="42.98469" lon="19.05165">
        <ele>1094.5999755859</ele>
        <time>2024-09-22T10:42:49.000Z</time>
      </trkpt>
      <trkpt lat="42.98459" lon="19.052">
        <ele>1095.0799560547</ele>
        <time>2024-09-22T10:42:51.000Z</time>
      </trkpt>
      <trkpt lat="42.98457" lon="19.05208">
        <ele>1095.0799560547</ele>
        <time>2024-09-22T10:42:52.000Z</time>
      </trkpt>
      <trkpt lat="42.98455" lon="19.05221">
        <ele>1094.5999755859</ele>
        <time>2024-09-22T10:42:53.000Z</time>
      </trkpt>
      <trkpt lat="42.98454" lon="19.05237">
        <ele>1093.6400146484</ele>
        <time>2024-09-22T10:42:54.000Z</time>
      </trkpt>
      <trkpt lat="42.98456" lon="19.05268">
        <ele>1092.6800537109</ele>
        <time>2024-09-22T10:42:56.000Z</time>
      </trkpt>
      <trkpt lat="42.98457" lon="19.05283">
        <ele>1092.6800537109</ele>
        <time>2024-09-22T10:42:57.000Z</time>
      </trkpt>
      <trkpt lat="42.98456" lon="19.05299">
        <ele>1092.1999511719</ele>
        <time>2024-09-22T10:42:58.000Z</time>
      </trkpt>
      <trkpt lat="42.98453" lon="19.05317">
        <ele>1092.1999511719</ele>
        <time>2024-09-22T10:42:59.000Z</time>
      </trkpt>
      <trkpt lat="42.98451" lon="19.05327">
        <ele>1092.1999511719</ele>
        <time>2024-09-22T10:43:00.000Z</time>
      </trkpt>
      <trkpt lat="42.98452" lon="19.05346">
        <ele>1092.1999511719</ele>
        <time>2024-09-22T10:43:01.000Z</time>
      </trkpt>
      <trkpt lat="42.98453" lon="19.05359">
        <ele>1092.1999511719</ele>
        <time>2024-09-22T10:43:02.000Z</time>
      </trkpt>
      <trkpt lat="42.98453" lon="19.05367">
        <ele>1091.7099609375</ele>
        <time>2024-09-22T10:43:03.000Z</time>
      </trkpt>
      <trkpt lat="42.98454" lon="19.05383">
        <ele>1091.7099609375</ele>
        <time>2024-09-22T10:43:04.000Z</time>
      </trkpt>
      <trkpt lat="42.98455" lon="19.05401">
        <ele>1092.1999511719</ele>
        <time>2024-09-22T10:43:05.000Z</time>
      </trkpt>
      <trkpt lat="42.98456" lon="19.05407">
        <ele>1092.1999511719</ele>
        <time>2024-09-22T10:43:06.000Z</time>
      </trkpt>
      <trkpt lat="42.98458" lon="19.05425">
        <ele>1092.1999511719</ele>
        <time>2024-09-22T10:43:07.000Z</time>
      </trkpt>
      <trkpt lat="42.98461" lon="19.05444">
        <ele>1092.1999511719</ele>
        <time>2024-09-22T10:43:09.000Z</time>
      </trkpt>
      <trkpt lat="42.98462" lon="19.05475">
        <ele>1091.2299804688</ele>
        <time>2024-09-22T10:43:11.000Z</time>
      </trkpt>
      <trkpt lat="42.98463" lon="19.05485">
        <ele>1090.75</ele>
        <time>2024-09-22T10:43:12.000Z</time>
      </trkpt>
      <trkpt lat="42.98466" lon="19.05567">
        <ele>1088.3499755859</ele>
        <time>2024-09-22T10:43:18.000Z</time>
      </trkpt>
      <trkpt lat="42.98467" lon="19.05589">
        <ele>1087.3900146484</ele>
        <time>2024-09-22T10:43:20.000Z</time>
      </trkpt>
      <trkpt lat="42.98468" lon="19.05596">
        <ele>1087.3900146484</ele>
        <time>2024-09-22T10:43:21.000Z</time>
      </trkpt>
      <trkpt lat="42.98469" lon="19.05605">
        <ele>1086.9100341797</ele>
        <time>2024-09-22T10:43:22.000Z</time>
      </trkpt>
      <trkpt lat="42.9847" lon="19.05613">
        <ele>1086.4300537109</ele>
        <time>2024-09-22T10:43:23.000Z</time>
      </trkpt>
      <trkpt lat="42.98471" lon="19.05621">
        <ele>1086.4300537109</ele>
        <time>2024-09-22T10:43:24.000Z</time>
      </trkpt>
      <trkpt lat="42.98473" lon="19.05629">
        <ele>1086.4300537109</ele>
        <time>2024-09-22T10:43:25.000Z</time>
      </trkpt>
      <trkpt lat="42.98474" lon="19.05636">
        <ele>1086.4300537109</ele>
        <time>2024-09-22T10:43:26.000Z</time>
      </trkpt>
      <trkpt lat="42.98474" lon="19.05644">
        <ele>1085.9499511719</ele>
        <time>2024-09-22T10:43:27.000Z</time>
      </trkpt>
      <trkpt lat="42.98475" lon="19.05652">
        <ele>1085.9499511719</ele>
        <time>2024-09-22T10:43:34.000Z</time>
      </trkpt>
      <trkpt lat="42.9848" lon="19.05665">
        <ele>1086.9100341797</ele>
        <time>2024-09-22T10:44:12.000Z</time>
      </trkpt>
      <trkpt lat="42.98492" lon="19.05685">
        <ele>1084.9899902344</ele>
        <time>2024-09-22T10:44:19.000Z</time>
      </trkpt>
      <trkpt lat="42.98503" lon="19.05691">
        <ele>1083.0600585938</ele>
        <time>2024-09-22T10:44:21.000Z</time>
      </trkpt>
      <trkpt lat="42.98507" lon="19.05692">
        <ele>1082.5799560547</ele>
        <time>2024-09-22T10:44:22.000Z</time>
      </trkpt>
      <trkpt lat="42.98512" lon="19.05696">
        <ele>1081.6199951172</ele>
        <time>2024-09-22T10:44:23.000Z</time>
      </trkpt>
      <trkpt lat="42.98517" lon="19.057">
        <ele>1081.1400146484</ele>
        <time>2024-09-22T10:44:24.000Z</time>
      </trkpt>
      <trkpt lat="42.98521" lon="19.05705">
        <ele>1081.1400146484</ele>
        <time>2024-09-22T10:44:25.000Z</time>
      </trkpt>
      <trkpt lat="42.98523" lon="19.05711">
        <ele>1081.1400146484</ele>
        <time>2024-09-22T10:44:26.000Z</time>
      </trkpt>
      <trkpt lat="42.98525" lon="19.05718">
        <ele>1081.1400146484</ele>
        <time>2024-09-22T10:44:27.000Z</time>
      </trkpt>
      <trkpt lat="42.98527" lon="19.05725">
        <ele>1081.1400146484</ele>
        <time>2024-09-22T10:44:28.000Z</time>
      </trkpt>
      <trkpt lat="42.98527" lon="19.0573">
        <ele>1081.1400146484</ele>
        <time>2024-09-22T10:44:29.000Z</time>
      </trkpt>
      <trkpt lat="42.98526" lon="19.05737">
        <ele>1081.6199951172</ele>
        <time>2024-09-22T10:44:30.000Z</time>
      </trkpt>
      <trkpt lat="42.98526" lon="19.05743">
        <ele>1082.0999755859</ele>
        <time>2024-09-22T10:44:31.000Z</time>
      </trkpt>
      <trkpt lat="42.98525" lon="19.05752">
        <ele>1083.5400390625</ele>
        <time>2024-09-22T10:44:38.000Z</time>
      </trkpt>
      <trkpt lat="42.98526" lon="19.05757">
        <ele>1085.4699707031</ele>
        <time>2024-09-22T10:47:03.000Z</time>
      </trkpt>
      <trkpt lat="42.98525" lon="19.05772">
        <ele>1085.9499511719</ele>
        <time>2024-09-22T10:47:11.000Z</time>
      </trkpt>
      <trkpt lat="42.98526" lon="19.05774">
        <ele>1085.4699707031</ele>
        <time>2024-09-22T10:48:08.000Z</time>
      </trkpt>
      <trkpt lat="42.98527" lon="19.05779">
        <ele>1085.9499511719</ele>
        <time>2024-09-22T10:48:09.000Z</time>
      </trkpt>
      <trkpt lat="42.98527" lon="19.05781">
        <ele>1085.9499511719</ele>
        <time>2024-09-22T10:48:10.000Z</time>
      </trkpt>
      <trkpt lat="42.98527" lon="19.05788">
        <ele>1085.9499511719</ele>
        <time>2024-09-22T10:48:11.000Z</time>
      </trkpt>
      <trkpt lat="42.98528" lon="19.05795">
        <ele>1085.9499511719</ele>
        <time>2024-09-22T10:48:12.000Z</time>
      </trkpt>
      <trkpt lat="42.98527" lon="19.05804">
        <ele>1085.9499511719</ele>
        <time>2024-09-22T10:48:13.000Z</time>
      </trkpt>
      <trkpt lat="42.98524" lon="19.05817">
        <ele>1085.9499511719</ele>
        <time>2024-09-22T10:48:14.000Z</time>
      </trkpt>
      <trkpt lat="42.98522" lon="19.05825">
        <ele>1085.4699707031</ele>
        <time>2024-09-22T10:48:15.000Z</time>
      </trkpt>
      <trkpt lat="42.9852" lon="19.05833">
        <ele>1084.9899902344</ele>
        <time>2024-09-22T10:48:16.000Z</time>
      </trkpt>
      <trkpt lat="42.98519" lon="19.05839">
        <ele>1084.5</ele>
        <time>2024-09-22T10:48:17.000Z</time>
      </trkpt>
      <trkpt lat="42.98518" lon="19.05848">
        <ele>1084.0200195312</ele>
        <time>2024-09-22T10:48:18.000Z</time>
      </trkpt>
      <trkpt lat="42.98517" lon="19.05856">
        <ele>1084.0200195312</ele>
        <time>2024-09-22T10:48:19.000Z</time>
      </trkpt>
      <trkpt lat="42.98516" lon="19.05868">
        <ele>1083.5400390625</ele>
        <time>2024-09-22T10:48:20.000Z</time>
      </trkpt>
      <trkpt lat="42.98515" lon="19.05878">
        <ele>1083.5400390625</ele>
        <time>2024-09-22T10:48:21.000Z</time>
      </trkpt>
      <trkpt lat="42.98517" lon="19.05892">
        <ele>1083.0600585938</ele>
        <time>2024-09-22T10:48:22.000Z</time>
      </trkpt>
      <trkpt lat="42.98518" lon="19.05899">
        <ele>1083.0600585938</ele>
        <time>2024-09-22T10:48:23.000Z</time>
      </trkpt>
      <trkpt lat="42.9852" lon="19.05913">
        <ele>1083.5400390625</ele>
        <time>2024-09-22T10:48:24.000Z</time>
      </trkpt>
      <trkpt lat="42.98521" lon="19.05922">
        <ele>1083.5400390625</ele>
        <time>2024-09-22T10:48:25.000Z</time>
      </trkpt>
      <trkpt lat="42.98522" lon="19.05935">
        <ele>1083.5400390625</ele>
        <time>2024-09-22T10:48:26.000Z</time>
      </trkpt>
      <trkpt lat="42.98523" lon="19.05961">
        <ele>1083.5400390625</ele>
        <time>2024-09-22T10:48:28.000Z</time>
      </trkpt>
      <trkpt lat="42.98524" lon="19.05974">
        <ele>1084.0200195312</ele>
        <time>2024-09-22T10:48:29.000Z</time>
      </trkpt>
      <trkpt lat="42.98524" lon="19.05978">
        <ele>1083.5400390625</ele>
        <time>2024-09-22T10:48:30.000Z</time>
      </trkpt>
      <trkpt lat="42.98526" lon="19.0599">
        <ele>1084.5</ele>
        <time>2024-09-22T10:48:31.000Z</time>
      </trkpt>
      <trkpt lat="42.98528" lon="19.06">
        <ele>1084.9899902344</ele>
        <time>2024-09-22T10:48:32.000Z</time>
      </trkpt>
      <trkpt lat="42.9853" lon="19.06015">
        <ele>1085.4699707031</ele>
        <time>2024-09-22T10:48:33.000Z</time>
      </trkpt>
      <trkpt lat="42.9853" lon="19.06021">
        <ele>1085.4699707031</ele>
        <time>2024-09-22T10:48:34.000Z</time>
      </trkpt>
      <trkpt lat="42.98533" lon="19.06039">
        <ele>1086.4300537109</ele>
        <time>2024-09-22T10:48:35.000Z</time>
      </trkpt>
      <trkpt lat="42.98533" lon="19.06045">
        <ele>1086.4300537109</ele>
        <time>2024-09-22T10:48:36.000Z</time>
      </trkpt>
      <trkpt lat="42.98533" lon="19.06057">
        <ele>1086.4300537109</ele>
        <time>2024-09-22T10:48:37.000Z</time>
      </trkpt>
      <trkpt lat="42.98531" lon="19.06068">
        <ele>1086.9100341797</ele>
        <time>2024-09-22T10:48:38.000Z</time>
      </trkpt>
      <trkpt lat="42.98529" lon="19.06078">
        <ele>1087.3900146484</ele>
        <time>2024-09-22T10:48:39.000Z</time>
      </trkpt>
      <trkpt lat="42.98529" lon="19.06089">
        <ele>1087.8699951172</ele>
        <time>2024-09-22T10:48:40.000Z</time>
      </trkpt>
      <trkpt lat="42.98531" lon="19.06109">
        <ele>1087.3900146484</ele>
        <time>2024-09-22T10:48:41.000Z</time>
      </trkpt>
      <trkpt lat="42.98531" lon="19.06114">
        <ele>1087.3900146484</ele>
        <time>2024-09-22T10:48:42.000Z</time>
      </trkpt>
      <trkpt lat="42.98533" lon="19.06124">
        <ele>1087.3900146484</ele>
        <time>2024-09-22T10:48:43.000Z</time>
      </trkpt>
      <trkpt lat="42.9854" lon="19.06148">
        <ele>1086.9100341797</ele>
        <time>2024-09-22T10:48:45.000Z</time>
      </trkpt>
      <trkpt lat="42.98543" lon="19.06158">
        <ele>1086.9100341797</ele>
        <time>2024-09-22T10:48:46.000Z</time>
      </trkpt>
      <trkpt lat="42.98545" lon="19.06168">
        <ele>1086.4300537109</ele>
        <time>2024-09-22T10:48:47.000Z</time>
      </trkpt>
      <trkpt lat="42.98546" lon="19.06181">
        <ele>1085.4699707031</ele>
        <time>2024-09-22T10:48:48.000Z</time>
      </trkpt>
      <trkpt lat="42.98547" lon="19.06193">
        <ele>1084.5</ele>
        <time>2024-09-22T10:48:49.000Z</time>
      </trkpt>
      <trkpt lat="42.98545" lon="19.06207">
        <ele>1083.0600585938</ele>
        <time>2024-09-22T10:48:50.000Z</time>
      </trkpt>
      <trkpt lat="42.98541" lon="19.06241">
        <ele>1077.7800292969</ele>
        <time>2024-09-22T10:48:52.000Z</time>
      </trkpt>
      <trkpt lat="42.98538" lon="19.06259">
        <ele>1075.8499755859</ele>
        <time>2024-09-22T10:48:54.000Z</time>
      </trkpt>
      <trkpt lat="42.98536" lon="19.0627">
        <ele>1074.8900146484</ele>
        <time>2024-09-22T10:48:55.000Z</time>
      </trkpt>
      <trkpt lat="42.98536" lon="19.0628">
        <ele>1073.9300537109</ele>
        <time>2024-09-22T10:48:56.000Z</time>
      </trkpt>
      <trkpt lat="42.98539" lon="19.06288">
        <ele>1072.9699707031</ele>
        <time>2024-09-22T10:48:57.000Z</time>
      </trkpt>
      <trkpt lat="42.98543" lon="19.06295">
        <ele>1072.0100097656</ele>
        <time>2024-09-22T10:48:58.000Z</time>
      </trkpt>
      <trkpt lat="42.98551" lon="19.06305">
        <ele>1070.0799560547</ele>
        <time>2024-09-22T10:48:59.000Z</time>
      </trkpt>
      <trkpt lat="42.98553" lon="19.06308">
        <ele>1070.0799560547</ele>
        <time>2024-09-22T10:49:00.000Z</time>
      </trkpt>
      <trkpt lat="42.98605" lon="19.06382">
        <ele>1061.4300537109</ele>
        <time>2024-09-22T10:49:07.000Z</time>
      </trkpt>
      <trkpt lat="42.98619" lon="19.06404">
        <ele>1059.5100097656</ele>
        <time>2024-09-22T10:49:09.000Z</time>
      </trkpt>
      <trkpt lat="42.98624" lon="19.0641">
        <ele>1059.0300292969</ele>
        <time>2024-09-22T10:49:10.000Z</time>
      </trkpt>
      <trkpt lat="42.98633" lon="19.06419">
        <ele>1058.0699462891</ele>
        <time>2024-09-22T10:49:11.000Z</time>
      </trkpt>
      <trkpt lat="42.98642" lon="19.06426">
        <ele>1057.5899658203</ele>
        <time>2024-09-22T10:49:12.000Z</time>
      </trkpt>
      <trkpt lat="42.98653" lon="19.06431">
        <ele>1056.1500244141</ele>
        <time>2024-09-22T10:49:13.000Z</time>
      </trkpt>
      <trkpt lat="42.98661" lon="19.06434">
        <ele>1055.6700439453</ele>
        <time>2024-09-22T10:49:14.000Z</time>
      </trkpt>
      <trkpt lat="42.98682" lon="19.0644">
        <ele>1051.8199462891</ele>
        <time>2024-09-22T10:49:16.000Z</time>
      </trkpt>
      <trkpt lat="42.98692" lon="19.06444">
        <ele>1049.9000244141</ele>
        <time>2024-09-22T10:49:17.000Z</time>
      </trkpt>
      <trkpt lat="42.98702" lon="19.06449">
        <ele>1048.4499511719</ele>
        <time>2024-09-22T10:49:18.000Z</time>
      </trkpt>
      <trkpt lat="42.98723" lon="19.06462">
        <ele>1045.5699462891</ele>
        <time>2024-09-22T10:49:19.000Z</time>
      </trkpt>
      <trkpt lat="42.98725" lon="19.06463">
        <ele>1045.0899658203</ele>
        <time>2024-09-22T10:49:20.000Z</time>
      </trkpt>
      <trkpt lat="42.98736" lon="19.06469">
        <ele>1043.6500244141</ele>
        <time>2024-09-22T10:49:21.000Z</time>
      </trkpt>
      <trkpt lat="42.98749" lon="19.06474">
        <ele>1041.7299804688</ele>
        <time>2024-09-22T10:49:22.000Z</time>
      </trkpt>
      <trkpt lat="42.9876" lon="19.0648">
        <ele>1040.2800292969</ele>
        <time>2024-09-22T10:49:23.000Z</time>
      </trkpt>
      <trkpt lat="42.98781" lon="19.06495">
        <ele>1036.9200439453</ele>
        <time>2024-09-22T10:49:25.000Z</time>
      </trkpt>
      <trkpt lat="42.98821" lon="19.0652">
        <ele>1033.0699462891</ele>
        <time>2024-09-22T10:49:29.000Z</time>
      </trkpt>
      <trkpt lat="42.9883" lon="19.06524">
        <ele>1032.5899658203</ele>
        <time>2024-09-22T10:49:30.000Z</time>
      </trkpt>
      <trkpt lat="42.98838" lon="19.06526">
        <ele>1031.1500244141</ele>
        <time>2024-09-22T10:49:31.000Z</time>
      </trkpt>
      <trkpt lat="42.98849" lon="19.06529">
        <ele>1029.2299804688</ele>
        <time>2024-09-22T10:49:32.000Z</time>
      </trkpt>
      <trkpt lat="42.98857" lon="19.06532">
        <ele>1028.2700195312</ele>
        <time>2024-09-22T10:49:33.000Z</time>
      </trkpt>
      <trkpt lat="42.98865" lon="19.06537">
        <ele>1027.3100585938</ele>
        <time>2024-09-22T10:49:34.000Z</time>
      </trkpt>
      <trkpt lat="42.98873" lon="19.06544">
        <ele>1026.3399658203</ele>
        <time>2024-09-22T10:49:35.000Z</time>
      </trkpt>
      <trkpt lat="42.98878" lon="19.06556">
        <ele>1025.3800048828</ele>
        <time>2024-09-22T10:49:36.000Z</time>
      </trkpt>
      <trkpt lat="42.98883" lon="19.06569">
        <ele>1024.4200439453</ele>
        <time>2024-09-22T10:49:37.000Z</time>
      </trkpt>
      <trkpt lat="42.98886" lon="19.06581">
        <ele>1023.4600219727</ele>
        <time>2024-09-22T10:49:38.000Z</time>
      </trkpt>
      <trkpt lat="42.98886" lon="19.06589">
        <ele>1022.9799804688</ele>
        <time>2024-09-22T10:49:39.000Z</time>
      </trkpt>
      <trkpt lat="42.98877" lon="19.06608">
        <ele>1021.0599975586</ele>
        <time>2024-09-22T10:49:46.000Z</time>
      </trkpt>
      <trkpt lat="42.98871" lon="19.06624">
        <ele>1019.1300048828</ele>
        <time>2024-09-22T10:49:55.000Z</time>
      </trkpt>
      <trkpt lat="42.98884" lon="19.0661">
        <ele>1019.6199951172</ele>
        <time>2024-09-22T10:50:02.000Z</time>
      </trkpt>
      <trkpt lat="42.98886" lon="19.06606">
        <ele>1019.6199951172</ele>
        <time>2024-09-22T10:50:11.000Z</time>
      </trkpt>
      <trkpt lat="42.98887" lon="19.06594">
        <ele>1020.0999755859</ele>
        <time>2024-09-22T10:50:56.000Z</time>
      </trkpt>
      <trkpt lat="42.98886" lon="19.0659">
        <ele>1020.5800170898</ele>
        <time>2024-09-22T10:50:57.000Z</time>
      </trkpt>
      <trkpt lat="42.98885" lon="19.06582">
        <ele>1020.5800170898</ele>
        <time>2024-09-22T10:50:58.000Z</time>
      </trkpt>
      <trkpt lat="42.98884" lon="19.06572">
        <ele>1021.0599975586</ele>
        <time>2024-09-22T10:50:59.000Z</time>
      </trkpt>
      <trkpt lat="42.98881" lon="19.06562">
        <ele>1021.5399780273</ele>
        <time>2024-09-22T10:51:00.000Z</time>
      </trkpt>
      <trkpt lat="42.98878" lon="19.06552">
        <ele>1022.0200195312</ele>
        <time>2024-09-22T10:51:01.000Z</time>
      </trkpt>
      <trkpt lat="42.98874" lon="19.06544">
        <ele>1022.9799804688</ele>
        <time>2024-09-22T10:51:02.000Z</time>
      </trkpt>
      <trkpt lat="42.98868" lon="19.06537">
        <ele>1023.9400024414</ele>
        <time>2024-09-22T10:51:03.000Z</time>
      </trkpt>
      <trkpt lat="42.9886" lon="19.06531">
        <ele>1025.3800048828</ele>
        <time>2024-09-22T10:51:04.000Z</time>
      </trkpt>
      <trkpt lat="42.98853" lon="19.06528">
        <ele>1025.8599853516</ele>
        <time>2024-09-22T10:51:05.000Z</time>
      </trkpt>
      <trkpt lat="42.98839" lon="19.06524">
        <ele>1027.7900390625</ele>
        <time>2024-09-22T10:51:06.000Z</time>
      </trkpt>
      <trkpt lat="42.98836" lon="19.06522">
        <ele>1028.75</ele>
        <time>2024-09-22T10:51:07.000Z</time>
      </trkpt>
      <trkpt lat="42.98773" lon="19.06489">
        <ele>1036.9200439453</ele>
        <time>2024-09-22T10:51:13.000Z</time>
      </trkpt>
      <trkpt lat="42.98772" lon="19.06488">
        <ele>1037.4000244141</ele>
        <time>2024-09-22T10:51:14.000Z</time>
      </trkpt>
      <trkpt lat="42.98759" lon="19.06477">
        <ele>1039.3199462891</ele>
        <time>2024-09-22T10:51:16.000Z</time>
      </trkpt>
      <trkpt lat="42.9875" lon="19.06471">
        <ele>1040.2800292969</ele>
        <time>2024-09-22T10:51:17.000Z</time>
      </trkpt>
      <trkpt lat="42.98739" lon="19.06468">
        <ele>1042.2099609375</ele>
        <time>2024-09-22T10:51:18.000Z</time>
      </trkpt>
      <trkpt lat="42.98734" lon="19.06466">
        <ele>1043.1700439453</ele>
        <time>2024-09-22T10:51:19.000Z</time>
      </trkpt>
      <trkpt lat="42.9872" lon="19.06458">
        <ele>1045.0899658203</ele>
        <time>2024-09-22T10:51:20.000Z</time>
      </trkpt>
      <trkpt lat="42.98704" lon="19.06448">
        <ele>1047.9699707031</ele>
        <time>2024-09-22T10:51:22.000Z</time>
      </trkpt>
      <trkpt lat="42.98699" lon="19.06445">
        <ele>1048.9399414062</ele>
        <time>2024-09-22T10:51:23.000Z</time>
      </trkpt>
      <trkpt lat="42.98683" lon="19.06439">
        <ele>1051.8199462891</ele>
        <time>2024-09-22T10:51:25.000Z</time>
      </trkpt>
      <trkpt lat="42.98671" lon="19.06435">
        <ele>1053.7399902344</ele>
        <time>2024-09-22T10:51:26.000Z</time>
      </trkpt>
      <trkpt lat="42.98669" lon="19.06435">
        <ele>1054.2199707031</ele>
        <time>2024-09-22T10:51:27.000Z</time>
      </trkpt>
      <trkpt lat="42.9866" lon="19.06432">
        <ele>1055.6700439453</ele>
        <time>2024-09-22T10:51:28.000Z</time>
      </trkpt>
      <trkpt lat="42.98654" lon="19.06429">
        <ele>1056.6300048828</ele>
        <time>2024-09-22T10:51:29.000Z</time>
      </trkpt>
      <trkpt lat="42.98641" lon="19.06423">
        <ele>1058.5500488281</ele>
        <time>2024-09-22T10:51:31.000Z</time>
      </trkpt>
      <trkpt lat="42.98633" lon="19.06417">
        <ele>1059.5100097656</ele>
        <time>2024-09-22T10:51:32.000Z</time>
      </trkpt>
      <trkpt lat="42.98625" lon="19.06408">
        <ele>1059.9899902344</ele>
        <time>2024-09-22T10:51:33.000Z</time>
      </trkpt>
      <trkpt lat="42.98616" lon="19.06397">
        <ele>1060.9499511719</ele>
        <time>2024-09-22T10:51:34.000Z</time>
      </trkpt>
      <trkpt lat="42.98608" lon="19.06385">
        <ele>1061.4300537109</ele>
        <time>2024-09-22T10:51:35.000Z</time>
      </trkpt>
      <trkpt lat="42.98577" lon="19.06341">
        <ele>1065.2800292969</ele>
        <time>2024-09-22T10:51:39.000Z</time>
      </trkpt>
      <trkpt lat="42.98561" lon="19.06318">
        <ele>1068.1600341797</ele>
        <time>2024-09-22T10:51:41.000Z</time>
      </trkpt>
      <trkpt lat="42.98555" lon="19.06309">
        <ele>1068.6400146484</ele>
        <time>2024-09-22T10:51:42.000Z</time>
      </trkpt>
      <trkpt lat="42.98545" lon="19.06297">
        <ele>1071.0500488281</ele>
        <time>2024-09-22T10:51:44.000Z</time>
      </trkpt>
      <trkpt lat="42.98541" lon="19.06291">
        <ele>1071.5300292969</ele>
        <time>2024-09-22T10:51:45.000Z</time>
      </trkpt>
      <trkpt lat="42.98538" lon="19.06284">
        <ele>1072.4899902344</ele>
        <time>2024-09-22T10:51:46.000Z</time>
      </trkpt>
      <trkpt lat="42.98537" lon="19.06276">
        <ele>1073.4499511719</ele>
        <time>2024-09-22T10:51:47.000Z</time>
      </trkpt>
      <trkpt lat="42.98537" lon="19.06268">
        <ele>1073.9300537109</ele>
        <time>2024-09-22T10:51:48.000Z</time>
      </trkpt>
      <trkpt lat="42.98541" lon="19.06254">
        <ele>1074.4100341797</ele>
        <time>2024-09-22T10:51:55.000Z</time>
      </trkpt>
      <trkpt lat="42.98541" lon="19.06252">
        <ele>1074.4100341797</ele>
        <time>2024-09-22T10:52:18.000Z</time>
      </trkpt>
      <trkpt lat="42.98541" lon="19.06252">
        <ele>1074.4100341797</ele>
        <time>2024-09-22T10:52:42.000Z</time>
      </trkpt>
      <trkpt lat="42.98541" lon="19.06252">
        <ele>1074.4100341797</ele>
        <time>2024-09-22T10:52:43.000Z</time>
      </trkpt>
      <trkpt lat="42.98542" lon="19.06246">
        <ele>1074.8900146484</ele>
        <time>2024-09-22T10:52:44.000Z</time>
      </trkpt>
      <trkpt lat="42.98542" lon="19.06239">
        <ele>1074.8900146484</ele>
        <time>2024-09-22T10:52:45.000Z</time>
      </trkpt>
      <trkpt lat="42.98543" lon="19.06231">
        <ele>1075.8499755859</ele>
        <time>2024-09-22T10:52:46.000Z</time>
      </trkpt>
      <trkpt lat="42.98546" lon="19.06215">
        <ele>1076.8100585938</ele>
        <time>2024-09-22T10:52:47.000Z</time>
      </trkpt>
      <trkpt lat="42.98548" lon="19.06205">
        <ele>1077.7800292969</ele>
        <time>2024-09-22T10:52:48.000Z</time>
      </trkpt>
      <trkpt lat="42.98549" lon="19.06197">
        <ele>1078.2600097656</ele>
        <time>2024-09-22T10:52:49.000Z</time>
      </trkpt>
      <trkpt lat="42.98549" lon="19.06188">
        <ele>1079.2199707031</ele>
        <time>2024-09-22T10:52:50.000Z</time>
      </trkpt>
      <trkpt lat="42.98549" lon="19.06177">
        <ele>1080.1800537109</ele>
        <time>2024-09-22T10:52:51.000Z</time>
      </trkpt>
      <trkpt lat="42.98547" lon="19.06166">
        <ele>1081.1400146484</ele>
        <time>2024-09-22T10:52:52.000Z</time>
      </trkpt>
      <trkpt lat="42.98545" lon="19.06154">
        <ele>1081.6199951172</ele>
        <time>2024-09-22T10:52:53.000Z</time>
      </trkpt>
      <trkpt lat="42.98539" lon="19.06137">
        <ele>1082.0999755859</ele>
        <time>2024-09-22T10:52:54.000Z</time>
      </trkpt>
      <trkpt lat="42.98537" lon="19.06131">
        <ele>1082.0999755859</ele>
        <time>2024-09-22T10:52:55.000Z</time>
      </trkpt>
      <trkpt lat="42.98535" lon="19.06118">
        <ele>1082.0999755859</ele>
        <time>2024-09-22T10:52:56.000Z</time>
      </trkpt>
      <trkpt lat="42.98533" lon="19.061">
        <ele>1081.6199951172</ele>
        <time>2024-09-22T10:52:57.000Z</time>
      </trkpt>
      <trkpt lat="42.98532" lon="19.06096">
        <ele>1082.0999755859</ele>
        <time>2024-09-22T10:52:58.000Z</time>
      </trkpt>
      <trkpt lat="42.98531" lon="19.06085">
        <ele>1081.6199951172</ele>
        <time>2024-09-22T10:52:59.000Z</time>
      </trkpt>
      <trkpt lat="42.98532" lon="19.06074">
        <ele>1080.6600341797</ele>
        <time>2024-09-22T10:53:00.000Z</time>
      </trkpt>
      <trkpt lat="42.98535" lon="19.06061">
        <ele>1080.1800537109</ele>
        <time>2024-09-22T10:53:01.000Z</time>
      </trkpt>
      <trkpt lat="42.98537" lon="19.06053">
        <ele>1079.6999511719</ele>
        <time>2024-09-22T10:53:02.000Z</time>
      </trkpt>
      <trkpt lat="42.98536" lon="19.06042">
        <ele>1079.6999511719</ele>
        <time>2024-09-22T10:53:03.000Z</time>
      </trkpt>
      <trkpt lat="42.98534" lon="19.06027">
        <ele>1079.2199707031</ele>
        <time>2024-09-22T10:53:04.000Z</time>
      </trkpt>
      <trkpt lat="42.98533" lon="19.06019">
        <ele>1078.7399902344</ele>
        <time>2024-09-22T10:53:05.000Z</time>
      </trkpt>
      <trkpt lat="42.98532" lon="19.06007">
        <ele>1078.2600097656</ele>
        <time>2024-09-22T10:53:06.000Z</time>
      </trkpt>
      <trkpt lat="42.98528" lon="19.05984">
        <ele>1077.2900390625</ele>
        <time>2024-09-22T10:53:07.000Z</time>
      </trkpt>
      <trkpt lat="42.98528" lon="19.05981">
        <ele>1077.2900390625</ele>
        <time>2024-09-22T10:53:08.000Z</time>
      </trkpt>
      <trkpt lat="42.98525" lon="19.05943">
        <ele>1076.8100585938</ele>
        <time>2024-09-22T10:53:10.000Z</time>
      </trkpt>
      <trkpt lat="42.98524" lon="19.05927">
        <ele>1076.8100585938</ele>
        <time>2024-09-22T10:53:11.000Z</time>
      </trkpt>
      <trkpt lat="42.98524" lon="19.05924">
        <ele>1076.8100585938</ele>
        <time>2024-09-22T10:53:12.000Z</time>
      </trkpt>
      <trkpt lat="42.98522" lon="19.05908">
        <ele>1076.3299560547</ele>
        <time>2024-09-22T10:53:13.000Z</time>
      </trkpt>
      <trkpt lat="42.9852" lon="19.05896">
        <ele>1076.3299560547</ele>
        <time>2024-09-22T10:53:14.000Z</time>
      </trkpt>
      <trkpt lat="42.98519" lon="19.05881">
        <ele>1075.8499755859</ele>
        <time>2024-09-22T10:53:15.000Z</time>
      </trkpt>
      <trkpt lat="42.9852" lon="19.05865">
        <ele>1075.3699951172</ele>
        <time>2024-09-22T10:53:16.000Z</time>
      </trkpt>
      <trkpt lat="42.9852" lon="19.05851">
        <ele>1075.8499755859</ele>
        <time>2024-09-22T10:53:17.000Z</time>
      </trkpt>
      <trkpt lat="42.98522" lon="19.05836">
        <ele>1076.3299560547</ele>
        <time>2024-09-22T10:53:18.000Z</time>
      </trkpt>
      <trkpt lat="42.98529" lon="19.05802">
        <ele>1077.2900390625</ele>
        <time>2024-09-22T10:53:20.000Z</time>
      </trkpt>
      <trkpt lat="42.9853" lon="19.05799">
        <ele>1077.2900390625</ele>
        <time>2024-09-22T10:53:21.000Z</time>
      </trkpt>
      <trkpt lat="42.98531" lon="19.05788">
        <ele>1076.8100585938</ele>
        <time>2024-09-22T10:53:22.000Z</time>
      </trkpt>
      <trkpt lat="42.9853" lon="19.05779">
        <ele>1076.8100585938</ele>
        <time>2024-09-22T10:53:23.000Z</time>
      </trkpt>
      <trkpt lat="42.98528" lon="19.05766">
        <ele>1076.8100585938</ele>
        <time>2024-09-22T10:53:24.000Z</time>
      </trkpt>
      <trkpt lat="42.98528" lon="19.05755">
        <ele>1075.8499755859</ele>
        <time>2024-09-22T10:53:25.000Z</time>
      </trkpt>
      <trkpt lat="42.98528" lon="19.05724">
        <ele>1075.3699951172</ele>
        <time>2024-09-22T10:53:27.000Z</time>
      </trkpt>
      <trkpt lat="42.98528" lon="19.05717">
        <ele>1074.8900146484</ele>
        <time>2024-09-22T10:53:28.000Z</time>
      </trkpt>
      <trkpt lat="42.98526" lon="19.05707">
        <ele>1075.3699951172</ele>
        <time>2024-09-22T10:53:29.000Z</time>
      </trkpt>
      <trkpt lat="42.98522" lon="19.05699">
        <ele>1075.3699951172</ele>
        <time>2024-09-22T10:53:30.000Z</time>
      </trkpt>
      <trkpt lat="42.98515" lon="19.05691">
        <ele>1075.3699951172</ele>
        <time>2024-09-22T10:53:31.000Z</time>
      </trkpt>
      <trkpt lat="42.98508" lon="19.05687">
        <ele>1075.8499755859</ele>
        <time>2024-09-22T10:53:32.000Z</time>
      </trkpt>
      <trkpt lat="42.98499" lon="19.05683">
        <ele>1076.3299560547</ele>
        <time>2024-09-22T10:53:33.000Z</time>
      </trkpt>
      <trkpt lat="42.98492" lon="19.0568">
        <ele>1077.2900390625</ele>
        <time>2024-09-22T10:53:34.000Z</time>
      </trkpt>
      <trkpt lat="42.98487" lon="19.05674">
        <ele>1078.2600097656</ele>
        <time>2024-09-22T10:53:35.000Z</time>
      </trkpt>
      <trkpt lat="42.98484" lon="19.05666">
        <ele>1078.2600097656</ele>
        <time>2024-09-22T10:53:36.000Z</time>
      </trkpt>
      <trkpt lat="42.98481" lon="19.05658">
        <ele>1078.7399902344</ele>
        <time>2024-09-22T10:53:37.000Z</time>
      </trkpt>
      <trkpt lat="42.98479" lon="19.05649">
        <ele>1078.7399902344</ele>
        <time>2024-09-22T10:53:38.000Z</time>
      </trkpt>
      <trkpt lat="42.98472" lon="19.05593">
        <ele>1077.2900390625</ele>
        <time>2024-09-22T10:53:42.000Z</time>
      </trkpt>
      <trkpt lat="42.98467" lon="19.05474">
        <ele>1082.5799560547</ele>
        <time>2024-09-22T10:53:48.000Z</time>
      </trkpt>
      <trkpt lat="42.98464" lon="19.05441">
        <ele>1084.9899902344</ele>
        <time>2024-09-22T10:53:51.000Z</time>
      </trkpt>
      <trkpt lat="42.98462" lon="19.05421">
        <ele>1084.9899902344</ele>
        <time>2024-09-22T10:53:52.000Z</time>
      </trkpt>
      <trkpt lat="42.98459" lon="19.05402">
        <ele>1085.4699707031</ele>
        <time>2024-09-22T10:53:53.000Z</time>
      </trkpt>
      <trkpt lat="42.98458" lon="19.0539">
        <ele>1085.4699707031</ele>
        <time>2024-09-22T10:53:54.000Z</time>
      </trkpt>
      <trkpt lat="42.98455" lon="19.05352">
        <ele>1085.9499511719</ele>
        <time>2024-09-22T10:53:56.000Z</time>
      </trkpt>
      <trkpt lat="42.98454" lon="19.05339">
        <ele>1085.9499511719</ele>
        <time>2024-09-22T10:53:57.000Z</time>
      </trkpt>
      <trkpt lat="42.98454" lon="19.05333">
        <ele>1086.4300537109</ele>
        <time>2024-09-22T10:53:58.000Z</time>
      </trkpt>
      <trkpt lat="42.98454" lon="19.05324">
        <ele>1086.4300537109</ele>
        <time>2024-09-22T10:53:59.000Z</time>
      </trkpt>
      <trkpt lat="42.98455" lon="19.05312">
        <ele>1086.9100341797</ele>
        <time>2024-09-22T10:54:00.000Z</time>
      </trkpt>
      <trkpt lat="42.98457" lon="19.053">
        <ele>1087.3900146484</ele>
        <time>2024-09-22T10:54:01.000Z</time>
      </trkpt>
      <trkpt lat="42.98458" lon="19.05287">
        <ele>1087.8699951172</ele>
        <time>2024-09-22T10:54:02.000Z</time>
      </trkpt>
      <trkpt lat="42.98458" lon="19.05272">
        <ele>1088.8299560547</ele>
        <time>2024-09-22T10:54:03.000Z</time>
      </trkpt>
      <trkpt lat="42.98456" lon="19.05244">
        <ele>1089.7900390625</ele>
        <time>2024-09-22T10:54:05.000Z</time>
      </trkpt>
      <trkpt lat="42.98456" lon="19.05229">
        <ele>1090.2700195312</ele>
        <time>2024-09-22T10:54:06.000Z</time>
      </trkpt>
      <trkpt lat="42.98458" lon="19.05216">
        <ele>1090.75</ele>
        <time>2024-09-22T10:54:07.000Z</time>
      </trkpt>
      <trkpt lat="42.98468" lon="19.05175">
        <ele>1092.1999511719</ele>
        <time>2024-09-22T10:54:11.000Z</time>
      </trkpt>
      <trkpt lat="42.9847" lon="19.05166">
        <ele>1093.1600341797</ele>
        <time>2024-09-22T10:54:12.000Z</time>
      </trkpt>
      <trkpt lat="42.98471" lon="19.05163">
        <ele>1093.1600341797</ele>
        <time>2024-09-22T10:54:13.000Z</time>
      </trkpt>
      <trkpt lat="42.98473" lon="19.05156">
        <ele>1093.6400146484</ele>
        <time>2024-09-22T10:54:14.000Z</time>
      </trkpt>
      <trkpt lat="42.98474" lon="19.05148">
        <ele>1094.1199951172</ele>
        <time>2024-09-22T10:54:15.000Z</time>
      </trkpt>
      <trkpt lat="42.98476" lon="19.05137">
        <ele>1094.5999755859</ele>
        <time>2024-09-22T10:54:16.000Z</time>
      </trkpt>
      <trkpt lat="42.98478" lon="19.05123">
        <ele>1095.0799560547</ele>
        <time>2024-09-22T10:54:17.000Z</time>
      </trkpt>
      <trkpt lat="42.98479" lon="19.05117">
        <ele>1095.5600585938</ele>
        <time>2024-09-22T10:54:18.000Z</time>
      </trkpt>
      <trkpt lat="42.98481" lon="19.05108">
        <ele>1096.0400390625</ele>
        <time>2024-09-22T10:54:19.000Z</time>
      </trkpt>
      <trkpt lat="42.98485" lon="19.05088">
        <ele>1098.4399414062</ele>
        <time>2024-09-22T10:54:27.000Z</time>
      </trkpt>
      <trkpt lat="42.98487" lon="19.05077">
        <ele>1098.9200439453</ele>
        <time>2024-09-22T10:54:30.000Z</time>
      </trkpt>
      <trkpt lat="42.98487" lon="19.05073">
        <ele>1098.9200439453</ele>
        <time>2024-09-22T10:54:31.000Z</time>
      </trkpt>
      <trkpt lat="42.98487" lon="19.05063">
        <ele>1098.9200439453</ele>
        <time>2024-09-22T10:54:32.000Z</time>
      </trkpt>
      <trkpt lat="42.98486" lon="19.05054">
        <ele>1099.4000244141</ele>
        <time>2024-09-22T10:54:33.000Z</time>
      </trkpt>
      <trkpt lat="42.98485" lon="19.05044">
        <ele>1099.4000244141</ele>
        <time>2024-09-22T10:54:34.000Z</time>
      </trkpt>
      <trkpt lat="42.98486" lon="19.05034">
        <ele>1099.4000244141</ele>
        <time>2024-09-22T10:54:35.000Z</time>
      </trkpt>
      <trkpt lat="42.98488" lon="19.05023">
        <ele>1099.4000244141</ele>
        <time>2024-09-22T10:54:36.000Z</time>
      </trkpt>
      <trkpt lat="42.98492" lon="19.05012">
        <ele>1099.8900146484</ele>
        <time>2024-09-22T10:54:37.000Z</time>
      </trkpt>
      <trkpt lat="42.98498" lon="19.05003">
        <ele>1100.3699951172</ele>
        <time>2024-09-22T10:54:38.000Z</time>
      </trkpt>
      <trkpt lat="42.98503" lon="19.04996">
        <ele>1100.3699951172</ele>
        <time>2024-09-22T10:54:39.000Z</time>
      </trkpt>
      <trkpt lat="42.98518" lon="19.04987">
        <ele>1099.4000244141</ele>
        <time>2024-09-22T10:54:46.000Z</time>
      </trkpt>
      <trkpt lat="42.98523" lon="19.04983">
        <ele>1098.9200439453</ele>
        <time>2024-09-22T10:54:55.000Z</time>
      </trkpt>
      <trkpt lat="42.98527" lon="19.04974">
        <ele>1099.4000244141</ele>
        <time>2024-09-22T10:55:05.000Z</time>
      </trkpt>
      <trkpt lat="42.98525" lon="19.04972">
        <ele>1099.8900146484</ele>
        <time>2024-09-22T10:55:08.000Z</time>
      </trkpt>
      <trkpt lat="42.98517" lon="19.0498">
        <ele>1099.4000244141</ele>
        <time>2024-09-22T10:55:12.000Z</time>
      </trkpt>
      <trkpt lat="42.985" lon="19.04992">
        <ele>1099.8900146484</ele>
        <time>2024-09-22T10:55:20.000Z</time>
      </trkpt>
      <trkpt lat="42.98494" lon="19.05002">
        <ele>1099.4000244141</ele>
        <time>2024-09-22T10:55:40.000Z</time>
      </trkpt>
      <trkpt lat="42.98484" lon="19.05021">
        <ele>1098.9200439453</ele>
        <time>2024-09-22T10:55:46.000Z</time>
      </trkpt>
      <trkpt lat="42.98482" lon="19.05031">
        <ele>1098.4399414062</ele>
        <time>2024-09-22T10:55:56.000Z</time>
      </trkpt>
      <trkpt lat="42.98482" lon="19.05037">
        <ele>1098.4399414062</ele>
        <time>2024-09-22T10:56:13.000Z</time>
      </trkpt>
      <trkpt lat="42.98483" lon="19.05044">
        <ele>1098.4399414062</ele>
        <time>2024-09-22T10:56:15.000Z</time>
      </trkpt>
      <trkpt lat="42.98484" lon="19.05045">
        <ele>1098.4399414062</ele>
        <time>2024-09-22T10:56:16.000Z</time>
      </trkpt>
      <trkpt lat="42.98484" lon="19.05054">
        <ele>1098.4399414062</ele>
        <time>2024-09-22T10:56:17.000Z</time>
      </trkpt>
      <trkpt lat="42.98484" lon="19.05063">
        <ele>1098.4399414062</ele>
        <time>2024-09-22T10:56:18.000Z</time>
      </trkpt>
      <trkpt lat="42.98484" lon="19.05075">
        <ele>1097.9599609375</ele>
        <time>2024-09-22T10:56:19.000Z</time>
      </trkpt>
      <trkpt lat="42.98483" lon="19.05082">
        <ele>1097.9599609375</ele>
        <time>2024-09-22T10:56:20.000Z</time>
      </trkpt>
      <trkpt lat="42.98481" lon="19.05092">
        <ele>1097.9599609375</ele>
        <time>2024-09-22T10:56:21.000Z</time>
      </trkpt>
      <trkpt lat="42.98477" lon="19.05105">
        <ele>1097.4799804688</ele>
        <time>2024-09-22T10:56:22.000Z</time>
      </trkpt>
      <trkpt lat="42.98475" lon="19.05114">
        <ele>1097</ele>
        <time>2024-09-22T10:56:23.000Z</time>
      </trkpt>
      <trkpt lat="42.98473" lon="19.05128">
        <ele>1096.5200195312</ele>
        <time>2024-09-22T10:56:24.000Z</time>
      </trkpt>
      <trkpt lat="42.98472" lon="19.05137">
        <ele>1096.5200195312</ele>
        <time>2024-09-22T10:56:25.000Z</time>
      </trkpt>
      <trkpt lat="42.9847" lon="19.0515">
        <ele>1096.0400390625</ele>
        <time>2024-09-22T10:56:26.000Z</time>
      </trkpt>
      <trkpt lat="42.98468" lon="19.05162">
        <ele>1096.0400390625</ele>
        <time>2024-09-22T10:56:27.000Z</time>
      </trkpt>
      <trkpt lat="42.98465" lon="19.05173">
        <ele>1096.0400390625</ele>
        <time>2024-09-22T10:56:28.000Z</time>
      </trkpt>
      <trkpt lat="42.98457" lon="19.05197">
        <ele>1096.0400390625</ele>
        <time>2024-09-22T10:56:30.000Z</time>
      </trkpt>
      <trkpt lat="42.98455" lon="19.0521">
        <ele>1095.0799560547</ele>
        <time>2024-09-22T10:56:31.000Z</time>
      </trkpt>
      <trkpt lat="42.98453" lon="19.05225">
        <ele>1094.1199951172</ele>
        <time>2024-09-22T10:56:32.000Z</time>
      </trkpt>
      <trkpt lat="42.98452" lon="19.0524">
        <ele>1093.1600341797</ele>
        <time>2024-09-22T10:56:33.000Z</time>
      </trkpt>
      <trkpt lat="42.98454" lon="19.05255">
        <ele>1092.1999511719</ele>
        <time>2024-09-22T10:56:34.000Z</time>
      </trkpt>
      <trkpt lat="42.98455" lon="19.05268">
        <ele>1091.7099609375</ele>
        <time>2024-09-22T10:56:35.000Z</time>
      </trkpt>
      <trkpt lat="42.98456" lon="19.05286">
        <ele>1090.75</ele>
        <time>2024-09-22T10:56:36.000Z</time>
      </trkpt>
      <trkpt lat="42.98455" lon="19.05297">
        <ele>1090.2700195312</ele>
        <time>2024-09-22T10:56:37.000Z</time>
      </trkpt>
      <trkpt lat="42.98453" lon="19.05309">
        <ele>1090.2700195312</ele>
        <time>2024-09-22T10:56:38.000Z</time>
      </trkpt>
      <trkpt lat="42.98451" lon="19.05321">
        <ele>1090.2700195312</ele>
        <time>2024-09-22T10:56:39.000Z</time>
      </trkpt>
      <trkpt lat="42.9845" lon="19.05332">
        <ele>1090.2700195312</ele>
        <time>2024-09-22T10:56:40.000Z</time>
      </trkpt>
      <trkpt lat="42.98451" lon="19.05345">
        <ele>1089.7900390625</ele>
        <time>2024-09-22T10:56:41.000Z</time>
      </trkpt>
      <trkpt lat="42.98454" lon="19.05399">
        <ele>1088.8299560547</ele>
        <time>2024-09-22T10:56:45.000Z</time>
      </trkpt>
      <trkpt lat="42.98455" lon="19.05403">
        <ele>1088.8299560547</ele>
        <time>2024-09-22T10:56:46.000Z</time>
      </trkpt>
      <trkpt lat="42.98458" lon="19.05425">
        <ele>1088.3499755859</ele>
        <time>2024-09-22T10:56:47.000Z</time>
      </trkpt>
      <trkpt lat="42.98459" lon="19.05428">
        <ele>1088.3499755859</ele>
        <time>2024-09-22T10:56:48.000Z</time>
      </trkpt>
      <trkpt lat="42.98461" lon="19.0544">
        <ele>1088.3499755859</ele>
        <time>2024-09-22T10:56:49.000Z</time>
      </trkpt>
      <trkpt lat="42.98462" lon="19.05451">
        <ele>1087.8699951172</ele>
        <time>2024-09-22T10:56:50.000Z</time>
      </trkpt>
      <trkpt lat="42.98463" lon="19.05472">
        <ele>1087.3900146484</ele>
        <time>2024-09-22T10:56:51.000Z</time>
      </trkpt>
      <trkpt lat="42.98464" lon="19.05492">
        <ele>1085.9499511719</ele>
        <time>2024-09-22T10:56:53.000Z</time>
      </trkpt>
      <trkpt lat="42.98467" lon="19.05594">
        <ele>1082.5799560547</ele>
        <time>2024-09-22T10:57:00.000Z</time>
      </trkpt>
      <trkpt lat="42.98468" lon="19.056">
        <ele>1082.5799560547</ele>
        <time>2024-09-22T10:57:01.000Z</time>
      </trkpt>
      <trkpt lat="42.9847" lon="19.05613">
        <ele>1082.5799560547</ele>
        <time>2024-09-22T10:57:02.000Z</time>
      </trkpt>
      <trkpt lat="42.98471" lon="19.05622">
        <ele>1082.5799560547</ele>
        <time>2024-09-22T10:57:03.000Z</time>
      </trkpt>
      <trkpt lat="42.98472" lon="19.0563">
        <ele>1082.5799560547</ele>
        <time>2024-09-22T10:57:04.000Z</time>
      </trkpt>
      <trkpt lat="42.98473" lon="19.05638">
        <ele>1082.5799560547</ele>
        <time>2024-09-22T10:57:05.000Z</time>
      </trkpt>
      <trkpt lat="42.98474" lon="19.05647">
        <ele>1082.5799560547</ele>
        <time>2024-09-22T10:57:06.000Z</time>
      </trkpt>
      <trkpt lat="42.98476" lon="19.05656">
        <ele>1082.5799560547</ele>
        <time>2024-09-22T10:57:07.000Z</time>
      </trkpt>
      <trkpt lat="42.98478" lon="19.05661">
        <ele>1082.5799560547</ele>
        <time>2024-09-22T10:57:08.000Z</time>
      </trkpt>
      <trkpt lat="42.98483" lon="19.0567">
        <ele>1082.0999755859</ele>
        <time>2024-09-22T10:57:09.000Z</time>
      </trkpt>
      <trkpt lat="42.98485" lon="19.05673">
        <ele>1081.6199951172</ele>
        <time>2024-09-22T10:57:10.000Z</time>
      </trkpt>
      <trkpt lat="42.9849" lon="19.05679">
        <ele>1080.1800537109</ele>
        <time>2024-09-22T10:57:11.000Z</time>
      </trkpt>
      <trkpt lat="42.98497" lon="19.05685">
        <ele>1078.7399902344</ele>
        <time>2024-09-22T10:57:12.000Z</time>
      </trkpt>
      <trkpt lat="42.9851" lon="19.05692">
        <ele>1077.2900390625</ele>
        <time>2024-09-22T10:57:13.000Z</time>
      </trkpt>
      <trkpt lat="42.98513" lon="19.05694">
        <ele>1077.2900390625</ele>
        <time>2024-09-22T10:57:14.000Z</time>
      </trkpt>
      <trkpt lat="42.9852" lon="19.05701">
        <ele>1076.3299560547</ele>
        <time>2024-09-22T10:57:15.000Z</time>
      </trkpt>
      <trkpt lat="42.98524" lon="19.05708">
        <ele>1076.3299560547</ele>
        <time>2024-09-22T10:57:16.000Z</time>
      </trkpt>
      <trkpt lat="42.98527" lon="19.05717">
        <ele>1076.3299560547</ele>
        <time>2024-09-22T10:57:17.000Z</time>
      </trkpt>
      <trkpt lat="42.98528" lon="19.05727">
        <ele>1076.3299560547</ele>
        <time>2024-09-22T10:57:18.000Z</time>
      </trkpt>
      <trkpt lat="42.98528" lon="19.05737">
        <ele>1076.8100585938</ele>
        <time>2024-09-22T10:57:19.000Z</time>
      </trkpt>
      <trkpt lat="42.98527" lon="19.05749">
        <ele>1077.2900390625</ele>
        <time>2024-09-22T10:57:20.000Z</time>
      </trkpt>
      <trkpt lat="42.98527" lon="19.05758">
        <ele>1077.2900390625</ele>
        <time>2024-09-22T10:57:21.000Z</time>
      </trkpt>
      <trkpt lat="42.98527" lon="19.05766">
        <ele>1077.2900390625</ele>
        <time>2024-09-22T10:57:22.000Z</time>
      </trkpt>
      <trkpt lat="42.9853" lon="19.05796">
        <ele>1078.7399902344</ele>
        <time>2024-09-22T10:57:28.000Z</time>
      </trkpt>
      <trkpt lat="42.9853" lon="19.05792">
        <ele>1078.7399902344</ele>
        <time>2024-09-22T10:57:45.000Z</time>
      </trkpt>
      <trkpt lat="42.9853" lon="19.05789">
        <ele>1078.2600097656</ele>
        <time>2024-09-22T10:58:06.000Z</time>
      </trkpt>
      <trkpt lat="42.9853" lon="19.05797">
        <ele>1078.7399902344</ele>
        <time>2024-09-22T10:58:16.000Z</time>
      </trkpt>
      <trkpt lat="42.98528" lon="19.05798">
        <ele>1078.7399902344</ele>
        <time>2024-09-22T10:58:24.000Z</time>
      </trkpt>
      <trkpt lat="42.98528" lon="19.05803">
        <ele>1078.7399902344</ele>
        <time>2024-09-22T10:59:07.000Z</time>
      </trkpt>
      <trkpt lat="42.98528" lon="19.05812">
        <ele>1078.2600097656</ele>
        <time>2024-09-22T10:59:08.000Z</time>
      </trkpt>
      <trkpt lat="42.98522" lon="19.05837">
        <ele>1077.7800292969</ele>
        <time>2024-09-22T10:59:11.000Z</time>
      </trkpt>
      <trkpt lat="42.9852" lon="19.05853">
        <ele>1077.2900390625</ele>
        <time>2024-09-22T10:59:12.000Z</time>
      </trkpt>
      <trkpt lat="42.98519" lon="19.05862">
        <ele>1077.2900390625</ele>
        <time>2024-09-22T10:59:13.000Z</time>
      </trkpt>
      <trkpt lat="42.98518" lon="19.05876">
        <ele>1077.2900390625</ele>
        <time>2024-09-22T10:59:14.000Z</time>
      </trkpt>
      <trkpt lat="42.98518" lon="19.05888">
        <ele>1077.2900390625</ele>
        <time>2024-09-22T10:59:15.000Z</time>
      </trkpt>
      <trkpt lat="42.9852" lon="19.059">
        <ele>1077.2900390625</ele>
        <time>2024-09-22T10:59:16.000Z</time>
      </trkpt>
      <trkpt lat="42.98522" lon="19.05918">
        <ele>1077.2900390625</ele>
        <time>2024-09-22T10:59:17.000Z</time>
      </trkpt>
      <trkpt lat="42.98523" lon="19.05928">
        <ele>1077.2900390625</ele>
        <time>2024-09-22T10:59:18.000Z</time>
      </trkpt>
      <trkpt lat="42.98526" lon="19.05978">
        <ele>1078.7399902344</ele>
        <time>2024-09-22T10:59:21.000Z</time>
      </trkpt>
      <trkpt lat="42.98529" lon="19.06003">
        <ele>1079.6999511719</ele>
        <time>2024-09-22T10:59:22.000Z</time>
      </trkpt>
      <trkpt lat="42.9853" lon="19.06005">
        <ele>1080.1800537109</ele>
        <time>2024-09-22T10:59:23.000Z</time>
      </trkpt>
      <trkpt lat="42.98532" lon="19.06023">
        <ele>1081.1400146484</ele>
        <time>2024-09-22T10:59:24.000Z</time>
      </trkpt>
      <trkpt lat="42.98534" lon="19.0604">
        <ele>1081.1400146484</ele>
        <time>2024-09-22T10:59:25.000Z</time>
      </trkpt>
      <trkpt lat="42.98535" lon="19.06045">
        <ele>1081.6199951172</ele>
        <time>2024-09-22T10:59:26.000Z</time>
      </trkpt>
      <trkpt lat="42.98535" lon="19.06056">
        <ele>1081.6199951172</ele>
        <time>2024-09-22T10:59:27.000Z</time>
      </trkpt>
      <trkpt lat="42.98532" lon="19.06065">
        <ele>1082.5799560547</ele>
        <time>2024-09-22T10:59:28.000Z</time>
      </trkpt>
      <trkpt lat="42.98528" lon="19.06072">
        <ele>1083.0600585938</ele>
        <time>2024-09-22T10:59:29.000Z</time>
      </trkpt>
      <trkpt lat="42.98527" lon="19.06075">
        <ele>1083.0600585938</ele>
        <time>2024-09-22T10:59:30.000Z</time>
      </trkpt>
      <trkpt lat="42.98532" lon="19.06078">
        <ele>1083.0600585938</ele>
        <time>2024-09-22T10:59:34.000Z</time>
      </trkpt>
      <trkpt lat="42.98532" lon="19.06074">
        <ele>1083.5400390625</ele>
        <time>2024-09-22T10:59:35.000Z</time>
      </trkpt>
      <trkpt lat="42.98533" lon="19.06071">
        <ele>1083.5400390625</ele>
        <time>2024-09-22T10:59:36.000Z</time>
      </trkpt>
      <trkpt lat="42.98534" lon="19.06036">
        <ele>1083.5400390625</ele>
        <time>2024-09-22T10:59:43.000Z</time>
      </trkpt>
      <trkpt lat="42.98533" lon="19.06032">
        <ele>1083.5400390625</ele>
        <time>2024-09-22T10:59:44.000Z</time>
      </trkpt>
      <trkpt lat="42.98532" lon="19.06026">
        <ele>1083.5400390625</ele>
        <time>2024-09-22T10:59:45.000Z</time>
      </trkpt>
      <trkpt lat="42.98531" lon="19.06021">
        <ele>1083.0600585938</ele>
        <time>2024-09-22T10:59:46.000Z</time>
      </trkpt>
      <trkpt lat="42.98531" lon="19.06015">
        <ele>1082.5799560547</ele>
        <time>2024-09-22T10:59:47.000Z</time>
      </trkpt>
      <trkpt lat="42.9853" lon="19.06007">
        <ele>1082.5799560547</ele>
        <time>2024-09-22T10:59:48.000Z</time>
      </trkpt>
      <trkpt lat="42.9853" lon="19.06001">
        <ele>1082.5799560547</ele>
        <time>2024-09-22T10:59:49.000Z</time>
      </trkpt>
      <trkpt lat="42.98528" lon="19.05991">
        <ele>1082.0999755859</ele>
        <time>2024-09-22T10:59:50.000Z</time>
      </trkpt>
      <trkpt lat="42.98525" lon="19.05979">
        <ele>1081.6199951172</ele>
        <time>2024-09-22T10:59:51.000Z</time>
      </trkpt>
      <trkpt lat="42.98524" lon="19.0596">
        <ele>1080.1800537109</ele>
        <time>2024-09-22T10:59:52.000Z</time>
      </trkpt>
      <trkpt lat="42.98523" lon="19.05928">
        <ele>1079.2199707031</ele>
        <time>2024-09-22T10:59:53.000Z</time>
      </trkpt>
      <trkpt lat="42.98522" lon="19.05914">
        <ele>1079.2199707031</ele>
        <time>2024-09-22T10:59:54.000Z</time>
      </trkpt>
      <trkpt lat="42.98519" lon="19.05886">
        <ele>1077.7800292969</ele>
        <time>2024-09-22T10:59:55.000Z</time>
      </trkpt>
      <trkpt lat="42.98519" lon="19.05883">
        <ele>1077.7800292969</ele>
        <time>2024-09-22T10:59:56.000Z</time>
      </trkpt>
      <trkpt lat="42.98519" lon="19.05867">
        <ele>1077.2900390625</ele>
        <time>2024-09-22T10:59:57.000Z</time>
      </trkpt>
      <trkpt lat="42.98521" lon="19.05846">
        <ele>1076.8100585938</ele>
        <time>2024-09-22T10:59:58.000Z</time>
      </trkpt>
      <trkpt lat="42.98524" lon="19.05832">
        <ele>1076.8100585938</ele>
        <time>2024-09-22T10:59:59.000Z</time>
      </trkpt>
      <trkpt lat="42.98529" lon="19.05809">
        <ele>1076.3299560547</ele>
        <time>2024-09-22T11:00:00.000Z</time>
      </trkpt>
      <trkpt lat="42.9853" lon="19.05803">
        <ele>1076.8100585938</ele>
        <time>2024-09-22T11:00:01.000Z</time>
      </trkpt>
      <trkpt lat="42.98531" lon="19.05797">
        <ele>1076.8100585938</ele>
        <time>2024-09-22T11:00:02.000Z</time>
      </trkpt>
      <trkpt lat="42.98531" lon="19.05787">
        <ele>1076.3299560547</ele>
        <time>2024-09-22T11:00:03.000Z</time>
      </trkpt>
      <trkpt lat="42.9853" lon="19.05772">
        <ele>1076.3299560547</ele>
        <time>2024-09-22T11:00:04.000Z</time>
      </trkpt>
      <trkpt lat="42.9853" lon="19.05761">
        <ele>1075.8499755859</ele>
        <time>2024-09-22T11:00:05.000Z</time>
      </trkpt>
      <trkpt lat="42.9853" lon="19.05754">
        <ele>1075.3699951172</ele>
        <time>2024-09-22T11:00:06.000Z</time>
      </trkpt>
      <trkpt lat="42.98529" lon="19.0573">
        <ele>1073.9300537109</ele>
        <time>2024-09-22T11:00:08.000Z</time>
      </trkpt>
      <trkpt lat="42.98529" lon="19.05725">
        <ele>1073.9300537109</ele>
        <time>2024-09-22T11:00:09.000Z</time>
      </trkpt>
      <trkpt lat="42.98527" lon="19.05714">
        <ele>1073.4499511719</ele>
        <time>2024-09-22T11:00:10.000Z</time>
      </trkpt>
      <trkpt lat="42.98524" lon="19.05704">
        <ele>1072.9699707031</ele>
        <time>2024-09-22T11:00:11.000Z</time>
      </trkpt>
      <trkpt lat="42.98517" lon="19.05695">
        <ele>1073.4499511719</ele>
        <time>2024-09-22T11:00:12.000Z</time>
      </trkpt>
      <trkpt lat="42.98509" lon="19.05689">
        <ele>1073.9300537109</ele>
        <time>2024-09-22T11:00:13.000Z</time>
      </trkpt>
      <trkpt lat="42.98498" lon="19.05683">
        <ele>1075.3699951172</ele>
        <time>2024-09-22T11:00:14.000Z</time>
      </trkpt>
      <trkpt lat="42.98492" lon="19.05678">
        <ele>1075.8499755859</ele>
        <time>2024-09-22T11:00:15.000Z</time>
      </trkpt>
      <trkpt lat="42.98486" lon="19.05672">
        <ele>1077.7800292969</ele>
        <time>2024-09-22T11:00:16.000Z</time>
      </trkpt>
      <trkpt lat="42.98481" lon="19.05663">
        <ele>1078.2600097656</ele>
        <time>2024-09-22T11:00:17.000Z</time>
      </trkpt>
      <trkpt lat="42.98479" lon="19.0565">
        <ele>1078.2600097656</ele>
        <time>2024-09-22T11:00:18.000Z</time>
      </trkpt>
      <trkpt lat="42.98477" lon="19.05637">
        <ele>1077.7800292969</ele>
        <time>2024-09-22T11:00:19.000Z</time>
      </trkpt>
      <trkpt lat="42.98474" lon="19.05621">
        <ele>1078.2600097656</ele>
        <time>2024-09-22T11:00:20.000Z</time>
      </trkpt>
      <trkpt lat="42.98471" lon="19.05592">
        <ele>1078.2600097656</ele>
        <time>2024-09-22T11:00:22.000Z</time>
      </trkpt>
      <trkpt lat="42.98467" lon="19.05483">
        <ele>1083.0600585938</ele>
        <time>2024-09-22T11:00:29.000Z</time>
      </trkpt>
      <trkpt lat="42.98466" lon="19.05474">
        <ele>1083.5400390625</ele>
        <time>2024-09-22T11:00:30.000Z</time>
      </trkpt>
      <trkpt lat="42.98465" lon="19.05459">
        <ele>1086.4300537109</ele>
        <time>2024-09-22T11:00:36.000Z</time>
      </trkpt>
      <trkpt lat="42.98465" lon="19.05477">
        <ele>1086.9100341797</ele>
        <time>2024-09-22T11:00:41.000Z</time>
      </trkpt>
      <trkpt lat="42.98465" lon="19.05482">
        <ele>1086.9100341797</ele>
        <time>2024-09-22T11:00:42.000Z</time>
      </trkpt>
      <trkpt lat="42.98465" lon="19.05488">
        <ele>1086.9100341797</ele>
        <time>2024-09-22T11:00:48.000Z</time>
      </trkpt>
      <trkpt lat="42.98464" lon="19.05502">
        <ele>1086.9100341797</ele>
        <time>2024-09-22T11:00:56.000Z</time>
      </trkpt>
      <trkpt lat="42.98464" lon="19.05518">
        <ele>1085.9499511719</ele>
        <time>2024-09-22T11:01:04.000Z</time>
      </trkpt>
      <trkpt lat="42.98464" lon="19.05523">
        <ele>1085.9499511719</ele>
        <time>2024-09-22T11:01:17.000Z</time>
      </trkpt>
      <trkpt lat="42.98464" lon="19.05526">
        <ele>1085.9499511719</ele>
        <time>2024-09-22T11:01:18.000Z</time>
      </trkpt>
      <trkpt lat="42.98465" lon="19.05535">
        <ele>1085.9499511719</ele>
        <time>2024-09-22T11:01:19.000Z</time>
      </trkpt>
      <trkpt lat="42.98465" lon="19.05543">
        <ele>1085.9499511719</ele>
        <time>2024-09-22T11:01:20.000Z</time>
      </trkpt>
      <trkpt lat="42.98465" lon="19.05554">
        <ele>1085.9499511719</ele>
        <time>2024-09-22T11:01:21.000Z</time>
      </trkpt>
      <trkpt lat="42.98465" lon="19.0557">
        <ele>1085.4699707031</ele>
        <time>2024-09-22T11:01:22.000Z</time>
      </trkpt>
      <trkpt lat="42.98466" lon="19.05582">
        <ele>1084.9899902344</ele>
        <time>2024-09-22T11:01:23.000Z</time>
      </trkpt>
      <trkpt lat="42.98467" lon="19.05596">
        <ele>1084.9899902344</ele>
        <time>2024-09-22T11:01:24.000Z</time>
      </trkpt>
      <trkpt lat="42.9847" lon="19.05618">
        <ele>1084.5</ele>
        <time>2024-09-22T11:01:25.000Z</time>
      </trkpt>
      <trkpt lat="42.98471" lon="19.05627">
        <ele>1084.5</ele>
        <time>2024-09-22T11:01:26.000Z</time>
      </trkpt>
      <trkpt lat="42.98472" lon="19.05636">
        <ele>1084.9899902344</ele>
        <time>2024-09-22T11:01:27.000Z</time>
      </trkpt>
      <trkpt lat="42.98474" lon="19.0565">
        <ele>1084.9899902344</ele>
        <time>2024-09-22T11:01:28.000Z</time>
      </trkpt>
      <trkpt lat="42.98477" lon="19.05661">
        <ele>1084.9899902344</ele>
        <time>2024-09-22T11:01:29.000Z</time>
      </trkpt>
      <trkpt lat="42.98481" lon="19.05672">
        <ele>1084.9899902344</ele>
        <time>2024-09-22T11:01:30.000Z</time>
      </trkpt>
      <trkpt lat="42.98486" lon="19.0568">
        <ele>1084.5</ele>
        <time>2024-09-22T11:01:31.000Z</time>
      </trkpt>
      <trkpt lat="42.98493" lon="19.05686">
        <ele>1084.0200195312</ele>
        <time>2024-09-22T11:01:32.000Z</time>
      </trkpt>
      <trkpt lat="42.98502" lon="19.05691">
        <ele>1083.0600585938</ele>
        <time>2024-09-22T11:01:33.000Z</time>
      </trkpt>
      <trkpt lat="42.98508" lon="19.05694">
        <ele>1082.5799560547</ele>
        <time>2024-09-22T11:01:34.000Z</time>
      </trkpt>
      <trkpt lat="42.98515" lon="19.05699">
        <ele>1082.5799560547</ele>
        <time>2024-09-22T11:01:35.000Z</time>
      </trkpt>
      <trkpt lat="42.9852" lon="19.05707">
        <ele>1082.5799560547</ele>
        <time>2024-09-22T11:01:36.000Z</time>
      </trkpt>
      <trkpt lat="42.98524" lon="19.05718">
        <ele>1082.0999755859</ele>
        <time>2024-09-22T11:01:37.000Z</time>
      </trkpt>
      <trkpt lat="42.98526" lon="19.05731">
        <ele>1082.0999755859</ele>
        <time>2024-09-22T11:01:38.000Z</time>
      </trkpt>
      <trkpt lat="42.98525" lon="19.05746">
        <ele>1083.0600585938</ele>
        <time>2024-09-22T11:01:39.000Z</time>
      </trkpt>
      <trkpt lat="42.98525" lon="19.05773">
        <ele>1084.5</ele>
        <time>2024-09-22T11:01:41.000Z</time>
      </trkpt>
      <trkpt lat="42.98527" lon="19.05786">
        <ele>1084.9899902344</ele>
        <time>2024-09-22T11:01:42.000Z</time>
      </trkpt>
      <trkpt lat="42.98528" lon="19.05797">
        <ele>1084.9899902344</ele>
        <time>2024-09-22T11:01:43.000Z</time>
      </trkpt>
      <trkpt lat="42.98527" lon="19.05808">
        <ele>1084.9899902344</ele>
        <time>2024-09-22T11:01:44.000Z</time>
      </trkpt>
      <trkpt lat="42.98522" lon="19.05827">
        <ele>1084.9899902344</ele>
        <time>2024-09-22T11:01:45.000Z</time>
      </trkpt>
      <trkpt lat="42.98519" lon="19.05843">
        <ele>1083.5400390625</ele>
        <time>2024-09-22T11:01:46.000Z</time>
      </trkpt>
      <trkpt lat="42.98518" lon="19.0585">
        <ele>1083.5400390625</ele>
        <time>2024-09-22T11:01:47.000Z</time>
      </trkpt>
      <trkpt lat="42.98517" lon="19.05861">
        <ele>1083.5400390625</ele>
        <time>2024-09-22T11:01:48.000Z</time>
      </trkpt>
      <trkpt lat="42.98516" lon="19.05877">
        <ele>1083.5400390625</ele>
        <time>2024-09-22T11:01:49.000Z</time>
      </trkpt>
      <trkpt lat="42.98517" lon="19.05891">
        <ele>1083.5400390625</ele>
        <time>2024-09-22T11:01:50.000Z</time>
      </trkpt>
      <trkpt lat="42.98518" lon="19.05904">
        <ele>1083.5400390625</ele>
        <time>2024-09-22T11:01:51.000Z</time>
      </trkpt>
      <trkpt lat="42.9852" lon="19.05922">
        <ele>1083.5400390625</ele>
        <time>2024-09-22T11:01:52.000Z</time>
      </trkpt>
      <trkpt lat="42.98521" lon="19.05934">
        <ele>1084.0200195312</ele>
        <time>2024-09-22T11:01:53.000Z</time>
      </trkpt>
      <trkpt lat="42.98522" lon="19.05953">
        <ele>1083.5400390625</ele>
        <time>2024-09-22T11:01:54.000Z</time>
      </trkpt>
      <trkpt lat="42.98523" lon="19.05968">
        <ele>1084.0200195312</ele>
        <time>2024-09-22T11:01:55.000Z</time>
      </trkpt>
      <trkpt lat="42.98524" lon="19.05978">
        <ele>1084.0200195312</ele>
        <time>2024-09-22T11:01:56.000Z</time>
      </trkpt>
      <trkpt lat="42.98526" lon="19.05993">
        <ele>1084.5</ele>
        <time>2024-09-22T11:01:57.000Z</time>
      </trkpt>
      <trkpt lat="42.98529" lon="19.06008">
        <ele>1084.9899902344</ele>
        <time>2024-09-22T11:01:58.000Z</time>
      </trkpt>
      <trkpt lat="42.9853" lon="19.06022">
        <ele>1085.4699707031</ele>
        <time>2024-09-22T11:01:59.000Z</time>
      </trkpt>
      <trkpt lat="42.98532" lon="19.06039">
        <ele>1085.4699707031</ele>
        <time>2024-09-22T11:02:00.000Z</time>
      </trkpt>
      <trkpt lat="42.98533" lon="19.0605">
        <ele>1085.9499511719</ele>
        <time>2024-09-22T11:02:01.000Z</time>
      </trkpt>
      <trkpt lat="42.98531" lon="19.06062">
        <ele>1085.9499511719</ele>
        <time>2024-09-22T11:02:02.000Z</time>
      </trkpt>
      <trkpt lat="42.98528" lon="19.06071">
        <ele>1086.4300537109</ele>
        <time>2024-09-22T11:02:03.000Z</time>
      </trkpt>
      <trkpt lat="42.98526" lon="19.06076">
        <ele>1085.9499511719</ele>
        <time>2024-09-22T11:02:04.000Z</time>
      </trkpt>
      <trkpt lat="42.98532" lon="19.06081">
        <ele>1084.5</ele>
        <time>2024-09-22T11:02:09.000Z</time>
      </trkpt>
      <trkpt lat="42.98535" lon="19.0604">
        <ele>1083.0600585938</ele>
        <time>2024-09-22T11:02:18.000Z</time>
      </trkpt>
      <trkpt lat="42.98534" lon="19.06029">
        <ele>1082.0999755859</ele>
        <time>2024-09-22T11:02:20.000Z</time>
      </trkpt>
      <trkpt lat="42.98533" lon="19.06026">
        <ele>1081.6199951172</ele>
        <time>2024-09-22T11:02:21.000Z</time>
      </trkpt>
      <trkpt lat="42.98532" lon="19.06021">
        <ele>1081.1400146484</ele>
        <time>2024-09-22T11:02:22.000Z</time>
      </trkpt>
      <trkpt lat="42.98532" lon="19.0601">
        <ele>1080.6600341797</ele>
        <time>2024-09-22T11:02:23.000Z</time>
      </trkpt>
      <trkpt lat="42.98531" lon="19.06003">
        <ele>1080.6600341797</ele>
        <time>2024-09-22T11:02:24.000Z</time>
      </trkpt>
      <trkpt lat="42.9853" lon="19.05995">
        <ele>1080.1800537109</ele>
        <time>2024-09-22T11:02:25.000Z</time>
      </trkpt>
      <trkpt lat="42.98527" lon="19.05981">
        <ele>1079.6999511719</ele>
        <time>2024-09-22T11:02:26.000Z</time>
      </trkpt>
      <trkpt lat="42.98526" lon="19.05972">
        <ele>1079.2199707031</ele>
        <time>2024-09-22T11:02:27.000Z</time>
      </trkpt>
      <trkpt lat="42.98523" lon="19.05916">
        <ele>1078.7399902344</ele>
        <time>2024-09-22T11:02:31.000Z</time>
      </trkpt>
      <trkpt lat="42.98522" lon="19.05911">
        <ele>1078.7399902344</ele>
        <time>2024-09-22T11:02:32.000Z</time>
      </trkpt>
      <trkpt lat="42.98519" lon="19.0589">
        <ele>1077.7800292969</ele>
        <time>2024-09-22T11:02:33.000Z</time>
      </trkpt>
      <trkpt lat="42.98519" lon="19.05886">
        <ele>1077.7800292969</ele>
        <time>2024-09-22T11:02:34.000Z</time>
      </trkpt>
      <trkpt lat="42.98518" lon="19.05873">
        <ele>1077.2900390625</ele>
        <time>2024-09-22T11:02:35.000Z</time>
      </trkpt>
      <trkpt lat="42.98519" lon="19.05858">
        <ele>1077.2900390625</ele>
        <time>2024-09-22T11:02:36.000Z</time>
      </trkpt>
      <trkpt lat="42.98522" lon="19.05843">
        <ele>1077.2900390625</ele>
        <time>2024-09-22T11:02:37.000Z</time>
      </trkpt>
      <trkpt lat="42.98525" lon="19.0583">
        <ele>1077.2900390625</ele>
        <time>2024-09-22T11:02:38.000Z</time>
      </trkpt>
      <trkpt lat="42.98529" lon="19.05813">
        <ele>1077.2900390625</ele>
        <time>2024-09-22T11:02:39.000Z</time>
      </trkpt>
      <trkpt lat="42.9853" lon="19.05809">
        <ele>1077.7800292969</ele>
        <time>2024-09-22T11:02:40.000Z</time>
      </trkpt>
      <trkpt lat="42.98531" lon="19.05798">
        <ele>1077.7800292969</ele>
        <time>2024-09-22T11:02:41.000Z</time>
      </trkpt>
      <trkpt lat="42.9853" lon="19.05782">
        <ele>1077.7800292969</ele>
        <time>2024-09-22T11:02:42.000Z</time>
      </trkpt>
      <trkpt lat="42.98529" lon="19.0576">
        <ele>1076.8100585938</ele>
        <time>2024-09-22T11:02:44.000Z</time>
      </trkpt>
      <trkpt lat="42.98529" lon="19.05745">
        <ele>1076.8100585938</ele>
        <time>2024-09-22T11:02:45.000Z</time>
      </trkpt>
      <trkpt lat="42.98529" lon="19.05732">
        <ele>1075.8499755859</ele>
        <time>2024-09-22T11:02:46.000Z</time>
      </trkpt>
      <trkpt lat="42.98528" lon="19.05721">
        <ele>1075.3699951172</ele>
        <time>2024-09-22T11:02:47.000Z</time>
      </trkpt>
      <trkpt lat="42.98527" lon="19.05709">
        <ele>1075.3699951172</ele>
        <time>2024-09-22T11:02:48.000Z</time>
      </trkpt>
      <trkpt lat="42.98522" lon="19.05699">
        <ele>1075.8499755859</ele>
        <time>2024-09-22T11:02:49.000Z</time>
      </trkpt>
      <trkpt lat="42.98515" lon="19.0569">
        <ele>1075.8499755859</ele>
        <time>2024-09-22T11:02:50.000Z</time>
      </trkpt>
      <trkpt lat="42.98507" lon="19.05685">
        <ele>1076.3299560547</ele>
        <time>2024-09-22T11:02:51.000Z</time>
      </trkpt>
      <trkpt lat="42.985" lon="19.05681">
        <ele>1077.2900390625</ele>
        <time>2024-09-22T11:02:52.000Z</time>
      </trkpt>
      <trkpt lat="42.98491" lon="19.05676">
        <ele>1078.7399902344</ele>
        <time>2024-09-22T11:02:53.000Z</time>
      </trkpt>
      <trkpt lat="42.98485" lon="19.05669">
        <ele>1080.1800537109</ele>
        <time>2024-09-22T11:02:54.000Z</time>
      </trkpt>
      <trkpt lat="42.98481" lon="19.0566">
        <ele>1080.6600341797</ele>
        <time>2024-09-22T11:02:55.000Z</time>
      </trkpt>
      <trkpt lat="42.98479" lon="19.05651">
        <ele>1080.6600341797</ele>
        <time>2024-09-22T11:02:56.000Z</time>
      </trkpt>
      <trkpt lat="42.98473" lon="19.05615">
        <ele>1079.6999511719</ele>
        <time>2024-09-22T11:02:58.000Z</time>
      </trkpt>
      <trkpt lat="42.98472" lon="19.0561">
        <ele>1079.6999511719</ele>
        <time>2024-09-22T11:02:59.000Z</time>
      </trkpt>
      <trkpt lat="42.9847" lon="19.05593">
        <ele>1080.1800537109</ele>
        <time>2024-09-22T11:03:00.000Z</time>
      </trkpt>
      <trkpt lat="42.98469" lon="19.05581">
        <ele>1080.1800537109</ele>
        <time>2024-09-22T11:03:01.000Z</time>
      </trkpt>
      <trkpt lat="42.98469" lon="19.0556">
        <ele>1081.1400146484</ele>
        <time>2024-09-22T11:03:02.000Z</time>
      </trkpt>
      <trkpt lat="42.98467" lon="19.05523">
        <ele>1082.5799560547</ele>
        <time>2024-09-22T11:03:05.000Z</time>
      </trkpt>
      <trkpt lat="42.98466" lon="19.05488">
        <ele>1084.0200195312</ele>
        <time>2024-09-22T11:03:07.000Z</time>
      </trkpt>
      <trkpt lat="42.98466" lon="19.05483">
        <ele>1084.5</ele>
        <time>2024-09-22T11:03:08.000Z</time>
      </trkpt>
      <trkpt lat="42.98465" lon="19.05476">
        <ele>1084.9899902344</ele>
        <time>2024-09-22T11:03:09.000Z</time>
      </trkpt>
      <trkpt lat="42.98463" lon="19.05469">
        <ele>1085.4699707031</ele>
        <time>2024-09-22T11:03:10.000Z</time>
      </trkpt>
      <trkpt lat="42.98466" lon="19.05461">
        <ele>1086.4300537109</ele>
        <time>2024-09-22T11:03:15.000Z</time>
      </trkpt>
      <trkpt lat="42.98464" lon="19.05483">
        <ele>1086.4300537109</ele>
        <time>2024-09-22T11:03:23.000Z</time>
      </trkpt>
      <trkpt lat="42.98464" lon="19.05489">
        <ele>1086.4300537109</ele>
        <time>2024-09-22T11:03:35.000Z</time>
      </trkpt>
      <trkpt lat="42.98464" lon="19.05505">
        <ele>1086.9100341797</ele>
        <time>2024-09-22T11:04:58.000Z</time>
      </trkpt>
      <trkpt lat="42.98464" lon="19.0551">
        <ele>1086.4300537109</ele>
        <time>2024-09-22T11:04:59.000Z</time>
      </trkpt>
      <trkpt lat="42.98464" lon="19.05517">
        <ele>1086.4300537109</ele>
        <time>2024-09-22T11:05:00.000Z</time>
      </trkpt>
      <trkpt lat="42.98464" lon="19.05525">
        <ele>1085.9499511719</ele>
        <time>2024-09-22T11:05:01.000Z</time>
      </trkpt>
      <trkpt lat="42.98465" lon="19.05548">
        <ele>1085.4699707031</ele>
        <time>2024-09-22T11:05:03.000Z</time>
      </trkpt>
      <trkpt lat="42.98465" lon="19.05555">
        <ele>1085.4699707031</ele>
        <time>2024-09-22T11:05:04.000Z</time>
      </trkpt>
      <trkpt lat="42.98465" lon="19.05565">
        <ele>1085.4699707031</ele>
        <time>2024-09-22T11:05:05.000Z</time>
      </trkpt>
      <trkpt lat="42.98466" lon="19.05575">
        <ele>1084.9899902344</ele>
        <time>2024-09-22T11:05:06.000Z</time>
      </trkpt>
      <trkpt lat="42.98466" lon="19.05583">
        <ele>1084.5</ele>
        <time>2024-09-22T11:05:07.000Z</time>
      </trkpt>
      <trkpt lat="42.98467" lon="19.05598">
        <ele>1084.0200195312</ele>
        <time>2024-09-22T11:05:08.000Z</time>
      </trkpt>
      <trkpt lat="42.9847" lon="19.05614">
        <ele>1084.0200195312</ele>
        <time>2024-09-22T11:05:09.000Z</time>
      </trkpt>
      <trkpt lat="42.98471" lon="19.0562">
        <ele>1084.0200195312</ele>
        <time>2024-09-22T11:05:10.000Z</time>
      </trkpt>
      <trkpt lat="42.98472" lon="19.05639">
        <ele>1084.0200195312</ele>
        <time>2024-09-22T11:05:11.000Z</time>
      </trkpt>
      <trkpt lat="42.98473" lon="19.05641">
        <ele>1084.0200195312</ele>
        <time>2024-09-22T11:05:12.000Z</time>
      </trkpt>
      <trkpt lat="42.98474" lon="19.05651">
        <ele>1084.5</ele>
        <time>2024-09-22T11:05:13.000Z</time>
      </trkpt>
      <trkpt lat="42.98477" lon="19.0566">
        <ele>1084.5</ele>
        <time>2024-09-22T11:05:14.000Z</time>
      </trkpt>
      <trkpt lat="42.9848" lon="19.05668">
        <ele>1084.5</ele>
        <time>2024-09-22T11:05:15.000Z</time>
      </trkpt>
      <trkpt lat="42.98484" lon="19.05676">
        <ele>1084.5</ele>
        <time>2024-09-22T11:05:16.000Z</time>
      </trkpt>
      <trkpt lat="42.98487" lon="19.05681">
        <ele>1084.5</ele>
        <time>2024-09-22T11:05:17.000Z</time>
      </trkpt>
      <trkpt lat="42.98492" lon="19.05685">
        <ele>1084.0200195312</ele>
        <time>2024-09-22T11:05:18.000Z</time>
      </trkpt>
      <trkpt lat="42.98501" lon="19.05689">
        <ele>1083.0600585938</ele>
        <time>2024-09-22T11:05:19.000Z</time>
      </trkpt>
      <trkpt lat="42.98505" lon="19.05692">
        <ele>1082.5799560547</ele>
        <time>2024-09-22T11:05:20.000Z</time>
      </trkpt>
      <trkpt lat="42.9851" lon="19.05695">
        <ele>1082.0999755859</ele>
        <time>2024-09-22T11:05:21.000Z</time>
      </trkpt>
      <trkpt lat="42.98516" lon="19.05701">
        <ele>1081.1400146484</ele>
        <time>2024-09-22T11:05:22.000Z</time>
      </trkpt>
      <trkpt lat="42.98521" lon="19.05709">
        <ele>1081.1400146484</ele>
        <time>2024-09-22T11:05:23.000Z</time>
      </trkpt>
      <trkpt lat="42.98524" lon="19.05719">
        <ele>1080.6600341797</ele>
        <time>2024-09-22T11:05:24.000Z</time>
      </trkpt>
      <trkpt lat="42.98525" lon="19.05731">
        <ele>1080.6600341797</ele>
        <time>2024-09-22T11:05:25.000Z</time>
      </trkpt>
      <trkpt lat="42.98524" lon="19.05742">
        <ele>1081.1400146484</ele>
        <time>2024-09-22T11:05:26.000Z</time>
      </trkpt>
      <trkpt lat="42.98524" lon="19.05756">
        <ele>1081.6199951172</ele>
        <time>2024-09-22T11:05:27.000Z</time>
      </trkpt>
      <trkpt lat="42.98524" lon="19.05769">
        <ele>1082.0999755859</ele>
        <time>2024-09-22T11:05:28.000Z</time>
      </trkpt>
      <trkpt lat="42.98525" lon="19.05777">
        <ele>1082.5799560547</ele>
        <time>2024-09-22T11:05:29.000Z</time>
      </trkpt>
      <trkpt lat="42.98527" lon="19.05788">
        <ele>1083.0600585938</ele>
        <time>2024-09-22T11:05:30.000Z</time>
      </trkpt>
      <trkpt lat="42.98527" lon="19.05798">
        <ele>1083.0600585938</ele>
        <time>2024-09-22T11:05:31.000Z</time>
      </trkpt>
      <trkpt lat="42.98526" lon="19.05808">
        <ele>1083.0600585938</ele>
        <time>2024-09-22T11:05:32.000Z</time>
      </trkpt>
      <trkpt lat="42.98524" lon="19.0582">
        <ele>1082.5799560547</ele>
        <time>2024-09-22T11:05:33.000Z</time>
      </trkpt>
      <trkpt lat="42.98522" lon="19.05831">
        <ele>1081.6199951172</ele>
        <time>2024-09-22T11:05:34.000Z</time>
      </trkpt>
      <trkpt lat="42.9852" lon="19.05843">
        <ele>1080.6600341797</ele>
        <time>2024-09-22T11:05:35.000Z</time>
      </trkpt>
      <trkpt lat="42.98518" lon="19.05857">
        <ele>1080.1800537109</ele>
        <time>2024-09-22T11:05:36.000Z</time>
      </trkpt>
      <trkpt lat="42.98517" lon="19.05869">
        <ele>1079.6999511719</ele>
        <time>2024-09-22T11:05:37.000Z</time>
      </trkpt>
      <trkpt lat="42.98517" lon="19.05883">
        <ele>1079.6999511719</ele>
        <time>2024-09-22T11:05:38.000Z</time>
      </trkpt>
      <trkpt lat="42.98518" lon="19.05894">
        <ele>1079.6999511719</ele>
        <time>2024-09-22T11:05:39.000Z</time>
      </trkpt>
      <trkpt lat="42.9852" lon="19.05911">
        <ele>1079.6999511719</ele>
        <time>2024-09-22T11:05:40.000Z</time>
      </trkpt>
      <trkpt lat="42.98521" lon="19.05913">
        <ele>1080.1800537109</ele>
        <time>2024-09-22T11:05:41.000Z</time>
      </trkpt>
      <trkpt lat="42.98522" lon="19.0592">
        <ele>1080.1800537109</ele>
        <time>2024-09-22T11:05:42.000Z</time>
      </trkpt>
      <trkpt lat="42.98522" lon="19.05929">
        <ele>1080.1800537109</ele>
        <time>2024-09-22T11:05:43.000Z</time>
      </trkpt>
      <trkpt lat="42.98522" lon="19.05939">
        <ele>1080.1800537109</ele>
        <time>2024-09-22T11:05:44.000Z</time>
      </trkpt>
      <trkpt lat="42.98522" lon="19.05947">
        <ele>1080.1800537109</ele>
        <time>2024-09-22T11:05:45.000Z</time>
      </trkpt>
      <trkpt lat="42.98524" lon="19.05965">
        <ele>1080.6600341797</ele>
        <time>2024-09-22T11:05:47.000Z</time>
      </trkpt>
      <trkpt lat="42.98525" lon="19.05979">
        <ele>1081.1400146484</ele>
        <time>2024-09-22T11:05:48.000Z</time>
      </trkpt>
      <trkpt lat="42.98526" lon="19.05988">
        <ele>1081.1400146484</ele>
        <time>2024-09-22T11:05:49.000Z</time>
      </trkpt>
      <trkpt lat="42.98528" lon="19.06">
        <ele>1082.0999755859</ele>
        <time>2024-09-22T11:05:50.000Z</time>
      </trkpt>
      <trkpt lat="42.98531" lon="19.06022">
        <ele>1083.0600585938</ele>
        <time>2024-09-22T11:05:51.000Z</time>
      </trkpt>
      <trkpt lat="42.98531" lon="19.06026">
        <ele>1083.0600585938</ele>
        <time>2024-09-22T11:05:52.000Z</time>
      </trkpt>
      <trkpt lat="42.98533" lon="19.06037">
        <ele>1083.0600585938</ele>
        <time>2024-09-22T11:05:53.000Z</time>
      </trkpt>
      <trkpt lat="42.98534" lon="19.06045">
        <ele>1083.0600585938</ele>
        <time>2024-09-22T11:05:54.000Z</time>
      </trkpt>
      <trkpt lat="42.98534" lon="19.06055">
        <ele>1083.5400390625</ele>
        <time>2024-09-22T11:05:55.000Z</time>
      </trkpt>
      <trkpt lat="42.98533" lon="19.06062">
        <ele>1084.0200195312</ele>
        <time>2024-09-22T11:05:56.000Z</time>
      </trkpt>
      <trkpt lat="42.98531" lon="19.06068">
        <ele>1084.0200195312</ele>
        <time>2024-09-22T11:05:57.000Z</time>
      </trkpt>
      <trkpt lat="42.98531" lon="19.06083">
        <ele>1083.0600585938</ele>
        <time>2024-09-22T11:06:03.000Z</time>
      </trkpt>
      <trkpt lat="42.98535" lon="19.06063">
        <ele>1082.5799560547</ele>
        <time>2024-09-22T11:06:11.000Z</time>
      </trkpt>
      <trkpt lat="42.98536" lon="19.06041">
        <ele>1081.1400146484</ele>
        <time>2024-09-22T11:06:23.000Z</time>
      </trkpt>
      <trkpt lat="42.98532" lon="19.06018">
        <ele>1079.2199707031</ele>
        <time>2024-09-22T11:06:33.000Z</time>
      </trkpt>
      <trkpt lat="42.98532" lon="19.06">
        <ele>1078.2600097656</ele>
        <time>2024-09-22T11:06:42.000Z</time>
      </trkpt>
      <trkpt lat="42.98529" lon="19.0599">
        <ele>1077.7800292969</ele>
        <time>2024-09-22T11:06:52.000Z</time>
      </trkpt>
      <trkpt lat="42.98527" lon="19.05972">
        <ele>1077.7800292969</ele>
        <time>2024-09-22T11:07:07.000Z</time>
      </trkpt>
      <trkpt lat="42.98526" lon="19.05967">
        <ele>1077.2900390625</ele>
        <time>2024-09-22T11:07:08.000Z</time>
      </trkpt>
      <trkpt lat="42.98526" lon="19.0596">
        <ele>1077.2900390625</ele>
        <time>2024-09-22T11:07:09.000Z</time>
      </trkpt>
      <trkpt lat="42.98525" lon="19.05939">
        <ele>1076.8100585938</ele>
        <time>2024-09-22T11:07:11.000Z</time>
      </trkpt>
      <trkpt lat="42.98523" lon="19.05925">
        <ele>1076.8100585938</ele>
        <time>2024-09-22T11:07:12.000Z</time>
      </trkpt>
      <trkpt lat="42.98523" lon="19.05919">
        <ele>1076.3299560547</ele>
        <time>2024-09-22T11:07:13.000Z</time>
      </trkpt>
      <trkpt lat="42.9852" lon="19.05907">
        <ele>1076.3299560547</ele>
        <time>2024-09-22T11:07:14.000Z</time>
      </trkpt>
      <trkpt lat="42.9852" lon="19.05893">
        <ele>1076.3299560547</ele>
        <time>2024-09-22T11:07:15.000Z</time>
      </trkpt>
      <trkpt lat="42.98518" lon="19.05878">
        <ele>1076.3299560547</ele>
        <time>2024-09-22T11:07:16.000Z</time>
      </trkpt>
      <trkpt lat="42.98519" lon="19.05867">
        <ele>1075.8499755859</ele>
        <time>2024-09-22T11:07:17.000Z</time>
      </trkpt>
      <trkpt lat="42.9852" lon="19.05851">
        <ele>1076.3299560547</ele>
        <time>2024-09-22T11:07:18.000Z</time>
      </trkpt>
      <trkpt lat="42.98522" lon="19.0584">
        <ele>1075.8499755859</ele>
        <time>2024-09-22T11:07:19.000Z</time>
      </trkpt>
      <trkpt lat="42.98527" lon="19.05814">
        <ele>1076.3299560547</ele>
        <time>2024-09-22T11:07:20.000Z</time>
      </trkpt>
      <trkpt lat="42.98528" lon="19.0581">
        <ele>1076.3299560547</ele>
        <time>2024-09-22T11:07:21.000Z</time>
      </trkpt>
      <trkpt lat="42.9853" lon="19.05797">
        <ele>1076.3299560547</ele>
        <time>2024-09-22T11:07:22.000Z</time>
      </trkpt>
      <trkpt lat="42.9853" lon="19.05784">
        <ele>1076.3299560547</ele>
        <time>2024-09-22T11:07:23.000Z</time>
      </trkpt>
      <trkpt lat="42.98528" lon="19.05757">
        <ele>1075.8499755859</ele>
        <time>2024-09-22T11:07:24.000Z</time>
      </trkpt>
      <trkpt lat="42.98528" lon="19.05753">
        <ele>1075.8499755859</ele>
        <time>2024-09-22T11:07:25.000Z</time>
      </trkpt>
      <trkpt lat="42.98528" lon="19.05742">
        <ele>1075.8499755859</ele>
        <time>2024-09-22T11:07:26.000Z</time>
      </trkpt>
      <trkpt lat="42.98528" lon="19.05726">
        <ele>1075.3699951172</ele>
        <time>2024-09-22T11:07:27.000Z</time>
      </trkpt>
      <trkpt lat="42.98527" lon="19.05716">
        <ele>1075.3699951172</ele>
        <time>2024-09-22T11:07:28.000Z</time>
      </trkpt>
      <trkpt lat="42.98525" lon="19.05704">
        <ele>1074.8900146484</ele>
        <time>2024-09-22T11:07:29.000Z</time>
      </trkpt>
      <trkpt lat="42.98519" lon="19.05695">
        <ele>1074.4100341797</ele>
        <time>2024-09-22T11:07:30.000Z</time>
      </trkpt>
      <trkpt lat="42.98512" lon="19.05688">
        <ele>1074.4100341797</ele>
        <time>2024-09-22T11:07:31.000Z</time>
      </trkpt>
      <trkpt lat="42.98501" lon="19.05681">
        <ele>1074.8900146484</ele>
        <time>2024-09-22T11:07:32.000Z</time>
      </trkpt>
      <trkpt lat="42.98495" lon="19.05678">
        <ele>1075.3699951172</ele>
        <time>2024-09-22T11:07:33.000Z</time>
      </trkpt>
      <trkpt lat="42.98489" lon="19.05672">
        <ele>1075.8499755859</ele>
        <time>2024-09-22T11:07:34.000Z</time>
      </trkpt>
      <trkpt lat="42.98485" lon="19.05664">
        <ele>1076.8100585938</ele>
        <time>2024-09-22T11:07:35.000Z</time>
      </trkpt>
      <trkpt lat="42.98482" lon="19.05654">
        <ele>1076.8100585938</ele>
        <time>2024-09-22T11:07:36.000Z</time>
      </trkpt>
      <trkpt lat="42.98478" lon="19.05636">
        <ele>1077.2900390625</ele>
        <time>2024-09-22T11:07:37.000Z</time>
      </trkpt>
      <trkpt lat="42.98475" lon="19.05611">
        <ele>1076.8100585938</ele>
        <time>2024-09-22T11:07:39.000Z</time>
      </trkpt>
      <trkpt lat="42.98473" lon="19.05592">
        <ele>1076.8100585938</ele>
        <time>2024-09-22T11:07:40.000Z</time>
      </trkpt>
      <trkpt lat="42.98471" lon="19.05567">
        <ele>1076.8100585938</ele>
        <time>2024-09-22T11:07:41.000Z</time>
      </trkpt>
      <trkpt lat="42.98469" lon="19.05479">
        <ele>1078.7399902344</ele>
        <time>2024-09-22T11:07:46.000Z</time>
      </trkpt>
      <trkpt lat="42.98468" lon="19.05448">
        <ele>1080.1800537109</ele>
        <time>2024-09-22T11:07:48.000Z</time>
      </trkpt>
      <trkpt lat="42.98468" lon="19.05435">
        <ele>1080.1800537109</ele>
        <time>2024-09-22T11:07:49.000Z</time>
      </trkpt>
      <trkpt lat="42.98466" lon="19.05421">
        <ele>1080.6600341797</ele>
        <time>2024-09-22T11:07:50.000Z</time>
      </trkpt>
      <trkpt lat="42.98463" lon="19.05408">
        <ele>1080.6600341797</ele>
        <time>2024-09-22T11:07:51.000Z</time>
      </trkpt>
      <trkpt lat="42.98461" lon="19.05389">
        <ele>1082.0999755859</ele>
        <time>2024-09-22T11:07:52.000Z</time>
      </trkpt>
      <trkpt lat="42.98458" lon="19.05363">
        <ele>1083.5400390625</ele>
        <time>2024-09-22T11:07:54.000Z</time>
      </trkpt>
      <trkpt lat="42.98457" lon="19.0535">
        <ele>1084.0200195312</ele>
        <time>2024-09-22T11:07:56.000Z</time>
      </trkpt>
      <trkpt lat="42.98455" lon="19.05338">
        <ele>1084.5</ele>
        <time>2024-09-22T11:07:57.000Z</time>
      </trkpt>
      <trkpt lat="42.98454" lon="19.05336">
        <ele>1084.9899902344</ele>
        <time>2024-09-22T11:07:58.000Z</time>
      </trkpt>
      <trkpt lat="42.98452" lon="19.05328">
        <ele>1085.9499511719</ele>
        <time>2024-09-22T11:07:59.000Z</time>
      </trkpt>
      <trkpt lat="42.98452" lon="19.05326">
        <ele>1085.9499511719</ele>
        <time>2024-09-22T11:08:00.000Z</time>
      </trkpt>
      <trkpt lat="42.98453" lon="19.05319">
        <ele>1086.4300537109</ele>
        <time>2024-09-22T11:08:01.000Z</time>
      </trkpt>
      <trkpt lat="42.98457" lon="19.05301">
        <ele>1087.3900146484</ele>
        <time>2024-09-22T11:08:03.000Z</time>
      </trkpt>
      <trkpt lat="42.98458" lon="19.0529">
        <ele>1088.3499755859</ele>
        <time>2024-09-22T11:08:04.000Z</time>
      </trkpt>
      <trkpt lat="42.98458" lon="19.05277">
        <ele>1088.8299560547</ele>
        <time>2024-09-22T11:08:05.000Z</time>
      </trkpt>
      <trkpt lat="42.98455" lon="19.05252">
        <ele>1089.7900390625</ele>
        <time>2024-09-22T11:08:07.000Z</time>
      </trkpt>
      <trkpt lat="42.98455" lon="19.0524">
        <ele>1090.2700195312</ele>
        <time>2024-09-22T11:08:08.000Z</time>
      </trkpt>
      <trkpt lat="42.98456" lon="19.05229">
        <ele>1090.75</ele>
        <time>2024-09-22T11:08:09.000Z</time>
      </trkpt>
      <trkpt lat="42.98458" lon="19.05214">
        <ele>1091.2299804688</ele>
        <time>2024-09-22T11:08:10.000Z</time>
      </trkpt>
      <trkpt lat="42.98459" lon="19.05206">
        <ele>1091.7099609375</ele>
        <time>2024-09-22T11:08:11.000Z</time>
      </trkpt>
      <trkpt lat="42.98463" lon="19.05194">
        <ele>1092.1999511719</ele>
        <time>2024-09-22T11:08:12.000Z</time>
      </trkpt>
      <trkpt lat="42.98468" lon="19.05176">
        <ele>1092.6800537109</ele>
        <time>2024-09-22T11:08:13.000Z</time>
      </trkpt>
      <trkpt lat="42.9847" lon="19.05168">
        <ele>1092.6800537109</ele>
        <time>2024-09-22T11:08:14.000Z</time>
      </trkpt>
      <trkpt lat="42.98475" lon="19.05138">
        <ele>1093.6400146484</ele>
        <time>2024-09-22T11:08:15.000Z</time>
      </trkpt>
      <trkpt lat="42.98477" lon="19.05123">
        <ele>1094.5999755859</ele>
        <time>2024-09-22T11:08:16.000Z</time>
      </trkpt>
      <trkpt lat="42.98478" lon="19.0512">
        <ele>1094.5999755859</ele>
        <time>2024-09-22T11:08:17.000Z</time>
      </trkpt>
      <trkpt lat="42.98482" lon="19.05107">
        <ele>1095.0799560547</ele>
        <time>2024-09-22T11:08:18.000Z</time>
      </trkpt>
      <trkpt lat="42.98488" lon="19.05091">
        <ele>1095.0799560547</ele>
        <time>2024-09-22T11:08:19.000Z</time>
      </trkpt>
      <trkpt lat="42.98487" lon="19.05078">
        <ele>1097</ele>
        <time>2024-09-22T11:08:24.000Z</time>
      </trkpt>
      <trkpt lat="42.98481" lon="19.05102">
        <ele>1097.9599609375</ele>
        <time>2024-09-22T11:08:31.000Z</time>
      </trkpt>
      <trkpt lat="42.98473" lon="19.05136">
        <ele>1098.4399414062</ele>
        <time>2024-09-22T11:08:39.000Z</time>
      </trkpt>
      <trkpt lat="42.98469" lon="19.05162">
        <ele>1097</ele>
        <time>2024-09-22T11:08:47.000Z</time>
      </trkpt>
      <trkpt lat="42.98468" lon="19.05168">
        <ele>1097</ele>
        <time>2024-09-22T11:08:54.000Z</time>
      </trkpt>
      <trkpt lat="42.98465" lon="19.05176">
        <ele>1097</ele>
        <time>2024-09-22T11:08:55.000Z</time>
      </trkpt>
      <trkpt lat="42.98463" lon="19.05183">
        <ele>1096.5200195312</ele>
        <time>2024-09-22T11:08:56.000Z</time>
      </trkpt>
      <trkpt lat="42.98459" lon="19.05199">
        <ele>1096.5200195312</ele>
        <time>2024-09-22T11:08:57.000Z</time>
      </trkpt>
      <trkpt lat="42.98458" lon="19.05203">
        <ele>1096.5200195312</ele>
        <time>2024-09-22T11:08:58.000Z</time>
      </trkpt>
      <trkpt lat="42.98456" lon="19.05211">
        <ele>1096.0400390625</ele>
        <time>2024-09-22T11:08:59.000Z</time>
      </trkpt>
      <trkpt lat="42.98454" lon="19.05224">
        <ele>1095.5600585938</ele>
        <time>2024-09-22T11:09:00.000Z</time>
      </trkpt>
      <trkpt lat="42.98453" lon="19.05234">
        <ele>1095.5600585938</ele>
        <time>2024-09-22T11:09:01.000Z</time>
      </trkpt>
      <trkpt lat="42.98454" lon="19.05249">
        <ele>1095.0799560547</ele>
        <time>2024-09-22T11:09:02.000Z</time>
      </trkpt>
      <trkpt lat="42.98455" lon="19.05264">
        <ele>1094.5999755859</ele>
        <time>2024-09-22T11:09:03.000Z</time>
      </trkpt>
      <trkpt lat="42.98456" lon="19.05276">
        <ele>1094.1199951172</ele>
        <time>2024-09-22T11:09:04.000Z</time>
      </trkpt>
      <trkpt lat="42.98456" lon="19.0529">
        <ele>1093.6400146484</ele>
        <time>2024-09-22T11:09:05.000Z</time>
      </trkpt>
      <trkpt lat="42.98455" lon="19.05302">
        <ele>1092.6800537109</ele>
        <time>2024-09-22T11:09:06.000Z</time>
      </trkpt>
      <trkpt lat="42.98452" lon="19.05316">
        <ele>1092.1999511719</ele>
        <time>2024-09-22T11:09:07.000Z</time>
      </trkpt>
      <trkpt lat="42.98451" lon="19.0533">
        <ele>1092.1999511719</ele>
        <time>2024-09-22T11:09:08.000Z</time>
      </trkpt>
      <trkpt lat="42.98452" lon="19.05354">
        <ele>1091.7099609375</ele>
        <time>2024-09-22T11:09:09.000Z</time>
      </trkpt>
      <trkpt lat="42.98453" lon="19.05363">
        <ele>1091.2299804688</ele>
        <time>2024-09-22T11:09:10.000Z</time>
      </trkpt>
      <trkpt lat="42.98454" lon="19.05393">
        <ele>1090.2700195312</ele>
        <time>2024-09-22T11:09:12.000Z</time>
      </trkpt>
      <trkpt lat="42.98457" lon="19.05416">
        <ele>1089.7900390625</ele>
        <time>2024-09-22T11:09:14.000Z</time>
      </trkpt>
      <trkpt lat="42.98461" lon="19.05437">
        <ele>1089.3100585938</ele>
        <time>2024-09-22T11:09:15.000Z</time>
      </trkpt>
      <trkpt lat="42.98462" lon="19.0544">
        <ele>1089.3100585938</ele>
        <time>2024-09-22T11:09:16.000Z</time>
      </trkpt>
      <trkpt lat="42.98463" lon="19.05453">
        <ele>1088.8299560547</ele>
        <time>2024-09-22T11:09:17.000Z</time>
      </trkpt>
      <trkpt lat="42.98464" lon="19.05468">
        <ele>1088.3499755859</ele>
        <time>2024-09-22T11:09:18.000Z</time>
      </trkpt>
      <trkpt lat="42.98465" lon="19.05487">
        <ele>1086.4300537109</ele>
        <time>2024-09-22T11:09:19.000Z</time>
      </trkpt>
      <trkpt lat="42.98466" lon="19.0551">
        <ele>1084.9899902344</ele>
        <time>2024-09-22T11:09:21.000Z</time>
      </trkpt>
      <trkpt lat="42.98469" lon="19.05592">
        <ele>1082.0999755859</ele>
        <time>2024-09-22T11:09:28.000Z</time>
      </trkpt>
      <trkpt lat="42.98474" lon="19.05632">
        <ele>1081.6199951172</ele>
        <time>2024-09-22T11:09:31.000Z</time>
      </trkpt>
      <trkpt lat="42.98475" lon="19.05643">
        <ele>1081.6199951172</ele>
        <time>2024-09-22T11:09:32.000Z</time>
      </trkpt>
      <trkpt lat="42.98476" lon="19.05647">
        <ele>1081.6199951172</ele>
        <time>2024-09-22T11:09:33.000Z</time>
      </trkpt>
      <trkpt lat="42.98477" lon="19.05654">
        <ele>1081.6199951172</ele>
        <time>2024-09-22T11:09:34.000Z</time>
      </trkpt>
      <trkpt lat="42.98482" lon="19.05669">
        <ele>1081.6199951172</ele>
        <time>2024-09-22T11:09:36.000Z</time>
      </trkpt>
      <trkpt lat="42.98486" lon="19.05677">
        <ele>1081.1400146484</ele>
        <time>2024-09-22T11:09:37.000Z</time>
      </trkpt>
      <trkpt lat="42.98492" lon="19.05683">
        <ele>1080.6600341797</ele>
        <time>2024-09-22T11:09:38.000Z</time>
      </trkpt>
      <trkpt lat="42.98499" lon="19.05688">
        <ele>1080.1800537109</ele>
        <time>2024-09-22T11:09:39.000Z</time>
      </trkpt>
      <trkpt lat="42.98511" lon="19.05694">
        <ele>1078.7399902344</ele>
        <time>2024-09-22T11:09:40.000Z</time>
      </trkpt>
      <trkpt lat="42.98515" lon="19.05696">
        <ele>1078.2600097656</ele>
        <time>2024-09-22T11:09:41.000Z</time>
      </trkpt>
      <trkpt lat="42.9852" lon="19.05702">
        <ele>1077.7800292969</ele>
        <time>2024-09-22T11:09:42.000Z</time>
      </trkpt>
      <trkpt lat="42.98525" lon="19.05709">
        <ele>1077.2900390625</ele>
        <time>2024-09-22T11:09:43.000Z</time>
      </trkpt>
      <trkpt lat="42.98527" lon="19.05718">
        <ele>1077.2900390625</ele>
        <time>2024-09-22T11:09:44.000Z</time>
      </trkpt>
      <trkpt lat="42.98528" lon="19.0573">
        <ele>1077.2900390625</ele>
        <time>2024-09-22T11:09:45.000Z</time>
      </trkpt>
      <trkpt lat="42.98528" lon="19.05742">
        <ele>1077.2900390625</ele>
        <time>2024-09-22T11:09:46.000Z</time>
      </trkpt>
      <trkpt lat="42.98527" lon="19.05763">
        <ele>1077.7800292969</ele>
        <time>2024-09-22T11:09:48.000Z</time>
      </trkpt>
      <trkpt lat="42.98528" lon="19.05775">
        <ele>1078.2600097656</ele>
        <time>2024-09-22T11:09:49.000Z</time>
      </trkpt>
      <trkpt lat="42.98529" lon="19.05787">
        <ele>1078.7399902344</ele>
        <time>2024-09-22T11:09:50.000Z</time>
      </trkpt>
      <trkpt lat="42.9853" lon="19.05793">
        <ele>1078.7399902344</ele>
        <time>2024-09-22T11:09:51.000Z</time>
      </trkpt>
      <trkpt lat="42.98529" lon="19.05804">
        <ele>1078.7399902344</ele>
        <time>2024-09-22T11:09:52.000Z</time>
      </trkpt>
      <trkpt lat="42.98526" lon="19.05818">
        <ele>1078.2600097656</ele>
        <time>2024-09-22T11:09:53.000Z</time>
      </trkpt>
      <trkpt lat="42.9852" lon="19.05853">
        <ele>1076.8100585938</ele>
        <time>2024-09-22T11:09:56.000Z</time>
      </trkpt>
      <trkpt lat="42.98519" lon="19.05862">
        <ele>1076.3299560547</ele>
        <time>2024-09-22T11:09:57.000Z</time>
      </trkpt>
      <trkpt lat="42.98518" lon="19.05874">
        <ele>1076.8100585938</ele>
        <time>2024-09-22T11:09:58.000Z</time>
      </trkpt>
      <trkpt lat="42.98519" lon="19.05887">
        <ele>1076.8100585938</ele>
        <time>2024-09-22T11:09:59.000Z</time>
      </trkpt>
      <trkpt lat="42.9852" lon="19.05901">
        <ele>1076.8100585938</ele>
        <time>2024-09-22T11:10:00.000Z</time>
      </trkpt>
      <trkpt lat="42.98522" lon="19.05916">
        <ele>1077.2900390625</ele>
        <time>2024-09-22T11:10:01.000Z</time>
      </trkpt>
      <trkpt lat="42.98523" lon="19.05926">
        <ele>1077.7800292969</ele>
        <time>2024-09-22T11:10:02.000Z</time>
      </trkpt>
      <trkpt lat="42.98524" lon="19.05935">
        <ele>1077.7800292969</ele>
        <time>2024-09-22T11:10:03.000Z</time>
      </trkpt>
      <trkpt lat="42.98525" lon="19.05959">
        <ele>1078.2600097656</ele>
        <time>2024-09-22T11:10:05.000Z</time>
      </trkpt>
      <trkpt lat="42.98526" lon="19.0598">
        <ele>1078.7399902344</ele>
        <time>2024-09-22T11:10:07.000Z</time>
      </trkpt>
      <trkpt lat="42.9853" lon="19.06003">
        <ele>1079.6999511719</ele>
        <time>2024-09-22T11:10:09.000Z</time>
      </trkpt>
      <trkpt lat="42.98531" lon="19.06012">
        <ele>1080.1800537109</ele>
        <time>2024-09-22T11:10:10.000Z</time>
      </trkpt>
      <trkpt lat="42.98533" lon="19.06028">
        <ele>1081.1400146484</ele>
        <time>2024-09-22T11:10:11.000Z</time>
      </trkpt>
      <trkpt lat="42.98534" lon="19.06039">
        <ele>1081.6199951172</ele>
        <time>2024-09-22T11:10:12.000Z</time>
      </trkpt>
      <trkpt lat="42.98535" lon="19.06041">
        <ele>1081.6199951172</ele>
        <time>2024-09-22T11:10:13.000Z</time>
      </trkpt>
      <trkpt lat="42.98535" lon="19.06052">
        <ele>1081.6199951172</ele>
        <time>2024-09-22T11:10:14.000Z</time>
      </trkpt>
      <trkpt lat="42.98534" lon="19.06062">
        <ele>1082.5799560547</ele>
        <time>2024-09-22T11:10:15.000Z</time>
      </trkpt>
      <trkpt lat="42.98531" lon="19.06069">
        <ele>1082.5799560547</ele>
        <time>2024-09-22T11:10:16.000Z</time>
      </trkpt>
      <trkpt lat="42.98528" lon="19.06083">
        <ele>1082.0999755859</ele>
        <time>2024-09-22T11:10:22.000Z</time>
      </trkpt>
      <trkpt lat="42.98529" lon="19.0609">
        <ele>1081.6199951172</ele>
        <time>2024-09-22T11:10:45.000Z</time>
      </trkpt>
      <trkpt lat="42.9853" lon="19.06091">
        <ele>1081.1400146484</ele>
        <time>2024-09-22T11:16:16.000Z</time>
      </trkpt>
      <trkpt lat="42.98532" lon="19.06098">
        <ele>1081.1400146484</ele>
        <time>2024-09-22T11:16:18.000Z</time>
      </trkpt>
      <trkpt lat="42.98533" lon="19.06104">
        <ele>1081.1400146484</ele>
        <time>2024-09-22T11:16:19.000Z</time>
      </trkpt>
      <trkpt lat="42.98535" lon="19.06123">
        <ele>1081.1400146484</ele>
        <time>2024-09-22T11:16:21.000Z</time>
      </trkpt>
      <trkpt lat="42.98536" lon="19.06128">
        <ele>1081.1400146484</ele>
        <time>2024-09-22T11:16:22.000Z</time>
      </trkpt>
      <trkpt lat="42.98538" lon="19.06134">
        <ele>1081.1400146484</ele>
        <time>2024-09-22T11:16:23.000Z</time>
      </trkpt>
      <trkpt lat="42.9854" lon="19.0614">
        <ele>1081.1400146484</ele>
        <time>2024-09-22T11:16:24.000Z</time>
      </trkpt>
      <trkpt lat="42.98549" lon="19.06186">
        <ele>1080.6600341797</ele>
        <time>2024-09-22T11:16:33.000Z</time>
      </trkpt>
      <trkpt lat="42.98549" lon="19.0619">
        <ele>1080.6600341797</ele>
        <time>2024-09-22T11:16:34.000Z</time>
      </trkpt>
      <trkpt lat="42.98548" lon="19.06199">
        <ele>1079.6999511719</ele>
        <time>2024-09-22T11:16:35.000Z</time>
      </trkpt>
      <trkpt lat="42.98548" lon="19.06202">
        <ele>1079.6999511719</ele>
        <time>2024-09-22T11:16:36.000Z</time>
      </trkpt>
      <trkpt lat="42.98546" lon="19.06214">
        <ele>1078.2600097656</ele>
        <time>2024-09-22T11:16:37.000Z</time>
      </trkpt>
      <trkpt lat="42.98545" lon="19.06224">
        <ele>1076.8100585938</ele>
        <time>2024-09-22T11:16:38.000Z</time>
      </trkpt>
      <trkpt lat="42.98544" lon="19.0623">
        <ele>1075.8499755859</ele>
        <time>2024-09-22T11:16:39.000Z</time>
      </trkpt>
      <trkpt lat="42.98542" lon="19.06242">
        <ele>1073.9300537109</ele>
        <time>2024-09-22T11:16:40.000Z</time>
      </trkpt>
      <trkpt lat="42.98538" lon="19.06262">
        <ele>1072.0100097656</ele>
        <time>2024-09-22T11:16:41.000Z</time>
      </trkpt>
      <trkpt lat="42.98538" lon="19.06266">
        <ele>1072.0100097656</ele>
        <time>2024-09-22T11:16:42.000Z</time>
      </trkpt>
      <trkpt lat="42.98537" lon="19.06276">
        <ele>1071.0500488281</ele>
        <time>2024-09-22T11:16:43.000Z</time>
      </trkpt>
      <trkpt lat="42.98539" lon="19.06285">
        <ele>1070.5699462891</ele>
        <time>2024-09-22T11:16:44.000Z</time>
      </trkpt>
      <trkpt lat="42.98542" lon="19.06292">
        <ele>1069.5999755859</ele>
        <time>2024-09-22T11:16:45.000Z</time>
      </trkpt>
      <trkpt lat="42.98607" lon="19.06383">
        <ele>1059.0300292969</ele>
        <time>2024-09-22T11:16:54.000Z</time>
      </trkpt>
      <trkpt lat="42.98614" lon="19.06394">
        <ele>1058.0699462891</ele>
        <time>2024-09-22T11:16:55.000Z</time>
      </trkpt>
      <trkpt lat="42.98616" lon="19.06398">
        <ele>1058.0699462891</ele>
        <time>2024-09-22T11:16:56.000Z</time>
      </trkpt>
      <trkpt lat="42.98624" lon="19.06408">
        <ele>1057.1099853516</ele>
        <time>2024-09-22T11:16:57.000Z</time>
      </trkpt>
      <trkpt lat="42.98631" lon="19.06416">
        <ele>1056.6300048828</ele>
        <time>2024-09-22T11:16:58.000Z</time>
      </trkpt>
      <trkpt lat="42.98638" lon="19.06423">
        <ele>1056.1500244141</ele>
        <time>2024-09-22T11:16:59.000Z</time>
      </trkpt>
      <trkpt lat="42.98651" lon="19.06431">
        <ele>1055.1800537109</ele>
        <time>2024-09-22T11:17:00.000Z</time>
      </trkpt>
      <trkpt lat="42.98657" lon="19.06434">
        <ele>1054.6999511719</ele>
        <time>2024-09-22T11:17:01.000Z</time>
      </trkpt>
      <trkpt lat="42.98704" lon="19.06452">
        <ele>1047.9699707031</ele>
        <time>2024-09-22T11:17:05.000Z</time>
      </trkpt>
      <trkpt lat="42.98724" lon="19.06463">
        <ele>1045.5699462891</ele>
        <time>2024-09-22T11:17:07.000Z</time>
      </trkpt>
      <trkpt lat="42.98747" lon="19.06474">
        <ele>1042.6899414062</ele>
        <time>2024-09-22T11:17:09.000Z</time>
      </trkpt>
      <trkpt lat="42.98751" lon="19.06476">
        <ele>1041.7299804688</ele>
        <time>2024-09-22T11:17:10.000Z</time>
      </trkpt>
      <trkpt lat="42.98771" lon="19.0649">
        <ele>1039.8000488281</ele>
        <time>2024-09-22T11:17:12.000Z</time>
      </trkpt>
      <trkpt lat="42.98829" lon="19.06524">
        <ele>1032.5899658203</ele>
        <time>2024-09-22T11:17:18.000Z</time>
      </trkpt>
      <trkpt lat="42.9885" lon="19.06531">
        <ele>1029.2299804688</ele>
        <time>2024-09-22T11:17:20.000Z</time>
      </trkpt>
      <trkpt lat="42.98858" lon="19.06534">
        <ele>1028.2700195312</ele>
        <time>2024-09-22T11:17:21.000Z</time>
      </trkpt>
      <trkpt lat="42.98867" lon="19.0654">
        <ele>1026.8299560547</ele>
        <time>2024-09-22T11:17:22.000Z</time>
      </trkpt>
      <trkpt lat="42.98874" lon="19.06549">
        <ele>1025.3800048828</ele>
        <time>2024-09-22T11:17:23.000Z</time>
      </trkpt>
      <trkpt lat="42.98879" lon="19.06561">
        <ele>1024.4200439453</ele>
        <time>2024-09-22T11:17:24.000Z</time>
      </trkpt>
      <trkpt lat="42.98883" lon="19.06575">
        <ele>1023.4600219727</ele>
        <time>2024-09-22T11:17:25.000Z</time>
      </trkpt>
      <trkpt lat="42.98885" lon="19.06589">
        <ele>1022.0200195312</ele>
        <time>2024-09-22T11:17:26.000Z</time>
      </trkpt>
      <trkpt lat="42.98885" lon="19.06602">
        <ele>1020.5800170898</ele>
        <time>2024-09-22T11:17:27.000Z</time>
      </trkpt>
      <trkpt lat="42.98882" lon="19.06613">
        <ele>1019.6199951172</ele>
        <time>2024-09-22T11:17:28.000Z</time>
      </trkpt>
      <trkpt lat="42.98877" lon="19.06622">
        <ele>1018.6500244141</ele>
        <time>2024-09-22T11:17:29.000Z</time>
      </trkpt>
      <trkpt lat="42.9887" lon="19.06627">
        <ele>1017.2100219727</ele>
        <time>2024-09-22T11:17:30.000Z</time>
      </trkpt>
      <trkpt lat="42.98862" lon="19.06629">
        <ele>1016.25</ele>
        <time>2024-09-22T11:17:31.000Z</time>
      </trkpt>
      <trkpt lat="42.98853" lon="19.06627">
        <ele>1014.8099975586</ele>
        <time>2024-09-22T11:17:32.000Z</time>
      </trkpt>
      <trkpt lat="42.98843" lon="19.06622">
        <ele>1013.8499755859</ele>
        <time>2024-09-22T11:17:33.000Z</time>
      </trkpt>
      <trkpt lat="42.98764" lon="19.06579">
        <ele>1006.6400146484</ele>
        <time>2024-09-22T11:17:40.000Z</time>
      </trkpt>
      <trkpt lat="42.98762" lon="19.06579">
        <ele>1006.6400146484</ele>
        <time>2024-09-22T11:17:41.000Z</time>
      </trkpt>
      <trkpt lat="42.98753" lon="19.06575">
        <ele>1005.6799926758</ele>
        <time>2024-09-22T11:17:42.000Z</time>
      </trkpt>
      <trkpt lat="42.98745" lon="19.06575">
        <ele>1005.200012207</ele>
        <time>2024-09-22T11:17:43.000Z</time>
      </trkpt>
      <trkpt lat="42.98738" lon="19.06578">
        <ele>1004.7199707031</ele>
        <time>2024-09-22T11:17:44.000Z</time>
      </trkpt>
      <trkpt lat="42.98732" lon="19.06584">
        <ele>1003.75</ele>
        <time>2024-09-22T11:17:45.000Z</time>
      </trkpt>
      <trkpt lat="42.98728" lon="19.06594">
        <ele>1002.7899780273</ele>
        <time>2024-09-22T11:17:46.000Z</time>
      </trkpt>
      <trkpt lat="42.98726" lon="19.06606">
        <ele>1001.8300170898</ele>
        <time>2024-09-22T11:17:47.000Z</time>
      </trkpt>
      <trkpt lat="42.98727" lon="19.06618">
        <ele>1001.3499755859</ele>
        <time>2024-09-22T11:17:48.000Z</time>
      </trkpt>
      <trkpt lat="42.9873" lon="19.06635">
        <ele>1000.8699951172</ele>
        <time>2024-09-22T11:17:49.000Z</time>
      </trkpt>
      <trkpt lat="42.98732" lon="19.06652">
        <ele>999.42999267578</ele>
        <time>2024-09-22T11:17:50.000Z</time>
      </trkpt>
      <trkpt lat="42.98735" lon="19.06675">
        <ele>998.46997070312</ele>
        <time>2024-09-22T11:17:52.000Z</time>
      </trkpt>
      <trkpt lat="42.98738" lon="19.06694">
        <ele>997.51000976562</ele>
        <time>2024-09-22T11:17:54.000Z</time>
      </trkpt>
      <trkpt lat="42.98741" lon="19.06705">
        <ele>997.02001953125</ele>
        <time>2024-09-22T11:17:55.000Z</time>
      </trkpt>
      <trkpt lat="42.98742" lon="19.06717">
        <ele>996.53997802734</ele>
        <time>2024-09-22T11:17:56.000Z</time>
      </trkpt>
      <trkpt lat="42.98743" lon="19.06737">
        <ele>996.05999755859</ele>
        <time>2024-09-22T11:17:58.000Z</time>
      </trkpt>
      <trkpt lat="42.98744" lon="19.06747">
        <ele>996.05999755859</ele>
        <time>2024-09-22T11:17:59.000Z</time>
      </trkpt>
      <trkpt lat="42.98748" lon="19.06755">
        <ele>996.53997802734</ele>
        <time>2024-09-22T11:18:00.000Z</time>
      </trkpt>
      <trkpt lat="42.98753" lon="19.06762">
        <ele>997.02001953125</ele>
        <time>2024-09-22T11:18:01.000Z</time>
      </trkpt>
      <trkpt lat="42.98758" lon="19.06771">
        <ele>997.02001953125</ele>
        <time>2024-09-22T11:18:02.000Z</time>
      </trkpt>
      <trkpt lat="42.9876" lon="19.06777">
        <ele>997.02001953125</ele>
        <time>2024-09-22T11:18:03.000Z</time>
      </trkpt>
      <trkpt lat="42.98759" lon="19.06783">
        <ele>996.53997802734</ele>
        <time>2024-09-22T11:18:04.000Z</time>
      </trkpt>
      <trkpt lat="42.98755" lon="19.06788">
        <ele>996.53997802734</ele>
        <time>2024-09-22T11:18:05.000Z</time>
      </trkpt>
      <trkpt lat="42.98737" lon="19.06804">
        <ele>996.53997802734</ele>
        <time>2024-09-22T11:18:07.000Z</time>
      </trkpt>
      <trkpt lat="42.98735" lon="19.06806">
        <ele>996.53997802734</ele>
        <time>2024-09-22T11:18:08.000Z</time>
      </trkpt>
      <trkpt lat="42.98724" lon="19.06813">
        <ele>997.02001953125</ele>
        <time>2024-09-22T11:18:09.000Z</time>
      </trkpt>
      <trkpt lat="42.98718" lon="19.06816">
        <ele>997.02001953125</ele>
        <time>2024-09-22T11:18:10.000Z</time>
      </trkpt>
      <trkpt lat="42.98709" lon="19.06819">
        <ele>997.51000976562</ele>
        <time>2024-09-22T11:18:11.000Z</time>
      </trkpt>
      <trkpt lat="42.987" lon="19.06824">
        <ele>997.98999023438</ele>
        <time>2024-09-22T11:18:12.000Z</time>
      </trkpt>
      <trkpt lat="42.98692" lon="19.0683">
        <ele>998.46997070312</ele>
        <time>2024-09-22T11:18:13.000Z</time>
      </trkpt>
      <trkpt lat="42.98684" lon="19.06836">
        <ele>998.46997070312</ele>
        <time>2024-09-22T11:18:14.000Z</time>
      </trkpt>
      <trkpt lat="42.98677" lon="19.06846">
        <ele>998.95001220703</ele>
        <time>2024-09-22T11:18:15.000Z</time>
      </trkpt>
      <trkpt lat="42.98667" lon="19.06863">
        <ele>999.42999267578</ele>
        <time>2024-09-22T11:18:16.000Z</time>
      </trkpt>
      <trkpt lat="42.98665" lon="19.06867">
        <ele>999.42999267578</ele>
        <time>2024-09-22T11:18:17.000Z</time>
      </trkpt>
      <trkpt lat="42.9866" lon="19.06873">
        <ele>999.42999267578</ele>
        <time>2024-09-22T11:18:18.000Z</time>
      </trkpt>
      <trkpt lat="42.98653" lon="19.06879">
        <ele>999.42999267578</ele>
        <time>2024-09-22T11:18:19.000Z</time>
      </trkpt>
      <trkpt lat="42.98632" lon="19.06892">
        <ele>998.95001220703</ele>
        <time>2024-09-22T11:18:21.000Z</time>
      </trkpt>
      <trkpt lat="42.98628" lon="19.06895">
        <ele>998.95001220703</ele>
        <time>2024-09-22T11:18:22.000Z</time>
      </trkpt>
      <trkpt lat="42.9862" lon="19.06902">
        <ele>999.42999267578</ele>
        <time>2024-09-22T11:18:23.000Z</time>
      </trkpt>
      <trkpt lat="42.98613" lon="19.06906">
        <ele>999.42999267578</ele>
        <time>2024-09-22T11:18:24.000Z</time>
      </trkpt>
      <trkpt lat="42.98606" lon="19.06908">
        <ele>1000.3900146484</ele>
        <time>2024-09-22T11:18:25.000Z</time>
      </trkpt>
      <trkpt lat="42.98599" lon="19.06909">
        <ele>1000.8699951172</ele>
        <time>2024-09-22T11:18:26.000Z</time>
      </trkpt>
      <trkpt lat="42.98582" lon="19.06908">
        <ele>1002.3099975586</ele>
        <time>2024-09-22T11:18:28.000Z</time>
      </trkpt>
      <trkpt lat="42.98567" lon="19.06906">
        <ele>1003.2700195312</ele>
        <time>2024-09-22T11:18:29.000Z</time>
      </trkpt>
      <trkpt lat="42.98559" lon="19.06906">
        <ele>1003.2700195312</ele>
        <time>2024-09-22T11:18:30.000Z</time>
      </trkpt>
      <trkpt lat="42.98555" lon="19.06905">
        <ele>1003.75</ele>
        <time>2024-09-22T11:18:31.000Z</time>
      </trkpt>
      <trkpt lat="42.98518" lon="19.06898">
        <ele>1005.6799926758</ele>
        <time>2024-09-22T11:18:34.000Z</time>
      </trkpt>
      <trkpt lat="42.98503" lon="19.06895">
        <ele>1005.6799926758</ele>
        <time>2024-09-22T11:18:35.000Z</time>
      </trkpt>
      <trkpt lat="42.98488" lon="19.0689">
        <ele>1005.6799926758</ele>
        <time>2024-09-22T11:18:36.000Z</time>
      </trkpt>
      <trkpt lat="42.98467" lon="19.06883">
        <ele>1005.6799926758</ele>
        <time>2024-09-22T11:18:38.000Z</time>
      </trkpt>
      <trkpt lat="42.9844" lon="19.06876">
        <ele>1005.200012207</ele>
        <time>2024-09-22T11:18:40.000Z</time>
      </trkpt>
      <trkpt lat="42.98425" lon="19.06872">
        <ele>1005.200012207</ele>
        <time>2024-09-22T11:18:41.000Z</time>
      </trkpt>
      <trkpt lat="42.9841" lon="19.06867">
        <ele>1005.6799926758</ele>
        <time>2024-09-22T11:18:42.000Z</time>
      </trkpt>
      <trkpt lat="42.98395" lon="19.06862">
        <ele>1005.6799926758</ele>
        <time>2024-09-22T11:18:43.000Z</time>
      </trkpt>
      <trkpt lat="42.98382" lon="19.06858">
        <ele>1006.1599731445</ele>
        <time>2024-09-22T11:18:44.000Z</time>
      </trkpt>
      <trkpt lat="42.98347" lon="19.06852">
        <ele>1004.7199707031</ele>
        <time>2024-09-22T11:18:46.000Z</time>
      </trkpt>
      <trkpt lat="42.98318" lon="19.06843">
        <ele>1004.7199707031</ele>
        <time>2024-09-22T11:18:48.000Z</time>
      </trkpt>
      <trkpt lat="42.98249" lon="19.06837">
        <ele>1003.75</ele>
        <time>2024-09-22T11:18:52.000Z</time>
      </trkpt>
      <trkpt lat="42.98231" lon="19.06838">
        <ele>1003.75</ele>
        <time>2024-09-22T11:18:53.000Z</time>
      </trkpt>
      <trkpt lat="42.98225" lon="19.06838">
        <ele>1003.75</ele>
        <time>2024-09-22T11:18:54.000Z</time>
      </trkpt>
      <trkpt lat="42.98211" lon="19.06837">
        <ele>1003.2700195312</ele>
        <time>2024-09-22T11:18:55.000Z</time>
      </trkpt>
      <trkpt lat="42.98187" lon="19.06832">
        <ele>1003.2700195312</ele>
        <time>2024-09-22T11:18:56.000Z</time>
      </trkpt>
      <trkpt lat="42.98185" lon="19.06832">
        <ele>1003.2700195312</ele>
        <time>2024-09-22T11:18:57.000Z</time>
      </trkpt>
      <trkpt lat="42.98173" lon="19.06831">
        <ele>1003.75</ele>
        <time>2024-09-22T11:18:58.000Z</time>
      </trkpt>
      <trkpt lat="42.98161" lon="19.06833">
        <ele>1004.2299804688</ele>
        <time>2024-09-22T11:18:59.000Z</time>
      </trkpt>
      <trkpt lat="42.9815" lon="19.06838">
        <ele>1004.2299804688</ele>
        <time>2024-09-22T11:19:00.000Z</time>
      </trkpt>
      <trkpt lat="42.98139" lon="19.06847">
        <ele>1004.2299804688</ele>
        <time>2024-09-22T11:19:01.000Z</time>
      </trkpt>
      <trkpt lat="42.98061" lon="19.06913">
        <ele>1006.6400146484</ele>
        <time>2024-09-22T11:19:07.000Z</time>
      </trkpt>
      <trkpt lat="42.98055" lon="19.06917">
        <ele>1007.1199951172</ele>
        <time>2024-09-22T11:19:08.000Z</time>
      </trkpt>
      <trkpt lat="42.98045" lon="19.06923">
        <ele>1007.5999755859</ele>
        <time>2024-09-22T11:19:09.000Z</time>
      </trkpt>
      <trkpt lat="42.98033" lon="19.06924">
        <ele>1008.5599975586</ele>
        <time>2024-09-22T11:19:10.000Z</time>
      </trkpt>
      <trkpt lat="42.98022" lon="19.06925">
        <ele>1009.5200195312</ele>
        <time>2024-09-22T11:19:11.000Z</time>
      </trkpt>
      <trkpt lat="42.98012" lon="19.06929">
        <ele>1010.4799804688</ele>
        <time>2024-09-22T11:19:12.000Z</time>
      </trkpt>
      <trkpt lat="42.98003" lon="19.06936">
        <ele>1011.4400024414</ele>
        <time>2024-09-22T11:19:13.000Z</time>
      </trkpt>
      <trkpt lat="42.97995" lon="19.06948">
        <ele>1011.4400024414</ele>
        <time>2024-09-22T11:19:14.000Z</time>
      </trkpt>
      <trkpt lat="42.97983" lon="19.06966">
        <ele>1012.4099731445</ele>
        <time>2024-09-22T11:19:15.000Z</time>
      </trkpt>
      <trkpt lat="42.97979" lon="19.06972">
        <ele>1012.4099731445</ele>
        <time>2024-09-22T11:19:16.000Z</time>
      </trkpt>
      <trkpt lat="42.97969" lon="19.06985">
        <ele>1012.4099731445</ele>
        <time>2024-09-22T11:19:17.000Z</time>
      </trkpt>
      <trkpt lat="42.97962" lon="19.06994">
        <ele>1012.4099731445</ele>
        <time>2024-09-22T11:19:18.000Z</time>
      </trkpt>
      <trkpt lat="42.97945" lon="19.07021">
        <ele>1011.4400024414</ele>
        <time>2024-09-22T11:19:20.000Z</time>
      </trkpt>
      <trkpt lat="42.97936" lon="19.07033">
        <ele>1010.9600219727</ele>
        <time>2024-09-22T11:19:21.000Z</time>
      </trkpt>
      <trkpt lat="42.97924" lon="19.07042">
        <ele>1010.9600219727</ele>
        <time>2024-09-22T11:19:22.000Z</time>
      </trkpt>
      <trkpt lat="42.9788" lon="19.07071">
        <ele>1008.0800170898</ele>
        <time>2024-09-22T11:19:25.000Z</time>
      </trkpt>
      <trkpt lat="42.9786" lon="19.07087">
        <ele>1008.0800170898</ele>
        <time>2024-09-22T11:19:27.000Z</time>
      </trkpt>
      <trkpt lat="42.97854" lon="19.07093">
        <ele>1008.5599975586</ele>
        <time>2024-09-22T11:19:28.000Z</time>
      </trkpt>
      <trkpt lat="42.97846" lon="19.07103">
        <ele>1009.5200195312</ele>
        <time>2024-09-22T11:19:29.000Z</time>
      </trkpt>
      <trkpt lat="42.97838" lon="19.07117">
        <ele>1010.4799804688</ele>
        <time>2024-09-22T11:19:30.000Z</time>
      </trkpt>
      <trkpt lat="42.97833" lon="19.07132">
        <ele>1011.4400024414</ele>
        <time>2024-09-22T11:19:31.000Z</time>
      </trkpt>
      <trkpt lat="42.97824" lon="19.07169">
        <ele>1012.8900146484</ele>
        <time>2024-09-22T11:19:33.000Z</time>
      </trkpt>
      <trkpt lat="42.9782" lon="19.07182">
        <ele>1013.8499755859</ele>
        <time>2024-09-22T11:19:34.000Z</time>
      </trkpt>
      <trkpt lat="42.97805" lon="19.07218">
        <ele>1016.25</ele>
        <time>2024-09-22T11:19:36.000Z</time>
      </trkpt>
      <trkpt lat="42.97787" lon="19.07267">
        <ele>1019.6199951172</ele>
        <time>2024-09-22T11:19:40.000Z</time>
      </trkpt>
      <trkpt lat="42.97756" lon="19.07358">
        <ele>1023.9400024414</ele>
        <time>2024-09-22T11:19:46.000Z</time>
      </trkpt>
      <trkpt lat="42.97737" lon="19.07412">
        <ele>1023.4600219727</ele>
        <time>2024-09-22T11:19:49.000Z</time>
      </trkpt>
      <trkpt lat="42.97736" lon="19.07415">
        <ele>1023.4600219727</ele>
        <time>2024-09-22T11:19:50.000Z</time>
      </trkpt>
      <trkpt lat="42.97733" lon="19.0743">
        <ele>1023.4600219727</ele>
        <time>2024-09-22T11:19:51.000Z</time>
      </trkpt>
      <trkpt lat="42.97733" lon="19.07444">
        <ele>1023.4600219727</ele>
        <time>2024-09-22T11:19:52.000Z</time>
      </trkpt>
      <trkpt lat="42.97734" lon="19.07457">
        <ele>1023.9400024414</ele>
        <time>2024-09-22T11:19:53.000Z</time>
      </trkpt>
      <trkpt lat="42.97736" lon="19.07467">
        <ele>1024.4200439453</ele>
        <time>2024-09-22T11:19:54.000Z</time>
      </trkpt>
      <trkpt lat="42.97742" lon="19.07473">
        <ele>1024.9000244141</ele>
        <time>2024-09-22T11:19:55.000Z</time>
      </trkpt>
      <trkpt lat="42.97749" lon="19.07477">
        <ele>1025.8599853516</ele>
        <time>2024-09-22T11:19:56.000Z</time>
      </trkpt>
      <trkpt lat="42.97757" lon="19.0748">
        <ele>1025.8599853516</ele>
        <time>2024-09-22T11:19:57.000Z</time>
      </trkpt>
      <trkpt lat="42.97768" lon="19.07483">
        <ele>1026.3399658203</ele>
        <time>2024-09-22T11:19:58.000Z</time>
      </trkpt>
      <trkpt lat="42.97777" lon="19.07487">
        <ele>1026.8299560547</ele>
        <time>2024-09-22T11:19:59.000Z</time>
      </trkpt>
      <trkpt lat="42.97783" lon="19.0749">
        <ele>1026.8299560547</ele>
        <time>2024-09-22T11:20:00.000Z</time>
      </trkpt>
      <trkpt lat="42.97791" lon="19.07496">
        <ele>1026.8299560547</ele>
        <time>2024-09-22T11:20:01.000Z</time>
      </trkpt>
      <trkpt lat="42.97799" lon="19.07503">
        <ele>1027.3100585938</ele>
        <time>2024-09-22T11:20:02.000Z</time>
      </trkpt>
      <trkpt lat="42.97823" lon="19.07529">
        <ele>1027.3100585938</ele>
        <time>2024-09-22T11:20:05.000Z</time>
      </trkpt>
      <trkpt lat="42.97899" lon="19.07589">
        <ele>1027.3100585938</ele>
        <time>2024-09-22T11:20:12.000Z</time>
      </trkpt>
      <trkpt lat="42.97909" lon="19.07595">
        <ele>1026.8299560547</ele>
        <time>2024-09-22T11:20:13.000Z</time>
      </trkpt>
      <trkpt lat="42.97919" lon="19.07598">
        <ele>1026.8299560547</ele>
        <time>2024-09-22T11:20:14.000Z</time>
      </trkpt>
      <trkpt lat="42.9793" lon="19.07598">
        <ele>1026.8299560547</ele>
        <time>2024-09-22T11:20:15.000Z</time>
      </trkpt>
      <trkpt lat="42.97985" lon="19.07585">
        <ele>1024.4200439453</ele>
        <time>2024-09-22T11:20:20.000Z</time>
      </trkpt>
      <trkpt lat="42.97997" lon="19.07584">
        <ele>1023.4600219727</ele>
        <time>2024-09-22T11:20:21.000Z</time>
      </trkpt>
      <trkpt lat="42.9802" lon="19.07583">
        <ele>1020.5800170898</ele>
        <time>2024-09-22T11:20:23.000Z</time>
      </trkpt>
      <trkpt lat="42.9803" lon="19.07581">
        <ele>1019.1300048828</ele>
        <time>2024-09-22T11:20:24.000Z</time>
      </trkpt>
      <trkpt lat="42.98035" lon="19.07581">
        <ele>1018.6500244141</ele>
        <time>2024-09-22T11:20:25.000Z</time>
      </trkpt>
      <trkpt lat="42.9804" lon="19.07583">
        <ele>1017.6900024414</ele>
        <time>2024-09-22T11:20:26.000Z</time>
      </trkpt>
      <trkpt lat="42.98044" lon="19.07588">
        <ele>1017.2100219727</ele>
        <time>2024-09-22T11:20:27.000Z</time>
      </trkpt>
      <trkpt lat="42.98045" lon="19.07593">
        <ele>1016.7299804688</ele>
        <time>2024-09-22T11:20:28.000Z</time>
      </trkpt>
      <trkpt lat="42.98044" lon="19.07599">
        <ele>1016.25</ele>
        <time>2024-09-22T11:20:29.000Z</time>
      </trkpt>
      <trkpt lat="42.98041" lon="19.07606">
        <ele>1015.2899780273</ele>
        <time>2024-09-22T11:20:30.000Z</time>
      </trkpt>
      <trkpt lat="42.98037" lon="19.07613">
        <ele>1014.8099975586</ele>
        <time>2024-09-22T11:20:31.000Z</time>
      </trkpt>
      <trkpt lat="42.98028" lon="19.07629">
        <ele>1013.8499755859</ele>
        <time>2024-09-22T11:20:33.000Z</time>
      </trkpt>
      <trkpt lat="42.98012" lon="19.07667">
        <ele>1011.9299926758</ele>
        <time>2024-09-22T11:20:36.000Z</time>
      </trkpt>
      <trkpt lat="42.98011" lon="19.07669">
        <ele>1011.4400024414</ele>
        <time>2024-09-22T11:20:37.000Z</time>
      </trkpt>
      <trkpt lat="42.98" lon="19.07718">
        <ele>1009.5200195312</ele>
        <time>2024-09-22T11:20:40.000Z</time>
      </trkpt>
      <trkpt lat="42.97997" lon="19.07738">
        <ele>1008.5599975586</ele>
        <time>2024-09-22T11:20:41.000Z</time>
      </trkpt>
      <trkpt lat="42.97995" lon="19.07758">
        <ele>1008.0800170898</ele>
        <time>2024-09-22T11:20:42.000Z</time>
      </trkpt>
      <trkpt lat="42.97994" lon="19.07771">
        <ele>1007.5999755859</ele>
        <time>2024-09-22T11:20:43.000Z</time>
      </trkpt>
      <trkpt lat="42.97998" lon="19.07836">
        <ele>1005.6799926758</ele>
        <time>2024-09-22T11:20:46.000Z</time>
      </trkpt>
      <trkpt lat="42.98" lon="19.07848">
        <ele>1005.6799926758</ele>
        <time>2024-09-22T11:20:47.000Z</time>
      </trkpt>
      <trkpt lat="42.98023" lon="19.08036">
        <ele>999.90997314453</ele>
        <time>2024-09-22T11:20:57.000Z</time>
      </trkpt>
      <trkpt lat="42.98023" lon="19.08065">
        <ele>998.46997070312</ele>
        <time>2024-09-22T11:20:58.000Z</time>
      </trkpt>
      <trkpt lat="42.98023" lon="19.08079">
        <ele>997.98999023438</ele>
        <time>2024-09-22T11:20:59.000Z</time>
      </trkpt>
      <trkpt lat="42.98022" lon="19.0809">
        <ele>997.51000976562</ele>
        <time>2024-09-22T11:21:00.000Z</time>
      </trkpt>
      <trkpt lat="42.98021" lon="19.08108">
        <ele>996.53997802734</ele>
        <time>2024-09-22T11:21:01.000Z</time>
      </trkpt>
      <trkpt lat="42.98017" lon="19.08128">
        <ele>995.58001708984</ele>
        <time>2024-09-22T11:21:02.000Z</time>
      </trkpt>
      <trkpt lat="42.9801" lon="19.08152">
        <ele>994.61999511719</ele>
        <time>2024-09-22T11:21:03.000Z</time>
      </trkpt>
      <trkpt lat="42.98004" lon="19.08169">
        <ele>993.65997314453</ele>
        <time>2024-09-22T11:21:04.000Z</time>
      </trkpt>
      <trkpt lat="42.97995" lon="19.0819">
        <ele>992.21997070312</ele>
        <time>2024-09-22T11:21:05.000Z</time>
      </trkpt>
      <trkpt lat="42.97985" lon="19.0821">
        <ele>991.26000976562</ele>
        <time>2024-09-22T11:21:06.000Z</time>
      </trkpt>
      <trkpt lat="42.97972" lon="19.08229">
        <ele>990.29998779297</ele>
        <time>2024-09-22T11:21:07.000Z</time>
      </trkpt>
      <trkpt lat="42.97965" lon="19.08239">
        <ele>989.33001708984</ele>
        <time>2024-09-22T11:21:08.000Z</time>
      </trkpt>
      <trkpt lat="42.97951" lon="19.08254">
        <ele>988.36999511719</ele>
        <time>2024-09-22T11:21:09.000Z</time>
      </trkpt>
      <trkpt lat="42.97939" lon="19.08265">
        <ele>987.40997314453</ele>
        <time>2024-09-22T11:21:10.000Z</time>
      </trkpt>
      <trkpt lat="42.97926" lon="19.08275">
        <ele>986.45001220703</ele>
        <time>2024-09-22T11:21:11.000Z</time>
      </trkpt>
      <trkpt lat="42.97912" lon="19.08284">
        <ele>985.48999023438</ele>
        <time>2024-09-22T11:21:12.000Z</time>
      </trkpt>
      <trkpt lat="42.97743" lon="19.08358">
        <ele>973.95001220703</ele>
        <time>2024-09-22T11:21:23.000Z</time>
      </trkpt>
      <trkpt lat="42.97682" lon="19.08381">
        <ele>969.63000488281</ele>
        <time>2024-09-22T11:21:27.000Z</time>
      </trkpt>
      <trkpt lat="42.97647" lon="19.08386">
        <ele>967.21997070312</ele>
        <time>2024-09-22T11:21:29.000Z</time>
      </trkpt>
      <trkpt lat="42.97632" lon="19.08387">
        <ele>966.26000976562</ele>
        <time>2024-09-22T11:21:30.000Z</time>
      </trkpt>
      <trkpt lat="42.97608" lon="19.08386">
        <ele>964.82000732422</ele>
        <time>2024-09-22T11:21:31.000Z</time>
      </trkpt>
      <trkpt lat="42.97583" lon="19.08382">
        <ele>962.90002441406</ele>
        <time>2024-09-22T11:21:33.000Z</time>
      </trkpt>
      <trkpt lat="42.97569" lon="19.08381">
        <ele>961.94000244141</ele>
        <time>2024-09-22T11:21:34.000Z</time>
      </trkpt>
      <trkpt lat="42.97544" lon="19.08382">
        <ele>960.01000976562</ele>
        <time>2024-09-22T11:21:35.000Z</time>
      </trkpt>
      <trkpt lat="42.97529" lon="19.08384">
        <ele>959.04998779297</ele>
        <time>2024-09-22T11:21:36.000Z</time>
      </trkpt>
      <trkpt lat="42.97405" lon="19.0844">
        <ele>949.91998291016</ele>
        <time>2024-09-22T11:21:42.000Z</time>
      </trkpt>
      <trkpt lat="42.97376" lon="19.08458">
        <ele>947.52001953125</ele>
        <time>2024-09-22T11:21:44.000Z</time>
      </trkpt>
      <trkpt lat="42.97284" lon="19.08533">
        <ele>939.83001708984</ele>
        <time>2024-09-22T11:21:49.000Z</time>
      </trkpt>
      <trkpt lat="42.97267" lon="19.08544">
        <ele>938.38000488281</ele>
        <time>2024-09-22T11:21:50.000Z</time>
      </trkpt>
      <trkpt lat="42.97247" lon="19.08555">
        <ele>936.94000244141</ele>
        <time>2024-09-22T11:21:51.000Z</time>
      </trkpt>
      <trkpt lat="42.97092" lon="19.08604">
        <ele>926.84997558594</ele>
        <time>2024-09-22T11:21:58.000Z</time>
      </trkpt>
      <trkpt lat="42.97075" lon="19.08611">
        <ele>925.40997314453</ele>
        <time>2024-09-22T11:21:59.000Z</time>
      </trkpt>
      <trkpt lat="42.97053" lon="19.08623">
        <ele>923.96002197266</ele>
        <time>2024-09-22T11:22:00.000Z</time>
      </trkpt>
      <trkpt lat="42.97033" lon="19.08638">
        <ele>922.52001953125</ele>
        <time>2024-09-22T11:22:01.000Z</time>
      </trkpt>
      <trkpt lat="42.96867" lon="19.08817">
        <ele>906.65997314453</ele>
        <time>2024-09-22T11:22:10.000Z</time>
      </trkpt>
      <trkpt lat="42.96805" lon="19.08881">
        <ele>900.40997314453</ele>
        <time>2024-09-22T11:22:13.000Z</time>
      </trkpt>
      <trkpt lat="42.96789" lon="19.08895">
        <ele>899.45001220703</ele>
        <time>2024-09-22T11:22:14.000Z</time>
      </trkpt>
      <trkpt lat="42.9676" lon="19.08915">
        <ele>897.04998779297</ele>
        <time>2024-09-22T11:22:15.000Z</time>
      </trkpt>
      <trkpt lat="42.96748" lon="19.08923">
        <ele>896.09002685547</ele>
        <time>2024-09-22T11:22:16.000Z</time>
      </trkpt>
      <trkpt lat="42.96734" lon="19.0893">
        <ele>895.60998535156</ele>
        <time>2024-09-22T11:22:17.000Z</time>
      </trkpt>
      <trkpt lat="42.96706" lon="19.08942">
        <ele>893.67999267578</ele>
        <time>2024-09-22T11:22:18.000Z</time>
      </trkpt>
      <trkpt lat="42.96685" lon="19.08948">
        <ele>893.20001220703</ele>
        <time>2024-09-22T11:22:19.000Z</time>
      </trkpt>
      <trkpt lat="42.96659" lon="19.08953">
        <ele>891.76000976562</ele>
        <time>2024-09-22T11:22:20.000Z</time>
      </trkpt>
      <trkpt lat="42.96556" lon="19.08969">
        <ele>884.07000732422</ele>
        <time>2024-09-22T11:22:24.000Z</time>
      </trkpt>
      <trkpt lat="42.96543" lon="19.08973">
        <ele>883.10998535156</ele>
        <time>2024-09-22T11:22:25.000Z</time>
      </trkpt>
      <trkpt lat="42.96523" lon="19.08983">
        <ele>881.66998291016</ele>
        <time>2024-09-22T11:22:26.000Z</time>
      </trkpt>
      <trkpt lat="42.96504" lon="19.08996">
        <ele>880.21997070312</ele>
        <time>2024-09-22T11:22:27.000Z</time>
      </trkpt>
      <trkpt lat="42.96484" lon="19.09014">
        <ele>878.29998779297</ele>
        <time>2024-09-22T11:22:28.000Z</time>
      </trkpt>
      <trkpt lat="42.96412" lon="19.09094">
        <ele>871.57000732422</ele>
        <time>2024-09-22T11:22:32.000Z</time>
      </trkpt>
      <trkpt lat="42.96392" lon="19.09112">
        <ele>870.13000488281</ele>
        <time>2024-09-22T11:22:33.000Z</time>
      </trkpt>
      <trkpt lat="42.96372" lon="19.09124">
        <ele>868.69000244141</ele>
        <time>2024-09-22T11:22:34.000Z</time>
      </trkpt>
      <trkpt lat="42.96295" lon="19.09155">
        <ele>863.40002441406</ele>
        <time>2024-09-22T11:22:37.000Z</time>
      </trkpt>
      <trkpt lat="42.96291" lon="19.09157">
        <ele>863.40002441406</ele>
        <time>2024-09-22T11:22:38.000Z</time>
      </trkpt>
      <trkpt lat="42.96273" lon="19.09168">
        <ele>861.96002197266</ele>
        <time>2024-09-22T11:22:39.000Z</time>
      </trkpt>
      <trkpt lat="42.96256" lon="19.09183">
        <ele>860.52001953125</ele>
        <time>2024-09-22T11:22:40.000Z</time>
      </trkpt>
      <trkpt lat="42.96241" lon="19.09202">
        <ele>859.08001708984</ele>
        <time>2024-09-22T11:22:41.000Z</time>
      </trkpt>
      <trkpt lat="42.96195" lon="19.0927">
        <ele>854.75</ele>
        <time>2024-09-22T11:22:44.000Z</time>
      </trkpt>
      <trkpt lat="42.96192" lon="19.09275">
        <ele>854.27001953125</ele>
        <time>2024-09-22T11:22:45.000Z</time>
      </trkpt>
      <trkpt lat="42.96182" lon="19.09286">
        <ele>853.78997802734</ele>
        <time>2024-09-22T11:22:46.000Z</time>
      </trkpt>
      <trkpt lat="42.96168" lon="19.09298">
        <ele>853.30999755859</ele>
        <time>2024-09-22T11:22:47.000Z</time>
      </trkpt>
      <trkpt lat="42.96153" lon="19.09309">
        <ele>852.83001708984</ele>
        <time>2024-09-22T11:22:48.000Z</time>
      </trkpt>
      <trkpt lat="42.9614" lon="19.09316">
        <ele>852.34997558594</ele>
        <time>2024-09-22T11:22:49.000Z</time>
      </trkpt>
      <trkpt lat="42.96124" lon="19.09322">
        <ele>852.34997558594</ele>
        <time>2024-09-22T11:22:50.000Z</time>
      </trkpt>
      <trkpt lat="42.96034" lon="19.09334">
        <ele>849.94000244141</ele>
        <time>2024-09-22T11:22:56.000Z</time>
      </trkpt>
      <trkpt lat="42.96023" lon="19.09336">
        <ele>849.94000244141</ele>
        <time>2024-09-22T11:22:57.000Z</time>
      </trkpt>
      <trkpt lat="42.96008" lon="19.0934">
        <ele>849.46002197266</ele>
        <time>2024-09-22T11:22:58.000Z</time>
      </trkpt>
      <trkpt lat="42.95985" lon="19.0935">
        <ele>849.46002197266</ele>
        <time>2024-09-22T11:23:00.000Z</time>
      </trkpt>
      <trkpt lat="42.95969" lon="19.0936">
        <ele>848.97998046875</ele>
        <time>2024-09-22T11:23:01.000Z</time>
      </trkpt>
      <trkpt lat="42.95884" lon="19.09431">
        <ele>845.14001464844</ele>
        <time>2024-09-22T11:23:08.000Z</time>
      </trkpt>
      <trkpt lat="42.95875" lon="19.09438">
        <ele>845.14001464844</ele>
        <time>2024-09-22T11:23:09.000Z</time>
      </trkpt>
      <trkpt lat="42.95852" lon="19.09455">
        <ele>843.69000244141</ele>
        <time>2024-09-22T11:23:11.000Z</time>
      </trkpt>
      <trkpt lat="42.95787" lon="19.09494">
        <ele>838.40997314453</ele>
        <time>2024-09-22T11:23:17.000Z</time>
      </trkpt>
      <trkpt lat="42.95782" lon="19.09498">
        <ele>837.92999267578</ele>
        <time>2024-09-22T11:23:18.000Z</time>
      </trkpt>
      <trkpt lat="42.95775" lon="19.09505">
        <ele>837.92999267578</ele>
        <time>2024-09-22T11:23:19.000Z</time>
      </trkpt>
      <trkpt lat="42.95771" lon="19.09513">
        <ele>837.92999267578</ele>
        <time>2024-09-22T11:23:20.000Z</time>
      </trkpt>
      <trkpt lat="42.95769" lon="19.09523">
        <ele>837.92999267578</ele>
        <time>2024-09-22T11:23:21.000Z</time>
      </trkpt>
      <trkpt lat="42.95768" lon="19.09541">
        <ele>837.92999267578</ele>
        <time>2024-09-22T11:23:23.000Z</time>
      </trkpt>
      <trkpt lat="42.95768" lon="19.09546">
        <ele>837.92999267578</ele>
        <time>2024-09-22T11:23:24.000Z</time>
      </trkpt>
      <trkpt lat="42.95768" lon="19.09552">
        <ele>837.92999267578</ele>
        <time>2024-09-22T11:23:25.000Z</time>
      </trkpt>
      <trkpt lat="42.95768" lon="19.09558">
        <ele>838.40997314453</ele>
        <time>2024-09-22T11:23:26.000Z</time>
      </trkpt>
      <trkpt lat="42.95768" lon="19.09569">
        <ele>838.40997314453</ele>
        <time>2024-09-22T11:23:27.000Z</time>
      </trkpt>
      <trkpt lat="42.95768" lon="19.09574">
        <ele>838.40997314453</ele>
        <time>2024-09-22T11:23:28.000Z</time>
      </trkpt>
      <trkpt lat="42.95768" lon="19.09577">
        <ele>838.40997314453</ele>
        <time>2024-09-22T11:23:29.000Z</time>
      </trkpt>
      <trkpt lat="42.95769" lon="19.09583">
        <ele>837.92999267578</ele>
        <time>2024-09-22T11:23:30.000Z</time>
      </trkpt>
      <trkpt lat="42.95768" lon="19.09594">
        <ele>837.92999267578</ele>
        <time>2024-09-22T11:23:31.000Z</time>
      </trkpt>
      <trkpt lat="42.95768" lon="19.09597">
        <ele>837.92999267578</ele>
        <time>2024-09-22T11:23:32.000Z</time>
      </trkpt>
      <trkpt lat="42.95769" lon="19.09608">
        <ele>837.45001220703</ele>
        <time>2024-09-22T11:23:33.000Z</time>
      </trkpt>
      <trkpt lat="42.95771" lon="19.09623">
        <ele>836.96002197266</ele>
        <time>2024-09-22T11:23:35.000Z</time>
      </trkpt>
      <trkpt lat="42.95771" lon="19.09635">
        <ele>836.96002197266</ele>
        <time>2024-09-22T11:23:36.000Z</time>
      </trkpt>
      <trkpt lat="42.95771" lon="19.09639">
        <ele>836.96002197266</ele>
        <time>2024-09-22T11:23:37.000Z</time>
      </trkpt>
      <trkpt lat="42.9577" lon="19.09646">
        <ele>836.47998046875</ele>
        <time>2024-09-22T11:23:38.000Z</time>
      </trkpt>
      <trkpt lat="42.95766" lon="19.09651">
        <ele>836.47998046875</ele>
        <time>2024-09-22T11:23:39.000Z</time>
      </trkpt>
      <trkpt lat="42.95754" lon="19.09659">
        <ele>836</ele>
        <time>2024-09-22T11:23:41.000Z</time>
      </trkpt>
      <trkpt lat="42.95747" lon="19.09663">
        <ele>835.52001953125</ele>
        <time>2024-09-22T11:23:42.000Z</time>
      </trkpt>
      <trkpt lat="42.9574" lon="19.09665">
        <ele>835.52001953125</ele>
        <time>2024-09-22T11:23:43.000Z</time>
      </trkpt>
      <trkpt lat="42.95735" lon="19.09663">
        <ele>835.03997802734</ele>
        <time>2024-09-22T11:23:44.000Z</time>
      </trkpt>
      <trkpt lat="42.95731" lon="19.09655">
        <ele>835.03997802734</ele>
        <time>2024-09-22T11:23:45.000Z</time>
      </trkpt>
      <trkpt lat="42.95726" lon="19.09644">
        <ele>834.55999755859</ele>
        <time>2024-09-22T11:23:46.000Z</time>
      </trkpt>
      <trkpt lat="42.95722" lon="19.09635">
        <ele>834.55999755859</ele>
        <time>2024-09-22T11:23:47.000Z</time>
      </trkpt>
      <trkpt lat="42.95716" lon="19.09627">
        <ele>834.08001708984</ele>
        <time>2024-09-22T11:23:48.000Z</time>
      </trkpt>
      <trkpt lat="42.9571" lon="19.09619">
        <ele>833.59997558594</ele>
        <time>2024-09-22T11:23:49.000Z</time>
      </trkpt>
      <trkpt lat="42.95702" lon="19.09613">
        <ele>833.59997558594</ele>
        <time>2024-09-22T11:23:50.000Z</time>
      </trkpt>
      <trkpt lat="42.95693" lon="19.09609">
        <ele>833.59997558594</ele>
        <time>2024-09-22T11:23:51.000Z</time>
      </trkpt>
      <trkpt lat="42.95684" lon="19.09607">
        <ele>833.11999511719</ele>
        <time>2024-09-22T11:23:52.000Z</time>
      </trkpt>
      <trkpt lat="42.95675" lon="19.09608">
        <ele>833.11999511719</ele>
        <time>2024-09-22T11:23:53.000Z</time>
      </trkpt>
      <trkpt lat="42.95665" lon="19.09613">
        <ele>833.11999511719</ele>
        <time>2024-09-22T11:23:54.000Z</time>
      </trkpt>
      <trkpt lat="42.95621" lon="19.09652">
        <ele>833.11999511719</ele>
        <time>2024-09-22T11:23:58.000Z</time>
      </trkpt>
      <trkpt lat="42.95618" lon="19.09655">
        <ele>833.11999511719</ele>
        <time>2024-09-22T11:23:59.000Z</time>
      </trkpt>
      <trkpt lat="42.95602" lon="19.09673">
        <ele>832.64001464844</ele>
        <time>2024-09-22T11:24:01.000Z</time>
      </trkpt>
      <trkpt lat="42.95565" lon="19.09711">
        <ele>832.15997314453</ele>
        <time>2024-09-22T11:24:05.000Z</time>
      </trkpt>
      <trkpt lat="42.95551" lon="19.09722">
        <ele>832.64001464844</ele>
        <time>2024-09-22T11:24:06.000Z</time>
      </trkpt>
      <trkpt lat="42.95462" lon="19.09781">
        <ele>836.96002197266</ele>
        <time>2024-09-22T11:24:12.000Z</time>
      </trkpt>
      <trkpt lat="42.9545" lon="19.09788">
        <ele>837.45001220703</ele>
        <time>2024-09-22T11:24:13.000Z</time>
      </trkpt>
      <trkpt lat="42.9544" lon="19.09792">
        <ele>837.92999267578</ele>
        <time>2024-09-22T11:24:14.000Z</time>
      </trkpt>
      <trkpt lat="42.95432" lon="19.09796">
        <ele>838.40997314453</ele>
        <time>2024-09-22T11:24:15.000Z</time>
      </trkpt>
      <trkpt lat="42.95396" lon="19.09806">
        <ele>841.28997802734</ele>
        <time>2024-09-22T11:24:18.000Z</time>
      </trkpt>
      <trkpt lat="42.95387" lon="19.09808">
        <ele>842.25</ele>
        <time>2024-09-22T11:24:19.000Z</time>
      </trkpt>
      <trkpt lat="42.95374" lon="19.09808">
        <ele>842.72998046875</ele>
        <time>2024-09-22T11:24:20.000Z</time>
      </trkpt>
      <trkpt lat="42.95359" lon="19.09803">
        <ele>843.69000244141</ele>
        <time>2024-09-22T11:24:21.000Z</time>
      </trkpt>
      <trkpt lat="42.9535" lon="19.09798">
        <ele>844.65997314453</ele>
        <time>2024-09-22T11:24:22.000Z</time>
      </trkpt>
      <trkpt lat="42.9534" lon="19.09795">
        <ele>846.58001708984</ele>
        <time>2024-09-22T11:24:23.000Z</time>
      </trkpt>
      <trkpt lat="42.95328" lon="19.09796">
        <ele>847.53997802734</ele>
        <time>2024-09-22T11:24:24.000Z</time>
      </trkpt>
      <trkpt lat="42.95317" lon="19.09803">
        <ele>848.02001953125</ele>
        <time>2024-09-22T11:24:25.000Z</time>
      </trkpt>
      <trkpt lat="42.95296" lon="19.0982">
        <ele>849.94000244141</ele>
        <time>2024-09-22T11:24:26.000Z</time>
      </trkpt>
      <trkpt lat="42.95292" lon="19.09822">
        <ele>849.94000244141</ele>
        <time>2024-09-22T11:24:27.000Z</time>
      </trkpt>
      <trkpt lat="42.95268" lon="19.09837">
        <ele>851.86999511719</ele>
        <time>2024-09-22T11:24:29.000Z</time>
      </trkpt>
      <trkpt lat="42.95257" lon="19.09843">
        <ele>852.34997558594</ele>
        <time>2024-09-22T11:24:30.000Z</time>
      </trkpt>
      <trkpt lat="42.9526" lon="19.09851">
        <ele>852.82800292969</ele>
        <time>2023-10-03T12:58:20.000Z</time>
      </trkpt>
      <trkpt lat="42.95271" lon="19.09858">
        <ele>845.6</ele>
      </trkpt>
      <trkpt lat="42.95322" lon="19.09842">
        <ele>839.5</ele>
      </trkpt>
      <trkpt lat="42.95339" lon="19.09844">
        <ele>839.6</ele>
      </trkpt>
      <trkpt lat="42.95356" lon="19.09855">
        <ele>844.2</ele>
      </trkpt>
      <trkpt lat="42.95386" lon="19.0989">
        <ele>854.8</ele>
      </trkpt>
      <trkpt lat="42.95429" lon="19.09922">
        <ele>862.8</ele>
      </trkpt>
      <trkpt lat="42.95446" lon="19.09922">
        <ele>862.6</ele>
      </trkpt>
      <trkpt lat="42.95466" lon="19.09913">
        <ele>860.8</ele>
      </trkpt>
      <trkpt lat="42.95515" lon="19.09874">
        <ele>856</ele>
      </trkpt>
      <trkpt lat="42.95549" lon="19.09862">
        <ele>857.2</ele>
      </trkpt>
      <trkpt lat="42.95547" lon="19.09874">
        <ele>858.3</ele>
      </trkpt>
      <trkpt lat="42.95528" lon="19.09887">
        <ele>858.5</ele>
      </trkpt>
      <trkpt lat="42.95506" lon="19.09917">
        <ele>861.4</ele>
      </trkpt>
      <trkpt lat="42.95489" lon="19.09945">
        <ele>867.8</ele>
      </trkpt>
      <trkpt lat="42.95425" lon="19.09971">
        <ele>872</ele>
      </trkpt>
      <trkpt lat="42.95395" lon="19.09993">
        <ele>877.7</ele>
      </trkpt>
      <trkpt lat="42.95341" lon="19.10044">
        <ele>893.8</ele>
      </trkpt>
      <trkpt lat="42.95326" lon="19.10044">
        <ele>892.2</ele>
      </trkpt>
      <trkpt lat="42.95268" lon="19.10023">
        <ele>876</ele>
      </trkpt>
      <trkpt lat="42.9524" lon="19.10023">
        <ele>870.4</ele>
      </trkpt>
      <trkpt lat="42.95234" lon="19.10031">
        <ele>870.2</ele>
      </trkpt>
      <trkpt lat="42.95229" lon="19.1004">
        <ele>870.4</ele>
      </trkpt>
      <trkpt lat="42.95229" lon="19.10059">
        <ele>872.7</ele>
      </trkpt>
      <trkpt lat="42.95238" lon="19.10121">
        <ele>881.9</ele>
      </trkpt>
      <trkpt lat="42.95242" lon="19.10237">
        <ele>910.7</ele>
      </trkpt>
      <trkpt lat="42.9524" lon="19.10252">
        <ele>915.2</ele>
      </trkpt>
      <trkpt lat="42.95214" lon="19.10321">
        <ele>933.5</ele>
      </trkpt>
      <trkpt lat="42.95204" lon="19.10319">
        <ele>933.5</ele>
      </trkpt>
      <trkpt lat="42.95182" lon="19.10276">
        <ele>920.9</ele>
      </trkpt>
      <trkpt lat="42.95176" lon="19.10271">
        <ele>919.5</ele>
      </trkpt>
      <trkpt lat="42.95159" lon="19.10276">
        <ele>921</ele>
      </trkpt>
      <trkpt lat="42.95154" lon="19.10299">
        <ele>929.4</ele>
      </trkpt>
      <trkpt lat="42.95165" lon="19.10327">
        <ele>938.9</ele>
      </trkpt>
      <trkpt lat="42.95225" lon="19.10426">
        <ele>960.7</ele>
      </trkpt>
      <trkpt lat="42.95236" lon="19.10432">
        <ele>959.8</ele>
      </trkpt>
      <trkpt lat="42.95253" lon="19.10426">
        <ele>955.5</ele>
      </trkpt>
      <trkpt lat="42.95264" lon="19.10357">
        <ele>939.6</ele>
      </trkpt>
      <trkpt lat="42.95277" lon="19.10349">
        <ele>937.8</ele>
      </trkpt>
      <trkpt lat="42.953" lon="19.10379">
        <ele>943.1</ele>
      </trkpt>
      <trkpt lat="42.95305" lon="19.10407">
        <ele>947.7</ele>
      </trkpt>
      <trkpt lat="42.95266" lon="19.10475">
        <ele>964.4</ele>
      </trkpt>
      <trkpt lat="42.95242" lon="19.10495">
        <ele>970.8</ele>
      </trkpt>
      <trkpt lat="42.95212" lon="19.10484">
        <ele>975.6</ele>
      </trkpt>
      <trkpt lat="42.95184" lon="19.10462">
        <ele>977.1</ele>
      </trkpt>
      <trkpt lat="42.95178" lon="19.10469">
        <ele>980</ele>
      </trkpt>
      <trkpt lat="42.95176" lon="19.10482">
        <ele>983.5</ele>
      </trkpt>
      <trkpt lat="42.9518" lon="19.10488">
        <ele>984</ele>
      </trkpt>
      <trkpt lat="42.95199" lon="19.10492">
        <ele>980.5</ele>
      </trkpt>
      <trkpt lat="42.95219" lon="19.1051">
        <ele>979.9</ele>
      </trkpt>
      <trkpt lat="42.95242" lon="19.10516">
        <ele>976.3</ele>
      </trkpt>
      <trkpt lat="42.95279" lon="19.10495">
        <ele>967.8</ele>
      </trkpt>
      <trkpt lat="42.95317" lon="19.10482">
        <ele>963.3</ele>
      </trkpt>
      <trkpt lat="42.95341" lon="19.10417">
        <ele>948.8</ele>
      </trkpt>
      <trkpt lat="42.95358" lon="19.10387">
        <ele>949</ele>
      </trkpt>
      <trkpt lat="42.9538" lon="19.10389">
        <ele>954.3</ele>
      </trkpt>
      <trkpt lat="42.9539" lon="19.10404">
        <ele>958.2</ele>
      </trkpt>
      <trkpt lat="42.95393" lon="19.10422">
        <ele>960.5</ele>
      </trkpt>
      <trkpt lat="42.95386" lon="19.1045">
        <ele>963.3</ele>
      </trkpt>
      <trkpt lat="42.95354" lon="19.10507">
        <ele>969.7</ele>
      </trkpt>
      <trkpt lat="42.95313" lon="19.10518">
        <ele>972.3</ele>
      </trkpt>
      <trkpt lat="42.95272" lon="19.10555">
        <ele>984.2</ele>
      </trkpt>
      <trkpt lat="42.95219" lon="19.1058">
        <ele>997.8</ele>
      </trkpt>
      <trkpt lat="42.95197" lon="19.10583">
        <ele>1001.4</ele>
      </trkpt>
      <trkpt lat="42.95178" lon="19.10576">
        <ele>1002.9</ele>
      </trkpt>
      <trkpt lat="42.9515" lon="19.10555">
        <ele>1001.2</ele>
      </trkpt>
      <trkpt lat="42.95092" lon="19.10561">
        <ele>1004.7</ele>
      </trkpt>
      <trkpt lat="42.95075" lon="19.10544">
        <ele>1003.8</ele>
      </trkpt>
      <trkpt lat="42.95051" lon="19.10546">
        <ele>1007.1</ele>
      </trkpt>
      <trkpt lat="42.95032" lon="19.1057">
        <ele>1013.6</ele>
      </trkpt>
      <trkpt lat="42.94989" lon="19.10572">
        <ele>1020.4</ele>
      </trkpt>
      <trkpt lat="42.94951" lon="19.10546">
        <ele>1020.4</ele>
      </trkpt>
      <trkpt lat="42.9494" lon="19.1051">
        <ele>1012.9</ele>
      </trkpt>
      <trkpt lat="42.94936" lon="19.10505">
        <ele>1012.3</ele>
      </trkpt>
      <trkpt lat="42.9492" lon="19.10514">
        <ele>1016.2</ele>
      </trkpt>
      <trkpt lat="42.94918" lon="19.10533">
        <ele>1021.5</ele>
      </trkpt>
      <trkpt lat="42.94944" lon="19.10591">
        <ele>1031.5</ele>
      </trkpt>
      <trkpt lat="42.94985" lon="19.10621">
        <ele>1029.7</ele>
      </trkpt>
      <trkpt lat="42.95019" lon="19.10619">
        <ele>1024.2</ele>
      </trkpt>
      <trkpt lat="42.95045" lon="19.10632">
        <ele>1022.8</ele>
      </trkpt>
      <trkpt lat="42.95056" lon="19.10632">
        <ele>1021.3</ele>
      </trkpt>
      <trkpt lat="42.95096" lon="19.10608">
        <ele>1012.5</ele>
      </trkpt>
      <trkpt lat="42.95124" lon="19.1061">
        <ele>1012.2</ele>
      </trkpt>
      <trkpt lat="42.95148" lon="19.10619">
        <ele>1013.3</ele>
      </trkpt>
      <trkpt lat="42.95152" lon="19.1063">
        <ele>1015.2</ele>
      </trkpt>
      <trkpt lat="42.95152" lon="19.10645">
        <ele>1018.1</ele>
      </trkpt>
      <trkpt lat="42.95139" lon="19.10677">
        <ele>1020.9</ele>
      </trkpt>
      <trkpt lat="42.95116" lon="19.10692">
        <ele>1021.2</ele>
      </trkpt>
      <trkpt lat="42.95105" lon="19.10688">
        <ele>1022.6</ele>
      </trkpt>
      <trkpt lat="42.95026" lon="19.10718">
        <ele>1038.5</ele>
      </trkpt>
      <trkpt lat="42.95013" lon="19.10713">
        <ele>1040.7</ele>
      </trkpt>
      <trkpt lat="42.94985" lon="19.10681">
        <ele>1039.7</ele>
      </trkpt>
      <trkpt lat="42.94963" lon="19.10679">
        <ele>1042.3</ele>
      </trkpt>
      <trkpt lat="42.94871" lon="19.10696">
        <ele>1058.7</ele>
      </trkpt>
      <trkpt lat="42.94865" lon="19.10713">
        <ele>1063.1</ele>
      </trkpt>
      <trkpt lat="42.94873" lon="19.10724">
        <ele>1064.3</ele>
      </trkpt>
      <trkpt lat="42.9492" lon="19.10731">
        <ele>1059.9</ele>
      </trkpt>
      <trkpt lat="42.94946" lon="19.10722">
        <ele>1053.8</ele>
      </trkpt>
      <trkpt lat="42.94953" lon="19.10731">
        <ele>1054.5</ele>
      </trkpt>
      <trkpt lat="42.94953" lon="19.10746">
        <ele>1057.6</ele>
      </trkpt>
      <trkpt lat="42.94944" lon="19.10759">
        <ele>1061.6</ele>
      </trkpt>
      <trkpt lat="42.94899" lon="19.10774">
        <ele>1071.8</ele>
      </trkpt>
      <trkpt lat="42.94817" lon="19.10739">
        <ele>1073.6</ele>
      </trkpt>
      <trkpt lat="42.94779" lon="19.10709">
        <ele>1075.5</ele>
      </trkpt>
      <trkpt lat="42.94757" lon="19.10713">
        <ele>1079.4</ele>
      </trkpt>
      <trkpt lat="42.94742" lon="19.10722">
        <ele>1082.7</ele>
      </trkpt>
      <trkpt lat="42.94742" lon="19.10737">
        <ele>1082.8</ele>
      </trkpt>
      <trkpt lat="42.94785" lon="19.10754">
        <ele>1078.8</ele>
      </trkpt>
      <trkpt lat="42.94833" lon="19.10793">
        <ele>1083.3</ele>
      </trkpt>
      <trkpt lat="42.94875" lon="19.10851">
        <ele>1089.1</ele>
      </trkpt>
      <trkpt lat="42.94878" lon="19.1087">
        <ele>1091.3</ele>
      </trkpt>
      <trkpt lat="42.94869" lon="19.10872">
        <ele>1092.7</ele>
      </trkpt>
      <trkpt lat="42.9486" lon="19.10866">
        <ele>1093.1</ele>
      </trkpt>
      <trkpt lat="42.94841" lon="19.10827">
        <ele>1089.8</ele>
      </trkpt>
      <trkpt lat="42.94802" lon="19.10831">
        <ele>1092.4</ele>
      </trkpt>
      <trkpt lat="42.94787" lon="19.10827">
        <ele>1092</ele>
      </trkpt>
      <trkpt lat="42.94775" lon="19.10814">
        <ele>1090.1</ele>
      </trkpt>
      <trkpt lat="42.94764" lon="19.10786">
        <ele>1085.9</ele>
      </trkpt>
      <trkpt lat="42.94755" lon="19.10786">
        <ele>1086.4</ele>
      </trkpt>
      <trkpt lat="42.94736" lon="19.10797">
        <ele>1091.4</ele>
      </trkpt>
      <trkpt lat="42.94721" lon="19.10855">
        <ele>1102.1</ele>
      </trkpt>
      <trkpt lat="42.94712" lon="19.10866">
        <ele>1105.1</ele>
      </trkpt>
      <trkpt lat="42.94684" lon="19.10877">
        <ele>1112.1</ele>
      </trkpt>
      <trkpt lat="42.94674" lon="19.10889">
        <ele>1115.9</ele>
      </trkpt>
      <trkpt lat="42.94663" lon="19.10915">
        <ele>1121.7</ele>
      </trkpt>
      <trkpt lat="42.9465" lon="19.10924">
        <ele>1125.4</ele>
      </trkpt>
      <trkpt lat="42.94642" lon="19.10911">
        <ele>1126.7</ele>
      </trkpt>
      <trkpt lat="42.94637" lon="19.10866">
        <ele>1122.6</ele>
      </trkpt>
      <trkpt lat="42.94624" lon="19.1084">
        <ele>1123.4</ele>
      </trkpt>
      <trkpt lat="42.94618" lon="19.10831">
        <ele>1124.5</ele>
      </trkpt>
      <trkpt lat="42.94575" lon="19.10836">
        <ele>1137.1</ele>
      </trkpt>
      <trkpt lat="42.94556" lon="19.10806">
        <ele>1140.3</ele>
      </trkpt>
      <trkpt lat="42.94554" lon="19.10765">
        <ele>1139.4</ele>
      </trkpt>
      <trkpt lat="42.94569" lon="19.10688">
        <ele>1135.6</ele>
      </trkpt>
      <trkpt lat="42.94571" lon="19.10608">
        <ele>1135.5</ele>
      </trkpt>
      <trkpt lat="42.94569" lon="19.10572">
        <ele>1134.5</ele>
      </trkpt>
      <trkpt lat="42.94547" lon="19.1048">
        <ele>1113.7</ele>
      </trkpt>
      <trkpt lat="42.94536" lon="19.10471">
        <ele>1107.5</ele>
      </trkpt>
      <trkpt lat="42.94485" lon="19.10482">
        <ele>1117.6</ele>
      </trkpt>
      <trkpt lat="42.94466" lon="19.10495">
        <ele>1129.3</ele>
      </trkpt>
      <trkpt lat="42.94412" lon="19.10507">
        <ele>1140.9</ele>
      </trkpt>
      <trkpt lat="42.94393" lon="19.10518">
        <ele>1147.5</ele>
      </trkpt>
      <trkpt lat="42.94441" lon="19.10519">
        <ele>1136.9000244141</ele>
        <time>2023-10-03T11:41:24.000Z</time>
      </trkpt>
      <trkpt lat="42.94434" lon="19.1052">
        <ele>1136.4200439453</ele>
        <time>2023-10-03T11:41:25.000Z</time>
      </trkpt>
      <trkpt lat="42.94427" lon="19.10523">
        <ele>1136.4200439453</ele>
        <time>2023-10-03T11:41:26.000Z</time>
      </trkpt>
      <trkpt lat="42.94419" lon="19.10527">
        <ele>1136.4200439453</ele>
        <time>2023-10-03T11:41:27.000Z</time>
      </trkpt>
      <trkpt lat="42.94416" lon="19.10528">
        <ele>1135.9399414062</ele>
        <time>2023-10-03T11:41:28.000Z</time>
      </trkpt>
      <trkpt lat="42.94411" lon="19.10528">
        <ele>1135.4499511719</ele>
        <time>2023-10-03T11:41:29.000Z</time>
      </trkpt>
      <trkpt lat="42.94406" lon="19.10527">
        <ele>1134.9699707031</ele>
        <time>2023-10-03T11:41:30.000Z</time>
      </trkpt>
      <trkpt lat="42.944" lon="19.10517">
        <ele>1134.0100097656</ele>
        <time>2023-10-03T11:41:36.000Z</time>
      </trkpt>
      <trkpt lat="42.94389" lon="19.10511">
        <ele>1136.9000244141</ele>
        <time>2023-10-03T11:43:19.000Z</time>
      </trkpt>
      <trkpt lat="42.94386" lon="19.1051">
        <ele>1136.9000244141</ele>
        <time>2023-10-03T11:43:20.000Z</time>
      </trkpt>
      <trkpt lat="42.94376" lon="19.10506">
        <ele>1136.4200439453</ele>
        <time>2023-10-03T11:43:21.000Z</time>
      </trkpt>
      <trkpt lat="42.94374" lon="19.10506">
        <ele>1136.4200439453</ele>
        <time>2023-10-03T11:43:22.000Z</time>
      </trkpt>
      <trkpt lat="42.94367" lon="19.10504">
        <ele>1136.4200439453</ele>
        <time>2023-10-03T11:43:23.000Z</time>
      </trkpt>
      <trkpt lat="42.9436" lon="19.10506">
        <ele>1136.4200439453</ele>
        <time>2023-10-03T11:43:24.000Z</time>
      </trkpt>
      <trkpt lat="42.94347" lon="19.10512">
        <ele>1136.4200439453</ele>
        <time>2023-10-03T11:43:25.000Z</time>
      </trkpt>
      <trkpt lat="42.94342" lon="19.10513">
        <ele>1136.4200439453</ele>
        <time>2023-10-03T11:43:26.000Z</time>
      </trkpt>
      <trkpt lat="42.94319" lon="19.10515">
        <ele>1137.3800048828</ele>
        <time>2023-10-03T11:43:28.000Z</time>
      </trkpt>
      <trkpt lat="42.94306" lon="19.10515">
        <ele>1137.8599853516</ele>
        <time>2023-10-03T11:43:29.000Z</time>
      </trkpt>
      <trkpt lat="42.94296" lon="19.10514">
        <ele>1138.3399658203</ele>
        <time>2023-10-03T11:43:30.000Z</time>
      </trkpt>
      <trkpt lat="42.94246" lon="19.10505">
        <ele>1136.9000244141</ele>
        <time>2023-10-03T11:43:34.000Z</time>
      </trkpt>
      <trkpt lat="42.94231" lon="19.10504">
        <ele>1136.4200439453</ele>
        <time>2023-10-03T11:43:35.000Z</time>
      </trkpt>
      <trkpt lat="42.94223" lon="19.10505">
        <ele>1135.4499511719</ele>
        <time>2023-10-03T11:43:36.000Z</time>
      </trkpt>
      <trkpt lat="42.94214" lon="19.10507">
        <ele>1134.9699707031</ele>
        <time>2023-10-03T11:43:37.000Z</time>
      </trkpt>
      <trkpt lat="42.94209" lon="19.10511">
        <ele>1134.4899902344</ele>
        <time>2023-10-03T11:43:38.000Z</time>
      </trkpt>
      <trkpt lat="42.94202" lon="19.10515">
        <ele>1134.0100097656</ele>
        <time>2023-10-03T11:43:39.000Z</time>
      </trkpt>
      <trkpt lat="42.94196" lon="19.10517">
        <ele>1133.0500488281</ele>
        <time>2023-10-03T11:43:40.000Z</time>
      </trkpt>
      <trkpt lat="42.94191" lon="19.10516">
        <ele>1132.5699462891</ele>
        <time>2023-10-03T11:43:41.000Z</time>
      </trkpt>
      <trkpt lat="42.94179" lon="19.10509">
        <ele>1130.6500244141</ele>
        <time>2023-10-03T11:43:42.000Z</time>
      </trkpt>
      <trkpt lat="42.94177" lon="19.10508">
        <ele>1130.6500244141</ele>
        <time>2023-10-03T11:43:43.000Z</time>
      </trkpt>
      <trkpt lat="42.94169" lon="19.10506">
        <ele>1129.6899414062</ele>
        <time>2023-10-03T11:43:44.000Z</time>
      </trkpt>
      <trkpt lat="42.94152" lon="19.10503">
        <ele>1127.2800292969</ele>
        <time>2023-10-03T11:43:46.000Z</time>
      </trkpt>
      <trkpt lat="42.94133" lon="19.10499">
        <ele>1124.8800048828</ele>
        <time>2023-10-03T11:43:48.000Z</time>
      </trkpt>
      <trkpt lat="42.94123" lon="19.10498">
        <ele>1123.9200439453</ele>
        <time>2023-10-03T11:43:49.000Z</time>
      </trkpt>
      <trkpt lat="42.94115" lon="19.105">
        <ele>1123.4399414062</ele>
        <time>2023-10-03T11:43:50.000Z</time>
      </trkpt>
      <trkpt lat="42.94108" lon="19.10505">
        <ele>1122.4799804688</ele>
        <time>2023-10-03T11:43:51.000Z</time>
      </trkpt>
      <trkpt lat="42.94101" lon="19.10513">
        <ele>1122</ele>
        <time>2023-10-03T11:43:52.000Z</time>
      </trkpt>
      <trkpt lat="42.94089" lon="19.10528">
        <ele>1120.5500488281</ele>
        <time>2023-10-03T11:43:54.000Z</time>
      </trkpt>
      <trkpt lat="42.9408" lon="19.10536">
        <ele>1119.5899658203</ele>
        <time>2023-10-03T11:43:55.000Z</time>
      </trkpt>
      <trkpt lat="42.94062" lon="19.10546">
        <ele>1119.1099853516</ele>
        <time>2023-10-03T11:43:56.000Z</time>
      </trkpt>
      <trkpt lat="42.94057" lon="19.10549">
        <ele>1119.1099853516</ele>
        <time>2023-10-03T11:43:57.000Z</time>
      </trkpt>
      <trkpt lat="42.94018" lon="19.10581">
        <ele>1119.5899658203</ele>
        <time>2023-10-03T11:44:00.000Z</time>
      </trkpt>
      <trkpt lat="42.93992" lon="19.10599">
        <ele>1119.1099853516</ele>
        <time>2023-10-03T11:44:02.000Z</time>
      </trkpt>
      <trkpt lat="42.93969" lon="19.10614">
        <ele>1118.1500244141</ele>
        <time>2023-10-03T11:44:03.000Z</time>
      </trkpt>
      <trkpt lat="42.93951" lon="19.10628">
        <ele>1116.7099609375</ele>
        <time>2023-10-03T11:44:04.000Z</time>
      </trkpt>
      <trkpt lat="42.93941" lon="19.10635">
        <ele>1116.2299804688</ele>
        <time>2023-10-03T11:44:05.000Z</time>
      </trkpt>
      <trkpt lat="42.93918" lon="19.10655">
        <ele>1115.2700195312</ele>
        <time>2023-10-03T11:44:07.000Z</time>
      </trkpt>
      <trkpt lat="42.93909" lon="19.10663">
        <ele>1114.7900390625</ele>
        <time>2023-10-03T11:44:08.000Z</time>
      </trkpt>
      <trkpt lat="42.93899" lon="19.10674">
        <ele>1114.3100585938</ele>
        <time>2023-10-03T11:44:09.000Z</time>
      </trkpt>
      <trkpt lat="42.93878" lon="19.10698">
        <ele>1113.8199462891</ele>
        <time>2023-10-03T11:44:10.000Z</time>
      </trkpt>
      <trkpt lat="42.93827" lon="19.10753">
        <ele>1112.3800048828</ele>
        <time>2023-10-03T11:44:15.000Z</time>
      </trkpt>
      <trkpt lat="42.93762" lon="19.10823">
        <ele>1107.5799560547</ele>
        <time>2023-10-03T11:44:20.000Z</time>
      </trkpt>
      <trkpt lat="42.93748" lon="19.10836">
        <ele>1106.6099853516</ele>
        <time>2023-10-03T11:44:21.000Z</time>
      </trkpt>
      <trkpt lat="42.93715" lon="19.10864">
        <ele>1104.6899414062</ele>
        <time>2023-10-03T11:44:23.000Z</time>
      </trkpt>
      <trkpt lat="42.93712" lon="19.10866">
        <ele>1104.6899414062</ele>
        <time>2023-10-03T11:44:24.000Z</time>
      </trkpt>
      <trkpt lat="42.93701" lon="19.10879">
        <ele>1104.2099609375</ele>
        <time>2023-10-03T11:44:25.000Z</time>
      </trkpt>
      <trkpt lat="42.93678" lon="19.1091">
        <ele>1104.2099609375</ele>
        <time>2023-10-03T11:44:27.000Z</time>
      </trkpt>
      <trkpt lat="42.93668" lon="19.1092">
        <ele>1103.7299804688</ele>
        <time>2023-10-03T11:44:28.000Z</time>
      </trkpt>
      <trkpt lat="42.93656" lon="19.10929">
        <ele>1103.7299804688</ele>
        <time>2023-10-03T11:44:29.000Z</time>
      </trkpt>
      <trkpt lat="42.93627" lon="19.10941">
        <ele>1102.7700195312</ele>
        <time>2023-10-03T11:44:31.000Z</time>
      </trkpt>
      <trkpt lat="42.93583" lon="19.10962">
        <ele>1099.8900146484</ele>
        <time>2023-10-03T11:44:34.000Z</time>
      </trkpt>
      <trkpt lat="42.93565" lon="19.10968">
        <ele>1099.4000244141</ele>
        <time>2023-10-03T11:44:35.000Z</time>
      </trkpt>
      <trkpt lat="42.93554" lon="19.10971">
        <ele>1099.4000244141</ele>
        <time>2023-10-03T11:44:36.000Z</time>
      </trkpt>
      <trkpt lat="42.9354" lon="19.10972">
        <ele>1099.4000244141</ele>
        <time>2023-10-03T11:44:37.000Z</time>
      </trkpt>
      <trkpt lat="42.93527" lon="19.1097">
        <ele>1098.9200439453</ele>
        <time>2023-10-03T11:44:38.000Z</time>
      </trkpt>
      <trkpt lat="42.93513" lon="19.10965">
        <ele>1098.9200439453</ele>
        <time>2023-10-03T11:44:39.000Z</time>
      </trkpt>
      <trkpt lat="42.93499" lon="19.10957">
        <ele>1098.4399414062</ele>
        <time>2023-10-03T11:44:40.000Z</time>
      </trkpt>
      <trkpt lat="42.93471" lon="19.10937">
        <ele>1095.5600585938</ele>
        <time>2023-10-03T11:44:42.000Z</time>
      </trkpt>
      <trkpt lat="42.93456" lon="19.10928">
        <ele>1093.6400146484</ele>
        <time>2023-10-03T11:44:43.000Z</time>
      </trkpt>
      <trkpt lat="42.93429" lon="19.10917">
        <ele>1091.2299804688</ele>
        <time>2023-10-03T11:44:45.000Z</time>
      </trkpt>
      <trkpt lat="42.9342" lon="19.10914">
        <ele>1091.2299804688</ele>
        <time>2023-10-03T11:44:46.000Z</time>
      </trkpt>
      <trkpt lat="42.93412" lon="19.10914">
        <ele>1091.2299804688</ele>
        <time>2023-10-03T11:44:47.000Z</time>
      </trkpt>
      <trkpt lat="42.93405" lon="19.10919">
        <ele>1090.75</ele>
        <time>2023-10-03T11:44:48.000Z</time>
      </trkpt>
      <trkpt lat="42.93399" lon="19.10927">
        <ele>1089.7900390625</ele>
        <time>2023-10-03T11:44:49.000Z</time>
      </trkpt>
      <trkpt lat="42.93394" lon="19.10939">
        <ele>1089.3100585938</ele>
        <time>2023-10-03T11:44:50.000Z</time>
      </trkpt>
      <trkpt lat="42.93389" lon="19.10957">
        <ele>1088.3499755859</ele>
        <time>2023-10-03T11:44:51.000Z</time>
      </trkpt>
      <trkpt lat="42.93384" lon="19.1097">
        <ele>1087.3900146484</ele>
        <time>2023-10-03T11:44:52.000Z</time>
      </trkpt>
      <trkpt lat="42.93376" lon="19.10986">
        <ele>1086.4300537109</ele>
        <time>2023-10-03T11:44:53.000Z</time>
      </trkpt>
      <trkpt lat="42.93365" lon="19.11">
        <ele>1086.4300537109</ele>
        <time>2023-10-03T11:44:54.000Z</time>
      </trkpt>
      <trkpt lat="42.93354" lon="19.11011">
        <ele>1085.9499511719</ele>
        <time>2023-10-03T11:44:55.000Z</time>
      </trkpt>
      <trkpt lat="42.93342" lon="19.11019">
        <ele>1086.4300537109</ele>
        <time>2023-10-03T11:44:56.000Z</time>
      </trkpt>
      <trkpt lat="42.93328" lon="19.11023">
        <ele>1086.4300537109</ele>
        <time>2023-10-03T11:44:57.000Z</time>
      </trkpt>
      <trkpt lat="42.93306" lon="19.11025">
        <ele>1087.3900146484</ele>
        <time>2023-10-03T11:44:58.000Z</time>
      </trkpt>
      <trkpt lat="42.93302" lon="19.11026">
        <ele>1087.3900146484</ele>
        <time>2023-10-03T11:44:59.000Z</time>
      </trkpt>
      <trkpt lat="42.93292" lon="19.11029">
        <ele>1087.8699951172</ele>
        <time>2023-10-03T11:45:00.000Z</time>
      </trkpt>
      <trkpt lat="42.93286" lon="19.11035">
        <ele>1087.8699951172</ele>
        <time>2023-10-03T11:45:01.000Z</time>
      </trkpt>
      <trkpt lat="42.93282" lon="19.11045">
        <ele>1087.8699951172</ele>
        <time>2023-10-03T11:45:02.000Z</time>
      </trkpt>
      <trkpt lat="42.93278" lon="19.11062">
        <ele>1087.3900146484</ele>
        <time>2023-10-03T11:45:03.000Z</time>
      </trkpt>
      <trkpt lat="42.93274" lon="19.11079">
        <ele>1087.3900146484</ele>
        <time>2023-10-03T11:45:04.000Z</time>
      </trkpt>
      <trkpt lat="42.93272" lon="19.11091">
        <ele>1087.3900146484</ele>
        <time>2023-10-03T11:45:05.000Z</time>
      </trkpt>
      <trkpt lat="42.93269" lon="19.11107">
        <ele>1086.4300537109</ele>
        <time>2023-10-03T11:45:06.000Z</time>
      </trkpt>
      <trkpt lat="42.93266" lon="19.11119">
        <ele>1086.4300537109</ele>
        <time>2023-10-03T11:45:07.000Z</time>
      </trkpt>
      <trkpt lat="42.93261" lon="19.11131">
        <ele>1085.9499511719</ele>
        <time>2023-10-03T11:45:08.000Z</time>
      </trkpt>
      <trkpt lat="42.93255" lon="19.11143">
        <ele>1085.9499511719</ele>
        <time>2023-10-03T11:45:09.000Z</time>
      </trkpt>
      <trkpt lat="42.9325" lon="19.11152">
        <ele>1085.4699707031</ele>
        <time>2023-10-03T11:45:10.000Z</time>
      </trkpt>
      <trkpt lat="42.93243" lon="19.11162">
        <ele>1084.5</ele>
        <time>2023-10-03T11:45:11.000Z</time>
      </trkpt>
      <trkpt lat="42.93233" lon="19.1117">
        <ele>1083.5400390625</ele>
        <time>2023-10-03T11:45:12.000Z</time>
      </trkpt>
      <trkpt lat="42.93222" lon="19.11179">
        <ele>1082.5799560547</ele>
        <time>2023-10-03T11:45:13.000Z</time>
      </trkpt>
      <trkpt lat="42.93209" lon="19.11186">
        <ele>1081.6199951172</ele>
        <time>2023-10-03T11:45:14.000Z</time>
      </trkpt>
      <trkpt lat="42.93198" lon="19.11196">
        <ele>1080.6600341797</ele>
        <time>2023-10-03T11:45:15.000Z</time>
      </trkpt>
      <trkpt lat="42.9318" lon="19.11215">
        <ele>1079.2199707031</ele>
        <time>2023-10-03T11:45:16.000Z</time>
      </trkpt>
      <trkpt lat="42.93173" lon="19.11222">
        <ele>1078.2600097656</ele>
        <time>2023-10-03T11:45:17.000Z</time>
      </trkpt>
      <trkpt lat="42.93145" lon="19.11245">
        <ele>1076.3299560547</ele>
        <time>2023-10-03T11:45:19.000Z</time>
      </trkpt>
      <trkpt lat="42.93135" lon="19.11255">
        <ele>1075.8499755859</ele>
        <time>2023-10-03T11:45:20.000Z</time>
      </trkpt>
      <trkpt lat="42.93125" lon="19.11268">
        <ele>1075.3699951172</ele>
        <time>2023-10-03T11:45:21.000Z</time>
      </trkpt>
      <trkpt lat="42.93118" lon="19.1128">
        <ele>1075.3699951172</ele>
        <time>2023-10-03T11:45:22.000Z</time>
      </trkpt>
      <trkpt lat="42.93111" lon="19.11296">
        <ele>1075.3699951172</ele>
        <time>2023-10-03T11:45:23.000Z</time>
      </trkpt>
      <trkpt lat="42.93107" lon="19.11313">
        <ele>1075.3699951172</ele>
        <time>2023-10-03T11:45:24.000Z</time>
      </trkpt>
      <trkpt lat="42.93103" lon="19.11332">
        <ele>1074.8900146484</ele>
        <time>2023-10-03T11:45:25.000Z</time>
      </trkpt>
      <trkpt lat="42.93102" lon="19.11354">
        <ele>1074.4100341797</ele>
        <time>2023-10-03T11:45:26.000Z</time>
      </trkpt>
      <trkpt lat="42.93103" lon="19.11367">
        <ele>1073.9300537109</ele>
        <time>2023-10-03T11:45:27.000Z</time>
      </trkpt>
      <trkpt lat="42.93107" lon="19.11423">
        <ele>1071.5300292969</ele>
        <time>2023-10-03T11:45:29.000Z</time>
      </trkpt>
      <trkpt lat="42.93108" lon="19.11432">
        <ele>1071.0500488281</ele>
        <time>2023-10-03T11:45:30.000Z</time>
      </trkpt>
      <trkpt lat="42.93107" lon="19.11442">
        <ele>1070.5699462891</ele>
        <time>2023-10-03T11:45:31.000Z</time>
      </trkpt>
      <trkpt lat="42.93105" lon="19.11455">
        <ele>1069.5999755859</ele>
        <time>2023-10-03T11:45:32.000Z</time>
      </trkpt>
      <trkpt lat="42.931" lon="19.11466">
        <ele>1068.6400146484</ele>
        <time>2023-10-03T11:45:33.000Z</time>
      </trkpt>
      <trkpt lat="42.93091" lon="19.11475">
        <ele>1067.6800537109</ele>
        <time>2023-10-03T11:45:34.000Z</time>
      </trkpt>
      <trkpt lat="42.93079" lon="19.11485">
        <ele>1066.2399902344</ele>
        <time>2023-10-03T11:45:35.000Z</time>
      </trkpt>
      <trkpt lat="42.93067" lon="19.11499">
        <ele>1065.7600097656</ele>
        <time>2023-10-03T11:45:36.000Z</time>
      </trkpt>
      <trkpt lat="42.93058" lon="19.11509">
        <ele>1064.3199462891</ele>
        <time>2023-10-03T11:46:20.000Z</time>
      </trkpt>
      <trkpt lat="42.93061" lon="19.11501">
        <ele>1063.8399658203</ele>
        <time>2023-10-03T11:46:21.000Z</time>
      </trkpt>
      <trkpt lat="42.93065" lon="19.1149">
        <ele>1063.3599853516</ele>
        <time>2023-10-03T11:46:22.000Z</time>
      </trkpt>
      <trkpt lat="42.93074" lon="19.1147">
        <ele>1060.9499511719</ele>
        <time>2023-10-03T11:46:24.000Z</time>
      </trkpt>
      <trkpt lat="42.93075" lon="19.11467">
        <ele>1060.9499511719</ele>
        <time>2023-10-03T11:46:25.000Z</time>
      </trkpt>
      <trkpt lat="42.93078" lon="19.11458">
        <ele>1059.5100097656</ele>
        <time>2023-10-03T11:46:26.000Z</time>
      </trkpt>
      <trkpt lat="42.9308" lon="19.1145">
        <ele>1058.0699462891</ele>
        <time>2023-10-03T11:46:27.000Z</time>
      </trkpt>
      <trkpt lat="42.9308" lon="19.11444">
        <ele>1057.5899658203</ele>
        <time>2023-10-03T11:46:28.000Z</time>
      </trkpt>
      <trkpt lat="42.93078" lon="19.11437">
        <ele>1057.1099853516</ele>
        <time>2023-10-03T11:46:29.000Z</time>
      </trkpt>
      <trkpt lat="42.93074" lon="19.1143">
        <ele>1056.1500244141</ele>
        <time>2023-10-03T11:46:30.000Z</time>
      </trkpt>
      <trkpt lat="42.93072" lon="19.11425">
        <ele>1055.6700439453</ele>
        <time>2023-10-03T11:46:31.000Z</time>
      </trkpt>
      <trkpt lat="42.93071" lon="19.11419">
        <ele>1054.6999511719</ele>
        <time>2023-10-03T11:46:32.000Z</time>
      </trkpt>
      <trkpt lat="42.9307" lon="19.11412">
        <ele>1053.7399902344</ele>
        <time>2023-10-03T11:46:33.000Z</time>
      </trkpt>
      <trkpt lat="42.9307" lon="19.11404">
        <ele>1052.7800292969</ele>
        <time>2023-10-03T11:46:34.000Z</time>
      </trkpt>
      <trkpt lat="42.93069" lon="19.11395">
        <ele>1051.3399658203</ele>
        <time>2023-10-03T11:46:35.000Z</time>
      </trkpt>
      <trkpt lat="42.93068" lon="19.11387">
        <ele>1050.3800048828</ele>
        <time>2023-10-03T11:46:36.000Z</time>
      </trkpt>
      <trkpt lat="42.93066" lon="19.11377">
        <ele>1049.4200439453</ele>
        <time>2023-10-03T11:46:37.000Z</time>
      </trkpt>
      <trkpt lat="42.93064" lon="19.1137">
        <ele>1048.4499511719</ele>
        <time>2023-10-03T11:46:38.000Z</time>
      </trkpt>
      <trkpt lat="42.9306" lon="19.1136">
        <ele>1047.0100097656</ele>
        <time>2023-10-03T11:46:39.000Z</time>
      </trkpt>
      <trkpt lat="42.93057" lon="19.11353">
        <ele>1046.0500488281</ele>
        <time>2023-10-03T11:46:40.000Z</time>
      </trkpt>
      <trkpt lat="42.93054" lon="19.11345">
        <ele>1045.0899658203</ele>
        <time>2023-10-03T11:46:41.000Z</time>
      </trkpt>
      <trkpt lat="42.93052" lon="19.11337">
        <ele>1044.1300048828</ele>
        <time>2023-10-03T11:46:42.000Z</time>
      </trkpt>
      <trkpt lat="42.9305" lon="19.1133">
        <ele>1043.1700439453</ele>
        <time>2023-10-03T11:46:43.000Z</time>
      </trkpt>
      <trkpt lat="42.93049" lon="19.11321">
        <ele>1042.2099609375</ele>
        <time>2023-10-03T11:46:44.000Z</time>
      </trkpt>
      <trkpt lat="42.93047" lon="19.11307">
        <ele>1041.25</ele>
        <time>2023-10-03T11:46:45.000Z</time>
      </trkpt>
      <trkpt lat="42.93047" lon="19.11305">
        <ele>1041.25</ele>
        <time>2023-10-03T11:46:46.000Z</time>
      </trkpt>
      <trkpt lat="42.93047" lon="19.11298">
        <ele>1040.7600097656</ele>
        <time>2023-10-03T11:46:47.000Z</time>
      </trkpt>
      <trkpt lat="42.93047" lon="19.11289">
        <ele>1039.8000488281</ele>
        <time>2023-10-03T11:46:48.000Z</time>
      </trkpt>
      <trkpt lat="42.93049" lon="19.11276">
        <ele>1038.8399658203</ele>
        <time>2023-10-03T11:46:49.000Z</time>
      </trkpt>
      <trkpt lat="42.9305" lon="19.11263">
        <ele>1038.3599853516</ele>
        <time>2023-10-03T11:46:50.000Z</time>
      </trkpt>
      <trkpt lat="42.9305" lon="19.11258">
        <ele>1037.8800048828</ele>
        <time>2023-10-03T11:46:51.000Z</time>
      </trkpt>
      <trkpt lat="42.9305" lon="19.11253">
        <ele>1037.4000244141</ele>
        <time>2023-10-03T11:46:52.000Z</time>
      </trkpt>
      <trkpt lat="42.93049" lon="19.11243">
        <ele>1035.9599609375</ele>
        <time>2023-10-03T11:46:53.000Z</time>
      </trkpt>
      <trkpt lat="42.93048" lon="19.11236">
        <ele>1035.4799804688</ele>
        <time>2023-10-03T11:46:54.000Z</time>
      </trkpt>
      <trkpt lat="42.93047" lon="19.11229">
        <ele>1035.4799804688</ele>
        <time>2023-10-03T11:46:55.000Z</time>
      </trkpt>
      <trkpt lat="42.93046" lon="19.11222">
        <ele>1034.5200195312</ele>
        <time>2023-10-03T11:46:56.000Z</time>
      </trkpt>
      <trkpt lat="42.93048" lon="19.11212">
        <ele>1033.5500488281</ele>
        <time>2023-10-03T11:46:58.000Z</time>
      </trkpt>
      <trkpt lat="42.93051" lon="19.11206">
        <ele>1032.5899658203</ele>
        <time>2023-10-03T11:46:59.000Z</time>
      </trkpt>
      <trkpt lat="42.93054" lon="19.112">
        <ele>1031.6300048828</ele>
        <time>2023-10-03T11:47:00.000Z</time>
      </trkpt>
      <trkpt lat="42.93057" lon="19.11195">
        <ele>1030.6700439453</ele>
        <time>2023-10-03T11:47:01.000Z</time>
      </trkpt>
      <trkpt lat="42.93051" lon="19.11181">
        <ele>1029.2299804688</ele>
        <time>2023-10-03T11:47:06.000Z</time>
      </trkpt>
      <trkpt lat="42.93046" lon="19.11186">
        <ele>1028.2700195312</ele>
        <time>2023-10-03T11:47:08.000Z</time>
      </trkpt>
      <trkpt lat="42.93044" lon="19.1119">
        <ele>1027.7900390625</ele>
        <time>2023-10-03T11:47:09.000Z</time>
      </trkpt>
      <trkpt lat="42.9304" lon="19.11193">
        <ele>1027.3100585938</ele>
        <time>2023-10-03T11:47:10.000Z</time>
      </trkpt>
      <trkpt lat="42.93034" lon="19.11196">
        <ele>1026.3399658203</ele>
        <time>2023-10-03T11:47:11.000Z</time>
      </trkpt>
      <trkpt lat="42.93031" lon="19.11197">
        <ele>1026.3399658203</ele>
        <time>2023-10-03T11:47:12.000Z</time>
      </trkpt>
      <trkpt lat="42.93026" lon="19.11199">
        <ele>1025.8599853516</ele>
        <time>2023-10-03T11:47:13.000Z</time>
      </trkpt>
      <trkpt lat="42.93021" lon="19.11202">
        <ele>1024.9000244141</ele>
        <time>2023-10-03T11:47:14.000Z</time>
      </trkpt>
      <trkpt lat="42.93016" lon="19.11206">
        <ele>1024.4200439453</ele>
        <time>2023-10-03T11:47:15.000Z</time>
      </trkpt>
      <trkpt lat="42.93012" lon="19.1121">
        <ele>1023.9400024414</ele>
        <time>2023-10-03T11:47:16.000Z</time>
      </trkpt>
      <trkpt lat="42.93009" lon="19.11216">
        <ele>1023.4600219727</ele>
        <time>2023-10-03T11:47:17.000Z</time>
      </trkpt>
      <trkpt lat="42.93006" lon="19.11223">
        <ele>1022.9799804688</ele>
        <time>2023-10-03T11:47:18.000Z</time>
      </trkpt>
      <trkpt lat="42.93005" lon="19.11231">
        <ele>1022.0200195312</ele>
        <time>2023-10-03T11:47:19.000Z</time>
      </trkpt>
      <trkpt lat="42.93003" lon="19.1124">
        <ele>1021.5399780273</ele>
        <time>2023-10-03T11:47:20.000Z</time>
      </trkpt>
      <trkpt lat="42.93002" lon="19.11249">
        <ele>1021.0599975586</ele>
        <time>2023-10-03T11:47:21.000Z</time>
      </trkpt>
      <trkpt lat="42.93" lon="19.11264">
        <ele>1019.6199951172</ele>
        <time>2023-10-03T11:47:22.000Z</time>
      </trkpt>
      <trkpt lat="42.92999" lon="19.11277">
        <ele>1018.6500244141</ele>
        <time>2023-10-03T11:47:24.000Z</time>
      </trkpt>
      <trkpt lat="42.92998" lon="19.11285">
        <ele>1018.1699829102</ele>
        <time>2023-10-03T11:47:25.000Z</time>
      </trkpt>
      <trkpt lat="42.92999" lon="19.11293">
        <ele>1017.2100219727</ele>
        <time>2023-10-03T11:47:26.000Z</time>
      </trkpt>
      <trkpt lat="42.93001" lon="19.11307">
        <ele>1016.25</ele>
        <time>2023-10-03T11:47:28.000Z</time>
      </trkpt>
      <trkpt lat="42.93001" lon="19.11313">
        <ele>1015.2899780273</ele>
        <time>2023-10-03T11:47:29.000Z</time>
      </trkpt>
      <trkpt lat="42.92997" lon="19.11322">
        <ele>1014.8099975586</ele>
        <time>2023-10-03T11:47:31.000Z</time>
      </trkpt>
      <trkpt lat="42.92994" lon="19.11326">
        <ele>1014.3300170898</ele>
        <time>2023-10-03T11:47:32.000Z</time>
      </trkpt>
      <trkpt lat="42.9299" lon="19.11331">
        <ele>1014.3300170898</ele>
        <time>2023-10-03T11:47:33.000Z</time>
      </trkpt>
      <trkpt lat="42.92986" lon="19.11338">
        <ele>1013.8499755859</ele>
        <time>2023-10-03T11:47:34.000Z</time>
      </trkpt>
      <trkpt lat="42.92982" lon="19.11342">
        <ele>1013.8499755859</ele>
        <time>2023-10-03T11:47:35.000Z</time>
      </trkpt>
      <trkpt lat="42.92978" lon="19.11347">
        <ele>1013.8499755859</ele>
        <time>2023-10-03T11:47:36.000Z</time>
      </trkpt>
      <trkpt lat="42.92972" lon="19.11351">
        <ele>1013.3699951172</ele>
        <time>2023-10-03T11:47:37.000Z</time>
      </trkpt>
      <trkpt lat="42.92961" lon="19.11358">
        <ele>1011.9299926758</ele>
        <time>2023-10-03T11:47:38.000Z</time>
      </trkpt>
      <trkpt lat="42.92958" lon="19.11361">
        <ele>1011.4400024414</ele>
        <time>2023-10-03T11:47:39.000Z</time>
      </trkpt>
      <trkpt lat="42.92953" lon="19.11366">
        <ele>1010</ele>
        <time>2023-10-03T11:47:40.000Z</time>
      </trkpt>
      <trkpt lat="42.92947" lon="19.11372">
        <ele>1009.0399780273</ele>
        <time>2023-10-03T11:47:41.000Z</time>
      </trkpt>
      <trkpt lat="42.92943" lon="19.11378">
        <ele>1008.0800170898</ele>
        <time>2023-10-03T11:47:42.000Z</time>
      </trkpt>
      <trkpt lat="42.92931" lon="19.11373">
        <ele>1005.200012207</ele>
        <time>2023-10-03T11:47:48.000Z</time>
      </trkpt>
      <trkpt lat="42.92931" lon="19.11369">
        <ele>1005.200012207</ele>
        <time>2023-10-03T11:47:49.000Z</time>
      </trkpt>
      <trkpt lat="42.92931" lon="19.11358">
        <ele>1005.200012207</ele>
        <time>2023-10-03T11:47:50.000Z</time>
      </trkpt>
      <trkpt lat="42.92931" lon="19.11357">
        <ele>1005.200012207</ele>
        <time>2023-10-03T11:47:51.000Z</time>
      </trkpt>
      <trkpt lat="42.92931" lon="19.11349">
        <ele>1005.6799926758</ele>
        <time>2023-10-03T11:47:52.000Z</time>
      </trkpt>
      <trkpt lat="42.92932" lon="19.1134">
        <ele>1005.6799926758</ele>
        <time>2023-10-03T11:47:53.000Z</time>
      </trkpt>
      <trkpt lat="42.92933" lon="19.11334">
        <ele>1005.6799926758</ele>
        <time>2023-10-03T11:47:54.000Z</time>
      </trkpt>
      <trkpt lat="42.92935" lon="19.11326">
        <ele>1005.6799926758</ele>
        <time>2023-10-03T11:47:55.000Z</time>
      </trkpt>
      <trkpt lat="42.92939" lon="19.11316">
        <ele>1005.200012207</ele>
        <time>2023-10-03T11:47:56.000Z</time>
      </trkpt>
      <trkpt lat="42.92941" lon="19.11312">
        <ele>1004.7199707031</ele>
        <time>2023-10-03T11:47:57.000Z</time>
      </trkpt>
      <trkpt lat="42.92944" lon="19.11305">
        <ele>1004.7199707031</ele>
        <time>2023-10-03T11:47:58.000Z</time>
      </trkpt>
      <trkpt lat="42.92948" lon="19.11297">
        <ele>1003.75</ele>
        <time>2023-10-03T11:47:59.000Z</time>
      </trkpt>
      <trkpt lat="42.92952" lon="19.11292">
        <ele>1002.7899780273</ele>
        <time>2023-10-03T11:48:00.000Z</time>
      </trkpt>
      <trkpt lat="42.92956" lon="19.11288">
        <ele>1002.3099975586</ele>
        <time>2023-10-03T11:48:01.000Z</time>
      </trkpt>
      <trkpt lat="42.92952" lon="19.11273">
        <ele>999.42999267578</ele>
        <time>2023-10-03T11:48:06.000Z</time>
      </trkpt>
      <trkpt lat="42.92943" lon="19.11278">
        <ele>997.51000976562</ele>
        <time>2023-10-03T11:48:09.000Z</time>
      </trkpt>
      <trkpt lat="42.92941" lon="19.1128">
        <ele>997.02001953125</ele>
        <time>2023-10-03T11:48:10.000Z</time>
      </trkpt>
      <trkpt lat="42.92936" lon="19.11283">
        <ele>996.05999755859</ele>
        <time>2023-10-03T11:48:11.000Z</time>
      </trkpt>
      <trkpt lat="42.92931" lon="19.11285">
        <ele>995.09997558594</ele>
        <time>2023-10-03T11:48:12.000Z</time>
      </trkpt>
      <trkpt lat="42.92925" lon="19.11288">
        <ele>994.14001464844</ele>
        <time>2023-10-03T11:48:13.000Z</time>
      </trkpt>
      <trkpt lat="42.92922" lon="19.1129">
        <ele>993.17999267578</ele>
        <time>2023-10-03T11:48:14.000Z</time>
      </trkpt>
      <trkpt lat="42.92914" lon="19.11293">
        <ele>991.73999023438</ele>
        <time>2023-10-03T11:48:15.000Z</time>
      </trkpt>
      <trkpt lat="42.92911" lon="19.11295">
        <ele>990.78002929688</ele>
        <time>2023-10-03T11:48:16.000Z</time>
      </trkpt>
      <trkpt lat="42.92905" lon="19.11298">
        <ele>989.33001708984</ele>
        <time>2023-10-03T11:48:17.000Z</time>
      </trkpt>
      <trkpt lat="42.92899" lon="19.11301">
        <ele>988.36999511719</ele>
        <time>2023-10-03T11:48:18.000Z</time>
      </trkpt>
      <trkpt lat="42.92895" lon="19.11305">
        <ele>987.40997314453</ele>
        <time>2023-10-03T11:48:19.000Z</time>
      </trkpt>
      <trkpt lat="42.92888" lon="19.11309">
        <ele>985.96997070312</ele>
        <time>2023-10-03T11:48:20.000Z</time>
      </trkpt>
      <trkpt lat="42.92883" lon="19.11312">
        <ele>985.01000976562</ele>
        <time>2023-10-03T11:48:21.000Z</time>
      </trkpt>
      <trkpt lat="42.92878" lon="19.11314">
        <ele>984.04998779297</ele>
        <time>2023-10-03T11:48:22.000Z</time>
      </trkpt>
      <trkpt lat="42.92872" lon="19.11316">
        <ele>983.09002685547</ele>
        <time>2023-10-03T11:48:23.000Z</time>
      </trkpt>
      <trkpt lat="42.92866" lon="19.11318">
        <ele>982.11999511719</ele>
        <time>2023-10-03T11:48:24.000Z</time>
      </trkpt>
      <trkpt lat="42.92861" lon="19.1132">
        <ele>981.15997314453</ele>
        <time>2023-10-03T11:48:25.000Z</time>
      </trkpt>
      <trkpt lat="42.92856" lon="19.11324">
        <ele>979.71997070312</ele>
        <time>2023-10-03T11:48:26.000Z</time>
      </trkpt>
      <trkpt lat="42.92851" lon="19.1133">
        <ele>978.76000976562</ele>
        <time>2023-10-03T11:48:27.000Z</time>
      </trkpt>
      <trkpt lat="42.92839" lon="19.11323">
        <ele>974.90997314453</ele>
        <time>2023-10-03T11:48:33.000Z</time>
      </trkpt>
      <trkpt lat="42.92841" lon="19.1131">
        <ele>973.95001220703</ele>
        <time>2023-10-03T11:48:35.000Z</time>
      </trkpt>
      <trkpt lat="42.92843" lon="19.11306">
        <ele>973.95001220703</ele>
        <time>2023-10-03T11:48:36.000Z</time>
      </trkpt>
      <trkpt lat="42.92844" lon="19.11302">
        <ele>973.95001220703</ele>
        <time>2023-10-03T11:48:37.000Z</time>
      </trkpt>
      <trkpt lat="42.92848" lon="19.11294">
        <ele>973.46997070312</ele>
        <time>2023-10-03T11:48:38.000Z</time>
      </trkpt>
      <trkpt lat="42.9285" lon="19.11288">
        <ele>972.98999023438</ele>
        <time>2023-10-03T11:48:39.000Z</time>
      </trkpt>
      <trkpt lat="42.92852" lon="19.11284">
        <ele>972.98999023438</ele>
        <time>2023-10-03T11:48:40.000Z</time>
      </trkpt>
      <trkpt lat="42.92845" lon="19.1127">
        <ele>972.03002929688</ele>
        <time>2023-10-03T11:48:44.000Z</time>
      </trkpt>
      <trkpt lat="42.92841" lon="19.11271">
        <ele>971.54998779297</ele>
        <time>2023-10-03T11:48:45.000Z</time>
      </trkpt>
      <trkpt lat="42.92836" lon="19.11274">
        <ele>970.59002685547</ele>
        <time>2023-10-03T11:48:46.000Z</time>
      </trkpt>
      <trkpt lat="42.92831" lon="19.11276">
        <ele>970.10998535156</ele>
        <time>2023-10-03T11:48:47.000Z</time>
      </trkpt>
      <trkpt lat="42.92826" lon="19.11281">
        <ele>969.63000488281</ele>
        <time>2023-10-03T11:48:48.000Z</time>
      </trkpt>
      <trkpt lat="42.92822" lon="19.11286">
        <ele>968.66998291016</ele>
        <time>2023-10-03T11:48:49.000Z</time>
      </trkpt>
      <trkpt lat="42.9282" lon="19.11292">
        <ele>968.17999267578</ele>
        <time>2023-10-03T11:48:50.000Z</time>
      </trkpt>
      <trkpt lat="42.92818" lon="19.11298">
        <ele>967.70001220703</ele>
        <time>2023-10-03T11:48:51.000Z</time>
      </trkpt>
      <trkpt lat="42.92817" lon="19.11304">
        <ele>967.21997070312</ele>
        <time>2023-10-03T11:48:52.000Z</time>
      </trkpt>
      <trkpt lat="42.92809" lon="19.11331">
        <ele>962.41998291016</ele>
        <time>2023-10-03T11:48:58.000Z</time>
      </trkpt>
      <trkpt lat="42.92806" lon="19.11335">
        <ele>961.46002197266</ele>
        <time>2023-10-03T11:48:59.000Z</time>
      </trkpt>
      <trkpt lat="42.92801" lon="19.11343">
        <ele>960.01000976562</ele>
        <time>2023-10-03T11:49:00.000Z</time>
      </trkpt>
      <trkpt lat="42.92799" lon="19.11346">
        <ele>959.53002929688</ele>
        <time>2023-10-03T11:49:01.000Z</time>
      </trkpt>
      <trkpt lat="42.92796" lon="19.11352">
        <ele>959.04998779297</ele>
        <time>2023-10-03T11:49:02.000Z</time>
      </trkpt>
      <trkpt lat="42.92793" lon="19.11358">
        <ele>958.09002685547</ele>
        <time>2023-10-03T11:49:03.000Z</time>
      </trkpt>
      <trkpt lat="42.92787" lon="19.11375">
        <ele>954.72998046875</ele>
        <time>2023-10-03T11:49:06.000Z</time>
      </trkpt>
      <trkpt lat="42.92785" lon="19.11377">
        <ele>954.25</ele>
        <time>2023-10-03T11:49:07.000Z</time>
      </trkpt>
      <trkpt lat="42.92783" lon="19.1138">
        <ele>953.77001953125</ele>
        <time>2023-10-03T11:49:08.000Z</time>
      </trkpt>
      <trkpt lat="42.9278" lon="19.11384">
        <ele>952.79998779297</ele>
        <time>2023-10-03T11:49:09.000Z</time>
      </trkpt>
      <trkpt lat="42.92773" lon="19.1139">
        <ele>951.84002685547</ele>
        <time>2023-10-03T11:49:10.000Z</time>
      </trkpt>
      <trkpt lat="42.9277" lon="19.11393">
        <ele>951.35998535156</ele>
        <time>2023-10-03T11:49:11.000Z</time>
      </trkpt>
      <trkpt lat="42.92765" lon="19.11395">
        <ele>950.88000488281</ele>
        <time>2023-10-03T11:49:12.000Z</time>
      </trkpt>
      <trkpt lat="42.92762" lon="19.11398">
        <ele>950.40002441406</ele>
        <time>2023-10-03T11:49:13.000Z</time>
      </trkpt>
      <trkpt lat="42.92754" lon="19.11407">
        <ele>949.44000244141</ele>
        <time>2023-10-03T11:49:15.000Z</time>
      </trkpt>
      <trkpt lat="42.9275" lon="19.11411">
        <ele>948.96002197266</ele>
        <time>2023-10-03T11:49:16.000Z</time>
      </trkpt>
      <trkpt lat="42.92746" lon="19.11414">
        <ele>948.96002197266</ele>
        <time>2023-10-03T11:49:17.000Z</time>
      </trkpt>
      <trkpt lat="42.92742" lon="19.11416">
        <ele>948.47998046875</ele>
        <time>2023-10-03T11:49:18.000Z</time>
      </trkpt>
      <trkpt lat="42.92737" lon="19.11419">
        <ele>948</ele>
        <time>2023-10-03T11:49:19.000Z</time>
      </trkpt>
      <trkpt lat="42.92732" lon="19.11421">
        <ele>948</ele>
        <time>2023-10-03T11:49:20.000Z</time>
      </trkpt>
      <trkpt lat="42.92728" lon="19.11422">
        <ele>948</ele>
        <time>2023-10-03T11:49:21.000Z</time>
      </trkpt>
      <trkpt lat="42.92723" lon="19.11423">
        <ele>947.52001953125</ele>
        <time>2023-10-03T11:49:22.000Z</time>
      </trkpt>
      <trkpt lat="42.92717" lon="19.11423">
        <ele>947.52001953125</ele>
        <time>2023-10-03T11:49:23.000Z</time>
      </trkpt>
      <trkpt lat="42.92712" lon="19.11422">
        <ele>947.52001953125</ele>
        <time>2023-10-03T11:49:24.000Z</time>
      </trkpt>
      <trkpt lat="42.92706" lon="19.1142">
        <ele>947.52001953125</ele>
        <time>2023-10-03T11:49:30.000Z</time>
      </trkpt>
      <trkpt lat="42.92687" lon="19.11424">
        <ele>948</ele>
        <time>2023-10-03T11:49:47.000Z</time>
      </trkpt>
      <trkpt lat="42.92683" lon="19.11425">
        <ele>947.52001953125</ele>
        <time>2023-10-03T11:49:54.000Z</time>
      </trkpt>
      <trkpt lat="42.92671" lon="19.11421">
        <ele>946.55999755859</ele>
        <time>2023-10-03T11:50:46.000Z</time>
      </trkpt>
      <trkpt lat="42.92671" lon="19.11421">
        <ele>946.07000732422</ele>
        <time>2023-10-03T11:50:47.000Z</time>
      </trkpt>
      <trkpt lat="42.92671" lon="19.11421">
        <ele>946.07000732422</ele>
        <time>2023-10-03T11:51:04.000Z</time>
      </trkpt>
      <trkpt lat="42.9267" lon="19.11421">
        <ele>944.63000488281</ele>
        <time>2023-10-03T11:52:25.000Z</time>
      </trkpt>
      <trkpt lat="42.9267" lon="19.11421">
        <ele>945.10998535156</ele>
        <time>2023-10-03T11:52:53.000Z</time>
      </trkpt>
      <trkpt lat="42.92669" lon="19.11422">
        <ele>945.10998535156</ele>
        <time>2023-10-03T11:53:22.000Z</time>
      </trkpt>
      <trkpt lat="42.92665" lon="19.1142">
        <ele>944.15002441406</ele>
        <time>2023-10-03T11:54:22.000Z</time>
      </trkpt>
      <trkpt lat="42.92661" lon="19.11416">
        <ele>944.15002441406</ele>
        <time>2023-10-03T11:54:31.000Z</time>
      </trkpt>
      <trkpt lat="42.92649" lon="19.11417">
        <ele>945.59002685547</ele>
        <time>2023-10-03T11:54:40.000Z</time>
      </trkpt>
      <trkpt lat="42.92649" lon="19.11418">
        <ele>945.59002685547</ele>
        <time>2023-10-03T11:54:54.000Z</time>
      </trkpt>
      <trkpt lat="42.92643" lon="19.11422">
        <ele>946.55999755859</ele>
        <time>2023-10-03T11:56:46.000Z</time>
      </trkpt>
      <trkpt lat="42.92642" lon="19.11422">
        <ele>946.55999755859</ele>
        <time>2023-10-03T11:56:47.000Z</time>
      </trkpt>
      <trkpt lat="42.92639" lon="19.11425">
        <ele>947.03997802734</ele>
        <time>2023-10-03T11:56:48.000Z</time>
      </trkpt>
      <trkpt lat="42.92632" lon="19.11428">
        <ele>947.03997802734</ele>
        <time>2023-10-03T11:56:49.000Z</time>
      </trkpt>
      <trkpt lat="42.92629" lon="19.1143">
        <ele>947.52001953125</ele>
        <time>2023-10-03T11:56:50.000Z</time>
      </trkpt>
      <trkpt lat="42.92623" lon="19.11433">
        <ele>947.52001953125</ele>
        <time>2023-10-03T11:56:51.000Z</time>
      </trkpt>
      <trkpt lat="42.92619" lon="19.11434">
        <ele>948</ele>
        <time>2023-10-03T11:56:52.000Z</time>
      </trkpt>
      <trkpt lat="42.92613" lon="19.11435">
        <ele>948</ele>
        <time>2023-10-03T11:56:53.000Z</time>
      </trkpt>
      <trkpt lat="42.926" lon="19.11436">
        <ele>948.47998046875</ele>
        <time>2023-10-03T11:56:55.000Z</time>
      </trkpt>
      <trkpt lat="42.92595" lon="19.11436">
        <ele>948.96002197266</ele>
        <time>2023-10-03T11:56:56.000Z</time>
      </trkpt>
      <trkpt lat="42.92586" lon="19.11428">
        <ele>950.88000488281</ele>
        <time>2023-10-03T11:57:02.000Z</time>
      </trkpt>
      <trkpt lat="42.92595" lon="19.1142">
        <ele>952.32000732422</ele>
        <time>2023-10-03T11:57:04.000Z</time>
      </trkpt>
      <trkpt lat="42.92596" lon="19.11402">
        <ele>955.21002197266</ele>
        <time>2023-10-03T11:57:11.000Z</time>
      </trkpt>
      <trkpt lat="42.92589" lon="19.11399">
        <ele>957.13000488281</ele>
        <time>2023-10-03T11:57:13.000Z</time>
      </trkpt>
      <trkpt lat="42.92583" lon="19.114">
        <ele>958.09002685547</ele>
        <time>2023-10-03T11:57:14.000Z</time>
      </trkpt>
      <trkpt lat="42.9258" lon="19.11401">
        <ele>958.57000732422</ele>
        <time>2023-10-03T11:57:15.000Z</time>
      </trkpt>
      <trkpt lat="42.92571" lon="19.11403">
        <ele>960.01000976562</ele>
        <time>2023-10-03T11:57:16.000Z</time>
      </trkpt>
      <trkpt lat="42.92567" lon="19.11404">
        <ele>960.97998046875</ele>
        <time>2023-10-03T11:57:17.000Z</time>
      </trkpt>
      <trkpt lat="42.9256" lon="19.11405">
        <ele>961.94000244141</ele>
        <time>2023-10-03T11:57:18.000Z</time>
      </trkpt>
      <trkpt lat="42.92554" lon="19.11407">
        <ele>963.38000488281</ele>
        <time>2023-10-03T11:57:19.000Z</time>
      </trkpt>
      <trkpt lat="42.92545" lon="19.1141">
        <ele>965.29998779297</ele>
        <time>2023-10-03T11:57:20.000Z</time>
      </trkpt>
      <trkpt lat="42.92541" lon="19.11412">
        <ele>966.26000976562</ele>
        <time>2023-10-03T11:57:21.000Z</time>
      </trkpt>
      <trkpt lat="42.92534" lon="19.11415">
        <ele>967.70001220703</ele>
        <time>2023-10-03T11:57:22.000Z</time>
      </trkpt>
      <trkpt lat="42.92528" lon="19.11417">
        <ele>968.66998291016</ele>
        <time>2023-10-03T11:57:23.000Z</time>
      </trkpt>
      <trkpt lat="42.92521" lon="19.11421">
        <ele>970.10998535156</ele>
        <time>2023-10-03T11:57:24.000Z</time>
      </trkpt>
      <trkpt lat="42.92512" lon="19.11425">
        <ele>972.03002929688</ele>
        <time>2023-10-03T11:57:25.000Z</time>
      </trkpt>
      <trkpt lat="42.92507" lon="19.11428">
        <ele>972.98999023438</ele>
        <time>2023-10-03T11:57:26.000Z</time>
      </trkpt>
      <trkpt lat="42.925" lon="19.11432">
        <ele>975.39001464844</ele>
        <time>2023-10-03T11:57:27.000Z</time>
      </trkpt>
      <trkpt lat="42.92489" lon="19.11438">
        <ele>978.28002929688</ele>
        <time>2023-10-03T11:57:28.000Z</time>
      </trkpt>
      <trkpt lat="42.92488" lon="19.11439">
        <ele>978.28002929688</ele>
        <time>2023-10-03T11:57:29.000Z</time>
      </trkpt>
      <trkpt lat="42.92481" lon="19.11442">
        <ele>980.20001220703</ele>
        <time>2023-10-03T11:57:30.000Z</time>
      </trkpt>
      <trkpt lat="42.92475" lon="19.11444">
        <ele>982.11999511719</ele>
        <time>2023-10-03T11:57:31.000Z</time>
      </trkpt>
      <trkpt lat="42.92469" lon="19.11445">
        <ele>983.57000732422</ele>
        <time>2023-10-03T11:57:32.000Z</time>
      </trkpt>
      <trkpt lat="42.92463" lon="19.11443">
        <ele>985.48999023438</ele>
        <time>2023-10-03T11:57:33.000Z</time>
      </trkpt>
      <trkpt lat="42.9246" lon="19.1144">
        <ele>985.96997070312</ele>
        <time>2023-10-03T11:57:34.000Z</time>
      </trkpt>
      <trkpt lat="42.92457" lon="19.11436">
        <ele>987.40997314453</ele>
        <time>2023-10-03T11:57:35.000Z</time>
      </trkpt>
      <trkpt lat="42.92454" lon="19.1143">
        <ele>988.36999511719</ele>
        <time>2023-10-03T11:57:36.000Z</time>
      </trkpt>
      <trkpt lat="42.92451" lon="19.11423">
        <ele>989.80999755859</ele>
        <time>2023-10-03T11:57:37.000Z</time>
      </trkpt>
      <trkpt lat="42.92449" lon="19.11413">
        <ele>991.73999023438</ele>
        <time>2023-10-03T11:57:38.000Z</time>
      </trkpt>
      <trkpt lat="42.92449" lon="19.11408">
        <ele>992.70001220703</ele>
        <time>2023-10-03T11:57:39.000Z</time>
      </trkpt>
      <trkpt lat="42.92449" lon="19.11403">
        <ele>994.61999511719</ele>
        <time>2023-10-03T11:57:40.000Z</time>
      </trkpt>
      <trkpt lat="42.92451" lon="19.11398">
        <ele>995.58001708984</ele>
        <time>2023-10-03T11:57:41.000Z</time>
      </trkpt>
      <trkpt lat="42.92454" lon="19.11394">
        <ele>996.53997802734</ele>
        <time>2023-10-03T11:57:42.000Z</time>
      </trkpt>
      <trkpt lat="42.92458" lon="19.11391">
        <ele>997.51000976562</ele>
        <time>2023-10-03T11:57:43.000Z</time>
      </trkpt>
      <trkpt lat="42.92463" lon="19.11387">
        <ele>998.95001220703</ele>
        <time>2023-10-03T11:57:44.000Z</time>
      </trkpt>
      <trkpt lat="42.92467" lon="19.11382">
        <ele>999.90997314453</ele>
        <time>2023-10-03T11:57:45.000Z</time>
      </trkpt>
      <trkpt lat="42.92471" lon="19.11375">
        <ele>1001.8300170898</ele>
        <time>2023-10-03T11:57:46.000Z</time>
      </trkpt>
      <trkpt lat="42.92475" lon="19.11371">
        <ele>1003.2700195312</ele>
        <time>2023-10-03T11:57:47.000Z</time>
      </trkpt>
      <trkpt lat="42.92479" lon="19.11368">
        <ele>1004.7199707031</ele>
        <time>2023-10-03T11:57:48.000Z</time>
      </trkpt>
      <trkpt lat="42.92483" lon="19.11363">
        <ele>1006.6400146484</ele>
        <time>2023-10-03T11:57:49.000Z</time>
      </trkpt>
      <trkpt lat="42.92487" lon="19.11359">
        <ele>1008.5599975586</ele>
        <time>2023-10-03T11:57:50.000Z</time>
      </trkpt>
      <trkpt lat="42.92491" lon="19.11351">
        <ele>1010.4799804688</ele>
        <time>2023-10-03T11:57:51.000Z</time>
      </trkpt>
      <trkpt lat="42.92494" lon="19.11346">
        <ele>1011.4400024414</ele>
        <time>2023-10-03T11:57:52.000Z</time>
      </trkpt>
      <trkpt lat="42.92499" lon="19.11336">
        <ele>1013.3699951172</ele>
        <time>2023-10-03T11:57:53.000Z</time>
      </trkpt>
      <trkpt lat="42.92501" lon="19.11331">
        <ele>1014.3300170898</ele>
        <time>2023-10-03T11:57:54.000Z</time>
      </trkpt>
      <trkpt lat="42.92505" lon="19.11327">
        <ele>1015.7700195312</ele>
        <time>2023-10-03T11:57:55.000Z</time>
      </trkpt>
      <trkpt lat="42.9251" lon="19.11322">
        <ele>1017.2100219727</ele>
        <time>2023-10-03T11:57:56.000Z</time>
      </trkpt>
      <trkpt lat="42.92515" lon="19.11317">
        <ele>1018.6500244141</ele>
        <time>2023-10-03T11:57:57.000Z</time>
      </trkpt>
      <trkpt lat="42.92518" lon="19.11311">
        <ele>1019.6199951172</ele>
        <time>2023-10-03T11:57:58.000Z</time>
      </trkpt>
      <trkpt lat="42.9252" lon="19.11304">
        <ele>1020.0999755859</ele>
        <time>2023-10-03T11:57:59.000Z</time>
      </trkpt>
      <trkpt lat="42.9252" lon="19.11297">
        <ele>1020.5800170898</ele>
        <time>2023-10-03T11:58:00.000Z</time>
      </trkpt>
      <trkpt lat="42.92515" lon="19.11289">
        <ele>1022.0200195312</ele>
        <time>2023-10-03T11:58:02.000Z</time>
      </trkpt>
      <trkpt lat="42.92512" lon="19.11288">
        <ele>1022.9799804688</ele>
        <time>2023-10-03T11:58:03.000Z</time>
      </trkpt>
      <trkpt lat="42.92507" lon="19.11287">
        <ele>1023.9400024414</ele>
        <time>2023-10-03T11:58:04.000Z</time>
      </trkpt>
      <trkpt lat="42.92503" lon="19.11288">
        <ele>1024.9000244141</ele>
        <time>2023-10-03T11:58:05.000Z</time>
      </trkpt>
      <trkpt lat="42.92496" lon="19.11289">
        <ele>1026.3399658203</ele>
        <time>2023-10-03T11:58:06.000Z</time>
      </trkpt>
      <trkpt lat="42.92492" lon="19.1129">
        <ele>1027.3100585938</ele>
        <time>2023-10-03T11:58:07.000Z</time>
      </trkpt>
      <trkpt lat="42.92482" lon="19.11291">
        <ele>1029.2299804688</ele>
        <time>2023-10-03T11:58:08.000Z</time>
      </trkpt>
      <trkpt lat="42.92476" lon="19.11292">
        <ele>1030.1899414062</ele>
        <time>2023-10-03T11:58:09.000Z</time>
      </trkpt>
      <trkpt lat="42.92471" lon="19.11293">
        <ele>1031.1500244141</ele>
        <time>2023-10-03T11:58:10.000Z</time>
      </trkpt>
      <trkpt lat="42.92467" lon="19.11294">
        <ele>1032.1099853516</ele>
        <time>2023-10-03T11:58:11.000Z</time>
      </trkpt>
      <trkpt lat="42.9246" lon="19.11298">
        <ele>1033.5500488281</ele>
        <time>2023-10-03T11:58:12.000Z</time>
      </trkpt>
      <trkpt lat="42.92453" lon="19.11302">
        <ele>1035</ele>
        <time>2023-10-03T11:58:13.000Z</time>
      </trkpt>
      <trkpt lat="42.92446" lon="19.11304">
        <ele>1036.9200439453</ele>
        <time>2023-10-03T11:58:14.000Z</time>
      </trkpt>
      <trkpt lat="42.92441" lon="19.11305">
        <ele>1038.8399658203</ele>
        <time>2023-10-03T11:58:15.000Z</time>
      </trkpt>
      <trkpt lat="42.92434" lon="19.11303">
        <ele>1040.7600097656</ele>
        <time>2023-10-03T11:58:16.000Z</time>
      </trkpt>
      <trkpt lat="42.92428" lon="19.113">
        <ele>1042.2099609375</ele>
        <time>2023-10-03T11:58:17.000Z</time>
      </trkpt>
      <trkpt lat="42.92423" lon="19.11297">
        <ele>1043.6500244141</ele>
        <time>2023-10-03T11:58:18.000Z</time>
      </trkpt>
      <trkpt lat="42.92417" lon="19.11293">
        <ele>1045.0899658203</ele>
        <time>2023-10-03T11:58:19.000Z</time>
      </trkpt>
      <trkpt lat="42.9241" lon="19.11286">
        <ele>1046.5300292969</ele>
        <time>2023-10-03T11:58:20.000Z</time>
      </trkpt>
      <trkpt lat="42.92407" lon="19.11283">
        <ele>1047.4899902344</ele>
        <time>2023-10-03T11:58:21.000Z</time>
      </trkpt>
      <trkpt lat="42.92401" lon="19.11276">
        <ele>1048.4499511719</ele>
        <time>2023-10-03T11:58:22.000Z</time>
      </trkpt>
      <trkpt lat="42.92398" lon="19.11269">
        <ele>1049.4200439453</ele>
        <time>2023-10-03T11:58:23.000Z</time>
      </trkpt>
      <trkpt lat="42.92394" lon="19.11259">
        <ele>1050.8599853516</ele>
        <time>2023-10-03T11:58:24.000Z</time>
      </trkpt>
      <trkpt lat="42.9239" lon="19.11248">
        <ele>1052.7800292969</ele>
        <time>2023-10-03T11:58:25.000Z</time>
      </trkpt>
      <trkpt lat="42.92388" lon="19.11241">
        <ele>1053.2600097656</ele>
        <time>2023-10-03T11:58:26.000Z</time>
      </trkpt>
      <trkpt lat="42.92384" lon="19.11229">
        <ele>1054.6999511719</ele>
        <time>2023-10-03T11:58:27.000Z</time>
      </trkpt>
      <trkpt lat="42.92381" lon="19.1122">
        <ele>1056.1500244141</ele>
        <time>2023-10-03T11:58:28.000Z</time>
      </trkpt>
      <trkpt lat="42.92378" lon="19.11208">
        <ele>1057.5899658203</ele>
        <time>2023-10-03T11:58:29.000Z</time>
      </trkpt>
      <trkpt lat="42.92372" lon="19.11188">
        <ele>1059.5100097656</ele>
        <time>2023-10-03T11:58:31.000Z</time>
      </trkpt>
      <trkpt lat="42.92369" lon="19.11179">
        <ele>1060.4699707031</ele>
        <time>2023-10-03T11:58:32.000Z</time>
      </trkpt>
      <trkpt lat="42.92367" lon="19.11174">
        <ele>1060.9499511719</ele>
        <time>2023-10-03T11:58:33.000Z</time>
      </trkpt>
      <trkpt lat="42.92361" lon="19.11166">
        <ele>1061.9100341797</ele>
        <time>2023-10-03T11:58:34.000Z</time>
      </trkpt>
      <trkpt lat="42.92353" lon="19.1116">
        <ele>1063.3599853516</ele>
        <time>2023-10-03T11:58:35.000Z</time>
      </trkpt>
      <trkpt lat="42.92346" lon="19.11155">
        <ele>1064.8000488281</ele>
        <time>2023-10-03T11:58:36.000Z</time>
      </trkpt>
      <trkpt lat="42.92338" lon="19.11148">
        <ele>1066.2399902344</ele>
        <time>2023-10-03T11:58:37.000Z</time>
      </trkpt>
      <trkpt lat="42.92333" lon="19.11143">
        <ele>1067.1999511719</ele>
        <time>2023-10-03T11:58:38.000Z</time>
      </trkpt>
      <trkpt lat="42.92329" lon="19.11137">
        <ele>1068.6400146484</ele>
        <time>2023-10-03T11:58:39.000Z</time>
      </trkpt>
      <trkpt lat="42.92326" lon="19.1113">
        <ele>1070.5699462891</ele>
        <time>2023-10-03T11:58:40.000Z</time>
      </trkpt>
      <trkpt lat="42.92324" lon="19.11124">
        <ele>1072.0100097656</ele>
        <time>2023-10-03T11:58:41.000Z</time>
      </trkpt>
      <trkpt lat="42.9232" lon="19.11112">
        <ele>1075.3699951172</ele>
        <time>2023-10-03T11:58:42.000Z</time>
      </trkpt>
      <trkpt lat="42.92318" lon="19.11108">
        <ele>1075.8499755859</ele>
        <time>2023-10-03T11:58:43.000Z</time>
      </trkpt>
      <trkpt lat="42.92315" lon="19.11101">
        <ele>1076.8100585938</ele>
        <time>2023-10-03T11:58:44.000Z</time>
      </trkpt>
      <trkpt lat="42.9231" lon="19.11093">
        <ele>1078.7399902344</ele>
        <time>2023-10-03T11:58:45.000Z</time>
      </trkpt>
      <trkpt lat="42.92308" lon="19.11087">
        <ele>1079.6999511719</ele>
        <time>2023-10-03T11:58:46.000Z</time>
      </trkpt>
      <trkpt lat="42.92306" lon="19.11078">
        <ele>1081.1400146484</ele>
        <time>2023-10-03T11:58:47.000Z</time>
      </trkpt>
      <trkpt lat="42.92306" lon="19.11066">
        <ele>1082.0999755859</ele>
        <time>2023-10-03T11:58:48.000Z</time>
      </trkpt>
      <trkpt lat="42.92306" lon="19.11063">
        <ele>1082.5799560547</ele>
        <time>2023-10-03T11:58:49.000Z</time>
      </trkpt>
      <trkpt lat="42.92306" lon="19.11052">
        <ele>1083.0600585938</ele>
        <time>2023-10-03T11:58:50.000Z</time>
      </trkpt>
      <trkpt lat="42.92305" lon="19.11039">
        <ele>1084.0200195312</ele>
        <time>2023-10-03T11:58:51.000Z</time>
      </trkpt>
      <trkpt lat="42.92303" lon="19.11023">
        <ele>1084.9899902344</ele>
        <time>2023-10-03T11:58:52.000Z</time>
      </trkpt>
      <trkpt lat="42.92303" lon="19.11021">
        <ele>1084.9899902344</ele>
        <time>2023-10-03T11:58:53.000Z</time>
      </trkpt>
      <trkpt lat="42.92303" lon="19.11007">
        <ele>1085.9499511719</ele>
        <time>2023-10-03T11:58:54.000Z</time>
      </trkpt>
      <trkpt lat="42.92304" lon="19.10997">
        <ele>1086.4300537109</ele>
        <time>2023-10-03T11:58:55.000Z</time>
      </trkpt>
      <trkpt lat="42.92306" lon="19.10981">
        <ele>1087.8699951172</ele>
        <time>2023-10-03T11:58:56.000Z</time>
      </trkpt>
      <trkpt lat="42.92307" lon="19.10974">
        <ele>1088.3499755859</ele>
        <time>2023-10-03T11:58:57.000Z</time>
      </trkpt>
      <trkpt lat="42.92307" lon="19.10966">
        <ele>1088.3499755859</ele>
        <time>2023-10-03T11:58:58.000Z</time>
      </trkpt>
      <trkpt lat="42.92308" lon="19.10959">
        <ele>1088.3499755859</ele>
        <time>2023-10-03T11:58:59.000Z</time>
      </trkpt>
      <trkpt lat="42.92307" lon="19.10954">
        <ele>1087.8699951172</ele>
        <time>2023-10-03T11:59:00.000Z</time>
      </trkpt>
      <trkpt lat="42.92305" lon="19.10947">
        <ele>1086.9100341797</ele>
        <time>2023-10-03T11:59:01.000Z</time>
      </trkpt>
      <trkpt lat="42.923" lon="19.10931">
        <ele>1087.8699951172</ele>
        <time>2023-10-03T11:59:03.000Z</time>
      </trkpt>
      <trkpt lat="42.92295" lon="19.10913">
        <ele>1088.8299560547</ele>
        <time>2023-10-03T11:59:04.000Z</time>
      </trkpt>
      <trkpt lat="42.92294" lon="19.1091">
        <ele>1089.3100585938</ele>
        <time>2023-10-03T11:59:05.000Z</time>
      </trkpt>
      <trkpt lat="42.92292" lon="19.10901">
        <ele>1089.7900390625</ele>
        <time>2023-10-03T11:59:06.000Z</time>
      </trkpt>
      <trkpt lat="42.92291" lon="19.10891">
        <ele>1090.75</ele>
        <time>2023-10-03T11:59:07.000Z</time>
      </trkpt>
      <trkpt lat="42.9229" lon="19.10878">
        <ele>1092.1999511719</ele>
        <time>2023-10-03T11:59:08.000Z</time>
      </trkpt>
      <trkpt lat="42.92289" lon="19.10868">
        <ele>1092.6800537109</ele>
        <time>2023-10-03T11:59:09.000Z</time>
      </trkpt>
      <trkpt lat="42.92288" lon="19.10857">
        <ele>1093.6400146484</ele>
        <time>2023-10-03T11:59:10.000Z</time>
      </trkpt>
      <trkpt lat="42.92288" lon="19.1085">
        <ele>1094.5999755859</ele>
        <time>2023-10-03T11:59:11.000Z</time>
      </trkpt>
      <trkpt lat="42.92287" lon="19.10845">
        <ele>1096.0400390625</ele>
        <time>2023-10-03T11:59:12.000Z</time>
      </trkpt>
      <trkpt lat="42.92284" lon="19.1084">
        <ele>1097.4799804688</ele>
        <time>2023-10-03T11:59:13.000Z</time>
      </trkpt>
      <trkpt lat="42.9228" lon="19.10835">
        <ele>1098.9200439453</ele>
        <time>2023-10-03T11:59:14.000Z</time>
      </trkpt>
      <trkpt lat="42.92275" lon="19.10831">
        <ele>1100.3699951172</ele>
        <time>2023-10-03T11:59:15.000Z</time>
      </trkpt>
      <trkpt lat="42.9227" lon="19.10828">
        <ele>1101.3299560547</ele>
        <time>2023-10-03T11:59:16.000Z</time>
      </trkpt>
      <trkpt lat="42.92263" lon="19.10824">
        <ele>1102.7700195312</ele>
        <time>2023-10-03T11:59:17.000Z</time>
      </trkpt>
      <trkpt lat="42.92258" lon="19.1082">
        <ele>1103.7299804688</ele>
        <time>2023-10-03T11:59:18.000Z</time>
      </trkpt>
      <trkpt lat="42.92252" lon="19.10816">
        <ele>1105.1700439453</ele>
        <time>2023-10-03T11:59:19.000Z</time>
      </trkpt>
      <trkpt lat="42.92246" lon="19.10811">
        <ele>1106.1300048828</ele>
        <time>2023-10-03T11:59:20.000Z</time>
      </trkpt>
      <trkpt lat="42.92241" lon="19.10804">
        <ele>1107.5799560547</ele>
        <time>2023-10-03T11:59:21.000Z</time>
      </trkpt>
      <trkpt lat="42.92237" lon="19.10795">
        <ele>1108.5400390625</ele>
        <time>2023-10-03T11:59:22.000Z</time>
      </trkpt>
      <trkpt lat="42.92233" lon="19.10788">
        <ele>1109.0200195312</ele>
        <time>2023-10-03T11:59:23.000Z</time>
      </trkpt>
      <trkpt lat="42.92225" lon="19.10777">
        <ele>1110.9399414062</ele>
        <time>2023-10-03T11:59:24.000Z</time>
      </trkpt>
      <trkpt lat="42.92222" lon="19.10773">
        <ele>1111.4200439453</ele>
        <time>2023-10-03T11:59:25.000Z</time>
      </trkpt>
      <trkpt lat="42.92214" lon="19.10764">
        <ele>1112.3800048828</ele>
        <time>2023-10-03T11:59:26.000Z</time>
      </trkpt>
      <trkpt lat="42.92209" lon="19.10758">
        <ele>1113.3399658203</ele>
        <time>2023-10-03T11:59:27.000Z</time>
      </trkpt>
      <trkpt lat="42.92203" lon="19.10751">
        <ele>1114.3100585938</ele>
        <time>2023-10-03T11:59:28.000Z</time>
      </trkpt>
      <trkpt lat="42.9219" lon="19.10735">
        <ele>1116.7099609375</ele>
        <time>2023-10-03T11:59:30.000Z</time>
      </trkpt>
      <trkpt lat="42.92185" lon="19.1073">
        <ele>1117.6700439453</ele>
        <time>2023-10-03T11:59:31.000Z</time>
      </trkpt>
      <trkpt lat="42.92179" lon="19.10725">
        <ele>1119.1099853516</ele>
        <time>2023-10-03T11:59:32.000Z</time>
      </trkpt>
      <trkpt lat="42.92172" lon="19.1072">
        <ele>1120.5500488281</ele>
        <time>2023-10-03T11:59:33.000Z</time>
      </trkpt>
      <trkpt lat="42.92166" lon="19.10716">
        <ele>1122.4799804688</ele>
        <time>2023-10-03T11:59:34.000Z</time>
      </trkpt>
      <trkpt lat="42.92161" lon="19.10713">
        <ele>1123.9200439453</ele>
        <time>2023-10-03T11:59:35.000Z</time>
      </trkpt>
      <trkpt lat="42.92155" lon="19.10712">
        <ele>1125.3599853516</ele>
        <time>2023-10-03T11:59:36.000Z</time>
      </trkpt>
      <trkpt lat="42.92149" lon="19.10714">
        <ele>1126.8000488281</ele>
        <time>2023-10-03T11:59:37.000Z</time>
      </trkpt>
      <trkpt lat="42.92143" lon="19.10715">
        <ele>1128.2399902344</ele>
        <time>2023-10-03T11:59:38.000Z</time>
      </trkpt>
      <trkpt lat="42.92137" lon="19.10715">
        <ele>1129.2099609375</ele>
        <time>2023-10-03T11:59:39.000Z</time>
      </trkpt>
      <trkpt lat="42.92131" lon="19.10713">
        <ele>1130.6500244141</ele>
        <time>2023-10-03T11:59:40.000Z</time>
      </trkpt>
      <trkpt lat="42.92125" lon="19.10709">
        <ele>1131.1300048828</ele>
        <time>2023-10-03T11:59:41.000Z</time>
      </trkpt>
      <trkpt lat="42.92118" lon="19.10704">
        <ele>1131.6099853516</ele>
        <time>2023-10-03T11:59:42.000Z</time>
      </trkpt>
      <trkpt lat="42.92094" lon="19.10686">
        <ele>1131.6099853516</ele>
        <time>2023-10-03T11:59:44.000Z</time>
      </trkpt>
      <trkpt lat="42.92063" lon="19.10665">
        <ele>1132.5699462891</ele>
        <time>2023-10-03T11:59:48.000Z</time>
      </trkpt>
      <trkpt lat="42.92057" lon="19.10661">
        <ele>1132.5699462891</ele>
        <time>2023-10-03T11:59:49.000Z</time>
      </trkpt>
      <trkpt lat="42.92051" lon="19.10656">
        <ele>1134.0100097656</ele>
        <time>2023-10-03T11:59:50.000Z</time>
      </trkpt>
      <trkpt lat="42.92044" lon="19.10647">
        <ele>1134.4899902344</ele>
        <time>2023-10-03T11:59:52.000Z</time>
      </trkpt>
      <trkpt lat="42.92043" lon="19.10645">
        <ele>1134.4899902344</ele>
        <time>2023-10-03T11:59:53.000Z</time>
      </trkpt>
      <trkpt lat="42.92037" lon="19.10638">
        <ele>1134.0100097656</ele>
        <time>2023-10-03T11:59:54.000Z</time>
      </trkpt>
      <trkpt lat="42.92032" lon="19.10631">
        <ele>1134.0100097656</ele>
        <time>2023-10-03T11:59:55.000Z</time>
      </trkpt>
      <trkpt lat="42.92019" lon="19.10618">
        <ele>1134.0100097656</ele>
        <time>2023-10-03T11:59:56.000Z</time>
      </trkpt>
      <trkpt lat="42.92018" lon="19.10617">
        <ele>1134.0100097656</ele>
        <time>2023-10-03T11:59:57.000Z</time>
      </trkpt>
      <trkpt lat="42.92006" lon="19.10603">
        <ele>1133.5300292969</ele>
        <time>2023-10-03T11:59:58.000Z</time>
      </trkpt>
      <trkpt lat="42.92003" lon="19.10598">
        <ele>1133.5300292969</ele>
        <time>2023-10-03T11:59:59.000Z</time>
      </trkpt>
      <trkpt lat="42.91991" lon="19.10577">
        <ele>1133.5300292969</ele>
        <time>2023-10-03T12:00:00.000Z</time>
      </trkpt>
      <trkpt lat="42.91989" lon="19.10573">
        <ele>1134.0100097656</ele>
        <time>2023-10-03T12:00:01.000Z</time>
      </trkpt>
      <trkpt lat="42.91981" lon="19.10558">
        <ele>1134.4899902344</ele>
        <time>2023-10-03T12:00:02.000Z</time>
      </trkpt>
      <trkpt lat="42.9198" lon="19.10552">
        <ele>1134.9699707031</ele>
        <time>2023-10-03T12:00:03.000Z</time>
      </trkpt>
      <trkpt lat="42.91977" lon="19.10543">
        <ele>1134.9699707031</ele>
        <time>2023-10-03T12:00:04.000Z</time>
      </trkpt>
      <trkpt lat="42.91973" lon="19.10529">
        <ele>1136.4200439453</ele>
        <time>2023-10-03T12:00:05.000Z</time>
      </trkpt>
      <trkpt lat="42.91969" lon="19.10517">
        <ele>1138.8199462891</ele>
        <time>2023-10-03T12:00:06.000Z</time>
      </trkpt>
      <trkpt lat="42.91965" lon="19.10507">
        <ele>1139.7800292969</ele>
        <time>2023-10-03T12:00:07.000Z</time>
      </trkpt>
      <trkpt lat="42.91953" lon="19.10487">
        <ele>1141.6999511719</ele>
        <time>2023-10-03T12:00:08.000Z</time>
      </trkpt>
      <trkpt lat="42.91948" lon="19.10479">
        <ele>1142.6600341797</ele>
        <time>2023-10-03T12:00:09.000Z</time>
      </trkpt>
      <trkpt lat="42.91945" lon="19.10472">
        <ele>1143.1400146484</ele>
        <time>2023-10-03T12:00:10.000Z</time>
      </trkpt>
      <trkpt lat="42.91938" lon="19.10458">
        <ele>1144.5899658203</ele>
        <time>2023-10-03T12:00:11.000Z</time>
      </trkpt>
      <trkpt lat="42.91935" lon="19.10454">
        <ele>1145.0699462891</ele>
        <time>2023-10-03T12:00:12.000Z</time>
      </trkpt>
      <trkpt lat="42.9193" lon="19.10447">
        <ele>1145.5500488281</ele>
        <time>2023-10-03T12:00:13.000Z</time>
      </trkpt>
      <trkpt lat="42.91924" lon="19.10443">
        <ele>1146.0300292969</ele>
        <time>2023-10-03T12:00:14.000Z</time>
      </trkpt>
      <trkpt lat="42.91917" lon="19.1044">
        <ele>1146.0300292969</ele>
        <time>2023-10-03T12:00:15.000Z</time>
      </trkpt>
      <trkpt lat="42.9191" lon="19.10439">
        <ele>1146.5100097656</ele>
        <time>2023-10-03T12:00:16.000Z</time>
      </trkpt>
      <trkpt lat="42.91903" lon="19.1044">
        <ele>1147.4699707031</ele>
        <time>2023-10-03T12:00:17.000Z</time>
      </trkpt>
      <trkpt lat="42.91896" lon="19.10443">
        <ele>1148.9100341797</ele>
        <time>2023-10-03T12:00:18.000Z</time>
      </trkpt>
      <trkpt lat="42.9189" lon="19.10445">
        <ele>1149.8699951172</ele>
        <time>2023-10-03T12:00:19.000Z</time>
      </trkpt>
      <trkpt lat="42.91884" lon="19.10445">
        <ele>1151.3199462891</ele>
        <time>2023-10-03T12:00:20.000Z</time>
      </trkpt>
      <trkpt lat="42.9188" lon="19.10443">
        <ele>1151.8000488281</ele>
        <time>2023-10-03T12:00:21.000Z</time>
      </trkpt>
      <trkpt lat="42.91874" lon="19.10438">
        <ele>1152.7600097656</ele>
        <time>2023-10-03T12:00:22.000Z</time>
      </trkpt>
      <trkpt lat="42.91869" lon="19.10433">
        <ele>1154.1999511719</ele>
        <time>2023-10-03T12:00:23.000Z</time>
      </trkpt>
      <trkpt lat="42.91865" lon="19.10425">
        <ele>1155.1600341797</ele>
        <time>2023-10-03T12:00:24.000Z</time>
      </trkpt>
      <trkpt lat="42.91862" lon="19.10419">
        <ele>1156.5999755859</ele>
        <time>2023-10-03T12:00:25.000Z</time>
      </trkpt>
      <trkpt lat="42.91859" lon="19.10412">
        <ele>1157.5600585938</ele>
        <time>2023-10-03T12:00:26.000Z</time>
      </trkpt>
      <trkpt lat="42.91859" lon="19.10405">
        <ele>1159.0100097656</ele>
        <time>2023-10-03T12:00:27.000Z</time>
      </trkpt>
      <trkpt lat="42.91859" lon="19.10397">
        <ele>1159.9699707031</ele>
        <time>2023-10-03T12:00:28.000Z</time>
      </trkpt>
      <trkpt lat="42.9186" lon="19.10384">
        <ele>1160.9300537109</ele>
        <time>2023-10-03T12:00:29.000Z</time>
      </trkpt>
      <trkpt lat="42.9186" lon="19.10378">
        <ele>1161.4100341797</ele>
        <time>2023-10-03T12:00:30.000Z</time>
      </trkpt>
      <trkpt lat="42.9186" lon="19.10366">
        <ele>1162.3699951172</ele>
        <time>2023-10-03T12:00:31.000Z</time>
      </trkpt>
      <trkpt lat="42.91859" lon="19.10351">
        <ele>1162.8499755859</ele>
        <time>2023-10-03T12:00:32.000Z</time>
      </trkpt>
      <trkpt lat="42.91858" lon="19.10344">
        <ele>1163.3299560547</ele>
        <time>2023-10-03T12:00:33.000Z</time>
      </trkpt>
      <trkpt lat="42.91855" lon="19.10337">
        <ele>1163.3299560547</ele>
        <time>2023-10-03T12:00:34.000Z</time>
      </trkpt>
      <trkpt lat="42.91851" lon="19.10332">
        <ele>1163.3299560547</ele>
        <time>2023-10-03T12:00:35.000Z</time>
      </trkpt>
      <trkpt lat="42.91847" lon="19.10329">
        <ele>1163.3299560547</ele>
        <time>2023-10-03T12:00:36.000Z</time>
      </trkpt>
      <trkpt lat="42.91839" lon="19.10325">
        <ele>1163.3299560547</ele>
        <time>2023-10-03T12:00:37.000Z</time>
      </trkpt>
      <trkpt lat="42.91836" lon="19.10324">
        <ele>1163.3299560547</ele>
        <time>2023-10-03T12:00:38.000Z</time>
      </trkpt>
      <trkpt lat="42.9183" lon="19.10325">
        <ele>1163.3299560547</ele>
        <time>2023-10-03T12:00:39.000Z</time>
      </trkpt>
      <trkpt lat="42.91825" lon="19.10327">
        <ele>1163.8100585938</ele>
        <time>2023-10-03T12:00:40.000Z</time>
      </trkpt>
      <trkpt lat="42.91815" lon="19.10334">
        <ele>1164.7700195312</ele>
        <time>2023-10-03T12:00:41.000Z</time>
      </trkpt>
      <trkpt lat="42.91812" lon="19.10335">
        <ele>1165.2600097656</ele>
        <time>2023-10-03T12:00:42.000Z</time>
      </trkpt>
      <trkpt lat="42.91806" lon="19.10337">
        <ele>1165.2600097656</ele>
        <time>2023-10-03T12:00:43.000Z</time>
      </trkpt>
      <trkpt lat="42.91795" lon="19.1034">
        <ele>1166.2199707031</ele>
        <time>2023-10-03T12:00:44.000Z</time>
      </trkpt>
      <trkpt lat="42.91791" lon="19.10341">
        <ele>1166.2199707031</ele>
        <time>2023-10-03T12:00:45.000Z</time>
      </trkpt>
      <trkpt lat="42.91769" lon="19.10344">
        <ele>1167.1800537109</ele>
        <time>2023-10-03T12:00:47.000Z</time>
      </trkpt>
      <trkpt lat="42.91748" lon="19.10347">
        <ele>1168.1400146484</ele>
        <time>2023-10-03T12:00:50.000Z</time>
      </trkpt>
      <trkpt lat="42.91738" lon="19.10349">
        <ele>1169.0999755859</ele>
        <time>2023-10-03T12:00:51.000Z</time>
      </trkpt>
      <trkpt lat="42.91734" lon="19.1035">
        <ele>1170.0600585938</ele>
        <time>2023-10-03T12:00:52.000Z</time>
      </trkpt>
      <trkpt lat="42.91728" lon="19.1035">
        <ele>1170.5400390625</ele>
        <time>2023-10-03T12:00:53.000Z</time>
      </trkpt>
      <trkpt lat="42.91724" lon="19.10349">
        <ele>1171.5</ele>
        <time>2023-10-03T12:00:54.000Z</time>
      </trkpt>
      <trkpt lat="42.9172" lon="19.10346">
        <ele>1172.4699707031</ele>
        <time>2023-10-03T12:00:55.000Z</time>
      </trkpt>
      <trkpt lat="42.91715" lon="19.10342">
        <ele>1173.4300537109</ele>
        <time>2023-10-03T12:00:56.000Z</time>
      </trkpt>
      <trkpt lat="42.91711" lon="19.10335">
        <ele>1174.8699951172</ele>
        <time>2023-10-03T12:00:57.000Z</time>
      </trkpt>
      <trkpt lat="42.91709" lon="19.10331">
        <ele>1175.3499755859</ele>
        <time>2023-10-03T12:00:58.000Z</time>
      </trkpt>
      <trkpt lat="42.91707" lon="19.10325">
        <ele>1176.3100585938</ele>
        <time>2023-10-03T12:00:59.000Z</time>
      </trkpt>
      <trkpt lat="42.91705" lon="19.10318">
        <ele>1177.75</ele>
        <time>2023-10-03T12:01:00.000Z</time>
      </trkpt>
      <trkpt lat="42.91704" lon="19.10312">
        <ele>1179.1899414062</ele>
        <time>2023-10-03T12:01:01.000Z</time>
      </trkpt>
      <trkpt lat="42.91704" lon="19.10302">
        <ele>1180.6400146484</ele>
        <time>2023-10-03T12:01:02.000Z</time>
      </trkpt>
      <trkpt lat="42.91703" lon="19.10295">
        <ele>1181.5999755859</ele>
        <time>2023-10-03T12:01:03.000Z</time>
      </trkpt>
      <trkpt lat="42.917" lon="19.1029">
        <ele>1183.0400390625</ele>
        <time>2023-10-03T12:01:04.000Z</time>
      </trkpt>
      <trkpt lat="42.91697" lon="19.10286">
        <ele>1183.5200195312</ele>
        <time>2023-10-03T12:01:05.000Z</time>
      </trkpt>
      <trkpt lat="42.91693" lon="19.10281">
        <ele>1184.9599609375</ele>
        <time>2023-10-03T12:01:06.000Z</time>
      </trkpt>
      <trkpt lat="42.91685" lon="19.10275">
        <ele>1185.9200439453</ele>
        <time>2023-10-03T12:01:07.000Z</time>
      </trkpt>
      <trkpt lat="42.91682" lon="19.10271">
        <ele>1186.4000244141</ele>
        <time>2023-10-03T12:01:08.000Z</time>
      </trkpt>
      <trkpt lat="42.91677" lon="19.10264">
        <ele>1187.3699951172</ele>
        <time>2023-10-03T12:01:09.000Z</time>
      </trkpt>
      <trkpt lat="42.91672" lon="19.10255">
        <ele>1188.3299560547</ele>
        <time>2023-10-03T12:01:10.000Z</time>
      </trkpt>
      <trkpt lat="42.91663" lon="19.10232">
        <ele>1190.25</ele>
        <time>2023-10-03T12:01:12.000Z</time>
      </trkpt>
      <trkpt lat="42.91655" lon="19.10212">
        <ele>1191.6899414062</ele>
        <time>2023-10-03T12:01:13.000Z</time>
      </trkpt>
      <trkpt lat="42.91654" lon="19.10207">
        <ele>1192.1700439453</ele>
        <time>2023-10-03T12:01:14.000Z</time>
      </trkpt>
      <trkpt lat="42.91652" lon="19.10195">
        <ele>1193.1300048828</ele>
        <time>2023-10-03T12:01:15.000Z</time>
      </trkpt>
      <trkpt lat="42.9165" lon="19.10185">
        <ele>1194.5799560547</ele>
        <time>2023-10-03T12:01:16.000Z</time>
      </trkpt>
      <trkpt lat="42.91649" lon="19.10165">
        <ele>1196.5</ele>
        <time>2023-10-03T12:01:17.000Z</time>
      </trkpt>
      <trkpt lat="42.91649" lon="19.10159">
        <ele>1196.9799804688</ele>
        <time>2023-10-03T12:01:18.000Z</time>
      </trkpt>
      <trkpt lat="42.91647" lon="19.1015">
        <ele>1197.4599609375</ele>
        <time>2023-10-03T12:01:19.000Z</time>
      </trkpt>
      <trkpt lat="42.91643" lon="19.10139">
        <ele>1197.9399414062</ele>
        <time>2023-10-03T12:01:20.000Z</time>
      </trkpt>
      <trkpt lat="42.91639" lon="19.10129">
        <ele>1198.4200439453</ele>
        <time>2023-10-03T12:01:21.000Z</time>
      </trkpt>
      <trkpt lat="42.91634" lon="19.10118">
        <ele>1198.9000244141</ele>
        <time>2023-10-03T12:01:22.000Z</time>
      </trkpt>
      <trkpt lat="42.91632" lon="19.10112">
        <ele>1199.3800048828</ele>
        <time>2023-10-03T12:01:23.000Z</time>
      </trkpt>
      <trkpt lat="42.91631" lon="19.10103">
        <ele>1197.9399414062</ele>
        <time>2023-10-03T12:44:35.000Z</time>
      </trkpt>
      <trkpt lat="42.91631" lon="19.10096">
        <ele>1197.9399414062</ele>
        <time>2023-10-03T12:44:36.000Z</time>
      </trkpt>
      <trkpt lat="42.91631" lon="19.10095">
        <ele>1197.9399414062</ele>
        <time>2023-10-03T12:44:37.000Z</time>
      </trkpt>
      <trkpt lat="42.91629" lon="19.10085">
        <ele>1198.4200439453</ele>
        <time>2023-10-03T12:44:38.000Z</time>
      </trkpt>
      <trkpt lat="42.91629" lon="19.10079">
        <ele>1198.9000244141</ele>
        <time>2023-10-03T12:44:39.000Z</time>
      </trkpt>
      <trkpt lat="42.91629" lon="19.10066">
        <ele>1200.3399658203</ele>
        <time>2023-10-03T12:44:40.000Z</time>
      </trkpt>
      <trkpt lat="42.91629" lon="19.10058">
        <ele>1200.8199462891</ele>
        <time>2023-10-03T12:44:41.000Z</time>
      </trkpt>
      <trkpt lat="42.91631" lon="19.10045">
        <ele>1201.7900390625</ele>
        <time>2023-10-03T12:44:42.000Z</time>
      </trkpt>
      <trkpt lat="42.91634" lon="19.10033">
        <ele>1203.2299804688</ele>
        <time>2023-10-03T12:44:43.000Z</time>
      </trkpt>
      <trkpt lat="42.91638" lon="19.1002">
        <ele>1204.1899414062</ele>
        <time>2023-10-03T12:44:44.000Z</time>
      </trkpt>
      <trkpt lat="42.91642" lon="19.1001">
        <ele>1205.6300048828</ele>
        <time>2023-10-03T12:44:45.000Z</time>
      </trkpt>
      <trkpt lat="42.91649" lon="19.09996">
        <ele>1207.0699462891</ele>
        <time>2023-10-03T12:44:46.000Z</time>
      </trkpt>
      <trkpt lat="42.91654" lon="19.09982">
        <ele>1209</ele>
        <time>2023-10-03T12:44:48.000Z</time>
      </trkpt>
      <trkpt lat="42.9166" lon="19.0997">
        <ele>1210.9200439453</ele>
        <time>2023-10-03T12:44:49.000Z</time>
      </trkpt>
      <trkpt lat="42.91663" lon="19.09965">
        <ele>1211.4000244141</ele>
        <time>2023-10-03T12:44:50.000Z</time>
      </trkpt>
      <trkpt lat="42.91668" lon="19.09955">
        <ele>1212.8399658203</ele>
        <time>2023-10-03T12:44:51.000Z</time>
      </trkpt>
      <trkpt lat="42.91671" lon="19.09949">
        <ele>1213.3199462891</ele>
        <time>2023-10-03T12:44:52.000Z</time>
      </trkpt>
      <trkpt lat="42.91671" lon="19.09941">
        <ele>1214.2800292969</ele>
        <time>2023-10-03T12:44:53.000Z</time>
      </trkpt>
      <trkpt lat="42.91669" lon="19.09934">
        <ele>1215.2399902344</ele>
        <time>2023-10-03T12:44:54.000Z</time>
      </trkpt>
      <trkpt lat="42.91664" lon="19.09928">
        <ele>1215.7199707031</ele>
        <time>2023-10-03T12:44:55.000Z</time>
      </trkpt>
      <trkpt lat="42.91657" lon="19.0992">
        <ele>1216.6899414062</ele>
        <time>2023-10-03T12:44:56.000Z</time>
      </trkpt>
      <trkpt lat="42.91649" lon="19.0991">
        <ele>1217.6500244141</ele>
        <time>2023-10-03T12:44:57.000Z</time>
      </trkpt>
      <trkpt lat="42.91642" lon="19.09896">
        <ele>1218.6099853516</ele>
        <time>2023-10-03T12:44:58.000Z</time>
      </trkpt>
      <trkpt lat="42.91636" lon="19.09879">
        <ele>1219.5699462891</ele>
        <time>2023-10-03T12:44:59.000Z</time>
      </trkpt>
      <trkpt lat="42.91633" lon="19.09862">
        <ele>1220.5300292969</ele>
        <time>2023-10-03T12:45:00.000Z</time>
      </trkpt>
      <trkpt lat="42.91631" lon="19.09849">
        <ele>1221.0100097656</ele>
        <time>2023-10-03T12:45:01.000Z</time>
      </trkpt>
      <trkpt lat="42.91628" lon="19.09842">
        <ele>1221.0100097656</ele>
        <time>2023-10-03T12:45:02.000Z</time>
      </trkpt>
      <trkpt lat="42.91624" lon="19.09838">
        <ele>1221.4899902344</ele>
        <time>2023-10-03T12:45:03.000Z</time>
      </trkpt>
      <trkpt lat="42.91614" lon="19.09836">
        <ele>1222.4499511719</ele>
        <time>2023-10-03T12:45:04.000Z</time>
      </trkpt>
      <trkpt lat="42.91606" lon="19.09835">
        <ele>1222.9300537109</ele>
        <time>2023-10-03T12:45:05.000Z</time>
      </trkpt>
      <trkpt lat="42.91596" lon="19.09831">
        <ele>1223.4200439453</ele>
        <time>2023-10-03T12:45:06.000Z</time>
      </trkpt>
      <trkpt lat="42.91589" lon="19.0982">
        <ele>1225.3399658203</ele>
        <time>2023-10-03T12:45:07.000Z</time>
      </trkpt>
      <trkpt lat="42.91578" lon="19.09799">
        <ele>1228.2199707031</ele>
        <time>2023-10-03T12:45:08.000Z</time>
      </trkpt>
      <trkpt lat="42.91576" lon="19.09794">
        <ele>1228.6999511719</ele>
        <time>2023-10-03T12:45:09.000Z</time>
      </trkpt>
      <trkpt lat="42.91567" lon="19.09782">
        <ele>1230.6199951172</ele>
        <time>2023-10-03T12:45:10.000Z</time>
      </trkpt>
      <trkpt lat="42.91556" lon="19.09771">
        <ele>1232.5500488281</ele>
        <time>2023-10-03T12:45:11.000Z</time>
      </trkpt>
      <trkpt lat="42.91545" lon="19.09762">
        <ele>1233.9899902344</ele>
        <time>2023-10-03T12:45:12.000Z</time>
      </trkpt>
      <trkpt lat="42.91527" lon="19.09751">
        <ele>1235.9100341797</ele>
        <time>2023-10-03T12:45:13.000Z</time>
      </trkpt>
      <trkpt lat="42.91515" lon="19.09745">
        <ele>1237.3499755859</ele>
        <time>2023-10-03T12:45:14.000Z</time>
      </trkpt>
      <trkpt lat="42.91502" lon="19.0974">
        <ele>1239.7600097656</ele>
        <time>2023-10-03T12:45:15.000Z</time>
      </trkpt>
      <trkpt lat="42.91489" lon="19.09738">
        <ele>1242.1600341797</ele>
        <time>2023-10-03T12:45:16.000Z</time>
      </trkpt>
      <trkpt lat="42.91474" lon="19.09738">
        <ele>1244.0799560547</ele>
        <time>2023-10-03T12:45:17.000Z</time>
      </trkpt>
      <trkpt lat="42.91462" lon="19.09737">
        <ele>1246.4899902344</ele>
        <time>2023-10-03T12:45:18.000Z</time>
      </trkpt>
      <trkpt lat="42.91406" lon="19.09723">
        <ele>1252.7399902344</ele>
        <time>2023-10-03T12:45:22.000Z</time>
      </trkpt>
      <trkpt lat="42.91405" lon="19.09722">
        <ele>1252.7399902344</ele>
        <time>2023-10-03T12:45:23.000Z</time>
      </trkpt>
      <trkpt lat="42.914" lon="19.09721">
        <ele>1253.6999511719</ele>
        <time>2023-10-03T12:45:24.000Z</time>
      </trkpt>
      <trkpt lat="42.91396" lon="19.0972">
        <ele>1253.6999511719</ele>
        <time>2023-10-03T12:45:25.000Z</time>
      </trkpt>
      <trkpt lat="42.91388" lon="19.09721">
        <ele>1254.1800537109</ele>
        <time>2023-10-03T12:45:26.000Z</time>
      </trkpt>
      <trkpt lat="42.91386" lon="19.09721">
        <ele>1254.1800537109</ele>
        <time>2023-10-03T12:45:27.000Z</time>
      </trkpt>
      <trkpt lat="42.9138" lon="19.0972">
        <ele>1254.1800537109</ele>
        <time>2023-10-03T12:45:28.000Z</time>
      </trkpt>
      <trkpt lat="42.91375" lon="19.09718">
        <ele>1253.6999511719</ele>
        <time>2023-10-03T12:45:29.000Z</time>
      </trkpt>
      <trkpt lat="42.9137" lon="19.0971">
        <ele>1253.6999511719</ele>
        <time>2023-10-03T12:45:31.000Z</time>
      </trkpt>
      <trkpt lat="42.91369" lon="19.09703">
        <ele>1253.2199707031</ele>
        <time>2023-10-03T12:45:32.000Z</time>
      </trkpt>
      <trkpt lat="42.91368" lon="19.09684">
        <ele>1252.7399902344</ele>
        <time>2023-10-03T12:45:33.000Z</time>
      </trkpt>
      <trkpt lat="42.91367" lon="19.09676">
        <ele>1252.25</ele>
        <time>2023-10-03T12:45:34.000Z</time>
      </trkpt>
      <trkpt lat="42.91363" lon="19.0966">
        <ele>1251.2900390625</ele>
        <time>2023-10-03T12:45:35.000Z</time>
      </trkpt>
      <trkpt lat="42.91359" lon="19.09644">
        <ele>1250.3299560547</ele>
        <time>2023-10-03T12:45:36.000Z</time>
      </trkpt>
      <trkpt lat="42.91352" lon="19.09628">
        <ele>1248.8900146484</ele>
        <time>2023-10-03T12:45:37.000Z</time>
      </trkpt>
      <trkpt lat="42.91343" lon="19.09613">
        <ele>1247.4499511719</ele>
        <time>2023-10-03T12:45:38.000Z</time>
      </trkpt>
      <trkpt lat="42.91323" lon="19.09584">
        <ele>1244.5600585938</ele>
        <time>2023-10-03T12:45:39.000Z</time>
      </trkpt>
      <trkpt lat="42.91308" lon="19.09561">
        <ele>1243.5999755859</ele>
        <time>2023-10-03T12:45:41.000Z</time>
      </trkpt>
      <trkpt lat="42.91268" lon="19.09503">
        <ele>1242.1600341797</ele>
        <time>2023-10-03T12:45:44.000Z</time>
      </trkpt>
      <trkpt lat="42.91262" lon="19.09496">
        <ele>1242.1600341797</ele>
        <time>2023-10-03T12:45:45.000Z</time>
      </trkpt>
      <trkpt lat="42.91251" lon="19.09487">
        <ele>1242.6400146484</ele>
        <time>2023-10-03T12:45:46.000Z</time>
      </trkpt>
      <trkpt lat="42.91239" lon="19.09479">
        <ele>1242.6400146484</ele>
        <time>2023-10-03T12:45:47.000Z</time>
      </trkpt>
      <trkpt lat="42.91226" lon="19.09474">
        <ele>1242.1600341797</ele>
        <time>2023-10-03T12:45:48.000Z</time>
      </trkpt>
      <trkpt lat="42.91214" lon="19.09471">
        <ele>1241.6800537109</ele>
        <time>2023-10-03T12:45:49.000Z</time>
      </trkpt>
      <trkpt lat="42.912" lon="19.09469">
        <ele>1241.1999511719</ele>
        <time>2023-10-03T12:45:50.000Z</time>
      </trkpt>
      <trkpt lat="42.91186" lon="19.09467">
        <ele>1241.1999511719</ele>
        <time>2023-10-03T12:45:51.000Z</time>
      </trkpt>
      <trkpt lat="42.91174" lon="19.09463">
        <ele>1240.7199707031</ele>
        <time>2023-10-03T12:45:52.000Z</time>
      </trkpt>
      <trkpt lat="42.91162" lon="19.09456">
        <ele>1240.2399902344</ele>
        <time>2023-10-03T12:45:53.000Z</time>
      </trkpt>
      <trkpt lat="42.91154" lon="19.09449">
        <ele>1240.7199707031</ele>
        <time>2023-10-03T12:45:54.000Z</time>
      </trkpt>
      <trkpt lat="42.91145" lon="19.0944">
        <ele>1240.7199707031</ele>
        <time>2023-10-03T12:45:55.000Z</time>
      </trkpt>
      <trkpt lat="42.91134" lon="19.09426">
        <ele>1241.1999511719</ele>
        <time>2023-10-03T12:45:56.000Z</time>
      </trkpt>
      <trkpt lat="42.91119" lon="19.09403">
        <ele>1242.1600341797</ele>
        <time>2023-10-03T12:45:58.000Z</time>
      </trkpt>
      <trkpt lat="42.91068" lon="19.09341">
        <ele>1243.5999755859</ele>
        <time>2023-10-03T12:46:02.000Z</time>
      </trkpt>
      <trkpt lat="42.91062" lon="19.09335">
        <ele>1244.0799560547</ele>
        <time>2023-10-03T12:46:03.000Z</time>
      </trkpt>
      <trkpt lat="42.91053" lon="19.09328">
        <ele>1244.0799560547</ele>
        <time>2023-10-03T12:46:04.000Z</time>
      </trkpt>
      <trkpt lat="42.91035" lon="19.09316">
        <ele>1244.5600585938</ele>
        <time>2023-10-03T12:46:05.000Z</time>
      </trkpt>
      <trkpt lat="42.91031" lon="19.09314">
        <ele>1244.5600585938</ele>
        <time>2023-10-03T12:46:06.000Z</time>
      </trkpt>
      <trkpt lat="42.91019" lon="19.09305">
        <ele>1244.5600585938</ele>
        <time>2023-10-03T12:46:07.000Z</time>
      </trkpt>
      <trkpt lat="42.91011" lon="19.09297">
        <ele>1244.5600585938</ele>
        <time>2023-10-03T12:46:08.000Z</time>
      </trkpt>
      <trkpt lat="42.90999" lon="19.09283">
        <ele>1245.5300292969</ele>
        <time>2023-10-03T12:46:09.000Z</time>
      </trkpt>
      <trkpt lat="42.90991" lon="19.09273">
        <ele>1246.0100097656</ele>
        <time>2023-10-03T12:46:10.000Z</time>
      </trkpt>
      <trkpt lat="42.90984" lon="19.09262">
        <ele>1246.4899902344</ele>
        <time>2023-10-03T12:46:11.000Z</time>
      </trkpt>
      <trkpt lat="42.9098" lon="19.0925">
        <ele>1246.9699707031</ele>
        <time>2023-10-03T12:46:12.000Z</time>
      </trkpt>
      <trkpt lat="42.90977" lon="19.09237">
        <ele>1246.9699707031</ele>
        <time>2023-10-03T12:46:13.000Z</time>
      </trkpt>
      <trkpt lat="42.90973" lon="19.09208">
        <ele>1246.4899902344</ele>
        <time>2023-10-03T12:46:14.000Z</time>
      </trkpt>
      <trkpt lat="42.90973" lon="19.09203">
        <ele>1246.0100097656</ele>
        <time>2023-10-03T12:46:15.000Z</time>
      </trkpt>
      <trkpt lat="42.9097" lon="19.09191">
        <ele>1246.0100097656</ele>
        <time>2023-10-03T12:46:16.000Z</time>
      </trkpt>
      <trkpt lat="42.90958" lon="19.0915">
        <ele>1246.4899902344</ele>
        <time>2023-10-03T12:46:18.000Z</time>
      </trkpt>
      <trkpt lat="42.90956" lon="19.09146">
        <ele>1246.4899902344</ele>
        <time>2023-10-03T12:46:19.000Z</time>
      </trkpt>
      <trkpt lat="42.9095" lon="19.09132">
        <ele>1247.4499511719</ele>
        <time>2023-10-03T12:46:20.000Z</time>
      </trkpt>
      <trkpt lat="42.90945" lon="19.09125">
        <ele>1247.9300537109</ele>
        <time>2023-10-03T12:46:21.000Z</time>
      </trkpt>
      <trkpt lat="42.90938" lon="19.09119">
        <ele>1248.4100341797</ele>
        <time>2023-10-03T12:46:22.000Z</time>
      </trkpt>
      <trkpt lat="42.90915" lon="19.09105">
        <ele>1247.4499511719</ele>
        <time>2023-10-03T12:46:24.000Z</time>
      </trkpt>
      <trkpt lat="42.90907" lon="19.09099">
        <ele>1246.9699707031</ele>
        <time>2023-10-03T12:46:25.000Z</time>
      </trkpt>
      <trkpt lat="42.90898" lon="19.09092">
        <ele>1246.4899902344</ele>
        <time>2023-10-03T12:46:26.000Z</time>
      </trkpt>
      <trkpt lat="42.9089" lon="19.0908">
        <ele>1246.0100097656</ele>
        <time>2023-10-03T12:46:27.000Z</time>
      </trkpt>
      <trkpt lat="42.90882" lon="19.09065">
        <ele>1246.0100097656</ele>
        <time>2023-10-03T12:46:28.000Z</time>
      </trkpt>
      <trkpt lat="42.90876" lon="19.0905">
        <ele>1246.0100097656</ele>
        <time>2023-10-03T12:46:29.000Z</time>
      </trkpt>
      <trkpt lat="42.90859" lon="19.09018">
        <ele>1245.5300292969</ele>
        <time>2023-10-03T12:46:31.000Z</time>
      </trkpt>
      <trkpt lat="42.90825" lon="19.08965">
        <ele>1245.5300292969</ele>
        <time>2023-10-03T12:46:35.000Z</time>
      </trkpt>
      <trkpt lat="42.90822" lon="19.08962">
        <ele>1245.0400390625</ele>
        <time>2023-10-03T12:46:36.000Z</time>
      </trkpt>
      <trkpt lat="42.90817" lon="19.08952">
        <ele>1238.3359375</ele>
      </trkpt>
      <trkpt lat="42.90793" lon="19.08952">
        <ele>1240.8515625</ele>
      </trkpt>
      <trkpt lat="42.90754" lon="19.0895">
        <ele>1246.54296875</ele>
      </trkpt>
      <trkpt lat="42.90742" lon="19.0895">
        <ele>1249.3699951172</ele>
        <time>2024-09-22T11:37:39.000Z</time>
      </trkpt>
      <trkpt lat="42.90739" lon="19.0895">
        <ele>1249.8499755859</ele>
        <time>2024-09-22T11:37:40.000Z</time>
      </trkpt>
      <trkpt lat="42.90726" lon="19.08946">
        <ele>1250.3299560547</ele>
        <time>2024-09-22T11:37:41.000Z</time>
      </trkpt>
      <trkpt lat="42.90715" lon="19.0894">
        <ele>1250.8100585938</ele>
        <time>2024-09-22T11:37:42.000Z</time>
      </trkpt>
      <trkpt lat="42.90706" lon="19.08931">
        <ele>1251.2900390625</ele>
        <time>2024-09-22T11:37:43.000Z</time>
      </trkpt>
      <trkpt lat="42.90699" lon="19.08919">
        <ele>1251.7700195312</ele>
        <time>2024-09-22T11:37:44.000Z</time>
      </trkpt>
      <trkpt lat="42.90697" lon="19.08906">
        <ele>1252.7399902344</ele>
        <time>2024-09-22T11:37:45.000Z</time>
      </trkpt>
      <trkpt lat="42.90697" lon="19.08894">
        <ele>1253.2199707031</ele>
        <time>2024-09-22T11:37:46.000Z</time>
      </trkpt>
      <trkpt lat="42.90702" lon="19.0888">
        <ele>1253.6999511719</ele>
        <time>2024-09-22T11:37:47.000Z</time>
      </trkpt>
      <trkpt lat="42.90708" lon="19.08865">
        <ele>1254.6600341797</ele>
        <time>2024-09-22T11:37:48.000Z</time>
      </trkpt>
      <trkpt lat="42.90711" lon="19.08858">
        <ele>1255.1400146484</ele>
        <time>2024-09-22T11:37:49.000Z</time>
      </trkpt>
      <trkpt lat="42.90712" lon="19.08852">
        <ele>1255.1400146484</ele>
        <time>2024-09-22T11:37:50.000Z</time>
      </trkpt>
      <trkpt lat="42.90713" lon="19.08846">
        <ele>1255.6199951172</ele>
        <time>2024-09-22T11:37:51.000Z</time>
      </trkpt>
      <trkpt lat="42.90713" lon="19.0884">
        <ele>1255.6199951172</ele>
        <time>2024-09-22T11:37:52.000Z</time>
      </trkpt>
      <trkpt lat="42.90711" lon="19.08834">
        <ele>1255.6199951172</ele>
        <time>2024-09-22T11:37:53.000Z</time>
      </trkpt>
      <trkpt lat="42.90708" lon="19.08825">
        <ele>1256.0999755859</ele>
        <time>2024-09-22T11:37:54.000Z</time>
      </trkpt>
      <trkpt lat="42.90705" lon="19.08818">
        <ele>1256.5799560547</ele>
        <time>2024-09-22T11:37:55.000Z</time>
      </trkpt>
      <trkpt lat="42.90699" lon="19.08812">
        <ele>1257.0600585938</ele>
        <time>2024-09-22T11:37:56.000Z</time>
      </trkpt>
      <trkpt lat="42.90694" lon="19.08808">
        <ele>1257.0600585938</ele>
        <time>2024-09-22T11:37:57.000Z</time>
      </trkpt>
      <trkpt lat="42.90687" lon="19.08804">
        <ele>1258.0200195312</ele>
        <time>2024-09-22T11:37:58.000Z</time>
      </trkpt>
      <trkpt lat="42.90682" lon="19.08803">
        <ele>1258.0200195312</ele>
        <time>2024-09-22T11:37:59.000Z</time>
      </trkpt>
      <trkpt lat="42.90676" lon="19.08802">
        <ele>1258.5</ele>
        <time>2024-09-22T11:38:00.000Z</time>
      </trkpt>
      <trkpt lat="42.9067" lon="19.08803">
        <ele>1258.9799804688</ele>
        <time>2024-09-22T11:38:01.000Z</time>
      </trkpt>
      <trkpt lat="42.90665" lon="19.08805">
        <ele>1258.9799804688</ele>
        <time>2024-09-22T11:38:02.000Z</time>
      </trkpt>
      <trkpt lat="42.90658" lon="19.08808">
        <ele>1259.4599609375</ele>
        <time>2024-09-22T11:38:03.000Z</time>
      </trkpt>
      <trkpt lat="42.90648" lon="19.08811">
        <ele>1259.9399414062</ele>
        <time>2024-09-22T11:38:04.000Z</time>
      </trkpt>
      <trkpt lat="42.90645" lon="19.08813">
        <ele>1259.9399414062</ele>
        <time>2024-09-22T11:38:05.000Z</time>
      </trkpt>
      <trkpt lat="42.90638" lon="19.08815">
        <ele>1260.4300537109</ele>
        <time>2024-09-22T11:38:06.000Z</time>
      </trkpt>
      <trkpt lat="42.90628" lon="19.08816">
        <ele>1261.3900146484</ele>
        <time>2024-09-22T11:38:07.000Z</time>
      </trkpt>
      <trkpt lat="42.90625" lon="19.08816">
        <ele>1261.3900146484</ele>
        <time>2024-09-22T11:38:08.000Z</time>
      </trkpt>
      <trkpt lat="42.90619" lon="19.08815">
        <ele>1262.3499755859</ele>
        <time>2024-09-22T11:38:09.000Z</time>
      </trkpt>
      <trkpt lat="42.90612" lon="19.08813">
        <ele>1262.8299560547</ele>
        <time>2024-09-22T11:38:10.000Z</time>
      </trkpt>
      <trkpt lat="42.90606" lon="19.08809">
        <ele>1263.3100585938</ele>
        <time>2024-09-22T11:38:11.000Z</time>
      </trkpt>
      <trkpt lat="42.90602" lon="19.08805">
        <ele>1263.3100585938</ele>
        <time>2024-09-22T11:38:12.000Z</time>
      </trkpt>
      <trkpt lat="42.90593" lon="19.08796">
        <ele>1263.3100585938</ele>
        <time>2024-09-22T11:38:13.000Z</time>
      </trkpt>
      <trkpt lat="42.90592" lon="19.08795">
        <ele>1263.3100585938</ele>
        <time>2024-09-22T11:38:14.000Z</time>
      </trkpt>
      <trkpt lat="42.90587" lon="19.08791">
        <ele>1263.3100585938</ele>
        <time>2024-09-22T11:38:15.000Z</time>
      </trkpt>
      <trkpt lat="42.90582" lon="19.08788">
        <ele>1263.7900390625</ele>
        <time>2024-09-22T11:38:16.000Z</time>
      </trkpt>
      <trkpt lat="42.90576" lon="19.08786">
        <ele>1264.2700195312</ele>
        <time>2024-09-22T11:38:17.000Z</time>
      </trkpt>
      <trkpt lat="42.9057" lon="19.08787">
        <ele>1264.75</ele>
        <time>2024-09-22T11:38:18.000Z</time>
      </trkpt>
      <trkpt lat="42.90565" lon="19.08789">
        <ele>1265.2299804688</ele>
        <time>2024-09-22T11:38:19.000Z</time>
      </trkpt>
      <trkpt lat="42.90559" lon="19.08794">
        <ele>1265.7099609375</ele>
        <time>2024-09-22T11:38:20.000Z</time>
      </trkpt>
      <trkpt lat="42.90553" lon="19.08799">
        <ele>1266.1899414062</ele>
        <time>2024-09-22T11:38:21.000Z</time>
      </trkpt>
      <trkpt lat="42.90545" lon="19.08814">
        <ele>1267.1600341797</ele>
        <time>2024-09-22T11:38:23.000Z</time>
      </trkpt>
      <trkpt lat="42.90541" lon="19.0882">
        <ele>1267.6400146484</ele>
        <time>2024-09-22T11:38:24.000Z</time>
      </trkpt>
      <trkpt lat="42.90539" lon="19.08823">
        <ele>1267.6400146484</ele>
        <time>2024-09-22T11:38:25.000Z</time>
      </trkpt>
      <trkpt lat="42.90515" lon="19.08828">
        <ele>1268.5999755859</ele>
        <time>2024-09-22T11:38:32.000Z</time>
      </trkpt>
      <trkpt lat="42.9051" lon="19.08828">
        <ele>1269.0799560547</ele>
        <time>2024-09-22T11:38:33.000Z</time>
      </trkpt>
      <trkpt lat="42.90507" lon="19.08831">
        <ele>1269.5600585938</ele>
        <time>2024-09-22T11:38:34.000Z</time>
      </trkpt>
      <trkpt lat="42.90504" lon="19.08836">
        <ele>1269.5600585938</ele>
        <time>2024-09-22T11:38:35.000Z</time>
      </trkpt>
      <trkpt lat="42.90504" lon="19.08843">
        <ele>1270.5200195312</ele>
        <time>2024-09-22T11:38:36.000Z</time>
      </trkpt>
      <trkpt lat="42.90506" lon="19.08848">
        <ele>1270.5200195312</ele>
        <time>2024-09-22T11:38:37.000Z</time>
      </trkpt>
      <trkpt lat="42.90511" lon="19.08853">
        <ele>1271</ele>
        <time>2024-09-22T11:38:38.000Z</time>
      </trkpt>
      <trkpt lat="42.90517" lon="19.08854">
        <ele>1271</ele>
        <time>2024-09-22T11:38:39.000Z</time>
      </trkpt>
      <trkpt lat="42.90525" lon="19.08853">
        <ele>1271.4799804688</ele>
        <time>2024-09-22T11:38:40.000Z</time>
      </trkpt>
      <trkpt lat="42.90532" lon="19.08851">
        <ele>1271.9599609375</ele>
        <time>2024-09-22T11:38:41.000Z</time>
      </trkpt>
      <trkpt lat="42.90539" lon="19.08847">
        <ele>1271.9599609375</ele>
        <time>2024-09-22T11:38:42.000Z</time>
      </trkpt>
      <trkpt lat="42.90545" lon="19.08842">
        <ele>1272.4399414062</ele>
        <time>2024-09-22T11:38:43.000Z</time>
      </trkpt>
      <trkpt lat="42.90557" lon="19.0883">
        <ele>1273.4000244141</ele>
        <time>2024-09-22T11:38:45.000Z</time>
      </trkpt>
      <trkpt lat="42.9056" lon="19.08828">
        <ele>1273.4000244141</ele>
        <time>2024-09-22T11:38:46.000Z</time>
      </trkpt>
      <trkpt lat="42.90565" lon="19.08826">
        <ele>1273.4000244141</ele>
        <time>2024-09-22T11:38:47.000Z</time>
      </trkpt>
      <trkpt lat="42.90571" lon="19.08826">
        <ele>1273.4000244141</ele>
        <time>2024-09-22T11:38:48.000Z</time>
      </trkpt>
      <trkpt lat="42.90576" lon="19.0883">
        <ele>1273.8800048828</ele>
        <time>2024-09-22T11:38:49.000Z</time>
      </trkpt>
      <trkpt lat="42.90581" lon="19.08835">
        <ele>1274.3599853516</ele>
        <time>2024-09-22T11:38:50.000Z</time>
      </trkpt>
      <trkpt lat="42.90587" lon="19.08843">
        <ele>1274.8499755859</ele>
        <time>2024-09-22T11:38:51.000Z</time>
      </trkpt>
      <trkpt lat="42.90591" lon="19.08849">
        <ele>1275.3299560547</ele>
        <time>2024-09-22T11:38:52.000Z</time>
      </trkpt>
      <trkpt lat="42.90597" lon="19.08854">
        <ele>1275.8100585938</ele>
        <time>2024-09-22T11:38:53.000Z</time>
      </trkpt>
      <trkpt lat="42.906" lon="19.08856">
        <ele>1276.2900390625</ele>
        <time>2024-09-22T11:38:54.000Z</time>
      </trkpt>
      <trkpt lat="42.90612" lon="19.08863">
        <ele>1277.7299804688</ele>
        <time>2024-09-22T11:38:57.000Z</time>
      </trkpt>
      <trkpt lat="42.90614" lon="19.08865">
        <ele>1277.7299804688</ele>
        <time>2024-09-22T11:38:58.000Z</time>
      </trkpt>
      <trkpt lat="42.90617" lon="19.08867">
        <ele>1277.7299804688</ele>
        <time>2024-09-22T11:38:59.000Z</time>
      </trkpt>
      <trkpt lat="42.9062" lon="19.08871">
        <ele>1278.2099609375</ele>
        <time>2024-09-22T11:39:00.000Z</time>
      </trkpt>
      <trkpt lat="42.90623" lon="19.08877">
        <ele>1278.6899414062</ele>
        <time>2024-09-22T11:39:01.000Z</time>
      </trkpt>
      <trkpt lat="42.90624" lon="19.08885">
        <ele>1279.1700439453</ele>
        <time>2024-09-22T11:39:02.000Z</time>
      </trkpt>
      <trkpt lat="42.90623" lon="19.08894">
        <ele>1279.1700439453</ele>
        <time>2024-09-22T11:39:03.000Z</time>
      </trkpt>
      <trkpt lat="42.9062" lon="19.08902">
        <ele>1279.1700439453</ele>
        <time>2024-09-22T11:39:04.000Z</time>
      </trkpt>
      <trkpt lat="42.90614" lon="19.08911">
        <ele>1280.1300048828</ele>
        <time>2024-09-22T11:39:05.000Z</time>
      </trkpt>
      <trkpt lat="42.9061" lon="19.08917">
        <ele>1280.6099853516</ele>
        <time>2024-09-22T11:39:06.000Z</time>
      </trkpt>
      <trkpt lat="42.90606" lon="19.08923">
        <ele>1281.0899658203</ele>
        <time>2024-09-22T11:39:07.000Z</time>
      </trkpt>
      <trkpt lat="42.90602" lon="19.08929">
        <ele>1281.5699462891</ele>
        <time>2024-09-22T11:39:08.000Z</time>
      </trkpt>
      <trkpt lat="42.906" lon="19.08933">
        <ele>1282.0600585938</ele>
        <time>2024-09-22T11:39:09.000Z</time>
      </trkpt>
      <trkpt lat="42.90595" lon="19.08942">
        <ele>1283.0200195312</ele>
        <time>2024-09-22T11:39:10.000Z</time>
      </trkpt>
      <trkpt lat="42.90587" lon="19.0896">
        <ele>1284.4599609375</ele>
        <time>2024-09-22T11:39:12.000Z</time>
      </trkpt>
      <trkpt lat="42.90585" lon="19.08967">
        <ele>1284.9399414062</ele>
        <time>2024-09-22T11:39:13.000Z</time>
      </trkpt>
      <trkpt lat="42.90579" lon="19.08987">
        <ele>1285.9000244141</ele>
        <time>2024-09-22T11:39:15.000Z</time>
      </trkpt>
      <trkpt lat="42.90578" lon="19.08991">
        <ele>1285.9000244141</ele>
        <time>2024-09-22T11:39:16.000Z</time>
      </trkpt>
      <trkpt lat="42.90576" lon="19.09003">
        <ele>1286.8599853516</ele>
        <time>2024-09-22T11:39:17.000Z</time>
      </trkpt>
      <trkpt lat="42.90575" lon="19.09015">
        <ele>1287.8199462891</ele>
        <time>2024-09-22T11:39:18.000Z</time>
      </trkpt>
      <trkpt lat="42.90575" lon="19.0903">
        <ele>1288.3000488281</ele>
        <time>2024-09-22T11:39:19.000Z</time>
      </trkpt>
      <trkpt lat="42.90577" lon="19.09047">
        <ele>1289.75</ele>
        <time>2024-09-22T11:39:20.000Z</time>
      </trkpt>
      <trkpt lat="42.90579" lon="19.09062">
        <ele>1290.2299804688</ele>
        <time>2024-09-22T11:39:21.000Z</time>
      </trkpt>
      <trkpt lat="42.90587" lon="19.09103">
        <ele>1292.1500244141</ele>
        <time>2024-09-22T11:39:24.000Z</time>
      </trkpt>
      <trkpt lat="42.90589" lon="19.09112">
        <ele>1292.6300048828</ele>
        <time>2024-09-22T11:39:25.000Z</time>
      </trkpt>
      <trkpt lat="42.90589" lon="19.09118">
        <ele>1292.6300048828</ele>
        <time>2024-09-22T11:39:26.000Z</time>
      </trkpt>
      <trkpt lat="42.9059" lon="19.09124">
        <ele>1293.1099853516</ele>
        <time>2024-09-22T11:39:27.000Z</time>
      </trkpt>
      <trkpt lat="42.90592" lon="19.09131">
        <ele>1293.1099853516</ele>
        <time>2024-09-22T11:39:28.000Z</time>
      </trkpt>
      <trkpt lat="42.90594" lon="19.09137">
        <ele>1293.1099853516</ele>
        <time>2024-09-22T11:39:29.000Z</time>
      </trkpt>
      <trkpt lat="42.90597" lon="19.09144">
        <ele>1293.5899658203</ele>
        <time>2024-09-22T11:39:30.000Z</time>
      </trkpt>
      <trkpt lat="42.90601" lon="19.09149">
        <ele>1294.0699462891</ele>
        <time>2024-09-22T11:39:31.000Z</time>
      </trkpt>
      <trkpt lat="42.90608" lon="19.09155">
        <ele>1294.0699462891</ele>
        <time>2024-09-22T11:39:32.000Z</time>
      </trkpt>
      <trkpt lat="42.90615" lon="19.0916">
        <ele>1295.0300292969</ele>
        <time>2024-09-22T11:39:33.000Z</time>
      </trkpt>
      <trkpt lat="42.9062" lon="19.09163">
        <ele>1295.5100097656</ele>
        <time>2024-09-22T11:39:34.000Z</time>
      </trkpt>
      <trkpt lat="42.90626" lon="19.09167">
        <ele>1295.9899902344</ele>
        <time>2024-09-22T11:39:35.000Z</time>
      </trkpt>
      <trkpt lat="42.90634" lon="19.0917">
        <ele>1296.9599609375</ele>
        <time>2024-09-22T11:39:36.000Z</time>
      </trkpt>
      <trkpt lat="42.90636" lon="19.09172">
        <ele>1296.9599609375</ele>
        <time>2024-09-22T11:39:37.000Z</time>
      </trkpt>
      <trkpt lat="42.9064" lon="19.09174">
        <ele>1297.4399414062</ele>
        <time>2024-09-22T11:39:38.000Z</time>
      </trkpt>
      <trkpt lat="42.90644" lon="19.09179">
        <ele>1297.9200439453</ele>
        <time>2024-09-22T11:39:39.000Z</time>
      </trkpt>
      <trkpt lat="42.90648" lon="19.09184">
        <ele>1297.9200439453</ele>
        <time>2024-09-22T11:39:40.000Z</time>
      </trkpt>
      <trkpt lat="42.90655" lon="19.09198">
        <ele>1298.4000244141</ele>
        <time>2024-09-22T11:39:43.000Z</time>
      </trkpt>
      <trkpt lat="42.90656" lon="19.09202">
        <ele>1297.9200439453</ele>
        <time>2024-09-22T11:39:44.000Z</time>
      </trkpt>
      <trkpt lat="42.90653" lon="19.09231">
        <ele>1297.9200439453</ele>
        <time>2024-09-22T11:39:51.000Z</time>
      </trkpt>
      <trkpt lat="42.90648" lon="19.09228">
        <ele>1297.9200439453</ele>
        <time>2024-09-22T11:39:52.000Z</time>
      </trkpt>
      <trkpt lat="42.90648" lon="19.09228">
        <ele>1297.9200439453</ele>
        <time>2024-09-22T11:39:53.000Z</time>
      </trkpt>
      <trkpt lat="42.90645" lon="19.09222">
        <ele>1298.4000244141</ele>
        <time>2024-09-22T11:39:54.000Z</time>
      </trkpt>
      <trkpt lat="42.90643" lon="19.09214">
        <ele>1298.8800048828</ele>
        <time>2024-09-22T11:39:55.000Z</time>
      </trkpt>
      <trkpt lat="42.90641" lon="19.09208">
        <ele>1299.3599853516</ele>
        <time>2024-09-22T11:39:56.000Z</time>
      </trkpt>
      <trkpt lat="42.90636" lon="19.092">
        <ele>1299.8399658203</ele>
        <time>2024-09-22T11:39:57.000Z</time>
      </trkpt>
      <trkpt lat="42.90631" lon="19.09194">
        <ele>1300.3199462891</ele>
        <time>2024-09-22T11:39:58.000Z</time>
      </trkpt>
      <trkpt lat="42.90624" lon="19.09191">
        <ele>1300.3199462891</ele>
        <time>2024-09-22T11:39:59.000Z</time>
      </trkpt>
      <trkpt lat="42.90618" lon="19.09189">
        <ele>1300.8000488281</ele>
        <time>2024-09-22T11:40:00.000Z</time>
      </trkpt>
      <trkpt lat="42.90612" lon="19.09188">
        <ele>1301.2800292969</ele>
        <time>2024-09-22T11:40:01.000Z</time>
      </trkpt>
      <trkpt lat="42.90606" lon="19.09188">
        <ele>1301.2800292969</ele>
        <time>2024-09-22T11:40:02.000Z</time>
      </trkpt>
      <trkpt lat="42.906" lon="19.09189">
        <ele>1301.7600097656</ele>
        <time>2024-09-22T11:40:03.000Z</time>
      </trkpt>
      <trkpt lat="42.90596" lon="19.0919">
        <ele>1301.7600097656</ele>
        <time>2024-09-22T11:40:04.000Z</time>
      </trkpt>
      <trkpt lat="42.90592" lon="19.09191">
        <ele>1302.2399902344</ele>
        <time>2024-09-22T11:40:05.000Z</time>
      </trkpt>
      <trkpt lat="42.90587" lon="19.09193">
        <ele>1302.7199707031</ele>
        <time>2024-09-22T11:40:06.000Z</time>
      </trkpt>
      <trkpt lat="42.90581" lon="19.09193">
        <ele>1302.7199707031</ele>
        <time>2024-09-22T11:40:07.000Z</time>
      </trkpt>
      <trkpt lat="42.90575" lon="19.09193">
        <ele>1303.1999511719</ele>
        <time>2024-09-22T11:40:08.000Z</time>
      </trkpt>
      <trkpt lat="42.90569" lon="19.09191">
        <ele>1303.6899414062</ele>
        <time>2024-09-22T11:40:09.000Z</time>
      </trkpt>
      <trkpt lat="42.90563" lon="19.09186">
        <ele>1304.1700439453</ele>
        <time>2024-09-22T11:40:10.000Z</time>
      </trkpt>
      <trkpt lat="42.90556" lon="19.09177">
        <ele>1304.1700439453</ele>
        <time>2024-09-22T11:40:11.000Z</time>
      </trkpt>
      <trkpt lat="42.90538" lon="19.0914">
        <ele>1306.5699462891</ele>
        <time>2024-09-22T11:40:14.000Z</time>
      </trkpt>
      <trkpt lat="42.90532" lon="19.09129">
        <ele>1307.0500488281</ele>
        <time>2024-09-22T11:40:15.000Z</time>
      </trkpt>
      <trkpt lat="42.90515" lon="19.09096">
        <ele>1309.4499511719</ele>
        <time>2024-09-22T11:40:17.000Z</time>
      </trkpt>
      <trkpt lat="42.90514" lon="19.09094">
        <ele>1309.4499511719</ele>
        <time>2024-09-22T11:40:18.000Z</time>
      </trkpt>
      <trkpt lat="42.90508" lon="19.0908">
        <ele>1310.4100341797</ele>
        <time>2024-09-22T11:40:19.000Z</time>
      </trkpt>
      <trkpt lat="42.90507" lon="19.09076">
        <ele>1310.9000244141</ele>
        <time>2024-09-22T11:40:20.000Z</time>
      </trkpt>
      <trkpt lat="42.90501" lon="19.09051">
        <ele>1312.3399658203</ele>
        <time>2024-09-22T11:40:22.000Z</time>
      </trkpt>
      <trkpt lat="42.90499" lon="19.09047">
        <ele>1312.8199462891</ele>
        <time>2024-09-22T11:40:23.000Z</time>
      </trkpt>
      <trkpt lat="42.90495" lon="19.09037">
        <ele>1313.7800292969</ele>
        <time>2024-09-22T11:40:24.000Z</time>
      </trkpt>
      <trkpt lat="42.90489" lon="19.09028">
        <ele>1314.2600097656</ele>
        <time>2024-09-22T11:40:25.000Z</time>
      </trkpt>
      <trkpt lat="42.90482" lon="19.09022">
        <ele>1314.7399902344</ele>
        <time>2024-09-22T11:40:26.000Z</time>
      </trkpt>
      <trkpt lat="42.90473" lon="19.09014">
        <ele>1315.2199707031</ele>
        <time>2024-09-22T11:40:27.000Z</time>
      </trkpt>
      <trkpt lat="42.9047" lon="19.09012">
        <ele>1315.2199707031</ele>
        <time>2024-09-22T11:40:28.000Z</time>
      </trkpt>
      <trkpt lat="42.90464" lon="19.09008">
        <ele>1315.6999511719</ele>
        <time>2024-09-22T11:40:29.000Z</time>
      </trkpt>
      <trkpt lat="42.90456" lon="19.09004">
        <ele>1316.1800537109</ele>
        <time>2024-09-22T11:40:30.000Z</time>
      </trkpt>
      <trkpt lat="42.90445" lon="19.08999">
        <ele>1316.6600341797</ele>
        <time>2024-09-22T11:40:31.000Z</time>
      </trkpt>
      <trkpt lat="42.90441" lon="19.08997">
        <ele>1317.1400146484</ele>
        <time>2024-09-22T11:40:32.000Z</time>
      </trkpt>
      <trkpt lat="42.90431" lon="19.08991">
        <ele>1317.6199951172</ele>
        <time>2024-09-22T11:40:33.000Z</time>
      </trkpt>
      <trkpt lat="42.90423" lon="19.08987">
        <ele>1318.0999755859</ele>
        <time>2024-09-22T11:40:34.000Z</time>
      </trkpt>
      <trkpt lat="42.90418" lon="19.08985">
        <ele>1318.5899658203</ele>
        <time>2024-09-22T11:40:35.000Z</time>
      </trkpt>
      <trkpt lat="42.9041" lon="19.08982">
        <ele>1318.5899658203</ele>
        <time>2024-09-22T11:40:36.000Z</time>
      </trkpt>
      <trkpt lat="42.90402" lon="19.08981">
        <ele>1319.0699462891</ele>
        <time>2024-09-22T11:40:37.000Z</time>
      </trkpt>
      <trkpt lat="42.90393" lon="19.08982">
        <ele>1319.5500488281</ele>
        <time>2024-09-22T11:40:38.000Z</time>
      </trkpt>
      <trkpt lat="42.90385" lon="19.08984">
        <ele>1320.0300292969</ele>
        <time>2024-09-22T11:40:39.000Z</time>
      </trkpt>
      <trkpt lat="42.90379" lon="19.08987">
        <ele>1320.5100097656</ele>
        <time>2024-09-22T11:40:40.000Z</time>
      </trkpt>
      <trkpt lat="42.90372" lon="19.08992">
        <ele>1320.9899902344</ele>
        <time>2024-09-22T11:40:41.000Z</time>
      </trkpt>
      <trkpt lat="42.90365" lon="19.08997">
        <ele>1321.9499511719</ele>
        <time>2024-09-22T11:40:42.000Z</time>
      </trkpt>
      <trkpt lat="42.90361" lon="19.09001">
        <ele>1322.4300537109</ele>
        <time>2024-09-22T11:40:43.000Z</time>
      </trkpt>
      <trkpt lat="42.90352" lon="19.09009">
        <ele>1323.3900146484</ele>
        <time>2024-09-22T11:40:44.000Z</time>
      </trkpt>
      <trkpt lat="42.9035" lon="19.09012">
        <ele>1323.3900146484</ele>
        <time>2024-09-22T11:40:45.000Z</time>
      </trkpt>
      <trkpt lat="42.90345" lon="19.09019">
        <ele>1323.8699951172</ele>
        <time>2024-09-22T11:40:46.000Z</time>
      </trkpt>
      <trkpt lat="42.90342" lon="19.09028">
        <ele>1323.8699951172</ele>
        <time>2024-09-22T11:40:47.000Z</time>
      </trkpt>
      <trkpt lat="42.90341" lon="19.09036">
        <ele>1323.8699951172</ele>
        <time>2024-09-22T11:40:48.000Z</time>
      </trkpt>
      <trkpt lat="42.90341" lon="19.09046">
        <ele>1324.3499755859</ele>
        <time>2024-09-22T11:40:49.000Z</time>
      </trkpt>
      <trkpt lat="42.90341" lon="19.09055">
        <ele>1324.8299560547</ele>
        <time>2024-09-22T11:40:50.000Z</time>
      </trkpt>
      <trkpt lat="42.90343" lon="19.09072">
        <ele>1324.8299560547</ele>
        <time>2024-09-22T11:40:51.000Z</time>
      </trkpt>
      <trkpt lat="42.90343" lon="19.09075">
        <ele>1324.8299560547</ele>
        <time>2024-09-22T11:40:52.000Z</time>
      </trkpt>
      <trkpt lat="42.90343" lon="19.09086">
        <ele>1324.8299560547</ele>
        <time>2024-09-22T11:40:53.000Z</time>
      </trkpt>
      <trkpt lat="42.90342" lon="19.09096">
        <ele>1324.8299560547</ele>
        <time>2024-09-22T11:40:54.000Z</time>
      </trkpt>
      <trkpt lat="42.90339" lon="19.09104">
        <ele>1324.8299560547</ele>
        <time>2024-09-22T11:40:55.000Z</time>
      </trkpt>
      <trkpt lat="42.90335" lon="19.09114">
        <ele>1324.8299560547</ele>
        <time>2024-09-22T11:40:56.000Z</time>
      </trkpt>
      <trkpt lat="42.9033" lon="19.09123">
        <ele>1325.3100585938</ele>
        <time>2024-09-22T11:40:57.000Z</time>
      </trkpt>
      <trkpt lat="42.90323" lon="19.09131">
        <ele>1326.2800292969</ele>
        <time>2024-09-22T11:40:58.000Z</time>
      </trkpt>
      <trkpt lat="42.90315" lon="19.09136">
        <ele>1326.2800292969</ele>
        <time>2024-09-22T11:40:59.000Z</time>
      </trkpt>
      <trkpt lat="42.90306" lon="19.09137">
        <ele>1326.7600097656</ele>
        <time>2024-09-22T11:41:00.000Z</time>
      </trkpt>
      <trkpt lat="42.90295" lon="19.09135">
        <ele>1327.2399902344</ele>
        <time>2024-09-22T11:41:01.000Z</time>
      </trkpt>
      <trkpt lat="42.90279" lon="19.09131">
        <ele>1327.7199707031</ele>
        <time>2024-09-22T11:41:02.000Z</time>
      </trkpt>
      <trkpt lat="42.90264" lon="19.09126">
        <ele>1328.1999511719</ele>
        <time>2024-09-22T11:41:03.000Z</time>
      </trkpt>
      <trkpt lat="42.90257" lon="19.09124">
        <ele>1328.6800537109</ele>
        <time>2024-09-22T11:41:04.000Z</time>
      </trkpt>
      <trkpt lat="42.90254" lon="19.09123">
        <ele>1329.1600341797</ele>
        <time>2024-09-22T11:41:05.000Z</time>
      </trkpt>
      <trkpt lat="42.90248" lon="19.09122">
        <ele>1329.1600341797</ele>
        <time>2024-09-22T11:41:06.000Z</time>
      </trkpt>
      <trkpt lat="42.90241" lon="19.09122">
        <ele>1330.1199951172</ele>
        <time>2024-09-22T11:41:07.000Z</time>
      </trkpt>
      <trkpt lat="42.90233" lon="19.09125">
        <ele>1330.5999755859</ele>
        <time>2024-09-22T11:41:08.000Z</time>
      </trkpt>
      <trkpt lat="42.90223" lon="19.09131">
        <ele>1332.0400390625</ele>
        <time>2024-09-22T11:41:09.000Z</time>
      </trkpt>
      <trkpt lat="42.90215" lon="19.09138">
        <ele>1332.5200195312</ele>
        <time>2024-09-22T11:41:10.000Z</time>
      </trkpt>
      <trkpt lat="42.90206" lon="19.09148">
        <ele>1333.4899902344</ele>
        <time>2024-09-22T11:41:11.000Z</time>
      </trkpt>
      <trkpt lat="42.90205" lon="19.09149">
        <ele>1333.4899902344</ele>
        <time>2024-09-22T11:41:12.000Z</time>
      </trkpt>
      <trkpt lat="42.90199" lon="19.09152">
        <ele>1334.4499511719</ele>
        <time>2024-09-22T11:41:13.000Z</time>
      </trkpt>
      <trkpt lat="42.90193" lon="19.09153">
        <ele>1334.9300537109</ele>
        <time>2024-09-22T11:41:14.000Z</time>
      </trkpt>
      <trkpt lat="42.90186" lon="19.09152">
        <ele>1335.8900146484</ele>
        <time>2024-09-22T11:41:15.000Z</time>
      </trkpt>
      <trkpt lat="42.90181" lon="19.09149">
        <ele>1336.3699951172</ele>
        <time>2024-09-22T11:41:16.000Z</time>
      </trkpt>
      <trkpt lat="42.9017" lon="19.09142">
        <ele>1337.3299560547</ele>
        <time>2024-09-22T11:41:17.000Z</time>
      </trkpt>
      <trkpt lat="42.90167" lon="19.09139">
        <ele>1337.3299560547</ele>
        <time>2024-09-22T11:41:18.000Z</time>
      </trkpt>
      <trkpt lat="42.90157" lon="19.09133">
        <ele>1338.7700195312</ele>
        <time>2024-09-22T11:41:19.000Z</time>
      </trkpt>
      <trkpt lat="42.90146" lon="19.09128">
        <ele>1341.1800537109</ele>
        <time>2024-09-22T11:41:20.000Z</time>
      </trkpt>
      <trkpt lat="42.90135" lon="19.09127">
        <ele>1342.6199951172</ele>
        <time>2024-09-22T11:41:21.000Z</time>
      </trkpt>
      <trkpt lat="42.90115" lon="19.09131">
        <ele>1343.5799560547</ele>
        <time>2024-09-22T11:41:22.000Z</time>
      </trkpt>
      <trkpt lat="42.90113" lon="19.09132">
        <ele>1343.5799560547</ele>
        <time>2024-09-22T11:41:23.000Z</time>
      </trkpt>
      <trkpt lat="42.90101" lon="19.09132">
        <ele>1344.5400390625</ele>
        <time>2024-09-22T11:41:24.000Z</time>
      </trkpt>
      <trkpt lat="42.90087" lon="19.09128">
        <ele>1346.4599609375</ele>
        <time>2024-09-22T11:41:25.000Z</time>
      </trkpt>
      <trkpt lat="42.90083" lon="19.09127">
        <ele>1345.9799804688</ele>
        <time>2024-09-22T11:41:26.000Z</time>
      </trkpt>
      <trkpt lat="42.90077" lon="19.09118">
        <ele>1348.3900146484</ele>
        <time>2024-09-22T11:41:27.000Z</time>
      </trkpt>
      <trkpt lat="42.90075" lon="19.09102">
        <ele>1348.8699951172</ele>
        <time>2024-09-22T11:41:28.000Z</time>
      </trkpt>
      <trkpt lat="42.90065" lon="19.0906">
        <ele>1349.8299560547</ele>
        <time>2024-09-22T11:41:31.000Z</time>
      </trkpt>
      <trkpt lat="42.90057" lon="19.09035">
        <ele>1350.7900390625</ele>
        <time>2024-09-22T11:41:32.000Z</time>
      </trkpt>
      <trkpt lat="42.90056" lon="19.09029">
        <ele>1350.7900390625</ele>
        <time>2024-09-22T11:41:33.000Z</time>
      </trkpt>
      <trkpt lat="42.90052" lon="19.09015">
        <ele>1351.2700195312</ele>
        <time>2024-09-22T11:41:34.000Z</time>
      </trkpt>
      <trkpt lat="42.9005" lon="19.08999">
        <ele>1351.75</ele>
        <time>2024-09-22T11:41:35.000Z</time>
      </trkpt>
      <trkpt lat="42.9005" lon="19.08983">
        <ele>1351.75</ele>
        <time>2024-09-22T11:41:36.000Z</time>
      </trkpt>
      <trkpt lat="42.90053" lon="19.08926">
        <ele>1353.1899414062</ele>
        <time>2024-09-22T11:41:39.000Z</time>
      </trkpt>
      <trkpt lat="42.90055" lon="19.08911">
        <ele>1354.1500244141</ele>
        <time>2024-09-22T11:41:40.000Z</time>
      </trkpt>
      <trkpt lat="42.90061" lon="19.08884">
        <ele>1355.1199951172</ele>
        <time>2024-09-22T11:41:42.000Z</time>
      </trkpt>
      <trkpt lat="42.90061" lon="19.08876">
        <ele>1355.1199951172</ele>
        <time>2024-09-22T11:41:43.000Z</time>
      </trkpt>
      <trkpt lat="42.9006" lon="19.0887">
        <ele>1355.5999755859</ele>
        <time>2024-09-22T11:41:44.000Z</time>
      </trkpt>
      <trkpt lat="42.90056" lon="19.08867">
        <ele>1356.0799560547</ele>
        <time>2024-09-22T11:41:45.000Z</time>
      </trkpt>
      <trkpt lat="42.90051" lon="19.08868">
        <ele>1356.5600585938</ele>
        <time>2024-09-22T11:41:46.000Z</time>
      </trkpt>
      <trkpt lat="42.90046" lon="19.08874">
        <ele>1357.0400390625</ele>
        <time>2024-09-22T11:41:47.000Z</time>
      </trkpt>
      <trkpt lat="42.90043" lon="19.08883">
        <ele>1357.5200195312</ele>
        <time>2024-09-22T11:41:48.000Z</time>
      </trkpt>
      <trkpt lat="42.90042" lon="19.08895">
        <ele>1357.5200195312</ele>
        <time>2024-09-22T11:41:49.000Z</time>
      </trkpt>
      <trkpt lat="42.9004" lon="19.08908">
        <ele>1358</ele>
        <time>2024-09-22T11:41:50.000Z</time>
      </trkpt>
      <trkpt lat="42.90038" lon="19.08924">
        <ele>1358</ele>
        <time>2024-09-22T11:41:51.000Z</time>
      </trkpt>
      <trkpt lat="42.90033" lon="19.08945">
        <ele>1358.4799804688</ele>
        <time>2024-09-22T11:41:52.000Z</time>
      </trkpt>
      <trkpt lat="42.90028" lon="19.08964">
        <ele>1358.9599609375</ele>
        <time>2024-09-22T11:41:53.000Z</time>
      </trkpt>
      <trkpt lat="42.90025" lon="19.08979">
        <ele>1359.4399414062</ele>
        <time>2024-09-22T11:41:54.000Z</time>
      </trkpt>
      <trkpt lat="42.90021" lon="19.09029">
        <ele>1361.3599853516</ele>
        <time>2024-09-22T11:41:56.000Z</time>
      </trkpt>
      <trkpt lat="42.9002" lon="19.09037">
        <ele>1361.8399658203</ele>
        <time>2024-09-22T11:41:57.000Z</time>
      </trkpt>
      <trkpt lat="42.90017" lon="19.09055">
        <ele>1362.3299560547</ele>
        <time>2024-09-22T11:41:58.000Z</time>
      </trkpt>
      <trkpt lat="42.90013" lon="19.09078">
        <ele>1363.7700195312</ele>
        <time>2024-09-22T11:41:59.000Z</time>
      </trkpt>
      <trkpt lat="42.90009" lon="19.09094">
        <ele>1364.7299804688</ele>
        <time>2024-09-22T11:42:00.000Z</time>
      </trkpt>
      <trkpt lat="42.90001" lon="19.09128">
        <ele>1366.6500244141</ele>
        <time>2024-09-22T11:42:01.000Z</time>
      </trkpt>
      <trkpt lat="42.89999" lon="19.09137">
        <ele>1367.1300048828</ele>
        <time>2024-09-22T11:42:02.000Z</time>
      </trkpt>
      <trkpt lat="42.89996" lon="19.0915">
        <ele>1368.0899658203</ele>
        <time>2024-09-22T11:42:03.000Z</time>
      </trkpt>
      <trkpt lat="42.89995" lon="19.09167">
        <ele>1368.5699462891</ele>
        <time>2024-09-22T11:42:04.000Z</time>
      </trkpt>
      <trkpt lat="42.89996" lon="19.09184">
        <ele>1369.5400390625</ele>
        <time>2024-09-22T11:42:05.000Z</time>
      </trkpt>
      <trkpt lat="42.90001" lon="19.09199">
        <ele>1370.5</ele>
        <time>2024-09-22T11:42:06.000Z</time>
      </trkpt>
      <trkpt lat="42.9001" lon="19.0921">
        <ele>1371.4599609375</ele>
        <time>2024-09-22T11:42:07.000Z</time>
      </trkpt>
      <trkpt lat="42.90022" lon="19.0922">
        <ele>1372.4200439453</ele>
        <time>2024-09-22T11:42:08.000Z</time>
      </trkpt>
      <trkpt lat="42.90034" lon="19.09229">
        <ele>1372.9000244141</ele>
        <time>2024-09-22T11:42:09.000Z</time>
      </trkpt>
      <trkpt lat="42.90046" lon="19.09241">
        <ele>1373.8599853516</ele>
        <time>2024-09-22T11:42:10.000Z</time>
      </trkpt>
      <trkpt lat="42.90056" lon="19.09256">
        <ele>1375.3000488281</ele>
        <time>2024-09-22T11:42:11.000Z</time>
      </trkpt>
      <trkpt lat="42.90064" lon="19.09273">
        <ele>1376.75</ele>
        <time>2024-09-22T11:42:12.000Z</time>
      </trkpt>
      <trkpt lat="42.9009" lon="19.09331">
        <ele>1380.5899658203</ele>
        <time>2024-09-22T11:42:16.000Z</time>
      </trkpt>
      <trkpt lat="42.90092" lon="19.09335">
        <ele>1380.5899658203</ele>
        <time>2024-09-22T11:42:17.000Z</time>
      </trkpt>
      <trkpt lat="42.90097" lon="19.09341">
        <ele>1381.0699462891</ele>
        <time>2024-09-22T11:42:18.000Z</time>
      </trkpt>
      <trkpt lat="42.90102" lon="19.09346">
        <ele>1381.0699462891</ele>
        <time>2024-09-22T11:42:19.000Z</time>
      </trkpt>
      <trkpt lat="42.90108" lon="19.09349">
        <ele>1381.5500488281</ele>
        <time>2024-09-22T11:42:20.000Z</time>
      </trkpt>
      <trkpt lat="42.90112" lon="19.0935">
        <ele>1381.5500488281</ele>
        <time>2024-09-22T11:42:21.000Z</time>
      </trkpt>
      <trkpt lat="42.90115" lon="19.09352">
        <ele>1381.5500488281</ele>
        <time>2024-09-22T11:42:22.000Z</time>
      </trkpt>
      <trkpt lat="42.90122" lon="19.09356">
        <ele>1382.5100097656</ele>
        <time>2024-09-22T11:42:23.000Z</time>
      </trkpt>
      <trkpt lat="42.90124" lon="19.09358">
        <ele>1382.5100097656</ele>
        <time>2024-09-22T11:42:24.000Z</time>
      </trkpt>
      <trkpt lat="42.90129" lon="19.09361">
        <ele>1382.9899902344</ele>
        <time>2024-09-22T11:42:31.000Z</time>
      </trkpt>
      <trkpt lat="42.90136" lon="19.09367">
        <ele>1382.5100097656</ele>
        <time>2024-09-22T11:43:20.000Z</time>
      </trkpt>
      <trkpt lat="42.90139" lon="19.0937">
        <ele>1382.5100097656</ele>
        <time>2024-09-22T11:43:21.000Z</time>
      </trkpt>
      <trkpt lat="42.90145" lon="19.09372">
        <ele>1382.9899902344</ele>
        <time>2024-09-22T11:43:22.000Z</time>
      </trkpt>
      <trkpt lat="42.90153" lon="19.0937">
        <ele>1382.9899902344</ele>
        <time>2024-09-22T11:43:23.000Z</time>
      </trkpt>
      <trkpt lat="42.90162" lon="19.09364">
        <ele>1383.4699707031</ele>
        <time>2024-09-22T11:43:24.000Z</time>
      </trkpt>
      <trkpt lat="42.90172" lon="19.09357">
        <ele>1383.9599609375</ele>
        <time>2024-09-22T11:43:25.000Z</time>
      </trkpt>
      <trkpt lat="42.90181" lon="19.09353">
        <ele>1384.4399414062</ele>
        <time>2024-09-22T11:43:26.000Z</time>
      </trkpt>
      <trkpt lat="42.90196" lon="19.09348">
        <ele>1384.9200439453</ele>
        <time>2024-09-22T11:43:27.000Z</time>
      </trkpt>
      <trkpt lat="42.90207" lon="19.09348">
        <ele>1384.9200439453</ele>
        <time>2024-09-22T11:43:28.000Z</time>
      </trkpt>
      <trkpt lat="42.90216" lon="19.09348">
        <ele>1385.4000244141</ele>
        <time>2024-09-22T11:43:29.000Z</time>
      </trkpt>
      <trkpt lat="42.90228" lon="19.09352">
        <ele>1385.8800048828</ele>
        <time>2024-09-22T11:43:30.000Z</time>
      </trkpt>
      <trkpt lat="42.90242" lon="19.09358">
        <ele>1386.3599853516</ele>
        <time>2024-09-22T11:43:31.000Z</time>
      </trkpt>
      <trkpt lat="42.90256" lon="19.09365">
        <ele>1387.3199462891</ele>
        <time>2024-09-22T11:43:32.000Z</time>
      </trkpt>
      <trkpt lat="42.90276" lon="19.09379">
        <ele>1388.2800292969</ele>
        <time>2024-09-22T11:43:33.000Z</time>
      </trkpt>
      <trkpt lat="42.90287" lon="19.09389">
        <ele>1389.7199707031</ele>
        <time>2024-09-22T11:43:34.000Z</time>
      </trkpt>
      <trkpt lat="42.90301" lon="19.09401">
        <ele>1391.1700439453</ele>
        <time>2024-09-22T11:43:35.000Z</time>
      </trkpt>
      <trkpt lat="42.9031" lon="19.09411">
        <ele>1391.6500244141</ele>
        <time>2024-09-22T11:43:36.000Z</time>
      </trkpt>
      <trkpt lat="42.90321" lon="19.09426">
        <ele>1392.1300048828</ele>
        <time>2024-09-22T11:43:37.000Z</time>
      </trkpt>
      <trkpt lat="42.90368" lon="19.09517">
        <ele>1396.9300537109</ele>
        <time>2024-09-22T11:43:42.000Z</time>
      </trkpt>
      <trkpt lat="42.90373" lon="19.09526">
        <ele>1397.8900146484</ele>
        <time>2024-09-22T11:43:43.000Z</time>
      </trkpt>
      <trkpt lat="42.90382" lon="19.09532">
        <ele>1398.8599853516</ele>
        <time>2024-09-22T11:43:44.000Z</time>
      </trkpt>
      <trkpt lat="42.90391" lon="19.09534">
        <ele>1399.8199462891</ele>
        <time>2024-09-22T11:43:45.000Z</time>
      </trkpt>
      <trkpt lat="42.904" lon="19.09531">
        <ele>1400.3000488281</ele>
        <time>2024-09-22T11:43:46.000Z</time>
      </trkpt>
      <trkpt lat="42.9041" lon="19.09524">
        <ele>1400.7800292969</ele>
        <time>2024-09-22T11:43:47.000Z</time>
      </trkpt>
      <trkpt lat="42.90421" lon="19.09514">
        <ele>1401.2600097656</ele>
        <time>2024-09-22T11:43:48.000Z</time>
      </trkpt>
      <trkpt lat="42.90429" lon="19.09508">
        <ele>1401.7399902344</ele>
        <time>2024-09-22T11:43:49.000Z</time>
      </trkpt>
      <trkpt lat="42.9044" lon="19.09505">
        <ele>1402.6999511719</ele>
        <time>2024-09-22T11:43:50.000Z</time>
      </trkpt>
      <trkpt lat="42.90449" lon="19.09507">
        <ele>1403.1800537109</ele>
        <time>2024-09-22T11:43:51.000Z</time>
      </trkpt>
      <trkpt lat="42.90459" lon="19.09514">
        <ele>1404.6199951172</ele>
        <time>2024-09-22T11:43:52.000Z</time>
      </trkpt>
      <trkpt lat="42.90468" lon="19.09525">
        <ele>1406.0699462891</ele>
        <time>2024-09-22T11:43:53.000Z</time>
      </trkpt>
      <trkpt lat="42.90498" lon="19.09562">
        <ele>1408.4699707031</ele>
        <time>2024-09-22T11:43:55.000Z</time>
      </trkpt>
      <trkpt lat="42.90514" lon="19.09584">
        <ele>1409.4300537109</ele>
        <time>2024-09-22T11:43:57.000Z</time>
      </trkpt>
      <trkpt lat="42.90518" lon="19.09591">
        <ele>1409.4300537109</ele>
        <time>2024-09-22T11:43:58.000Z</time>
      </trkpt>
      <trkpt lat="42.90523" lon="19.09602">
        <ele>1409.9100341797</ele>
        <time>2024-09-22T11:43:59.000Z</time>
      </trkpt>
      <trkpt lat="42.90524" lon="19.09613">
        <ele>1409.9100341797</ele>
        <time>2024-09-22T11:44:00.000Z</time>
      </trkpt>
      <trkpt lat="42.90521" lon="19.09619">
        <ele>1410.3900146484</ele>
        <time>2024-09-22T11:44:01.000Z</time>
      </trkpt>
      <trkpt lat="42.90515" lon="19.09622">
        <ele>1411.3499755859</ele>
        <time>2024-09-22T11:44:02.000Z</time>
      </trkpt>
      <trkpt lat="42.90511" lon="19.09621">
        <ele>1411.8299560547</ele>
        <time>2024-09-22T11:44:03.000Z</time>
      </trkpt>
      <trkpt lat="42.90507" lon="19.09618">
        <ele>1412.3100585938</ele>
        <time>2024-09-22T11:44:04.000Z</time>
      </trkpt>
      <trkpt lat="42.90504" lon="19.09612">
        <ele>1412.7900390625</ele>
        <time>2024-09-22T11:44:05.000Z</time>
      </trkpt>
      <trkpt lat="42.90497" lon="19.09597">
        <ele>1413.7600097656</ele>
        <time>2024-09-22T11:44:06.000Z</time>
      </trkpt>
      <trkpt lat="42.90495" lon="19.09594">
        <ele>1413.7600097656</ele>
        <time>2024-09-22T11:44:07.000Z</time>
      </trkpt>
      <trkpt lat="42.90489" lon="19.09584">
        <ele>1414.2399902344</ele>
        <time>2024-09-22T11:44:08.000Z</time>
      </trkpt>
      <trkpt lat="42.9048" lon="19.09574">
        <ele>1414.7199707031</ele>
        <time>2024-09-22T11:44:09.000Z</time>
      </trkpt>
      <trkpt lat="42.90468" lon="19.09565">
        <ele>1415.6800537109</ele>
        <time>2024-09-22T11:44:10.000Z</time>
      </trkpt>
      <trkpt lat="42.90456" lon="19.09559">
        <ele>1416.1600341797</ele>
        <time>2024-09-22T11:44:11.000Z</time>
      </trkpt>
      <trkpt lat="42.90447" lon="19.09556">
        <ele>1416.1600341797</ele>
        <time>2024-09-22T11:44:12.000Z</time>
      </trkpt>
      <trkpt lat="42.90436" lon="19.09556">
        <ele>1417.1199951172</ele>
        <time>2024-09-22T11:44:13.000Z</time>
      </trkpt>
      <trkpt lat="42.90426" lon="19.09561">
        <ele>1417.5999755859</ele>
        <time>2024-09-22T11:44:14.000Z</time>
      </trkpt>
      <trkpt lat="42.90418" lon="19.0957">
        <ele>1418.0799560547</ele>
        <time>2024-09-22T11:44:15.000Z</time>
      </trkpt>
      <trkpt lat="42.90413" lon="19.09583">
        <ele>1418.5600585938</ele>
        <time>2024-09-22T11:44:16.000Z</time>
      </trkpt>
      <trkpt lat="42.90408" lon="19.09602">
        <ele>1419.5200195312</ele>
        <time>2024-09-22T11:44:17.000Z</time>
      </trkpt>
      <trkpt lat="42.90405" lon="19.09618">
        <ele>1420</ele>
        <time>2024-09-22T11:44:18.000Z</time>
      </trkpt>
      <trkpt lat="42.904" lon="19.09633">
        <ele>1420.4899902344</ele>
        <time>2024-09-22T11:44:19.000Z</time>
      </trkpt>
      <trkpt lat="42.90394" lon="19.09647">
        <ele>1420.9699707031</ele>
        <time>2024-09-22T11:44:20.000Z</time>
      </trkpt>
      <trkpt lat="42.90386" lon="19.0966">
        <ele>1421.9300537109</ele>
        <time>2024-09-22T11:44:21.000Z</time>
      </trkpt>
      <trkpt lat="42.90377" lon="19.0967">
        <ele>1422.4100341797</ele>
        <time>2024-09-22T11:44:22.000Z</time>
      </trkpt>
      <trkpt lat="42.90366" lon="19.09677">
        <ele>1423.3699951172</ele>
        <time>2024-09-22T11:44:23.000Z</time>
      </trkpt>
      <trkpt lat="42.90355" lon="19.0968">
        <ele>1424.3299560547</ele>
        <time>2024-09-22T11:44:24.000Z</time>
      </trkpt>
      <trkpt lat="42.90345" lon="19.09678">
        <ele>1424.8100585938</ele>
        <time>2024-09-22T11:44:25.000Z</time>
      </trkpt>
      <trkpt lat="42.90337" lon="19.0967">
        <ele>1425.2900390625</ele>
        <time>2024-09-22T11:44:26.000Z</time>
      </trkpt>
      <trkpt lat="42.90333" lon="19.09657">
        <ele>1424.8100585938</ele>
        <time>2024-09-22T11:44:27.000Z</time>
      </trkpt>
      <trkpt lat="42.90328" lon="19.09644">
        <ele>1425.2900390625</ele>
        <time>2024-09-22T11:44:28.000Z</time>
      </trkpt>
      <trkpt lat="42.90319" lon="19.09622">
        <ele>1425.7700195312</ele>
        <time>2024-09-22T11:44:29.000Z</time>
      </trkpt>
      <trkpt lat="42.90313" lon="19.09607">
        <ele>1426.25</ele>
        <time>2024-09-22T11:44:30.000Z</time>
      </trkpt>
      <trkpt lat="42.90303" lon="19.09581">
        <ele>1428.6600341797</ele>
        <time>2024-09-22T11:44:31.000Z</time>
      </trkpt>
      <trkpt lat="42.90298" lon="19.09571">
        <ele>1429.1400146484</ele>
        <time>2024-09-22T11:44:32.000Z</time>
      </trkpt>
      <trkpt lat="42.90288" lon="19.09556">
        <ele>1430.5799560547</ele>
        <time>2024-09-22T11:44:33.000Z</time>
      </trkpt>
      <trkpt lat="42.90276" lon="19.09547">
        <ele>1431.0600585938</ele>
        <time>2024-09-22T11:44:34.000Z</time>
      </trkpt>
      <trkpt lat="42.90262" lon="19.09542">
        <ele>1431.5400390625</ele>
        <time>2024-09-22T11:44:35.000Z</time>
      </trkpt>
      <trkpt lat="42.90249" lon="19.09543">
        <ele>1432.0200195312</ele>
        <time>2024-09-22T11:44:36.000Z</time>
      </trkpt>
      <trkpt lat="42.90237" lon="19.09548">
        <ele>1432.5</ele>
        <time>2024-09-22T11:44:37.000Z</time>
      </trkpt>
      <trkpt lat="42.90226" lon="19.09555">
        <ele>1433.4599609375</ele>
        <time>2024-09-22T11:44:38.000Z</time>
      </trkpt>
      <trkpt lat="42.90218" lon="19.09558">
        <ele>1433.9399414062</ele>
        <time>2024-09-22T11:44:39.000Z</time>
      </trkpt>
      <trkpt lat="42.90207" lon="19.0956">
        <ele>1434.4200439453</ele>
        <time>2024-09-22T11:44:40.000Z</time>
      </trkpt>
      <trkpt lat="42.90196" lon="19.09559">
        <ele>1434.9100341797</ele>
        <time>2024-09-22T11:44:41.000Z</time>
      </trkpt>
      <trkpt lat="42.90186" lon="19.09556">
        <ele>1434.9100341797</ele>
        <time>2024-09-22T11:44:42.000Z</time>
      </trkpt>
      <trkpt lat="42.9017" lon="19.09552">
        <ele>1435.3900146484</ele>
        <time>2024-09-22T11:44:43.000Z</time>
      </trkpt>
      <trkpt lat="42.90153" lon="19.09549">
        <ele>1435.3900146484</ele>
        <time>2024-09-22T11:44:44.000Z</time>
      </trkpt>
      <trkpt lat="42.90126" lon="19.09545">
        <ele>1435.8699951172</ele>
        <time>2024-09-22T11:44:45.000Z</time>
      </trkpt>
      <trkpt lat="42.90111" lon="19.09543">
        <ele>1435.8699951172</ele>
        <time>2024-09-22T11:44:46.000Z</time>
      </trkpt>
      <trkpt lat="42.90099" lon="19.09541">
        <ele>1436.3499755859</ele>
        <time>2024-09-22T11:44:47.000Z</time>
      </trkpt>
      <trkpt lat="42.90089" lon="19.09541">
        <ele>1436.8299560547</ele>
        <time>2024-09-22T11:44:48.000Z</time>
      </trkpt>
      <trkpt lat="42.90078" lon="19.09545">
        <ele>1437.7900390625</ele>
        <time>2024-09-22T11:44:49.000Z</time>
      </trkpt>
      <trkpt lat="42.90068" lon="19.09553">
        <ele>1438.2700195312</ele>
        <time>2024-09-22T11:44:50.000Z</time>
      </trkpt>
      <trkpt lat="42.90055" lon="19.09568">
        <ele>1439.7099609375</ele>
        <time>2024-09-22T11:44:51.000Z</time>
      </trkpt>
      <trkpt lat="42.90047" lon="19.09575">
        <ele>1440.1899414062</ele>
        <time>2024-09-22T11:44:52.000Z</time>
      </trkpt>
      <trkpt lat="42.90017" lon="19.09596">
        <ele>1442.5999755859</ele>
        <time>2024-09-22T11:44:54.000Z</time>
      </trkpt>
      <trkpt lat="42.90008" lon="19.09602">
        <ele>1443.5600585938</ele>
        <time>2024-09-22T11:44:55.000Z</time>
      </trkpt>
      <trkpt lat="42.9" lon="19.09604">
        <ele>1445</ele>
        <time>2024-09-22T11:44:56.000Z</time>
      </trkpt>
      <trkpt lat="42.89983" lon="19.0961">
        <ele>1445.9599609375</ele>
        <time>2024-09-22T11:44:57.000Z</time>
      </trkpt>
      <trkpt lat="42.89976" lon="19.09611">
        <ele>1445.9599609375</ele>
        <time>2024-09-22T11:44:58.000Z</time>
      </trkpt>
      <trkpt lat="42.89971" lon="19.09611">
        <ele>1445.9599609375</ele>
        <time>2024-09-22T11:44:59.000Z</time>
      </trkpt>
      <trkpt lat="42.89964" lon="19.09605">
        <ele>1446.4399414062</ele>
        <time>2024-09-22T11:45:00.000Z</time>
      </trkpt>
      <trkpt lat="42.89959" lon="19.09596">
        <ele>1446.9200439453</ele>
        <time>2024-09-22T11:45:01.000Z</time>
      </trkpt>
      <trkpt lat="42.89957" lon="19.09581">
        <ele>1447.4000244141</ele>
        <time>2024-09-22T11:45:02.000Z</time>
      </trkpt>
      <trkpt lat="42.89952" lon="19.09559">
        <ele>1448.3599853516</ele>
        <time>2024-09-22T11:45:03.000Z</time>
      </trkpt>
      <trkpt lat="42.89946" lon="19.09536">
        <ele>1449.8100585938</ele>
        <time>2024-09-22T11:45:04.000Z</time>
      </trkpt>
      <trkpt lat="42.89945" lon="19.09533">
        <ele>1450.2900390625</ele>
        <time>2024-09-22T11:45:05.000Z</time>
      </trkpt>
      <trkpt lat="42.8994" lon="19.09519">
        <ele>1451.7299804688</ele>
        <time>2024-09-22T11:45:06.000Z</time>
      </trkpt>
      <trkpt lat="42.89934" lon="19.09512">
        <ele>1453.1700439453</ele>
        <time>2024-09-22T11:45:07.000Z</time>
      </trkpt>
      <trkpt lat="42.89926" lon="19.09508">
        <ele>1454.1300048828</ele>
        <time>2024-09-22T11:45:08.000Z</time>
      </trkpt>
      <trkpt lat="42.89916" lon="19.09509">
        <ele>1455.5699462891</ele>
        <time>2024-09-22T11:45:09.000Z</time>
      </trkpt>
      <trkpt lat="42.89906" lon="19.09516">
        <ele>1456.0500488281</ele>
        <time>2024-09-22T11:45:10.000Z</time>
      </trkpt>
      <trkpt lat="42.89897" lon="19.09526">
        <ele>1456.5300292969</ele>
        <time>2024-09-22T11:45:11.000Z</time>
      </trkpt>
      <trkpt lat="42.89867" lon="19.09575">
        <ele>1459.4200439453</ele>
        <time>2024-09-22T11:45:14.000Z</time>
      </trkpt>
      <trkpt lat="42.89862" lon="19.09583">
        <ele>1459.9000244141</ele>
        <time>2024-09-22T11:45:15.000Z</time>
      </trkpt>
      <trkpt lat="42.89851" lon="19.09594">
        <ele>1460.3800048828</ele>
        <time>2024-09-22T11:45:16.000Z</time>
      </trkpt>
      <trkpt lat="42.89843" lon="19.09601">
        <ele>1461.3399658203</ele>
        <time>2024-09-22T11:45:17.000Z</time>
      </trkpt>
      <trkpt lat="42.89832" lon="19.09606">
        <ele>1461.8199462891</ele>
        <time>2024-09-22T11:45:18.000Z</time>
      </trkpt>
      <trkpt lat="42.89819" lon="19.09607">
        <ele>1462.3000488281</ele>
        <time>2024-09-22T11:45:19.000Z</time>
      </trkpt>
      <trkpt lat="42.89806" lon="19.09604">
        <ele>1463.2600097656</ele>
        <time>2024-09-22T11:45:20.000Z</time>
      </trkpt>
      <trkpt lat="42.89796" lon="19.09595">
        <ele>1464.7099609375</ele>
        <time>2024-09-22T11:45:21.000Z</time>
      </trkpt>
      <trkpt lat="42.89788" lon="19.09583">
        <ele>1465.6700439453</ele>
        <time>2024-09-22T11:45:22.000Z</time>
      </trkpt>
      <trkpt lat="42.89783" lon="19.09573">
        <ele>1466.1500244141</ele>
        <time>2024-09-22T11:45:23.000Z</time>
      </trkpt>
      <trkpt lat="42.89779" lon="19.09557">
        <ele>1467.5899658203</ele>
        <time>2024-09-22T11:45:24.000Z</time>
      </trkpt>
      <trkpt lat="42.89774" lon="19.09545">
        <ele>1468.5500488281</ele>
        <time>2024-09-22T11:45:25.000Z</time>
      </trkpt>
      <trkpt lat="42.89767" lon="19.09534">
        <ele>1469.0300292969</ele>
        <time>2024-09-22T11:45:26.000Z</time>
      </trkpt>
      <trkpt lat="42.89758" lon="19.09525">
        <ele>1469.5100097656</ele>
        <time>2024-09-22T11:45:27.000Z</time>
      </trkpt>
      <trkpt lat="42.89747" lon="19.09519">
        <ele>1469.5100097656</ele>
        <time>2024-09-22T11:45:28.000Z</time>
      </trkpt>
      <trkpt lat="42.89733" lon="19.09517">
        <ele>1469.5100097656</ele>
        <time>2024-09-22T11:45:29.000Z</time>
      </trkpt>
      <trkpt lat="42.89714" lon="19.09517">
        <ele>1470.4699707031</ele>
        <time>2024-09-22T11:45:30.000Z</time>
      </trkpt>
      <trkpt lat="42.89704" lon="19.09519">
        <ele>1470.9499511719</ele>
        <time>2024-09-22T11:45:31.000Z</time>
      </trkpt>
      <trkpt lat="42.89694" lon="19.09524">
        <ele>1471.4399414062</ele>
        <time>2024-09-22T11:45:32.000Z</time>
      </trkpt>
      <trkpt lat="42.89687" lon="19.09531">
        <ele>1471.9200439453</ele>
        <time>2024-09-22T11:45:33.000Z</time>
      </trkpt>
      <trkpt lat="42.89682" lon="19.09543">
        <ele>1472.4000244141</ele>
        <time>2024-09-22T11:45:34.000Z</time>
      </trkpt>
      <trkpt lat="42.89676" lon="19.09562">
        <ele>1473.3599853516</ele>
        <time>2024-09-22T11:45:35.000Z</time>
      </trkpt>
      <trkpt lat="42.8967" lon="19.0958">
        <ele>1474.3199462891</ele>
        <time>2024-09-22T11:45:36.000Z</time>
      </trkpt>
      <trkpt lat="42.89651" lon="19.09634">
        <ele>1477.1999511719</ele>
        <time>2024-09-22T11:45:39.000Z</time>
      </trkpt>
      <trkpt lat="42.89632" lon="19.09723">
        <ele>1482.0100097656</ele>
        <time>2024-09-22T11:45:43.000Z</time>
      </trkpt>
      <trkpt lat="42.89625" lon="19.09745">
        <ele>1483.4499511719</ele>
        <time>2024-09-22T11:45:44.000Z</time>
      </trkpt>
      <trkpt lat="42.89618" lon="19.09761">
        <ele>1484.4100341797</ele>
        <time>2024-09-22T11:45:45.000Z</time>
      </trkpt>
      <trkpt lat="42.89609" lon="19.09778">
        <ele>1485.3699951172</ele>
        <time>2024-09-22T11:45:46.000Z</time>
      </trkpt>
      <trkpt lat="42.89599" lon="19.09791">
        <ele>1486.3399658203</ele>
        <time>2024-09-22T11:45:47.000Z</time>
      </trkpt>
      <trkpt lat="42.89586" lon="19.09801">
        <ele>1487.3000488281</ele>
        <time>2024-09-22T11:45:48.000Z</time>
      </trkpt>
      <trkpt lat="42.89492" lon="19.09859">
        <ele>1490.6600341797</ele>
        <time>2024-09-22T11:45:54.000Z</time>
      </trkpt>
      <trkpt lat="42.89484" lon="19.09866">
        <ele>1491.1400146484</ele>
        <time>2024-09-22T11:45:55.000Z</time>
      </trkpt>
      <trkpt lat="42.89474" lon="19.09877">
        <ele>1491.1400146484</ele>
        <time>2024-09-22T11:45:56.000Z</time>
      </trkpt>
      <trkpt lat="42.89464" lon="19.09891">
        <ele>1491.6199951172</ele>
        <time>2024-09-22T11:45:57.000Z</time>
      </trkpt>
      <trkpt lat="42.89391" lon="19.10026">
        <ele>1493.0600585938</ele>
        <time>2024-09-22T11:46:03.000Z</time>
      </trkpt>
      <trkpt lat="42.89355" lon="19.10095">
        <ele>1494.9899902344</ele>
        <time>2024-09-22T11:46:07.000Z</time>
      </trkpt>
      <trkpt lat="42.89351" lon="19.10102">
        <ele>1494.9899902344</ele>
        <time>2024-09-22T11:46:08.000Z</time>
      </trkpt>
      <trkpt lat="42.89342" lon="19.10114">
        <ele>1495.4699707031</ele>
        <time>2024-09-22T11:46:09.000Z</time>
      </trkpt>
      <trkpt lat="42.89281" lon="19.10177">
        <ele>1493.0600585938</ele>
        <time>2024-09-22T11:46:13.000Z</time>
      </trkpt>
      <trkpt lat="42.89278" lon="19.1018">
        <ele>1493.0600585938</ele>
        <time>2024-09-22T11:46:14.000Z</time>
      </trkpt>
      <trkpt lat="42.89264" lon="19.10189">
        <ele>1493.0600585938</ele>
        <time>2024-09-22T11:46:15.000Z</time>
      </trkpt>
      <trkpt lat="42.89215" lon="19.10207">
        <ele>1491.6199951172</ele>
        <time>2024-09-22T11:46:18.000Z</time>
      </trkpt>
      <trkpt lat="42.89201" lon="19.10209">
        <ele>1491.6199951172</ele>
        <time>2024-09-22T11:46:19.000Z</time>
      </trkpt>
      <trkpt lat="42.89187" lon="19.10209">
        <ele>1491.1400146484</ele>
        <time>2024-09-22T11:46:20.000Z</time>
      </trkpt>
      <trkpt lat="42.89174" lon="19.10206">
        <ele>1490.6600341797</ele>
        <time>2024-09-22T11:46:21.000Z</time>
      </trkpt>
      <trkpt lat="42.89164" lon="19.10198">
        <ele>1490.6600341797</ele>
        <time>2024-09-22T11:46:22.000Z</time>
      </trkpt>
      <trkpt lat="42.89154" lon="19.10188">
        <ele>1490.6600341797</ele>
        <time>2024-09-22T11:46:23.000Z</time>
      </trkpt>
      <trkpt lat="42.89146" lon="19.10177">
        <ele>1490.1800537109</ele>
        <time>2024-09-22T11:46:24.000Z</time>
      </trkpt>
      <trkpt lat="42.89109" lon="19.1011">
        <ele>1487.7800292969</ele>
        <time>2024-09-22T11:46:29.000Z</time>
      </trkpt>
      <trkpt lat="42.89104" lon="19.10096">
        <ele>1487.3000488281</ele>
        <time>2024-09-22T11:46:30.000Z</time>
      </trkpt>
      <trkpt lat="42.89099" lon="19.10081">
        <ele>1486.8199462891</ele>
        <time>2024-09-22T11:46:31.000Z</time>
      </trkpt>
      <trkpt lat="42.89096" lon="19.10062">
        <ele>1486.3399658203</ele>
        <time>2024-09-22T11:46:32.000Z</time>
      </trkpt>
      <trkpt lat="42.89094" lon="19.10048">
        <ele>1485.8499755859</ele>
        <time>2024-09-22T11:46:33.000Z</time>
      </trkpt>
      <trkpt lat="42.89093" lon="19.10029">
        <ele>1485.3699951172</ele>
        <time>2024-09-22T11:46:34.000Z</time>
      </trkpt>
      <trkpt lat="42.89096" lon="19.09977">
        <ele>1483.4499511719</ele>
        <time>2024-09-22T11:46:36.000Z</time>
      </trkpt>
      <trkpt lat="42.89097" lon="19.09972">
        <ele>1482.9699707031</ele>
        <time>2024-09-22T11:46:37.000Z</time>
      </trkpt>
      <trkpt lat="42.89096" lon="19.09958">
        <ele>1482.9699707031</ele>
        <time>2024-09-22T11:46:38.000Z</time>
      </trkpt>
      <trkpt lat="42.89093" lon="19.09945">
        <ele>1482.4899902344</ele>
        <time>2024-09-22T11:46:39.000Z</time>
      </trkpt>
      <trkpt lat="42.89087" lon="19.09933">
        <ele>1482.4899902344</ele>
        <time>2024-09-22T11:46:40.000Z</time>
      </trkpt>
      <trkpt lat="42.89079" lon="19.09921">
        <ele>1481.5300292969</ele>
        <time>2024-09-22T11:46:41.000Z</time>
      </trkpt>
      <trkpt lat="42.89071" lon="19.09912">
        <ele>1481.0500488281</ele>
        <time>2024-09-22T11:46:42.000Z</time>
      </trkpt>
      <trkpt lat="42.89063" lon="19.09907">
        <ele>1480.5699462891</ele>
        <time>2024-09-22T11:46:43.000Z</time>
      </trkpt>
      <trkpt lat="42.89055" lon="19.09907">
        <ele>1480.5699462891</ele>
        <time>2024-09-22T11:46:44.000Z</time>
      </trkpt>
      <trkpt lat="42.89048" lon="19.09912">
        <ele>1480.0899658203</ele>
        <time>2024-09-22T11:46:45.000Z</time>
      </trkpt>
      <trkpt lat="42.89037" lon="19.09924">
        <ele>1480.0899658203</ele>
        <time>2024-09-22T11:46:46.000Z</time>
      </trkpt>
      <trkpt lat="42.89033" lon="19.09928">
        <ele>1480.0899658203</ele>
        <time>2024-09-22T11:46:47.000Z</time>
      </trkpt>
      <trkpt lat="42.89025" lon="19.09935">
        <ele>1479.6099853516</ele>
        <time>2024-09-22T11:46:48.000Z</time>
      </trkpt>
      <trkpt lat="42.89014" lon="19.09941">
        <ele>1479.1300048828</ele>
        <time>2024-09-22T11:46:49.000Z</time>
      </trkpt>
      <trkpt lat="42.89002" lon="19.09944">
        <ele>1478.1600341797</ele>
        <time>2024-09-22T11:46:50.000Z</time>
      </trkpt>
      <trkpt lat="42.8899" lon="19.09943">
        <ele>1477.1999511719</ele>
        <time>2024-09-22T11:46:51.000Z</time>
      </trkpt>
      <trkpt lat="42.88977" lon="19.0994">
        <ele>1476.2399902344</ele>
        <time>2024-09-22T11:46:52.000Z</time>
      </trkpt>
      <trkpt lat="42.88965" lon="19.09935">
        <ele>1475.2800292969</ele>
        <time>2024-09-22T11:46:53.000Z</time>
      </trkpt>
      <trkpt lat="42.88952" lon="19.09927">
        <ele>1474.3199462891</ele>
        <time>2024-09-22T11:46:54.000Z</time>
      </trkpt>
      <trkpt lat="42.88942" lon="19.09917">
        <ele>1473.8399658203</ele>
        <time>2024-09-22T11:46:55.000Z</time>
      </trkpt>
      <trkpt lat="42.88914" lon="19.09885">
        <ele>1471.4399414062</ele>
        <time>2024-09-22T11:46:57.000Z</time>
      </trkpt>
      <trkpt lat="42.88907" lon="19.09878">
        <ele>1470.9499511719</ele>
        <time>2024-09-22T11:46:58.000Z</time>
      </trkpt>
      <trkpt lat="42.88877" lon="19.0985">
        <ele>1468.5500488281</ele>
        <time>2024-09-22T11:47:00.000Z</time>
      </trkpt>
      <trkpt lat="42.8887" lon="19.09843">
        <ele>1468.0699462891</ele>
        <time>2024-09-22T11:47:01.000Z</time>
      </trkpt>
      <trkpt lat="42.88838" lon="19.09804">
        <ele>1465.6700439453</ele>
        <time>2024-09-22T11:47:04.000Z</time>
      </trkpt>
      <trkpt lat="42.88801" lon="19.09738">
        <ele>1462.7800292969</ele>
        <time>2024-09-22T11:47:08.000Z</time>
      </trkpt>
      <trkpt lat="42.88794" lon="19.09725">
        <ele>1461.8199462891</ele>
        <time>2024-09-22T11:47:09.000Z</time>
      </trkpt>
      <trkpt lat="42.88783" lon="19.0971">
        <ele>1460.8599853516</ele>
        <time>2024-09-22T11:47:10.000Z</time>
      </trkpt>
      <trkpt lat="42.88772" lon="19.09695">
        <ele>1460.3800048828</ele>
        <time>2024-09-22T11:47:11.000Z</time>
      </trkpt>
      <trkpt lat="42.88734" lon="19.09658">
        <ele>1457.5</ele>
        <time>2024-09-22T11:47:14.000Z</time>
      </trkpt>
      <trkpt lat="42.88728" lon="19.09654">
        <ele>1457.0200195312</ele>
        <time>2024-09-22T11:47:15.000Z</time>
      </trkpt>
      <trkpt lat="42.88715" lon="19.09646">
        <ele>1456.0500488281</ele>
        <time>2024-09-22T11:47:16.000Z</time>
      </trkpt>
      <trkpt lat="42.88683" lon="19.0963">
        <ele>1454.1300048828</ele>
        <time>2024-09-22T11:47:18.000Z</time>
      </trkpt>
      <trkpt lat="42.88678" lon="19.09626">
        <ele>1454.1300048828</ele>
        <time>2024-09-22T11:47:19.000Z</time>
      </trkpt>
      <trkpt lat="42.88666" lon="19.09617">
        <ele>1453.1700439453</ele>
        <time>2024-09-22T11:47:20.000Z</time>
      </trkpt>
      <trkpt lat="42.88646" lon="19.09597">
        <ele>1451.7299804688</ele>
        <time>2024-09-22T11:47:21.000Z</time>
      </trkpt>
      <trkpt lat="42.88641" lon="19.09592">
        <ele>1451.7299804688</ele>
        <time>2024-09-22T11:47:22.000Z</time>
      </trkpt>
      <trkpt lat="42.88611" lon="19.0957">
        <ele>1449.8100585938</ele>
        <time>2024-09-22T11:47:24.000Z</time>
      </trkpt>
      <trkpt lat="42.88602" lon="19.09561">
        <ele>1449.3199462891</ele>
        <time>2024-09-22T11:47:25.000Z</time>
      </trkpt>
      <trkpt lat="42.88576" lon="19.09537">
        <ele>1447.4000244141</ele>
        <time>2024-09-22T11:47:27.000Z</time>
      </trkpt>
      <trkpt lat="42.88531" lon="19.09503">
        <ele>1444.5200195312</ele>
        <time>2024-09-22T11:47:30.000Z</time>
      </trkpt>
      <trkpt lat="42.88527" lon="19.09499">
        <ele>1444.0400390625</ele>
        <time>2024-09-22T11:47:31.000Z</time>
      </trkpt>
      <trkpt lat="42.88518" lon="19.0949">
        <ele>1443.5600585938</ele>
        <time>2024-09-22T11:47:32.000Z</time>
      </trkpt>
      <trkpt lat="42.88505" lon="19.09468">
        <ele>1442.1099853516</ele>
        <time>2024-09-22T11:47:33.000Z</time>
      </trkpt>
      <trkpt lat="42.88503" lon="19.09464">
        <ele>1441.6300048828</ele>
        <time>2024-09-22T11:47:34.000Z</time>
      </trkpt>
      <trkpt lat="42.88495" lon="19.09452">
        <ele>1441.1500244141</ele>
        <time>2024-09-22T11:47:35.000Z</time>
      </trkpt>
      <trkpt lat="42.88485" lon="19.09443">
        <ele>1440.6700439453</ele>
        <time>2024-09-22T11:47:36.000Z</time>
      </trkpt>
      <trkpt lat="42.88473" lon="19.09437">
        <ele>1439.7099609375</ele>
        <time>2024-09-22T11:47:37.000Z</time>
      </trkpt>
      <trkpt lat="42.88352" lon="19.09393">
        <ele>1433.9399414062</ele>
        <time>2024-09-22T11:47:46.000Z</time>
      </trkpt>
      <trkpt lat="42.88303" lon="19.09375">
        <ele>1432.0200195312</ele>
        <time>2024-09-22T11:47:52.000Z</time>
      </trkpt>
      <trkpt lat="42.88297" lon="19.09373">
        <ele>1432.0200195312</ele>
        <time>2024-09-22T11:47:53.000Z</time>
      </trkpt>
      <trkpt lat="42.88293" lon="19.09374">
        <ele>1431.5400390625</ele>
        <time>2024-09-22T11:47:54.000Z</time>
      </trkpt>
      <trkpt lat="42.88289" lon="19.09378">
        <ele>1431.0600585938</ele>
        <time>2024-09-22T11:47:55.000Z</time>
      </trkpt>
      <trkpt lat="42.88287" lon="19.09384">
        <ele>1430.5799560547</ele>
        <time>2024-09-22T11:47:56.000Z</time>
      </trkpt>
      <trkpt lat="42.88285" lon="19.09391">
        <ele>1430.5799560547</ele>
        <time>2024-09-22T11:47:57.000Z</time>
      </trkpt>
      <trkpt lat="42.88283" lon="19.09409">
        <ele>1430.5799560547</ele>
        <time>2024-09-22T11:47:59.000Z</time>
      </trkpt>
      <trkpt lat="42.88279" lon="19.09435">
        <ele>1430.0999755859</ele>
        <time>2024-09-22T11:48:01.000Z</time>
      </trkpt>
      <trkpt lat="42.88277" lon="19.09447">
        <ele>1430.5799560547</ele>
        <time>2024-09-22T11:48:02.000Z</time>
      </trkpt>
      <trkpt lat="42.88273" lon="19.09466">
        <ele>1430.5799560547</ele>
        <time>2024-09-22T11:48:04.000Z</time>
      </trkpt>
      <trkpt lat="42.88272" lon="19.09477">
        <ele>1430.5799560547</ele>
        <time>2024-09-22T11:48:05.000Z</time>
      </trkpt>
      <trkpt lat="42.88272" lon="19.09488">
        <ele>1431.0600585938</ele>
        <time>2024-09-22T11:48:06.000Z</time>
      </trkpt>
      <trkpt lat="42.88273" lon="19.09498">
        <ele>1431.5400390625</ele>
        <time>2024-09-22T11:48:07.000Z</time>
      </trkpt>
      <trkpt lat="42.88276" lon="19.0951">
        <ele>1432.0200195312</ele>
        <time>2024-09-22T11:48:08.000Z</time>
      </trkpt>
      <trkpt lat="42.8828" lon="19.09522">
        <ele>1432.5</ele>
        <time>2024-09-22T11:48:09.000Z</time>
      </trkpt>
      <trkpt lat="42.88287" lon="19.09537">
        <ele>1433.4599609375</ele>
        <time>2024-09-22T11:48:10.000Z</time>
      </trkpt>
      <trkpt lat="42.8829" lon="19.09544">
        <ele>1433.9399414062</ele>
        <time>2024-09-22T11:48:11.000Z</time>
      </trkpt>
      <trkpt lat="42.88293" lon="19.09556">
        <ele>1434.4200439453</ele>
        <time>2024-09-22T11:48:12.000Z</time>
      </trkpt>
      <trkpt lat="42.88295" lon="19.09569">
        <ele>1434.9100341797</ele>
        <time>2024-09-22T11:48:13.000Z</time>
      </trkpt>
      <trkpt lat="42.88296" lon="19.09583">
        <ele>1435.3900146484</ele>
        <time>2024-09-22T11:48:14.000Z</time>
      </trkpt>
      <trkpt lat="42.88296" lon="19.09613">
        <ele>1435.8699951172</ele>
        <time>2024-09-22T11:48:16.000Z</time>
      </trkpt>
      <trkpt lat="42.88296" lon="19.09627">
        <ele>1436.3499755859</ele>
        <time>2024-09-22T11:48:17.000Z</time>
      </trkpt>
      <trkpt lat="42.88297" lon="19.0964">
        <ele>1436.8299560547</ele>
        <time>2024-09-22T11:48:18.000Z</time>
      </trkpt>
      <trkpt lat="42.88299" lon="19.09654">
        <ele>1437.3100585938</ele>
        <time>2024-09-22T11:48:19.000Z</time>
      </trkpt>
      <trkpt lat="42.88301" lon="19.09663">
        <ele>1437.7900390625</ele>
        <time>2024-09-22T11:48:20.000Z</time>
      </trkpt>
      <trkpt lat="42.88304" lon="19.09673">
        <ele>1438.2700195312</ele>
        <time>2024-09-22T11:48:21.000Z</time>
      </trkpt>
      <trkpt lat="42.88317" lon="19.09707">
        <ele>1437.7900390625</ele>
        <time>2024-09-22T11:48:24.000Z</time>
      </trkpt>
      <trkpt lat="42.88319" lon="19.09711">
        <ele>1437.7900390625</ele>
        <time>2024-09-22T11:48:25.000Z</time>
      </trkpt>
      <trkpt lat="42.88324" lon="19.0972">
        <ele>1437.3100585938</ele>
        <time>2024-09-22T11:48:26.000Z</time>
      </trkpt>
      <trkpt lat="42.88331" lon="19.09727">
        <ele>1437.3100585938</ele>
        <time>2024-09-22T11:48:27.000Z</time>
      </trkpt>
      <trkpt lat="42.88396" lon="19.09785">
        <ele>1438.75</ele>
        <time>2024-09-22T11:48:33.000Z</time>
      </trkpt>
      <trkpt lat="42.88433" lon="19.09824">
        <ele>1439.7099609375</ele>
        <time>2024-09-22T11:48:38.000Z</time>
      </trkpt>
      <trkpt lat="42.88439" lon="19.0983">
        <ele>1439.7099609375</ele>
        <time>2024-09-22T11:48:39.000Z</time>
      </trkpt>
      <trkpt lat="42.88448" lon="19.09836">
        <ele>1439.7099609375</ele>
        <time>2024-09-22T11:48:40.000Z</time>
      </trkpt>
      <trkpt lat="42.88455" lon="19.09842">
        <ele>1439.7099609375</ele>
        <time>2024-09-22T11:48:41.000Z</time>
      </trkpt>
      <trkpt lat="42.88464" lon="19.09851">
        <ele>1439.7099609375</ele>
        <time>2024-09-22T11:48:42.000Z</time>
      </trkpt>
      <trkpt lat="42.88503" lon="19.09885">
        <ele>1441.6300048828</ele>
        <time>2024-09-22T11:48:46.000Z</time>
      </trkpt>
      <trkpt lat="42.88523" lon="19.09905">
        <ele>1441.6300048828</ele>
        <time>2024-09-22T11:48:48.000Z</time>
      </trkpt>
      <trkpt lat="42.8853" lon="19.09912">
        <ele>1442.1099853516</ele>
        <time>2024-09-22T11:48:49.000Z</time>
      </trkpt>
      <trkpt lat="42.88552" lon="19.09929">
        <ele>1443.5600585938</ele>
        <time>2024-09-22T11:48:51.000Z</time>
      </trkpt>
      <trkpt lat="42.88559" lon="19.09936">
        <ele>1444.0400390625</ele>
        <time>2024-09-22T11:48:52.000Z</time>
      </trkpt>
      <trkpt lat="42.88572" lon="19.09949">
        <ele>1445.4799804688</ele>
        <time>2024-09-22T11:48:53.000Z</time>
      </trkpt>
      <trkpt lat="42.88579" lon="19.09958">
        <ele>1446.4399414062</ele>
        <time>2024-09-22T11:48:54.000Z</time>
      </trkpt>
      <trkpt lat="42.88585" lon="19.09966">
        <ele>1447.4000244141</ele>
        <time>2024-09-22T11:48:55.000Z</time>
      </trkpt>
      <trkpt lat="42.88596" lon="19.09986">
        <ele>1449.8100585938</ele>
        <time>2024-09-22T11:48:56.000Z</time>
      </trkpt>
      <trkpt lat="42.88597" lon="19.09988">
        <ele>1449.8100585938</ele>
        <time>2024-09-22T11:48:57.000Z</time>
      </trkpt>
      <trkpt lat="42.88603" lon="19.09997">
        <ele>1451.25</ele>
        <time>2024-09-22T11:48:58.000Z</time>
      </trkpt>
      <trkpt lat="42.88609" lon="19.10003">
        <ele>1452.2099609375</ele>
        <time>2024-09-22T11:48:59.000Z</time>
      </trkpt>
      <trkpt lat="42.88617" lon="19.10011">
        <ele>1453.1700439453</ele>
        <time>2024-09-22T11:49:00.000Z</time>
      </trkpt>
      <trkpt lat="42.88632" lon="19.1002">
        <ele>1455.0899658203</ele>
        <time>2024-09-22T11:49:01.000Z</time>
      </trkpt>
      <trkpt lat="42.88634" lon="19.10021">
        <ele>1455.0899658203</ele>
        <time>2024-09-22T11:49:02.000Z</time>
      </trkpt>
      <trkpt lat="42.8864" lon="19.10026">
        <ele>1456.0500488281</ele>
        <time>2024-09-22T11:49:03.000Z</time>
      </trkpt>
      <trkpt lat="42.88645" lon="19.10032">
        <ele>1457.0200195312</ele>
        <time>2024-09-22T11:49:04.000Z</time>
      </trkpt>
      <trkpt lat="42.8865" lon="19.10041">
        <ele>1458.4599609375</ele>
        <time>2024-09-22T11:49:05.000Z</time>
      </trkpt>
      <trkpt lat="42.88657" lon="19.10061">
        <ele>1460.3800048828</ele>
        <time>2024-09-22T11:49:06.000Z</time>
      </trkpt>
      <trkpt lat="42.88658" lon="19.10065">
        <ele>1460.8599853516</ele>
        <time>2024-09-22T11:49:07.000Z</time>
      </trkpt>
      <trkpt lat="42.88664" lon="19.10088">
        <ele>1462.7800292969</ele>
        <time>2024-09-22T11:49:08.000Z</time>
      </trkpt>
      <trkpt lat="42.88665" lon="19.10091">
        <ele>1463.2600097656</ele>
        <time>2024-09-22T11:49:09.000Z</time>
      </trkpt>
      <trkpt lat="42.8867" lon="19.10108">
        <ele>1464.2299804688</ele>
        <time>2024-09-22T11:49:10.000Z</time>
      </trkpt>
      <trkpt lat="42.88672" lon="19.10119">
        <ele>1464.7099609375</ele>
        <time>2024-09-22T11:49:11.000Z</time>
      </trkpt>
      <trkpt lat="42.88679" lon="19.10159">
        <ele>1465.6700439453</ele>
        <time>2024-09-22T11:49:13.000Z</time>
      </trkpt>
      <trkpt lat="42.8868" lon="19.10161">
        <ele>1465.6700439453</ele>
        <time>2024-09-22T11:49:14.000Z</time>
      </trkpt>
      <trkpt lat="42.88683" lon="19.10174">
        <ele>1465.6700439453</ele>
        <time>2024-09-22T11:49:15.000Z</time>
      </trkpt>
      <trkpt lat="42.88687" lon="19.1019">
        <ele>1466.1500244141</ele>
        <time>2024-09-22T11:49:16.000Z</time>
      </trkpt>
      <trkpt lat="42.8869" lon="19.10201">
        <ele>1466.6300048828</ele>
        <time>2024-09-22T11:49:17.000Z</time>
      </trkpt>
      <trkpt lat="42.88692" lon="19.10212">
        <ele>1467.1099853516</ele>
        <time>2024-09-22T11:49:18.000Z</time>
      </trkpt>
      <trkpt lat="42.88691" lon="19.10223">
        <ele>1467.5899658203</ele>
        <time>2024-09-22T11:49:19.000Z</time>
      </trkpt>
      <trkpt lat="42.88688" lon="19.10234">
        <ele>1468.5500488281</ele>
        <time>2024-09-22T11:49:20.000Z</time>
      </trkpt>
      <trkpt lat="42.88669" lon="19.10285">
        <ele>1470.9499511719</ele>
        <time>2024-09-22T11:49:24.000Z</time>
      </trkpt>
      <trkpt lat="42.88667" lon="19.10291">
        <ele>1470.9499511719</ele>
        <time>2024-09-22T11:49:25.000Z</time>
      </trkpt>
      <trkpt lat="42.88666" lon="19.10295">
        <ele>1470.9499511719</ele>
        <time>2024-09-22T11:49:26.000Z</time>
      </trkpt>
      <trkpt lat="42.88663" lon="19.10304">
        <ele>1470.9499511719</ele>
        <time>2024-09-22T11:49:27.000Z</time>
      </trkpt>
      <trkpt lat="42.88661" lon="19.10315">
        <ele>1470.9499511719</ele>
        <time>2024-09-22T11:49:28.000Z</time>
      </trkpt>
      <trkpt lat="42.88659" lon="19.10321">
        <ele>1470.9499511719</ele>
        <time>2024-09-22T11:49:29.000Z</time>
      </trkpt>
      <trkpt lat="42.88651" lon="19.10334">
        <ele>1470.9499511719</ele>
        <time>2024-09-22T11:49:30.000Z</time>
      </trkpt>
      <trkpt lat="42.88646" lon="19.1034">
        <ele>1470.9499511719</ele>
        <time>2024-09-22T11:49:31.000Z</time>
      </trkpt>
      <trkpt lat="42.88642" lon="19.10346">
        <ele>1471.4399414062</ele>
        <time>2024-09-22T11:49:32.000Z</time>
      </trkpt>
      <trkpt lat="42.88632" lon="19.10357">
        <ele>1471.9200439453</ele>
        <time>2024-09-22T11:49:33.000Z</time>
      </trkpt>
      <trkpt lat="42.88629" lon="19.10359">
        <ele>1471.9200439453</ele>
        <time>2024-09-22T11:49:34.000Z</time>
      </trkpt>
      <trkpt lat="42.88622" lon="19.10368">
        <ele>1472.8800048828</ele>
        <time>2024-09-22T11:49:35.000Z</time>
      </trkpt>
      <trkpt lat="42.88617" lon="19.10375">
        <ele>1473.3599853516</ele>
        <time>2024-09-22T11:49:36.000Z</time>
      </trkpt>
      <trkpt lat="42.88604" lon="19.10393">
        <ele>1474.8000488281</ele>
        <time>2024-09-22T11:49:38.000Z</time>
      </trkpt>
      <trkpt lat="42.88601" lon="19.10399">
        <ele>1475.2800292969</ele>
        <time>2024-09-22T11:49:39.000Z</time>
      </trkpt>
      <trkpt lat="42.88598" lon="19.10408">
        <ele>1476.2399902344</ele>
        <time>2024-09-22T11:49:40.000Z</time>
      </trkpt>
      <trkpt lat="42.88595" lon="19.10417">
        <ele>1477.1999511719</ele>
        <time>2024-09-22T11:49:41.000Z</time>
      </trkpt>
      <trkpt lat="42.88593" lon="19.1043">
        <ele>1477.6800537109</ele>
        <time>2024-09-22T11:49:42.000Z</time>
      </trkpt>
      <trkpt lat="42.8859" lon="19.10445">
        <ele>1479.1300048828</ele>
        <time>2024-09-22T11:49:44.000Z</time>
      </trkpt>
      <trkpt lat="42.88587" lon="19.10462">
        <ele>1480.0899658203</ele>
        <time>2024-09-22T11:49:46.000Z</time>
      </trkpt>
      <trkpt lat="42.88587" lon="19.10465">
        <ele>1480.5699462891</ele>
        <time>2024-09-22T11:49:47.000Z</time>
      </trkpt>
      <trkpt lat="42.88585" lon="19.10469">
        <ele>1480.5699462891</ele>
        <time>2024-09-22T11:49:48.000Z</time>
      </trkpt>
      <trkpt lat="42.88581" lon="19.10488">
        <ele>1481.5300292969</ele>
        <time>2024-09-22T11:49:56.000Z</time>
      </trkpt>
      <trkpt lat="42.88581" lon="19.10497">
        <ele>1481.5300292969</ele>
        <time>2024-09-22T11:50:02.000Z</time>
      </trkpt>
      <trkpt lat="42.88581" lon="19.10504">
        <ele>1481.5300292969</ele>
        <time>2024-09-22T11:50:03.000Z</time>
      </trkpt>
      <trkpt lat="42.88581" lon="19.10512">
        <ele>1481.5300292969</ele>
        <time>2024-09-22T11:50:04.000Z</time>
      </trkpt>
      <trkpt lat="42.8858" lon="19.1052">
        <ele>1481.5300292969</ele>
        <time>2024-09-22T11:50:05.000Z</time>
      </trkpt>
      <trkpt lat="42.88577" lon="19.10538">
        <ele>1482.0100097656</ele>
        <time>2024-09-22T11:50:07.000Z</time>
      </trkpt>
      <trkpt lat="42.88577" lon="19.10542">
        <ele>1482.0100097656</ele>
        <time>2024-09-22T11:50:08.000Z</time>
      </trkpt>
      <trkpt lat="42.88576" lon="19.10553">
        <ele>1482.0100097656</ele>
        <time>2024-09-22T11:50:09.000Z</time>
      </trkpt>
      <trkpt lat="42.88576" lon="19.1057">
        <ele>1482.9699707031</ele>
        <time>2024-09-22T11:50:10.000Z</time>
      </trkpt>
      <trkpt lat="42.88576" lon="19.10573">
        <ele>1482.9699707031</ele>
        <time>2024-09-22T11:50:11.000Z</time>
      </trkpt>
      <trkpt lat="42.88577" lon="19.10582">
        <ele>1483.4499511719</ele>
        <time>2024-09-22T11:50:12.000Z</time>
      </trkpt>
      <trkpt lat="42.88578" lon="19.10593">
        <ele>1483.4499511719</ele>
        <time>2024-09-22T11:50:13.000Z</time>
      </trkpt>
      <trkpt lat="42.88578" lon="19.10612">
        <ele>1483.9300537109</ele>
        <time>2024-09-22T11:50:15.000Z</time>
      </trkpt>
      <trkpt lat="42.88578" lon="19.10619">
        <ele>1483.9300537109</ele>
        <time>2024-09-22T11:50:16.000Z</time>
      </trkpt>
      <trkpt lat="42.88577" lon="19.10633">
        <ele>1483.9300537109</ele>
        <time>2024-09-22T11:50:17.000Z</time>
      </trkpt>
      <trkpt lat="42.88576" lon="19.10642">
        <ele>1483.9300537109</ele>
        <time>2024-09-22T11:50:19.000Z</time>
      </trkpt>
      <trkpt lat="42.88575" lon="19.10648">
        <ele>1483.9300537109</ele>
        <time>2024-09-22T11:50:20.000Z</time>
      </trkpt>
      <trkpt lat="42.88573" lon="19.10654">
        <ele>1483.9300537109</ele>
        <time>2024-09-22T11:50:21.000Z</time>
      </trkpt>
      <trkpt lat="42.88569" lon="19.10664">
        <ele>1483.9300537109</ele>
        <time>2024-09-22T11:50:23.000Z</time>
      </trkpt>
      <trkpt lat="42.88567" lon="19.10667">
        <ele>1483.9300537109</ele>
        <time>2024-09-22T11:50:24.000Z</time>
      </trkpt>
      <trkpt lat="42.88565" lon="19.10671">
        <ele>1483.9300537109</ele>
        <time>2024-09-22T11:50:25.000Z</time>
      </trkpt>
      <trkpt lat="42.88555" lon="19.10683">
        <ele>1484.4100341797</ele>
        <time>2024-09-22T11:50:27.000Z</time>
      </trkpt>
      <trkpt lat="42.88544" lon="19.10697">
        <ele>1484.8900146484</ele>
        <time>2024-09-22T11:50:29.000Z</time>
      </trkpt>
      <trkpt lat="42.88539" lon="19.10703">
        <ele>1485.3699951172</ele>
        <time>2024-09-22T11:50:30.000Z</time>
      </trkpt>
      <trkpt lat="42.88534" lon="19.10707">
        <ele>1485.3699951172</ele>
        <time>2024-09-22T11:50:31.000Z</time>
      </trkpt>
      <trkpt lat="42.88526" lon="19.10714">
        <ele>1485.3699951172</ele>
        <time>2024-09-22T11:50:32.000Z</time>
      </trkpt>
      <trkpt lat="42.88508" lon="19.10728">
        <ele>1485.3699951172</ele>
        <time>2024-09-22T11:50:34.000Z</time>
      </trkpt>
      <trkpt lat="42.88505" lon="19.10731">
        <ele>1485.3699951172</ele>
        <time>2024-09-22T11:50:35.000Z</time>
      </trkpt>
      <trkpt lat="42.88501" lon="19.10736">
        <ele>1485.3699951172</ele>
        <time>2024-09-22T11:50:36.000Z</time>
      </trkpt>
      <trkpt lat="42.88499" lon="19.10742">
        <ele>1485.3699951172</ele>
        <time>2024-09-22T11:50:37.000Z</time>
      </trkpt>
      <trkpt lat="42.88497" lon="19.10749">
        <ele>1485.3699951172</ele>
        <time>2024-09-22T11:50:38.000Z</time>
      </trkpt>
      <trkpt lat="42.88495" lon="19.10758">
        <ele>1485.8499755859</ele>
        <time>2024-09-22T11:50:39.000Z</time>
      </trkpt>
      <trkpt lat="42.88493" lon="19.10771">
        <ele>1485.8499755859</ele>
        <time>2024-09-22T11:50:40.000Z</time>
      </trkpt>
      <trkpt lat="42.88491" lon="19.10809">
        <ele>1487.3000488281</ele>
        <time>2024-09-22T11:50:42.000Z</time>
      </trkpt>
      <trkpt lat="42.8849" lon="19.10821">
        <ele>1488.2600097656</ele>
        <time>2024-09-22T11:50:43.000Z</time>
      </trkpt>
      <trkpt lat="42.88488" lon="19.10836">
        <ele>1489.2199707031</ele>
        <time>2024-09-22T11:50:44.000Z</time>
      </trkpt>
      <trkpt lat="42.88479" lon="19.10869">
        <ele>1491.6199951172</ele>
        <time>2024-09-22T11:50:45.000Z</time>
      </trkpt>
      <trkpt lat="42.88476" lon="19.10878">
        <ele>1492.0999755859</ele>
        <time>2024-09-22T11:50:46.000Z</time>
      </trkpt>
      <trkpt lat="42.88471" lon="19.10892">
        <ele>1493.5500488281</ele>
        <time>2024-09-22T11:50:47.000Z</time>
      </trkpt>
      <trkpt lat="42.88465" lon="19.10906">
        <ele>1494.9899902344</ele>
        <time>2024-09-22T11:50:48.000Z</time>
      </trkpt>
      <trkpt lat="42.88459" lon="19.10916">
        <ele>1495.4699707031</ele>
        <time>2024-09-22T11:50:49.000Z</time>
      </trkpt>
      <trkpt lat="42.88449" lon="19.10932">
        <ele>1495.9499511719</ele>
        <time>2024-09-22T11:50:50.000Z</time>
      </trkpt>
      <trkpt lat="42.88447" lon="19.10934">
        <ele>1495.9499511719</ele>
        <time>2024-09-22T11:50:51.000Z</time>
      </trkpt>
      <trkpt lat="42.88441" lon="19.10943">
        <ele>1496.4300537109</ele>
        <time>2024-09-22T11:50:52.000Z</time>
      </trkpt>
      <trkpt lat="42.8843" lon="19.10972">
        <ele>1495.9499511719</ele>
        <time>2024-09-22T11:50:55.000Z</time>
      </trkpt>
      <trkpt lat="42.88428" lon="19.10983">
        <ele>1495.4699707031</ele>
        <time>2024-09-22T11:50:56.000Z</time>
      </trkpt>
      <trkpt lat="42.88425" lon="19.10998">
        <ele>1494.9899902344</ele>
        <time>2024-09-22T11:50:57.000Z</time>
      </trkpt>
      <trkpt lat="42.88425" lon="19.11003">
        <ele>1494.9899902344</ele>
        <time>2024-09-22T11:50:58.000Z</time>
      </trkpt>
      <trkpt lat="42.88426" lon="19.11013">
        <ele>1494.5100097656</ele>
        <time>2024-09-22T11:50:59.000Z</time>
      </trkpt>
      <trkpt lat="42.88428" lon="19.11024">
        <ele>1494.0300292969</ele>
        <time>2024-09-22T11:51:00.000Z</time>
      </trkpt>
      <trkpt lat="42.88435" lon="19.11043">
        <ele>1493.0600585938</ele>
        <time>2024-09-22T11:51:01.000Z</time>
      </trkpt>
      <trkpt lat="42.88436" lon="19.11045">
        <ele>1493.0600585938</ele>
        <time>2024-09-22T11:51:02.000Z</time>
      </trkpt>
      <trkpt lat="42.88439" lon="19.11056">
        <ele>1492.5799560547</ele>
        <time>2024-09-22T11:51:03.000Z</time>
      </trkpt>
      <trkpt lat="42.88441" lon="19.11067">
        <ele>1492.0999755859</ele>
        <time>2024-09-22T11:51:04.000Z</time>
      </trkpt>
      <trkpt lat="42.88443" lon="19.11079">
        <ele>1491.6199951172</ele>
        <time>2024-09-22T11:51:05.000Z</time>
      </trkpt>
      <trkpt lat="42.88443" lon="19.11094">
        <ele>1490.6600341797</ele>
        <time>2024-09-22T11:51:06.000Z</time>
      </trkpt>
      <trkpt lat="42.88443" lon="19.11107">
        <ele>1489.6999511719</ele>
        <time>2024-09-22T11:51:07.000Z</time>
      </trkpt>
      <trkpt lat="42.88443" lon="19.11113">
        <ele>1489.6999511719</ele>
        <time>2024-09-22T11:51:08.000Z</time>
      </trkpt>
      <trkpt lat="42.88444" lon="19.11123">
        <ele>1489.6999511719</ele>
        <time>2024-09-22T11:51:09.000Z</time>
      </trkpt>
      <trkpt lat="42.88445" lon="19.11133">
        <ele>1489.2199707031</ele>
        <time>2024-09-22T11:51:10.000Z</time>
      </trkpt>
      <trkpt lat="42.88443" lon="19.11142">
        <ele>1489.6999511719</ele>
        <time>2024-09-22T11:51:11.000Z</time>
      </trkpt>
      <trkpt lat="42.88437" lon="19.11162">
        <ele>1489.6999511719</ele>
        <time>2024-09-22T11:51:12.000Z</time>
      </trkpt>
      <trkpt lat="42.88436" lon="19.11164">
        <ele>1489.6999511719</ele>
        <time>2024-09-22T11:51:13.000Z</time>
      </trkpt>
      <trkpt lat="42.88433" lon="19.11176">
        <ele>1490.1800537109</ele>
        <time>2024-09-22T11:51:14.000Z</time>
      </trkpt>
      <trkpt lat="42.8843" lon="19.11186">
        <ele>1490.6600341797</ele>
        <time>2024-09-22T11:51:15.000Z</time>
      </trkpt>
      <trkpt lat="42.88429" lon="19.11191">
        <ele>1490.6600341797</ele>
        <time>2024-09-22T11:51:16.000Z</time>
      </trkpt>
      <trkpt lat="42.88425" lon="19.112">
        <ele>1490.6600341797</ele>
        <time>2024-09-22T11:51:17.000Z</time>
      </trkpt>
      <trkpt lat="42.88425" lon="19.11201">
        <ele>1490.6600341797</ele>
        <time>2024-09-22T11:51:18.000Z</time>
      </trkpt>
      <trkpt lat="42.88424" lon="19.11206">
        <ele>1490.6600341797</ele>
        <time>2024-09-22T11:51:19.000Z</time>
      </trkpt>
      <trkpt lat="42.88422" lon="19.11214">
        <ele>1491.1400146484</ele>
        <time>2024-09-22T11:51:20.000Z</time>
      </trkpt>
      <trkpt lat="42.88418" lon="19.11226">
        <ele>1491.1400146484</ele>
        <time>2024-09-22T11:51:22.000Z</time>
      </trkpt>
      <trkpt lat="42.88408" lon="19.11264">
        <ele>1492.0999755859</ele>
        <time>2024-09-22T11:51:25.000Z</time>
      </trkpt>
      <trkpt lat="42.88397" lon="19.11298">
        <ele>1493.0600585938</ele>
        <time>2024-09-22T11:51:28.000Z</time>
      </trkpt>
      <trkpt lat="42.88389" lon="19.11319">
        <ele>1493.5500488281</ele>
        <time>2024-09-22T11:51:29.000Z</time>
      </trkpt>
      <trkpt lat="42.88384" lon="19.11332">
        <ele>1494.0300292969</ele>
        <time>2024-09-22T11:51:30.000Z</time>
      </trkpt>
      <trkpt lat="42.8838" lon="19.11342">
        <ele>1494.5100097656</ele>
        <time>2024-09-22T11:51:31.000Z</time>
      </trkpt>
      <trkpt lat="42.8837" lon="19.11358">
        <ele>1494.9899902344</ele>
        <time>2024-09-22T11:51:32.000Z</time>
      </trkpt>
      <trkpt lat="42.88367" lon="19.11365">
        <ele>1495.4699707031</ele>
        <time>2024-09-22T11:51:33.000Z</time>
      </trkpt>
      <trkpt lat="42.88362" lon="19.11377">
        <ele>1495.4699707031</ele>
        <time>2024-09-22T11:51:34.000Z</time>
      </trkpt>
      <trkpt lat="42.88354" lon="19.11407">
        <ele>1496.4300537109</ele>
        <time>2024-09-22T11:51:37.000Z</time>
      </trkpt>
      <trkpt lat="42.88349" lon="19.11433">
        <ele>1496.4300537109</ele>
        <time>2024-09-22T11:51:43.000Z</time>
      </trkpt>
      <trkpt lat="42.88348" lon="19.11442">
        <ele>1495.4699707031</ele>
        <time>2024-09-22T11:52:39.000Z</time>
      </trkpt>
      <trkpt lat="42.88346" lon="19.11446">
        <ele>1495.4699707031</ele>
        <time>2024-09-22T11:52:40.000Z</time>
      </trkpt>
      <trkpt lat="42.88341" lon="19.11461">
        <ele>1494.9899902344</ele>
        <time>2024-09-22T11:52:41.000Z</time>
      </trkpt>
      <trkpt lat="42.88337" lon="19.11474">
        <ele>1494.5100097656</ele>
        <time>2024-09-22T11:52:42.000Z</time>
      </trkpt>
      <trkpt lat="42.88334" lon="19.11484">
        <ele>1494.0300292969</ele>
        <time>2024-09-22T11:52:43.000Z</time>
      </trkpt>
      <trkpt lat="42.88327" lon="19.11503">
        <ele>1494.0300292969</ele>
        <time>2024-09-22T11:52:45.000Z</time>
      </trkpt>
      <trkpt lat="42.88322" lon="19.11517">
        <ele>1493.5500488281</ele>
        <time>2024-09-22T11:52:48.000Z</time>
      </trkpt>
      <trkpt lat="42.88321" lon="19.11522">
        <ele>1493.5500488281</ele>
        <time>2024-09-22T11:52:49.000Z</time>
      </trkpt>
      <trkpt lat="42.88319" lon="19.1153">
        <ele>1493.5500488281</ele>
        <time>2024-09-22T11:52:50.000Z</time>
      </trkpt>
      <trkpt lat="42.88317" lon="19.11535">
        <ele>1493.5500488281</ele>
        <time>2024-09-22T11:52:51.000Z</time>
      </trkpt>
      <trkpt lat="42.88315" lon="19.11543">
        <ele>1493.5500488281</ele>
        <time>2024-09-22T11:52:52.000Z</time>
      </trkpt>
      <trkpt lat="42.88313" lon="19.11549">
        <ele>1494.0300292969</ele>
        <time>2024-09-22T11:52:53.000Z</time>
      </trkpt>
      <trkpt lat="42.88311" lon="19.11557">
        <ele>1493.5500488281</ele>
        <time>2024-09-22T11:52:54.000Z</time>
      </trkpt>
      <trkpt lat="42.8831" lon="19.11566">
        <ele>1494.0300292969</ele>
        <time>2024-09-22T11:52:55.000Z</time>
      </trkpt>
      <trkpt lat="42.88309" lon="19.1158">
        <ele>1494.0300292969</ele>
        <time>2024-09-22T11:52:56.000Z</time>
      </trkpt>
      <trkpt lat="42.88308" lon="19.11588">
        <ele>1494.0300292969</ele>
        <time>2024-09-22T11:52:57.000Z</time>
      </trkpt>
      <trkpt lat="42.88299" lon="19.11659">
        <ele>1494.9899902344</ele>
        <time>2024-09-22T11:53:02.000Z</time>
      </trkpt>
      <trkpt lat="42.88299" lon="19.11665">
        <ele>1494.9899902344</ele>
        <time>2024-09-22T11:53:03.000Z</time>
      </trkpt>
      <trkpt lat="42.88299" lon="19.11678">
        <ele>1494.9899902344</ele>
        <time>2024-09-22T11:53:04.000Z</time>
      </trkpt>
      <trkpt lat="42.883" lon="19.117">
        <ele>1495.9499511719</ele>
        <time>2024-09-22T11:53:05.000Z</time>
      </trkpt>
      <trkpt lat="42.88301" lon="19.11707">
        <ele>1495.9499511719</ele>
        <time>2024-09-22T11:53:06.000Z</time>
      </trkpt>
      <trkpt lat="42.883" lon="19.11716">
        <ele>1496.4300537109</ele>
        <time>2024-09-22T11:53:07.000Z</time>
      </trkpt>
      <trkpt lat="42.88289" lon="19.11819">
        <ele>1497.8699951172</ele>
        <time>2024-09-22T11:53:13.000Z</time>
      </trkpt>
      <trkpt lat="42.88287" lon="19.1183">
        <ele>1498.3499755859</ele>
        <time>2024-09-22T11:53:14.000Z</time>
      </trkpt>
      <trkpt lat="42.88285" lon="19.11839">
        <ele>1498.3499755859</ele>
        <time>2024-09-22T11:53:15.000Z</time>
      </trkpt>
      <trkpt lat="42.88281" lon="19.11857">
        <ele>1498.8299560547</ele>
        <time>2024-09-22T11:53:16.000Z</time>
      </trkpt>
      <trkpt lat="42.88262" lon="19.11913">
        <ele>1499.7900390625</ele>
        <time>2024-09-22T11:53:19.000Z</time>
      </trkpt>
      <trkpt lat="42.88259" lon="19.1192">
        <ele>1499.7900390625</ele>
        <time>2024-09-22T11:53:20.000Z</time>
      </trkpt>
      <trkpt lat="42.88253" lon="19.11934">
        <ele>1500.2700195312</ele>
        <time>2024-09-22T11:53:21.000Z</time>
      </trkpt>
      <trkpt lat="42.88205" lon="19.12009">
        <ele>1502.6800537109</ele>
        <time>2024-09-22T11:53:27.000Z</time>
      </trkpt>
      <trkpt lat="42.88149" lon="19.12083">
        <ele>1505.5600585938</ele>
        <time>2024-09-22T11:53:32.000Z</time>
      </trkpt>
      <trkpt lat="42.88132" lon="19.12111">
        <ele>1506.5200195312</ele>
        <time>2024-09-22T11:53:34.000Z</time>
      </trkpt>
      <trkpt lat="42.88126" lon="19.12122">
        <ele>1507</ele>
        <time>2024-09-22T11:53:35.000Z</time>
      </trkpt>
      <trkpt lat="42.88095" lon="19.12177">
        <ele>1508.4499511719</ele>
        <time>2024-09-22T11:53:38.000Z</time>
      </trkpt>
      <trkpt lat="42.88058" lon="19.12236">
        <ele>1509.8900146484</ele>
        <time>2024-09-22T11:53:42.000Z</time>
      </trkpt>
      <trkpt lat="42.8805" lon="19.1225">
        <ele>1510.3699951172</ele>
        <time>2024-09-22T11:53:43.000Z</time>
      </trkpt>
      <trkpt lat="42.88038" lon="19.12274">
        <ele>1511.3299560547</ele>
        <time>2024-09-22T11:53:44.000Z</time>
      </trkpt>
      <trkpt lat="42.88026" lon="19.12299">
        <ele>1511.8100585938</ele>
        <time>2024-09-22T11:53:46.000Z</time>
      </trkpt>
      <trkpt lat="42.88011" lon="19.12327">
        <ele>1512.7700195312</ele>
        <time>2024-09-22T11:53:47.000Z</time>
      </trkpt>
      <trkpt lat="42.87958" lon="19.12412">
        <ele>1516.1400146484</ele>
        <time>2024-09-22T11:53:52.000Z</time>
      </trkpt>
      <trkpt lat="42.87946" lon="19.12432">
        <ele>1516.6199951172</ele>
        <time>2024-09-22T11:53:54.000Z</time>
      </trkpt>
      <trkpt lat="42.87932" lon="19.12454">
        <ele>1517.0999755859</ele>
        <time>2024-09-22T11:53:55.000Z</time>
      </trkpt>
      <trkpt lat="42.87912" lon="19.12495">
        <ele>1518.5400390625</ele>
        <time>2024-09-22T11:53:57.000Z</time>
      </trkpt>
      <trkpt lat="42.87871" lon="19.12578">
        <ele>1522.3900146484</ele>
        <time>2024-09-22T11:54:02.000Z</time>
      </trkpt>
      <trkpt lat="42.87867" lon="19.12585">
        <ele>1522.8699951172</ele>
        <time>2024-09-22T11:54:03.000Z</time>
      </trkpt>
      <trkpt lat="42.8786" lon="19.12602">
        <ele>1523.8299560547</ele>
        <time>2024-09-22T11:54:04.000Z</time>
      </trkpt>
      <trkpt lat="42.87847" lon="19.12638">
        <ele>1526.7099609375</ele>
        <time>2024-09-22T11:54:06.000Z</time>
      </trkpt>
      <trkpt lat="42.87843" lon="19.12649">
        <ele>1527.6700439453</ele>
        <time>2024-09-22T11:54:07.000Z</time>
      </trkpt>
      <trkpt lat="42.87835" lon="19.12666">
        <ele>1529.1099853516</ele>
        <time>2024-09-22T11:54:08.000Z</time>
      </trkpt>
      <trkpt lat="42.8783" lon="19.1268">
        <ele>1530.0799560547</ele>
        <time>2024-09-22T11:54:09.000Z</time>
      </trkpt>
      <trkpt lat="42.87819" lon="19.1271">
        <ele>1532.9599609375</ele>
        <time>2024-09-22T11:54:11.000Z</time>
      </trkpt>
      <trkpt lat="42.87816" lon="19.12722">
        <ele>1533.9200439453</ele>
        <time>2024-09-22T11:54:12.000Z</time>
      </trkpt>
      <trkpt lat="42.87813" lon="19.12735">
        <ele>1534.8800048828</ele>
        <time>2024-09-22T11:54:13.000Z</time>
      </trkpt>
      <trkpt lat="42.87811" lon="19.12748">
        <ele>1535.3599853516</ele>
        <time>2024-09-22T11:54:14.000Z</time>
      </trkpt>
      <trkpt lat="42.87808" lon="19.1277">
        <ele>1536.3199462891</ele>
        <time>2024-09-22T11:54:15.000Z</time>
      </trkpt>
      <trkpt lat="42.87806" lon="19.1278">
        <ele>1536.8000488281</ele>
        <time>2024-09-22T11:54:16.000Z</time>
      </trkpt>
      <trkpt lat="42.87785" lon="19.12857">
        <ele>1540.6500244141</ele>
        <time>2024-09-22T11:54:21.000Z</time>
      </trkpt>
      <trkpt lat="42.87784" lon="19.1286">
        <ele>1540.6500244141</ele>
        <time>2024-09-22T11:54:22.000Z</time>
      </trkpt>
      <trkpt lat="42.87782" lon="19.12873">
        <ele>1541.6099853516</ele>
        <time>2024-09-22T11:54:23.000Z</time>
      </trkpt>
      <trkpt lat="42.87779" lon="19.12908">
        <ele>1542.5699462891</ele>
        <time>2024-09-22T11:54:26.000Z</time>
      </trkpt>
      <trkpt lat="42.87777" lon="19.12921">
        <ele>1542.5699462891</ele>
        <time>2024-09-22T11:54:27.000Z</time>
      </trkpt>
      <trkpt lat="42.87776" lon="19.12928">
        <ele>1542.5699462891</ele>
        <time>2024-09-22T11:54:28.000Z</time>
      </trkpt>
      <trkpt lat="42.87775" lon="19.12933">
        <ele>1542.5699462891</ele>
        <time>2024-09-22T11:54:29.000Z</time>
      </trkpt>
      <trkpt lat="42.87773" lon="19.12941">
        <ele>1542.0899658203</ele>
        <time>2024-09-22T11:54:30.000Z</time>
      </trkpt>
      <trkpt lat="42.87768" lon="19.12969">
        <ele>1541.6099853516</ele>
        <time>2024-09-22T11:54:34.000Z</time>
      </trkpt>
      <trkpt lat="42.87762" lon="19.12995">
        <ele>1541.1300048828</ele>
        <time>2024-09-22T11:54:37.000Z</time>
      </trkpt>
      <trkpt lat="42.87761" lon="19.13001">
        <ele>1541.1300048828</ele>
        <time>2024-09-22T11:54:38.000Z</time>
      </trkpt>
      <trkpt lat="42.87759" lon="19.13006">
        <ele>1540.6500244141</ele>
        <time>2024-09-22T11:54:39.000Z</time>
      </trkpt>
      <trkpt lat="42.87758" lon="19.13011">
        <ele>1540.6500244141</ele>
        <time>2024-09-22T11:54:40.000Z</time>
      </trkpt>
      <trkpt lat="42.87757" lon="19.13018">
        <ele>1540.6500244141</ele>
        <time>2024-09-22T11:54:41.000Z</time>
      </trkpt>
      <trkpt lat="42.87757" lon="19.13029">
        <ele>1540.6500244141</ele>
        <time>2024-09-22T11:54:42.000Z</time>
      </trkpt>
      <trkpt lat="42.87757" lon="19.13031">
        <ele>1540.6500244141</ele>
        <time>2024-09-22T11:54:43.000Z</time>
      </trkpt>
      <trkpt lat="42.87737" lon="19.13189">
        <ele>1539.6899414062</ele>
        <time>2024-09-22T12:36:50.000Z</time>
      </trkpt>
      <trkpt lat="42.8773" lon="19.13229">
        <ele>1539.2099609375</ele>
        <time>2024-09-22T12:36:59.000Z</time>
      </trkpt>
      <trkpt lat="42.87729" lon="19.13236">
        <ele>1539.2099609375</ele>
        <time>2024-09-22T12:37:00.000Z</time>
      </trkpt>
      <trkpt lat="42.87725" lon="19.13261">
        <ele>1539.6899414062</ele>
        <time>2024-09-22T12:37:03.000Z</time>
      </trkpt>
      <trkpt lat="42.87723" lon="19.13272">
        <ele>1540.1700439453</ele>
        <time>2024-09-22T12:37:04.000Z</time>
      </trkpt>
      <trkpt lat="42.8772" lon="19.13287">
        <ele>1540.6500244141</ele>
        <time>2024-09-22T12:37:06.000Z</time>
      </trkpt>
      <trkpt lat="42.87718" lon="19.13303">
        <ele>1541.1300048828</ele>
        <time>2024-09-22T12:37:07.000Z</time>
      </trkpt>
      <trkpt lat="42.87716" lon="19.13315">
        <ele>1541.6099853516</ele>
        <time>2024-09-22T12:37:08.000Z</time>
      </trkpt>
      <trkpt lat="42.87713" lon="19.13333">
        <ele>1542.0899658203</ele>
        <time>2024-09-22T12:37:10.000Z</time>
      </trkpt>
      <trkpt lat="42.87698" lon="19.13394">
        <ele>1542.5699462891</ele>
        <time>2024-09-22T12:37:17.000Z</time>
      </trkpt>
      <trkpt lat="42.87696" lon="19.13405">
        <ele>1543.0500488281</ele>
        <time>2024-09-22T12:37:18.000Z</time>
      </trkpt>
      <trkpt lat="42.87692" lon="19.13427">
        <ele>1543.0500488281</ele>
        <time>2024-09-22T12:37:20.000Z</time>
      </trkpt>
      <trkpt lat="42.87687" lon="19.13449">
        <ele>1543.0500488281</ele>
        <time>2024-09-22T12:37:23.000Z</time>
      </trkpt>
      <trkpt lat="42.87683" lon="19.13471">
        <ele>1543.0500488281</ele>
        <time>2024-09-22T12:37:25.000Z</time>
      </trkpt>
      <trkpt lat="42.87681" lon="19.13486">
        <ele>1543.5300292969</ele>
        <time>2024-09-22T12:37:26.000Z</time>
      </trkpt>
      <trkpt lat="42.87681" lon="19.13488">
        <ele>1543.5300292969</ele>
        <time>2024-09-22T12:37:27.000Z</time>
      </trkpt>
      <trkpt lat="42.87675" lon="19.13515">
        <ele>1543.5300292969</ele>
        <time>2024-09-22T12:37:29.000Z</time>
      </trkpt>
      <trkpt lat="42.87674" lon="19.1352">
        <ele>1543.5300292969</ele>
        <time>2024-09-22T12:37:30.000Z</time>
      </trkpt>
      <trkpt lat="42.87653" lon="19.13582">
        <ele>1544.9799804688</ele>
        <time>2024-09-22T12:37:36.000Z</time>
      </trkpt>
      <trkpt lat="42.87636" lon="19.13645">
        <ele>1547.8599853516</ele>
        <time>2024-09-22T12:37:42.000Z</time>
      </trkpt>
      <trkpt lat="42.87631" lon="19.13668">
        <ele>1548.8199462891</ele>
        <time>2024-09-22T12:37:44.000Z</time>
      </trkpt>
      <trkpt lat="42.87622" lon="19.13696">
        <ele>1549.3000488281</ele>
        <time>2024-09-22T12:37:47.000Z</time>
      </trkpt>
      <trkpt lat="42.8761" lon="19.13726">
        <ele>1549.7800292969</ele>
        <time>2024-09-22T12:37:49.000Z</time>
      </trkpt>
      <trkpt lat="42.87609" lon="19.13729">
        <ele>1549.7800292969</ele>
        <time>2024-09-22T12:37:50.000Z</time>
      </trkpt>
      <trkpt lat="42.87605" lon="19.13737">
        <ele>1550.2600097656</ele>
        <time>2024-09-22T12:37:51.000Z</time>
      </trkpt>
      <trkpt lat="42.87598" lon="19.13747">
        <ele>1550.2600097656</ele>
        <time>2024-09-22T12:37:52.000Z</time>
      </trkpt>
      <trkpt lat="42.87594" lon="19.13752">
        <ele>1550.7399902344</ele>
        <time>2024-09-22T12:37:53.000Z</time>
      </trkpt>
      <trkpt lat="42.87545" lon="19.13818">
        <ele>1548.8199462891</ele>
        <time>2024-09-22T12:38:01.000Z</time>
      </trkpt>
      <trkpt lat="42.8754" lon="19.13825">
        <ele>1548.3399658203</ele>
        <time>2024-09-22T12:38:02.000Z</time>
      </trkpt>
      <trkpt lat="42.87535" lon="19.13834">
        <ele>1548.3399658203</ele>
        <time>2024-09-22T12:38:03.000Z</time>
      </trkpt>
      <trkpt lat="42.8753" lon="19.13845">
        <ele>1548.3399658203</ele>
        <time>2024-09-22T12:38:04.000Z</time>
      </trkpt>
      <trkpt lat="42.87524" lon="19.13864">
        <ele>1547.8599853516</ele>
        <time>2024-09-22T12:38:06.000Z</time>
      </trkpt>
      <trkpt lat="42.8752" lon="19.13874">
        <ele>1547.8599853516</ele>
        <time>2024-09-22T12:38:07.000Z</time>
      </trkpt>
      <trkpt lat="42.87515" lon="19.13881">
        <ele>1547.8599853516</ele>
        <time>2024-09-22T12:38:08.000Z</time>
      </trkpt>
      <trkpt lat="42.87498" lon="19.13896">
        <ele>1547.8599853516</ele>
        <time>2024-09-22T12:38:10.000Z</time>
      </trkpt>
      <trkpt lat="42.87492" lon="19.13901">
        <ele>1547.8599853516</ele>
        <time>2024-09-22T12:38:11.000Z</time>
      </trkpt>
      <trkpt lat="42.87484" lon="19.13905">
        <ele>1548.3399658203</ele>
        <time>2024-09-22T12:38:12.000Z</time>
      </trkpt>
      <trkpt lat="42.87461" lon="19.13919">
        <ele>1548.8199462891</ele>
        <time>2024-09-22T12:38:14.000Z</time>
      </trkpt>
      <trkpt lat="42.87459" lon="19.1392">
        <ele>1548.8199462891</ele>
        <time>2024-09-22T12:38:15.000Z</time>
      </trkpt>
      <trkpt lat="42.87451" lon="19.13926">
        <ele>1549.3000488281</ele>
        <time>2024-09-22T12:38:16.000Z</time>
      </trkpt>
      <trkpt lat="42.87443" lon="19.13932">
        <ele>1549.7800292969</ele>
        <time>2024-09-22T12:38:17.000Z</time>
      </trkpt>
      <trkpt lat="42.87434" lon="19.1394">
        <ele>1550.2600097656</ele>
        <time>2024-09-22T12:38:18.000Z</time>
      </trkpt>
      <trkpt lat="42.87429" lon="19.13945">
        <ele>1550.7399902344</ele>
        <time>2024-09-22T12:38:19.000Z</time>
      </trkpt>
      <trkpt lat="42.87422" lon="19.13953">
        <ele>1551.2199707031</ele>
        <time>2024-09-22T12:38:20.000Z</time>
      </trkpt>
      <trkpt lat="42.87386" lon="19.14009">
        <ele>1553.6300048828</ele>
        <time>2024-09-22T12:38:26.000Z</time>
      </trkpt>
      <trkpt lat="42.87375" lon="19.1403">
        <ele>1553.6300048828</ele>
        <time>2024-09-22T12:38:28.000Z</time>
      </trkpt>
      <trkpt lat="42.87371" lon="19.14036">
        <ele>1553.6300048828</ele>
        <time>2024-09-22T12:38:29.000Z</time>
      </trkpt>
      <trkpt lat="42.87366" lon="19.14046">
        <ele>1554.1099853516</ele>
        <time>2024-09-22T12:38:30.000Z</time>
      </trkpt>
      <trkpt lat="42.87363" lon="19.14051">
        <ele>1554.1099853516</ele>
        <time>2024-09-22T12:38:31.000Z</time>
      </trkpt>
      <trkpt lat="42.87352" lon="19.14071">
        <ele>1555.0699462891</ele>
        <time>2024-09-22T12:38:33.000Z</time>
      </trkpt>
      <trkpt lat="42.8735" lon="19.14075">
        <ele>1555.0699462891</ele>
        <time>2024-09-22T12:38:34.000Z</time>
      </trkpt>
      <trkpt lat="42.87345" lon="19.14084">
        <ele>1555.0699462891</ele>
        <time>2024-09-22T12:38:35.000Z</time>
      </trkpt>
      <trkpt lat="42.87343" lon="19.14087">
        <ele>1555.0699462891</ele>
        <time>2024-09-22T12:38:36.000Z</time>
      </trkpt>
      <trkpt lat="42.87339" lon="19.14096">
        <ele>1555.0699462891</ele>
        <time>2024-09-22T12:38:37.000Z</time>
      </trkpt>
      <trkpt lat="42.87335" lon="19.14103">
        <ele>1555.0699462891</ele>
        <time>2024-09-22T12:38:38.000Z</time>
      </trkpt>
      <trkpt lat="42.87324" lon="19.14125">
        <ele>1554.5899658203</ele>
        <time>2024-09-22T12:38:40.000Z</time>
      </trkpt>
      <trkpt lat="42.87322" lon="19.14129">
        <ele>1554.1099853516</ele>
        <time>2024-09-22T12:38:41.000Z</time>
      </trkpt>
      <trkpt lat="42.87319" lon="19.14134">
        <ele>1554.1099853516</ele>
        <time>2024-09-22T12:38:42.000Z</time>
      </trkpt>
      <trkpt lat="42.87316" lon="19.14138">
        <ele>1554.1099853516</ele>
        <time>2024-09-22T12:38:43.000Z</time>
      </trkpt>
      <trkpt lat="42.87306" lon="19.14162">
        <ele>1554.1099853516</ele>
        <time>2024-09-22T12:38:48.000Z</time>
      </trkpt>
      <trkpt lat="42.87304" lon="19.14166">
        <ele>1554.1099853516</ele>
        <time>2024-09-22T12:38:49.000Z</time>
      </trkpt>
      <trkpt lat="42.873" lon="19.14173">
        <ele>1554.1099853516</ele>
        <time>2024-09-22T12:38:50.000Z</time>
      </trkpt>
      <trkpt lat="42.8729" lon="19.14191">
        <ele>1555.0699462891</ele>
        <time>2024-09-22T12:38:57.000Z</time>
      </trkpt>
      <trkpt lat="42.87287" lon="19.14198">
        <ele>1555.0699462891</ele>
        <time>2024-09-22T12:39:02.000Z</time>
      </trkpt>
      <trkpt lat="42.87286" lon="19.142">
        <ele>1555.0699462891</ele>
        <time>2024-09-22T12:39:03.000Z</time>
      </trkpt>
      <trkpt lat="42.87283" lon="19.14206">
        <ele>1555.5500488281</ele>
        <time>2024-09-22T12:39:04.000Z</time>
      </trkpt>
      <trkpt lat="42.87278" lon="19.14215">
        <ele>1556.0300292969</ele>
        <time>2024-09-22T12:39:05.000Z</time>
      </trkpt>
      <trkpt lat="42.87274" lon="19.1422">
        <ele>1556.5100097656</ele>
        <time>2024-09-22T12:39:06.000Z</time>
      </trkpt>
      <trkpt lat="42.87268" lon="19.14228">
        <ele>1556.9899902344</ele>
        <time>2024-09-22T12:39:07.000Z</time>
      </trkpt>
      <trkpt lat="42.87264" lon="19.14233">
        <ele>1557.4699707031</ele>
        <time>2024-09-22T12:39:08.000Z</time>
      </trkpt>
      <trkpt lat="42.87261" lon="19.14237">
        <ele>1557.9499511719</ele>
        <time>2024-09-22T12:39:09.000Z</time>
      </trkpt>
      <trkpt lat="42.87258" lon="19.1424">
        <ele>1558.4300537109</ele>
        <time>2024-09-22T12:39:10.000Z</time>
      </trkpt>
      <trkpt lat="42.87251" lon="19.14247">
        <ele>1559.4000244141</ele>
        <time>2024-09-22T12:39:11.000Z</time>
      </trkpt>
      <trkpt lat="42.87249" lon="19.14248">
        <ele>1559.4000244141</ele>
        <time>2024-09-22T12:39:12.000Z</time>
      </trkpt>
      <trkpt lat="42.87244" lon="19.14252">
        <ele>1560.3599853516</ele>
        <time>2024-09-22T12:39:18.000Z</time>
      </trkpt>
      <trkpt lat="42.87233" lon="19.14262">
        <ele>1562.2800292969</ele>
        <time>2024-09-22T12:39:30.000Z</time>
      </trkpt>
      <trkpt lat="42.87231" lon="19.14264">
        <ele>1562.7600097656</ele>
        <time>2024-09-22T12:39:31.000Z</time>
      </trkpt>
      <trkpt lat="42.87226" lon="19.14267">
        <ele>1563.2399902344</ele>
        <time>2024-09-22T12:39:32.000Z</time>
      </trkpt>
      <trkpt lat="42.87213" lon="19.14269">
        <ele>1564.6800537109</ele>
        <time>2024-09-22T12:39:34.000Z</time>
      </trkpt>
      <trkpt lat="42.87206" lon="19.14269">
        <ele>1565.1600341797</ele>
        <time>2024-09-22T12:39:35.000Z</time>
      </trkpt>
      <trkpt lat="42.87198" lon="19.14269">
        <ele>1566.1199951172</ele>
        <time>2024-09-22T12:39:36.000Z</time>
      </trkpt>
      <trkpt lat="42.8719" lon="19.14267">
        <ele>1566.6099853516</ele>
        <time>2024-09-22T12:39:37.000Z</time>
      </trkpt>
      <trkpt lat="42.87186" lon="19.14266">
        <ele>1567.0899658203</ele>
        <time>2024-09-22T12:39:38.000Z</time>
      </trkpt>
      <trkpt lat="42.87181" lon="19.14266">
        <ele>1567.5699462891</ele>
        <time>2024-09-22T12:39:39.000Z</time>
      </trkpt>
      <trkpt lat="42.87174" lon="19.14269">
        <ele>1567.5699462891</ele>
        <time>2024-09-22T12:39:45.000Z</time>
      </trkpt>
      <trkpt lat="42.87161" lon="19.14281">
        <ele>1570.9300537109</ele>
        <time>2024-09-22T12:42:57.000Z</time>
      </trkpt>
      <trkpt lat="42.8716" lon="19.14283">
        <ele>1570.9300537109</ele>
        <time>2024-09-22T12:42:58.000Z</time>
      </trkpt>
      <trkpt lat="42.87158" lon="19.1429">
        <ele>1571.4100341797</ele>
        <time>2024-09-22T12:42:59.000Z</time>
      </trkpt>
      <trkpt lat="42.87158" lon="19.14299">
        <ele>1571.8900146484</ele>
        <time>2024-09-22T12:43:00.000Z</time>
      </trkpt>
      <trkpt lat="42.87157" lon="19.14311">
        <ele>1572.3699951172</ele>
        <time>2024-09-22T12:43:01.000Z</time>
      </trkpt>
      <trkpt lat="42.87157" lon="19.14318">
        <ele>1572.8499755859</ele>
        <time>2024-09-22T12:43:02.000Z</time>
      </trkpt>
      <trkpt lat="42.87156" lon="19.14326">
        <ele>1573.3299560547</ele>
        <time>2024-09-22T12:43:03.000Z</time>
      </trkpt>
      <trkpt lat="42.87151" lon="19.1435">
        <ele>1574.7800292969</ele>
        <time>2024-09-22T12:43:05.000Z</time>
      </trkpt>
      <trkpt lat="42.8715" lon="19.14357">
        <ele>1575.7399902344</ele>
        <time>2024-09-22T12:43:06.000Z</time>
      </trkpt>
      <trkpt lat="42.87143" lon="19.14384">
        <ele>1577.6600341797</ele>
        <time>2024-09-22T12:43:08.000Z</time>
      </trkpt>
      <trkpt lat="42.87138" lon="19.14398">
        <ele>1579.0999755859</ele>
        <time>2024-09-22T12:43:09.000Z</time>
      </trkpt>
      <trkpt lat="42.87137" lon="19.14401">
        <ele>1579.0999755859</ele>
        <time>2024-09-22T12:43:10.000Z</time>
      </trkpt>
      <trkpt lat="42.87132" lon="19.14416">
        <ele>1580.5400390625</ele>
        <time>2024-09-22T12:43:11.000Z</time>
      </trkpt>
      <trkpt lat="42.8713" lon="19.14423">
        <ele>1581.0300292969</ele>
        <time>2024-09-22T12:43:12.000Z</time>
      </trkpt>
      <trkpt lat="42.87125" lon="19.14445">
        <ele>1582.4699707031</ele>
        <time>2024-09-22T12:43:14.000Z</time>
      </trkpt>
      <trkpt lat="42.87117" lon="19.14467">
        <ele>1584.3900146484</ele>
        <time>2024-09-22T12:43:16.000Z</time>
      </trkpt>
      <trkpt lat="42.87112" lon="19.1448">
        <ele>1585.3499755859</ele>
        <time>2024-09-22T12:43:17.000Z</time>
      </trkpt>
      <trkpt lat="42.87108" lon="19.14491">
        <ele>1585.8299560547</ele>
        <time>2024-09-22T12:43:18.000Z</time>
      </trkpt>
      <trkpt lat="42.87105" lon="19.14502">
        <ele>1586.7900390625</ele>
        <time>2024-09-22T12:43:19.000Z</time>
      </trkpt>
      <trkpt lat="42.87103" lon="19.14511">
        <ele>1587.2700195312</ele>
        <time>2024-09-22T12:43:20.000Z</time>
      </trkpt>
      <trkpt lat="42.87102" lon="19.14522">
        <ele>1588.2399902344</ele>
        <time>2024-09-22T12:43:21.000Z</time>
      </trkpt>
      <trkpt lat="42.87102" lon="19.14533">
        <ele>1588.7199707031</ele>
        <time>2024-09-22T12:43:22.000Z</time>
      </trkpt>
      <trkpt lat="42.87105" lon="19.14543">
        <ele>1589.6800537109</ele>
        <time>2024-09-22T12:43:23.000Z</time>
      </trkpt>
      <trkpt lat="42.8711" lon="19.14554">
        <ele>1590.1600341797</ele>
        <time>2024-09-22T12:43:24.000Z</time>
      </trkpt>
      <trkpt lat="42.87118" lon="19.1457">
        <ele>1590.6400146484</ele>
        <time>2024-09-22T12:43:25.000Z</time>
      </trkpt>
      <trkpt lat="42.87123" lon="19.14581">
        <ele>1591.1199951172</ele>
        <time>2024-09-22T12:43:26.000Z</time>
      </trkpt>
      <trkpt lat="42.87127" lon="19.14591">
        <ele>1591.5999755859</ele>
        <time>2024-09-22T12:43:27.000Z</time>
      </trkpt>
      <trkpt lat="42.87138" lon="19.14625">
        <ele>1594</ele>
        <time>2024-09-22T12:43:30.000Z</time>
      </trkpt>
      <trkpt lat="42.8714" lon="19.14633">
        <ele>1594.4799804688</ele>
        <time>2024-09-22T12:43:31.000Z</time>
      </trkpt>
      <trkpt lat="42.87145" lon="19.14643">
        <ele>1594.9599609375</ele>
        <time>2024-09-22T12:43:32.000Z</time>
      </trkpt>
      <trkpt lat="42.87158" lon="19.14662">
        <ele>1595.9300537109</ele>
        <time>2024-09-22T12:43:34.000Z</time>
      </trkpt>
      <trkpt lat="42.87162" lon="19.14669">
        <ele>1596.4100341797</ele>
        <time>2024-09-22T12:43:35.000Z</time>
      </trkpt>
      <trkpt lat="42.87167" lon="19.14677">
        <ele>1596.4100341797</ele>
        <time>2024-09-22T12:43:36.000Z</time>
      </trkpt>
      <trkpt lat="42.8717" lon="19.14684">
        <ele>1596.4100341797</ele>
        <time>2024-09-22T12:43:37.000Z</time>
      </trkpt>
      <trkpt lat="42.87182" lon="19.14705">
        <ele>1597.3699951172</ele>
        <time>2024-09-22T12:43:39.000Z</time>
      </trkpt>
      <trkpt lat="42.87187" lon="19.14715">
        <ele>1597.8499755859</ele>
        <time>2024-09-22T12:43:40.000Z</time>
      </trkpt>
      <trkpt lat="42.8719" lon="19.14721">
        <ele>1598.3299560547</ele>
        <time>2024-09-22T12:43:41.000Z</time>
      </trkpt>
      <trkpt lat="42.87207" lon="19.1475">
        <ele>1600.7299804688</ele>
        <time>2024-09-22T12:43:44.000Z</time>
      </trkpt>
      <trkpt lat="42.87213" lon="19.14759">
        <ele>1602.1700439453</ele>
        <time>2024-09-22T12:43:45.000Z</time>
      </trkpt>
      <trkpt lat="42.87219" lon="19.14766">
        <ele>1603.1400146484</ele>
        <time>2024-09-22T12:43:46.000Z</time>
      </trkpt>
      <trkpt lat="42.87228" lon="19.14773">
        <ele>1604.5799560547</ele>
        <time>2024-09-22T12:43:47.000Z</time>
      </trkpt>
      <trkpt lat="42.87232" lon="19.14777">
        <ele>1605.5400390625</ele>
        <time>2024-09-22T12:43:48.000Z</time>
      </trkpt>
      <trkpt lat="42.87241" lon="19.14783">
        <ele>1606.9799804688</ele>
        <time>2024-09-22T12:43:49.000Z</time>
      </trkpt>
      <trkpt lat="42.87248" lon="19.14787">
        <ele>1608.4200439453</ele>
        <time>2024-09-22T12:43:50.000Z</time>
      </trkpt>
      <trkpt lat="42.8725" lon="19.14789">
        <ele>1608.4200439453</ele>
        <time>2024-09-22T12:43:51.000Z</time>
      </trkpt>
      <trkpt lat="42.87252" lon="19.14792">
        <ele>1609.3800048828</ele>
        <time>2024-09-22T12:43:52.000Z</time>
      </trkpt>
      <trkpt lat="42.87254" lon="19.14798">
        <ele>1609.8599853516</ele>
        <time>2024-09-22T12:43:53.000Z</time>
      </trkpt>
      <trkpt lat="42.87254" lon="19.14805">
        <ele>1610.8299560547</ele>
        <time>2024-09-22T12:43:54.000Z</time>
      </trkpt>
      <trkpt lat="42.87253" lon="19.14814">
        <ele>1611.3100585938</ele>
        <time>2024-09-22T12:43:55.000Z</time>
      </trkpt>
      <trkpt lat="42.87249" lon="19.14835">
        <ele>1612.75</ele>
        <time>2024-09-22T12:43:57.000Z</time>
      </trkpt>
      <trkpt lat="42.87244" lon="19.1487">
        <ele>1614.1899414062</ele>
        <time>2024-09-22T12:44:00.000Z</time>
      </trkpt>
      <trkpt lat="42.87243" lon="19.14878">
        <ele>1614.6700439453</ele>
        <time>2024-09-22T12:44:01.000Z</time>
      </trkpt>
      <trkpt lat="42.87243" lon="19.14883">
        <ele>1614.6700439453</ele>
        <time>2024-09-22T12:44:02.000Z</time>
      </trkpt>
      <trkpt lat="42.87239" lon="19.14899">
        <ele>1615.1500244141</ele>
        <time>2024-09-22T12:44:04.000Z</time>
      </trkpt>
      <trkpt lat="42.87238" lon="19.14904">
        <ele>1615.1500244141</ele>
        <time>2024-09-22T12:44:05.000Z</time>
      </trkpt>
      <trkpt lat="42.87235" lon="19.14912">
        <ele>1615.1500244141</ele>
        <time>2024-09-22T12:44:06.000Z</time>
      </trkpt>
      <trkpt lat="42.87233" lon="19.14918">
        <ele>1615.6300048828</ele>
        <time>2024-09-22T12:44:07.000Z</time>
      </trkpt>
      <trkpt lat="42.8723" lon="19.14925">
        <ele>1615.6300048828</ele>
        <time>2024-09-22T12:44:08.000Z</time>
      </trkpt>
      <trkpt lat="42.87226" lon="19.14932">
        <ele>1616.1099853516</ele>
        <time>2024-09-22T12:44:09.000Z</time>
      </trkpt>
      <trkpt lat="42.87221" lon="19.14939">
        <ele>1616.1099853516</ele>
        <time>2024-09-22T12:44:10.000Z</time>
      </trkpt>
      <trkpt lat="42.87217" lon="19.14945">
        <ele>1616.5899658203</ele>
        <time>2024-09-22T12:44:11.000Z</time>
      </trkpt>
      <trkpt lat="42.87211" lon="19.14951">
        <ele>1617.0699462891</ele>
        <time>2024-09-22T12:44:12.000Z</time>
      </trkpt>
      <trkpt lat="42.87205" lon="19.14956">
        <ele>1617.0699462891</ele>
        <time>2024-09-22T12:44:13.000Z</time>
      </trkpt>
      <trkpt lat="42.87201" lon="19.1496">
        <ele>1617.5600585938</ele>
        <time>2024-09-22T12:44:14.000Z</time>
      </trkpt>
      <trkpt lat="42.87194" lon="19.14963">
        <ele>1617.5600585938</ele>
        <time>2024-09-22T12:44:15.000Z</time>
      </trkpt>
      <trkpt lat="42.87153" lon="19.14982">
        <ele>1618.0400390625</ele>
        <time>2024-09-22T12:44:19.000Z</time>
      </trkpt>
      <trkpt lat="42.87102" lon="19.15009">
        <ele>1619.4799804688</ele>
        <time>2024-09-22T12:44:24.000Z</time>
      </trkpt>
      <trkpt lat="42.87094" lon="19.15014">
        <ele>1620.4399414062</ele>
        <time>2024-09-22T12:44:25.000Z</time>
      </trkpt>
      <trkpt lat="42.8702" lon="19.15059">
        <ele>1625.25</ele>
        <time>2024-09-22T12:44:32.000Z</time>
      </trkpt>
      <trkpt lat="42.87018" lon="19.1506">
        <ele>1625.25</ele>
        <time>2024-09-22T12:44:33.000Z</time>
      </trkpt>
      <trkpt lat="42.87006" lon="19.15067">
        <ele>1625.7299804688</ele>
        <time>2024-09-22T12:44:34.000Z</time>
      </trkpt>
      <trkpt lat="42.8697" lon="19.15088">
        <ele>1627.1700439453</ele>
        <time>2024-09-22T12:44:38.000Z</time>
      </trkpt>
      <trkpt lat="42.86966" lon="19.15091">
        <ele>1627.1700439453</ele>
        <time>2024-09-22T12:44:39.000Z</time>
      </trkpt>
      <trkpt lat="42.86961" lon="19.15095">
        <ele>1627.1700439453</ele>
        <time>2024-09-22T12:44:40.000Z</time>
      </trkpt>
      <trkpt lat="42.86957" lon="19.15099">
        <ele>1627.1700439453</ele>
        <time>2024-09-22T12:44:41.000Z</time>
      </trkpt>
      <trkpt lat="42.86955" lon="19.15102">
        <ele>1627.1700439453</ele>
        <time>2024-09-22T12:44:42.000Z</time>
      </trkpt>
      <trkpt lat="42.86943" lon="19.15107">
        <ele>1627.1700439453</ele>
        <time>2024-09-22T12:44:45.000Z</time>
      </trkpt>
      <trkpt lat="42.86939" lon="19.15108">
        <ele>1626.6899414062</ele>
        <time>2024-09-22T12:44:46.000Z</time>
      </trkpt>
      <trkpt lat="42.86929" lon="19.15114">
        <ele>1626.6899414062</ele>
        <time>2024-09-22T12:44:47.000Z</time>
      </trkpt>
      <trkpt lat="42.86928" lon="19.15114">
        <ele>1626.6899414062</ele>
        <time>2024-09-22T12:44:48.000Z</time>
      </trkpt>
      <trkpt lat="42.86922" lon="19.15117">
        <ele>1626.2099609375</ele>
        <time>2024-09-22T12:44:49.000Z</time>
      </trkpt>
      <trkpt lat="42.86912" lon="19.1512">
        <ele>1626.2099609375</ele>
        <time>2024-09-22T12:44:50.000Z</time>
      </trkpt>
      <trkpt lat="42.86893" lon="19.15129">
        <ele>1625.7299804688</ele>
        <time>2024-09-22T12:44:52.000Z</time>
      </trkpt>
      <trkpt lat="42.86889" lon="19.15131">
        <ele>1625.25</ele>
        <time>2024-09-22T12:44:53.000Z</time>
      </trkpt>
      <trkpt lat="42.86882" lon="19.15136">
        <ele>1625.25</ele>
        <time>2024-09-22T12:44:54.000Z</time>
      </trkpt>
      <trkpt lat="42.86875" lon="19.15143">
        <ele>1624.7700195312</ele>
        <time>2024-09-22T12:44:55.000Z</time>
      </trkpt>
      <trkpt lat="42.86868" lon="19.15152">
        <ele>1624.7700195312</ele>
        <time>2024-09-22T12:44:56.000Z</time>
      </trkpt>
      <trkpt lat="42.86859" lon="19.15168">
        <ele>1624.7700195312</ele>
        <time>2024-09-22T12:44:57.000Z</time>
      </trkpt>
      <trkpt lat="42.86851" lon="19.15183">
        <ele>1624.2800292969</ele>
        <time>2024-09-22T12:44:59.000Z</time>
      </trkpt>
      <trkpt lat="42.86847" lon="19.1519">
        <ele>1623.8000488281</ele>
        <time>2024-09-22T12:45:00.000Z</time>
      </trkpt>
      <trkpt lat="42.8684" lon="19.15204">
        <ele>1622.8399658203</ele>
        <time>2024-09-22T12:45:01.000Z</time>
      </trkpt>
      <trkpt lat="42.86837" lon="19.15209">
        <ele>1622.8399658203</ele>
        <time>2024-09-22T12:45:02.000Z</time>
      </trkpt>
      <trkpt lat="42.86832" lon="19.15216">
        <ele>1621.8800048828</ele>
        <time>2024-09-22T12:45:03.000Z</time>
      </trkpt>
      <trkpt lat="42.86825" lon="19.15224">
        <ele>1621.4000244141</ele>
        <time>2024-09-22T12:45:04.000Z</time>
      </trkpt>
      <trkpt lat="42.86818" lon="19.1523">
        <ele>1620.4399414062</ele>
        <time>2024-09-22T12:45:05.000Z</time>
      </trkpt>
      <trkpt lat="42.86812" lon="19.15235">
        <ele>1619.4799804688</ele>
        <time>2024-09-22T12:45:06.000Z</time>
      </trkpt>
      <trkpt lat="42.86806" lon="19.1524">
        <ele>1619</ele>
        <time>2024-09-22T12:45:07.000Z</time>
      </trkpt>
      <trkpt lat="42.86801" lon="19.15246">
        <ele>1618.0400390625</ele>
        <time>2024-09-22T12:45:08.000Z</time>
      </trkpt>
      <trkpt lat="42.86795" lon="19.15254">
        <ele>1617.0699462891</ele>
        <time>2024-09-22T12:45:09.000Z</time>
      </trkpt>
      <trkpt lat="42.8679" lon="19.15263">
        <ele>1616.1099853516</ele>
        <time>2024-09-22T12:45:10.000Z</time>
      </trkpt>
      <trkpt lat="42.86788" lon="19.15269">
        <ele>1615.1500244141</ele>
        <time>2024-09-22T12:45:11.000Z</time>
      </trkpt>
      <trkpt lat="42.86784" lon="19.15278">
        <ele>1614.1899414062</ele>
        <time>2024-09-22T12:45:12.000Z</time>
      </trkpt>
      <trkpt lat="42.86781" lon="19.1529">
        <ele>1613.2299804688</ele>
        <time>2024-09-22T12:45:13.000Z</time>
      </trkpt>
      <trkpt lat="42.86778" lon="19.15298">
        <ele>1612.2700195312</ele>
        <time>2024-09-22T12:45:14.000Z</time>
      </trkpt>
      <trkpt lat="42.86774" lon="19.15312">
        <ele>1611.3100585938</ele>
        <time>2024-09-22T12:45:15.000Z</time>
      </trkpt>
      <trkpt lat="42.86774" lon="19.15314">
        <ele>1611.3100585938</ele>
        <time>2024-09-22T12:45:16.000Z</time>
      </trkpt>
      <trkpt lat="42.86771" lon="19.1532">
        <ele>1610.8299560547</ele>
        <time>2024-09-22T12:45:17.000Z</time>
      </trkpt>
      <trkpt lat="42.86768" lon="19.15328">
        <ele>1610.8299560547</ele>
        <time>2024-09-22T12:45:18.000Z</time>
      </trkpt>
      <trkpt lat="42.86766" lon="19.15331">
        <ele>1610.8299560547</ele>
        <time>2024-09-22T12:45:19.000Z</time>
      </trkpt>
      <trkpt lat="42.86763" lon="19.1534">
        <ele>1610.3499755859</ele>
        <time>2024-09-22T12:45:26.000Z</time>
      </trkpt>
      <trkpt lat="42.86758" lon="19.15348">
        <ele>1611.7900390625</ele>
        <time>2024-09-22T12:45:53.000Z</time>
      </trkpt>
      <trkpt lat="42.86756" lon="19.15353">
        <ele>1611.7900390625</ele>
        <time>2024-09-22T12:45:54.000Z</time>
      </trkpt>
      <trkpt lat="42.86754" lon="19.15357">
        <ele>1611.7900390625</ele>
        <time>2024-09-22T12:45:55.000Z</time>
      </trkpt>
      <trkpt lat="42.86752" lon="19.15365">
        <ele>1611.3100585938</ele>
        <time>2024-09-22T12:45:56.000Z</time>
      </trkpt>
      <trkpt lat="42.86751" lon="19.15372">
        <ele>1610.8299560547</ele>
        <time>2024-09-22T12:45:57.000Z</time>
      </trkpt>
      <trkpt lat="42.8675" lon="19.15382">
        <ele>1610.3499755859</ele>
        <time>2024-09-22T12:45:58.000Z</time>
      </trkpt>
      <trkpt lat="42.8675" lon="19.1539">
        <ele>1609.8599853516</ele>
        <time>2024-09-22T12:45:59.000Z</time>
      </trkpt>
      <trkpt lat="42.86751" lon="19.15398">
        <ele>1609.8599853516</ele>
        <time>2024-09-22T12:46:00.000Z</time>
      </trkpt>
      <trkpt lat="42.86751" lon="19.1541">
        <ele>1609.3800048828</ele>
        <time>2024-09-22T12:46:02.000Z</time>
      </trkpt>
      <trkpt lat="42.86751" lon="19.15415">
        <ele>1609.3800048828</ele>
        <time>2024-09-22T12:46:03.000Z</time>
      </trkpt>
      <trkpt lat="42.8675" lon="19.15421">
        <ele>1608.9000244141</ele>
        <time>2024-09-22T12:46:04.000Z</time>
      </trkpt>
      <trkpt lat="42.86748" lon="19.15428">
        <ele>1608.9000244141</ele>
        <time>2024-09-22T12:46:05.000Z</time>
      </trkpt>
      <trkpt lat="42.86744" lon="19.15437">
        <ele>1608.4200439453</ele>
        <time>2024-09-22T12:46:06.000Z</time>
      </trkpt>
      <trkpt lat="42.86742" lon="19.15444">
        <ele>1608.4200439453</ele>
        <time>2024-09-22T12:46:07.000Z</time>
      </trkpt>
      <trkpt lat="42.86741" lon="19.15453">
        <ele>1607.9399414062</ele>
        <time>2024-09-22T12:46:08.000Z</time>
      </trkpt>
      <trkpt lat="42.8674" lon="19.15463">
        <ele>1607.9399414062</ele>
        <time>2024-09-22T12:46:09.000Z</time>
      </trkpt>
      <trkpt lat="42.86742" lon="19.15488">
        <ele>1607.9399414062</ele>
        <time>2024-09-22T12:46:11.000Z</time>
      </trkpt>
      <trkpt lat="42.86742" lon="19.15493">
        <ele>1608.4200439453</ele>
        <time>2024-09-22T12:46:12.000Z</time>
      </trkpt>
      <trkpt lat="42.86741" lon="19.15503">
        <ele>1608.4200439453</ele>
        <time>2024-09-22T12:46:13.000Z</time>
      </trkpt>
      <trkpt lat="42.86739" lon="19.15526">
        <ele>1608.9000244141</ele>
        <time>2024-09-22T12:46:15.000Z</time>
      </trkpt>
      <trkpt lat="42.86739" lon="19.15532">
        <ele>1608.9000244141</ele>
        <time>2024-09-22T12:46:16.000Z</time>
      </trkpt>
      <trkpt lat="42.8674" lon="19.15543">
        <ele>1608.4200439453</ele>
        <time>2024-09-22T12:46:17.000Z</time>
      </trkpt>
      <trkpt lat="42.86744" lon="19.15583">
        <ele>1607.9399414062</ele>
        <time>2024-09-22T12:46:21.000Z</time>
      </trkpt>
      <trkpt lat="42.86744" lon="19.15587">
        <ele>1607.9399414062</ele>
        <time>2024-09-22T12:46:22.000Z</time>
      </trkpt>
      <trkpt lat="42.86745" lon="19.15591">
        <ele>1607.4599609375</ele>
        <time>2024-09-22T12:46:23.000Z</time>
      </trkpt>
      <trkpt lat="42.86744" lon="19.15597">
        <ele>1607.4599609375</ele>
        <time>2024-09-22T12:46:24.000Z</time>
      </trkpt>
      <trkpt lat="42.86741" lon="19.15601">
        <ele>1607.4599609375</ele>
        <time>2024-09-22T12:46:25.000Z</time>
      </trkpt>
      <trkpt lat="42.86738" lon="19.15604">
        <ele>1606.9799804688</ele>
        <time>2024-09-22T12:46:26.000Z</time>
      </trkpt>
      <trkpt lat="42.86734" lon="19.15607">
        <ele>1606.9799804688</ele>
        <time>2024-09-22T12:46:27.000Z</time>
      </trkpt>
      <trkpt lat="42.86729" lon="19.15608">
        <ele>1606.0200195312</ele>
        <time>2024-09-22T12:46:28.000Z</time>
      </trkpt>
      <trkpt lat="42.86723" lon="19.15608">
        <ele>1605.5400390625</ele>
        <time>2024-09-22T12:46:29.000Z</time>
      </trkpt>
      <trkpt lat="42.86714" lon="19.15607">
        <ele>1604.5799560547</ele>
        <time>2024-09-22T12:46:30.000Z</time>
      </trkpt>
      <trkpt lat="42.86712" lon="19.15606">
        <ele>1604.0999755859</ele>
        <time>2024-09-22T12:46:31.000Z</time>
      </trkpt>
      <trkpt lat="42.86706" lon="19.15605">
        <ele>1603.6199951172</ele>
        <time>2024-09-22T12:46:32.000Z</time>
      </trkpt>
      <trkpt lat="42.86694" lon="19.15599">
        <ele>1602.1700439453</ele>
        <time>2024-09-22T12:46:34.000Z</time>
      </trkpt>
      <trkpt lat="42.8669" lon="19.15596">
        <ele>1601.6899414062</ele>
        <time>2024-09-22T12:46:35.000Z</time>
      </trkpt>
      <trkpt lat="42.86685" lon="19.15592">
        <ele>1600.7299804688</ele>
        <time>2024-09-22T12:46:36.000Z</time>
      </trkpt>
      <trkpt lat="42.86679" lon="19.15589">
        <ele>1600.25</ele>
        <time>2024-09-22T12:46:37.000Z</time>
      </trkpt>
      <trkpt lat="42.86673" lon="19.15587">
        <ele>1599.7700195312</ele>
        <time>2024-09-22T12:46:38.000Z</time>
      </trkpt>
      <trkpt lat="42.86668" lon="19.15587">
        <ele>1598.8100585938</ele>
        <time>2024-09-22T12:46:39.000Z</time>
      </trkpt>
      <trkpt lat="42.86662" lon="19.15588">
        <ele>1598.3299560547</ele>
        <time>2024-09-22T12:46:40.000Z</time>
      </trkpt>
      <trkpt lat="42.86657" lon="19.15592">
        <ele>1598.3299560547</ele>
        <time>2024-09-22T12:46:41.000Z</time>
      </trkpt>
      <trkpt lat="42.86653" lon="19.15597">
        <ele>1597.8499755859</ele>
        <time>2024-09-22T12:46:42.000Z</time>
      </trkpt>
      <trkpt lat="42.86648" lon="19.15603">
        <ele>1597.3699951172</ele>
        <time>2024-09-22T12:46:43.000Z</time>
      </trkpt>
      <trkpt lat="42.8664" lon="19.15614">
        <ele>1596.8900146484</ele>
        <time>2024-09-22T12:46:44.000Z</time>
      </trkpt>
      <trkpt lat="42.86634" lon="19.15622">
        <ele>1595.9300537109</ele>
        <time>2024-09-22T12:46:46.000Z</time>
      </trkpt>
      <trkpt lat="42.8663" lon="19.15627">
        <ele>1595.4499511719</ele>
        <time>2024-09-22T12:46:47.000Z</time>
      </trkpt>
      <trkpt lat="42.86624" lon="19.15631">
        <ele>1594.9599609375</ele>
        <time>2024-09-22T12:46:48.000Z</time>
      </trkpt>
      <trkpt lat="42.86619" lon="19.15634">
        <ele>1594</ele>
        <time>2024-09-22T12:46:49.000Z</time>
      </trkpt>
      <trkpt lat="42.86613" lon="19.15637">
        <ele>1593.5200195312</ele>
        <time>2024-09-22T12:46:50.000Z</time>
      </trkpt>
      <trkpt lat="42.86607" lon="19.15638">
        <ele>1592.5600585938</ele>
        <time>2024-09-22T12:46:51.000Z</time>
      </trkpt>
      <trkpt lat="42.86601" lon="19.15637">
        <ele>1591.5999755859</ele>
        <time>2024-09-22T12:46:52.000Z</time>
      </trkpt>
      <trkpt lat="42.86596" lon="19.15636">
        <ele>1591.1199951172</ele>
        <time>2024-09-22T12:46:53.000Z</time>
      </trkpt>
      <trkpt lat="42.86591" lon="19.15634">
        <ele>1590.1600341797</ele>
        <time>2024-09-22T12:46:54.000Z</time>
      </trkpt>
      <trkpt lat="42.86585" lon="19.15649">
        <ele>1588.7199707031</ele>
        <time>2024-09-22T12:46:59.000Z</time>
      </trkpt>
      <trkpt lat="42.86589" lon="19.15653">
        <ele>1588.2399902344</ele>
        <time>2024-09-22T12:47:01.000Z</time>
      </trkpt>
      <trkpt lat="42.86594" lon="19.15657">
        <ele>1587.2700195312</ele>
        <time>2024-09-22T12:47:02.000Z</time>
      </trkpt>
      <trkpt lat="42.86597" lon="19.15659">
        <ele>1586.7900390625</ele>
        <time>2024-09-22T12:47:03.000Z</time>
      </trkpt>
      <trkpt lat="42.86601" lon="19.15662">
        <ele>1586.3100585938</ele>
        <time>2024-09-22T12:47:04.000Z</time>
      </trkpt>
      <trkpt lat="42.86607" lon="19.15667">
        <ele>1585.3499755859</ele>
        <time>2024-09-22T12:47:05.000Z</time>
      </trkpt>
      <trkpt lat="42.86613" lon="19.15671">
        <ele>1584.3900146484</ele>
        <time>2024-09-22T12:47:06.000Z</time>
      </trkpt>
      <trkpt lat="42.86615" lon="19.15672">
        <ele>1583.9100341797</ele>
        <time>2024-09-22T12:47:07.000Z</time>
      </trkpt>
      <trkpt lat="42.8662" lon="19.15675">
        <ele>1583.4300537109</ele>
        <time>2024-09-22T12:47:08.000Z</time>
      </trkpt>
      <trkpt lat="42.86626" lon="19.15679">
        <ele>1581.9899902344</ele>
        <time>2024-09-22T12:47:09.000Z</time>
      </trkpt>
      <trkpt lat="42.8663" lon="19.15682">
        <ele>1581.5100097656</ele>
        <time>2024-09-22T12:47:10.000Z</time>
      </trkpt>
      <trkpt lat="42.86635" lon="19.15687">
        <ele>1580.5400390625</ele>
        <time>2024-09-22T12:47:11.000Z</time>
      </trkpt>
      <trkpt lat="42.86639" lon="19.15692">
        <ele>1579.5799560547</ele>
        <time>2024-09-22T12:47:12.000Z</time>
      </trkpt>
      <trkpt lat="42.86643" lon="19.15698">
        <ele>1578.6199951172</ele>
        <time>2024-09-22T12:47:13.000Z</time>
      </trkpt>
      <trkpt lat="42.86646" lon="19.15702">
        <ele>1578.1400146484</ele>
        <time>2024-09-22T12:47:14.000Z</time>
      </trkpt>
      <trkpt lat="42.8665" lon="19.15707">
        <ele>1577.1800537109</ele>
        <time>2024-09-22T12:47:15.000Z</time>
      </trkpt>
      <trkpt lat="42.86655" lon="19.1571">
        <ele>1576.6999511719</ele>
        <time>2024-09-22T12:47:16.000Z</time>
      </trkpt>
      <trkpt lat="42.8666" lon="19.15713">
        <ele>1575.7399902344</ele>
        <time>2024-09-22T12:47:17.000Z</time>
      </trkpt>
      <trkpt lat="42.86665" lon="19.15714">
        <ele>1574.7800292969</ele>
        <time>2024-09-22T12:47:18.000Z</time>
      </trkpt>
      <trkpt lat="42.86671" lon="19.15714">
        <ele>1573.8199462891</ele>
        <time>2024-09-22T12:47:19.000Z</time>
      </trkpt>
      <trkpt lat="42.86678" lon="19.15713">
        <ele>1572.8499755859</ele>
        <time>2024-09-22T12:47:20.000Z</time>
      </trkpt>
      <trkpt lat="42.86681" lon="19.15712">
        <ele>1572.3699951172</ele>
        <time>2024-09-22T12:47:21.000Z</time>
      </trkpt>
      <trkpt lat="42.86697" lon="19.15715">
        <ele>1569.4899902344</ele>
        <time>2024-09-22T12:47:28.000Z</time>
      </trkpt>
      <trkpt lat="42.8669" lon="19.15724">
        <ele>1569.0100097656</ele>
        <time>2024-09-22T12:47:31.000Z</time>
      </trkpt>
      <trkpt lat="42.86687" lon="19.15725">
        <ele>1568.5300292969</ele>
        <time>2024-09-22T12:47:32.000Z</time>
      </trkpt>
      <trkpt lat="42.86682" lon="19.15728">
        <ele>1568.5300292969</ele>
        <time>2024-09-22T12:47:33.000Z</time>
      </trkpt>
      <trkpt lat="42.86678" lon="19.1573">
        <ele>1568.0500488281</ele>
        <time>2024-09-22T12:47:34.000Z</time>
      </trkpt>
      <trkpt lat="42.86673" lon="19.15746">
        <ele>1566.1199951172</ele>
        <time>2024-09-22T12:47:39.000Z</time>
      </trkpt>
      <trkpt lat="42.86683" lon="19.15743">
        <ele>1565.1600341797</ele>
        <time>2024-09-22T12:47:42.000Z</time>
      </trkpt>
      <trkpt lat="42.86684" lon="19.15742">
        <ele>1565.1600341797</ele>
        <time>2024-09-22T12:47:43.000Z</time>
      </trkpt>
      <trkpt lat="42.86688" lon="19.15741">
        <ele>1564.1999511719</ele>
        <time>2024-09-22T12:47:44.000Z</time>
      </trkpt>
      <trkpt lat="42.86694" lon="19.15739">
        <ele>1563.2399902344</ele>
        <time>2024-09-22T12:47:45.000Z</time>
      </trkpt>
      <trkpt lat="42.86699" lon="19.15737">
        <ele>1562.7600097656</ele>
        <time>2024-09-22T12:47:46.000Z</time>
      </trkpt>
      <trkpt lat="42.86705" lon="19.15736">
        <ele>1561.8000488281</ele>
        <time>2024-09-22T12:47:47.000Z</time>
      </trkpt>
      <trkpt lat="42.86711" lon="19.15737">
        <ele>1561.3199462891</ele>
        <time>2024-09-22T12:47:48.000Z</time>
      </trkpt>
      <trkpt lat="42.86717" lon="19.1574">
        <ele>1560.3599853516</ele>
        <time>2024-09-22T12:47:49.000Z</time>
      </trkpt>
      <trkpt lat="42.86722" lon="19.15742">
        <ele>1559.4000244141</ele>
        <time>2024-09-22T12:47:50.000Z</time>
      </trkpt>
      <trkpt lat="42.86728" lon="19.15748">
        <ele>1558.4300537109</ele>
        <time>2024-09-22T12:47:51.000Z</time>
      </trkpt>
      <trkpt lat="42.86733" lon="19.15753">
        <ele>1557.4699707031</ele>
        <time>2024-09-22T12:47:52.000Z</time>
      </trkpt>
      <trkpt lat="42.86737" lon="19.15757">
        <ele>1556.9899902344</ele>
        <time>2024-09-22T12:47:53.000Z</time>
      </trkpt>
      <trkpt lat="42.86743" lon="19.15763">
        <ele>1555.5500488281</ele>
        <time>2024-09-22T12:47:54.000Z</time>
      </trkpt>
      <trkpt lat="42.86749" lon="19.15771">
        <ele>1554.1099853516</ele>
        <time>2024-09-22T12:47:55.000Z</time>
      </trkpt>
      <trkpt lat="42.86752" lon="19.15775">
        <ele>1553.1500244141</ele>
        <time>2024-09-22T12:47:56.000Z</time>
      </trkpt>
      <trkpt lat="42.86756" lon="19.15782">
        <ele>1552.1899414062</ele>
        <time>2024-09-22T12:47:57.000Z</time>
      </trkpt>
      <trkpt lat="42.86759" lon="19.15788">
        <ele>1551.2199707031</ele>
        <time>2024-09-22T12:47:58.000Z</time>
      </trkpt>
      <trkpt lat="42.86762" lon="19.15793">
        <ele>1550.7399902344</ele>
        <time>2024-09-22T12:47:59.000Z</time>
      </trkpt>
      <trkpt lat="42.86757" lon="19.1581">
        <ele>1546.9000244141</ele>
        <time>2024-09-22T12:48:04.000Z</time>
      </trkpt>
      <trkpt lat="42.86754" lon="19.15812">
        <ele>1545.9399414062</ele>
        <time>2024-09-22T12:48:05.000Z</time>
      </trkpt>
      <trkpt lat="42.86749" lon="19.15814">
        <ele>1544.9799804688</ele>
        <time>2024-09-22T12:48:06.000Z</time>
      </trkpt>
      <trkpt lat="42.86742" lon="19.15815">
        <ele>1544.0100097656</ele>
        <time>2024-09-22T12:48:07.000Z</time>
      </trkpt>
      <trkpt lat="42.86738" lon="19.15815">
        <ele>1543.5300292969</ele>
        <time>2024-09-22T12:48:08.000Z</time>
      </trkpt>
      <trkpt lat="42.86733" lon="19.15817">
        <ele>1542.5699462891</ele>
        <time>2024-09-22T12:48:09.000Z</time>
      </trkpt>
      <trkpt lat="42.86727" lon="19.15819">
        <ele>1541.6099853516</ele>
        <time>2024-09-22T12:48:10.000Z</time>
      </trkpt>
      <trkpt lat="42.86714" lon="19.15826">
        <ele>1539.6899414062</ele>
        <time>2024-09-22T12:48:12.000Z</time>
      </trkpt>
      <trkpt lat="42.86708" lon="19.15829">
        <ele>1538.7299804688</ele>
        <time>2024-09-22T12:48:13.000Z</time>
      </trkpt>
      <trkpt lat="42.86704" lon="19.15852">
        <ele>1536.8000488281</ele>
        <time>2024-09-22T12:48:19.000Z</time>
      </trkpt>
      <trkpt lat="42.86713" lon="19.1586">
        <ele>1534.8800048828</ele>
        <time>2024-09-22T12:48:22.000Z</time>
      </trkpt>
      <trkpt lat="42.86716" lon="19.15861">
        <ele>1534.4000244141</ele>
        <time>2024-09-22T12:48:23.000Z</time>
      </trkpt>
      <trkpt lat="42.86727" lon="19.15864">
        <ele>1532.9599609375</ele>
        <time>2024-09-22T12:48:25.000Z</time>
      </trkpt>
      <trkpt lat="42.8673" lon="19.15864">
        <ele>1532.4799804688</ele>
        <time>2024-09-22T12:48:26.000Z</time>
      </trkpt>
      <trkpt lat="42.86735" lon="19.15866">
        <ele>1531.5200195312</ele>
        <time>2024-09-22T12:48:27.000Z</time>
      </trkpt>
      <trkpt lat="42.86739" lon="19.15868">
        <ele>1530.5600585938</ele>
        <time>2024-09-22T12:48:28.000Z</time>
      </trkpt>
      <trkpt lat="42.86743" lon="19.1587">
        <ele>1529.5899658203</ele>
        <time>2024-09-22T12:48:29.000Z</time>
      </trkpt>
      <trkpt lat="42.86746" lon="19.15875">
        <ele>1528.6300048828</ele>
        <time>2024-09-22T12:48:30.000Z</time>
      </trkpt>
      <trkpt lat="42.86749" lon="19.15885">
        <ele>1527.6700439453</ele>
        <time>2024-09-22T12:48:32.000Z</time>
      </trkpt>
      <trkpt lat="42.86748" lon="19.15891">
        <ele>1527.1899414062</ele>
        <time>2024-09-22T12:48:33.000Z</time>
      </trkpt>
      <trkpt lat="42.86747" lon="19.15899">
        <ele>1526.2299804688</ele>
        <time>2024-09-22T12:48:34.000Z</time>
      </trkpt>
      <trkpt lat="42.86746" lon="19.15903">
        <ele>1526.2299804688</ele>
        <time>2024-09-22T12:48:35.000Z</time>
      </trkpt>
      <trkpt lat="42.86748" lon="19.15914">
        <ele>1524.7900390625</ele>
        <time>2024-09-22T12:48:37.000Z</time>
      </trkpt>
      <trkpt lat="42.86751" lon="19.15917">
        <ele>1524.3100585938</ele>
        <time>2024-09-22T12:48:38.000Z</time>
      </trkpt>
      <trkpt lat="42.86755" lon="19.1592">
        <ele>1523.8299560547</ele>
        <time>2024-09-22T12:48:39.000Z</time>
      </trkpt>
      <trkpt lat="42.86759" lon="19.15923">
        <ele>1522.8699951172</ele>
        <time>2024-09-22T12:48:40.000Z</time>
      </trkpt>
      <trkpt lat="42.86764" lon="19.15925">
        <ele>1522.3900146484</ele>
        <time>2024-09-22T12:48:41.000Z</time>
      </trkpt>
      <trkpt lat="42.86775" lon="19.15929">
        <ele>1520.4599609375</ele>
        <time>2024-09-22T12:48:43.000Z</time>
      </trkpt>
      <trkpt lat="42.8678" lon="19.15931">
        <ele>1519.5</ele>
        <time>2024-09-22T12:48:44.000Z</time>
      </trkpt>
      <trkpt lat="42.86785" lon="19.15932">
        <ele>1519.0200195312</ele>
        <time>2024-09-22T12:48:45.000Z</time>
      </trkpt>
      <trkpt lat="42.86792" lon="19.15932">
        <ele>1517.5799560547</ele>
        <time>2024-09-22T12:48:46.000Z</time>
      </trkpt>
      <trkpt lat="42.86796" lon="19.15933">
        <ele>1517.0999755859</ele>
        <time>2024-09-22T12:48:47.000Z</time>
      </trkpt>
      <trkpt lat="42.86802" lon="19.15933">
        <ele>1516.1400146484</ele>
        <time>2024-09-22T12:48:48.000Z</time>
      </trkpt>
      <trkpt lat="42.86806" lon="19.15933">
        <ele>1515.6600341797</ele>
        <time>2024-09-22T12:48:49.000Z</time>
      </trkpt>
      <trkpt lat="42.8681" lon="19.15934">
        <ele>1515.1800537109</ele>
        <time>2024-09-22T12:48:50.000Z</time>
      </trkpt>
      <trkpt lat="42.86822" lon="19.1594">
        <ele>1513.25</ele>
        <time>2024-09-22T12:48:53.000Z</time>
      </trkpt>
      <trkpt lat="42.86826" lon="19.15942">
        <ele>1512.7700195312</ele>
        <time>2024-09-22T12:48:54.000Z</time>
      </trkpt>
      <trkpt lat="42.8683" lon="19.15943">
        <ele>1512.2900390625</ele>
        <time>2024-09-22T12:48:55.000Z</time>
      </trkpt>
      <trkpt lat="42.86835" lon="19.15946">
        <ele>1511.3299560547</ele>
        <time>2024-09-22T12:48:56.000Z</time>
      </trkpt>
      <trkpt lat="42.8684" lon="19.15949">
        <ele>1510.3699951172</ele>
        <time>2024-09-22T12:48:57.000Z</time>
      </trkpt>
      <trkpt lat="42.86845" lon="19.15952">
        <ele>1509.4100341797</ele>
        <time>2024-09-22T12:48:58.000Z</time>
      </trkpt>
      <trkpt lat="42.8685" lon="19.15957">
        <ele>1508.4499511719</ele>
        <time>2024-09-22T12:48:59.000Z</time>
      </trkpt>
      <trkpt lat="42.86856" lon="19.1596">
        <ele>1507.4799804688</ele>
        <time>2024-09-22T12:49:00.000Z</time>
      </trkpt>
      <trkpt lat="42.86862" lon="19.15964">
        <ele>1506.5200195312</ele>
        <time>2024-09-22T12:49:01.000Z</time>
      </trkpt>
      <trkpt lat="42.8687" lon="19.15966">
        <ele>1505.5600585938</ele>
        <time>2024-09-22T12:49:02.000Z</time>
      </trkpt>
      <trkpt lat="42.86876" lon="19.15969">
        <ele>1504.5999755859</ele>
        <time>2024-09-22T12:49:03.000Z</time>
      </trkpt>
      <trkpt lat="42.86882" lon="19.15971">
        <ele>1504.1199951172</ele>
        <time>2024-09-22T12:49:04.000Z</time>
      </trkpt>
      <trkpt lat="42.86888" lon="19.15975">
        <ele>1503.1600341797</ele>
        <time>2024-09-22T12:49:05.000Z</time>
      </trkpt>
      <trkpt lat="42.86897" lon="19.15983">
        <ele>1502.1999511719</ele>
        <time>2024-09-22T12:49:06.000Z</time>
      </trkpt>
      <trkpt lat="42.86898" lon="19.15984">
        <ele>1502.1999511719</ele>
        <time>2024-09-22T12:49:07.000Z</time>
      </trkpt>
      <trkpt lat="42.86916" lon="19.16">
        <ele>1500.7600097656</ele>
        <time>2024-09-22T12:49:13.000Z</time>
      </trkpt>
      <trkpt lat="42.8692" lon="19.16003">
        <ele>1500.7600097656</ele>
        <time>2024-09-22T12:49:14.000Z</time>
      </trkpt>
      <trkpt lat="42.86924" lon="19.16006">
        <ele>1500.2700195312</ele>
        <time>2024-09-22T12:49:15.000Z</time>
      </trkpt>
      <trkpt lat="42.86932" lon="19.16011">
        <ele>1499.7900390625</ele>
        <time>2024-09-22T12:49:16.000Z</time>
      </trkpt>
      <trkpt lat="42.86939" lon="19.16014">
        <ele>1499.3100585938</ele>
        <time>2024-09-22T12:49:17.000Z</time>
      </trkpt>
      <trkpt lat="42.86941" lon="19.16015">
        <ele>1499.3100585938</ele>
        <time>2024-09-22T12:49:18.000Z</time>
      </trkpt>
      <trkpt lat="42.86946" lon="19.16017">
        <ele>1499.3100585938</ele>
        <time>2024-09-22T12:49:19.000Z</time>
      </trkpt>
      <trkpt lat="42.86953" lon="19.16019">
        <ele>1499.7900390625</ele>
        <time>2024-09-22T12:49:20.000Z</time>
      </trkpt>
      <trkpt lat="42.86964" lon="19.16019">
        <ele>1499.7900390625</ele>
        <time>2024-09-22T12:49:21.000Z</time>
      </trkpt>
      <trkpt lat="42.86965" lon="19.16019">
        <ele>1499.3100585938</ele>
        <time>2024-09-22T12:49:22.000Z</time>
      </trkpt>
      <trkpt lat="42.86971" lon="19.16019">
        <ele>1499.7900390625</ele>
        <time>2024-09-22T12:49:23.000Z</time>
      </trkpt>
      <trkpt lat="42.86978" lon="19.16021">
        <ele>1499.3100585938</ele>
        <time>2024-09-22T12:49:24.000Z</time>
      </trkpt>
      <trkpt lat="42.86999" lon="19.16026">
        <ele>1499.7900390625</ele>
        <time>2024-09-22T12:49:27.000Z</time>
      </trkpt>
      <trkpt lat="42.87003" lon="19.16026">
        <ele>1499.7900390625</ele>
        <time>2024-09-22T12:49:28.000Z</time>
      </trkpt>
      <trkpt lat="42.87008" lon="19.16027">
        <ele>1499.7900390625</ele>
        <time>2024-09-22T12:49:29.000Z</time>
      </trkpt>
      <trkpt lat="42.87013" lon="19.16027">
        <ele>1499.7900390625</ele>
        <time>2024-09-22T12:49:30.000Z</time>
      </trkpt>
      <trkpt lat="42.87019" lon="19.16026">
        <ele>1499.3100585938</ele>
        <time>2024-09-22T12:49:31.000Z</time>
      </trkpt>
      <trkpt lat="42.87025" lon="19.16024">
        <ele>1498.8299560547</ele>
        <time>2024-09-22T12:49:32.000Z</time>
      </trkpt>
      <trkpt lat="42.87032" lon="19.16022">
        <ele>1498.3499755859</ele>
        <time>2024-09-22T12:49:33.000Z</time>
      </trkpt>
      <trkpt lat="42.87037" lon="19.16021">
        <ele>1498.3499755859</ele>
        <time>2024-09-22T12:49:34.000Z</time>
      </trkpt>
      <trkpt lat="42.87044" lon="19.16021">
        <ele>1498.3499755859</ele>
        <time>2024-09-22T12:49:35.000Z</time>
      </trkpt>
      <trkpt lat="42.87064" lon="19.16023">
        <ele>1498.3499755859</ele>
        <time>2024-09-22T12:49:38.000Z</time>
      </trkpt>
      <trkpt lat="42.87074" lon="19.16024">
        <ele>1497.8699951172</ele>
        <time>2024-09-22T12:49:40.000Z</time>
      </trkpt>
      <trkpt lat="42.87079" lon="19.16024">
        <ele>1497.8699951172</ele>
        <time>2024-09-22T12:49:41.000Z</time>
      </trkpt>
      <trkpt lat="42.87084" lon="19.16023">
        <ele>1497.3900146484</ele>
        <time>2024-09-22T12:49:42.000Z</time>
      </trkpt>
      <trkpt lat="42.87089" lon="19.16022">
        <ele>1496.9100341797</ele>
        <time>2024-09-22T12:49:43.000Z</time>
      </trkpt>
      <trkpt lat="42.87109" lon="19.16018">
        <ele>1496.4300537109</ele>
        <time>2024-09-22T12:49:46.000Z</time>
      </trkpt>
      <trkpt lat="42.87111" lon="19.16018">
        <ele>1496.4300537109</ele>
        <time>2024-09-22T12:49:47.000Z</time>
      </trkpt>
      <trkpt lat="42.87114" lon="19.16017">
        <ele>1496.4300537109</ele>
        <time>2024-09-22T12:49:48.000Z</time>
      </trkpt>
      <trkpt lat="42.87118" lon="19.16016">
        <ele>1496.4300537109</ele>
        <time>2024-09-22T12:49:49.000Z</time>
      </trkpt>
      <trkpt lat="42.87122" lon="19.16015">
        <ele>1496.4300537109</ele>
        <time>2024-09-22T12:49:50.000Z</time>
      </trkpt>
      <trkpt lat="42.8713" lon="19.16014">
        <ele>1496.4300537109</ele>
        <time>2024-09-22T12:49:51.000Z</time>
      </trkpt>
      <trkpt lat="42.87133" lon="19.16013">
        <ele>1496.4300537109</ele>
        <time>2024-09-22T12:49:52.000Z</time>
      </trkpt>
      <trkpt lat="42.8715" lon="19.16009">
        <ele>1495.4699707031</ele>
        <time>2024-09-22T12:49:55.000Z</time>
      </trkpt>
      <trkpt lat="42.87157" lon="19.16007">
        <ele>1494.9899902344</ele>
        <time>2024-09-22T12:49:56.000Z</time>
      </trkpt>
      <trkpt lat="42.87165" lon="19.16005">
        <ele>1494.5100097656</ele>
        <time>2024-09-22T12:49:58.000Z</time>
      </trkpt>
      <trkpt lat="42.87179" lon="19.16001">
        <ele>1494.0300292969</ele>
        <time>2024-09-22T12:50:00.000Z</time>
      </trkpt>
      <trkpt lat="42.87183" lon="19.16">
        <ele>1494.0300292969</ele>
        <time>2024-09-22T12:50:01.000Z</time>
      </trkpt>
      <trkpt lat="42.87189" lon="19.15998">
        <ele>1493.5500488281</ele>
        <time>2024-09-22T12:50:02.000Z</time>
      </trkpt>
      <trkpt lat="42.87196" lon="19.15996">
        <ele>1492.5799560547</ele>
        <time>2024-09-22T12:50:03.000Z</time>
      </trkpt>
      <trkpt lat="42.87199" lon="19.15995">
        <ele>1492.5799560547</ele>
        <time>2024-09-22T12:50:04.000Z</time>
      </trkpt>
      <trkpt lat="42.87207" lon="19.15993">
        <ele>1491.6199951172</ele>
        <time>2024-09-22T12:50:05.000Z</time>
      </trkpt>
      <trkpt lat="42.8721" lon="19.15991">
        <ele>1491.6199951172</ele>
        <time>2024-09-22T12:50:06.000Z</time>
      </trkpt>
      <trkpt lat="42.87217" lon="19.15988">
        <ele>1490.6600341797</ele>
        <time>2024-09-22T12:50:07.000Z</time>
      </trkpt>
      <trkpt lat="42.87222" lon="19.15986">
        <ele>1490.1800537109</ele>
        <time>2024-09-22T12:50:08.000Z</time>
      </trkpt>
      <trkpt lat="42.8723" lon="19.15983">
        <ele>1489.6999511719</ele>
        <time>2024-09-22T12:50:09.000Z</time>
      </trkpt>
      <trkpt lat="42.87234" lon="19.15981">
        <ele>1489.2199707031</ele>
        <time>2024-09-22T12:50:10.000Z</time>
      </trkpt>
      <trkpt lat="42.8724" lon="19.15977">
        <ele>1489.2199707031</ele>
        <time>2024-09-22T12:50:11.000Z</time>
      </trkpt>
      <trkpt lat="42.87244" lon="19.15974">
        <ele>1488.7399902344</ele>
        <time>2024-09-22T12:50:12.000Z</time>
      </trkpt>
      <trkpt lat="42.87251" lon="19.15969">
        <ele>1488.7399902344</ele>
        <time>2024-09-22T12:50:13.000Z</time>
      </trkpt>
      <trkpt lat="42.87256" lon="19.15965">
        <ele>1488.2600097656</ele>
        <time>2024-09-22T12:50:14.000Z</time>
      </trkpt>
      <trkpt lat="42.8726" lon="19.1596">
        <ele>1487.7800292969</ele>
        <time>2024-09-22T12:50:15.000Z</time>
      </trkpt>
      <trkpt lat="42.8727" lon="19.15952">
        <ele>1487.3000488281</ele>
        <time>2024-09-22T12:50:17.000Z</time>
      </trkpt>
      <trkpt lat="42.87276" lon="19.15948">
        <ele>1487.3000488281</ele>
        <time>2024-09-22T12:50:18.000Z</time>
      </trkpt>
      <trkpt lat="42.87281" lon="19.15945">
        <ele>1487.3000488281</ele>
        <time>2024-09-22T12:50:19.000Z</time>
      </trkpt>
      <trkpt lat="42.87295" lon="19.15958">
        <ele>1486.8199462891</ele>
        <time>2024-09-22T12:50:24.000Z</time>
      </trkpt>
      <trkpt lat="42.87296" lon="19.15963">
        <ele>1486.3399658203</ele>
        <time>2024-09-22T12:50:25.000Z</time>
      </trkpt>
      <trkpt lat="42.87298" lon="19.15972">
        <ele>1486.3399658203</ele>
        <time>2024-09-22T12:50:26.000Z</time>
      </trkpt>
      <trkpt lat="42.87299" lon="19.15977">
        <ele>1486.3399658203</ele>
        <time>2024-09-22T12:50:27.000Z</time>
      </trkpt>
      <trkpt lat="42.873" lon="19.15983">
        <ele>1486.3399658203</ele>
        <time>2024-09-22T12:50:28.000Z</time>
      </trkpt>
      <trkpt lat="42.87303" lon="19.15993">
        <ele>1486.3399658203</ele>
        <time>2024-09-22T12:50:29.000Z</time>
      </trkpt>
      <trkpt lat="42.87303" lon="19.15996">
        <ele>1486.3399658203</ele>
        <time>2024-09-22T12:50:30.000Z</time>
      </trkpt>
      <trkpt lat="42.87305" lon="19.16002">
        <ele>1486.3399658203</ele>
        <time>2024-09-22T12:50:31.000Z</time>
      </trkpt>
      <trkpt lat="42.87309" lon="19.16015">
        <ele>1486.3399658203</ele>
        <time>2024-09-22T12:50:33.000Z</time>
      </trkpt>
      <trkpt lat="42.87311" lon="19.16022">
        <ele>1486.3399658203</ele>
        <time>2024-09-22T12:50:34.000Z</time>
      </trkpt>
      <trkpt lat="42.87312" lon="19.16029">
        <ele>1486.3399658203</ele>
        <time>2024-09-22T12:50:35.000Z</time>
      </trkpt>
      <trkpt lat="42.87314" lon="19.16039">
        <ele>1486.8199462891</ele>
        <time>2024-09-22T12:50:36.000Z</time>
      </trkpt>
      <trkpt lat="42.87316" lon="19.16051">
        <ele>1487.3000488281</ele>
        <time>2024-09-22T12:50:37.000Z</time>
      </trkpt>
      <trkpt lat="42.87316" lon="19.16054">
        <ele>1487.3000488281</ele>
        <time>2024-09-22T12:50:38.000Z</time>
      </trkpt>
      <trkpt lat="42.87318" lon="19.16062">
        <ele>1487.7800292969</ele>
        <time>2024-09-22T12:50:39.000Z</time>
      </trkpt>
      <trkpt lat="42.8732" lon="19.16068">
        <ele>1488.2600097656</ele>
        <time>2024-09-22T12:50:40.000Z</time>
      </trkpt>
      <trkpt lat="42.87321" lon="19.16076">
        <ele>1488.7399902344</ele>
        <time>2024-09-22T12:50:41.000Z</time>
      </trkpt>
      <trkpt lat="42.87323" lon="19.16082">
        <ele>1488.7399902344</ele>
        <time>2024-09-22T12:50:42.000Z</time>
      </trkpt>
      <trkpt lat="42.87326" lon="19.16091">
        <ele>1487.3000488281</ele>
        <time>2024-09-22T12:50:43.000Z</time>
      </trkpt>
      <trkpt lat="42.87328" lon="19.16097">
        <ele>1486.8199462891</ele>
        <time>2024-09-22T12:50:44.000Z</time>
      </trkpt>
      <trkpt lat="42.8733" lon="19.16102">
        <ele>1486.3399658203</ele>
        <time>2024-09-22T12:50:45.000Z</time>
      </trkpt>
      <trkpt lat="42.87333" lon="19.16109">
        <ele>1485.3699951172</ele>
        <time>2024-09-22T12:50:46.000Z</time>
      </trkpt>
      <trkpt lat="42.87335" lon="19.16114">
        <ele>1484.8900146484</ele>
        <time>2024-09-22T12:50:47.000Z</time>
      </trkpt>
      <trkpt lat="42.87337" lon="19.16121">
        <ele>1483.9300537109</ele>
        <time>2024-09-22T12:50:48.000Z</time>
      </trkpt>
      <trkpt lat="42.87339" lon="19.16129">
        <ele>1482.9699707031</ele>
        <time>2024-09-22T12:50:49.000Z</time>
      </trkpt>
      <trkpt lat="42.87341" lon="19.16135">
        <ele>1482.4899902344</ele>
        <time>2024-09-22T12:50:50.000Z</time>
      </trkpt>
      <trkpt lat="42.87343" lon="19.16142">
        <ele>1481.5300292969</ele>
        <time>2024-09-22T12:50:51.000Z</time>
      </trkpt>
      <trkpt lat="42.87344" lon="19.16147">
        <ele>1480.5699462891</ele>
        <time>2024-09-22T12:50:52.000Z</time>
      </trkpt>
      <trkpt lat="42.87346" lon="19.16154">
        <ele>1479.6099853516</ele>
        <time>2024-09-22T12:50:53.000Z</time>
      </trkpt>
      <trkpt lat="42.87347" lon="19.16159">
        <ele>1479.1300048828</ele>
        <time>2024-09-22T12:50:54.000Z</time>
      </trkpt>
      <trkpt lat="42.87349" lon="19.16165">
        <ele>1478.1600341797</ele>
        <time>2024-09-22T12:50:55.000Z</time>
      </trkpt>
      <trkpt lat="42.87349" lon="19.16171">
        <ele>1477.6800537109</ele>
        <time>2024-09-22T12:50:56.000Z</time>
      </trkpt>
      <trkpt lat="42.87349" lon="19.16176">
        <ele>1476.7199707031</ele>
        <time>2024-09-22T12:50:57.000Z</time>
      </trkpt>
      <trkpt lat="42.87347" lon="19.16184">
        <ele>1475.7600097656</ele>
        <time>2024-09-22T12:50:58.000Z</time>
      </trkpt>
      <trkpt lat="42.87346" lon="19.16188">
        <ele>1475.2800292969</ele>
        <time>2024-09-22T12:50:59.000Z</time>
      </trkpt>
      <trkpt lat="42.87344" lon="19.16192">
        <ele>1474.8000488281</ele>
        <time>2024-09-22T12:51:00.000Z</time>
      </trkpt>
      <trkpt lat="42.87342" lon="19.16197">
        <ele>1474.3199462891</ele>
        <time>2024-09-22T12:51:01.000Z</time>
      </trkpt>
      <trkpt lat="42.87344" lon="19.16224">
        <ele>1473.8399658203</ele>
        <time>2024-09-22T12:51:07.000Z</time>
      </trkpt>
      <trkpt lat="42.87348" lon="19.1623">
        <ele>1473.8399658203</ele>
        <time>2024-09-22T12:51:09.000Z</time>
      </trkpt>
      <trkpt lat="42.87351" lon="19.16233">
        <ele>1474.3199462891</ele>
        <time>2024-09-22T12:51:10.000Z</time>
      </trkpt>
      <trkpt lat="42.87355" lon="19.16236">
        <ele>1474.3199462891</ele>
        <time>2024-09-22T12:51:11.000Z</time>
      </trkpt>
      <trkpt lat="42.87359" lon="19.16238">
        <ele>1474.8000488281</ele>
        <time>2024-09-22T12:51:12.000Z</time>
      </trkpt>
      <trkpt lat="42.87364" lon="19.16238">
        <ele>1474.8000488281</ele>
        <time>2024-09-22T12:51:13.000Z</time>
      </trkpt>
      <trkpt lat="42.87369" lon="19.16236">
        <ele>1475.2800292969</ele>
        <time>2024-09-22T12:51:14.000Z</time>
      </trkpt>
      <trkpt lat="42.87375" lon="19.16234">
        <ele>1476.2399902344</ele>
        <time>2024-09-22T12:51:15.000Z</time>
      </trkpt>
      <trkpt lat="42.87387" lon="19.16231">
        <ele>1479.1300048828</ele>
        <time>2024-09-22T12:51:17.000Z</time>
      </trkpt>
      <trkpt lat="42.87392" lon="19.16229">
        <ele>1480.0899658203</ele>
        <time>2024-09-22T12:51:18.000Z</time>
      </trkpt>
      <trkpt lat="42.87398" lon="19.16227">
        <ele>1481.0500488281</ele>
        <time>2024-09-22T12:51:19.000Z</time>
      </trkpt>
      <trkpt lat="42.87402" lon="19.16224">
        <ele>1482.4899902344</ele>
        <time>2024-09-22T12:51:20.000Z</time>
      </trkpt>
      <trkpt lat="42.87406" lon="19.16221">
        <ele>1483.4499511719</ele>
        <time>2024-09-22T12:51:21.000Z</time>
      </trkpt>
      <trkpt lat="42.87411" lon="19.16215">
        <ele>1484.4100341797</ele>
        <time>2024-09-22T12:51:22.000Z</time>
      </trkpt>
      <trkpt lat="42.87414" lon="19.16211">
        <ele>1485.3699951172</ele>
        <time>2024-09-22T12:51:23.000Z</time>
      </trkpt>
      <trkpt lat="42.87417" lon="19.16208">
        <ele>1485.8499755859</ele>
        <time>2024-09-22T12:51:24.000Z</time>
      </trkpt>
      <trkpt lat="42.87423" lon="19.16205">
        <ele>1487.3000488281</ele>
        <time>2024-09-22T12:51:25.000Z</time>
      </trkpt>
      <trkpt lat="42.87434" lon="19.16207">
        <ele>1489.2199707031</ele>
        <time>2024-09-22T12:51:28.000Z</time>
      </trkpt>
      <trkpt lat="42.87435" lon="19.16209">
        <ele>1489.2199707031</ele>
        <time>2024-09-22T12:51:29.000Z</time>
      </trkpt>
      <trkpt lat="42.87439" lon="19.16214">
        <ele>1490.1800537109</ele>
        <time>2024-09-22T12:51:30.000Z</time>
      </trkpt>
      <trkpt lat="42.87442" lon="19.16217">
        <ele>1490.6600341797</ele>
        <time>2024-09-22T12:51:31.000Z</time>
      </trkpt>
      <trkpt lat="42.87448" lon="19.16222">
        <ele>1491.1400146484</ele>
        <time>2024-09-22T12:51:32.000Z</time>
      </trkpt>
      <trkpt lat="42.87453" lon="19.16226">
        <ele>1491.6199951172</ele>
        <time>2024-09-22T12:51:33.000Z</time>
      </trkpt>
      <trkpt lat="42.87457" lon="19.16229">
        <ele>1491.6199951172</ele>
        <time>2024-09-22T12:51:34.000Z</time>
      </trkpt>
      <trkpt lat="42.87461" lon="19.16233">
        <ele>1492.0999755859</ele>
        <time>2024-09-22T12:51:35.000Z</time>
      </trkpt>
      <trkpt lat="42.87465" lon="19.16241">
        <ele>1492.5799560547</ele>
        <time>2024-09-22T12:51:42.000Z</time>
      </trkpt>
      <trkpt lat="42.87471" lon="19.16253">
        <ele>1493.0600585938</ele>
        <time>2024-09-22T12:51:51.000Z</time>
      </trkpt>
      <trkpt lat="42.87473" lon="19.16257">
        <ele>1493.0600585938</ele>
        <time>2024-09-22T12:51:52.000Z</time>
      </trkpt>
      <trkpt lat="42.87475" lon="19.1626">
        <ele>1493.0600585938</ele>
        <time>2024-09-22T12:51:53.000Z</time>
      </trkpt>
      <trkpt lat="42.87479" lon="19.16264">
        <ele>1493.0600585938</ele>
        <time>2024-09-22T12:51:54.000Z</time>
      </trkpt>
      <trkpt lat="42.8749" lon="19.16278">
        <ele>1493.5500488281</ele>
        <time>2024-09-22T12:51:56.000Z</time>
      </trkpt>
      <trkpt lat="42.87493" lon="19.16282">
        <ele>1493.5500488281</ele>
        <time>2024-09-22T12:51:57.000Z</time>
      </trkpt>
      <trkpt lat="42.87495" lon="19.16286">
        <ele>1494.0300292969</ele>
        <time>2024-09-22T12:51:58.000Z</time>
      </trkpt>
      <trkpt lat="42.87499" lon="19.16291">
        <ele>1494.0300292969</ele>
        <time>2024-09-22T12:51:59.000Z</time>
      </trkpt>
      <trkpt lat="42.87503" lon="19.163">
        <ele>1494.5100097656</ele>
        <time>2024-09-22T12:52:00.000Z</time>
      </trkpt>
      <trkpt lat="42.87505" lon="19.16303">
        <ele>1494.5100097656</ele>
        <time>2024-09-22T12:52:01.000Z</time>
      </trkpt>
      <trkpt lat="42.8751" lon="19.16309">
        <ele>1494.5100097656</ele>
        <time>2024-09-22T12:52:02.000Z</time>
      </trkpt>
      <trkpt lat="42.87514" lon="19.16316">
        <ele>1494.5100097656</ele>
        <time>2024-09-22T12:52:03.000Z</time>
      </trkpt>
      <trkpt lat="42.87517" lon="19.1632">
        <ele>1494.5100097656</ele>
        <time>2024-09-22T12:52:04.000Z</time>
      </trkpt>
      <trkpt lat="42.87523" lon="19.16329">
        <ele>1494.5100097656</ele>
        <time>2024-09-22T12:52:05.000Z</time>
      </trkpt>
      <trkpt lat="42.87526" lon="19.16332">
        <ele>1494.5100097656</ele>
        <time>2024-09-22T12:52:06.000Z</time>
      </trkpt>
      <trkpt lat="42.87532" lon="19.16339">
        <ele>1494.9899902344</ele>
        <time>2024-09-22T12:52:07.000Z</time>
      </trkpt>
      <trkpt lat="42.87536" lon="19.16343">
        <ele>1495.4699707031</ele>
        <time>2024-09-22T12:52:08.000Z</time>
      </trkpt>
      <trkpt lat="42.8754" lon="19.16347">
        <ele>1495.9499511719</ele>
        <time>2024-09-22T12:52:09.000Z</time>
      </trkpt>
      <trkpt lat="42.87545" lon="19.16352">
        <ele>1496.9100341797</ele>
        <time>2024-09-22T12:52:10.000Z</time>
      </trkpt>
      <trkpt lat="42.87555" lon="19.16374">
        <ele>1497.3900146484</ele>
        <time>2024-09-22T12:52:15.000Z</time>
      </trkpt>
      <trkpt lat="42.87555" lon="19.16378">
        <ele>1497.8699951172</ele>
        <time>2024-09-22T12:52:16.000Z</time>
      </trkpt>
      <trkpt lat="42.87554" lon="19.16385">
        <ele>1498.3499755859</ele>
        <time>2024-09-22T12:52:17.000Z</time>
      </trkpt>
      <trkpt lat="42.87554" lon="19.16391">
        <ele>1498.8299560547</ele>
        <time>2024-09-22T12:52:18.000Z</time>
      </trkpt>
      <trkpt lat="42.87555" lon="19.16398">
        <ele>1498.8299560547</ele>
        <time>2024-09-22T12:52:19.000Z</time>
      </trkpt>
      <trkpt lat="42.87556" lon="19.16405">
        <ele>1499.7900390625</ele>
        <time>2024-09-22T12:52:20.000Z</time>
      </trkpt>
      <trkpt lat="42.87559" lon="19.1641">
        <ele>1500.7600097656</ele>
        <time>2024-09-22T12:52:21.000Z</time>
      </trkpt>
      <trkpt lat="42.87562" lon="19.16417">
        <ele>1501.2399902344</ele>
        <time>2024-09-22T12:52:22.000Z</time>
      </trkpt>
      <trkpt lat="42.87565" lon="19.1642">
        <ele>1502.1999511719</ele>
        <time>2024-09-22T12:52:23.000Z</time>
      </trkpt>
      <trkpt lat="42.8757" lon="19.16427">
        <ele>1502.1999511719</ele>
        <time>2024-09-22T12:52:29.000Z</time>
      </trkpt>
      <trkpt lat="42.87571" lon="19.16428">
        <ele>1502.6800537109</ele>
        <time>2024-09-22T12:56:47.000Z</time>
      </trkpt>
      <trkpt lat="42.87582" lon="19.16436">
        <ele>1502.6800537109</ele>
        <time>2024-09-22T12:56:53.000Z</time>
      </trkpt>
      <trkpt lat="42.87584" lon="19.16437">
        <ele>1502.6800537109</ele>
        <time>2024-09-22T12:56:54.000Z</time>
      </trkpt>
      <trkpt lat="42.87588" lon="19.16438">
        <ele>1503.1600341797</ele>
        <time>2024-09-22T12:56:55.000Z</time>
      </trkpt>
      <trkpt lat="42.87593" lon="19.16438">
        <ele>1503.6400146484</ele>
        <time>2024-09-22T12:56:56.000Z</time>
      </trkpt>
      <trkpt lat="42.87598" lon="19.16437">
        <ele>1504.1199951172</ele>
        <time>2024-09-22T12:56:57.000Z</time>
      </trkpt>
      <trkpt lat="42.87605" lon="19.16434">
        <ele>1504.5999755859</ele>
        <time>2024-09-22T12:56:58.000Z</time>
      </trkpt>
      <trkpt lat="42.87608" lon="19.16433">
        <ele>1504.5999755859</ele>
        <time>2024-09-22T12:56:59.000Z</time>
      </trkpt>
      <trkpt lat="42.87614" lon="19.1643">
        <ele>1505.0799560547</ele>
        <time>2024-09-22T12:57:00.000Z</time>
      </trkpt>
      <trkpt lat="42.87619" lon="19.16428">
        <ele>1505.5600585938</ele>
        <time>2024-09-22T12:57:01.000Z</time>
      </trkpt>
      <trkpt lat="42.87626" lon="19.16426">
        <ele>1506.0400390625</ele>
        <time>2024-09-22T12:57:02.000Z</time>
      </trkpt>
      <trkpt lat="42.87636" lon="19.16425">
        <ele>1506.0400390625</ele>
        <time>2024-09-22T12:57:09.000Z</time>
      </trkpt>
      <trkpt lat="42.87636" lon="19.16425">
        <ele>1506.0400390625</ele>
        <time>2024-09-22T12:57:38.000Z</time>
      </trkpt>
      <trkpt lat="42.8764" lon="19.16425">
        <ele>1506.5200195312</ele>
        <time>2024-09-22T12:58:04.000Z</time>
      </trkpt>
      <trkpt lat="42.87657" lon="19.16424">
        <ele>1507.4799804688</ele>
        <time>2024-09-22T12:59:26.000Z</time>
      </trkpt>
      <trkpt lat="42.87658" lon="19.16424">
        <ele>1507.4799804688</ele>
        <time>2024-09-22T12:59:27.000Z</time>
      </trkpt>
      <trkpt lat="42.87662" lon="19.16424">
        <ele>1507.4799804688</ele>
        <time>2024-09-22T12:59:28.000Z</time>
      </trkpt>
      <trkpt lat="42.87667" lon="19.16423">
        <ele>1507</ele>
        <time>2024-09-22T12:59:29.000Z</time>
      </trkpt>
      <trkpt lat="42.87671" lon="19.16422">
        <ele>1507</ele>
        <time>2024-09-22T12:59:30.000Z</time>
      </trkpt>
      <trkpt lat="42.87677" lon="19.16422">
        <ele>1506.5200195312</ele>
        <time>2024-09-22T12:59:31.000Z</time>
      </trkpt>
      <trkpt lat="42.87683" lon="19.16423">
        <ele>1506.5200195312</ele>
        <time>2024-09-22T12:59:32.000Z</time>
      </trkpt>
      <trkpt lat="42.87691" lon="19.16426">
        <ele>1507</ele>
        <time>2024-09-22T12:59:33.000Z</time>
      </trkpt>
      <trkpt lat="42.877" lon="19.16433">
        <ele>1508.4499511719</ele>
        <time>2024-09-22T12:59:34.000Z</time>
      </trkpt>
      <trkpt lat="42.87702" lon="19.16434">
        <ele>1508.9300537109</ele>
        <time>2024-09-22T12:59:35.000Z</time>
      </trkpt>
      <trkpt lat="42.87711" lon="19.1644">
        <ele>1510.8499755859</ele>
        <time>2024-09-22T12:59:36.000Z</time>
      </trkpt>
      <trkpt lat="42.87718" lon="19.16443">
        <ele>1511.8100585938</ele>
        <time>2024-09-22T12:59:37.000Z</time>
      </trkpt>
      <trkpt lat="42.87725" lon="19.16446">
        <ele>1513.25</ele>
        <time>2024-09-22T12:59:38.000Z</time>
      </trkpt>
      <trkpt lat="42.87733" lon="19.16448">
        <ele>1514.2099609375</ele>
        <time>2024-09-22T12:59:39.000Z</time>
      </trkpt>
      <trkpt lat="42.87743" lon="19.16451">
        <ele>1516.1400146484</ele>
        <time>2024-09-22T12:59:40.000Z</time>
      </trkpt>
      <trkpt lat="42.87756" lon="19.16453">
        <ele>1518.0600585938</ele>
        <time>2024-09-22T12:59:41.000Z</time>
      </trkpt>
      <trkpt lat="42.87772" lon="19.16457">
        <ele>1520.9399414062</ele>
        <time>2024-09-22T12:59:43.000Z</time>
      </trkpt>
      <trkpt lat="42.87779" lon="19.16458">
        <ele>1522.3900146484</ele>
        <time>2024-09-22T12:59:44.000Z</time>
      </trkpt>
      <trkpt lat="42.87784" lon="19.16458">
        <ele>1523.3499755859</ele>
        <time>2024-09-22T12:59:45.000Z</time>
      </trkpt>
      <trkpt lat="42.87793" lon="19.16458">
        <ele>1525.2700195312</ele>
        <time>2024-09-22T12:59:46.000Z</time>
      </trkpt>
      <trkpt lat="42.87824" lon="19.16453">
        <ele>1530.5600585938</ele>
        <time>2024-09-22T12:59:49.000Z</time>
      </trkpt>
      <trkpt lat="42.87826" lon="19.16453">
        <ele>1531.0400390625</ele>
        <time>2024-09-22T12:59:50.000Z</time>
      </trkpt>
      <trkpt lat="42.87836" lon="19.16453">
        <ele>1532.9599609375</ele>
        <time>2024-09-22T12:59:51.000Z</time>
      </trkpt>
      <trkpt lat="42.87842" lon="19.16454">
        <ele>1533.9200439453</ele>
        <time>2024-09-22T12:59:52.000Z</time>
      </trkpt>
      <trkpt lat="42.87854" lon="19.16455">
        <ele>1536.3199462891</ele>
        <time>2024-09-22T12:59:53.000Z</time>
      </trkpt>
      <trkpt lat="42.87859" lon="19.16455">
        <ele>1537.2900390625</ele>
        <time>2024-09-22T12:59:54.000Z</time>
      </trkpt>
      <trkpt lat="42.87872" lon="19.16458">
        <ele>1539.6899414062</ele>
        <time>2024-09-22T12:59:55.000Z</time>
      </trkpt>
      <trkpt lat="42.87878" lon="19.16459">
        <ele>1540.6500244141</ele>
        <time>2024-09-22T12:59:56.000Z</time>
      </trkpt>
      <trkpt lat="42.87886" lon="19.16461">
        <ele>1542.5699462891</ele>
        <time>2024-09-22T12:59:57.000Z</time>
      </trkpt>
      <trkpt lat="42.87893" lon="19.16463">
        <ele>1543.5300292969</ele>
        <time>2024-09-22T12:59:58.000Z</time>
      </trkpt>
      <trkpt lat="42.87909" lon="19.16468">
        <ele>1546.9000244141</ele>
        <time>2024-09-22T12:59:59.000Z</time>
      </trkpt>
      <trkpt lat="42.87914" lon="19.1647">
        <ele>1547.8599853516</ele>
        <time>2024-09-22T13:00:00.000Z</time>
      </trkpt>
      <trkpt lat="42.87924" lon="19.16474">
        <ele>1549.7800292969</ele>
        <time>2024-09-22T13:00:01.000Z</time>
      </trkpt>
      <trkpt lat="42.8793" lon="19.16476">
        <ele>1550.7399902344</ele>
        <time>2024-09-22T13:00:02.000Z</time>
      </trkpt>
      <trkpt lat="42.87935" lon="19.16478">
        <ele>1551.7099609375</ele>
        <time>2024-09-22T13:00:03.000Z</time>
      </trkpt>
      <trkpt lat="42.87943" lon="19.16481">
        <ele>1553.6300048828</ele>
        <time>2024-09-22T13:00:04.000Z</time>
      </trkpt>
      <trkpt lat="42.8795" lon="19.16483">
        <ele>1555.0699462891</ele>
        <time>2024-09-22T13:00:05.000Z</time>
      </trkpt>
      <trkpt lat="42.87958" lon="19.16483">
        <ele>1556.9899902344</ele>
        <time>2024-09-22T13:00:06.000Z</time>
      </trkpt>
      <trkpt lat="42.87962" lon="19.16483">
        <ele>1557.9499511719</ele>
        <time>2024-09-22T13:00:07.000Z</time>
      </trkpt>
      <trkpt lat="42.87968" lon="19.16483">
        <ele>1558.9200439453</ele>
        <time>2024-09-22T13:00:08.000Z</time>
      </trkpt>
      <trkpt lat="42.87974" lon="19.16483">
        <ele>1560.3599853516</ele>
        <time>2024-09-22T13:00:09.000Z</time>
      </trkpt>
      <trkpt lat="42.87981" lon="19.16488">
        <ele>1559.8800048828</ele>
        <time>2024-09-22T13:00:16.000Z</time>
      </trkpt>
      <trkpt lat="42.87981" lon="19.16491">
        <ele>1559.8800048828</ele>
        <time>2024-09-22T13:00:50.000Z</time>
      </trkpt>
      <trkpt lat="42.87985" lon="19.16499">
        <ele>1560.3599853516</ele>
        <time>2024-09-22T13:00:52.000Z</time>
      </trkpt>
      <trkpt lat="42.87988" lon="19.16504">
        <ele>1560.3599853516</ele>
        <time>2024-09-22T13:00:53.000Z</time>
      </trkpt>
      <trkpt lat="42.87995" lon="19.16515">
        <ele>1560.8399658203</ele>
        <time>2024-09-22T13:00:55.000Z</time>
      </trkpt>
      <trkpt lat="42.88004" lon="19.16537">
        <ele>1562.2800292969</ele>
        <time>2024-09-22T13:01:03.000Z</time>
      </trkpt>
      <trkpt lat="42.88004" lon="19.1654">
        <ele>1562.2800292969</ele>
        <time>2024-09-22T13:07:05.000Z</time>
      </trkpt>
      <trkpt lat="42.88005" lon="19.16547">
        <ele>1562.2800292969</ele>
        <time>2024-09-22T13:07:06.000Z</time>
      </trkpt>
      <trkpt lat="42.88005" lon="19.16551">
        <ele>1562.2800292969</ele>
        <time>2024-09-22T13:07:07.000Z</time>
      </trkpt>
      <trkpt lat="42.88005" lon="19.1656">
        <ele>1562.2800292969</ele>
        <time>2024-09-22T13:07:08.000Z</time>
      </trkpt>
      <trkpt lat="42.88006" lon="19.16569">
        <ele>1561.3199462891</ele>
        <time>2024-09-22T13:07:09.000Z</time>
      </trkpt>
      <trkpt lat="42.88007" lon="19.16575">
        <ele>1561.3199462891</ele>
        <time>2024-09-22T13:07:10.000Z</time>
      </trkpt>
      <trkpt lat="42.88008" lon="19.16582">
        <ele>1560.8399658203</ele>
        <time>2024-09-22T13:07:11.000Z</time>
      </trkpt>
      <trkpt lat="42.88009" lon="19.16589">
        <ele>1560.8399658203</ele>
        <time>2024-09-22T13:07:12.000Z</time>
      </trkpt>
      <trkpt lat="42.88011" lon="19.16595">
        <ele>1560.8399658203</ele>
        <time>2024-09-22T13:07:13.000Z</time>
      </trkpt>
      <trkpt lat="42.88014" lon="19.16603">
        <ele>1560.8399658203</ele>
        <time>2024-09-22T13:07:14.000Z</time>
      </trkpt>
      <trkpt lat="42.88018" lon="19.16612">
        <ele>1561.3199462891</ele>
        <time>2024-09-22T13:07:15.000Z</time>
      </trkpt>
      <trkpt lat="42.88023" lon="19.1662">
        <ele>1562.2800292969</ele>
        <time>2024-09-22T13:07:16.000Z</time>
      </trkpt>
      <trkpt lat="42.88031" lon="19.16629">
        <ele>1563.2399902344</ele>
        <time>2024-09-22T13:07:17.000Z</time>
      </trkpt>
      <trkpt lat="42.88035" lon="19.16635">
        <ele>1563.7199707031</ele>
        <time>2024-09-22T13:07:18.000Z</time>
      </trkpt>
      <trkpt lat="42.88041" lon="19.16641">
        <ele>1564.1999511719</ele>
        <time>2024-09-22T13:07:19.000Z</time>
      </trkpt>
      <trkpt lat="42.88051" lon="19.16649">
        <ele>1565.6400146484</ele>
        <time>2024-09-22T13:07:20.000Z</time>
      </trkpt>
      <trkpt lat="42.88054" lon="19.16652">
        <ele>1566.1199951172</ele>
        <time>2024-09-22T13:07:21.000Z</time>
      </trkpt>
      <trkpt lat="42.88061" lon="19.16657">
        <ele>1567.0899658203</ele>
        <time>2024-09-22T13:07:22.000Z</time>
      </trkpt>
      <trkpt lat="42.88066" lon="19.1666">
        <ele>1567.0899658203</ele>
        <time>2024-09-22T13:07:23.000Z</time>
      </trkpt>
      <trkpt lat="42.88075" lon="19.16664">
        <ele>1568.0500488281</ele>
        <time>2024-09-22T13:07:24.000Z</time>
      </trkpt>
      <trkpt lat="42.88093" lon="19.16671">
        <ele>1569.9699707031</ele>
        <time>2024-09-22T13:07:26.000Z</time>
      </trkpt>
      <trkpt lat="42.88105" lon="19.16675">
        <ele>1571.8900146484</ele>
        <time>2024-09-22T13:07:28.000Z</time>
      </trkpt>
      <trkpt lat="42.8811" lon="19.16677">
        <ele>1572.3699951172</ele>
        <time>2024-09-22T13:07:29.000Z</time>
      </trkpt>
      <trkpt lat="42.88115" lon="19.16681">
        <ele>1572.8499755859</ele>
        <time>2024-09-22T13:07:30.000Z</time>
      </trkpt>
      <trkpt lat="42.88119" lon="19.16685">
        <ele>1573.3299560547</ele>
        <time>2024-09-22T13:07:31.000Z</time>
      </trkpt>
      <trkpt lat="42.88125" lon="19.16694">
        <ele>1574.3000488281</ele>
        <time>2024-09-22T13:07:32.000Z</time>
      </trkpt>
      <trkpt lat="42.88128" lon="19.16699">
        <ele>1574.7800292969</ele>
        <time>2024-09-22T13:07:33.000Z</time>
      </trkpt>
      <trkpt lat="42.88145" lon="19.16725">
        <ele>1577.1800537109</ele>
        <time>2024-09-22T13:07:37.000Z</time>
      </trkpt>
      <trkpt lat="42.88149" lon="19.16731">
        <ele>1577.6600341797</ele>
        <time>2024-09-22T13:07:38.000Z</time>
      </trkpt>
      <trkpt lat="42.88151" lon="19.16736">
        <ele>1577.6600341797</ele>
        <time>2024-09-22T13:07:39.000Z</time>
      </trkpt>
      <trkpt lat="42.88154" lon="19.16742">
        <ele>1577.6600341797</ele>
        <time>2024-09-22T13:07:40.000Z</time>
      </trkpt>
      <trkpt lat="42.88158" lon="19.16753">
        <ele>1577.6600341797</ele>
        <time>2024-09-22T13:07:41.000Z</time>
      </trkpt>
      <trkpt lat="42.88164" lon="19.16774">
        <ele>1578.1400146484</ele>
        <time>2024-09-22T13:07:43.000Z</time>
      </trkpt>
      <trkpt lat="42.88166" lon="19.16785">
        <ele>1578.1400146484</ele>
        <time>2024-09-22T13:07:44.000Z</time>
      </trkpt>
      <trkpt lat="42.88167" lon="19.1679">
        <ele>1578.1400146484</ele>
        <time>2024-09-22T13:07:45.000Z</time>
      </trkpt>
      <trkpt lat="42.88168" lon="19.16799">
        <ele>1578.6199951172</ele>
        <time>2024-09-22T13:07:46.000Z</time>
      </trkpt>
      <trkpt lat="42.88169" lon="19.16817">
        <ele>1580.0600585938</ele>
        <time>2024-09-22T13:07:47.000Z</time>
      </trkpt>
      <trkpt lat="42.88169" lon="19.16819">
        <ele>1580.0600585938</ele>
        <time>2024-09-22T13:07:48.000Z</time>
      </trkpt>
      <trkpt lat="42.88171" lon="19.16832">
        <ele>1581.5100097656</ele>
        <time>2024-09-22T13:07:49.000Z</time>
      </trkpt>
      <trkpt lat="42.88171" lon="19.16838">
        <ele>1581.9899902344</ele>
        <time>2024-09-22T13:07:50.000Z</time>
      </trkpt>
      <trkpt lat="42.88171" lon="19.16846">
        <ele>1581.9899902344</ele>
        <time>2024-09-22T13:07:51.000Z</time>
      </trkpt>
      <trkpt lat="42.88169" lon="19.16856">
        <ele>1581.9899902344</ele>
        <time>2024-09-22T13:07:52.000Z</time>
      </trkpt>
      <trkpt lat="42.88168" lon="19.16864">
        <ele>1581.5100097656</ele>
        <time>2024-09-22T13:07:53.000Z</time>
      </trkpt>
      <trkpt lat="42.88167" lon="19.16877">
        <ele>1581.9899902344</ele>
        <time>2024-09-22T13:07:54.000Z</time>
      </trkpt>
      <trkpt lat="42.88167" lon="19.16887">
        <ele>1581.9899902344</ele>
        <time>2024-09-22T13:07:55.000Z</time>
      </trkpt>
      <trkpt lat="42.88167" lon="19.16897">
        <ele>1582.9499511719</ele>
        <time>2024-09-22T13:07:56.000Z</time>
      </trkpt>
      <trkpt lat="42.88167" lon="19.16912">
        <ele>1583.9100341797</ele>
        <time>2024-09-22T13:07:57.000Z</time>
      </trkpt>
      <trkpt lat="42.88167" lon="19.16914">
        <ele>1583.9100341797</ele>
        <time>2024-09-22T13:07:58.000Z</time>
      </trkpt>
      <trkpt lat="42.88166" lon="19.16924">
        <ele>1584.3900146484</ele>
        <time>2024-09-22T13:07:59.000Z</time>
      </trkpt>
      <trkpt lat="42.88164" lon="19.16935">
        <ele>1584.3900146484</ele>
        <time>2024-09-22T13:08:00.000Z</time>
      </trkpt>
      <trkpt lat="42.88162" lon="19.16944">
        <ele>1584.8699951172</ele>
        <time>2024-09-22T13:08:01.000Z</time>
      </trkpt>
      <trkpt lat="42.8816" lon="19.16958">
        <ele>1584.8699951172</ele>
        <time>2024-09-22T13:08:02.000Z</time>
      </trkpt>
      <trkpt lat="42.88157" lon="19.16981">
        <ele>1586.3100585938</ele>
        <time>2024-09-22T13:08:05.000Z</time>
      </trkpt>
      <trkpt lat="42.88156" lon="19.16987">
        <ele>1586.3100585938</ele>
        <time>2024-09-22T13:08:06.000Z</time>
      </trkpt>
      <trkpt lat="42.88154" lon="19.16996">
        <ele>1586.7900390625</ele>
        <time>2024-09-22T13:08:07.000Z</time>
      </trkpt>
      <trkpt lat="42.88152" lon="19.17003">
        <ele>1587.2700195312</ele>
        <time>2024-09-22T13:08:08.000Z</time>
      </trkpt>
      <trkpt lat="42.8815" lon="19.17011">
        <ele>1588.2399902344</ele>
        <time>2024-09-22T13:08:09.000Z</time>
      </trkpt>
      <trkpt lat="42.88148" lon="19.17021">
        <ele>1589.1999511719</ele>
        <time>2024-09-22T13:08:10.000Z</time>
      </trkpt>
      <trkpt lat="42.88147" lon="19.17026">
        <ele>1590.1600341797</ele>
        <time>2024-09-22T13:08:11.000Z</time>
      </trkpt>
      <trkpt lat="42.88148" lon="19.17041">
        <ele>1591.5999755859</ele>
        <time>2024-09-22T13:08:12.000Z</time>
      </trkpt>
      <trkpt lat="42.88148" lon="19.17047">
        <ele>1592.0799560547</ele>
        <time>2024-09-22T13:08:13.000Z</time>
      </trkpt>
      <trkpt lat="42.88147" lon="19.17053">
        <ele>1592.5600585938</ele>
        <time>2024-09-22T13:08:14.000Z</time>
      </trkpt>
      <trkpt lat="42.88146" lon="19.17061">
        <ele>1593.5200195312</ele>
        <time>2024-09-22T13:08:15.000Z</time>
      </trkpt>
      <trkpt lat="42.88144" lon="19.17067">
        <ele>1594</ele>
        <time>2024-09-22T13:08:16.000Z</time>
      </trkpt>
      <trkpt lat="42.8814" lon="19.17072">
        <ele>1594.9599609375</ele>
        <time>2024-09-22T13:08:17.000Z</time>
      </trkpt>
      <trkpt lat="42.88136" lon="19.17078">
        <ele>1596.4100341797</ele>
        <time>2024-09-22T13:08:18.000Z</time>
      </trkpt>
      <trkpt lat="42.8813" lon="19.17084">
        <ele>1596.4100341797</ele>
        <time>2024-09-22T13:08:19.000Z</time>
      </trkpt>
      <trkpt lat="42.88124" lon="19.1709">
        <ele>1596.8900146484</ele>
        <time>2024-09-22T13:08:20.000Z</time>
      </trkpt>
      <trkpt lat="42.88118" lon="19.17096">
        <ele>1597.8499755859</ele>
        <time>2024-09-22T13:08:21.000Z</time>
      </trkpt>
      <trkpt lat="42.88114" lon="19.17099">
        <ele>1598.3299560547</ele>
        <time>2024-09-22T13:08:22.000Z</time>
      </trkpt>
      <trkpt lat="42.88104" lon="19.17108">
        <ele>1600.25</ele>
        <time>2024-09-22T13:08:23.000Z</time>
      </trkpt>
      <trkpt lat="42.88102" lon="19.17109">
        <ele>1600.25</ele>
        <time>2024-09-22T13:08:24.000Z</time>
      </trkpt>
      <trkpt lat="42.88098" lon="19.17114">
        <ele>1600.7299804688</ele>
        <time>2024-09-22T13:08:25.000Z</time>
      </trkpt>
      <trkpt lat="42.88094" lon="19.17121">
        <ele>1600.7299804688</ele>
        <time>2024-09-22T13:08:26.000Z</time>
      </trkpt>
      <trkpt lat="42.8809" lon="19.17126">
        <ele>1600.7299804688</ele>
        <time>2024-09-22T13:08:27.000Z</time>
      </trkpt>
      <trkpt lat="42.88074" lon="19.17155">
        <ele>1600.25</ele>
        <time>2024-09-22T13:08:38.000Z</time>
      </trkpt>
      <trkpt lat="42.88072" lon="19.17154">
        <ele>1595.4499511719</ele>
        <time>2024-09-22T13:10:47.000Z</time>
      </trkpt>
      <trkpt lat="42.8807" lon="19.1716">
        <ele>1595.9300537109</ele>
        <time>2024-09-22T13:10:49.000Z</time>
      </trkpt>
      <trkpt lat="42.88068" lon="19.17165">
        <ele>1595.9300537109</ele>
        <time>2024-09-22T13:10:50.000Z</time>
      </trkpt>
      <trkpt lat="42.88063" lon="19.17175">
        <ele>1595.9300537109</ele>
        <time>2024-09-22T13:10:51.000Z</time>
      </trkpt>
      <trkpt lat="42.8806" lon="19.17182">
        <ele>1595.9300537109</ele>
        <time>2024-09-22T13:10:52.000Z</time>
      </trkpt>
      <trkpt lat="42.88055" lon="19.17191">
        <ele>1596.4100341797</ele>
        <time>2024-09-22T13:10:54.000Z</time>
      </trkpt>
      <trkpt lat="42.88052" lon="19.17199">
        <ele>1596.4100341797</ele>
        <time>2024-09-22T13:10:55.000Z</time>
      </trkpt>
      <trkpt lat="42.88049" lon="19.17204">
        <ele>1596.8900146484</ele>
        <time>2024-09-22T13:10:56.000Z</time>
      </trkpt>
      <trkpt lat="42.88047" lon="19.17211">
        <ele>1596.8900146484</ele>
        <time>2024-09-22T13:10:57.000Z</time>
      </trkpt>
      <trkpt lat="42.88045" lon="19.17219">
        <ele>1597.3699951172</ele>
        <time>2024-09-22T13:10:58.000Z</time>
      </trkpt>
      <trkpt lat="42.88044" lon="19.17228">
        <ele>1597.3699951172</ele>
        <time>2024-09-22T13:10:59.000Z</time>
      </trkpt>
      <trkpt lat="42.88043" lon="19.17237">
        <ele>1597.3699951172</ele>
        <time>2024-09-22T13:11:00.000Z</time>
      </trkpt>
      <trkpt lat="42.88041" lon="19.17246">
        <ele>1597.8499755859</ele>
        <time>2024-09-22T13:11:01.000Z</time>
      </trkpt>
      <trkpt lat="42.88039" lon="19.17254">
        <ele>1597.8499755859</ele>
        <time>2024-09-22T13:11:02.000Z</time>
      </trkpt>
      <trkpt lat="42.88035" lon="19.17262">
        <ele>1597.8499755859</ele>
        <time>2024-09-22T13:11:03.000Z</time>
      </trkpt>
      <trkpt lat="42.88031" lon="19.17269">
        <ele>1597.8499755859</ele>
        <time>2024-09-22T13:11:04.000Z</time>
      </trkpt>
      <trkpt lat="42.88024" lon="19.17278">
        <ele>1597.8499755859</ele>
        <time>2024-09-22T13:11:05.000Z</time>
      </trkpt>
      <trkpt lat="42.88021" lon="19.17282">
        <ele>1597.8499755859</ele>
        <time>2024-09-22T13:11:06.000Z</time>
      </trkpt>
      <trkpt lat="42.88016" lon="19.1729">
        <ele>1597.8499755859</ele>
        <time>2024-09-22T13:11:07.000Z</time>
      </trkpt>
      <trkpt lat="42.88011" lon="19.17298">
        <ele>1597.8499755859</ele>
        <time>2024-09-22T13:11:08.000Z</time>
      </trkpt>
      <trkpt lat="42.88" lon="19.17311">
        <ele>1597.8499755859</ele>
        <time>2024-09-22T13:11:10.000Z</time>
      </trkpt>
      <trkpt lat="42.87997" lon="19.17317">
        <ele>1597.8499755859</ele>
        <time>2024-09-22T13:11:11.000Z</time>
      </trkpt>
      <trkpt lat="42.87992" lon="19.17324">
        <ele>1597.3699951172</ele>
        <time>2024-09-22T13:11:12.000Z</time>
      </trkpt>
      <trkpt lat="42.87987" lon="19.17335">
        <ele>1596.8900146484</ele>
        <time>2024-09-22T13:11:13.000Z</time>
      </trkpt>
      <trkpt lat="42.87983" lon="19.17341">
        <ele>1596.8900146484</ele>
        <time>2024-09-22T13:11:14.000Z</time>
      </trkpt>
      <trkpt lat="42.8798" lon="19.17347">
        <ele>1596.8900146484</ele>
        <time>2024-09-22T13:11:15.000Z</time>
      </trkpt>
      <trkpt lat="42.87978" lon="19.17355">
        <ele>1596.8900146484</ele>
        <time>2024-09-22T13:11:16.000Z</time>
      </trkpt>
      <trkpt lat="42.87978" lon="19.17363">
        <ele>1597.3699951172</ele>
        <time>2024-09-22T13:11:17.000Z</time>
      </trkpt>
      <trkpt lat="42.8798" lon="19.1737">
        <ele>1597.8499755859</ele>
        <time>2024-09-22T13:11:18.000Z</time>
      </trkpt>
      <trkpt lat="42.87983" lon="19.17377">
        <ele>1598.3299560547</ele>
        <time>2024-09-22T13:11:19.000Z</time>
      </trkpt>
      <trkpt lat="42.87987" lon="19.17382">
        <ele>1599.2900390625</ele>
        <time>2024-09-22T13:11:20.000Z</time>
      </trkpt>
      <trkpt lat="42.87993" lon="19.17385">
        <ele>1599.2900390625</ele>
        <time>2024-09-22T13:11:21.000Z</time>
      </trkpt>
      <trkpt lat="42.87997" lon="19.17388">
        <ele>1599.2900390625</ele>
        <time>2024-09-22T13:11:22.000Z</time>
      </trkpt>
      <trkpt lat="42.88004" lon="19.17392">
        <ele>1599.7700195312</ele>
        <time>2024-09-22T13:11:23.000Z</time>
      </trkpt>
      <trkpt lat="42.88008" lon="19.17395">
        <ele>1599.7700195312</ele>
        <time>2024-09-22T13:11:24.000Z</time>
      </trkpt>
      <trkpt lat="42.88014" lon="19.17402">
        <ele>1600.25</ele>
        <time>2024-09-22T13:11:25.000Z</time>
      </trkpt>
      <trkpt lat="42.88018" lon="19.17406">
        <ele>1600.25</ele>
        <time>2024-09-22T13:11:26.000Z</time>
      </trkpt>
      <trkpt lat="42.88021" lon="19.17409">
        <ele>1600.7299804688</ele>
        <time>2024-09-22T13:11:27.000Z</time>
      </trkpt>
      <trkpt lat="42.88033" lon="19.17419">
        <ele>1600.7299804688</ele>
        <time>2024-09-22T13:11:29.000Z</time>
      </trkpt>
      <trkpt lat="42.88037" lon="19.17421">
        <ele>1600.7299804688</ele>
        <time>2024-09-22T13:11:30.000Z</time>
      </trkpt>
      <trkpt lat="42.88042" lon="19.17423">
        <ele>1600.25</ele>
        <time>2024-09-22T13:11:31.000Z</time>
      </trkpt>
      <trkpt lat="42.88047" lon="19.17424">
        <ele>1600.7299804688</ele>
        <time>2024-09-22T13:11:32.000Z</time>
      </trkpt>
      <trkpt lat="42.88053" lon="19.17423">
        <ele>1600.7299804688</ele>
        <time>2024-09-22T13:11:33.000Z</time>
      </trkpt>
      <trkpt lat="42.88058" lon="19.17421">
        <ele>1600.7299804688</ele>
        <time>2024-09-22T13:11:34.000Z</time>
      </trkpt>
      <trkpt lat="42.88063" lon="19.17418">
        <ele>1601.2099609375</ele>
        <time>2024-09-22T13:11:35.000Z</time>
      </trkpt>
      <trkpt lat="42.88067" lon="19.17413">
        <ele>1601.6899414062</ele>
        <time>2024-09-22T13:11:36.000Z</time>
      </trkpt>
      <trkpt lat="42.88071" lon="19.17406">
        <ele>1601.6899414062</ele>
        <time>2024-09-22T13:11:37.000Z</time>
      </trkpt>
      <trkpt lat="42.88074" lon="19.17403">
        <ele>1601.6899414062</ele>
        <time>2024-09-22T13:11:38.000Z</time>
      </trkpt>
      <trkpt lat="42.88078" lon="19.174">
        <ele>1601.2099609375</ele>
        <time>2024-09-22T13:11:39.000Z</time>
      </trkpt>
      <trkpt lat="42.88083" lon="19.17398">
        <ele>1601.2099609375</ele>
        <time>2024-09-22T13:11:40.000Z</time>
      </trkpt>
      <trkpt lat="42.88088" lon="19.17397">
        <ele>1600.25</ele>
        <time>2024-09-22T13:11:41.000Z</time>
      </trkpt>
      <trkpt lat="42.88094" lon="19.17397">
        <ele>1600.25</ele>
        <time>2024-09-22T13:11:42.000Z</time>
      </trkpt>
      <trkpt lat="42.88103" lon="19.17399">
        <ele>1601.2099609375</ele>
        <time>2024-09-22T13:11:43.000Z</time>
      </trkpt>
      <trkpt lat="42.88119" lon="19.17403">
        <ele>1601.6899414062</ele>
        <time>2024-09-22T13:11:46.000Z</time>
      </trkpt>
      <trkpt lat="42.88125" lon="19.17405">
        <ele>1601.6899414062</ele>
        <time>2024-09-22T13:11:47.000Z</time>
      </trkpt>
      <trkpt lat="42.88133" lon="19.17409">
        <ele>1602.1700439453</ele>
        <time>2024-09-22T13:11:48.000Z</time>
      </trkpt>
      <trkpt lat="42.88136" lon="19.1741">
        <ele>1602.6600341797</ele>
        <time>2024-09-22T13:11:49.000Z</time>
      </trkpt>
      <trkpt lat="42.88142" lon="19.17411">
        <ele>1603.1400146484</ele>
        <time>2024-09-22T13:11:50.000Z</time>
      </trkpt>
      <trkpt lat="42.88148" lon="19.17411">
        <ele>1603.6199951172</ele>
        <time>2024-09-22T13:11:51.000Z</time>
      </trkpt>
      <trkpt lat="42.88154" lon="19.17408">
        <ele>1604.5799560547</ele>
        <time>2024-09-22T13:11:52.000Z</time>
      </trkpt>
      <trkpt lat="42.88159" lon="19.17403">
        <ele>1604.5799560547</ele>
        <time>2024-09-22T13:11:53.000Z</time>
      </trkpt>
      <trkpt lat="42.88163" lon="19.17397">
        <ele>1605.0600585938</ele>
        <time>2024-09-22T13:11:54.000Z</time>
      </trkpt>
      <trkpt lat="42.8817" lon="19.17386">
        <ele>1606.0200195312</ele>
        <time>2024-09-22T13:11:55.000Z</time>
      </trkpt>
      <trkpt lat="42.88174" lon="19.1738">
        <ele>1606.5</ele>
        <time>2024-09-22T13:11:56.000Z</time>
      </trkpt>
      <trkpt lat="42.88177" lon="19.17374">
        <ele>1606.9799804688</ele>
        <time>2024-09-22T13:11:57.000Z</time>
      </trkpt>
      <trkpt lat="42.8818" lon="19.17371">
        <ele>1607.4599609375</ele>
        <time>2024-09-22T13:11:58.000Z</time>
      </trkpt>
      <trkpt lat="42.88186" lon="19.17363">
        <ele>1607.9399414062</ele>
        <time>2024-09-22T13:11:59.000Z</time>
      </trkpt>
      <trkpt lat="42.88189" lon="19.1736">
        <ele>1608.4200439453</ele>
        <time>2024-09-22T13:12:00.000Z</time>
      </trkpt>
      <trkpt lat="42.88196" lon="19.17352">
        <ele>1609.3800048828</ele>
        <time>2024-09-22T13:12:01.000Z</time>
      </trkpt>
      <trkpt lat="42.88199" lon="19.17348">
        <ele>1609.3800048828</ele>
        <time>2024-09-22T13:12:02.000Z</time>
      </trkpt>
      <trkpt lat="42.88207" lon="19.1734">
        <ele>1609.8599853516</ele>
        <time>2024-09-22T13:12:03.000Z</time>
      </trkpt>
      <trkpt lat="42.88209" lon="19.17338">
        <ele>1609.8599853516</ele>
        <time>2024-09-22T13:12:04.000Z</time>
      </trkpt>
      <trkpt lat="42.88215" lon="19.17332">
        <ele>1610.3499755859</ele>
        <time>2024-09-22T13:12:05.000Z</time>
      </trkpt>
      <trkpt lat="42.88222" lon="19.17327">
        <ele>1610.3499755859</ele>
        <time>2024-09-22T13:12:06.000Z</time>
      </trkpt>
      <trkpt lat="42.88226" lon="19.17324">
        <ele>1610.8299560547</ele>
        <time>2024-09-22T13:12:07.000Z</time>
      </trkpt>
      <trkpt lat="42.88231" lon="19.17319">
        <ele>1610.8299560547</ele>
        <time>2024-09-22T13:12:08.000Z</time>
      </trkpt>
      <trkpt lat="42.88235" lon="19.17316">
        <ele>1611.3100585938</ele>
        <time>2024-09-22T13:12:09.000Z</time>
      </trkpt>
      <trkpt lat="42.88239" lon="19.17314">
        <ele>1611.3100585938</ele>
        <time>2024-09-22T13:12:10.000Z</time>
      </trkpt>
      <trkpt lat="42.88243" lon="19.17314">
        <ele>1611.3100585938</ele>
        <time>2024-09-22T13:12:11.000Z</time>
      </trkpt>
      <trkpt lat="42.88248" lon="19.17314">
        <ele>1611.7900390625</ele>
        <time>2024-09-22T13:12:12.000Z</time>
      </trkpt>
      <trkpt lat="42.88256" lon="19.17315">
        <ele>1611.7900390625</ele>
        <time>2024-09-22T13:12:13.000Z</time>
      </trkpt>
      <trkpt lat="42.88257" lon="19.17316">
        <ele>1611.7900390625</ele>
        <time>2024-09-22T13:12:14.000Z</time>
      </trkpt>
      <trkpt lat="42.88262" lon="19.17319">
        <ele>1612.2700195312</ele>
        <time>2024-09-22T13:12:15.000Z</time>
      </trkpt>
      <trkpt lat="42.88265" lon="19.17327">
        <ele>1612.2700195312</ele>
        <time>2024-09-22T13:12:17.000Z</time>
      </trkpt>
      <trkpt lat="42.88266" lon="19.17333">
        <ele>1612.75</ele>
        <time>2024-09-22T13:12:18.000Z</time>
      </trkpt>
      <trkpt lat="42.88266" lon="19.17339">
        <ele>1613.2299804688</ele>
        <time>2024-09-22T13:12:19.000Z</time>
      </trkpt>
      <trkpt lat="42.88266" lon="19.17359">
        <ele>1614.1899414062</ele>
        <time>2024-09-22T13:12:21.000Z</time>
      </trkpt>
      <trkpt lat="42.88266" lon="19.17365">
        <ele>1614.6700439453</ele>
        <time>2024-09-22T13:12:22.000Z</time>
      </trkpt>
      <trkpt lat="42.88267" lon="19.17374">
        <ele>1615.1500244141</ele>
        <time>2024-09-22T13:12:23.000Z</time>
      </trkpt>
      <trkpt lat="42.88267" lon="19.17379">
        <ele>1615.6300048828</ele>
        <time>2024-09-22T13:12:24.000Z</time>
      </trkpt>
      <trkpt lat="42.88269" lon="19.17386">
        <ele>1616.1099853516</ele>
        <time>2024-09-22T13:12:25.000Z</time>
      </trkpt>
      <trkpt lat="42.88272" lon="19.17395">
        <ele>1617.0699462891</ele>
        <time>2024-09-22T13:12:26.000Z</time>
      </trkpt>
      <trkpt lat="42.88274" lon="19.174">
        <ele>1617.5600585938</ele>
        <time>2024-09-22T13:12:27.000Z</time>
      </trkpt>
      <trkpt lat="42.88274" lon="19.17407">
        <ele>1618.0400390625</ele>
        <time>2024-09-22T13:12:28.000Z</time>
      </trkpt>
      <trkpt lat="42.88274" lon="19.17413">
        <ele>1618.5200195312</ele>
        <time>2024-09-22T13:12:29.000Z</time>
      </trkpt>
      <trkpt lat="42.88273" lon="19.17419">
        <ele>1618.5200195312</ele>
        <time>2024-09-22T13:12:30.000Z</time>
      </trkpt>
      <trkpt lat="42.88271" lon="19.17424">
        <ele>1618.5200195312</ele>
        <time>2024-09-22T13:12:31.000Z</time>
      </trkpt>
      <trkpt lat="42.88267" lon="19.1743">
        <ele>1618.5200195312</ele>
        <time>2024-09-22T13:12:32.000Z</time>
      </trkpt>
      <trkpt lat="42.88265" lon="19.17435">
        <ele>1618.5200195312</ele>
        <time>2024-09-22T13:12:33.000Z</time>
      </trkpt>
      <trkpt lat="42.88264" lon="19.17441">
        <ele>1619</ele>
        <time>2024-09-22T13:12:34.000Z</time>
      </trkpt>
      <trkpt lat="42.88263" lon="19.1745">
        <ele>1619</ele>
        <time>2024-09-22T13:12:35.000Z</time>
      </trkpt>
      <trkpt lat="42.88263" lon="19.17459">
        <ele>1619.4799804688</ele>
        <time>2024-09-22T13:12:36.000Z</time>
      </trkpt>
      <trkpt lat="42.88263" lon="19.17466">
        <ele>1619.9599609375</ele>
        <time>2024-09-22T13:12:37.000Z</time>
      </trkpt>
      <trkpt lat="42.88263" lon="19.17472">
        <ele>1620.4399414062</ele>
        <time>2024-09-22T13:12:38.000Z</time>
      </trkpt>
      <trkpt lat="42.88262" lon="19.17478">
        <ele>1620.9200439453</ele>
        <time>2024-09-22T13:12:39.000Z</time>
      </trkpt>
      <trkpt lat="42.88261" lon="19.17483">
        <ele>1621.4000244141</ele>
        <time>2024-09-22T13:12:40.000Z</time>
      </trkpt>
      <trkpt lat="42.88259" lon="19.17489">
        <ele>1621.8800048828</ele>
        <time>2024-09-22T13:12:41.000Z</time>
      </trkpt>
      <trkpt lat="42.88256" lon="19.17494">
        <ele>1622.3599853516</ele>
        <time>2024-09-22T13:12:42.000Z</time>
      </trkpt>
      <trkpt lat="42.88254" lon="19.17497">
        <ele>1622.8399658203</ele>
        <time>2024-09-22T13:12:43.000Z</time>
      </trkpt>
      <trkpt lat="42.88245" lon="19.17506">
        <ele>1623.3199462891</ele>
        <time>2024-09-22T13:12:45.000Z</time>
      </trkpt>
      <trkpt lat="42.88228" lon="19.17522">
        <ele>1623.3199462891</ele>
        <time>2024-09-22T13:12:48.000Z</time>
      </trkpt>
      <trkpt lat="42.88227" lon="19.17523">
        <ele>1623.3199462891</ele>
        <time>2024-09-22T13:12:49.000Z</time>
      </trkpt>
      <trkpt lat="42.88223" lon="19.17528">
        <ele>1623.3199462891</ele>
        <time>2024-09-22T13:12:50.000Z</time>
      </trkpt>
      <trkpt lat="42.88219" lon="19.17534">
        <ele>1623.3199462891</ele>
        <time>2024-09-22T13:12:51.000Z</time>
      </trkpt>
      <trkpt lat="42.88209" lon="19.17552">
        <ele>1624.2800292969</ele>
        <time>2024-09-22T13:12:53.000Z</time>
      </trkpt>
      <trkpt lat="42.88207" lon="19.17554">
        <ele>1624.2800292969</ele>
        <time>2024-09-22T13:12:54.000Z</time>
      </trkpt>
      <trkpt lat="42.88202" lon="19.17561">
        <ele>1624.7700195312</ele>
        <time>2024-09-22T13:12:55.000Z</time>
      </trkpt>
      <trkpt lat="42.88197" lon="19.17569">
        <ele>1625.25</ele>
        <time>2024-09-22T13:12:56.000Z</time>
      </trkpt>
      <trkpt lat="42.88193" lon="19.17573">
        <ele>1625.7299804688</ele>
        <time>2024-09-22T13:12:57.000Z</time>
      </trkpt>
      <trkpt lat="42.88191" lon="19.17576">
        <ele>1626.2099609375</ele>
        <time>2024-09-22T13:12:58.000Z</time>
      </trkpt>
      <trkpt lat="42.88185" lon="19.17586">
        <ele>1627.1700439453</ele>
        <time>2024-09-22T13:12:59.000Z</time>
      </trkpt>
      <trkpt lat="42.88177" lon="19.17601">
        <ele>1628.1300048828</ele>
        <time>2024-09-22T13:13:02.000Z</time>
      </trkpt>
      <trkpt lat="42.88171" lon="19.17613">
        <ele>1628.6099853516</ele>
        <time>2024-09-22T13:13:04.000Z</time>
      </trkpt>
      <trkpt lat="42.88168" lon="19.17617">
        <ele>1629.0899658203</ele>
        <time>2024-09-22T13:13:05.000Z</time>
      </trkpt>
      <trkpt lat="42.88166" lon="19.17623">
        <ele>1629.5699462891</ele>
        <time>2024-09-22T13:13:06.000Z</time>
      </trkpt>
      <trkpt lat="42.88163" lon="19.17628">
        <ele>1629.5699462891</ele>
        <time>2024-09-22T13:13:07.000Z</time>
      </trkpt>
      <trkpt lat="42.8816" lon="19.17633">
        <ele>1630.0500488281</ele>
        <time>2024-09-22T13:13:08.000Z</time>
      </trkpt>
      <trkpt lat="42.88157" lon="19.17639">
        <ele>1630.5300292969</ele>
        <time>2024-09-22T13:13:09.000Z</time>
      </trkpt>
      <trkpt lat="42.88155" lon="19.17644">
        <ele>1631.4899902344</ele>
        <time>2024-09-22T13:13:10.000Z</time>
      </trkpt>
      <trkpt lat="42.88153" lon="19.1765">
        <ele>1631.4899902344</ele>
        <time>2024-09-22T13:13:11.000Z</time>
      </trkpt>
      <trkpt lat="42.88151" lon="19.17654">
        <ele>1631.9799804688</ele>
        <time>2024-09-22T13:13:12.000Z</time>
      </trkpt>
      <trkpt lat="42.88148" lon="19.17659">
        <ele>1632.4599609375</ele>
        <time>2024-09-22T13:13:13.000Z</time>
      </trkpt>
      <trkpt lat="42.88146" lon="19.17663">
        <ele>1632.9399414062</ele>
        <time>2024-09-22T13:13:14.000Z</time>
      </trkpt>
      <trkpt lat="42.88144" lon="19.17668">
        <ele>1633.4200439453</ele>
        <time>2024-09-22T13:13:15.000Z</time>
      </trkpt>
      <trkpt lat="42.88143" lon="19.17674">
        <ele>1633.9000244141</ele>
        <time>2024-09-22T13:13:16.000Z</time>
      </trkpt>
      <trkpt lat="42.88143" lon="19.1768">
        <ele>1634.3800048828</ele>
        <time>2024-09-22T13:13:17.000Z</time>
      </trkpt>
      <trkpt lat="42.88143" lon="19.17692">
        <ele>1634.3800048828</ele>
        <time>2024-09-22T13:13:18.000Z</time>
      </trkpt>
      <trkpt lat="42.88143" lon="19.17694">
        <ele>1634.8599853516</ele>
        <time>2024-09-22T13:13:19.000Z</time>
      </trkpt>
      <trkpt lat="42.88143" lon="19.17702">
        <ele>1634.8599853516</ele>
        <time>2024-09-22T13:13:20.000Z</time>
      </trkpt>
      <trkpt lat="42.88143" lon="19.17708">
        <ele>1635.3399658203</ele>
        <time>2024-09-22T13:13:21.000Z</time>
      </trkpt>
      <trkpt lat="42.88143" lon="19.17716">
        <ele>1635.8199462891</ele>
        <time>2024-09-22T13:13:22.000Z</time>
      </trkpt>
      <trkpt lat="42.88142" lon="19.17722">
        <ele>1635.8199462891</ele>
        <time>2024-09-22T13:13:23.000Z</time>
      </trkpt>
      <trkpt lat="42.88141" lon="19.17731">
        <ele>1636.3000488281</ele>
        <time>2024-09-22T13:13:24.000Z</time>
      </trkpt>
      <trkpt lat="42.8814" lon="19.17736">
        <ele>1636.7800292969</ele>
        <time>2024-09-22T13:13:25.000Z</time>
      </trkpt>
      <trkpt lat="42.88138" lon="19.17743">
        <ele>1637.2600097656</ele>
        <time>2024-09-22T13:13:26.000Z</time>
      </trkpt>
      <trkpt lat="42.88137" lon="19.17751">
        <ele>1637.7399902344</ele>
        <time>2024-09-22T13:13:27.000Z</time>
      </trkpt>
      <trkpt lat="42.88135" lon="19.17759">
        <ele>1638.2199707031</ele>
        <time>2024-09-22T13:13:28.000Z</time>
      </trkpt>
      <trkpt lat="42.88133" lon="19.17763">
        <ele>1638.6999511719</ele>
        <time>2024-09-22T13:13:29.000Z</time>
      </trkpt>
      <trkpt lat="42.8813" lon="19.17768">
        <ele>1639.6700439453</ele>
        <time>2024-09-22T13:13:30.000Z</time>
      </trkpt>
      <trkpt lat="42.88126" lon="19.17773">
        <ele>1640.1500244141</ele>
        <time>2024-09-22T13:13:31.000Z</time>
      </trkpt>
      <trkpt lat="42.88121" lon="19.17777">
        <ele>1641.1099853516</ele>
        <time>2024-09-22T13:13:32.000Z</time>
      </trkpt>
      <trkpt lat="42.88117" lon="19.17779">
        <ele>1641.5899658203</ele>
        <time>2024-09-22T13:13:33.000Z</time>
      </trkpt>
      <trkpt lat="42.88111" lon="19.17782">
        <ele>1642.0699462891</ele>
        <time>2024-09-22T13:13:34.000Z</time>
      </trkpt>
      <trkpt lat="42.88104" lon="19.17783">
        <ele>1642.5500488281</ele>
        <time>2024-09-22T13:13:35.000Z</time>
      </trkpt>
      <trkpt lat="42.881" lon="19.17784">
        <ele>1643.0300292969</ele>
        <time>2024-09-22T13:13:36.000Z</time>
      </trkpt>
      <trkpt lat="42.88084" lon="19.17783">
        <ele>1645.4300537109</ele>
        <time>2024-09-22T13:13:38.000Z</time>
      </trkpt>
      <trkpt lat="42.88082" lon="19.17783">
        <ele>1645.9100341797</ele>
        <time>2024-09-22T13:13:39.000Z</time>
      </trkpt>
      <trkpt lat="42.88077" lon="19.17782">
        <ele>1646.4000244141</ele>
        <time>2024-09-22T13:13:40.000Z</time>
      </trkpt>
      <trkpt lat="42.88072" lon="19.17779">
        <ele>1646.8800048828</ele>
        <time>2024-09-22T13:13:41.000Z</time>
      </trkpt>
      <trkpt lat="42.88067" lon="19.17775">
        <ele>1647.3599853516</ele>
        <time>2024-09-22T13:13:42.000Z</time>
      </trkpt>
      <trkpt lat="42.88063" lon="19.17772">
        <ele>1648.3199462891</ele>
        <time>2024-09-22T13:13:43.000Z</time>
      </trkpt>
      <trkpt lat="42.8806" lon="19.17769">
        <ele>1648.8000488281</ele>
        <time>2024-09-22T13:13:44.000Z</time>
      </trkpt>
      <trkpt lat="42.88053" lon="19.17769">
        <ele>1650.2399902344</ele>
        <time>2024-09-22T13:13:45.000Z</time>
      </trkpt>
      <trkpt lat="42.88052" lon="19.1777">
        <ele>1650.2399902344</ele>
        <time>2024-09-22T13:13:46.000Z</time>
      </trkpt>
      <trkpt lat="42.88046" lon="19.17775">
        <ele>1651.1999511719</ele>
        <time>2024-09-22T13:13:47.000Z</time>
      </trkpt>
      <trkpt lat="42.88043" lon="19.17778">
        <ele>1651.6800537109</ele>
        <time>2024-09-22T13:13:48.000Z</time>
      </trkpt>
      <trkpt lat="42.88038" lon="19.17781">
        <ele>1652.6400146484</ele>
        <time>2024-09-22T13:13:49.000Z</time>
      </trkpt>
      <trkpt lat="42.88034" lon="19.17786">
        <ele>1653.1199951172</ele>
        <time>2024-09-22T13:13:50.000Z</time>
      </trkpt>
      <trkpt lat="42.88031" lon="19.17791">
        <ele>1654.0899658203</ele>
        <time>2024-09-22T13:13:51.000Z</time>
      </trkpt>
      <trkpt lat="42.88028" lon="19.17797">
        <ele>1654.5699462891</ele>
        <time>2024-09-22T13:13:52.000Z</time>
      </trkpt>
      <trkpt lat="42.88026" lon="19.17805">
        <ele>1655.0500488281</ele>
        <time>2024-09-22T13:13:53.000Z</time>
      </trkpt>
      <trkpt lat="42.88024" lon="19.17816">
        <ele>1656.0100097656</ele>
        <time>2024-09-22T13:13:54.000Z</time>
      </trkpt>
      <trkpt lat="42.88023" lon="19.17821">
        <ele>1656.4899902344</ele>
        <time>2024-09-22T13:13:55.000Z</time>
      </trkpt>
      <trkpt lat="42.88022" lon="19.17834">
        <ele>1657.4499511719</ele>
        <time>2024-09-22T13:13:56.000Z</time>
      </trkpt>
      <trkpt lat="42.88021" lon="19.17848">
        <ele>1658.4100341797</ele>
        <time>2024-09-22T13:13:58.000Z</time>
      </trkpt>
      <trkpt lat="42.8802" lon="19.17857">
        <ele>1658.8900146484</ele>
        <time>2024-09-22T13:13:59.000Z</time>
      </trkpt>
      <trkpt lat="42.88018" lon="19.17866">
        <ele>1659.3699951172</ele>
        <time>2024-09-22T13:14:00.000Z</time>
      </trkpt>
      <trkpt lat="42.88015" lon="19.17874">
        <ele>1660.3299560547</ele>
        <time>2024-09-22T13:14:01.000Z</time>
      </trkpt>
      <trkpt lat="42.88012" lon="19.17881">
        <ele>1660.8100585938</ele>
        <time>2024-09-22T13:14:02.000Z</time>
      </trkpt>
      <trkpt lat="42.88008" lon="19.17887">
        <ele>1661.3000488281</ele>
        <time>2024-09-22T13:14:03.000Z</time>
      </trkpt>
      <trkpt lat="42.88001" lon="19.17896">
        <ele>1662.2600097656</ele>
        <time>2024-09-22T13:14:04.000Z</time>
      </trkpt>
      <trkpt lat="42.87999" lon="19.17898">
        <ele>1662.2600097656</ele>
        <time>2024-09-22T13:14:05.000Z</time>
      </trkpt>
      <trkpt lat="42.87995" lon="19.17902">
        <ele>1662.7399902344</ele>
        <time>2024-09-22T13:14:06.000Z</time>
      </trkpt>
      <trkpt lat="42.87986" lon="19.17908">
        <ele>1663.2199707031</ele>
        <time>2024-09-22T13:14:07.000Z</time>
      </trkpt>
      <trkpt lat="42.87984" lon="19.1791">
        <ele>1663.2199707031</ele>
        <time>2024-09-22T13:14:08.000Z</time>
      </trkpt>
      <trkpt lat="42.87979" lon="19.17915">
        <ele>1664.1800537109</ele>
        <time>2024-09-22T13:14:09.000Z</time>
      </trkpt>
      <trkpt lat="42.87974" lon="19.1792">
        <ele>1664.6600341797</ele>
        <time>2024-09-22T13:14:10.000Z</time>
      </trkpt>
      <trkpt lat="42.87969" lon="19.17927">
        <ele>1665.1400146484</ele>
        <time>2024-09-22T13:14:11.000Z</time>
      </trkpt>
      <trkpt lat="42.87964" lon="19.17932">
        <ele>1665.1400146484</ele>
        <time>2024-09-22T13:14:12.000Z</time>
      </trkpt>
      <trkpt lat="42.87953" lon="19.17944">
        <ele>1666.0999755859</ele>
        <time>2024-09-22T13:14:14.000Z</time>
      </trkpt>
      <trkpt lat="42.87944" lon="19.17955">
        <ele>1666.5799560547</ele>
        <time>2024-09-22T13:14:15.000Z</time>
      </trkpt>
      <trkpt lat="42.87943" lon="19.17956">
        <ele>1667.0600585938</ele>
        <time>2024-09-22T13:14:16.000Z</time>
      </trkpt>
      <trkpt lat="42.87939" lon="19.17961">
        <ele>1668.0200195312</ele>
        <time>2024-09-22T13:14:17.000Z</time>
      </trkpt>
      <trkpt lat="42.87937" lon="19.17968">
        <ele>1668.5100097656</ele>
        <time>2024-09-22T13:14:18.000Z</time>
      </trkpt>
      <trkpt lat="42.87936" lon="19.17975">
        <ele>1669.4699707031</ele>
        <time>2024-09-22T13:14:19.000Z</time>
      </trkpt>
      <trkpt lat="42.87936" lon="19.17982">
        <ele>1669.9499511719</ele>
        <time>2024-09-22T13:14:20.000Z</time>
      </trkpt>
      <trkpt lat="42.87936" lon="19.1799">
        <ele>1670.9100341797</ele>
        <time>2024-09-22T13:14:21.000Z</time>
      </trkpt>
      <trkpt lat="42.87935" lon="19.17997">
        <ele>1670.9100341797</ele>
        <time>2024-09-22T13:14:22.000Z</time>
      </trkpt>
      <trkpt lat="42.87934" lon="19.18003">
        <ele>1671.3900146484</ele>
        <time>2024-09-22T13:14:23.000Z</time>
      </trkpt>
      <trkpt lat="42.87935" lon="19.1801">
        <ele>1671.3900146484</ele>
        <time>2024-09-22T13:14:24.000Z</time>
      </trkpt>
      <trkpt lat="42.87935" lon="19.18022">
        <ele>1671.8699951172</ele>
        <time>2024-09-22T13:14:25.000Z</time>
      </trkpt>
      <trkpt lat="42.87935" lon="19.18024">
        <ele>1671.8699951172</ele>
        <time>2024-09-22T13:14:26.000Z</time>
      </trkpt>
      <trkpt lat="42.87935" lon="19.18032">
        <ele>1671.8699951172</ele>
        <time>2024-09-22T13:14:27.000Z</time>
      </trkpt>
      <trkpt lat="42.87934" lon="19.1804">
        <ele>1671.8699951172</ele>
        <time>2024-09-22T13:14:28.000Z</time>
      </trkpt>
      <trkpt lat="42.8793" lon="19.18056">
        <ele>1672.8299560547</ele>
        <time>2024-09-22T13:14:30.000Z</time>
      </trkpt>
      <trkpt lat="42.87928" lon="19.18065">
        <ele>1673.3100585938</ele>
        <time>2024-09-22T13:14:31.000Z</time>
      </trkpt>
      <trkpt lat="42.87928" lon="19.18071">
        <ele>1673.7900390625</ele>
        <time>2024-09-22T13:14:32.000Z</time>
      </trkpt>
      <trkpt lat="42.87928" lon="19.18078">
        <ele>1673.7900390625</ele>
        <time>2024-09-22T13:14:33.000Z</time>
      </trkpt>
      <trkpt lat="42.8793" lon="19.18087">
        <ele>1674.2700195312</ele>
        <time>2024-09-22T13:14:34.000Z</time>
      </trkpt>
      <trkpt lat="42.87932" lon="19.18095">
        <ele>1674.2700195312</ele>
        <time>2024-09-22T13:14:35.000Z</time>
      </trkpt>
      <trkpt lat="42.87933" lon="19.18102">
        <ele>1674.75</ele>
        <time>2024-09-22T13:14:36.000Z</time>
      </trkpt>
      <trkpt lat="42.87934" lon="19.1811">
        <ele>1675.2299804688</ele>
        <time>2024-09-22T13:14:37.000Z</time>
      </trkpt>
      <trkpt lat="42.87935" lon="19.18117">
        <ele>1675.2299804688</ele>
        <time>2024-09-22T13:14:38.000Z</time>
      </trkpt>
      <trkpt lat="42.87933" lon="19.18123">
        <ele>1675.7199707031</ele>
        <time>2024-09-22T13:14:39.000Z</time>
      </trkpt>
      <trkpt lat="42.87929" lon="19.18129">
        <ele>1676.1999511719</ele>
        <time>2024-09-22T13:14:40.000Z</time>
      </trkpt>
      <trkpt lat="42.87925" lon="19.18134">
        <ele>1676.6800537109</ele>
        <time>2024-09-22T13:14:41.000Z</time>
      </trkpt>
      <trkpt lat="42.8792" lon="19.18138">
        <ele>1677.1600341797</ele>
        <time>2024-09-22T13:14:42.000Z</time>
      </trkpt>
      <trkpt lat="42.87913" lon="19.18143">
        <ele>1678.1199951172</ele>
        <time>2024-09-22T13:14:43.000Z</time>
      </trkpt>
      <trkpt lat="42.87911" lon="19.18145">
        <ele>1678.5999755859</ele>
        <time>2024-09-22T13:14:44.000Z</time>
      </trkpt>
      <trkpt lat="42.87907" lon="19.1815">
        <ele>1678.5999755859</ele>
        <time>2024-09-22T13:14:45.000Z</time>
      </trkpt>
      <trkpt lat="42.87906" lon="19.18155">
        <ele>1679.0799560547</ele>
        <time>2024-09-22T13:14:46.000Z</time>
      </trkpt>
      <trkpt lat="42.87907" lon="19.18162">
        <ele>1679.0799560547</ele>
        <time>2024-09-22T13:14:47.000Z</time>
      </trkpt>
      <trkpt lat="42.87908" lon="19.18167">
        <ele>1679.5600585938</ele>
        <time>2024-09-22T13:14:48.000Z</time>
      </trkpt>
      <trkpt lat="42.8791" lon="19.18176">
        <ele>1680.0400390625</ele>
        <time>2024-09-22T13:14:49.000Z</time>
      </trkpt>
      <trkpt lat="42.87912" lon="19.18183">
        <ele>1680.5200195312</ele>
        <time>2024-09-22T13:14:50.000Z</time>
      </trkpt>
      <trkpt lat="42.87913" lon="19.18189">
        <ele>1680.5200195312</ele>
        <time>2024-09-22T13:14:51.000Z</time>
      </trkpt>
      <trkpt lat="42.87914" lon="19.18196">
        <ele>1681</ele>
        <time>2024-09-22T13:14:52.000Z</time>
      </trkpt>
      <trkpt lat="42.87916" lon="19.18203">
        <ele>1681.4799804688</ele>
        <time>2024-09-22T13:14:53.000Z</time>
      </trkpt>
      <trkpt lat="42.87918" lon="19.1821">
        <ele>1681.4799804688</ele>
        <time>2024-09-22T13:14:54.000Z</time>
      </trkpt>
      <trkpt lat="42.8792" lon="19.18216">
        <ele>1681.9599609375</ele>
        <time>2024-09-22T13:14:55.000Z</time>
      </trkpt>
      <trkpt lat="42.87923" lon="19.18222">
        <ele>1681.9599609375</ele>
        <time>2024-09-22T13:14:56.000Z</time>
      </trkpt>
      <trkpt lat="42.87925" lon="19.18229">
        <ele>1682.4399414062</ele>
        <time>2024-09-22T13:14:57.000Z</time>
      </trkpt>
      <trkpt lat="42.87927" lon="19.18236">
        <ele>1682.9300537109</ele>
        <time>2024-09-22T13:14:58.000Z</time>
      </trkpt>
      <trkpt lat="42.87928" lon="19.18244">
        <ele>1683.4100341797</ele>
        <time>2024-09-22T13:14:59.000Z</time>
      </trkpt>
      <trkpt lat="42.87928" lon="19.18254">
        <ele>1683.4100341797</ele>
        <time>2024-09-22T13:15:00.000Z</time>
      </trkpt>
      <trkpt lat="42.87928" lon="19.18268">
        <ele>1683.8900146484</ele>
        <time>2024-09-22T13:15:01.000Z</time>
      </trkpt>
      <trkpt lat="42.87927" lon="19.18271">
        <ele>1683.8900146484</ele>
        <time>2024-09-22T13:15:02.000Z</time>
      </trkpt>
      <trkpt lat="42.87927" lon="19.18282">
        <ele>1683.8900146484</ele>
        <time>2024-09-22T13:15:03.000Z</time>
      </trkpt>
      <trkpt lat="42.87926" lon="19.18287">
        <ele>1683.8900146484</ele>
        <time>2024-09-22T13:15:04.000Z</time>
      </trkpt>
      <trkpt lat="42.87926" lon="19.18296">
        <ele>1683.8900146484</ele>
        <time>2024-09-22T13:15:05.000Z</time>
      </trkpt>
      <trkpt lat="42.87925" lon="19.18305">
        <ele>1683.8900146484</ele>
        <time>2024-09-22T13:15:06.000Z</time>
      </trkpt>
      <trkpt lat="42.87924" lon="19.18313">
        <ele>1684.3699951172</ele>
        <time>2024-09-22T13:15:07.000Z</time>
      </trkpt>
      <trkpt lat="42.87922" lon="19.18322">
        <ele>1684.3699951172</ele>
        <time>2024-09-22T13:15:08.000Z</time>
      </trkpt>
      <trkpt lat="42.87919" lon="19.18331">
        <ele>1684.8499755859</ele>
        <time>2024-09-22T13:15:09.000Z</time>
      </trkpt>
      <trkpt lat="42.87917" lon="19.18336">
        <ele>1685.3299560547</ele>
        <time>2024-09-22T13:15:10.000Z</time>
      </trkpt>
      <trkpt lat="42.87913" lon="19.18344">
        <ele>1685.3299560547</ele>
        <time>2024-09-22T13:15:11.000Z</time>
      </trkpt>
      <trkpt lat="42.87909" lon="19.1835">
        <ele>1685.3299560547</ele>
        <time>2024-09-22T13:15:12.000Z</time>
      </trkpt>
      <trkpt lat="42.87903" lon="19.18358">
        <ele>1685.8100585938</ele>
        <time>2024-09-22T13:15:13.000Z</time>
      </trkpt>
      <trkpt lat="42.8789" lon="19.18373">
        <ele>1686.2900390625</ele>
        <time>2024-09-22T13:15:15.000Z</time>
      </trkpt>
      <trkpt lat="42.87887" lon="19.18376">
        <ele>1686.7700195312</ele>
        <time>2024-09-22T13:15:16.000Z</time>
      </trkpt>
      <trkpt lat="42.87884" lon="19.1838">
        <ele>1686.7700195312</ele>
        <time>2024-09-22T13:15:17.000Z</time>
      </trkpt>
      <trkpt lat="42.87882" lon="19.18384">
        <ele>1686.7700195312</ele>
        <time>2024-09-22T13:15:18.000Z</time>
      </trkpt>
      <trkpt lat="42.87879" lon="19.18391">
        <ele>1687.25</ele>
        <time>2024-09-22T13:15:24.000Z</time>
      </trkpt>
      <trkpt lat="42.87878" lon="19.18396">
        <ele>1686.2900390625</ele>
        <time>2024-09-22T13:15:35.000Z</time>
      </trkpt>
      <trkpt lat="42.87877" lon="19.184">
        <ele>1686.7700195312</ele>
        <time>2024-09-22T13:15:36.000Z</time>
      </trkpt>
      <trkpt lat="42.87876" lon="19.18411">
        <ele>1686.7700195312</ele>
        <time>2024-09-22T13:15:37.000Z</time>
      </trkpt>
      <trkpt lat="42.87874" lon="19.18417">
        <ele>1686.7700195312</ele>
        <time>2024-09-22T13:15:38.000Z</time>
      </trkpt>
      <trkpt lat="42.87873" lon="19.18425">
        <ele>1687.25</ele>
        <time>2024-09-22T13:15:39.000Z</time>
      </trkpt>
      <trkpt lat="42.8787" lon="19.18435">
        <ele>1687.25</ele>
        <time>2024-09-22T13:15:40.000Z</time>
      </trkpt>
      <trkpt lat="42.87867" lon="19.18443">
        <ele>1687.7299804688</ele>
        <time>2024-09-22T13:15:41.000Z</time>
      </trkpt>
      <trkpt lat="42.87865" lon="19.18449">
        <ele>1687.7299804688</ele>
        <time>2024-09-22T13:15:42.000Z</time>
      </trkpt>
      <trkpt lat="42.87863" lon="19.18457">
        <ele>1687.7299804688</ele>
        <time>2024-09-22T13:15:43.000Z</time>
      </trkpt>
      <trkpt lat="42.8786" lon="19.18466">
        <ele>1687.7299804688</ele>
        <time>2024-09-22T13:15:44.000Z</time>
      </trkpt>
      <trkpt lat="42.87857" lon="19.18475">
        <ele>1688.2099609375</ele>
        <time>2024-09-22T13:15:45.000Z</time>
      </trkpt>
      <trkpt lat="42.87853" lon="19.18485">
        <ele>1688.2099609375</ele>
        <time>2024-09-22T13:15:46.000Z</time>
      </trkpt>
      <trkpt lat="42.8785" lon="19.1849">
        <ele>1688.2099609375</ele>
        <time>2024-09-22T13:15:47.000Z</time>
      </trkpt>
      <trkpt lat="42.87843" lon="19.185">
        <ele>1688.2099609375</ele>
        <time>2024-09-22T13:15:48.000Z</time>
      </trkpt>
      <trkpt lat="42.8784" lon="19.18505">
        <ele>1688.2099609375</ele>
        <time>2024-09-22T13:15:49.000Z</time>
      </trkpt>
      <trkpt lat="42.87832" lon="19.18517">
        <ele>1688.6899414062</ele>
        <time>2024-09-22T13:15:50.000Z</time>
      </trkpt>
      <trkpt lat="42.87831" lon="19.18518">
        <ele>1688.6899414062</ele>
        <time>2024-09-22T13:15:51.000Z</time>
      </trkpt>
      <trkpt lat="42.87828" lon="19.18524">
        <ele>1688.2099609375</ele>
        <time>2024-09-22T13:15:52.000Z</time>
      </trkpt>
      <trkpt lat="42.87826" lon="19.1853">
        <ele>1688.2099609375</ele>
        <time>2024-09-22T13:15:53.000Z</time>
      </trkpt>
      <trkpt lat="42.87824" lon="19.18537">
        <ele>1687.7299804688</ele>
        <time>2024-09-22T13:15:54.000Z</time>
      </trkpt>
      <trkpt lat="42.87821" lon="19.18543">
        <ele>1687.7299804688</ele>
        <time>2024-09-22T13:15:55.000Z</time>
      </trkpt>
      <trkpt lat="42.87819" lon="19.18549">
        <ele>1687.25</ele>
        <time>2024-09-22T13:15:56.000Z</time>
      </trkpt>
      <trkpt lat="42.87819" lon="19.18555">
        <ele>1687.25</ele>
        <time>2024-09-22T13:15:57.000Z</time>
      </trkpt>
      <trkpt lat="42.87819" lon="19.18562">
        <ele>1687.7299804688</ele>
        <time>2024-09-22T13:15:58.000Z</time>
      </trkpt>
      <trkpt lat="42.8782" lon="19.18573">
        <ele>1687.7299804688</ele>
        <time>2024-09-22T13:15:59.000Z</time>
      </trkpt>
      <trkpt lat="42.87821" lon="19.18579">
        <ele>1688.2099609375</ele>
        <time>2024-09-22T13:16:00.000Z</time>
      </trkpt>
      <trkpt lat="42.87822" lon="19.18588">
        <ele>1688.6899414062</ele>
        <time>2024-09-22T13:16:01.000Z</time>
      </trkpt>
      <trkpt lat="42.87824" lon="19.18597">
        <ele>1688.6899414062</ele>
        <time>2024-09-22T13:16:02.000Z</time>
      </trkpt>
      <trkpt lat="42.87828" lon="19.18605">
        <ele>1689.1700439453</ele>
        <time>2024-09-22T13:16:03.000Z</time>
      </trkpt>
      <trkpt lat="42.87832" lon="19.18614">
        <ele>1689.6500244141</ele>
        <time>2024-09-22T13:16:04.000Z</time>
      </trkpt>
      <trkpt lat="42.87835" lon="19.1862">
        <ele>1690.1400146484</ele>
        <time>2024-09-22T13:16:05.000Z</time>
      </trkpt>
      <trkpt lat="42.8784" lon="19.18626">
        <ele>1689.6500244141</ele>
        <time>2024-09-22T13:16:06.000Z</time>
      </trkpt>
      <trkpt lat="42.87844" lon="19.18631">
        <ele>1689.1700439453</ele>
        <time>2024-09-22T13:16:07.000Z</time>
      </trkpt>
      <trkpt lat="42.8785" lon="19.18634">
        <ele>1689.1700439453</ele>
        <time>2024-09-22T13:16:08.000Z</time>
      </trkpt>
      <trkpt lat="42.87855" lon="19.18634">
        <ele>1688.6899414062</ele>
        <time>2024-09-22T13:16:09.000Z</time>
      </trkpt>
      <trkpt lat="42.8786" lon="19.18632">
        <ele>1688.6899414062</ele>
        <time>2024-09-22T13:16:10.000Z</time>
      </trkpt>
      <trkpt lat="42.87866" lon="19.1863">
        <ele>1688.6899414062</ele>
        <time>2024-09-22T13:16:11.000Z</time>
      </trkpt>
      <trkpt lat="42.87872" lon="19.18627">
        <ele>1688.2099609375</ele>
        <time>2024-09-22T13:16:12.000Z</time>
      </trkpt>
      <trkpt lat="42.87882" lon="19.18626">
        <ele>1687.25</ele>
        <time>2024-09-22T13:16:14.000Z</time>
      </trkpt>
      <trkpt lat="42.87888" lon="19.18626">
        <ele>1686.7700195312</ele>
        <time>2024-09-22T13:16:15.000Z</time>
      </trkpt>
      <trkpt lat="42.87894" lon="19.18629">
        <ele>1686.2900390625</ele>
        <time>2024-09-22T13:16:16.000Z</time>
      </trkpt>
      <trkpt lat="42.87899" lon="19.18634">
        <ele>1685.3299560547</ele>
        <time>2024-09-22T13:16:17.000Z</time>
      </trkpt>
      <trkpt lat="42.87905" lon="19.1864">
        <ele>1684.8499755859</ele>
        <time>2024-09-22T13:16:18.000Z</time>
      </trkpt>
      <trkpt lat="42.8791" lon="19.18648">
        <ele>1683.4100341797</ele>
        <time>2024-09-22T13:16:19.000Z</time>
      </trkpt>
      <trkpt lat="42.87918" lon="19.18659">
        <ele>1681.9599609375</ele>
        <time>2024-09-22T13:16:21.000Z</time>
      </trkpt>
      <trkpt lat="42.87923" lon="19.18667">
        <ele>1681</ele>
        <time>2024-09-22T13:16:22.000Z</time>
      </trkpt>
      <trkpt lat="42.87927" lon="19.18674">
        <ele>1680.0400390625</ele>
        <time>2024-09-22T13:16:23.000Z</time>
      </trkpt>
      <trkpt lat="42.87931" lon="19.18682">
        <ele>1679.0799560547</ele>
        <time>2024-09-22T13:16:24.000Z</time>
      </trkpt>
      <trkpt lat="42.87935" lon="19.18688">
        <ele>1678.5999755859</ele>
        <time>2024-09-22T13:16:25.000Z</time>
      </trkpt>
      <trkpt lat="42.87939" lon="19.18694">
        <ele>1677.6400146484</ele>
        <time>2024-09-22T13:16:26.000Z</time>
      </trkpt>
      <trkpt lat="42.87942" lon="19.18699">
        <ele>1676.1999511719</ele>
        <time>2024-09-22T13:16:27.000Z</time>
      </trkpt>
      <trkpt lat="42.87945" lon="19.18705">
        <ele>1675.7199707031</ele>
        <time>2024-09-22T13:16:28.000Z</time>
      </trkpt>
      <trkpt lat="42.87946" lon="19.18711">
        <ele>1674.75</ele>
        <time>2024-09-22T13:16:29.000Z</time>
      </trkpt>
      <trkpt lat="42.87945" lon="19.18717">
        <ele>1674.2700195312</ele>
        <time>2024-09-22T13:16:30.000Z</time>
      </trkpt>
      <trkpt lat="42.87944" lon="19.18723">
        <ele>1674.2700195312</ele>
        <time>2024-09-22T13:16:31.000Z</time>
      </trkpt>
      <trkpt lat="42.87943" lon="19.18731">
        <ele>1673.7900390625</ele>
        <time>2024-09-22T13:16:32.000Z</time>
      </trkpt>
      <trkpt lat="42.87942" lon="19.18743">
        <ele>1673.3100585938</ele>
        <time>2024-09-22T13:16:33.000Z</time>
      </trkpt>
      <trkpt lat="42.87942" lon="19.18755">
        <ele>1672.8299560547</ele>
        <time>2024-09-22T13:16:34.000Z</time>
      </trkpt>
      <trkpt lat="42.87942" lon="19.1876">
        <ele>1672.3499755859</ele>
        <time>2024-09-22T13:16:35.000Z</time>
      </trkpt>
      <trkpt lat="42.87941" lon="19.18766">
        <ele>1672.3499755859</ele>
        <time>2024-09-22T13:16:36.000Z</time>
      </trkpt>
      <trkpt lat="42.87939" lon="19.18775">
        <ele>1671.8699951172</ele>
        <time>2024-09-22T13:16:37.000Z</time>
      </trkpt>
      <trkpt lat="42.87937" lon="19.18784">
        <ele>1671.8699951172</ele>
        <time>2024-09-22T13:16:38.000Z</time>
      </trkpt>
      <trkpt lat="42.87934" lon="19.18792">
        <ele>1671.3900146484</ele>
        <time>2024-09-22T13:16:39.000Z</time>
      </trkpt>
      <trkpt lat="42.87931" lon="19.188">
        <ele>1671.3900146484</ele>
        <time>2024-09-22T13:16:40.000Z</time>
      </trkpt>
      <trkpt lat="42.87927" lon="19.18807">
        <ele>1671.8699951172</ele>
        <time>2024-09-22T13:16:41.000Z</time>
      </trkpt>
      <trkpt lat="42.87923" lon="19.18814">
        <ele>1671.8699951172</ele>
        <time>2024-09-22T13:16:42.000Z</time>
      </trkpt>
      <trkpt lat="42.8792" lon="19.18819">
        <ele>1671.8699951172</ele>
        <time>2024-09-22T13:16:43.000Z</time>
      </trkpt>
      <trkpt lat="42.87917" lon="19.18827">
        <ele>1672.3499755859</ele>
        <time>2024-09-22T13:16:44.000Z</time>
      </trkpt>
      <trkpt lat="42.87914" lon="19.18834">
        <ele>1672.3499755859</ele>
        <time>2024-09-22T13:16:45.000Z</time>
      </trkpt>
      <trkpt lat="42.8791" lon="19.18842">
        <ele>1672.3499755859</ele>
        <time>2024-09-22T13:16:46.000Z</time>
      </trkpt>
      <trkpt lat="42.87908" lon="19.18846">
        <ele>1672.3499755859</ele>
        <time>2024-09-22T13:16:47.000Z</time>
      </trkpt>
      <trkpt lat="42.87906" lon="19.18853">
        <ele>1672.3499755859</ele>
        <time>2024-09-22T13:16:48.000Z</time>
      </trkpt>
      <trkpt lat="42.87898" lon="19.18867">
        <ele>1673.3100585938</ele>
        <time>2024-09-22T13:16:56.000Z</time>
      </trkpt>
      <trkpt lat="42.87886" lon="19.18885">
        <ele>1674.2700195312</ele>
        <time>2024-09-22T13:22:17.000Z</time>
      </trkpt>
      <trkpt lat="42.87885" lon="19.1889">
        <ele>1674.2700195312</ele>
        <time>2024-09-22T13:22:18.000Z</time>
      </trkpt>
      <trkpt lat="42.87883" lon="19.18894">
        <ele>1674.75</ele>
        <time>2024-09-22T13:22:19.000Z</time>
      </trkpt>
      <trkpt lat="42.87881" lon="19.18899">
        <ele>1674.75</ele>
        <time>2024-09-22T13:22:20.000Z</time>
      </trkpt>
      <trkpt lat="42.87878" lon="19.18906">
        <ele>1675.2299804688</ele>
        <time>2024-09-22T13:22:21.000Z</time>
      </trkpt>
      <trkpt lat="42.87875" lon="19.18913">
        <ele>1675.7199707031</ele>
        <time>2024-09-22T13:22:22.000Z</time>
      </trkpt>
      <trkpt lat="42.87872" lon="19.1892">
        <ele>1675.7199707031</ele>
        <time>2024-09-22T13:22:23.000Z</time>
      </trkpt>
      <trkpt lat="42.87868" lon="19.18926">
        <ele>1676.1999511719</ele>
        <time>2024-09-22T13:22:24.000Z</time>
      </trkpt>
      <trkpt lat="42.87858" lon="19.18938">
        <ele>1677.1600341797</ele>
        <time>2024-09-22T13:22:26.000Z</time>
      </trkpt>
      <trkpt lat="42.87853" lon="19.18946">
        <ele>1677.6400146484</ele>
        <time>2024-09-22T13:22:27.000Z</time>
      </trkpt>
      <trkpt lat="42.87849" lon="19.18951">
        <ele>1678.1199951172</ele>
        <time>2024-09-22T13:22:28.000Z</time>
      </trkpt>
      <trkpt lat="42.87843" lon="19.18956">
        <ele>1678.5999755859</ele>
        <time>2024-09-22T13:22:29.000Z</time>
      </trkpt>
      <trkpt lat="42.87836" lon="19.18962">
        <ele>1679.5600585938</ele>
        <time>2024-09-22T13:22:30.000Z</time>
      </trkpt>
      <trkpt lat="42.87831" lon="19.18968">
        <ele>1680.5200195312</ele>
        <time>2024-09-22T13:22:31.000Z</time>
      </trkpt>
      <trkpt lat="42.87818" lon="19.18982">
        <ele>1682.4399414062</ele>
        <time>2024-09-22T13:22:33.000Z</time>
      </trkpt>
      <trkpt lat="42.87808" lon="19.18994">
        <ele>1684.3699951172</ele>
        <time>2024-09-22T13:22:35.000Z</time>
      </trkpt>
      <trkpt lat="42.87802" lon="19.19">
        <ele>1685.3299560547</ele>
        <time>2024-09-22T13:22:36.000Z</time>
      </trkpt>
      <trkpt lat="42.87792" lon="19.19011">
        <ele>1686.2900390625</ele>
        <time>2024-09-22T13:22:38.000Z</time>
      </trkpt>
      <trkpt lat="42.87784" lon="19.19019">
        <ele>1686.7700195312</ele>
        <time>2024-09-22T13:22:40.000Z</time>
      </trkpt>
      <trkpt lat="42.87778" lon="19.19025">
        <ele>1687.25</ele>
        <time>2024-09-22T13:22:41.000Z</time>
      </trkpt>
      <trkpt lat="42.87776" lon="19.19026">
        <ele>1687.25</ele>
        <time>2024-09-22T13:22:42.000Z</time>
      </trkpt>
      <trkpt lat="42.8777" lon="19.19033">
        <ele>1687.7299804688</ele>
        <time>2024-09-22T13:22:43.000Z</time>
      </trkpt>
      <trkpt lat="42.87765" lon="19.19036">
        <ele>1687.7299804688</ele>
        <time>2024-09-22T13:22:44.000Z</time>
      </trkpt>
      <trkpt lat="42.87759" lon="19.19041">
        <ele>1687.7299804688</ele>
        <time>2024-09-22T13:22:45.000Z</time>
      </trkpt>
      <trkpt lat="42.87745" lon="19.19048">
        <ele>1687.7299804688</ele>
        <time>2024-09-22T13:22:47.000Z</time>
      </trkpt>
      <trkpt lat="42.87738" lon="19.19052">
        <ele>1687.25</ele>
        <time>2024-09-22T13:22:48.000Z</time>
      </trkpt>
      <trkpt lat="42.87733" lon="19.19056">
        <ele>1687.25</ele>
        <time>2024-09-22T13:22:49.000Z</time>
      </trkpt>
      <trkpt lat="42.87728" lon="19.19061">
        <ele>1686.7700195312</ele>
        <time>2024-09-22T13:22:50.000Z</time>
      </trkpt>
      <trkpt lat="42.87719" lon="19.19069">
        <ele>1686.7700195312</ele>
        <time>2024-09-22T13:22:51.000Z</time>
      </trkpt>
      <trkpt lat="42.87706" lon="19.19081">
        <ele>1686.2900390625</ele>
        <time>2024-09-22T13:22:53.000Z</time>
      </trkpt>
      <trkpt lat="42.87705" lon="19.19082">
        <ele>1686.2900390625</ele>
        <time>2024-09-22T13:22:54.000Z</time>
      </trkpt>
      <trkpt lat="42.87696" lon="19.19092">
        <ele>1686.2900390625</ele>
        <time>2024-09-22T13:22:55.000Z</time>
      </trkpt>
      <trkpt lat="42.87688" lon="19.19101">
        <ele>1685.8100585938</ele>
        <time>2024-09-22T13:22:57.000Z</time>
      </trkpt>
      <trkpt lat="42.87682" lon="19.19107">
        <ele>1685.3299560547</ele>
        <time>2024-09-22T13:22:58.000Z</time>
      </trkpt>
      <trkpt lat="42.87676" lon="19.19113">
        <ele>1684.8499755859</ele>
        <time>2024-09-22T13:22:59.000Z</time>
      </trkpt>
      <trkpt lat="42.87666" lon="19.19124">
        <ele>1684.3699951172</ele>
        <time>2024-09-22T13:23:00.000Z</time>
      </trkpt>
      <trkpt lat="42.87663" lon="19.19128">
        <ele>1683.8900146484</ele>
        <time>2024-09-22T13:23:01.000Z</time>
      </trkpt>
      <trkpt lat="42.87654" lon="19.19139">
        <ele>1683.4100341797</ele>
        <time>2024-09-22T13:23:03.000Z</time>
      </trkpt>
      <trkpt lat="42.87649" lon="19.19145">
        <ele>1683.4100341797</ele>
        <time>2024-09-22T13:23:04.000Z</time>
      </trkpt>
      <trkpt lat="42.87644" lon="19.19151">
        <ele>1682.9300537109</ele>
        <time>2024-09-22T13:23:05.000Z</time>
      </trkpt>
      <trkpt lat="42.87641" lon="19.19156">
        <ele>1682.4399414062</ele>
        <time>2024-09-22T13:23:06.000Z</time>
      </trkpt>
      <trkpt lat="42.87637" lon="19.19163">
        <ele>1681.9599609375</ele>
        <time>2024-09-22T13:23:07.000Z</time>
      </trkpt>
      <trkpt lat="42.87635" lon="19.19169">
        <ele>1681.9599609375</ele>
        <time>2024-09-22T13:23:08.000Z</time>
      </trkpt>
      <trkpt lat="42.87632" lon="19.19178">
        <ele>1681.9599609375</ele>
        <time>2024-09-22T13:23:09.000Z</time>
      </trkpt>
      <trkpt lat="42.8763" lon="19.19183">
        <ele>1681.9599609375</ele>
        <time>2024-09-22T13:23:10.000Z</time>
      </trkpt>
      <trkpt lat="42.87625" lon="19.19192">
        <ele>1681.4799804688</ele>
        <time>2024-09-22T13:23:11.000Z</time>
      </trkpt>
      <trkpt lat="42.87618" lon="19.19206">
        <ele>1681.4799804688</ele>
        <time>2024-09-22T13:23:13.000Z</time>
      </trkpt>
      <trkpt lat="42.87611" lon="19.19217">
        <ele>1681.4799804688</ele>
        <time>2024-09-22T13:23:14.000Z</time>
      </trkpt>
      <trkpt lat="42.87609" lon="19.1922">
        <ele>1681.4799804688</ele>
        <time>2024-09-22T13:23:15.000Z</time>
      </trkpt>
      <trkpt lat="42.87604" lon="19.19229">
        <ele>1681.9599609375</ele>
        <time>2024-09-22T13:23:16.000Z</time>
      </trkpt>
      <trkpt lat="42.87591" lon="19.19254">
        <ele>1682.9300537109</ele>
        <time>2024-09-22T13:23:19.000Z</time>
      </trkpt>
      <trkpt lat="42.87578" lon="19.19277">
        <ele>1684.8499755859</ele>
        <time>2024-09-22T13:23:21.000Z</time>
      </trkpt>
      <trkpt lat="42.87572" lon="19.19288">
        <ele>1685.8100585938</ele>
        <time>2024-09-22T13:23:22.000Z</time>
      </trkpt>
      <trkpt lat="42.8757" lon="19.1929">
        <ele>1686.2900390625</ele>
        <time>2024-09-22T13:23:23.000Z</time>
      </trkpt>
      <trkpt lat="42.87561" lon="19.19303">
        <ele>1687.7299804688</ele>
        <time>2024-09-22T13:23:24.000Z</time>
      </trkpt>
      <trkpt lat="42.87558" lon="19.19307">
        <ele>1688.2099609375</ele>
        <time>2024-09-22T13:23:25.000Z</time>
      </trkpt>
      <trkpt lat="42.87529" lon="19.19349">
        <ele>1694.9399414062</ele>
        <time>2024-09-22T13:23:30.000Z</time>
      </trkpt>
      <trkpt lat="42.87526" lon="19.19354">
        <ele>1695.9000244141</ele>
        <time>2024-09-22T13:23:31.000Z</time>
      </trkpt>
      <trkpt lat="42.87523" lon="19.1936">
        <ele>1696.8599853516</ele>
        <time>2024-09-22T13:23:32.000Z</time>
      </trkpt>
      <trkpt lat="42.8752" lon="19.19367">
        <ele>1697.8299560547</ele>
        <time>2024-09-22T13:23:33.000Z</time>
      </trkpt>
      <trkpt lat="42.87517" lon="19.19374">
        <ele>1698.3100585938</ele>
        <time>2024-09-22T13:23:34.000Z</time>
      </trkpt>
      <trkpt lat="42.87515" lon="19.19385">
        <ele>1699.2700195312</ele>
        <time>2024-09-22T13:23:35.000Z</time>
      </trkpt>
      <trkpt lat="42.87513" lon="19.19393">
        <ele>1699.75</ele>
        <time>2024-09-22T13:23:36.000Z</time>
      </trkpt>
      <trkpt lat="42.87507" lon="19.19408">
        <ele>1701.6700439453</ele>
        <time>2024-09-22T13:23:37.000Z</time>
      </trkpt>
      <trkpt lat="42.87504" lon="19.19415">
        <ele>1702.1500244141</ele>
        <time>2024-09-22T13:23:38.000Z</time>
      </trkpt>
      <trkpt lat="42.87503" lon="19.19417">
        <ele>1702.6300048828</ele>
        <time>2024-09-22T13:23:39.000Z</time>
      </trkpt>
      <trkpt lat="42.875" lon="19.19429">
        <ele>1703.5899658203</ele>
        <time>2024-09-22T13:23:40.000Z</time>
      </trkpt>
      <trkpt lat="42.87498" lon="19.19444">
        <ele>1704.5500488281</ele>
        <time>2024-09-22T13:23:41.000Z</time>
      </trkpt>
      <trkpt lat="42.87496" lon="19.1945">
        <ele>1705.0400390625</ele>
        <time>2024-09-22T13:23:42.000Z</time>
      </trkpt>
      <trkpt lat="42.87495" lon="19.1946">
        <ele>1706</ele>
        <time>2024-09-22T13:23:43.000Z</time>
      </trkpt>
      <trkpt lat="42.87494" lon="19.19468">
        <ele>1707.4399414062</ele>
        <time>2024-09-22T13:23:44.000Z</time>
      </trkpt>
      <trkpt lat="42.87494" lon="19.19477">
        <ele>1707.9200439453</ele>
        <time>2024-09-22T13:23:45.000Z</time>
      </trkpt>
      <trkpt lat="42.87495" lon="19.19485">
        <ele>1707.9200439453</ele>
        <time>2024-09-22T13:23:46.000Z</time>
      </trkpt>
      <trkpt lat="42.87495" lon="19.19495">
        <ele>1708.4000244141</ele>
        <time>2024-09-22T13:23:47.000Z</time>
      </trkpt>
      <trkpt lat="42.87494" lon="19.19502">
        <ele>1708.8800048828</ele>
        <time>2024-09-22T13:23:48.000Z</time>
      </trkpt>
      <trkpt lat="42.87491" lon="19.19511">
        <ele>1709.3599853516</ele>
        <time>2024-09-22T13:23:49.000Z</time>
      </trkpt>
      <trkpt lat="42.87485" lon="19.19519">
        <ele>1709.8399658203</ele>
        <time>2024-09-22T13:23:50.000Z</time>
      </trkpt>
      <trkpt lat="42.87477" lon="19.19524">
        <ele>1710.3199462891</ele>
        <time>2024-09-22T13:23:51.000Z</time>
      </trkpt>
      <trkpt lat="42.87468" lon="19.19528">
        <ele>1712.25</ele>
        <time>2024-09-22T13:23:52.000Z</time>
      </trkpt>
      <trkpt lat="42.87461" lon="19.1953">
        <ele>1713.2099609375</ele>
        <time>2024-09-22T13:23:53.000Z</time>
      </trkpt>
      <trkpt lat="42.8745" lon="19.19534">
        <ele>1714.6500244141</ele>
        <time>2024-09-22T13:23:54.000Z</time>
      </trkpt>
      <trkpt lat="42.87446" lon="19.19536">
        <ele>1715.1300048828</ele>
        <time>2024-09-22T13:23:55.000Z</time>
      </trkpt>
      <trkpt lat="42.87438" lon="19.19539">
        <ele>1715.6099853516</ele>
        <time>2024-09-22T13:23:56.000Z</time>
      </trkpt>
      <trkpt lat="42.87429" lon="19.19543">
        <ele>1716.5699462891</ele>
        <time>2024-09-22T13:23:57.000Z</time>
      </trkpt>
      <trkpt lat="42.87426" lon="19.19544">
        <ele>1716.5699462891</ele>
        <time>2024-09-22T13:23:58.000Z</time>
      </trkpt>
      <trkpt lat="42.87413" lon="19.19548">
        <ele>1718.0100097656</ele>
        <time>2024-09-22T13:23:59.000Z</time>
      </trkpt>
      <trkpt lat="42.8741" lon="19.19548">
        <ele>1718.4899902344</ele>
        <time>2024-09-22T13:24:00.000Z</time>
      </trkpt>
      <trkpt lat="42.87403" lon="19.19548">
        <ele>1719.4599609375</ele>
        <time>2024-09-22T13:24:01.000Z</time>
      </trkpt>
      <trkpt lat="42.87396" lon="19.19547">
        <ele>1720.9000244141</ele>
        <time>2024-09-22T13:24:02.000Z</time>
      </trkpt>
      <trkpt lat="42.8739" lon="19.19546">
        <ele>1722.3399658203</ele>
        <time>2024-09-22T13:24:03.000Z</time>
      </trkpt>
      <trkpt lat="42.87379" lon="19.19547">
        <ele>1723.3000488281</ele>
        <time>2024-09-22T13:24:04.000Z</time>
      </trkpt>
      <trkpt lat="42.87373" lon="19.19548">
        <ele>1723.7800292969</ele>
        <time>2024-09-22T13:24:05.000Z</time>
      </trkpt>
      <trkpt lat="42.87327" lon="19.1956">
        <ele>1727.1500244141</ele>
        <time>2024-09-22T13:24:10.000Z</time>
      </trkpt>
      <trkpt lat="42.87323" lon="19.19561">
        <ele>1727.6300048828</ele>
        <time>2024-09-22T13:24:11.000Z</time>
      </trkpt>
      <trkpt lat="42.87311" lon="19.19564">
        <ele>1729.0699462891</ele>
        <time>2024-09-22T13:24:12.000Z</time>
      </trkpt>
      <trkpt lat="42.87305" lon="19.19566">
        <ele>1730.0300292969</ele>
        <time>2024-09-22T13:24:13.000Z</time>
      </trkpt>
      <trkpt lat="42.87293" lon="19.19569">
        <ele>1731.4699707031</ele>
        <time>2024-09-22T13:24:14.000Z</time>
      </trkpt>
      <trkpt lat="42.87286" lon="19.1957">
        <ele>1732.4300537109</ele>
        <time>2024-09-22T13:24:15.000Z</time>
      </trkpt>
      <trkpt lat="42.87281" lon="19.19572">
        <ele>1733.3900146484</ele>
        <time>2024-09-22T13:24:16.000Z</time>
      </trkpt>
      <trkpt lat="42.87275" lon="19.19576">
        <ele>1734.8399658203</ele>
        <time>2024-09-22T13:24:17.000Z</time>
      </trkpt>
      <trkpt lat="42.87272" lon="19.1958">
        <ele>1735.8000488281</ele>
        <time>2024-09-22T13:24:18.000Z</time>
      </trkpt>
      <trkpt lat="42.8727" lon="19.19585">
        <ele>1736.7600097656</ele>
        <time>2024-09-22T13:24:19.000Z</time>
      </trkpt>
      <trkpt lat="42.87273" lon="19.19598">
        <ele>1738.1999511719</ele>
        <time>2024-09-22T13:24:21.000Z</time>
      </trkpt>
      <trkpt lat="42.87274" lon="19.19598">
        <ele>1738.1999511719</ele>
        <time>2024-09-22T13:24:22.000Z</time>
      </trkpt>
      <trkpt lat="42.87278" lon="19.19601">
        <ele>1738.6800537109</ele>
        <time>2024-09-22T13:24:23.000Z</time>
      </trkpt>
      <trkpt lat="42.87283" lon="19.19604">
        <ele>1739.1600341797</ele>
        <time>2024-09-22T13:24:24.000Z</time>
      </trkpt>
      <trkpt lat="42.8729" lon="19.19606">
        <ele>1740.1199951172</ele>
        <time>2024-09-22T13:24:25.000Z</time>
      </trkpt>
      <trkpt lat="42.87294" lon="19.19608">
        <ele>1740.5999755859</ele>
        <time>2024-09-22T13:24:26.000Z</time>
      </trkpt>
      <trkpt lat="42.87299" lon="19.19612">
        <ele>1741.5699462891</ele>
        <time>2024-09-22T13:24:27.000Z</time>
      </trkpt>
      <trkpt lat="42.87302" lon="19.19617">
        <ele>1742.0500488281</ele>
        <time>2024-09-22T13:24:28.000Z</time>
      </trkpt>
      <trkpt lat="42.87305" lon="19.19623">
        <ele>1743.0100097656</ele>
        <time>2024-09-22T13:24:29.000Z</time>
      </trkpt>
      <trkpt lat="42.87307" lon="19.19636">
        <ele>1744.4499511719</ele>
        <time>2024-09-22T13:24:31.000Z</time>
      </trkpt>
      <trkpt lat="42.87306" lon="19.19643">
        <ele>1744.9300537109</ele>
        <time>2024-09-22T13:24:32.000Z</time>
      </trkpt>
      <trkpt lat="42.87306" lon="19.19648">
        <ele>1744.9300537109</ele>
        <time>2024-09-22T13:24:33.000Z</time>
      </trkpt>
      <trkpt lat="42.87307" lon="19.19657">
        <ele>1745.4100341797</ele>
        <time>2024-09-22T13:24:34.000Z</time>
      </trkpt>
      <trkpt lat="42.87309" lon="19.19669">
        <ele>1746.3699951172</ele>
        <time>2024-09-22T13:24:35.000Z</time>
      </trkpt>
      <trkpt lat="42.8731" lon="19.19676">
        <ele>1747.3299560547</ele>
        <time>2024-09-22T13:24:36.000Z</time>
      </trkpt>
      <trkpt lat="42.87313" lon="19.19683">
        <ele>1747.8100585938</ele>
        <time>2024-09-22T13:24:37.000Z</time>
      </trkpt>
      <trkpt lat="42.87316" lon="19.1969">
        <ele>1748.2900390625</ele>
        <time>2024-09-22T13:24:38.000Z</time>
      </trkpt>
      <trkpt lat="42.8732" lon="19.19696">
        <ele>1749.2600097656</ele>
        <time>2024-09-22T13:24:39.000Z</time>
      </trkpt>
      <trkpt lat="42.87326" lon="19.19699">
        <ele>1750.2199707031</ele>
        <time>2024-09-22T13:24:40.000Z</time>
      </trkpt>
      <trkpt lat="42.87331" lon="19.19701">
        <ele>1750.6999511719</ele>
        <time>2024-09-22T13:24:41.000Z</time>
      </trkpt>
      <trkpt lat="42.87337" lon="19.19704">
        <ele>1751.1800537109</ele>
        <time>2024-09-22T13:24:42.000Z</time>
      </trkpt>
      <trkpt lat="42.87343" lon="19.19708">
        <ele>1752.1400146484</ele>
        <time>2024-09-22T13:24:43.000Z</time>
      </trkpt>
      <trkpt lat="42.87359" lon="19.19721">
        <ele>1754.0600585938</ele>
        <time>2024-09-22T13:24:45.000Z</time>
      </trkpt>
      <trkpt lat="42.87363" lon="19.19724">
        <ele>1754.5400390625</ele>
        <time>2024-09-22T13:24:46.000Z</time>
      </trkpt>
      <trkpt lat="42.87368" lon="19.19728">
        <ele>1755.0200195312</ele>
        <time>2024-09-22T13:24:47.000Z</time>
      </trkpt>
      <trkpt lat="42.87375" lon="19.19733">
        <ele>1755.9899902344</ele>
        <time>2024-09-22T13:24:48.000Z</time>
      </trkpt>
      <trkpt lat="42.87383" lon="19.19742">
        <ele>1756.9499511719</ele>
        <time>2024-09-22T13:24:49.000Z</time>
      </trkpt>
      <trkpt lat="42.87389" lon="19.19752">
        <ele>1757.9100341797</ele>
        <time>2024-09-22T13:24:50.000Z</time>
      </trkpt>
      <trkpt lat="42.87393" lon="19.19756">
        <ele>1758.3900146484</ele>
        <time>2024-09-22T13:24:51.000Z</time>
      </trkpt>
      <trkpt lat="42.87397" lon="19.1976">
        <ele>1758.8699951172</ele>
        <time>2024-09-22T13:24:52.000Z</time>
      </trkpt>
      <trkpt lat="42.87404" lon="19.1977">
        <ele>1760.7900390625</ele>
        <time>2024-09-22T13:24:55.000Z</time>
      </trkpt>
      <trkpt lat="42.87403" lon="19.19776">
        <ele>1761.2700195312</ele>
        <time>2024-09-22T13:24:56.000Z</time>
      </trkpt>
      <trkpt lat="42.87401" lon="19.19782">
        <ele>1761.75</ele>
        <time>2024-09-22T13:24:57.000Z</time>
      </trkpt>
      <trkpt lat="42.87398" lon="19.19787">
        <ele>1762.2299804688</ele>
        <time>2024-09-22T13:24:58.000Z</time>
      </trkpt>
      <trkpt lat="42.8739" lon="19.19795">
        <ele>1762.7099609375</ele>
        <time>2024-09-22T13:24:59.000Z</time>
      </trkpt>
      <trkpt lat="42.87389" lon="19.19796">
        <ele>1763.1999511719</ele>
        <time>2024-09-22T13:25:00.000Z</time>
      </trkpt>
      <trkpt lat="42.87383" lon="19.19802">
        <ele>1763.6800537109</ele>
        <time>2024-09-22T13:25:01.000Z</time>
      </trkpt>
      <trkpt lat="42.87377" lon="19.19806">
        <ele>1763.6800537109</ele>
        <time>2024-09-22T13:25:02.000Z</time>
      </trkpt>
      <trkpt lat="42.87373" lon="19.19809">
        <ele>1763.6800537109</ele>
        <time>2024-09-22T13:25:03.000Z</time>
      </trkpt>
      <trkpt lat="42.87367" lon="19.19812">
        <ele>1762.7099609375</ele>
        <time>2024-09-22T13:25:04.000Z</time>
      </trkpt>
      <trkpt lat="42.8736" lon="19.19816">
        <ele>1761.75</ele>
        <time>2024-09-22T13:25:05.000Z</time>
      </trkpt>
      <trkpt lat="42.87355" lon="19.19821">
        <ele>1761.2700195312</ele>
        <time>2024-09-22T13:25:06.000Z</time>
      </trkpt>
      <trkpt lat="42.87349" lon="19.19827">
        <ele>1760.7900390625</ele>
        <time>2024-09-22T13:25:07.000Z</time>
      </trkpt>
      <trkpt lat="42.87346" lon="19.19832">
        <ele>1759.8299560547</ele>
        <time>2024-09-22T13:25:08.000Z</time>
      </trkpt>
      <trkpt lat="42.87342" lon="19.19839">
        <ele>1759.8299560547</ele>
        <time>2024-09-22T13:25:09.000Z</time>
      </trkpt>
      <trkpt lat="42.87339" lon="19.19846">
        <ele>1759.3499755859</ele>
        <time>2024-09-22T13:25:10.000Z</time>
      </trkpt>
      <trkpt lat="42.87337" lon="19.1985">
        <ele>1758.8699951172</ele>
        <time>2024-09-22T13:25:16.000Z</time>
      </trkpt>
      <trkpt lat="42.87332" lon="19.19862">
        <ele>1758.3900146484</ele>
        <time>2024-09-22T13:25:30.000Z</time>
      </trkpt>
      <trkpt lat="42.87329" lon="19.19869">
        <ele>1757.9100341797</ele>
        <time>2024-09-22T13:25:31.000Z</time>
      </trkpt>
      <trkpt lat="42.87327" lon="19.19873">
        <ele>1757.4300537109</ele>
        <time>2024-09-22T13:25:32.000Z</time>
      </trkpt>
      <trkpt lat="42.87324" lon="19.19878">
        <ele>1756.9499511719</ele>
        <time>2024-09-22T13:25:33.000Z</time>
      </trkpt>
      <trkpt lat="42.87321" lon="19.19885">
        <ele>1756.4699707031</ele>
        <time>2024-09-22T13:25:34.000Z</time>
      </trkpt>
      <trkpt lat="42.87318" lon="19.19891">
        <ele>1755.5</ele>
        <time>2024-09-22T13:25:35.000Z</time>
      </trkpt>
      <trkpt lat="42.87314" lon="19.19899">
        <ele>1755.0200195312</ele>
        <time>2024-09-22T13:25:36.000Z</time>
      </trkpt>
      <trkpt lat="42.87312" lon="19.19906">
        <ele>1754.0600585938</ele>
        <time>2024-09-22T13:25:37.000Z</time>
      </trkpt>
      <trkpt lat="42.87311" lon="19.19912">
        <ele>1753.5799560547</ele>
        <time>2024-09-22T13:25:38.000Z</time>
      </trkpt>
      <trkpt lat="42.87309" lon="19.1992">
        <ele>1752.6199951172</ele>
        <time>2024-09-22T13:25:39.000Z</time>
      </trkpt>
      <trkpt lat="42.87306" lon="19.1993">
        <ele>1752.1400146484</ele>
        <time>2024-09-22T13:25:40.000Z</time>
      </trkpt>
      <trkpt lat="42.87306" lon="19.19935">
        <ele>1752.1400146484</ele>
        <time>2024-09-22T13:25:41.000Z</time>
      </trkpt>
      <trkpt lat="42.87306" lon="19.19942">
        <ele>1751.1800537109</ele>
        <time>2024-09-22T13:25:42.000Z</time>
      </trkpt>
      <trkpt lat="42.87307" lon="19.19949">
        <ele>1750.6999511719</ele>
        <time>2024-09-22T13:25:43.000Z</time>
      </trkpt>
      <trkpt lat="42.87311" lon="19.19956">
        <ele>1750.2199707031</ele>
        <time>2024-09-22T13:25:44.000Z</time>
      </trkpt>
      <trkpt lat="42.87315" lon="19.19961">
        <ele>1749.2600097656</ele>
        <time>2024-09-22T13:25:45.000Z</time>
      </trkpt>
      <trkpt lat="42.8732" lon="19.19965">
        <ele>1748.7800292969</ele>
        <time>2024-09-22T13:25:46.000Z</time>
      </trkpt>
      <trkpt lat="42.87327" lon="19.19969">
        <ele>1748.2900390625</ele>
        <time>2024-09-22T13:25:47.000Z</time>
      </trkpt>
      <trkpt lat="42.87334" lon="19.19971">
        <ele>1748.2900390625</ele>
        <time>2024-09-22T13:25:48.000Z</time>
      </trkpt>
      <trkpt lat="42.87341" lon="19.19973">
        <ele>1747.8100585938</ele>
        <time>2024-09-22T13:25:49.000Z</time>
      </trkpt>
      <trkpt lat="42.87348" lon="19.19975">
        <ele>1747.8100585938</ele>
        <time>2024-09-22T13:25:50.000Z</time>
      </trkpt>
      <trkpt lat="42.87355" lon="19.19978">
        <ele>1747.8100585938</ele>
        <time>2024-09-22T13:25:51.000Z</time>
      </trkpt>
      <trkpt lat="42.8736" lon="19.19979">
        <ele>1747.8100585938</ele>
        <time>2024-09-22T13:25:52.000Z</time>
      </trkpt>
      <trkpt lat="42.87375" lon="19.1998">
        <ele>1746.8499755859</ele>
        <time>2024-09-22T13:25:54.000Z</time>
      </trkpt>
      <trkpt lat="42.8738" lon="19.1998">
        <ele>1746.3699951172</ele>
        <time>2024-09-22T13:25:55.000Z</time>
      </trkpt>
      <trkpt lat="42.87387" lon="19.19981">
        <ele>1745.8900146484</ele>
        <time>2024-09-22T13:25:56.000Z</time>
      </trkpt>
      <trkpt lat="42.87392" lon="19.19986">
        <ele>1745.4100341797</ele>
        <time>2024-09-22T13:25:57.000Z</time>
      </trkpt>
      <trkpt lat="42.87396" lon="19.19992">
        <ele>1744.9300537109</ele>
        <time>2024-09-22T13:25:58.000Z</time>
      </trkpt>
      <trkpt lat="42.874" lon="19.19997">
        <ele>1744.4499511719</ele>
        <time>2024-09-22T13:25:59.000Z</time>
      </trkpt>
      <trkpt lat="42.87406" lon="19.20002">
        <ele>1743.9699707031</ele>
        <time>2024-09-22T13:26:00.000Z</time>
      </trkpt>
      <trkpt lat="42.87413" lon="19.20006">
        <ele>1743.0100097656</ele>
        <time>2024-09-22T13:26:01.000Z</time>
      </trkpt>
      <trkpt lat="42.87419" lon="19.20009">
        <ele>1742.0500488281</ele>
        <time>2024-09-22T13:26:02.000Z</time>
      </trkpt>
      <trkpt lat="42.87425" lon="19.2001">
        <ele>1741.5699462891</ele>
        <time>2024-09-22T13:26:03.000Z</time>
      </trkpt>
      <trkpt lat="42.87432" lon="19.20011">
        <ele>1740.1199951172</ele>
        <time>2024-09-22T13:26:04.000Z</time>
      </trkpt>
      <trkpt lat="42.87436" lon="19.20012">
        <ele>1740.1199951172</ele>
        <time>2024-09-22T13:26:05.000Z</time>
      </trkpt>
      <trkpt lat="42.87441" lon="19.20015">
        <ele>1739.1600341797</ele>
        <time>2024-09-22T13:26:06.000Z</time>
      </trkpt>
      <trkpt lat="42.87446" lon="19.20019">
        <ele>1738.6800537109</ele>
        <time>2024-09-22T13:26:07.000Z</time>
      </trkpt>
      <trkpt lat="42.8745" lon="19.20025">
        <ele>1738.1999511719</ele>
        <time>2024-09-22T13:26:08.000Z</time>
      </trkpt>
      <trkpt lat="42.87453" lon="19.20029">
        <ele>1738.1999511719</ele>
        <time>2024-09-22T13:26:09.000Z</time>
      </trkpt>
      <trkpt lat="42.87458" lon="19.20031">
        <ele>1737.7199707031</ele>
        <time>2024-09-22T13:26:10.000Z</time>
      </trkpt>
      <trkpt lat="42.87464" lon="19.20033">
        <ele>1736.7600097656</ele>
        <time>2024-09-22T13:26:11.000Z</time>
      </trkpt>
      <trkpt lat="42.8747" lon="19.20036">
        <ele>1735.8000488281</ele>
        <time>2024-09-22T13:26:12.000Z</time>
      </trkpt>
      <trkpt lat="42.87476" lon="19.20041">
        <ele>1735.3199462891</ele>
        <time>2024-09-22T13:26:13.000Z</time>
      </trkpt>
      <trkpt lat="42.87487" lon="19.20053">
        <ele>1734.3599853516</ele>
        <time>2024-09-22T13:26:15.000Z</time>
      </trkpt>
      <trkpt lat="42.8749" lon="19.20057">
        <ele>1733.8800048828</ele>
        <time>2024-09-22T13:26:16.000Z</time>
      </trkpt>
      <trkpt lat="42.87493" lon="19.20064">
        <ele>1733.3900146484</ele>
        <time>2024-09-22T13:26:17.000Z</time>
      </trkpt>
      <trkpt lat="42.87495" lon="19.20071">
        <ele>1732.9100341797</ele>
        <time>2024-09-22T13:26:18.000Z</time>
      </trkpt>
      <trkpt lat="42.87495" lon="19.20081">
        <ele>1732.4300537109</ele>
        <time>2024-09-22T13:26:19.000Z</time>
      </trkpt>
      <trkpt lat="42.87494" lon="19.20092">
        <ele>1731.4699707031</ele>
        <time>2024-09-22T13:26:20.000Z</time>
      </trkpt>
      <trkpt lat="42.87494" lon="19.201">
        <ele>1730.9899902344</ele>
        <time>2024-09-22T13:26:21.000Z</time>
      </trkpt>
      <trkpt lat="42.87493" lon="19.20108">
        <ele>1730.9899902344</ele>
        <time>2024-09-22T13:26:22.000Z</time>
      </trkpt>
      <trkpt lat="42.87494" lon="19.20113">
        <ele>1730.5100097656</ele>
        <time>2024-09-22T13:26:23.000Z</time>
      </trkpt>
      <trkpt lat="42.87497" lon="19.20123">
        <ele>1729.5500488281</ele>
        <time>2024-09-22T13:26:25.000Z</time>
      </trkpt>
      <trkpt lat="42.87502" lon="19.20128">
        <ele>1728.5899658203</ele>
        <time>2024-09-22T13:26:26.000Z</time>
      </trkpt>
      <trkpt lat="42.87504" lon="19.20131">
        <ele>1728.1099853516</ele>
        <time>2024-09-22T13:26:27.000Z</time>
      </trkpt>
      <trkpt lat="42.87509" lon="19.20136">
        <ele>1727.1500244141</ele>
        <time>2024-09-22T13:26:28.000Z</time>
      </trkpt>
      <trkpt lat="42.87513" lon="19.20143">
        <ele>1726.1800537109</ele>
        <time>2024-09-22T13:26:29.000Z</time>
      </trkpt>
      <trkpt lat="42.87515" lon="19.2015">
        <ele>1725.2199707031</ele>
        <time>2024-09-22T13:26:30.000Z</time>
      </trkpt>
      <trkpt lat="42.87517" lon="19.2016">
        <ele>1724.2600097656</ele>
        <time>2024-09-22T13:26:31.000Z</time>
      </trkpt>
      <trkpt lat="42.87519" lon="19.20169">
        <ele>1723.3000488281</ele>
        <time>2024-09-22T13:26:32.000Z</time>
      </trkpt>
      <trkpt lat="42.8752" lon="19.20173">
        <ele>1722.3399658203</ele>
        <time>2024-09-22T13:26:33.000Z</time>
      </trkpt>
      <trkpt lat="42.87522" lon="19.20179">
        <ele>1721.8599853516</ele>
        <time>2024-09-22T13:26:34.000Z</time>
      </trkpt>
      <trkpt lat="42.87525" lon="19.20184">
        <ele>1721.3800048828</ele>
        <time>2024-09-22T13:26:35.000Z</time>
      </trkpt>
      <trkpt lat="42.87529" lon="19.20188">
        <ele>1720.9000244141</ele>
        <time>2024-09-22T13:26:36.000Z</time>
      </trkpt>
      <trkpt lat="42.87534" lon="19.20191">
        <ele>1720.4200439453</ele>
        <time>2024-09-22T13:26:37.000Z</time>
      </trkpt>
      <trkpt lat="42.87546" lon="19.20195">
        <ele>1718.9699707031</ele>
        <time>2024-09-22T13:26:38.000Z</time>
      </trkpt>
      <trkpt lat="42.8755" lon="19.20197">
        <ele>1718.9699707031</ele>
        <time>2024-09-22T13:26:39.000Z</time>
      </trkpt>
      <trkpt lat="42.87558" lon="19.20199">
        <ele>1718.4899902344</ele>
        <time>2024-09-22T13:26:40.000Z</time>
      </trkpt>
      <trkpt lat="42.87572" lon="19.20201">
        <ele>1718.0100097656</ele>
        <time>2024-09-22T13:26:41.000Z</time>
      </trkpt>
      <trkpt lat="42.87614" lon="19.20205">
        <ele>1717.5300292969</ele>
        <time>2024-09-22T13:26:46.000Z</time>
      </trkpt>
      <trkpt lat="42.87618" lon="19.20205">
        <ele>1717.5300292969</ele>
        <time>2024-09-22T13:26:47.000Z</time>
      </trkpt>
      <trkpt lat="42.87625" lon="19.20205">
        <ele>1717.5300292969</ele>
        <time>2024-09-22T13:26:48.000Z</time>
      </trkpt>
      <trkpt lat="42.87629" lon="19.20205">
        <ele>1717.5300292969</ele>
        <time>2024-09-22T13:26:49.000Z</time>
      </trkpt>
      <trkpt lat="42.87635" lon="19.20206">
        <ele>1717.0500488281</ele>
        <time>2024-09-22T13:26:50.000Z</time>
      </trkpt>
      <trkpt lat="42.87642" lon="19.20208">
        <ele>1715.6099853516</ele>
        <time>2024-09-22T13:26:51.000Z</time>
      </trkpt>
      <trkpt lat="42.87647" lon="19.20209">
        <ele>1714.1700439453</ele>
        <time>2024-09-22T13:26:52.000Z</time>
      </trkpt>
      <trkpt lat="42.87653" lon="19.2021">
        <ele>1713.2099609375</ele>
        <time>2024-09-22T13:26:53.000Z</time>
      </trkpt>
      <trkpt lat="42.87658" lon="19.2021">
        <ele>1711.7600097656</ele>
        <time>2024-09-22T13:26:54.000Z</time>
      </trkpt>
      <trkpt lat="42.87665" lon="19.20209">
        <ele>1710.8000488281</ele>
        <time>2024-09-22T13:26:55.000Z</time>
      </trkpt>
      <trkpt lat="42.87672" lon="19.20208">
        <ele>1709.3599853516</ele>
        <time>2024-09-22T13:26:56.000Z</time>
      </trkpt>
      <trkpt lat="42.87681" lon="19.20207">
        <ele>1707.9200439453</ele>
        <time>2024-09-22T13:26:57.000Z</time>
      </trkpt>
      <trkpt lat="42.87691" lon="19.20205">
        <ele>1706.4799804688</ele>
        <time>2024-09-22T13:26:58.000Z</time>
      </trkpt>
      <trkpt lat="42.87693" lon="19.20205">
        <ele>1706.4799804688</ele>
        <time>2024-09-22T13:26:59.000Z</time>
      </trkpt>
      <trkpt lat="42.877" lon="19.20203">
        <ele>1705.5200195312</ele>
        <time>2024-09-22T13:27:00.000Z</time>
      </trkpt>
      <trkpt lat="42.87708" lon="19.20202">
        <ele>1704.5500488281</ele>
        <time>2024-09-22T13:27:01.000Z</time>
      </trkpt>
      <trkpt lat="42.87716" lon="19.20202">
        <ele>1704.0699462891</ele>
        <time>2024-09-22T13:27:02.000Z</time>
      </trkpt>
      <trkpt lat="42.87722" lon="19.20203">
        <ele>1703.1099853516</ele>
        <time>2024-09-22T13:27:03.000Z</time>
      </trkpt>
      <trkpt lat="42.87729" lon="19.20207">
        <ele>1702.6300048828</ele>
        <time>2024-09-22T13:27:04.000Z</time>
      </trkpt>
      <trkpt lat="42.87736" lon="19.20213">
        <ele>1702.6300048828</ele>
        <time>2024-09-22T13:27:05.000Z</time>
      </trkpt>
      <trkpt lat="42.87741" lon="19.20222">
        <ele>1703.1099853516</ele>
        <time>2024-09-22T13:27:06.000Z</time>
      </trkpt>
      <trkpt lat="42.87746" lon="19.20231">
        <ele>1704.0699462891</ele>
        <time>2024-09-22T13:27:07.000Z</time>
      </trkpt>
      <trkpt lat="42.8775" lon="19.20238">
        <ele>1705.0400390625</ele>
        <time>2024-09-22T13:27:08.000Z</time>
      </trkpt>
      <trkpt lat="42.87752" lon="19.20241">
        <ele>1705.5200195312</ele>
        <time>2024-09-22T13:27:09.000Z</time>
      </trkpt>
      <trkpt lat="42.87755" lon="19.20244">
        <ele>1706</ele>
        <time>2024-09-22T13:27:10.000Z</time>
      </trkpt>
      <trkpt lat="42.87759" lon="19.20246">
        <ele>1705.5200195312</ele>
        <time>2024-09-22T13:27:11.000Z</time>
      </trkpt>
      <trkpt lat="42.87764" lon="19.20246">
        <ele>1706</ele>
        <time>2024-09-22T13:27:12.000Z</time>
      </trkpt>
      <trkpt lat="42.87782" lon="19.20241">
        <ele>1705.5200195312</ele>
        <time>2024-09-22T13:27:14.000Z</time>
      </trkpt>
      <trkpt lat="42.87786" lon="19.20241">
        <ele>1705.5200195312</ele>
        <time>2024-09-22T13:27:15.000Z</time>
      </trkpt>
      <trkpt lat="42.87793" lon="19.2024">
        <ele>1705.5200195312</ele>
        <time>2024-09-22T13:27:16.000Z</time>
      </trkpt>
      <trkpt lat="42.87801" lon="19.20241">
        <ele>1706</ele>
        <time>2024-09-22T13:27:17.000Z</time>
      </trkpt>
      <trkpt lat="42.87809" lon="19.20242">
        <ele>1706</ele>
        <time>2024-09-22T13:27:18.000Z</time>
      </trkpt>
      <trkpt lat="42.87824" lon="19.20242">
        <ele>1705.5200195312</ele>
        <time>2024-09-22T13:27:20.000Z</time>
      </trkpt>
      <trkpt lat="42.87832" lon="19.20243">
        <ele>1705.5200195312</ele>
        <time>2024-09-22T13:27:21.000Z</time>
      </trkpt>
      <trkpt lat="42.87841" lon="19.20245">
        <ele>1705.5200195312</ele>
        <time>2024-09-22T13:27:22.000Z</time>
      </trkpt>
      <trkpt lat="42.87849" lon="19.2025">
        <ele>1706.4799804688</ele>
        <time>2024-09-22T13:27:23.000Z</time>
      </trkpt>
      <trkpt lat="42.8786" lon="19.2026">
        <ele>1708.4000244141</ele>
        <time>2024-09-22T13:27:24.000Z</time>
      </trkpt>
      <trkpt lat="42.87861" lon="19.20261">
        <ele>1708.4000244141</ele>
        <time>2024-09-22T13:27:25.000Z</time>
      </trkpt>
      <trkpt lat="42.87867" lon="19.20265">
        <ele>1709.3599853516</ele>
        <time>2024-09-22T13:27:26.000Z</time>
      </trkpt>
      <trkpt lat="42.87873" lon="19.20267">
        <ele>1709.3599853516</ele>
        <time>2024-09-22T13:27:27.000Z</time>
      </trkpt>
      <trkpt lat="42.8788" lon="19.20268">
        <ele>1709.3599853516</ele>
        <time>2024-09-22T13:27:28.000Z</time>
      </trkpt>
      <trkpt lat="42.87887" lon="19.20268">
        <ele>1708.8800048828</ele>
        <time>2024-09-22T13:27:29.000Z</time>
      </trkpt>
      <trkpt lat="42.87893" lon="19.20267">
        <ele>1708.4000244141</ele>
        <time>2024-09-22T13:27:30.000Z</time>
      </trkpt>
      <trkpt lat="42.87899" lon="19.20264">
        <ele>1707.4399414062</ele>
        <time>2024-09-22T13:27:31.000Z</time>
      </trkpt>
      <trkpt lat="42.87904" lon="19.2026">
        <ele>1706.4799804688</ele>
        <time>2024-09-22T13:27:32.000Z</time>
      </trkpt>
      <trkpt lat="42.8791" lon="19.20254">
        <ele>1705.5200195312</ele>
        <time>2024-09-22T13:27:33.000Z</time>
      </trkpt>
      <trkpt lat="42.87915" lon="19.2025">
        <ele>1704.5500488281</ele>
        <time>2024-09-22T13:27:34.000Z</time>
      </trkpt>
      <trkpt lat="42.87927" lon="19.20242">
        <ele>1703.1099853516</ele>
        <time>2024-09-22T13:27:35.000Z</time>
      </trkpt>
      <trkpt lat="42.87929" lon="19.2024">
        <ele>1703.1099853516</ele>
        <time>2024-09-22T13:27:36.000Z</time>
      </trkpt>
      <trkpt lat="42.87935" lon="19.20235">
        <ele>1703.1099853516</ele>
        <time>2024-09-22T13:27:37.000Z</time>
      </trkpt>
      <trkpt lat="42.87943" lon="19.2023">
        <ele>1703.1099853516</ele>
        <time>2024-09-22T13:27:38.000Z</time>
      </trkpt>
      <trkpt lat="42.87953" lon="19.20225">
        <ele>1703.5899658203</ele>
        <time>2024-09-22T13:27:39.000Z</time>
      </trkpt>
      <trkpt lat="42.87964" lon="19.2022">
        <ele>1704.0699462891</ele>
        <time>2024-09-22T13:27:40.000Z</time>
      </trkpt>
      <trkpt lat="42.87969" lon="19.20218">
        <ele>1704.5500488281</ele>
        <time>2024-09-22T13:27:41.000Z</time>
      </trkpt>
      <trkpt lat="42.8798" lon="19.20212">
        <ele>1706.4799804688</ele>
        <time>2024-09-22T13:27:42.000Z</time>
      </trkpt>
      <trkpt lat="42.87991" lon="19.20206">
        <ele>1708.4000244141</ele>
        <time>2024-09-22T13:27:43.000Z</time>
      </trkpt>
      <trkpt lat="42.87994" lon="19.20204">
        <ele>1709.3599853516</ele>
        <time>2024-09-22T13:27:44.000Z</time>
      </trkpt>
      <trkpt lat="42.88001" lon="19.20199">
        <ele>1710.8000488281</ele>
        <time>2024-09-22T13:27:45.000Z</time>
      </trkpt>
      <trkpt lat="42.88005" lon="19.20194">
        <ele>1712.25</ele>
        <time>2024-09-22T13:27:46.000Z</time>
      </trkpt>
      <trkpt lat="42.88009" lon="19.20189">
        <ele>1713.2099609375</ele>
        <time>2024-09-22T13:27:47.000Z</time>
      </trkpt>
      <trkpt lat="42.88014" lon="19.20182">
        <ele>1714.6500244141</ele>
        <time>2024-09-22T13:27:48.000Z</time>
      </trkpt>
      <trkpt lat="42.88017" lon="19.20175">
        <ele>1716.0899658203</ele>
        <time>2024-09-22T13:27:49.000Z</time>
      </trkpt>
      <trkpt lat="42.88022" lon="19.20167">
        <ele>1717.0500488281</ele>
        <time>2024-09-22T13:27:50.000Z</time>
      </trkpt>
      <trkpt lat="42.88026" lon="19.20159">
        <ele>1718.0100097656</ele>
        <time>2024-09-22T13:27:51.000Z</time>
      </trkpt>
      <trkpt lat="42.88032" lon="19.20149">
        <ele>1718.4899902344</ele>
        <time>2024-09-22T13:27:52.000Z</time>
      </trkpt>
      <trkpt lat="42.88039" lon="19.20141">
        <ele>1718.9699707031</ele>
        <time>2024-09-22T13:27:53.000Z</time>
      </trkpt>
      <trkpt lat="42.88046" lon="19.20132">
        <ele>1720.4200439453</ele>
        <time>2024-09-22T13:27:54.000Z</time>
      </trkpt>
      <trkpt lat="42.88052" lon="19.20124">
        <ele>1721.3800048828</ele>
        <time>2024-09-22T13:27:55.000Z</time>
      </trkpt>
      <trkpt lat="42.88057" lon="19.20118">
        <ele>1722.3399658203</ele>
        <time>2024-09-22T13:27:56.000Z</time>
      </trkpt>
      <trkpt lat="42.88062" lon="19.20112">
        <ele>1723.3000488281</ele>
        <time>2024-09-22T13:27:57.000Z</time>
      </trkpt>
      <trkpt lat="42.88068" lon="19.20104">
        <ele>1724.2600097656</ele>
        <time>2024-09-22T13:27:58.000Z</time>
      </trkpt>
      <trkpt lat="42.88074" lon="19.20098">
        <ele>1724.7399902344</ele>
        <time>2024-09-22T13:27:59.000Z</time>
      </trkpt>
      <trkpt lat="42.8808" lon="19.20092">
        <ele>1725.6999511719</ele>
        <time>2024-09-22T13:28:00.000Z</time>
      </trkpt>
      <trkpt lat="42.88088" lon="19.20084">
        <ele>1726.6700439453</ele>
        <time>2024-09-22T13:28:01.000Z</time>
      </trkpt>
      <trkpt lat="42.88095" lon="19.20077">
        <ele>1727.6300048828</ele>
        <time>2024-09-22T13:28:02.000Z</time>
      </trkpt>
      <trkpt lat="42.88114" lon="19.20056">
        <ele>1730.0300292969</ele>
        <time>2024-09-22T13:28:05.000Z</time>
      </trkpt>
      <trkpt lat="42.8812" lon="19.2005">
        <ele>1730.5100097656</ele>
        <time>2024-09-22T13:28:06.000Z</time>
      </trkpt>
      <trkpt lat="42.88124" lon="19.20047">
        <ele>1731.4699707031</ele>
        <time>2024-09-22T13:28:07.000Z</time>
      </trkpt>
      <trkpt lat="42.88128" lon="19.20045">
        <ele>1732.4300537109</ele>
        <time>2024-09-22T13:28:08.000Z</time>
      </trkpt>
      <trkpt lat="42.88132" lon="19.20044">
        <ele>1732.9100341797</ele>
        <time>2024-09-22T13:28:09.000Z</time>
      </trkpt>
      <trkpt lat="42.88136" lon="19.20046">
        <ele>1733.3900146484</ele>
        <time>2024-09-22T13:28:10.000Z</time>
      </trkpt>
      <trkpt lat="42.88141" lon="19.20049">
        <ele>1733.8800048828</ele>
        <time>2024-09-22T13:28:11.000Z</time>
      </trkpt>
      <trkpt lat="42.88148" lon="19.20053">
        <ele>1734.3599853516</ele>
        <time>2024-09-22T13:28:12.000Z</time>
      </trkpt>
      <trkpt lat="42.88156" lon="19.20057">
        <ele>1735.8000488281</ele>
        <time>2024-09-22T13:28:13.000Z</time>
      </trkpt>
      <trkpt lat="42.88163" lon="19.20059">
        <ele>1736.2800292969</ele>
        <time>2024-09-22T13:28:14.000Z</time>
      </trkpt>
      <trkpt lat="42.88167" lon="19.2006">
        <ele>1736.7600097656</ele>
        <time>2024-09-22T13:28:15.000Z</time>
      </trkpt>
      <trkpt lat="42.88174" lon="19.20063">
        <ele>1737.2399902344</ele>
        <time>2024-09-22T13:28:16.000Z</time>
      </trkpt>
      <trkpt lat="42.8818" lon="19.20067">
        <ele>1737.7199707031</ele>
        <time>2024-09-22T13:28:17.000Z</time>
      </trkpt>
      <trkpt lat="42.88184" lon="19.2007">
        <ele>1738.1999511719</ele>
        <time>2024-09-22T13:28:18.000Z</time>
      </trkpt>
      <trkpt lat="42.88188" lon="19.20073">
        <ele>1738.1999511719</ele>
        <time>2024-09-22T13:28:19.000Z</time>
      </trkpt>
      <trkpt lat="42.88202" lon="19.20067">
        <ele>1738.1999511719</ele>
        <time>2024-09-22T13:28:23.000Z</time>
      </trkpt>
      <trkpt lat="42.88204" lon="19.20061">
        <ele>1738.6800537109</ele>
        <time>2024-09-22T13:28:24.000Z</time>
      </trkpt>
      <trkpt lat="42.88206" lon="19.20057">
        <ele>1738.6800537109</ele>
        <time>2024-09-22T13:28:25.000Z</time>
      </trkpt>
      <trkpt lat="42.88209" lon="19.2005">
        <ele>1739.1600341797</ele>
        <time>2024-09-22T13:28:26.000Z</time>
      </trkpt>
      <trkpt lat="42.88213" lon="19.20043">
        <ele>1739.1600341797</ele>
        <time>2024-09-22T13:28:27.000Z</time>
      </trkpt>
      <trkpt lat="42.88218" lon="19.20035">
        <ele>1739.6400146484</ele>
        <time>2024-09-22T13:28:28.000Z</time>
      </trkpt>
      <trkpt lat="42.88222" lon="19.20031">
        <ele>1739.6400146484</ele>
        <time>2024-09-22T13:28:29.000Z</time>
      </trkpt>
      <trkpt lat="42.88226" lon="19.20027">
        <ele>1740.1199951172</ele>
        <time>2024-09-22T13:28:30.000Z</time>
      </trkpt>
      <trkpt lat="42.88232" lon="19.20025">
        <ele>1740.5999755859</ele>
        <time>2024-09-22T13:28:31.000Z</time>
      </trkpt>
      <trkpt lat="42.88237" lon="19.20023">
        <ele>1741.0799560547</ele>
        <time>2024-09-22T13:28:32.000Z</time>
      </trkpt>
      <trkpt lat="42.88246" lon="19.20021">
        <ele>1741.5699462891</ele>
        <time>2024-09-22T13:28:33.000Z</time>
      </trkpt>
      <trkpt lat="42.88251" lon="19.2002">
        <ele>1742.5300292969</ele>
        <time>2024-09-22T13:28:34.000Z</time>
      </trkpt>
      <trkpt lat="42.88256" lon="19.20018">
        <ele>1743.0100097656</ele>
        <time>2024-09-22T13:28:35.000Z</time>
      </trkpt>
      <trkpt lat="42.88263" lon="19.20014">
        <ele>1743.9699707031</ele>
        <time>2024-09-22T13:28:36.000Z</time>
      </trkpt>
      <trkpt lat="42.88266" lon="19.20012">
        <ele>1744.4499511719</ele>
        <time>2024-09-22T13:28:37.000Z</time>
      </trkpt>
      <trkpt lat="42.88271" lon="19.20011">
        <ele>1744.9300537109</ele>
        <time>2024-09-22T13:28:38.000Z</time>
      </trkpt>
      <trkpt lat="42.88276" lon="19.20011">
        <ele>1744.9300537109</ele>
        <time>2024-09-22T13:28:39.000Z</time>
      </trkpt>
      <trkpt lat="42.88282" lon="19.20012">
        <ele>1745.4100341797</ele>
        <time>2024-09-22T13:28:40.000Z</time>
      </trkpt>
      <trkpt lat="42.88288" lon="19.20013">
        <ele>1745.4100341797</ele>
        <time>2024-09-22T13:28:41.000Z</time>
      </trkpt>
      <trkpt lat="42.88295" lon="19.20011">
        <ele>1745.8900146484</ele>
        <time>2024-09-22T13:28:42.000Z</time>
      </trkpt>
      <trkpt lat="42.883" lon="19.20008">
        <ele>1747.3299560547</ele>
        <time>2024-09-22T13:28:43.000Z</time>
      </trkpt>
      <trkpt lat="42.88305" lon="19.20005">
        <ele>1747.8100585938</ele>
        <time>2024-09-22T13:28:44.000Z</time>
      </trkpt>
      <trkpt lat="42.88312" lon="19.20002">
        <ele>1747.8100585938</ele>
        <time>2024-09-22T13:28:45.000Z</time>
      </trkpt>
      <trkpt lat="42.88317" lon="19.20001">
        <ele>1748.2900390625</ele>
        <time>2024-09-22T13:28:46.000Z</time>
      </trkpt>
      <trkpt lat="42.88323" lon="19.2">
        <ele>1748.7800292969</ele>
        <time>2024-09-22T13:28:47.000Z</time>
      </trkpt>
      <trkpt lat="42.8833" lon="19.19999">
        <ele>1748.7800292969</ele>
        <time>2024-09-22T13:28:48.000Z</time>
      </trkpt>
      <trkpt lat="42.88335" lon="19.19998">
        <ele>1748.2900390625</ele>
        <time>2024-09-22T13:28:49.000Z</time>
      </trkpt>
      <trkpt lat="42.88341" lon="19.19996">
        <ele>1747.8100585938</ele>
        <time>2024-09-22T13:28:50.000Z</time>
      </trkpt>
      <trkpt lat="42.88347" lon="19.19993">
        <ele>1747.3299560547</ele>
        <time>2024-09-22T13:28:51.000Z</time>
      </trkpt>
      <trkpt lat="42.88352" lon="19.19989">
        <ele>1746.3699951172</ele>
        <time>2024-09-22T13:28:52.000Z</time>
      </trkpt>
      <trkpt lat="42.88358" lon="19.19986">
        <ele>1745.8900146484</ele>
        <time>2024-09-22T13:28:53.000Z</time>
      </trkpt>
      <trkpt lat="42.88362" lon="19.19983">
        <ele>1744.9300537109</ele>
        <time>2024-09-22T13:28:54.000Z</time>
      </trkpt>
      <trkpt lat="42.88367" lon="19.1998">
        <ele>1743.9699707031</ele>
        <time>2024-09-22T13:28:55.000Z</time>
      </trkpt>
      <trkpt lat="42.88372" lon="19.19974">
        <ele>1742.0500488281</ele>
        <time>2024-09-22T13:28:56.000Z</time>
      </trkpt>
      <trkpt lat="42.88375" lon="19.19967">
        <ele>1741.0799560547</ele>
        <time>2024-09-22T13:28:57.000Z</time>
      </trkpt>
      <trkpt lat="42.88379" lon="19.19958">
        <ele>1740.1199951172</ele>
        <time>2024-09-22T13:28:58.000Z</time>
      </trkpt>
      <trkpt lat="42.88383" lon="19.19951">
        <ele>1739.1600341797</ele>
        <time>2024-09-22T13:28:59.000Z</time>
      </trkpt>
      <trkpt lat="42.8839" lon="19.19942">
        <ele>1738.1999511719</ele>
        <time>2024-09-22T13:29:00.000Z</time>
      </trkpt>
      <trkpt lat="42.88394" lon="19.19938">
        <ele>1738.1999511719</ele>
        <time>2024-09-22T13:29:01.000Z</time>
      </trkpt>
      <trkpt lat="42.88401" lon="19.19929">
        <ele>1738.1999511719</ele>
        <time>2024-09-22T13:29:02.000Z</time>
      </trkpt>
      <trkpt lat="42.8841" lon="19.19918">
        <ele>1738.1999511719</ele>
        <time>2024-09-22T13:29:04.000Z</time>
      </trkpt>
      <trkpt lat="42.88415" lon="19.19911">
        <ele>1738.6800537109</ele>
        <time>2024-09-22T13:29:05.000Z</time>
      </trkpt>
      <trkpt lat="42.88422" lon="19.19902">
        <ele>1738.6800537109</ele>
        <time>2024-09-22T13:29:06.000Z</time>
      </trkpt>
      <trkpt lat="42.88425" lon="19.19897">
        <ele>1738.6800537109</ele>
        <time>2024-09-22T13:29:07.000Z</time>
      </trkpt>
      <trkpt lat="42.88431" lon="19.19891">
        <ele>1738.6800537109</ele>
        <time>2024-09-22T13:29:08.000Z</time>
      </trkpt>
      <trkpt lat="42.88436" lon="19.19886">
        <ele>1739.6400146484</ele>
        <time>2024-09-22T13:29:09.000Z</time>
      </trkpt>
      <trkpt lat="42.88442" lon="19.19878">
        <ele>1740.5999755859</ele>
        <time>2024-09-22T13:29:10.000Z</time>
      </trkpt>
      <trkpt lat="42.88448" lon="19.19871">
        <ele>1741.5699462891</ele>
        <time>2024-09-22T13:29:11.000Z</time>
      </trkpt>
      <trkpt lat="42.88453" lon="19.19864">
        <ele>1742.5300292969</ele>
        <time>2024-09-22T13:29:12.000Z</time>
      </trkpt>
      <trkpt lat="42.8846" lon="19.19857">
        <ele>1743.9699707031</ele>
        <time>2024-09-22T13:29:13.000Z</time>
      </trkpt>
      <trkpt lat="42.88464" lon="19.19853">
        <ele>1744.4499511719</ele>
        <time>2024-09-22T13:29:14.000Z</time>
      </trkpt>
      <trkpt lat="42.8847" lon="19.19849">
        <ele>1744.9300537109</ele>
        <time>2024-09-22T13:29:15.000Z</time>
      </trkpt>
      <trkpt lat="42.88482" lon="19.19842">
        <ele>1744.9300537109</ele>
        <time>2024-09-22T13:29:17.000Z</time>
      </trkpt>
      <trkpt lat="42.88488" lon="19.19841">
        <ele>1743.9699707031</ele>
        <time>2024-09-22T13:29:18.000Z</time>
      </trkpt>
      <trkpt lat="42.88494" lon="19.1984">
        <ele>1743.4899902344</ele>
        <time>2024-09-22T13:29:19.000Z</time>
      </trkpt>
      <trkpt lat="42.885" lon="19.19842">
        <ele>1743.4899902344</ele>
        <time>2024-09-22T13:29:20.000Z</time>
      </trkpt>
      <trkpt lat="42.88505" lon="19.19844">
        <ele>1743.4899902344</ele>
        <time>2024-09-22T13:29:21.000Z</time>
      </trkpt>
      <trkpt lat="42.88511" lon="19.19848">
        <ele>1743.4899902344</ele>
        <time>2024-09-22T13:29:22.000Z</time>
      </trkpt>
      <trkpt lat="42.88516" lon="19.19854">
        <ele>1743.4899902344</ele>
        <time>2024-09-22T13:29:23.000Z</time>
      </trkpt>
      <trkpt lat="42.8852" lon="19.19861">
        <ele>1743.4899902344</ele>
        <time>2024-09-22T13:29:24.000Z</time>
      </trkpt>
      <trkpt lat="42.88525" lon="19.19871">
        <ele>1743.4899902344</ele>
        <time>2024-09-22T13:29:25.000Z</time>
      </trkpt>
      <trkpt lat="42.8853" lon="19.19879">
        <ele>1743.9699707031</ele>
        <time>2024-09-22T13:29:26.000Z</time>
      </trkpt>
      <trkpt lat="42.88537" lon="19.19889">
        <ele>1745.4100341797</ele>
        <time>2024-09-22T13:29:27.000Z</time>
      </trkpt>
      <trkpt lat="42.88542" lon="19.19893">
        <ele>1745.8900146484</ele>
        <time>2024-09-22T13:29:28.000Z</time>
      </trkpt>
      <trkpt lat="42.88547" lon="19.19896">
        <ele>1746.8499755859</ele>
        <time>2024-09-22T13:29:29.000Z</time>
      </trkpt>
      <trkpt lat="42.88556" lon="19.19901">
        <ele>1747.8100585938</ele>
        <time>2024-09-22T13:29:30.000Z</time>
      </trkpt>
      <trkpt lat="42.88561" lon="19.19902">
        <ele>1747.3299560547</ele>
        <time>2024-09-22T13:29:31.000Z</time>
      </trkpt>
      <trkpt lat="42.88566" lon="19.19903">
        <ele>1747.8100585938</ele>
        <time>2024-09-22T13:29:32.000Z</time>
      </trkpt>
      <trkpt lat="42.88574" lon="19.19903">
        <ele>1747.8100585938</ele>
        <time>2024-09-22T13:29:33.000Z</time>
      </trkpt>
      <trkpt lat="42.88582" lon="19.19905">
        <ele>1748.7800292969</ele>
        <time>2024-09-22T13:29:34.000Z</time>
      </trkpt>
      <trkpt lat="42.88589" lon="19.1991">
        <ele>1749.7399902344</ele>
        <time>2024-09-22T13:29:35.000Z</time>
      </trkpt>
      <trkpt lat="42.88597" lon="19.19915">
        <ele>1750.6999511719</ele>
        <time>2024-09-22T13:29:36.000Z</time>
      </trkpt>
      <trkpt lat="42.88608" lon="19.19925">
        <ele>1753.0999755859</ele>
        <time>2024-09-22T13:29:37.000Z</time>
      </trkpt>
      <trkpt lat="42.88609" lon="19.19926">
        <ele>1753.5799560547</ele>
        <time>2024-09-22T13:29:38.000Z</time>
      </trkpt>
      <trkpt lat="42.88616" lon="19.19931">
        <ele>1754.5400390625</ele>
        <time>2024-09-22T13:29:39.000Z</time>
      </trkpt>
      <trkpt lat="42.88621" lon="19.19934">
        <ele>1755.5</ele>
        <time>2024-09-22T13:29:40.000Z</time>
      </trkpt>
      <trkpt lat="42.88626" lon="19.19935">
        <ele>1756.4699707031</ele>
        <time>2024-09-22T13:29:41.000Z</time>
      </trkpt>
      <trkpt lat="42.8863" lon="19.19933">
        <ele>1756.9499511719</ele>
        <time>2024-09-22T13:29:42.000Z</time>
      </trkpt>
      <trkpt lat="42.88634" lon="19.19929">
        <ele>1757.4300537109</ele>
        <time>2024-09-22T13:29:43.000Z</time>
      </trkpt>
      <trkpt lat="42.88636" lon="19.19923">
        <ele>1757.9100341797</ele>
        <time>2024-09-22T13:29:44.000Z</time>
      </trkpt>
      <trkpt lat="42.88638" lon="19.19917">
        <ele>1759.3499755859</ele>
        <time>2024-09-22T13:29:45.000Z</time>
      </trkpt>
      <trkpt lat="42.88638" lon="19.1991">
        <ele>1759.8299560547</ele>
        <time>2024-09-22T13:29:46.000Z</time>
      </trkpt>
      <trkpt lat="42.88636" lon="19.19904">
        <ele>1760.3100585938</ele>
        <time>2024-09-22T13:29:47.000Z</time>
      </trkpt>
      <trkpt lat="42.88632" lon="19.19897">
        <ele>1760.7900390625</ele>
        <time>2024-09-22T13:29:48.000Z</time>
      </trkpt>
      <trkpt lat="42.8863" lon="19.19892">
        <ele>1760.7900390625</ele>
        <time>2024-09-22T13:29:49.000Z</time>
      </trkpt>
      <trkpt lat="42.88629" lon="19.19886">
        <ele>1761.75</ele>
        <time>2024-09-22T13:29:50.000Z</time>
      </trkpt>
      <trkpt lat="42.88629" lon="19.19879">
        <ele>1761.75</ele>
        <time>2024-09-22T13:29:51.000Z</time>
      </trkpt>
      <trkpt lat="42.88629" lon="19.19873">
        <ele>1761.2700195312</ele>
        <time>2024-09-22T13:29:52.000Z</time>
      </trkpt>
      <trkpt lat="42.88627" lon="19.19865">
        <ele>1761.75</ele>
        <time>2024-09-22T13:29:53.000Z</time>
      </trkpt>
      <trkpt lat="42.88627" lon="19.19857">
        <ele>1762.2299804688</ele>
        <time>2024-09-22T13:29:54.000Z</time>
      </trkpt>
      <trkpt lat="42.88629" lon="19.1985">
        <ele>1762.7099609375</ele>
        <time>2024-09-22T13:29:55.000Z</time>
      </trkpt>
      <trkpt lat="42.8863" lon="19.19844">
        <ele>1763.1999511719</ele>
        <time>2024-09-22T13:29:56.000Z</time>
      </trkpt>
      <trkpt lat="42.88633" lon="19.19839">
        <ele>1763.6800537109</ele>
        <time>2024-09-22T13:29:57.000Z</time>
      </trkpt>
      <trkpt lat="42.88637" lon="19.19835">
        <ele>1764.1600341797</ele>
        <time>2024-09-22T13:29:58.000Z</time>
      </trkpt>
      <trkpt lat="42.88643" lon="19.19833">
        <ele>1765.1199951172</ele>
        <time>2024-09-22T13:29:59.000Z</time>
      </trkpt>
      <trkpt lat="42.88646" lon="19.19833">
        <ele>1766.0799560547</ele>
        <time>2024-09-22T13:30:00.000Z</time>
      </trkpt>
      <trkpt lat="42.88651" lon="19.19834">
        <ele>1767.0400390625</ele>
        <time>2024-09-22T13:30:01.000Z</time>
      </trkpt>
      <trkpt lat="42.88655" lon="19.19835">
        <ele>1768</ele>
        <time>2024-09-22T13:30:02.000Z</time>
      </trkpt>
      <trkpt lat="42.88661" lon="19.19836">
        <ele>1768.4799804688</ele>
        <time>2024-09-22T13:30:03.000Z</time>
      </trkpt>
      <trkpt lat="42.88667" lon="19.19836">
        <ele>1769.4399414062</ele>
        <time>2024-09-22T13:30:04.000Z</time>
      </trkpt>
      <trkpt lat="42.88672" lon="19.19834">
        <ele>1770.4100341797</ele>
        <time>2024-09-22T13:30:05.000Z</time>
      </trkpt>
      <trkpt lat="42.8868" lon="19.19831">
        <ele>1771.3699951172</ele>
        <time>2024-09-22T13:30:06.000Z</time>
      </trkpt>
      <trkpt lat="42.88682" lon="19.1983">
        <ele>1771.3699951172</ele>
        <time>2024-09-22T13:30:07.000Z</time>
      </trkpt>
      <trkpt lat="42.88688" lon="19.19826">
        <ele>1772.3299560547</ele>
        <time>2024-09-22T13:30:08.000Z</time>
      </trkpt>
      <trkpt lat="42.88692" lon="19.19824">
        <ele>1772.8100585938</ele>
        <time>2024-09-22T13:30:09.000Z</time>
      </trkpt>
      <trkpt lat="42.887" lon="19.19818">
        <ele>1773.7700195312</ele>
        <time>2024-09-22T13:30:10.000Z</time>
      </trkpt>
      <trkpt lat="42.88702" lon="19.19816">
        <ele>1774.25</ele>
        <time>2024-09-22T13:30:11.000Z</time>
      </trkpt>
      <trkpt lat="42.88713" lon="19.1981">
        <ele>1775.6899414062</ele>
        <time>2024-09-22T13:30:13.000Z</time>
      </trkpt>
      <trkpt lat="42.8872" lon="19.19807">
        <ele>1777.1300048828</ele>
        <time>2024-09-22T13:30:14.000Z</time>
      </trkpt>
      <trkpt lat="42.88727" lon="19.19803">
        <ele>1778.0999755859</ele>
        <time>2024-09-22T13:30:15.000Z</time>
      </trkpt>
      <trkpt lat="42.88731" lon="19.19801">
        <ele>1778.5799560547</ele>
        <time>2024-09-22T13:30:16.000Z</time>
      </trkpt>
      <trkpt lat="42.88737" lon="19.19799">
        <ele>1779.5400390625</ele>
        <time>2024-09-22T13:30:17.000Z</time>
      </trkpt>
      <trkpt lat="42.88745" lon="19.19795">
        <ele>1780.9799804688</ele>
        <time>2024-09-22T13:30:18.000Z</time>
      </trkpt>
      <trkpt lat="42.8875" lon="19.19792">
        <ele>1781.9399414062</ele>
        <time>2024-09-22T13:30:19.000Z</time>
      </trkpt>
      <trkpt lat="42.88755" lon="19.1979">
        <ele>1782.4200439453</ele>
        <time>2024-09-22T13:30:20.000Z</time>
      </trkpt>
      <trkpt lat="42.88761" lon="19.19786">
        <ele>1783.3800048828</ele>
        <time>2024-09-22T13:30:21.000Z</time>
      </trkpt>
      <trkpt lat="42.88777" lon="19.19778">
        <ele>1784.8199462891</ele>
        <time>2024-09-22T13:30:23.000Z</time>
      </trkpt>
      <trkpt lat="42.88789" lon="19.19773">
        <ele>1787.2299804688</ele>
        <time>2024-09-22T13:30:24.000Z</time>
      </trkpt>
      <trkpt lat="42.88803" lon="19.19767">
        <ele>1789.1500244141</ele>
        <time>2024-09-22T13:30:26.000Z</time>
      </trkpt>
      <trkpt lat="42.88808" lon="19.19764">
        <ele>1790.1099853516</ele>
        <time>2024-09-22T13:30:27.000Z</time>
      </trkpt>
      <trkpt lat="42.88815" lon="19.19759">
        <ele>1791.0699462891</ele>
        <time>2024-09-22T13:30:28.000Z</time>
      </trkpt>
      <trkpt lat="42.88819" lon="19.19754">
        <ele>1792.0300292969</ele>
        <time>2024-09-22T13:30:29.000Z</time>
      </trkpt>
      <trkpt lat="42.88823" lon="19.19748">
        <ele>1792.5200195312</ele>
        <time>2024-09-22T13:30:30.000Z</time>
      </trkpt>
      <trkpt lat="42.88826" lon="19.19741">
        <ele>1792.5200195312</ele>
        <time>2024-09-22T13:30:31.000Z</time>
      </trkpt>
      <trkpt lat="42.8883" lon="19.19733">
        <ele>1792.5200195312</ele>
        <time>2024-09-22T13:30:32.000Z</time>
      </trkpt>
      <trkpt lat="42.88833" lon="19.19727">
        <ele>1793</ele>
        <time>2024-09-22T13:30:33.000Z</time>
      </trkpt>
      <trkpt lat="42.88838" lon="19.19721">
        <ele>1793</ele>
        <time>2024-09-22T13:30:34.000Z</time>
      </trkpt>
      <trkpt lat="42.88846" lon="19.19714">
        <ele>1793</ele>
        <time>2024-09-22T13:30:35.000Z</time>
      </trkpt>
      <trkpt lat="42.8885" lon="19.1971">
        <ele>1793</ele>
        <time>2024-09-22T13:30:36.000Z</time>
      </trkpt>
      <trkpt lat="42.88858" lon="19.19705">
        <ele>1793</ele>
        <time>2024-09-22T13:30:38.000Z</time>
      </trkpt>
      <trkpt lat="42.88863" lon="19.19701">
        <ele>1792.5200195312</ele>
        <time>2024-09-22T13:30:39.000Z</time>
      </trkpt>
      <trkpt lat="42.88869" lon="19.19697">
        <ele>1792.5200195312</ele>
        <time>2024-09-22T13:30:40.000Z</time>
      </trkpt>
      <trkpt lat="42.88879" lon="19.19693">
        <ele>1792.0300292969</ele>
        <time>2024-09-22T13:30:42.000Z</time>
      </trkpt>
      <trkpt lat="42.88882" lon="19.19691">
        <ele>1792.0300292969</ele>
        <time>2024-09-22T13:30:43.000Z</time>
      </trkpt>
      <trkpt lat="42.88893" lon="19.19684">
        <ele>1792.0300292969</ele>
        <time>2024-09-22T13:30:45.000Z</time>
      </trkpt>
      <trkpt lat="42.88897" lon="19.19681">
        <ele>1792.0300292969</ele>
        <time>2024-09-22T13:30:46.000Z</time>
      </trkpt>
      <trkpt lat="42.88902" lon="19.19677">
        <ele>1792.0300292969</ele>
        <time>2024-09-22T13:30:47.000Z</time>
      </trkpt>
      <trkpt lat="42.88905" lon="19.19674">
        <ele>1792.0300292969</ele>
        <time>2024-09-22T13:30:48.000Z</time>
      </trkpt>
      <trkpt lat="42.88909" lon="19.19669">
        <ele>1791.5500488281</ele>
        <time>2024-09-22T13:30:49.000Z</time>
      </trkpt>
      <trkpt lat="42.88917" lon="19.19656">
        <ele>1790.1099853516</ele>
        <time>2024-09-22T13:30:51.000Z</time>
      </trkpt>
      <trkpt lat="42.88921" lon="19.19651">
        <ele>1789.1500244141</ele>
        <time>2024-09-22T13:30:52.000Z</time>
      </trkpt>
      <trkpt lat="42.88925" lon="19.19647">
        <ele>1788.6700439453</ele>
        <time>2024-09-22T13:30:53.000Z</time>
      </trkpt>
      <trkpt lat="42.8893" lon="19.19641">
        <ele>1788.1899414062</ele>
        <time>2024-09-22T13:30:54.000Z</time>
      </trkpt>
      <trkpt lat="42.88936" lon="19.19637">
        <ele>1787.2299804688</ele>
        <time>2024-09-22T13:30:55.000Z</time>
      </trkpt>
      <trkpt lat="42.88942" lon="19.19633">
        <ele>1786.75</ele>
        <time>2024-09-22T13:30:56.000Z</time>
      </trkpt>
      <trkpt lat="42.88948" lon="19.19629">
        <ele>1785.7900390625</ele>
        <time>2024-09-22T13:30:57.000Z</time>
      </trkpt>
      <trkpt lat="42.88955" lon="19.19624">
        <ele>1784.8199462891</ele>
        <time>2024-09-22T13:30:58.000Z</time>
      </trkpt>
      <trkpt lat="42.8896" lon="19.1962">
        <ele>1784.3399658203</ele>
        <time>2024-09-22T13:30:59.000Z</time>
      </trkpt>
      <trkpt lat="42.88965" lon="19.19614">
        <ele>1783.3800048828</ele>
        <time>2024-09-22T13:31:00.000Z</time>
      </trkpt>
      <trkpt lat="42.8897" lon="19.19606">
        <ele>1782.9000244141</ele>
        <time>2024-09-22T13:31:01.000Z</time>
      </trkpt>
      <trkpt lat="42.88975" lon="19.19596">
        <ele>1781.9399414062</ele>
        <time>2024-09-22T13:31:02.000Z</time>
      </trkpt>
      <trkpt lat="42.88979" lon="19.19588">
        <ele>1781.4599609375</ele>
        <time>2024-09-22T13:31:03.000Z</time>
      </trkpt>
      <trkpt lat="42.88985" lon="19.19577">
        <ele>1780.5</ele>
        <time>2024-09-22T13:31:04.000Z</time>
      </trkpt>
      <trkpt lat="42.88989" lon="19.1957">
        <ele>1780.5</ele>
        <time>2024-09-22T13:31:05.000Z</time>
      </trkpt>
      <trkpt lat="42.88994" lon="19.19559">
        <ele>1779.0600585938</ele>
        <time>2024-09-22T13:31:06.000Z</time>
      </trkpt>
      <trkpt lat="42.89" lon="19.19541">
        <ele>1778.0999755859</ele>
        <time>2024-09-22T13:31:08.000Z</time>
      </trkpt>
      <trkpt lat="42.89004" lon="19.19533">
        <ele>1777.1300048828</ele>
        <time>2024-09-22T13:31:09.000Z</time>
      </trkpt>
      <trkpt lat="42.8901" lon="19.19521">
        <ele>1775.6899414062</ele>
        <time>2024-09-22T13:31:10.000Z</time>
      </trkpt>
      <trkpt lat="42.89014" lon="19.19514">
        <ele>1775.2099609375</ele>
        <time>2024-09-22T13:31:11.000Z</time>
      </trkpt>
      <trkpt lat="42.8902" lon="19.19504">
        <ele>1774.25</ele>
        <time>2024-09-22T13:31:12.000Z</time>
      </trkpt>
      <trkpt lat="42.89023" lon="19.195">
        <ele>1773.7700195312</ele>
        <time>2024-09-22T13:31:13.000Z</time>
      </trkpt>
      <trkpt lat="42.89029" lon="19.19492">
        <ele>1772.8100585938</ele>
        <time>2024-09-22T13:31:14.000Z</time>
      </trkpt>
      <trkpt lat="42.89037" lon="19.19482">
        <ele>1771.3699951172</ele>
        <time>2024-09-22T13:31:15.000Z</time>
      </trkpt>
      <trkpt lat="42.89039" lon="19.19479">
        <ele>1770.8900146484</ele>
        <time>2024-09-22T13:31:16.000Z</time>
      </trkpt>
      <trkpt lat="42.89045" lon="19.19474">
        <ele>1770.4100341797</ele>
        <time>2024-09-22T13:31:17.000Z</time>
      </trkpt>
      <trkpt lat="42.89053" lon="19.19465">
        <ele>1768.9599609375</ele>
        <time>2024-09-22T13:31:18.000Z</time>
      </trkpt>
      <trkpt lat="42.8906" lon="19.19457">
        <ele>1768</ele>
        <time>2024-09-22T13:31:19.000Z</time>
      </trkpt>
      <trkpt lat="42.89062" lon="19.19454">
        <ele>1767.5200195312</ele>
        <time>2024-09-22T13:31:20.000Z</time>
      </trkpt>
      <trkpt lat="42.89069" lon="19.19446">
        <ele>1767.0400390625</ele>
        <time>2024-09-22T13:31:21.000Z</time>
      </trkpt>
      <trkpt lat="42.89074" lon="19.19437">
        <ele>1766.0799560547</ele>
        <time>2024-09-22T13:31:22.000Z</time>
      </trkpt>
      <trkpt lat="42.89078" lon="19.1943">
        <ele>1765.5999755859</ele>
        <time>2024-09-22T13:31:23.000Z</time>
      </trkpt>
      <trkpt lat="42.89083" lon="19.19421">
        <ele>1764.6400146484</ele>
        <time>2024-09-22T13:31:24.000Z</time>
      </trkpt>
      <trkpt lat="42.8909" lon="19.19409">
        <ele>1764.1600341797</ele>
        <time>2024-09-22T13:31:25.000Z</time>
      </trkpt>
      <trkpt lat="42.89096" lon="19.19401">
        <ele>1763.1999511719</ele>
        <time>2024-09-22T13:31:26.000Z</time>
      </trkpt>
      <trkpt lat="42.891" lon="19.19395">
        <ele>1762.7099609375</ele>
        <time>2024-09-22T13:31:27.000Z</time>
      </trkpt>
      <trkpt lat="42.89106" lon="19.19389">
        <ele>1762.2299804688</ele>
        <time>2024-09-22T13:31:28.000Z</time>
      </trkpt>
      <trkpt lat="42.89114" lon="19.19384">
        <ele>1761.75</ele>
        <time>2024-09-22T13:31:29.000Z</time>
      </trkpt>
      <trkpt lat="42.89126" lon="19.19374">
        <ele>1761.75</ele>
        <time>2024-09-22T13:31:30.000Z</time>
      </trkpt>
      <trkpt lat="42.89127" lon="19.19373">
        <ele>1761.75</ele>
        <time>2024-09-22T13:31:31.000Z</time>
      </trkpt>
      <trkpt lat="42.89133" lon="19.19369">
        <ele>1761.2700195312</ele>
        <time>2024-09-22T13:31:32.000Z</time>
      </trkpt>
      <trkpt lat="42.89139" lon="19.19367">
        <ele>1760.3100585938</ele>
        <time>2024-09-22T13:31:33.000Z</time>
      </trkpt>
      <trkpt lat="42.89148" lon="19.19364">
        <ele>1759.8299560547</ele>
        <time>2024-09-22T13:31:34.000Z</time>
      </trkpt>
      <trkpt lat="42.89151" lon="19.19363">
        <ele>1759.8299560547</ele>
        <time>2024-09-22T13:31:35.000Z</time>
      </trkpt>
      <trkpt lat="42.89156" lon="19.1936">
        <ele>1759.3499755859</ele>
        <time>2024-09-22T13:31:36.000Z</time>
      </trkpt>
      <trkpt lat="42.8916" lon="19.19357">
        <ele>1758.8699951172</ele>
        <time>2024-09-22T13:31:37.000Z</time>
      </trkpt>
      <trkpt lat="42.89164" lon="19.19353">
        <ele>1758.3900146484</ele>
        <time>2024-09-22T13:31:38.000Z</time>
      </trkpt>
      <trkpt lat="42.89169" lon="19.19348">
        <ele>1757.4300537109</ele>
        <time>2024-09-22T13:31:39.000Z</time>
      </trkpt>
      <trkpt lat="42.89175" lon="19.19341">
        <ele>1756.4699707031</ele>
        <time>2024-09-22T13:31:40.000Z</time>
      </trkpt>
      <trkpt lat="42.89179" lon="19.19336">
        <ele>1756.4699707031</ele>
        <time>2024-09-22T13:31:41.000Z</time>
      </trkpt>
      <trkpt lat="42.89181" lon="19.19334">
        <ele>1756.4699707031</ele>
        <time>2024-09-22T13:31:42.000Z</time>
      </trkpt>
      <trkpt lat="42.89186" lon="19.1933">
        <ele>1756.4699707031</ele>
        <time>2024-09-22T13:31:43.000Z</time>
      </trkpt>
      <trkpt lat="42.8919" lon="19.19326">
        <ele>1755.5</ele>
        <time>2024-09-22T13:31:44.000Z</time>
      </trkpt>
      <trkpt lat="42.89194" lon="19.19321">
        <ele>1755.0200195312</ele>
        <time>2024-09-22T13:31:45.000Z</time>
      </trkpt>
      <trkpt lat="42.892" lon="19.19315">
        <ele>1753.5799560547</ele>
        <time>2024-09-22T13:31:46.000Z</time>
      </trkpt>
      <trkpt lat="42.89209" lon="19.19308">
        <ele>1752.1400146484</ele>
        <time>2024-09-22T13:31:47.000Z</time>
      </trkpt>
      <trkpt lat="42.89211" lon="19.19306">
        <ele>1751.6600341797</ele>
        <time>2024-09-22T13:31:48.000Z</time>
      </trkpt>
      <trkpt lat="42.89215" lon="19.19302">
        <ele>1751.1800537109</ele>
        <time>2024-09-22T13:31:49.000Z</time>
      </trkpt>
      <trkpt lat="42.8922" lon="19.19296">
        <ele>1750.6999511719</ele>
        <time>2024-09-22T13:31:50.000Z</time>
      </trkpt>
      <trkpt lat="42.89225" lon="19.19289">
        <ele>1749.7399902344</ele>
        <time>2024-09-22T13:31:51.000Z</time>
      </trkpt>
      <trkpt lat="42.89232" lon="19.19283">
        <ele>1748.7800292969</ele>
        <time>2024-09-22T13:31:52.000Z</time>
      </trkpt>
      <trkpt lat="42.89238" lon="19.19279">
        <ele>1748.2900390625</ele>
        <time>2024-09-22T13:31:53.000Z</time>
      </trkpt>
      <trkpt lat="42.89243" lon="19.19276">
        <ele>1747.8100585938</ele>
        <time>2024-09-22T13:31:54.000Z</time>
      </trkpt>
      <trkpt lat="42.89248" lon="19.19271">
        <ele>1747.3299560547</ele>
        <time>2024-09-22T13:31:55.000Z</time>
      </trkpt>
      <trkpt lat="42.89253" lon="19.19265">
        <ele>1746.8499755859</ele>
        <time>2024-09-22T13:31:56.000Z</time>
      </trkpt>
      <trkpt lat="42.89258" lon="19.19258">
        <ele>1745.8900146484</ele>
        <time>2024-09-22T13:31:57.000Z</time>
      </trkpt>
      <trkpt lat="42.89261" lon="19.19254">
        <ele>1745.4100341797</ele>
        <time>2024-09-22T13:31:58.000Z</time>
      </trkpt>
      <trkpt lat="42.89266" lon="19.19249">
        <ele>1744.9300537109</ele>
        <time>2024-09-22T13:31:59.000Z</time>
      </trkpt>
      <trkpt lat="42.8927" lon="19.19245">
        <ele>1743.9699707031</ele>
        <time>2024-09-22T13:32:00.000Z</time>
      </trkpt>
      <trkpt lat="42.89277" lon="19.19242">
        <ele>1743.0100097656</ele>
        <time>2024-09-22T13:32:01.000Z</time>
      </trkpt>
      <trkpt lat="42.89282" lon="19.1924">
        <ele>1742.5300292969</ele>
        <time>2024-09-22T13:32:02.000Z</time>
      </trkpt>
      <trkpt lat="42.89287" lon="19.19239">
        <ele>1742.0500488281</ele>
        <time>2024-09-22T13:32:03.000Z</time>
      </trkpt>
      <trkpt lat="42.89292" lon="19.1924">
        <ele>1742.0500488281</ele>
        <time>2024-09-22T13:32:04.000Z</time>
      </trkpt>
      <trkpt lat="42.89302" lon="19.19241">
        <ele>1741.5699462891</ele>
        <time>2024-09-22T13:32:05.000Z</time>
      </trkpt>
      <trkpt lat="42.89305" lon="19.19241">
        <ele>1741.5699462891</ele>
        <time>2024-09-22T13:32:06.000Z</time>
      </trkpt>
      <trkpt lat="42.8931" lon="19.19244">
        <ele>1741.5699462891</ele>
        <time>2024-09-22T13:32:07.000Z</time>
      </trkpt>
      <trkpt lat="42.89315" lon="19.19247">
        <ele>1741.5699462891</ele>
        <time>2024-09-22T13:32:08.000Z</time>
      </trkpt>
      <trkpt lat="42.89319" lon="19.1925">
        <ele>1741.0799560547</ele>
        <time>2024-09-22T13:32:09.000Z</time>
      </trkpt>
      <trkpt lat="42.89323" lon="19.19255">
        <ele>1740.5999755859</ele>
        <time>2024-09-22T13:32:10.000Z</time>
      </trkpt>
      <trkpt lat="42.89326" lon="19.19258">
        <ele>1740.1199951172</ele>
        <time>2024-09-22T13:32:11.000Z</time>
      </trkpt>
      <trkpt lat="42.8933" lon="19.1926">
        <ele>1740.1199951172</ele>
        <time>2024-09-22T13:32:12.000Z</time>
      </trkpt>
      <trkpt lat="42.89335" lon="19.19259">
        <ele>1739.6400146484</ele>
        <time>2024-09-22T13:32:13.000Z</time>
      </trkpt>
      <trkpt lat="42.89341" lon="19.19255">
        <ele>1739.1600341797</ele>
        <time>2024-09-22T13:32:14.000Z</time>
      </trkpt>
      <trkpt lat="42.89394" lon="19.19218">
        <ele>1736.2800292969</ele>
        <time>2024-09-22T13:32:23.000Z</time>
      </trkpt>
      <trkpt lat="42.89405" lon="19.19209">
        <ele>1735.3199462891</ele>
        <time>2024-09-22T13:32:25.000Z</time>
      </trkpt>
      <trkpt lat="42.89406" lon="19.19208">
        <ele>1734.8399658203</ele>
        <time>2024-09-22T13:32:26.000Z</time>
      </trkpt>
      <trkpt lat="42.8943" lon="19.19187">
        <ele>1731.9499511719</ele>
        <time>2024-09-22T13:32:30.000Z</time>
      </trkpt>
      <trkpt lat="42.89434" lon="19.19184">
        <ele>1731.4699707031</ele>
        <time>2024-09-22T13:32:31.000Z</time>
      </trkpt>
      <trkpt lat="42.89444" lon="19.19175">
        <ele>1730.5100097656</ele>
        <time>2024-09-22T13:32:32.000Z</time>
      </trkpt>
      <trkpt lat="42.89447" lon="19.19172">
        <ele>1730.0300292969</ele>
        <time>2024-09-22T13:32:33.000Z</time>
      </trkpt>
      <trkpt lat="42.89456" lon="19.19165">
        <ele>1730.0300292969</ele>
        <time>2024-09-22T13:32:34.000Z</time>
      </trkpt>
      <trkpt lat="42.89458" lon="19.19164">
        <ele>1730.0300292969</ele>
        <time>2024-09-22T13:32:35.000Z</time>
      </trkpt>
      <trkpt lat="42.89462" lon="19.1916">
        <ele>1730.0300292969</ele>
        <time>2024-09-22T13:32:36.000Z</time>
      </trkpt>
      <trkpt lat="42.89466" lon="19.19154">
        <ele>1730.5100097656</ele>
        <time>2024-09-22T13:32:37.000Z</time>
      </trkpt>
      <trkpt lat="42.8947" lon="19.19146">
        <ele>1730.5100097656</ele>
        <time>2024-09-22T13:32:38.000Z</time>
      </trkpt>
      <trkpt lat="42.89475" lon="19.19137">
        <ele>1730.9899902344</ele>
        <time>2024-09-22T13:32:39.000Z</time>
      </trkpt>
      <trkpt lat="42.89477" lon="19.19133">
        <ele>1730.9899902344</ele>
        <time>2024-09-22T13:32:40.000Z</time>
      </trkpt>
      <trkpt lat="42.89478" lon="19.1913">
        <ele>1730.9899902344</ele>
        <time>2024-09-22T13:32:41.000Z</time>
      </trkpt>
      <trkpt lat="42.89481" lon="19.19123">
        <ele>1730.9899902344</ele>
        <time>2024-09-22T13:32:42.000Z</time>
      </trkpt>
      <trkpt lat="42.89485" lon="19.19117">
        <ele>1731.4699707031</ele>
        <time>2024-09-22T13:32:43.000Z</time>
      </trkpt>
      <trkpt lat="42.89491" lon="19.1911">
        <ele>1731.4699707031</ele>
        <time>2024-09-22T13:32:44.000Z</time>
      </trkpt>
      <trkpt lat="42.89496" lon="19.19104">
        <ele>1731.9499511719</ele>
        <time>2024-09-22T13:32:45.000Z</time>
      </trkpt>
      <trkpt lat="42.89499" lon="19.19098">
        <ele>1732.4300537109</ele>
        <time>2024-09-22T13:32:46.000Z</time>
      </trkpt>
      <trkpt lat="42.8951" lon="19.19078">
        <ele>1733.3900146484</ele>
        <time>2024-09-22T13:32:48.000Z</time>
      </trkpt>
      <trkpt lat="42.89517" lon="19.19063">
        <ele>1733.8800048828</ele>
        <time>2024-09-22T13:32:50.000Z</time>
      </trkpt>
      <trkpt lat="42.89522" lon="19.19054">
        <ele>1733.8800048828</ele>
        <time>2024-09-22T13:32:51.000Z</time>
      </trkpt>
      <trkpt lat="42.89523" lon="19.19051">
        <ele>1733.8800048828</ele>
        <time>2024-09-22T13:32:52.000Z</time>
      </trkpt>
      <trkpt lat="42.89531" lon="19.19035">
        <ele>1734.8399658203</ele>
        <time>2024-09-22T13:32:54.000Z</time>
      </trkpt>
      <trkpt lat="42.89535" lon="19.19028">
        <ele>1734.8399658203</ele>
        <time>2024-09-22T13:32:55.000Z</time>
      </trkpt>
      <trkpt lat="42.8954" lon="19.19021">
        <ele>1735.3199462891</ele>
        <time>2024-09-22T13:32:56.000Z</time>
      </trkpt>
      <trkpt lat="42.89548" lon="19.19006">
        <ele>1735.3199462891</ele>
        <time>2024-09-22T13:32:57.000Z</time>
      </trkpt>
      <trkpt lat="42.89549" lon="19.19005">
        <ele>1735.8000488281</ele>
        <time>2024-09-22T13:32:58.000Z</time>
      </trkpt>
      <trkpt lat="42.89554" lon="19.18999">
        <ele>1735.8000488281</ele>
        <time>2024-09-22T13:32:59.000Z</time>
      </trkpt>
      <trkpt lat="42.89559" lon="19.18995">
        <ele>1735.8000488281</ele>
        <time>2024-09-22T13:33:00.000Z</time>
      </trkpt>
      <trkpt lat="42.8957" lon="19.18991">
        <ele>1735.8000488281</ele>
        <time>2024-09-22T13:33:01.000Z</time>
      </trkpt>
      <trkpt lat="42.89576" lon="19.18987">
        <ele>1735.8000488281</ele>
        <time>2024-09-22T13:33:03.000Z</time>
      </trkpt>
      <trkpt lat="42.89582" lon="19.18984">
        <ele>1736.2800292969</ele>
        <time>2024-09-22T13:33:04.000Z</time>
      </trkpt>
      <trkpt lat="42.89588" lon="19.18979">
        <ele>1736.7600097656</ele>
        <time>2024-09-22T13:33:05.000Z</time>
      </trkpt>
      <trkpt lat="42.89592" lon="19.18974">
        <ele>1736.7600097656</ele>
        <time>2024-09-22T13:33:06.000Z</time>
      </trkpt>
      <trkpt lat="42.89599" lon="19.18966">
        <ele>1737.2399902344</ele>
        <time>2024-09-22T13:33:07.000Z</time>
      </trkpt>
      <trkpt lat="42.89602" lon="19.18962">
        <ele>1737.7199707031</ele>
        <time>2024-09-22T13:33:08.000Z</time>
      </trkpt>
      <trkpt lat="42.89614" lon="19.18945">
        <ele>1738.6800537109</ele>
        <time>2024-09-22T13:33:10.000Z</time>
      </trkpt>
      <trkpt lat="42.89616" lon="19.18942">
        <ele>1738.6800537109</ele>
        <time>2024-09-22T13:33:11.000Z</time>
      </trkpt>
      <trkpt lat="42.89621" lon="19.18936">
        <ele>1738.6800537109</ele>
        <time>2024-09-22T13:33:12.000Z</time>
      </trkpt>
      <trkpt lat="42.89625" lon="19.18932">
        <ele>1738.6800537109</ele>
        <time>2024-09-22T13:33:13.000Z</time>
      </trkpt>
      <trkpt lat="42.8963" lon="19.18927">
        <ele>1738.6800537109</ele>
        <time>2024-09-22T13:33:14.000Z</time>
      </trkpt>
      <trkpt lat="42.89637" lon="19.1892">
        <ele>1739.1600341797</ele>
        <time>2024-09-22T13:33:15.000Z</time>
      </trkpt>
      <trkpt lat="42.8964" lon="19.18917">
        <ele>1739.1600341797</ele>
        <time>2024-09-22T13:33:16.000Z</time>
      </trkpt>
      <trkpt lat="42.89644" lon="19.18912">
        <ele>1739.6400146484</ele>
        <time>2024-09-22T13:33:17.000Z</time>
      </trkpt>
      <trkpt lat="42.89649" lon="19.18906">
        <ele>1739.6400146484</ele>
        <time>2024-09-22T13:33:18.000Z</time>
      </trkpt>
      <trkpt lat="42.89656" lon="19.18895">
        <ele>1740.1199951172</ele>
        <time>2024-09-22T13:33:19.000Z</time>
      </trkpt>
      <trkpt lat="42.89658" lon="19.18891">
        <ele>1740.5999755859</ele>
        <time>2024-09-22T13:33:20.000Z</time>
      </trkpt>
      <trkpt lat="42.89661" lon="19.18887">
        <ele>1740.5999755859</ele>
        <time>2024-09-22T13:33:21.000Z</time>
      </trkpt>
      <trkpt lat="42.89668" lon="19.18876">
        <ele>1741.5699462891</ele>
        <time>2024-09-22T13:33:22.000Z</time>
      </trkpt>
      <trkpt lat="42.89671" lon="19.18871">
        <ele>1741.5699462891</ele>
        <time>2024-09-22T13:33:23.000Z</time>
      </trkpt>
      <trkpt lat="42.89673" lon="19.18866">
        <ele>1741.5699462891</ele>
        <time>2024-09-22T13:33:24.000Z</time>
      </trkpt>
      <trkpt lat="42.89677" lon="19.18859">
        <ele>1741.5699462891</ele>
        <time>2024-09-22T13:33:25.000Z</time>
      </trkpt>
      <trkpt lat="42.89679" lon="19.18853">
        <ele>1742.0500488281</ele>
        <time>2024-09-22T13:33:26.000Z</time>
      </trkpt>
      <trkpt lat="42.89687" lon="19.1884">
        <ele>1742.5300292969</ele>
        <time>2024-09-22T13:33:32.000Z</time>
      </trkpt>
      <trkpt lat="42.8969" lon="19.18834">
        <ele>1742.0500488281</ele>
        <time>2024-09-22T13:35:20.000Z</time>
      </trkpt>
      <trkpt lat="42.89693" lon="19.18828">
        <ele>1742.0500488281</ele>
        <time>2024-09-22T13:35:21.000Z</time>
      </trkpt>
      <trkpt lat="42.89695" lon="19.18824">
        <ele>1742.0500488281</ele>
        <time>2024-09-22T13:35:22.000Z</time>
      </trkpt>
      <trkpt lat="42.89698" lon="19.18819">
        <ele>1742.0500488281</ele>
        <time>2024-09-22T13:35:23.000Z</time>
      </trkpt>
      <trkpt lat="42.89709" lon="19.18803">
        <ele>1742.5300292969</ele>
        <time>2024-09-22T13:35:25.000Z</time>
      </trkpt>
      <trkpt lat="42.89719" lon="19.1879">
        <ele>1743.0100097656</ele>
        <time>2024-09-22T13:35:27.000Z</time>
      </trkpt>
      <trkpt lat="42.89723" lon="19.18785">
        <ele>1743.0100097656</ele>
        <time>2024-09-22T13:35:28.000Z</time>
      </trkpt>
      <trkpt lat="42.89738" lon="19.18771">
        <ele>1742.5300292969</ele>
        <time>2024-09-22T13:35:30.000Z</time>
      </trkpt>
      <trkpt lat="42.89739" lon="19.18769">
        <ele>1742.5300292969</ele>
        <time>2024-09-22T13:35:31.000Z</time>
      </trkpt>
      <trkpt lat="42.89745" lon="19.18764">
        <ele>1742.0500488281</ele>
        <time>2024-09-22T13:35:32.000Z</time>
      </trkpt>
      <trkpt lat="42.8975" lon="19.18759">
        <ele>1742.0500488281</ele>
        <time>2024-09-22T13:35:33.000Z</time>
      </trkpt>
      <trkpt lat="42.89753" lon="19.18757">
        <ele>1742.0500488281</ele>
        <time>2024-09-22T13:35:34.000Z</time>
      </trkpt>
      <trkpt lat="42.89758" lon="19.18752">
        <ele>1742.0500488281</ele>
        <time>2024-09-22T13:35:35.000Z</time>
      </trkpt>
      <trkpt lat="42.89763" lon="19.18747">
        <ele>1742.0500488281</ele>
        <time>2024-09-22T13:35:36.000Z</time>
      </trkpt>
      <trkpt lat="42.89767" lon="19.18744">
        <ele>1742.0500488281</ele>
        <time>2024-09-22T13:35:37.000Z</time>
      </trkpt>
      <trkpt lat="42.89792" lon="19.18726">
        <ele>1743.0100097656</ele>
        <time>2024-09-22T13:35:40.000Z</time>
      </trkpt>
      <trkpt lat="42.89794" lon="19.18725">
        <ele>1743.4899902344</ele>
        <time>2024-09-22T13:35:41.000Z</time>
      </trkpt>
      <trkpt lat="42.89804" lon="19.1872">
        <ele>1743.9699707031</ele>
        <time>2024-09-22T13:35:42.000Z</time>
      </trkpt>
      <trkpt lat="42.89813" lon="19.18716">
        <ele>1743.9699707031</ele>
        <time>2024-09-22T13:35:43.000Z</time>
      </trkpt>
      <trkpt lat="42.89814" lon="19.18716">
        <ele>1744.4499511719</ele>
        <time>2024-09-22T13:35:44.000Z</time>
      </trkpt>
      <trkpt lat="42.8982" lon="19.18714">
        <ele>1744.4499511719</ele>
        <time>2024-09-22T13:35:45.000Z</time>
      </trkpt>
      <trkpt lat="42.89824" lon="19.18714">
        <ele>1744.4499511719</ele>
        <time>2024-09-22T13:35:46.000Z</time>
      </trkpt>
      <trkpt lat="42.89829" lon="19.18715">
        <ele>1744.9300537109</ele>
        <time>2024-09-22T13:35:47.000Z</time>
      </trkpt>
      <trkpt lat="42.89834" lon="19.18717">
        <ele>1745.4100341797</ele>
        <time>2024-09-22T13:35:48.000Z</time>
      </trkpt>
      <trkpt lat="42.89839" lon="19.18721">
        <ele>1745.4100341797</ele>
        <time>2024-09-22T13:35:49.000Z</time>
      </trkpt>
      <trkpt lat="42.8985" lon="19.18726">
        <ele>1745.8900146484</ele>
        <time>2024-09-22T13:35:51.000Z</time>
      </trkpt>
      <trkpt lat="42.89855" lon="19.18727">
        <ele>1745.8900146484</ele>
        <time>2024-09-22T13:35:52.000Z</time>
      </trkpt>
      <trkpt lat="42.89862" lon="19.18729">
        <ele>1745.8900146484</ele>
        <time>2024-09-22T13:35:53.000Z</time>
      </trkpt>
      <trkpt lat="42.89867" lon="19.18729">
        <ele>1745.8900146484</ele>
        <time>2024-09-22T13:35:54.000Z</time>
      </trkpt>
      <trkpt lat="42.89878" lon="19.18731">
        <ele>1745.4100341797</ele>
        <time>2024-09-22T13:35:55.000Z</time>
      </trkpt>
      <trkpt lat="42.89894" lon="19.18734">
        <ele>1744.9300537109</ele>
        <time>2024-09-22T13:35:57.000Z</time>
      </trkpt>
      <trkpt lat="42.89896" lon="19.18734">
        <ele>1744.9300537109</ele>
        <time>2024-09-22T13:35:58.000Z</time>
      </trkpt>
      <trkpt lat="42.89904" lon="19.18734">
        <ele>1744.9300537109</ele>
        <time>2024-09-22T13:35:59.000Z</time>
      </trkpt>
      <trkpt lat="42.8992" lon="19.18733">
        <ele>1746.3699951172</ele>
        <time>2024-09-22T13:36:01.000Z</time>
      </trkpt>
      <trkpt lat="42.89926" lon="19.18732">
        <ele>1745.8900146484</ele>
        <time>2024-09-22T13:36:02.000Z</time>
      </trkpt>
      <trkpt lat="42.89929" lon="19.18733">
        <ele>1745.4100341797</ele>
        <time>2024-09-22T13:36:03.000Z</time>
      </trkpt>
      <trkpt lat="42.89941" lon="19.18735">
        <ele>1743.9699707031</ele>
        <time>2024-09-22T13:36:04.000Z</time>
      </trkpt>
      <trkpt lat="42.89945" lon="19.18736">
        <ele>1743.0100097656</ele>
        <time>2024-09-22T13:36:05.000Z</time>
      </trkpt>
      <trkpt lat="42.89953" lon="19.18738">
        <ele>1741.5699462891</ele>
        <time>2024-09-22T13:36:06.000Z</time>
      </trkpt>
      <trkpt lat="42.89962" lon="19.18739">
        <ele>1740.5999755859</ele>
        <time>2024-09-22T13:36:07.000Z</time>
      </trkpt>
      <trkpt lat="42.89968" lon="19.18738">
        <ele>1740.1199951172</ele>
        <time>2024-09-22T13:36:08.000Z</time>
      </trkpt>
      <trkpt lat="42.89977" lon="19.18736">
        <ele>1740.1199951172</ele>
        <time>2024-09-22T13:36:09.000Z</time>
      </trkpt>
      <trkpt lat="42.89983" lon="19.18733">
        <ele>1739.6400146484</ele>
        <time>2024-09-22T13:36:10.000Z</time>
      </trkpt>
      <trkpt lat="42.89998" lon="19.18725">
        <ele>1739.1600341797</ele>
        <time>2024-09-22T13:36:12.000Z</time>
      </trkpt>
      <trkpt lat="42.90018" lon="19.18713">
        <ele>1738.6800537109</ele>
        <time>2024-09-22T13:36:15.000Z</time>
      </trkpt>
      <trkpt lat="42.90027" lon="19.18707">
        <ele>1738.6800537109</ele>
        <time>2024-09-22T13:36:17.000Z</time>
      </trkpt>
      <trkpt lat="42.90032" lon="19.18703">
        <ele>1739.1600341797</ele>
        <time>2024-09-22T13:36:18.000Z</time>
      </trkpt>
      <trkpt lat="42.90037" lon="19.187">
        <ele>1739.6400146484</ele>
        <time>2024-09-22T13:36:19.000Z</time>
      </trkpt>
      <trkpt lat="42.90042" lon="19.18697">
        <ele>1739.6400146484</ele>
        <time>2024-09-22T13:36:20.000Z</time>
      </trkpt>
      <trkpt lat="42.90049" lon="19.18695">
        <ele>1740.1199951172</ele>
        <time>2024-09-22T13:36:21.000Z</time>
      </trkpt>
      <trkpt lat="42.90055" lon="19.18692">
        <ele>1740.5999755859</ele>
        <time>2024-09-22T13:36:22.000Z</time>
      </trkpt>
      <trkpt lat="42.9006" lon="19.18687">
        <ele>1741.5699462891</ele>
        <time>2024-09-22T13:36:23.000Z</time>
      </trkpt>
      <trkpt lat="42.90064" lon="19.18681">
        <ele>1742.0500488281</ele>
        <time>2024-09-22T13:36:24.000Z</time>
      </trkpt>
      <trkpt lat="42.90068" lon="19.1867">
        <ele>1742.5300292969</ele>
        <time>2024-09-22T13:36:25.000Z</time>
      </trkpt>
      <trkpt lat="42.9007" lon="19.18664">
        <ele>1742.5300292969</ele>
        <time>2024-09-22T13:36:26.000Z</time>
      </trkpt>
      <trkpt lat="42.90074" lon="19.18657">
        <ele>1742.0500488281</ele>
        <time>2024-09-22T13:36:27.000Z</time>
      </trkpt>
      <trkpt lat="42.90077" lon="19.18651">
        <ele>1741.5699462891</ele>
        <time>2024-09-22T13:36:28.000Z</time>
      </trkpt>
      <trkpt lat="42.90082" lon="19.18643">
        <ele>1740.5999755859</ele>
        <time>2024-09-22T13:36:29.000Z</time>
      </trkpt>
      <trkpt lat="42.90087" lon="19.18638">
        <ele>1739.1600341797</ele>
        <time>2024-09-22T13:36:30.000Z</time>
      </trkpt>
      <trkpt lat="42.90093" lon="19.18635">
        <ele>1737.7199707031</ele>
        <time>2024-09-22T13:36:31.000Z</time>
      </trkpt>
      <trkpt lat="42.901" lon="19.18633">
        <ele>1736.7600097656</ele>
        <time>2024-09-22T13:36:32.000Z</time>
      </trkpt>
      <trkpt lat="42.90108" lon="19.18633">
        <ele>1735.8000488281</ele>
        <time>2024-09-22T13:36:33.000Z</time>
      </trkpt>
      <trkpt lat="42.90113" lon="19.18634">
        <ele>1735.3199462891</ele>
        <time>2024-09-22T13:36:34.000Z</time>
      </trkpt>
      <trkpt lat="42.9012" lon="19.18637">
        <ele>1734.8399658203</ele>
        <time>2024-09-22T13:36:35.000Z</time>
      </trkpt>
      <trkpt lat="42.90125" lon="19.18642">
        <ele>1734.3599853516</ele>
        <time>2024-09-22T13:36:36.000Z</time>
      </trkpt>
      <trkpt lat="42.90128" lon="19.18647">
        <ele>1734.3599853516</ele>
        <time>2024-09-22T13:36:37.000Z</time>
      </trkpt>
      <trkpt lat="42.90132" lon="19.18653">
        <ele>1733.8800048828</ele>
        <time>2024-09-22T13:36:38.000Z</time>
      </trkpt>
      <trkpt lat="42.90134" lon="19.1866">
        <ele>1733.3900146484</ele>
        <time>2024-09-22T13:36:39.000Z</time>
      </trkpt>
      <trkpt lat="42.90135" lon="19.18667">
        <ele>1732.9100341797</ele>
        <time>2024-09-22T13:36:40.000Z</time>
      </trkpt>
      <trkpt lat="42.90135" lon="19.18676">
        <ele>1732.4300537109</ele>
        <time>2024-09-22T13:36:41.000Z</time>
      </trkpt>
      <trkpt lat="42.90134" lon="19.18684">
        <ele>1731.9499511719</ele>
        <time>2024-09-22T13:36:42.000Z</time>
      </trkpt>
      <trkpt lat="42.90133" lon="19.18693">
        <ele>1731.9499511719</ele>
        <time>2024-09-22T13:36:43.000Z</time>
      </trkpt>
      <trkpt lat="42.90133" lon="19.18702">
        <ele>1730.9899902344</ele>
        <time>2024-09-22T13:36:44.000Z</time>
      </trkpt>
      <trkpt lat="42.90134" lon="19.18711">
        <ele>1730.5100097656</ele>
        <time>2024-09-22T13:36:45.000Z</time>
      </trkpt>
      <trkpt lat="42.90138" lon="19.18727">
        <ele>1729.5500488281</ele>
        <time>2024-09-22T13:36:46.000Z</time>
      </trkpt>
      <trkpt lat="42.90139" lon="19.1873">
        <ele>1729.5500488281</ele>
        <time>2024-09-22T13:36:47.000Z</time>
      </trkpt>
      <trkpt lat="42.90143" lon="19.18738">
        <ele>1729.5500488281</ele>
        <time>2024-09-22T13:36:48.000Z</time>
      </trkpt>
      <trkpt lat="42.90148" lon="19.18744">
        <ele>1728.5899658203</ele>
        <time>2024-09-22T13:36:49.000Z</time>
      </trkpt>
      <trkpt lat="42.90162" lon="19.18756">
        <ele>1727.1500244141</ele>
        <time>2024-09-22T13:36:51.000Z</time>
      </trkpt>
      <trkpt lat="42.90166" lon="19.1876">
        <ele>1726.6700439453</ele>
        <time>2024-09-22T13:36:52.000Z</time>
      </trkpt>
      <trkpt lat="42.90178" lon="19.18771">
        <ele>1726.1800537109</ele>
        <time>2024-09-22T13:36:54.000Z</time>
      </trkpt>
      <trkpt lat="42.90184" lon="19.18777">
        <ele>1725.6999511719</ele>
        <time>2024-09-22T13:36:55.000Z</time>
      </trkpt>
      <trkpt lat="42.90189" lon="19.18786">
        <ele>1725.6999511719</ele>
        <time>2024-09-22T13:36:56.000Z</time>
      </trkpt>
      <trkpt lat="42.90198" lon="19.18805">
        <ele>1725.6999511719</ele>
        <time>2024-09-22T13:36:58.000Z</time>
      </trkpt>
      <trkpt lat="42.90212" lon="19.18827">
        <ele>1724.7399902344</ele>
        <time>2024-09-22T13:37:01.000Z</time>
      </trkpt>
      <trkpt lat="42.90216" lon="19.18832">
        <ele>1724.7399902344</ele>
        <time>2024-09-22T13:37:02.000Z</time>
      </trkpt>
      <trkpt lat="42.90226" lon="19.18843">
        <ele>1724.2600097656</ele>
        <time>2024-09-22T13:37:03.000Z</time>
      </trkpt>
      <trkpt lat="42.90228" lon="19.18846">
        <ele>1724.2600097656</ele>
        <time>2024-09-22T13:37:04.000Z</time>
      </trkpt>
      <trkpt lat="42.90234" lon="19.18853">
        <ele>1723.7800292969</ele>
        <time>2024-09-22T13:37:05.000Z</time>
      </trkpt>
      <trkpt lat="42.9024" lon="19.18864">
        <ele>1723.7800292969</ele>
        <time>2024-09-22T13:37:06.000Z</time>
      </trkpt>
      <trkpt lat="42.90244" lon="19.18873">
        <ele>1723.7800292969</ele>
        <time>2024-09-22T13:37:07.000Z</time>
      </trkpt>
      <trkpt lat="42.90248" lon="19.18883">
        <ele>1723.7800292969</ele>
        <time>2024-09-22T13:37:08.000Z</time>
      </trkpt>
      <trkpt lat="42.90253" lon="19.18892">
        <ele>1724.2600097656</ele>
        <time>2024-09-22T13:37:09.000Z</time>
      </trkpt>
      <trkpt lat="42.9026" lon="19.18902">
        <ele>1724.2600097656</ele>
        <time>2024-09-22T13:37:10.000Z</time>
      </trkpt>
      <trkpt lat="42.90265" lon="19.18909">
        <ele>1724.2600097656</ele>
        <time>2024-09-22T13:37:11.000Z</time>
      </trkpt>
      <trkpt lat="42.9027" lon="19.18919">
        <ele>1724.2600097656</ele>
        <time>2024-09-22T13:37:12.000Z</time>
      </trkpt>
      <trkpt lat="42.90277" lon="19.18935">
        <ele>1724.2600097656</ele>
        <time>2024-09-22T13:37:13.000Z</time>
      </trkpt>
      <trkpt lat="42.90282" lon="19.18947">
        <ele>1724.7399902344</ele>
        <time>2024-09-22T13:37:14.000Z</time>
      </trkpt>
      <trkpt lat="42.90283" lon="19.18949">
        <ele>1724.7399902344</ele>
        <time>2024-09-22T13:37:15.000Z</time>
      </trkpt>
      <trkpt lat="42.90288" lon="19.18958">
        <ele>1725.2199707031</ele>
        <time>2024-09-22T13:37:16.000Z</time>
      </trkpt>
      <trkpt lat="42.90293" lon="19.18965">
        <ele>1726.1800537109</ele>
        <time>2024-09-22T13:37:17.000Z</time>
      </trkpt>
      <trkpt lat="42.90299" lon="19.18971">
        <ele>1727.1500244141</ele>
        <time>2024-09-22T13:37:18.000Z</time>
      </trkpt>
      <trkpt lat="42.90302" lon="19.18975">
        <ele>1727.6300048828</ele>
        <time>2024-09-22T13:37:19.000Z</time>
      </trkpt>
      <trkpt lat="42.90304" lon="19.18979">
        <ele>1727.6300048828</ele>
        <time>2024-09-22T13:37:20.000Z</time>
      </trkpt>
      <trkpt lat="42.90304" lon="19.18986">
        <ele>1727.6300048828</ele>
        <time>2024-09-22T13:37:21.000Z</time>
      </trkpt>
      <trkpt lat="42.90303" lon="19.18991">
        <ele>1727.6300048828</ele>
        <time>2024-09-22T13:37:22.000Z</time>
      </trkpt>
      <trkpt lat="42.90302" lon="19.19">
        <ele>1727.6300048828</ele>
        <time>2024-09-22T13:37:23.000Z</time>
      </trkpt>
      <trkpt lat="42.903" lon="19.19011">
        <ele>1727.6300048828</ele>
        <time>2024-09-22T13:37:29.000Z</time>
      </trkpt>
      <trkpt lat="42.903" lon="19.19012">
        <ele>1727.6300048828</ele>
        <time>2024-09-22T13:37:33.000Z</time>
      </trkpt>
      <trkpt lat="42.903" lon="19.19017">
        <ele>1727.6300048828</ele>
        <time>2024-09-22T13:37:34.000Z</time>
      </trkpt>
      <trkpt lat="42.90301" lon="19.19026">
        <ele>1727.6300048828</ele>
        <time>2024-09-22T13:37:35.000Z</time>
      </trkpt>
      <trkpt lat="42.90301" lon="19.19031">
        <ele>1727.6300048828</ele>
        <time>2024-09-22T13:37:36.000Z</time>
      </trkpt>
      <trkpt lat="42.90302" lon="19.19038">
        <ele>1727.6300048828</ele>
        <time>2024-09-22T13:37:37.000Z</time>
      </trkpt>
      <trkpt lat="42.90302" lon="19.19049">
        <ele>1728.1099853516</ele>
        <time>2024-09-22T13:37:38.000Z</time>
      </trkpt>
      <trkpt lat="42.90302" lon="19.19061">
        <ele>1729.0699462891</ele>
        <time>2024-09-22T13:37:39.000Z</time>
      </trkpt>
      <trkpt lat="42.90302" lon="19.19068">
        <ele>1729.5500488281</ele>
        <time>2024-09-22T13:37:40.000Z</time>
      </trkpt>
      <trkpt lat="42.90301" lon="19.19079">
        <ele>1730.0300292969</ele>
        <time>2024-09-22T13:37:41.000Z</time>
      </trkpt>
      <trkpt lat="42.90299" lon="19.1909">
        <ele>1730.0300292969</ele>
        <time>2024-09-22T13:37:42.000Z</time>
      </trkpt>
      <trkpt lat="42.90295" lon="19.19102">
        <ele>1730.5100097656</ele>
        <time>2024-09-22T13:37:43.000Z</time>
      </trkpt>
      <trkpt lat="42.90282" lon="19.19139">
        <ele>1730.0300292969</ele>
        <time>2024-09-22T13:37:46.000Z</time>
      </trkpt>
      <trkpt lat="42.90279" lon="19.19149">
        <ele>1729.5500488281</ele>
        <time>2024-09-22T13:37:47.000Z</time>
      </trkpt>
      <trkpt lat="42.90276" lon="19.19162">
        <ele>1729.5500488281</ele>
        <time>2024-09-22T13:37:48.000Z</time>
      </trkpt>
      <trkpt lat="42.90274" lon="19.19174">
        <ele>1729.0699462891</ele>
        <time>2024-09-22T13:37:49.000Z</time>
      </trkpt>
      <trkpt lat="42.90269" lon="19.19189">
        <ele>1728.5899658203</ele>
        <time>2024-09-22T13:37:50.000Z</time>
      </trkpt>
      <trkpt lat="42.90263" lon="19.19204">
        <ele>1728.1099853516</ele>
        <time>2024-09-22T13:37:51.000Z</time>
      </trkpt>
      <trkpt lat="42.9026" lon="19.19215">
        <ele>1727.1500244141</ele>
        <time>2024-09-22T13:37:52.000Z</time>
      </trkpt>
      <trkpt lat="42.90254" lon="19.19244">
        <ele>1725.6999511719</ele>
        <time>2024-09-22T13:37:54.000Z</time>
      </trkpt>
      <trkpt lat="42.90253" lon="19.19253">
        <ele>1725.2199707031</ele>
        <time>2024-09-22T13:37:55.000Z</time>
      </trkpt>
      <trkpt lat="42.90253" lon="19.19264">
        <ele>1724.7399902344</ele>
        <time>2024-09-22T13:37:56.000Z</time>
      </trkpt>
      <trkpt lat="42.90254" lon="19.19275">
        <ele>1724.2600097656</ele>
        <time>2024-09-22T13:37:57.000Z</time>
      </trkpt>
      <trkpt lat="42.90256" lon="19.19286">
        <ele>1724.2600097656</ele>
        <time>2024-09-22T13:37:58.000Z</time>
      </trkpt>
      <trkpt lat="42.90255" lon="19.19295">
        <ele>1723.7800292969</ele>
        <time>2024-09-22T13:37:59.000Z</time>
      </trkpt>
      <trkpt lat="42.90251" lon="19.19304">
        <ele>1723.7800292969</ele>
        <time>2024-09-22T13:38:00.000Z</time>
      </trkpt>
      <trkpt lat="42.90247" lon="19.19312">
        <ele>1724.2600097656</ele>
        <time>2024-09-22T13:38:01.000Z</time>
      </trkpt>
      <trkpt lat="42.90243" lon="19.19323">
        <ele>1724.7399902344</ele>
        <time>2024-09-22T13:38:02.000Z</time>
      </trkpt>
      <trkpt lat="42.9024" lon="19.19336">
        <ele>1725.6999511719</ele>
        <time>2024-09-22T13:38:03.000Z</time>
      </trkpt>
      <trkpt lat="42.90235" lon="19.19356">
        <ele>1727.1500244141</ele>
        <time>2024-09-22T13:38:04.000Z</time>
      </trkpt>
      <trkpt lat="42.90234" lon="19.19368">
        <ele>1728.5899658203</ele>
        <time>2024-09-22T13:38:05.000Z</time>
      </trkpt>
      <trkpt lat="42.90233" lon="19.1938">
        <ele>1730.0300292969</ele>
        <time>2024-09-22T13:38:06.000Z</time>
      </trkpt>
      <trkpt lat="42.90232" lon="19.19387">
        <ele>1730.5100097656</ele>
        <time>2024-09-22T13:38:07.000Z</time>
      </trkpt>
      <trkpt lat="42.90231" lon="19.19401">
        <ele>1731.9499511719</ele>
        <time>2024-09-22T13:38:08.000Z</time>
      </trkpt>
      <trkpt lat="42.9023" lon="19.1941">
        <ele>1732.9100341797</ele>
        <time>2024-09-22T13:38:09.000Z</time>
      </trkpt>
      <trkpt lat="42.90226" lon="19.1942">
        <ele>1734.3599853516</ele>
        <time>2024-09-22T13:38:10.000Z</time>
      </trkpt>
      <trkpt lat="42.90221" lon="19.19428">
        <ele>1735.3199462891</ele>
        <time>2024-09-22T13:38:11.000Z</time>
      </trkpt>
      <trkpt lat="42.90214" lon="19.19435">
        <ele>1736.7600097656</ele>
        <time>2024-09-22T13:38:12.000Z</time>
      </trkpt>
      <trkpt lat="42.90207" lon="19.19439">
        <ele>1737.7199707031</ele>
        <time>2024-09-22T13:38:13.000Z</time>
      </trkpt>
      <trkpt lat="42.902" lon="19.1944">
        <ele>1738.1999511719</ele>
        <time>2024-09-22T13:38:14.000Z</time>
      </trkpt>
      <trkpt lat="42.90192" lon="19.19441">
        <ele>1738.1999511719</ele>
        <time>2024-09-22T13:38:15.000Z</time>
      </trkpt>
      <trkpt lat="42.90185" lon="19.19443">
        <ele>1737.2399902344</ele>
        <time>2024-09-22T13:38:16.000Z</time>
      </trkpt>
      <trkpt lat="42.90177" lon="19.19448">
        <ele>1737.2399902344</ele>
        <time>2024-09-22T13:38:17.000Z</time>
      </trkpt>
      <trkpt lat="42.90171" lon="19.19454">
        <ele>1737.2399902344</ele>
        <time>2024-09-22T13:38:18.000Z</time>
      </trkpt>
      <trkpt lat="42.90164" lon="19.19458">
        <ele>1737.2399902344</ele>
        <time>2024-09-22T13:38:19.000Z</time>
      </trkpt>
      <trkpt lat="42.90149" lon="19.19464">
        <ele>1737.7199707031</ele>
        <time>2024-09-22T13:38:20.000Z</time>
      </trkpt>
      <trkpt lat="42.90147" lon="19.19465">
        <ele>1737.7199707031</ele>
        <time>2024-09-22T13:38:21.000Z</time>
      </trkpt>
      <trkpt lat="42.9014" lon="19.19468">
        <ele>1737.2399902344</ele>
        <time>2024-09-22T13:38:22.000Z</time>
      </trkpt>
      <trkpt lat="42.90133" lon="19.19471">
        <ele>1737.2399902344</ele>
        <time>2024-09-22T13:38:23.000Z</time>
      </trkpt>
      <trkpt lat="42.90125" lon="19.19476">
        <ele>1736.7600097656</ele>
        <time>2024-09-22T13:38:24.000Z</time>
      </trkpt>
      <trkpt lat="42.90119" lon="19.19481">
        <ele>1736.7600097656</ele>
        <time>2024-09-22T13:38:25.000Z</time>
      </trkpt>
      <trkpt lat="42.90096" lon="19.195">
        <ele>1736.7600097656</ele>
        <time>2024-09-22T13:38:27.000Z</time>
      </trkpt>
      <trkpt lat="42.90094" lon="19.19502">
        <ele>1736.7600097656</ele>
        <time>2024-09-22T13:38:28.000Z</time>
      </trkpt>
      <trkpt lat="42.90079" lon="19.19511">
        <ele>1737.7199707031</ele>
        <time>2024-09-22T13:38:29.000Z</time>
      </trkpt>
      <trkpt lat="42.90078" lon="19.19513">
        <ele>1737.7199707031</ele>
        <time>2024-09-22T13:38:30.000Z</time>
      </trkpt>
      <trkpt lat="42.90065" lon="19.19521">
        <ele>1739.1600341797</ele>
        <time>2024-09-22T13:38:31.000Z</time>
      </trkpt>
      <trkpt lat="42.9006" lon="19.19525">
        <ele>1739.6400146484</ele>
        <time>2024-09-22T13:38:32.000Z</time>
      </trkpt>
      <trkpt lat="42.90053" lon="19.19533">
        <ele>1741.0799560547</ele>
        <time>2024-09-22T13:38:33.000Z</time>
      </trkpt>
      <trkpt lat="42.90044" lon="19.19547">
        <ele>1743.0100097656</ele>
        <time>2024-09-22T13:38:34.000Z</time>
      </trkpt>
      <trkpt lat="42.90042" lon="19.1955">
        <ele>1743.4899902344</ele>
        <time>2024-09-22T13:38:35.000Z</time>
      </trkpt>
      <trkpt lat="42.90036" lon="19.19555">
        <ele>1744.4499511719</ele>
        <time>2024-09-22T13:38:36.000Z</time>
      </trkpt>
      <trkpt lat="42.9003" lon="19.1956">
        <ele>1745.8900146484</ele>
        <time>2024-09-22T13:38:37.000Z</time>
      </trkpt>
      <trkpt lat="42.90025" lon="19.19563">
        <ele>1745.8900146484</ele>
        <time>2024-09-22T13:38:38.000Z</time>
      </trkpt>
      <trkpt lat="42.90014" lon="19.19573">
        <ele>1746.8499755859</ele>
        <time>2024-09-22T13:38:39.000Z</time>
      </trkpt>
      <trkpt lat="42.90012" lon="19.19576">
        <ele>1746.8499755859</ele>
        <time>2024-09-22T13:38:40.000Z</time>
      </trkpt>
      <trkpt lat="42.90005" lon="19.19585">
        <ele>1746.3699951172</ele>
        <time>2024-09-22T13:38:41.000Z</time>
      </trkpt>
      <trkpt lat="42.90001" lon="19.19592">
        <ele>1746.3699951172</ele>
        <time>2024-09-22T13:38:42.000Z</time>
      </trkpt>
      <trkpt lat="42.8999" lon="19.19609">
        <ele>1745.4100341797</ele>
        <time>2024-09-22T13:38:44.000Z</time>
      </trkpt>
      <trkpt lat="42.89984" lon="19.19618">
        <ele>1745.4100341797</ele>
        <time>2024-09-22T13:38:45.000Z</time>
      </trkpt>
      <trkpt lat="42.89974" lon="19.19629">
        <ele>1745.8900146484</ele>
        <time>2024-09-22T13:38:46.000Z</time>
      </trkpt>
      <trkpt lat="42.89965" lon="19.19641">
        <ele>1745.8900146484</ele>
        <time>2024-09-22T13:38:47.000Z</time>
      </trkpt>
      <trkpt lat="42.89964" lon="19.19643">
        <ele>1745.8900146484</ele>
        <time>2024-09-22T13:38:48.000Z</time>
      </trkpt>
      <trkpt lat="42.89958" lon="19.1965">
        <ele>1745.8900146484</ele>
        <time>2024-09-22T13:38:49.000Z</time>
      </trkpt>
      <trkpt lat="42.89953" lon="19.19657">
        <ele>1746.8499755859</ele>
        <time>2024-09-22T13:38:50.000Z</time>
      </trkpt>
      <trkpt lat="42.89949" lon="19.19666">
        <ele>1747.3299560547</ele>
        <time>2024-09-22T13:38:51.000Z</time>
      </trkpt>
      <trkpt lat="42.89945" lon="19.19679">
        <ele>1747.8100585938</ele>
        <time>2024-09-22T13:38:52.000Z</time>
      </trkpt>
      <trkpt lat="42.8994" lon="19.19693">
        <ele>1748.2900390625</ele>
        <time>2024-09-22T13:38:53.000Z</time>
      </trkpt>
      <trkpt lat="42.89937" lon="19.197">
        <ele>1748.7800292969</ele>
        <time>2024-09-22T13:38:54.000Z</time>
      </trkpt>
      <trkpt lat="42.89933" lon="19.19715">
        <ele>1749.2600097656</ele>
        <time>2024-09-22T13:38:55.000Z</time>
      </trkpt>
      <trkpt lat="42.89931" lon="19.19722">
        <ele>1749.2600097656</ele>
        <time>2024-09-22T13:38:56.000Z</time>
      </trkpt>
      <trkpt lat="42.89929" lon="19.19733">
        <ele>1749.7399902344</ele>
        <time>2024-09-22T13:38:57.000Z</time>
      </trkpt>
      <trkpt lat="42.8993" lon="19.19747">
        <ele>1750.2199707031</ele>
        <time>2024-09-22T13:38:58.000Z</time>
      </trkpt>
      <trkpt lat="42.89931" lon="19.19756">
        <ele>1750.6999511719</ele>
        <time>2024-09-22T13:38:59.000Z</time>
      </trkpt>
      <trkpt lat="42.89929" lon="19.1977">
        <ele>1751.1800537109</ele>
        <time>2024-09-22T13:39:00.000Z</time>
      </trkpt>
      <trkpt lat="42.89927" lon="19.19789">
        <ele>1751.6600341797</ele>
        <time>2024-09-22T13:39:01.000Z</time>
      </trkpt>
      <trkpt lat="42.89926" lon="19.19797">
        <ele>1752.1400146484</ele>
        <time>2024-09-22T13:39:02.000Z</time>
      </trkpt>
      <trkpt lat="42.89925" lon="19.19811">
        <ele>1752.1400146484</ele>
        <time>2024-09-22T13:39:03.000Z</time>
      </trkpt>
      <trkpt lat="42.89925" lon="19.19837">
        <ele>1753.0999755859</ele>
        <time>2024-09-22T13:39:04.000Z</time>
      </trkpt>
      <trkpt lat="42.89925" lon="19.19839">
        <ele>1753.5799560547</ele>
        <time>2024-09-22T13:39:05.000Z</time>
      </trkpt>
      <trkpt lat="42.89926" lon="19.19854">
        <ele>1753.5799560547</ele>
        <time>2024-09-22T13:39:06.000Z</time>
      </trkpt>
      <trkpt lat="42.89931" lon="19.19891">
        <ele>1754.5400390625</ele>
        <time>2024-09-22T13:39:08.000Z</time>
      </trkpt>
      <trkpt lat="42.89931" lon="19.19902">
        <ele>1755.0200195312</ele>
        <time>2024-09-22T13:39:09.000Z</time>
      </trkpt>
      <trkpt lat="42.89932" lon="19.19912">
        <ele>1755.0200195312</ele>
        <time>2024-09-22T13:39:10.000Z</time>
      </trkpt>
      <trkpt lat="42.89931" lon="19.19927">
        <ele>1755.5</ele>
        <time>2024-09-22T13:39:11.000Z</time>
      </trkpt>
      <trkpt lat="42.89929" lon="19.19945">
        <ele>1755.9899902344</ele>
        <time>2024-09-22T13:39:12.000Z</time>
      </trkpt>
      <trkpt lat="42.89928" lon="19.19955">
        <ele>1755.9899902344</ele>
        <time>2024-09-22T13:39:13.000Z</time>
      </trkpt>
      <trkpt lat="42.89925" lon="19.19993">
        <ele>1755.9899902344</ele>
        <time>2024-09-22T13:39:15.000Z</time>
      </trkpt>
      <trkpt lat="42.89924" lon="19.20005">
        <ele>1756.4699707031</ele>
        <time>2024-09-22T13:39:16.000Z</time>
      </trkpt>
      <trkpt lat="42.89923" lon="19.20015">
        <ele>1756.4699707031</ele>
        <time>2024-09-22T13:39:17.000Z</time>
      </trkpt>
      <trkpt lat="42.89921" lon="19.20031">
        <ele>1756.9499511719</ele>
        <time>2024-09-22T13:39:18.000Z</time>
      </trkpt>
      <trkpt lat="42.89917" lon="19.20044">
        <ele>1756.9499511719</ele>
        <time>2024-09-22T13:39:19.000Z</time>
      </trkpt>
      <trkpt lat="42.89914" lon="19.20068">
        <ele>1757.4300537109</ele>
        <time>2024-09-22T13:39:20.000Z</time>
      </trkpt>
      <trkpt lat="42.89914" lon="19.20071">
        <ele>1757.4300537109</ele>
        <time>2024-09-22T13:39:21.000Z</time>
      </trkpt>
      <trkpt lat="42.89912" lon="19.20083">
        <ele>1757.4300537109</ele>
        <time>2024-09-22T13:39:22.000Z</time>
      </trkpt>
      <trkpt lat="42.89908" lon="19.20096">
        <ele>1757.4300537109</ele>
        <time>2024-09-22T13:39:23.000Z</time>
      </trkpt>
      <trkpt lat="42.89899" lon="19.20126">
        <ele>1757.9100341797</ele>
        <time>2024-09-22T13:39:25.000Z</time>
      </trkpt>
      <trkpt lat="42.89894" lon="19.20145">
        <ele>1758.3900146484</ele>
        <time>2024-09-22T13:39:26.000Z</time>
      </trkpt>
      <trkpt lat="42.89893" lon="19.20147">
        <ele>1758.3900146484</ele>
        <time>2024-09-22T13:39:27.000Z</time>
      </trkpt>
      <trkpt lat="42.89888" lon="19.20158">
        <ele>1758.8699951172</ele>
        <time>2024-09-22T13:39:28.000Z</time>
      </trkpt>
      <trkpt lat="42.89881" lon="19.20173">
        <ele>1758.3900146484</ele>
        <time>2024-09-22T13:39:29.000Z</time>
      </trkpt>
      <trkpt lat="42.89879" lon="19.20178">
        <ele>1758.3900146484</ele>
        <time>2024-09-22T13:39:30.000Z</time>
      </trkpt>
      <trkpt lat="42.89871" lon="19.20195">
        <ele>1758.3900146484</ele>
        <time>2024-09-22T13:39:32.000Z</time>
      </trkpt>
      <trkpt lat="42.89867" lon="19.20204">
        <ele>1758.3900146484</ele>
        <time>2024-09-22T13:39:33.000Z</time>
      </trkpt>
      <trkpt lat="42.89864" lon="19.20213">
        <ele>1758.3900146484</ele>
        <time>2024-09-22T13:39:34.000Z</time>
      </trkpt>
      <trkpt lat="42.89862" lon="19.2022">
        <ele>1758.3900146484</ele>
        <time>2024-09-22T13:39:35.000Z</time>
      </trkpt>
      <trkpt lat="42.8986" lon="19.20232">
        <ele>1757.9100341797</ele>
        <time>2024-09-22T13:39:36.000Z</time>
      </trkpt>
      <trkpt lat="42.89857" lon="19.2024">
        <ele>1757.9100341797</ele>
        <time>2024-09-22T13:39:37.000Z</time>
      </trkpt>
      <trkpt lat="42.89854" lon="19.20248">
        <ele>1757.9100341797</ele>
        <time>2024-09-22T13:39:38.000Z</time>
      </trkpt>
      <trkpt lat="42.89849" lon="19.20259">
        <ele>1757.9100341797</ele>
        <time>2024-09-22T13:39:39.000Z</time>
      </trkpt>
      <trkpt lat="42.89843" lon="19.2027">
        <ele>1757.9100341797</ele>
        <time>2024-09-22T13:39:40.000Z</time>
      </trkpt>
      <trkpt lat="42.89841" lon="19.20276">
        <ele>1757.9100341797</ele>
        <time>2024-09-22T13:39:41.000Z</time>
      </trkpt>
      <trkpt lat="42.89831" lon="19.20302">
        <ele>1758.3900146484</ele>
        <time>2024-09-22T13:39:43.000Z</time>
      </trkpt>
      <trkpt lat="42.89808" lon="19.2036">
        <ele>1760.3100585938</ele>
        <time>2024-09-22T13:39:47.000Z</time>
      </trkpt>
      <trkpt lat="42.89804" lon="19.20371">
        <ele>1761.2700195312</ele>
        <time>2024-09-22T13:39:48.000Z</time>
      </trkpt>
      <trkpt lat="42.89796" lon="19.204">
        <ele>1762.7099609375</ele>
        <time>2024-09-22T13:39:50.000Z</time>
      </trkpt>
      <trkpt lat="42.89786" lon="19.20434">
        <ele>1764.6400146484</ele>
        <time>2024-09-22T13:39:52.000Z</time>
      </trkpt>
      <trkpt lat="42.89781" lon="19.20451">
        <ele>1765.1199951172</ele>
        <time>2024-09-22T13:39:53.000Z</time>
      </trkpt>
      <trkpt lat="42.89778" lon="19.20461">
        <ele>1765.5999755859</ele>
        <time>2024-09-22T13:39:54.000Z</time>
      </trkpt>
      <trkpt lat="42.89775" lon="19.20471">
        <ele>1766.0799560547</ele>
        <time>2024-09-22T13:39:55.000Z</time>
      </trkpt>
      <trkpt lat="42.8977" lon="19.20484">
        <ele>1766.5600585938</ele>
        <time>2024-09-22T13:39:56.000Z</time>
      </trkpt>
      <trkpt lat="42.89761" lon="19.20502">
        <ele>1767.5200195312</ele>
        <time>2024-09-22T13:39:57.000Z</time>
      </trkpt>
      <trkpt lat="42.8975" lon="19.20521">
        <ele>1768</ele>
        <time>2024-09-22T13:39:59.000Z</time>
      </trkpt>
      <trkpt lat="42.8974" lon="19.20537">
        <ele>1768</ele>
        <time>2024-09-22T13:40:00.000Z</time>
      </trkpt>
      <trkpt lat="42.89735" lon="19.20546">
        <ele>1768.4799804688</ele>
        <time>2024-09-22T13:40:01.000Z</time>
      </trkpt>
      <trkpt lat="42.89729" lon="19.2056">
        <ele>1768.9599609375</ele>
        <time>2024-09-22T13:40:02.000Z</time>
      </trkpt>
      <trkpt lat="42.89721" lon="19.20582">
        <ele>1770.4100341797</ele>
        <time>2024-09-22T13:40:03.000Z</time>
      </trkpt>
      <trkpt lat="42.8972" lon="19.20585">
        <ele>1770.8900146484</ele>
        <time>2024-09-22T13:40:04.000Z</time>
      </trkpt>
      <trkpt lat="42.8971" lon="19.20612">
        <ele>1772.8100585938</ele>
        <time>2024-09-22T13:40:06.000Z</time>
      </trkpt>
      <trkpt lat="42.89701" lon="19.2064">
        <ele>1775.2099609375</ele>
        <time>2024-09-22T13:40:08.000Z</time>
      </trkpt>
      <trkpt lat="42.89697" lon="19.20655">
        <ele>1776.1700439453</ele>
        <time>2024-09-22T13:40:09.000Z</time>
      </trkpt>
      <trkpt lat="42.89692" lon="19.20674">
        <ele>1777.6099853516</ele>
        <time>2024-09-22T13:40:10.000Z</time>
      </trkpt>
      <trkpt lat="42.89684" lon="19.20701">
        <ele>1780.0200195312</ele>
        <time>2024-09-22T13:40:12.000Z</time>
      </trkpt>
      <trkpt lat="42.89682" lon="19.2071">
        <ele>1780.5</ele>
        <time>2024-09-22T13:40:13.000Z</time>
      </trkpt>
      <trkpt lat="42.89676" lon="19.20728">
        <ele>1781.9399414062</ele>
        <time>2024-09-22T13:40:14.000Z</time>
      </trkpt>
      <trkpt lat="42.89672" lon="19.2074">
        <ele>1782.9000244141</ele>
        <time>2024-09-22T13:40:15.000Z</time>
      </trkpt>
      <trkpt lat="42.89668" lon="19.20752">
        <ele>1783.8599853516</ele>
        <time>2024-09-22T13:40:16.000Z</time>
      </trkpt>
      <trkpt lat="42.89665" lon="19.20759">
        <ele>1784.3399658203</ele>
        <time>2024-09-22T13:40:17.000Z</time>
      </trkpt>
      <trkpt lat="42.89661" lon="19.20771">
        <ele>1784.8199462891</ele>
        <time>2024-09-22T13:40:18.000Z</time>
      </trkpt>
      <trkpt lat="42.89659" lon="19.20783">
        <ele>1785.3100585938</ele>
        <time>2024-09-22T13:40:19.000Z</time>
      </trkpt>
      <trkpt lat="42.89657" lon="19.20804">
        <ele>1787.2299804688</ele>
        <time>2024-09-22T13:40:20.000Z</time>
      </trkpt>
      <trkpt lat="42.89657" lon="19.20809">
        <ele>1787.7099609375</ele>
        <time>2024-09-22T13:40:21.000Z</time>
      </trkpt>
      <trkpt lat="42.89657" lon="19.20836">
        <ele>1791.5500488281</ele>
        <time>2024-09-22T13:40:23.000Z</time>
      </trkpt>
      <trkpt lat="42.89656" lon="19.20851">
        <ele>1793</ele>
        <time>2024-09-22T13:40:24.000Z</time>
      </trkpt>
      <trkpt lat="42.89654" lon="19.20863">
        <ele>1793.9599609375</ele>
        <time>2024-09-22T13:40:25.000Z</time>
      </trkpt>
      <trkpt lat="42.89651" lon="19.20874">
        <ele>1795.4000244141</ele>
        <time>2024-09-22T13:40:26.000Z</time>
      </trkpt>
      <trkpt lat="42.89643" lon="19.20892">
        <ele>1797.3199462891</ele>
        <time>2024-09-22T13:40:27.000Z</time>
      </trkpt>
      <trkpt lat="42.89642" lon="19.20896">
        <ele>1797.8000488281</ele>
        <time>2024-09-22T13:40:28.000Z</time>
      </trkpt>
      <trkpt lat="42.89636" lon="19.20913">
        <ele>1799.2399902344</ele>
        <time>2024-09-22T13:40:29.000Z</time>
      </trkpt>
      <trkpt lat="42.89635" lon="19.20919">
        <ele>1799.7299804688</ele>
        <time>2024-09-22T13:40:30.000Z</time>
      </trkpt>
      <trkpt lat="42.89631" lon="19.20932">
        <ele>1800.6899414062</ele>
        <time>2024-09-22T13:40:31.000Z</time>
      </trkpt>
      <trkpt lat="42.89626" lon="19.20944">
        <ele>1801.6500244141</ele>
        <time>2024-09-22T13:40:32.000Z</time>
      </trkpt>
      <trkpt lat="42.89622" lon="19.20953">
        <ele>1802.1300048828</ele>
        <time>2024-09-22T13:40:33.000Z</time>
      </trkpt>
      <trkpt lat="42.89614" lon="19.20966">
        <ele>1803.0899658203</ele>
        <time>2024-09-22T13:40:34.000Z</time>
      </trkpt>
      <trkpt lat="42.89596" lon="19.20993">
        <ele>1803.0899658203</ele>
        <time>2024-09-22T13:40:36.000Z</time>
      </trkpt>
      <trkpt lat="42.89593" lon="19.20997">
        <ele>1803.0899658203</ele>
        <time>2024-09-22T13:40:37.000Z</time>
      </trkpt>
      <trkpt lat="42.89588" lon="19.21005">
        <ele>1803.5699462891</ele>
        <time>2024-09-22T13:40:38.000Z</time>
      </trkpt>
      <trkpt lat="42.89577" lon="19.21027">
        <ele>1804.0500488281</ele>
        <time>2024-09-22T13:40:40.000Z</time>
      </trkpt>
      <trkpt lat="42.89574" lon="19.21033">
        <ele>1804.0500488281</ele>
        <time>2024-09-22T13:40:41.000Z</time>
      </trkpt>
      <trkpt lat="42.89569" lon="19.21043">
        <ele>1804.0500488281</ele>
        <time>2024-09-22T13:40:42.000Z</time>
      </trkpt>
      <trkpt lat="42.89564" lon="19.2105">
        <ele>1804.0500488281</ele>
        <time>2024-09-22T13:40:43.000Z</time>
      </trkpt>
      <trkpt lat="42.89546" lon="19.21071">
        <ele>1803.5699462891</ele>
        <time>2024-09-22T13:40:45.000Z</time>
      </trkpt>
      <trkpt lat="42.89543" lon="19.21074">
        <ele>1804.0500488281</ele>
        <time>2024-09-22T13:40:46.000Z</time>
      </trkpt>
      <trkpt lat="42.89537" lon="19.2108">
        <ele>1804.0500488281</ele>
        <time>2024-09-22T13:40:47.000Z</time>
      </trkpt>
      <trkpt lat="42.89531" lon="19.21086">
        <ele>1804.0500488281</ele>
        <time>2024-09-22T13:40:48.000Z</time>
      </trkpt>
      <trkpt lat="42.89527" lon="19.21089">
        <ele>1804.0500488281</ele>
        <time>2024-09-22T13:40:49.000Z</time>
      </trkpt>
      <trkpt lat="42.89524" lon="19.21095">
        <ele>1803.5699462891</ele>
        <time>2024-09-22T13:40:50.000Z</time>
      </trkpt>
      <trkpt lat="42.89524" lon="19.21103">
        <ele>1803.5699462891</ele>
        <time>2024-09-22T13:40:51.000Z</time>
      </trkpt>
      <trkpt lat="42.89523" lon="19.21111">
        <ele>1803.5699462891</ele>
        <time>2024-09-22T13:40:52.000Z</time>
      </trkpt>
      <trkpt lat="42.89521" lon="19.21124">
        <ele>1803.0899658203</ele>
        <time>2024-09-22T13:40:53.000Z</time>
      </trkpt>
      <trkpt lat="42.8952" lon="19.21132">
        <ele>1803.0899658203</ele>
        <time>2024-09-22T13:40:54.000Z</time>
      </trkpt>
      <trkpt lat="42.89516" lon="19.21144">
        <ele>1803.0899658203</ele>
        <time>2024-09-22T13:40:55.000Z</time>
      </trkpt>
      <trkpt lat="42.89511" lon="19.21153">
        <ele>1803.5699462891</ele>
        <time>2024-09-22T13:40:56.000Z</time>
      </trkpt>
      <trkpt lat="42.89505" lon="19.21162">
        <ele>1803.5699462891</ele>
        <time>2024-09-22T13:40:57.000Z</time>
      </trkpt>
      <trkpt lat="42.89486" lon="19.21185">
        <ele>1804.0500488281</ele>
        <time>2024-09-22T13:41:00.000Z</time>
      </trkpt>
      <trkpt lat="42.89483" lon="19.21189">
        <ele>1803.5699462891</ele>
        <time>2024-09-22T13:41:01.000Z</time>
      </trkpt>
      <trkpt lat="42.89479" lon="19.21196">
        <ele>1803.5699462891</ele>
        <time>2024-09-22T13:41:02.000Z</time>
      </trkpt>
      <trkpt lat="42.89477" lon="19.21204">
        <ele>1803.5699462891</ele>
        <time>2024-09-22T13:41:03.000Z</time>
      </trkpt>
      <trkpt lat="42.89475" lon="19.21212">
        <ele>1803.5699462891</ele>
        <time>2024-09-22T13:41:04.000Z</time>
      </trkpt>
      <trkpt lat="42.89474" lon="19.21222">
        <ele>1803.0899658203</ele>
        <time>2024-09-22T13:41:05.000Z</time>
      </trkpt>
      <trkpt lat="42.89472" lon="19.21229">
        <ele>1802.6099853516</ele>
        <time>2024-09-22T13:41:06.000Z</time>
      </trkpt>
      <trkpt lat="42.89468" lon="19.21243">
        <ele>1801.6500244141</ele>
        <time>2024-09-22T13:41:07.000Z</time>
      </trkpt>
      <trkpt lat="42.89467" lon="19.21245">
        <ele>1801.6500244141</ele>
        <time>2024-09-22T13:41:08.000Z</time>
      </trkpt>
      <trkpt lat="42.89466" lon="19.2125">
        <ele>1800.6899414062</ele>
        <time>2024-09-22T13:41:09.000Z</time>
      </trkpt>
      <trkpt lat="42.89466" lon="19.21265">
        <ele>1798.7600097656</ele>
        <time>2024-09-22T13:41:12.000Z</time>
      </trkpt>
      <trkpt lat="42.89468" lon="19.21269">
        <ele>1797.8000488281</ele>
        <time>2024-09-22T13:41:13.000Z</time>
      </trkpt>
      <trkpt lat="42.89471" lon="19.21274">
        <ele>1796.8399658203</ele>
        <time>2024-09-22T13:41:14.000Z</time>
      </trkpt>
      <trkpt lat="42.89477" lon="19.21281">
        <ele>1795.8800048828</ele>
        <time>2024-09-22T13:41:15.000Z</time>
      </trkpt>
      <trkpt lat="42.8948" lon="19.21284">
        <ele>1794.9200439453</ele>
        <time>2024-09-22T13:41:16.000Z</time>
      </trkpt>
      <trkpt lat="42.89486" lon="19.21289">
        <ele>1793.9599609375</ele>
        <time>2024-09-22T13:41:17.000Z</time>
      </trkpt>
      <trkpt lat="42.89491" lon="19.21293">
        <ele>1793</ele>
        <time>2024-09-22T13:41:18.000Z</time>
      </trkpt>
      <trkpt lat="42.89497" lon="19.21297">
        <ele>1791.5500488281</ele>
        <time>2024-09-22T13:41:19.000Z</time>
      </trkpt>
      <trkpt lat="42.89502" lon="19.213">
        <ele>1790.5899658203</ele>
        <time>2024-09-22T13:41:20.000Z</time>
      </trkpt>
      <trkpt lat="42.89506" lon="19.21304">
        <ele>1789.1500244141</ele>
        <time>2024-09-22T13:41:21.000Z</time>
      </trkpt>
      <trkpt lat="42.8951" lon="19.21309">
        <ele>1787.7099609375</ele>
        <time>2024-09-22T13:41:22.000Z</time>
      </trkpt>
      <trkpt lat="42.89512" lon="19.21315">
        <ele>1786.75</ele>
        <time>2024-09-22T13:41:23.000Z</time>
      </trkpt>
      <trkpt lat="42.89515" lon="19.21323">
        <ele>1785.3100585938</ele>
        <time>2024-09-22T13:41:24.000Z</time>
      </trkpt>
      <trkpt lat="42.89517" lon="19.2133">
        <ele>1784.3399658203</ele>
        <time>2024-09-22T13:41:25.000Z</time>
      </trkpt>
      <trkpt lat="42.8952" lon="19.21336">
        <ele>1783.3800048828</ele>
        <time>2024-09-22T13:41:26.000Z</time>
      </trkpt>
      <trkpt lat="42.89511" lon="19.21357">
        <ele>1779.0600585938</ele>
        <time>2024-09-22T13:41:31.000Z</time>
      </trkpt>
      <trkpt lat="42.89509" lon="19.21357">
        <ele>1778.5799560547</ele>
        <time>2024-09-22T13:41:32.000Z</time>
      </trkpt>
      <trkpt lat="42.89503" lon="19.21357">
        <ele>1778.5799560547</ele>
        <time>2024-09-22T13:41:33.000Z</time>
      </trkpt>
      <trkpt lat="42.895" lon="19.21356">
        <ele>1778.5799560547</ele>
        <time>2024-09-22T13:41:34.000Z</time>
      </trkpt>
      <trkpt lat="42.89496" lon="19.21356">
        <ele>1778.5799560547</ele>
        <time>2024-09-22T13:41:35.000Z</time>
      </trkpt>
      <trkpt lat="42.89484" lon="19.21353">
        <ele>1779.5400390625</ele>
        <time>2024-09-22T13:41:42.000Z</time>
      </trkpt>
      <trkpt lat="42.89478" lon="19.21354">
        <ele>1779.5400390625</ele>
        <time>2024-09-22T13:52:41.000Z</time>
      </trkpt>
      <trkpt lat="42.89472" lon="19.21353">
        <ele>1779.5400390625</ele>
        <time>2024-09-22T13:52:42.000Z</time>
      </trkpt>
      <trkpt lat="42.89467" lon="19.21354">
        <ele>1779.5400390625</ele>
        <time>2024-09-22T13:52:43.000Z</time>
      </trkpt>
      <trkpt lat="42.89463" lon="19.21355">
        <ele>1778.5799560547</ele>
        <time>2024-09-22T13:52:44.000Z</time>
      </trkpt>
      <trkpt lat="42.89458" lon="19.21358">
        <ele>1778.0999755859</ele>
        <time>2024-09-22T13:52:45.000Z</time>
      </trkpt>
      <trkpt lat="42.89454" lon="19.21363">
        <ele>1777.1300048828</ele>
        <time>2024-09-22T13:52:46.000Z</time>
      </trkpt>
      <trkpt lat="42.89449" lon="19.2137">
        <ele>1776.6500244141</ele>
        <time>2024-09-22T13:52:47.000Z</time>
      </trkpt>
      <trkpt lat="42.89446" lon="19.21378">
        <ele>1775.6899414062</ele>
        <time>2024-09-22T13:52:48.000Z</time>
      </trkpt>
      <trkpt lat="42.89446" lon="19.21386">
        <ele>1775.2099609375</ele>
        <time>2024-09-22T13:52:49.000Z</time>
      </trkpt>
      <trkpt lat="42.89448" lon="19.21393">
        <ele>1774.7299804688</ele>
        <time>2024-09-22T13:52:50.000Z</time>
      </trkpt>
      <trkpt lat="42.89451" lon="19.21398">
        <ele>1774.25</ele>
        <time>2024-09-22T13:52:51.000Z</time>
      </trkpt>
      <trkpt lat="42.89458" lon="19.21406">
        <ele>1773.2900390625</ele>
        <time>2024-09-22T13:52:52.000Z</time>
      </trkpt>
      <trkpt lat="42.89461" lon="19.21409">
        <ele>1772.8100585938</ele>
        <time>2024-09-22T13:52:53.000Z</time>
      </trkpt>
      <trkpt lat="42.89466" lon="19.21414">
        <ele>1771.8499755859</ele>
        <time>2024-09-22T13:52:54.000Z</time>
      </trkpt>
      <trkpt lat="42.89471" lon="19.21417">
        <ele>1771.3699951172</ele>
        <time>2024-09-22T13:52:55.000Z</time>
      </trkpt>
      <trkpt lat="42.89493" lon="19.21435">
        <ele>1766.0799560547</ele>
        <time>2024-09-22T13:53:03.000Z</time>
      </trkpt>
      <trkpt lat="42.89494" lon="19.21436">
        <ele>1766.5600585938</ele>
        <time>2024-09-22T13:53:15.000Z</time>
      </trkpt>
      <trkpt lat="42.89497" lon="19.21439">
        <ele>1766.0799560547</ele>
        <time>2024-09-22T13:53:22.000Z</time>
      </trkpt>
      <trkpt lat="42.89501" lon="19.21445">
        <ele>1766.0799560547</ele>
        <time>2024-09-22T13:53:23.000Z</time>
      </trkpt>
      <trkpt lat="42.89504" lon="19.2145">
        <ele>1765.5999755859</ele>
        <time>2024-09-22T13:53:24.000Z</time>
      </trkpt>
      <trkpt lat="42.89508" lon="19.21457">
        <ele>1765.1199951172</ele>
        <time>2024-09-22T13:53:25.000Z</time>
      </trkpt>
      <trkpt lat="42.89513" lon="19.21467">
        <ele>1764.6400146484</ele>
        <time>2024-09-22T13:53:26.000Z</time>
      </trkpt>
      <trkpt lat="42.89516" lon="19.21475">
        <ele>1764.1600341797</ele>
        <time>2024-09-22T13:53:27.000Z</time>
      </trkpt>
      <trkpt lat="42.89518" lon="19.2148">
        <ele>1763.6800537109</ele>
        <time>2024-09-22T13:53:28.000Z</time>
      </trkpt>
      <trkpt lat="42.89524" lon="19.21496">
        <ele>1763.1999511719</ele>
        <time>2024-09-22T13:53:30.000Z</time>
      </trkpt>
      <trkpt lat="42.89528" lon="19.21505">
        <ele>1762.7099609375</ele>
        <time>2024-09-22T13:53:31.000Z</time>
      </trkpt>
      <trkpt lat="42.89529" lon="19.21508">
        <ele>1762.7099609375</ele>
        <time>2024-09-22T13:53:32.000Z</time>
      </trkpt>
      <trkpt lat="42.89531" lon="19.21517">
        <ele>1762.2299804688</ele>
        <time>2024-09-22T13:53:33.000Z</time>
      </trkpt>
      <trkpt lat="42.89532" lon="19.21523">
        <ele>1761.75</ele>
        <time>2024-09-22T13:53:34.000Z</time>
      </trkpt>
      <trkpt lat="42.89533" lon="19.21529">
        <ele>1761.2700195312</ele>
        <time>2024-09-22T13:53:35.000Z</time>
      </trkpt>
      <trkpt lat="42.89536" lon="19.21535">
        <ele>1760.3100585938</ele>
        <time>2024-09-22T13:53:36.000Z</time>
      </trkpt>
      <trkpt lat="42.89541" lon="19.21542">
        <ele>1759.3499755859</ele>
        <time>2024-09-22T13:53:37.000Z</time>
      </trkpt>
      <trkpt lat="42.89545" lon="19.21547">
        <ele>1758.3900146484</ele>
        <time>2024-09-22T13:53:38.000Z</time>
      </trkpt>
      <trkpt lat="42.89548" lon="19.21555">
        <ele>1757.9100341797</ele>
        <time>2024-09-22T13:53:39.000Z</time>
      </trkpt>
      <trkpt lat="42.8955" lon="19.21564">
        <ele>1756.9499511719</ele>
        <time>2024-09-22T13:53:40.000Z</time>
      </trkpt>
      <trkpt lat="42.89551" lon="19.21574">
        <ele>1756.4699707031</ele>
        <time>2024-09-22T13:53:41.000Z</time>
      </trkpt>
      <trkpt lat="42.89554" lon="19.21595">
        <ele>1755.9899902344</ele>
        <time>2024-09-22T13:53:43.000Z</time>
      </trkpt>
      <trkpt lat="42.89555" lon="19.21605">
        <ele>1755.9899902344</ele>
        <time>2024-09-22T13:53:44.000Z</time>
      </trkpt>
      <trkpt lat="42.89557" lon="19.21617">
        <ele>1756.9499511719</ele>
        <time>2024-09-22T13:53:45.000Z</time>
      </trkpt>
      <trkpt lat="42.8956" lon="19.21627">
        <ele>1757.4300537109</ele>
        <time>2024-09-22T13:53:46.000Z</time>
      </trkpt>
      <trkpt lat="42.89561" lon="19.21635">
        <ele>1757.9100341797</ele>
        <time>2024-09-22T13:53:47.000Z</time>
      </trkpt>
      <trkpt lat="42.89563" lon="19.21645">
        <ele>1758.8699951172</ele>
        <time>2024-09-22T13:53:48.000Z</time>
      </trkpt>
      <trkpt lat="42.89566" lon="19.2166">
        <ele>1759.8299560547</ele>
        <time>2024-09-22T13:53:49.000Z</time>
      </trkpt>
      <trkpt lat="42.89567" lon="19.21663">
        <ele>1759.8299560547</ele>
        <time>2024-09-22T13:53:50.000Z</time>
      </trkpt>
      <trkpt lat="42.89571" lon="19.21678">
        <ele>1760.3100585938</ele>
        <time>2024-09-22T13:53:51.000Z</time>
      </trkpt>
      <trkpt lat="42.89572" lon="19.21683">
        <ele>1760.3100585938</ele>
        <time>2024-09-22T13:53:52.000Z</time>
      </trkpt>
      <trkpt lat="42.89573" lon="19.21692">
        <ele>1761.2700195312</ele>
        <time>2024-09-22T13:53:53.000Z</time>
      </trkpt>
      <trkpt lat="42.89574" lon="19.21701">
        <ele>1761.2700195312</ele>
        <time>2024-09-22T13:53:54.000Z</time>
      </trkpt>
      <trkpt lat="42.89575" lon="19.21709">
        <ele>1762.2299804688</ele>
        <time>2024-09-22T13:53:55.000Z</time>
      </trkpt>
      <trkpt lat="42.89573" lon="19.2172">
        <ele>1762.7099609375</ele>
        <time>2024-09-22T13:53:56.000Z</time>
      </trkpt>
      <trkpt lat="42.89573" lon="19.21726">
        <ele>1763.6800537109</ele>
        <time>2024-09-22T13:53:57.000Z</time>
      </trkpt>
      <trkpt lat="42.89574" lon="19.21734">
        <ele>1764.1600341797</ele>
        <time>2024-09-22T13:53:58.000Z</time>
      </trkpt>
      <trkpt lat="42.89576" lon="19.2174">
        <ele>1764.1600341797</ele>
        <time>2024-09-22T13:53:59.000Z</time>
      </trkpt>
      <trkpt lat="42.8958" lon="19.21749">
        <ele>1764.1600341797</ele>
        <time>2024-09-22T13:54:00.000Z</time>
      </trkpt>
      <trkpt lat="42.89586" lon="19.21762">
        <ele>1764.1600341797</ele>
        <time>2024-09-22T13:54:01.000Z</time>
      </trkpt>
      <trkpt lat="42.89589" lon="19.21767">
        <ele>1763.6800537109</ele>
        <time>2024-09-22T13:54:02.000Z</time>
      </trkpt>
      <trkpt lat="42.89592" lon="19.21778">
        <ele>1763.6800537109</ele>
        <time>2024-09-22T13:54:03.000Z</time>
      </trkpt>
      <trkpt lat="42.89593" lon="19.21788">
        <ele>1763.6800537109</ele>
        <time>2024-09-22T13:54:04.000Z</time>
      </trkpt>
      <trkpt lat="42.89594" lon="19.21802">
        <ele>1763.6800537109</ele>
        <time>2024-09-22T13:54:05.000Z</time>
      </trkpt>
      <trkpt lat="42.89595" lon="19.21808">
        <ele>1763.6800537109</ele>
        <time>2024-09-22T13:54:06.000Z</time>
      </trkpt>
      <trkpt lat="42.89595" lon="19.21815">
        <ele>1764.1600341797</ele>
        <time>2024-09-22T13:54:07.000Z</time>
      </trkpt>
      <trkpt lat="42.89597" lon="19.21821">
        <ele>1764.6400146484</ele>
        <time>2024-09-22T13:54:08.000Z</time>
      </trkpt>
      <trkpt lat="42.89601" lon="19.21825">
        <ele>1764.6400146484</ele>
        <time>2024-09-22T13:54:09.000Z</time>
      </trkpt>
      <trkpt lat="42.89605" lon="19.21827">
        <ele>1765.1199951172</ele>
        <time>2024-09-22T13:54:10.000Z</time>
      </trkpt>
      <trkpt lat="42.8961" lon="19.21828">
        <ele>1765.1199951172</ele>
        <time>2024-09-22T13:54:11.000Z</time>
      </trkpt>
      <trkpt lat="42.89615" lon="19.21829">
        <ele>1764.6400146484</ele>
        <time>2024-09-22T13:54:12.000Z</time>
      </trkpt>
      <trkpt lat="42.89619" lon="19.21831">
        <ele>1764.1600341797</ele>
        <time>2024-09-22T13:54:13.000Z</time>
      </trkpt>
      <trkpt lat="42.89624" lon="19.21836">
        <ele>1763.6800537109</ele>
        <time>2024-09-22T13:54:14.000Z</time>
      </trkpt>
      <trkpt lat="42.89632" lon="19.21846">
        <ele>1762.7099609375</ele>
        <time>2024-09-22T13:54:15.000Z</time>
      </trkpt>
      <trkpt lat="42.89634" lon="19.21849">
        <ele>1762.2299804688</ele>
        <time>2024-09-22T13:54:16.000Z</time>
      </trkpt>
      <trkpt lat="42.89639" lon="19.21853">
        <ele>1761.2700195312</ele>
        <time>2024-09-22T13:54:17.000Z</time>
      </trkpt>
      <trkpt lat="42.89644" lon="19.21857">
        <ele>1760.3100585938</ele>
        <time>2024-09-22T13:54:18.000Z</time>
      </trkpt>
      <trkpt lat="42.89648" lon="19.21859">
        <ele>1759.3499755859</ele>
        <time>2024-09-22T13:54:19.000Z</time>
      </trkpt>
      <trkpt lat="42.89653" lon="19.2186">
        <ele>1758.8699951172</ele>
        <time>2024-09-22T13:54:20.000Z</time>
      </trkpt>
      <trkpt lat="42.89657" lon="19.21859">
        <ele>1757.9100341797</ele>
        <time>2024-09-22T13:54:21.000Z</time>
      </trkpt>
      <trkpt lat="42.89662" lon="19.21854">
        <ele>1757.4300537109</ele>
        <time>2024-09-22T13:54:22.000Z</time>
      </trkpt>
      <trkpt lat="42.89665" lon="19.21848">
        <ele>1756.9499511719</ele>
        <time>2024-09-22T13:54:23.000Z</time>
      </trkpt>
      <trkpt lat="42.89666" lon="19.21842">
        <ele>1756.4699707031</ele>
        <time>2024-09-22T13:54:24.000Z</time>
      </trkpt>
      <trkpt lat="42.89667" lon="19.21832">
        <ele>1755.5</ele>
        <time>2024-09-22T13:54:25.000Z</time>
      </trkpt>
      <trkpt lat="42.89667" lon="19.21826">
        <ele>1755.0200195312</ele>
        <time>2024-09-22T13:54:26.000Z</time>
      </trkpt>
      <trkpt lat="42.89669" lon="19.2182">
        <ele>1754.0600585938</ele>
        <time>2024-09-22T13:54:27.000Z</time>
      </trkpt>
      <trkpt lat="42.89673" lon="19.21815">
        <ele>1753.0999755859</ele>
        <time>2024-09-22T13:54:28.000Z</time>
      </trkpt>
      <trkpt lat="42.89678" lon="19.21812">
        <ele>1752.1400146484</ele>
        <time>2024-09-22T13:54:29.000Z</time>
      </trkpt>
      <trkpt lat="42.89689" lon="19.21809">
        <ele>1750.6999511719</ele>
        <time>2024-09-22T13:54:30.000Z</time>
      </trkpt>
      <trkpt lat="42.89696" lon="19.21808">
        <ele>1749.7399902344</ele>
        <time>2024-09-22T13:54:31.000Z</time>
      </trkpt>
      <trkpt lat="42.89702" lon="19.21806">
        <ele>1749.2600097656</ele>
        <time>2024-09-22T13:54:32.000Z</time>
      </trkpt>
      <trkpt lat="42.89708" lon="19.21805">
        <ele>1748.2900390625</ele>
        <time>2024-09-22T13:54:33.000Z</time>
      </trkpt>
      <trkpt lat="42.89714" lon="19.21802">
        <ele>1748.2900390625</ele>
        <time>2024-09-22T13:54:34.000Z</time>
      </trkpt>
      <trkpt lat="42.89718" lon="19.21798">
        <ele>1747.8100585938</ele>
        <time>2024-09-22T13:54:35.000Z</time>
      </trkpt>
      <trkpt lat="42.8972" lon="19.21794">
        <ele>1747.3299560547</ele>
        <time>2024-09-22T13:54:36.000Z</time>
      </trkpt>
      <trkpt lat="42.89722" lon="19.21788">
        <ele>1746.8499755859</ele>
        <time>2024-09-22T13:54:37.000Z</time>
      </trkpt>
      <trkpt lat="42.89723" lon="19.21771">
        <ele>1746.3699951172</ele>
        <time>2024-09-22T13:54:38.000Z</time>
      </trkpt>
      <trkpt lat="42.89725" lon="19.21754">
        <ele>1744.9300537109</ele>
        <time>2024-09-22T13:54:40.000Z</time>
      </trkpt>
      <trkpt lat="42.89727" lon="19.21734">
        <ele>1743.0100097656</ele>
        <time>2024-09-22T13:54:41.000Z</time>
      </trkpt>
      <trkpt lat="42.89728" lon="19.21723">
        <ele>1742.0500488281</ele>
        <time>2024-09-22T13:54:42.000Z</time>
      </trkpt>
      <trkpt lat="42.89728" lon="19.21714">
        <ele>1741.5699462891</ele>
        <time>2024-09-22T13:54:43.000Z</time>
      </trkpt>
      <trkpt lat="42.89728" lon="19.21703">
        <ele>1740.5999755859</ele>
        <time>2024-09-22T13:54:44.000Z</time>
      </trkpt>
      <trkpt lat="42.89727" lon="19.21689">
        <ele>1739.6400146484</ele>
        <time>2024-09-22T13:54:45.000Z</time>
      </trkpt>
      <trkpt lat="42.89727" lon="19.21679">
        <ele>1739.1600341797</ele>
        <time>2024-09-22T13:54:46.000Z</time>
      </trkpt>
      <trkpt lat="42.89728" lon="19.2167">
        <ele>1738.6800537109</ele>
        <time>2024-09-22T13:54:47.000Z</time>
      </trkpt>
      <trkpt lat="42.8973" lon="19.21663">
        <ele>1737.7199707031</ele>
        <time>2024-09-22T13:54:48.000Z</time>
      </trkpt>
      <trkpt lat="42.89733" lon="19.21659">
        <ele>1736.7600097656</ele>
        <time>2024-09-22T13:54:49.000Z</time>
      </trkpt>
      <trkpt lat="42.89737" lon="19.21657">
        <ele>1735.8000488281</ele>
        <time>2024-09-22T13:54:50.000Z</time>
      </trkpt>
      <trkpt lat="42.89742" lon="19.21657">
        <ele>1734.8399658203</ele>
        <time>2024-09-22T13:54:51.000Z</time>
      </trkpt>
      <trkpt lat="42.89749" lon="19.2166">
        <ele>1733.8800048828</ele>
        <time>2024-09-22T13:54:52.000Z</time>
      </trkpt>
      <trkpt lat="42.89758" lon="19.21663">
        <ele>1733.3900146484</ele>
        <time>2024-09-22T13:54:53.000Z</time>
      </trkpt>
      <trkpt lat="42.89767" lon="19.21667">
        <ele>1733.3900146484</ele>
        <time>2024-09-22T13:54:54.000Z</time>
      </trkpt>
      <trkpt lat="42.89771" lon="19.21669">
        <ele>1733.3900146484</ele>
        <time>2024-09-22T13:54:55.000Z</time>
      </trkpt>
      <trkpt lat="42.89781" lon="19.21672">
        <ele>1733.8800048828</ele>
        <time>2024-09-22T13:54:56.000Z</time>
      </trkpt>
      <trkpt lat="42.89788" lon="19.21674">
        <ele>1734.8399658203</ele>
        <time>2024-09-22T13:54:57.000Z</time>
      </trkpt>
      <trkpt lat="42.89799" lon="19.21674">
        <ele>1735.8000488281</ele>
        <time>2024-09-22T13:54:58.000Z</time>
      </trkpt>
      <trkpt lat="42.89806" lon="19.21673">
        <ele>1736.2800292969</ele>
        <time>2024-09-22T13:54:59.000Z</time>
      </trkpt>
      <trkpt lat="42.89814" lon="19.21671">
        <ele>1736.2800292969</ele>
        <time>2024-09-22T13:55:00.000Z</time>
      </trkpt>
      <trkpt lat="42.89819" lon="19.21666">
        <ele>1736.7600097656</ele>
        <time>2024-09-22T13:55:01.000Z</time>
      </trkpt>
      <trkpt lat="42.89825" lon="19.21655">
        <ele>1737.2399902344</ele>
        <time>2024-09-22T13:55:02.000Z</time>
      </trkpt>
      <trkpt lat="42.8983" lon="19.21646">
        <ele>1737.7199707031</ele>
        <time>2024-09-22T13:55:03.000Z</time>
      </trkpt>
      <trkpt lat="42.89834" lon="19.2164">
        <ele>1738.1999511719</ele>
        <time>2024-09-22T13:55:04.000Z</time>
      </trkpt>
      <trkpt lat="42.89839" lon="19.21633">
        <ele>1738.6800537109</ele>
        <time>2024-09-22T13:55:05.000Z</time>
      </trkpt>
      <trkpt lat="42.89855" lon="19.21616">
        <ele>1737.2399902344</ele>
        <time>2024-09-22T13:55:07.000Z</time>
      </trkpt>
      <trkpt lat="42.8986" lon="19.2161">
        <ele>1736.7600097656</ele>
        <time>2024-09-22T13:55:08.000Z</time>
      </trkpt>
      <trkpt lat="42.89863" lon="19.21607">
        <ele>1736.2800292969</ele>
        <time>2024-09-22T13:55:09.000Z</time>
      </trkpt>
      <trkpt lat="42.8987" lon="19.21602">
        <ele>1736.2800292969</ele>
        <time>2024-09-22T13:55:10.000Z</time>
      </trkpt>
      <trkpt lat="42.89877" lon="19.216">
        <ele>1735.8000488281</ele>
        <time>2024-09-22T13:55:11.000Z</time>
      </trkpt>
      <trkpt lat="42.89882" lon="19.21598">
        <ele>1735.3199462891</ele>
        <time>2024-09-22T13:55:12.000Z</time>
      </trkpt>
      <trkpt lat="42.89889" lon="19.21598">
        <ele>1734.3599853516</ele>
        <time>2024-09-22T13:55:13.000Z</time>
      </trkpt>
      <trkpt lat="42.89895" lon="19.21599">
        <ele>1733.3900146484</ele>
        <time>2024-09-22T13:55:14.000Z</time>
      </trkpt>
      <trkpt lat="42.89912" lon="19.2161">
        <ele>1730.9899902344</ele>
        <time>2024-09-22T13:55:16.000Z</time>
      </trkpt>
      <trkpt lat="42.89916" lon="19.21612">
        <ele>1730.5100097656</ele>
        <time>2024-09-22T13:55:17.000Z</time>
      </trkpt>
      <trkpt lat="42.89924" lon="19.21617">
        <ele>1729.0699462891</ele>
        <time>2024-09-22T13:55:18.000Z</time>
      </trkpt>
      <trkpt lat="42.8993" lon="19.2162">
        <ele>1727.6300048828</ele>
        <time>2024-09-22T13:55:19.000Z</time>
      </trkpt>
      <trkpt lat="42.89944" lon="19.2163">
        <ele>1724.7399902344</ele>
        <time>2024-09-22T13:55:21.000Z</time>
      </trkpt>
      <trkpt lat="42.89949" lon="19.21634">
        <ele>1723.7800292969</ele>
        <time>2024-09-22T13:55:22.000Z</time>
      </trkpt>
      <trkpt lat="42.89956" lon="19.21637">
        <ele>1722.8199462891</ele>
        <time>2024-09-22T13:55:23.000Z</time>
      </trkpt>
      <trkpt lat="42.89963" lon="19.2164">
        <ele>1720.9000244141</ele>
        <time>2024-09-22T13:55:24.000Z</time>
      </trkpt>
      <trkpt lat="42.89971" lon="19.21642">
        <ele>1719.4599609375</ele>
        <time>2024-09-22T13:55:25.000Z</time>
      </trkpt>
      <trkpt lat="42.89975" lon="19.21644">
        <ele>1718.4899902344</ele>
        <time>2024-09-22T13:55:26.000Z</time>
      </trkpt>
      <trkpt lat="42.89981" lon="19.21647">
        <ele>1717.0500488281</ele>
        <time>2024-09-22T13:55:27.000Z</time>
      </trkpt>
      <trkpt lat="42.89987" lon="19.21652">
        <ele>1715.6099853516</ele>
        <time>2024-09-22T13:55:28.000Z</time>
      </trkpt>
      <trkpt lat="42.89993" lon="19.21657">
        <ele>1714.6500244141</ele>
        <time>2024-09-22T13:55:29.000Z</time>
      </trkpt>
      <trkpt lat="42.90002" lon="19.21666">
        <ele>1712.7299804688</ele>
        <time>2024-09-22T13:55:30.000Z</time>
      </trkpt>
      <trkpt lat="42.90005" lon="19.21669">
        <ele>1711.7600097656</ele>
        <time>2024-09-22T13:55:31.000Z</time>
      </trkpt>
      <trkpt lat="42.90011" lon="19.21674">
        <ele>1710.8000488281</ele>
        <time>2024-09-22T13:55:32.000Z</time>
      </trkpt>
      <trkpt lat="42.90017" lon="19.21679">
        <ele>1709.3599853516</ele>
        <time>2024-09-22T13:55:33.000Z</time>
      </trkpt>
      <trkpt lat="42.90026" lon="19.21686">
        <ele>1707.4399414062</ele>
        <time>2024-09-22T13:55:34.000Z</time>
      </trkpt>
      <trkpt lat="42.90031" lon="19.2169">
        <ele>1706.4799804688</ele>
        <time>2024-09-22T13:55:35.000Z</time>
      </trkpt>
      <trkpt lat="42.90038" lon="19.21695">
        <ele>1705.5200195312</ele>
        <time>2024-09-22T13:55:36.000Z</time>
      </trkpt>
      <trkpt lat="42.90043" lon="19.21701">
        <ele>1704.0699462891</ele>
        <time>2024-09-22T13:55:37.000Z</time>
      </trkpt>
      <trkpt lat="42.90049" lon="19.2171">
        <ele>1702.6300048828</ele>
        <time>2024-09-22T13:55:38.000Z</time>
      </trkpt>
      <trkpt lat="42.90053" lon="19.21715">
        <ele>1702.1500244141</ele>
        <time>2024-09-22T13:55:39.000Z</time>
      </trkpt>
      <trkpt lat="42.90061" lon="19.21721">
        <ele>1700.7099609375</ele>
        <time>2024-09-22T13:55:40.000Z</time>
      </trkpt>
      <trkpt lat="42.90068" lon="19.21727">
        <ele>1699.2700195312</ele>
        <time>2024-09-22T13:55:41.000Z</time>
      </trkpt>
      <trkpt lat="42.90074" lon="19.21732">
        <ele>1698.3100585938</ele>
        <time>2024-09-22T13:55:42.000Z</time>
      </trkpt>
      <trkpt lat="42.90081" lon="19.21737">
        <ele>1697.3399658203</ele>
        <time>2024-09-22T13:55:43.000Z</time>
      </trkpt>
      <trkpt lat="42.90089" lon="19.21745">
        <ele>1695.9000244141</ele>
        <time>2024-09-22T13:55:44.000Z</time>
      </trkpt>
      <trkpt lat="42.90094" lon="19.21751">
        <ele>1694.9399414062</ele>
        <time>2024-09-22T13:55:45.000Z</time>
      </trkpt>
      <trkpt lat="42.90104" lon="19.21764">
        <ele>1693.0200195312</ele>
        <time>2024-09-22T13:55:46.000Z</time>
      </trkpt>
      <trkpt lat="42.90108" lon="19.21769">
        <ele>1692.0600585938</ele>
        <time>2024-09-22T13:55:47.000Z</time>
      </trkpt>
      <trkpt lat="42.90114" lon="19.21773">
        <ele>1691.5799560547</ele>
        <time>2024-09-22T13:55:48.000Z</time>
      </trkpt>
      <trkpt lat="42.90122" lon="19.21777">
        <ele>1690.1400146484</ele>
        <time>2024-09-22T13:55:49.000Z</time>
      </trkpt>
      <trkpt lat="42.90132" lon="19.21781">
        <ele>1688.6899414062</ele>
        <time>2024-09-22T13:55:50.000Z</time>
      </trkpt>
      <trkpt lat="42.90137" lon="19.21784">
        <ele>1687.7299804688</ele>
        <time>2024-09-22T13:55:51.000Z</time>
      </trkpt>
      <trkpt lat="42.90143" lon="19.21787">
        <ele>1687.25</ele>
        <time>2024-09-22T13:55:52.000Z</time>
      </trkpt>
      <trkpt lat="42.90149" lon="19.21791">
        <ele>1685.8100585938</ele>
        <time>2024-09-22T13:55:53.000Z</time>
      </trkpt>
      <trkpt lat="42.90154" lon="19.21796">
        <ele>1684.8499755859</ele>
        <time>2024-09-22T13:55:54.000Z</time>
      </trkpt>
      <trkpt lat="42.90157" lon="19.21803">
        <ele>1684.3699951172</ele>
        <time>2024-09-22T13:55:55.000Z</time>
      </trkpt>
      <trkpt lat="42.90161" lon="19.21818">
        <ele>1683.4100341797</ele>
        <time>2024-09-22T13:55:56.000Z</time>
      </trkpt>
      <trkpt lat="42.90163" lon="19.21823">
        <ele>1682.9300537109</ele>
        <time>2024-09-22T13:55:57.000Z</time>
      </trkpt>
      <trkpt lat="42.90168" lon="19.21835">
        <ele>1681.4799804688</ele>
        <time>2024-09-22T13:55:58.000Z</time>
      </trkpt>
      <trkpt lat="42.90172" lon="19.21844">
        <ele>1680.0400390625</ele>
        <time>2024-09-22T13:55:59.000Z</time>
      </trkpt>
      <trkpt lat="42.90176" lon="19.21857">
        <ele>1679.0799560547</ele>
        <time>2024-09-22T13:56:00.000Z</time>
      </trkpt>
      <trkpt lat="42.9018" lon="19.21866">
        <ele>1679.0799560547</ele>
        <time>2024-09-22T13:56:01.000Z</time>
      </trkpt>
      <trkpt lat="42.90186" lon="19.21876">
        <ele>1679.0799560547</ele>
        <time>2024-09-22T13:56:02.000Z</time>
      </trkpt>
      <trkpt lat="42.90199" lon="19.21895">
        <ele>1678.1199951172</ele>
        <time>2024-09-22T13:56:04.000Z</time>
      </trkpt>
      <trkpt lat="42.90208" lon="19.21908">
        <ele>1676.6800537109</ele>
        <time>2024-09-22T13:56:05.000Z</time>
      </trkpt>
      <trkpt lat="42.90211" lon="19.21913">
        <ele>1676.1999511719</ele>
        <time>2024-09-22T13:56:06.000Z</time>
      </trkpt>
      <trkpt lat="42.90218" lon="19.21928">
        <ele>1675.2299804688</ele>
        <time>2024-09-22T13:56:07.000Z</time>
      </trkpt>
      <trkpt lat="42.90227" lon="19.21947">
        <ele>1672.8299560547</ele>
        <time>2024-09-22T13:56:09.000Z</time>
      </trkpt>
      <trkpt lat="42.90231" lon="19.21955">
        <ele>1672.3499755859</ele>
        <time>2024-09-22T13:56:10.000Z</time>
      </trkpt>
      <trkpt lat="42.90236" lon="19.21963">
        <ele>1671.3900146484</ele>
        <time>2024-09-22T13:56:11.000Z</time>
      </trkpt>
      <trkpt lat="42.90244" lon="19.21972">
        <ele>1670.4300537109</ele>
        <time>2024-09-22T13:56:12.000Z</time>
      </trkpt>
      <trkpt lat="42.9026" lon="19.21987">
        <ele>1668.9899902344</ele>
        <time>2024-09-22T13:56:13.000Z</time>
      </trkpt>
      <trkpt lat="42.90266" lon="19.21991">
        <ele>1668.5100097656</ele>
        <time>2024-09-22T13:56:14.000Z</time>
      </trkpt>
      <trkpt lat="42.90272" lon="19.21996">
        <ele>1668.5100097656</ele>
        <time>2024-09-22T13:56:15.000Z</time>
      </trkpt>
      <trkpt lat="42.90292" lon="19.22007">
        <ele>1667.5400390625</ele>
        <time>2024-09-22T13:56:16.000Z</time>
      </trkpt>
      <trkpt lat="42.903" lon="19.22012">
        <ele>1667.0600585938</ele>
        <time>2024-09-22T13:56:17.000Z</time>
      </trkpt>
      <trkpt lat="42.90316" lon="19.2202">
        <ele>1666.0999755859</ele>
        <time>2024-09-22T13:56:19.000Z</time>
      </trkpt>
      <trkpt lat="42.90325" lon="19.22025">
        <ele>1665.1400146484</ele>
        <time>2024-09-22T13:56:20.000Z</time>
      </trkpt>
      <trkpt lat="42.90339" lon="19.22035">
        <ele>1664.1800537109</ele>
        <time>2024-09-22T13:56:21.000Z</time>
      </trkpt>
      <trkpt lat="42.90354" lon="19.22046">
        <ele>1662.7399902344</ele>
        <time>2024-09-22T13:56:23.000Z</time>
      </trkpt>
      <trkpt lat="42.90357" lon="19.22048">
        <ele>1662.2600097656</ele>
        <time>2024-09-22T13:56:24.000Z</time>
      </trkpt>
      <trkpt lat="42.90367" lon="19.22055">
        <ele>1661.3000488281</ele>
        <time>2024-09-22T13:56:25.000Z</time>
      </trkpt>
      <trkpt lat="42.90369" lon="19.22056">
        <ele>1661.3000488281</ele>
        <time>2024-09-22T13:56:26.000Z</time>
      </trkpt>
      <trkpt lat="42.90384" lon="19.22073">
        <ele>1659.3699951172</ele>
        <time>2024-09-22T13:56:33.000Z</time>
      </trkpt>
      <trkpt lat="42.90384" lon="19.22073">
        <ele>1659.3699951172</ele>
        <time>2024-09-22T13:57:09.000Z</time>
      </trkpt>
      <trkpt lat="42.90384" lon="19.22076">
        <ele>1658.8900146484</ele>
        <time>2024-09-22T14:02:45.000Z</time>
      </trkpt>
      <trkpt lat="42.90383" lon="19.22086">
        <ele>1658.4100341797</ele>
        <time>2024-09-22T14:03:03.000Z</time>
      </trkpt>
      <trkpt lat="42.90382" lon="19.22091">
        <ele>1657.9300537109</ele>
        <time>2024-09-22T14:03:04.000Z</time>
      </trkpt>
      <trkpt lat="42.90381" lon="19.22095">
        <ele>1657.4499511719</ele>
        <time>2024-09-22T14:03:05.000Z</time>
      </trkpt>
      <trkpt lat="42.90381" lon="19.22102">
        <ele>1656.4899902344</ele>
        <time>2024-09-22T14:03:06.000Z</time>
      </trkpt>
      <trkpt lat="42.90381" lon="19.2211">
        <ele>1656.0100097656</ele>
        <time>2024-09-22T14:03:07.000Z</time>
      </trkpt>
      <trkpt lat="42.90382" lon="19.22118">
        <ele>1655.5300292969</ele>
        <time>2024-09-22T14:03:08.000Z</time>
      </trkpt>
      <trkpt lat="42.90392" lon="19.22154">
        <ele>1654.5699462891</ele>
        <time>2024-09-22T14:03:11.000Z</time>
      </trkpt>
      <trkpt lat="42.90395" lon="19.22165">
        <ele>1655.5300292969</ele>
        <time>2024-09-22T14:03:12.000Z</time>
      </trkpt>
      <trkpt lat="42.90396" lon="19.22172">
        <ele>1656.4899902344</ele>
        <time>2024-09-22T14:03:13.000Z</time>
      </trkpt>
      <trkpt lat="42.90396" lon="19.22181">
        <ele>1657.4499511719</ele>
        <time>2024-09-22T14:03:14.000Z</time>
      </trkpt>
      <trkpt lat="42.90396" lon="19.2219">
        <ele>1657.9300537109</ele>
        <time>2024-09-22T14:03:15.000Z</time>
      </trkpt>
      <trkpt lat="42.90396" lon="19.222">
        <ele>1658.4100341797</ele>
        <time>2024-09-22T14:03:16.000Z</time>
      </trkpt>
      <trkpt lat="42.90398" lon="19.2221">
        <ele>1658.8900146484</ele>
        <time>2024-09-22T14:03:17.000Z</time>
      </trkpt>
      <trkpt lat="42.90401" lon="19.22221">
        <ele>1659.8499755859</ele>
        <time>2024-09-22T14:03:18.000Z</time>
      </trkpt>
      <trkpt lat="42.90402" lon="19.22229">
        <ele>1660.3299560547</ele>
        <time>2024-09-22T14:03:19.000Z</time>
      </trkpt>
      <trkpt lat="42.90403" lon="19.22239">
        <ele>1660.3299560547</ele>
        <time>2024-09-22T14:03:20.000Z</time>
      </trkpt>
      <trkpt lat="42.90403" lon="19.2225">
        <ele>1660.8100585938</ele>
        <time>2024-09-22T14:03:21.000Z</time>
      </trkpt>
      <trkpt lat="42.90403" lon="19.2226">
        <ele>1660.8100585938</ele>
        <time>2024-09-22T14:03:22.000Z</time>
      </trkpt>
      <trkpt lat="42.90404" lon="19.22268">
        <ele>1660.8100585938</ele>
        <time>2024-09-22T14:03:23.000Z</time>
      </trkpt>
      <trkpt lat="42.90405" lon="19.22279">
        <ele>1660.8100585938</ele>
        <time>2024-09-22T14:03:24.000Z</time>
      </trkpt>
      <trkpt lat="42.90406" lon="19.22284">
        <ele>1660.8100585938</ele>
        <time>2024-09-22T14:03:25.000Z</time>
      </trkpt>
      <trkpt lat="42.90407" lon="19.22293">
        <ele>1660.8100585938</ele>
        <time>2024-09-22T14:03:26.000Z</time>
      </trkpt>
      <trkpt lat="42.90407" lon="19.22297">
        <ele>1660.3299560547</ele>
        <time>2024-09-22T14:03:27.000Z</time>
      </trkpt>
      <trkpt lat="42.90408" lon="19.22305">
        <ele>1660.3299560547</ele>
        <time>2024-09-22T14:03:28.000Z</time>
      </trkpt>
      <trkpt lat="42.90411" lon="19.22312">
        <ele>1660.3299560547</ele>
        <time>2024-09-22T14:03:29.000Z</time>
      </trkpt>
      <trkpt lat="42.90415" lon="19.22323">
        <ele>1660.3299560547</ele>
        <time>2024-09-22T14:03:30.000Z</time>
      </trkpt>
      <trkpt lat="42.9042" lon="19.22335">
        <ele>1660.3299560547</ele>
        <time>2024-09-22T14:03:31.000Z</time>
      </trkpt>
      <trkpt lat="42.90421" lon="19.22338">
        <ele>1660.8100585938</ele>
        <time>2024-09-22T14:03:32.000Z</time>
      </trkpt>
      <trkpt lat="42.90425" lon="19.22346">
        <ele>1660.8100585938</ele>
        <time>2024-09-22T14:03:33.000Z</time>
      </trkpt>
      <trkpt lat="42.90432" lon="19.22357">
        <ele>1661.7800292969</ele>
        <time>2024-09-22T14:03:34.000Z</time>
      </trkpt>
      <trkpt lat="42.90435" lon="19.22363">
        <ele>1661.7800292969</ele>
        <time>2024-09-22T14:03:36.000Z</time>
      </trkpt>
      <trkpt lat="42.90444" lon="19.22375">
        <ele>1663.2199707031</ele>
        <time>2024-09-22T14:03:39.000Z</time>
      </trkpt>
      <trkpt lat="42.90445" lon="19.22377">
        <ele>1663.2199707031</ele>
        <time>2024-09-22T14:03:40.000Z</time>
      </trkpt>
      <trkpt lat="42.90447" lon="19.22381">
        <ele>1663.2199707031</ele>
        <time>2024-09-22T14:03:41.000Z</time>
      </trkpt>
      <trkpt lat="42.90451" lon="19.22387">
        <ele>1663.6999511719</ele>
        <time>2024-09-22T14:03:42.000Z</time>
      </trkpt>
      <trkpt lat="42.90455" lon="19.22396">
        <ele>1664.1800537109</ele>
        <time>2024-09-22T14:03:43.000Z</time>
      </trkpt>
      <trkpt lat="42.90458" lon="19.22408">
        <ele>1664.1800537109</ele>
        <time>2024-09-22T14:03:44.000Z</time>
      </trkpt>
      <trkpt lat="42.90462" lon="19.22419">
        <ele>1664.6600341797</ele>
        <time>2024-09-22T14:03:45.000Z</time>
      </trkpt>
      <trkpt lat="42.90466" lon="19.22434">
        <ele>1664.6600341797</ele>
        <time>2024-09-22T14:03:46.000Z</time>
      </trkpt>
      <trkpt lat="42.9047" lon="19.22451">
        <ele>1665.1400146484</ele>
        <time>2024-09-22T14:03:48.000Z</time>
      </trkpt>
      <trkpt lat="42.90472" lon="19.2246">
        <ele>1665.1400146484</ele>
        <time>2024-09-22T14:03:49.000Z</time>
      </trkpt>
      <trkpt lat="42.90473" lon="19.22468">
        <ele>1665.6199951172</ele>
        <time>2024-09-22T14:03:50.000Z</time>
      </trkpt>
      <trkpt lat="42.90472" lon="19.22476">
        <ele>1665.6199951172</ele>
        <time>2024-09-22T14:03:51.000Z</time>
      </trkpt>
      <trkpt lat="42.9047" lon="19.22485">
        <ele>1665.6199951172</ele>
        <time>2024-09-22T14:03:52.000Z</time>
      </trkpt>
      <trkpt lat="42.90468" lon="19.22494">
        <ele>1665.6199951172</ele>
        <time>2024-09-22T14:03:53.000Z</time>
      </trkpt>
      <trkpt lat="42.90464" lon="19.22506">
        <ele>1665.6199951172</ele>
        <time>2024-09-22T14:03:54.000Z</time>
      </trkpt>
      <trkpt lat="42.90459" lon="19.22517">
        <ele>1666.0999755859</ele>
        <time>2024-09-22T14:03:55.000Z</time>
      </trkpt>
      <trkpt lat="42.90454" lon="19.22527">
        <ele>1666.5799560547</ele>
        <time>2024-09-22T14:03:56.000Z</time>
      </trkpt>
      <trkpt lat="42.90449" lon="19.22536">
        <ele>1667.0600585938</ele>
        <time>2024-09-22T14:03:57.000Z</time>
      </trkpt>
      <trkpt lat="42.90447" lon="19.22544">
        <ele>1667.5400390625</ele>
        <time>2024-09-22T14:03:58.000Z</time>
      </trkpt>
      <trkpt lat="42.90447" lon="19.22552">
        <ele>1667.0600585938</ele>
        <time>2024-09-22T14:03:59.000Z</time>
      </trkpt>
      <trkpt lat="42.90447" lon="19.22562">
        <ele>1666.5799560547</ele>
        <time>2024-09-22T14:04:00.000Z</time>
      </trkpt>
      <trkpt lat="42.90447" lon="19.22572">
        <ele>1666.0999755859</ele>
        <time>2024-09-22T14:04:01.000Z</time>
      </trkpt>
      <trkpt lat="42.90444" lon="19.22582">
        <ele>1666.0999755859</ele>
        <time>2024-09-22T14:04:02.000Z</time>
      </trkpt>
      <trkpt lat="42.9044" lon="19.2259">
        <ele>1665.6199951172</ele>
        <time>2024-09-22T14:04:03.000Z</time>
      </trkpt>
      <trkpt lat="42.90431" lon="19.22604">
        <ele>1665.6199951172</ele>
        <time>2024-09-22T14:04:04.000Z</time>
      </trkpt>
      <trkpt lat="42.90426" lon="19.2261">
        <ele>1665.6199951172</ele>
        <time>2024-09-22T14:04:05.000Z</time>
      </trkpt>
      <trkpt lat="42.90412" lon="19.22627">
        <ele>1665.1400146484</ele>
        <time>2024-09-22T14:04:07.000Z</time>
      </trkpt>
      <trkpt lat="42.90407" lon="19.22632">
        <ele>1665.1400146484</ele>
        <time>2024-09-22T14:04:08.000Z</time>
      </trkpt>
      <trkpt lat="42.90397" lon="19.22641">
        <ele>1664.6600341797</ele>
        <time>2024-09-22T14:04:09.000Z</time>
      </trkpt>
      <trkpt lat="42.90385" lon="19.2265">
        <ele>1664.1800537109</ele>
        <time>2024-09-22T14:04:10.000Z</time>
      </trkpt>
      <trkpt lat="42.90381" lon="19.22654">
        <ele>1663.6999511719</ele>
        <time>2024-09-22T14:04:11.000Z</time>
      </trkpt>
      <trkpt lat="42.90376" lon="19.22661">
        <ele>1662.7399902344</ele>
        <time>2024-09-22T14:04:12.000Z</time>
      </trkpt>
      <trkpt lat="42.90374" lon="19.22669">
        <ele>1662.7399902344</ele>
        <time>2024-09-22T14:04:13.000Z</time>
      </trkpt>
      <trkpt lat="42.90374" lon="19.22678">
        <ele>1662.2600097656</ele>
        <time>2024-09-22T14:04:14.000Z</time>
      </trkpt>
      <trkpt lat="42.90376" lon="19.22696">
        <ele>1662.7399902344</ele>
        <time>2024-09-22T14:04:15.000Z</time>
      </trkpt>
      <trkpt lat="42.90377" lon="19.227">
        <ele>1662.7399902344</ele>
        <time>2024-09-22T14:04:16.000Z</time>
      </trkpt>
      <trkpt lat="42.90378" lon="19.22709">
        <ele>1663.2199707031</ele>
        <time>2024-09-22T14:04:17.000Z</time>
      </trkpt>
      <trkpt lat="42.90377" lon="19.22718">
        <ele>1664.1800537109</ele>
        <time>2024-09-22T14:04:18.000Z</time>
      </trkpt>
      <trkpt lat="42.90374" lon="19.22724">
        <ele>1664.1800537109</ele>
        <time>2024-09-22T14:04:19.000Z</time>
      </trkpt>
      <trkpt lat="42.90369" lon="19.2273">
        <ele>1664.6600341797</ele>
        <time>2024-09-22T14:04:20.000Z</time>
      </trkpt>
      <trkpt lat="42.90359" lon="19.22738">
        <ele>1664.6600341797</ele>
        <time>2024-09-22T14:04:21.000Z</time>
      </trkpt>
      <trkpt lat="42.90354" lon="19.22742">
        <ele>1664.6600341797</ele>
        <time>2024-09-22T14:04:22.000Z</time>
      </trkpt>
      <trkpt lat="42.90349" lon="19.22748">
        <ele>1664.6600341797</ele>
        <time>2024-09-22T14:04:23.000Z</time>
      </trkpt>
      <trkpt lat="42.90344" lon="19.22753">
        <ele>1664.6600341797</ele>
        <time>2024-09-22T14:04:24.000Z</time>
      </trkpt>
      <trkpt lat="42.90342" lon="19.22759">
        <ele>1664.6600341797</ele>
        <time>2024-09-22T14:04:25.000Z</time>
      </trkpt>
      <trkpt lat="42.90343" lon="19.22766">
        <ele>1664.6600341797</ele>
        <time>2024-09-22T14:04:26.000Z</time>
      </trkpt>
      <trkpt lat="42.90345" lon="19.22773">
        <ele>1665.1400146484</ele>
        <time>2024-09-22T14:04:27.000Z</time>
      </trkpt>
      <trkpt lat="42.90347" lon="19.22783">
        <ele>1665.1400146484</ele>
        <time>2024-09-22T14:04:28.000Z</time>
      </trkpt>
      <trkpt lat="42.90349" lon="19.22796">
        <ele>1665.1400146484</ele>
        <time>2024-09-22T14:04:29.000Z</time>
      </trkpt>
      <trkpt lat="42.90351" lon="19.22808">
        <ele>1665.6199951172</ele>
        <time>2024-09-22T14:04:30.000Z</time>
      </trkpt>
      <trkpt lat="42.90354" lon="19.22831">
        <ele>1666.0999755859</ele>
        <time>2024-09-22T14:04:32.000Z</time>
      </trkpt>
      <trkpt lat="42.90359" lon="19.22858">
        <ele>1666.5799560547</ele>
        <time>2024-09-22T14:04:34.000Z</time>
      </trkpt>
      <trkpt lat="42.90362" lon="19.22869">
        <ele>1666.5799560547</ele>
        <time>2024-09-22T14:04:35.000Z</time>
      </trkpt>
      <trkpt lat="42.90367" lon="19.22878">
        <ele>1666.5799560547</ele>
        <time>2024-09-22T14:04:36.000Z</time>
      </trkpt>
      <trkpt lat="42.90374" lon="19.22886">
        <ele>1667.5400390625</ele>
        <time>2024-09-22T14:04:37.000Z</time>
      </trkpt>
      <trkpt lat="42.90384" lon="19.22895">
        <ele>1667.5400390625</ele>
        <time>2024-09-22T14:04:38.000Z</time>
      </trkpt>
      <trkpt lat="42.90395" lon="19.22905">
        <ele>1667.5400390625</ele>
        <time>2024-09-22T14:04:39.000Z</time>
      </trkpt>
      <trkpt lat="42.90403" lon="19.22916">
        <ele>1668.5100097656</ele>
        <time>2024-09-22T14:04:40.000Z</time>
      </trkpt>
      <trkpt lat="42.90409" lon="19.22924">
        <ele>1668.9899902344</ele>
        <time>2024-09-22T14:04:41.000Z</time>
      </trkpt>
      <trkpt lat="42.90431" lon="19.22956">
        <ele>1670.4300537109</ele>
        <time>2024-09-22T14:04:44.000Z</time>
      </trkpt>
      <trkpt lat="42.90436" lon="19.22964">
        <ele>1670.9100341797</ele>
        <time>2024-09-22T14:04:45.000Z</time>
      </trkpt>
      <trkpt lat="42.90446" lon="19.22974">
        <ele>1671.3900146484</ele>
        <time>2024-09-22T14:04:46.000Z</time>
      </trkpt>
      <trkpt lat="42.90447" lon="19.22975">
        <ele>1670.9100341797</ele>
        <time>2024-09-22T14:04:47.000Z</time>
      </trkpt>
      <trkpt lat="42.90451" lon="19.22982">
        <ele>1669.9499511719</ele>
        <time>2024-09-22T14:04:48.000Z</time>
      </trkpt>
      <trkpt lat="42.90455" lon="19.22991">
        <ele>1669.4699707031</ele>
        <time>2024-09-22T14:04:49.000Z</time>
      </trkpt>
      <trkpt lat="42.90457" lon="19.23">
        <ele>1669.4699707031</ele>
        <time>2024-09-22T14:04:50.000Z</time>
      </trkpt>
      <trkpt lat="42.90458" lon="19.23009">
        <ele>1670.4300537109</ele>
        <time>2024-09-22T14:04:51.000Z</time>
      </trkpt>
      <trkpt lat="42.90457" lon="19.23017">
        <ele>1670.9100341797</ele>
        <time>2024-09-22T14:04:52.000Z</time>
      </trkpt>
      <trkpt lat="42.90455" lon="19.23024">
        <ele>1670.4300537109</ele>
        <time>2024-09-22T14:04:53.000Z</time>
      </trkpt>
      <trkpt lat="42.90453" lon="19.2303">
        <ele>1669.9499511719</ele>
        <time>2024-09-22T14:04:54.000Z</time>
      </trkpt>
      <trkpt lat="42.90446" lon="19.23041">
        <ele>1668.9899902344</ele>
        <time>2024-09-22T14:04:55.000Z</time>
      </trkpt>
      <trkpt lat="42.90441" lon="19.23049">
        <ele>1668.5100097656</ele>
        <time>2024-09-22T14:04:56.000Z</time>
      </trkpt>
      <trkpt lat="42.9044" lon="19.23051">
        <ele>1668.5100097656</ele>
        <time>2024-09-22T14:04:57.000Z</time>
      </trkpt>
      <trkpt lat="42.90431" lon="19.23068">
        <ele>1667.0600585938</ele>
        <time>2024-09-22T14:04:59.000Z</time>
      </trkpt>
      <trkpt lat="42.90425" lon="19.23077">
        <ele>1666.0999755859</ele>
        <time>2024-09-22T14:05:00.000Z</time>
      </trkpt>
      <trkpt lat="42.90419" lon="19.23085">
        <ele>1665.1400146484</ele>
        <time>2024-09-22T14:05:01.000Z</time>
      </trkpt>
      <trkpt lat="42.90417" lon="19.23088">
        <ele>1664.6600341797</ele>
        <time>2024-09-22T14:05:02.000Z</time>
      </trkpt>
      <trkpt lat="42.90422" lon="19.23101">
        <ele>1662.7399902344</ele>
        <time>2024-09-22T14:05:06.000Z</time>
      </trkpt>
      <trkpt lat="42.90426" lon="19.23101">
        <ele>1662.2600097656</ele>
        <time>2024-09-22T14:05:07.000Z</time>
      </trkpt>
      <trkpt lat="42.90432" lon="19.23101">
        <ele>1661.3000488281</ele>
        <time>2024-09-22T14:05:08.000Z</time>
      </trkpt>
      <trkpt lat="42.90437" lon="19.23102">
        <ele>1660.3299560547</ele>
        <time>2024-09-22T14:05:09.000Z</time>
      </trkpt>
      <trkpt lat="42.90442" lon="19.23104">
        <ele>1659.3699951172</ele>
        <time>2024-09-22T14:05:10.000Z</time>
      </trkpt>
      <trkpt lat="42.90443" lon="19.2312">
        <ele>1656.0100097656</ele>
        <time>2024-09-22T14:05:13.000Z</time>
      </trkpt>
      <trkpt lat="42.90442" lon="19.23121">
        <ele>1655.5300292969</ele>
        <time>2024-09-22T14:05:14.000Z</time>
      </trkpt>
      <trkpt lat="42.90437" lon="19.23125">
        <ele>1654.5699462891</ele>
        <time>2024-09-22T14:05:15.000Z</time>
      </trkpt>
      <trkpt lat="42.90431" lon="19.2313">
        <ele>1653.1199951172</ele>
        <time>2024-09-22T14:05:16.000Z</time>
      </trkpt>
      <trkpt lat="42.90425" lon="19.23136">
        <ele>1652.1600341797</ele>
        <time>2024-09-22T14:05:17.000Z</time>
      </trkpt>
      <trkpt lat="42.9042" lon="19.23143">
        <ele>1651.1999511719</ele>
        <time>2024-09-22T14:05:18.000Z</time>
      </trkpt>
      <trkpt lat="42.90417" lon="19.23152">
        <ele>1650.2399902344</ele>
        <time>2024-09-22T14:05:19.000Z</time>
      </trkpt>
      <trkpt lat="42.90415" lon="19.23164">
        <ele>1649.2800292969</ele>
        <time>2024-09-22T14:05:20.000Z</time>
      </trkpt>
      <trkpt lat="42.90413" lon="19.23168">
        <ele>1648.8000488281</ele>
        <time>2024-09-22T14:05:21.000Z</time>
      </trkpt>
      <trkpt lat="42.9041" lon="19.23174">
        <ele>1647.3599853516</ele>
        <time>2024-09-22T14:05:22.000Z</time>
      </trkpt>
      <trkpt lat="42.90404" lon="19.23178">
        <ele>1646.4000244141</ele>
        <time>2024-09-22T14:05:23.000Z</time>
      </trkpt>
      <trkpt lat="42.90397" lon="19.23179">
        <ele>1646.4000244141</ele>
        <time>2024-09-22T14:05:24.000Z</time>
      </trkpt>
      <trkpt lat="42.90388" lon="19.23178">
        <ele>1645.9100341797</ele>
        <time>2024-09-22T14:05:25.000Z</time>
      </trkpt>
      <trkpt lat="42.90378" lon="19.23176">
        <ele>1644.9499511719</ele>
        <time>2024-09-22T14:05:26.000Z</time>
      </trkpt>
      <trkpt lat="42.90371" lon="19.23175">
        <ele>1644.4699707031</ele>
        <time>2024-09-22T14:05:27.000Z</time>
      </trkpt>
      <trkpt lat="42.90365" lon="19.23176">
        <ele>1644.4699707031</ele>
        <time>2024-09-22T14:05:28.000Z</time>
      </trkpt>
      <trkpt lat="42.90359" lon="19.23181">
        <ele>1643.9899902344</ele>
        <time>2024-09-22T14:05:29.000Z</time>
      </trkpt>
      <trkpt lat="42.90354" lon="19.23187">
        <ele>1643.5100097656</ele>
        <time>2024-09-22T14:05:30.000Z</time>
      </trkpt>
      <trkpt lat="42.90352" lon="19.23195">
        <ele>1642.5500488281</ele>
        <time>2024-09-22T14:05:31.000Z</time>
      </trkpt>
      <trkpt lat="42.90352" lon="19.23204">
        <ele>1642.0699462891</ele>
        <time>2024-09-22T14:05:32.000Z</time>
      </trkpt>
      <trkpt lat="42.90355" lon="19.23214">
        <ele>1642.0699462891</ele>
        <time>2024-09-22T14:05:33.000Z</time>
      </trkpt>
      <trkpt lat="42.90358" lon="19.23226">
        <ele>1641.5899658203</ele>
        <time>2024-09-22T14:05:34.000Z</time>
      </trkpt>
      <trkpt lat="42.9036" lon="19.23234">
        <ele>1642.0699462891</ele>
        <time>2024-09-22T14:05:35.000Z</time>
      </trkpt>
      <trkpt lat="42.9036" lon="19.23243">
        <ele>1643.0300292969</ele>
        <time>2024-09-22T14:05:36.000Z</time>
      </trkpt>
      <trkpt lat="42.9036" lon="19.23249">
        <ele>1642.5500488281</ele>
        <time>2024-09-22T14:05:37.000Z</time>
      </trkpt>
      <trkpt lat="42.90361" lon="19.23257">
        <ele>1641.5899658203</ele>
        <time>2024-09-22T14:05:38.000Z</time>
      </trkpt>
      <trkpt lat="42.90364" lon="19.23268">
        <ele>1639.6700439453</ele>
        <time>2024-09-22T14:05:39.000Z</time>
      </trkpt>
      <trkpt lat="42.90365" lon="19.23283">
        <ele>1637.7399902344</ele>
        <time>2024-09-22T14:05:40.000Z</time>
      </trkpt>
      <trkpt lat="42.90365" lon="19.2329">
        <ele>1636.7800292969</ele>
        <time>2024-09-22T14:05:41.000Z</time>
      </trkpt>
      <trkpt lat="42.90364" lon="19.23302">
        <ele>1635.8199462891</ele>
        <time>2024-09-22T14:05:42.000Z</time>
      </trkpt>
      <trkpt lat="42.90361" lon="19.23312">
        <ele>1634.3800048828</ele>
        <time>2024-09-22T14:05:43.000Z</time>
      </trkpt>
      <trkpt lat="42.90357" lon="19.23324">
        <ele>1632.9399414062</ele>
        <time>2024-09-22T14:05:44.000Z</time>
      </trkpt>
      <trkpt lat="42.90356" lon="19.23332">
        <ele>1632.4599609375</ele>
        <time>2024-09-22T14:05:45.000Z</time>
      </trkpt>
      <trkpt lat="42.90356" lon="19.23341">
        <ele>1631.4899902344</ele>
        <time>2024-09-22T14:05:46.000Z</time>
      </trkpt>
      <trkpt lat="42.90359" lon="19.23351">
        <ele>1630.0500488281</ele>
        <time>2024-09-22T14:05:47.000Z</time>
      </trkpt>
      <trkpt lat="42.90363" lon="19.23363">
        <ele>1628.1300048828</ele>
        <time>2024-09-22T14:05:48.000Z</time>
      </trkpt>
      <trkpt lat="42.90365" lon="19.23373">
        <ele>1627.1700439453</ele>
        <time>2024-09-22T14:05:49.000Z</time>
      </trkpt>
      <trkpt lat="42.90366" lon="19.23384">
        <ele>1626.6899414062</ele>
        <time>2024-09-22T14:05:50.000Z</time>
      </trkpt>
      <trkpt lat="42.90364" lon="19.23401">
        <ele>1625.25</ele>
        <time>2024-09-22T14:05:51.000Z</time>
      </trkpt>
      <trkpt lat="42.90363" lon="19.23408">
        <ele>1624.7700195312</ele>
        <time>2024-09-22T14:05:52.000Z</time>
      </trkpt>
      <trkpt lat="42.90362" lon="19.23421">
        <ele>1624.2800292969</ele>
        <time>2024-09-22T14:05:53.000Z</time>
      </trkpt>
      <trkpt lat="42.9036" lon="19.23436">
        <ele>1623.8000488281</ele>
        <time>2024-09-22T14:05:54.000Z</time>
      </trkpt>
      <trkpt lat="42.90356" lon="19.23455">
        <ele>1623.3199462891</ele>
        <time>2024-09-22T14:05:55.000Z</time>
      </trkpt>
      <trkpt lat="42.90353" lon="19.23466">
        <ele>1623.3199462891</ele>
        <time>2024-09-22T14:05:56.000Z</time>
      </trkpt>
      <trkpt lat="42.9035" lon="19.23479">
        <ele>1622.8399658203</ele>
        <time>2024-09-22T14:05:57.000Z</time>
      </trkpt>
      <trkpt lat="42.90348" lon="19.23493">
        <ele>1622.3599853516</ele>
        <time>2024-09-22T14:05:58.000Z</time>
      </trkpt>
      <trkpt lat="42.90345" lon="19.23522">
        <ele>1621.8800048828</ele>
        <time>2024-09-22T14:05:59.000Z</time>
      </trkpt>
      <trkpt lat="42.90343" lon="19.23529">
        <ele>1621.8800048828</ele>
        <time>2024-09-22T14:06:00.000Z</time>
      </trkpt>
      <trkpt lat="42.90342" lon="19.23537">
        <ele>1622.3599853516</ele>
        <time>2024-09-22T14:06:01.000Z</time>
      </trkpt>
      <trkpt lat="42.90337" lon="19.23555">
        <ele>1621.4000244141</ele>
        <time>2024-09-22T14:06:02.000Z</time>
      </trkpt>
      <trkpt lat="42.90334" lon="19.23567">
        <ele>1621.4000244141</ele>
        <time>2024-09-22T14:06:03.000Z</time>
      </trkpt>
      <trkpt lat="42.90332" lon="19.23586">
        <ele>1620.9200439453</ele>
        <time>2024-09-22T14:06:04.000Z</time>
      </trkpt>
      <trkpt lat="42.9033" lon="19.23598">
        <ele>1620.4399414062</ele>
        <time>2024-09-22T14:06:05.000Z</time>
      </trkpt>
      <trkpt lat="42.90325" lon="19.23614">
        <ele>1619.4799804688</ele>
        <time>2024-09-22T14:06:06.000Z</time>
      </trkpt>
      <trkpt lat="42.90303" lon="19.23665">
        <ele>1619</ele>
        <time>2024-09-22T14:06:09.000Z</time>
      </trkpt>
      <trkpt lat="42.90298" lon="19.23679">
        <ele>1619</ele>
        <time>2024-09-22T14:06:10.000Z</time>
      </trkpt>
      <trkpt lat="42.9029" lon="19.23697">
        <ele>1619</ele>
        <time>2024-09-22T14:06:11.000Z</time>
      </trkpt>
      <trkpt lat="42.90283" lon="19.23714">
        <ele>1619</ele>
        <time>2024-09-22T14:06:12.000Z</time>
      </trkpt>
      <trkpt lat="42.90275" lon="19.23734">
        <ele>1617.0699462891</ele>
        <time>2024-09-22T14:06:14.000Z</time>
      </trkpt>
      <trkpt lat="42.90273" lon="19.23738">
        <ele>1617.0699462891</ele>
        <time>2024-09-22T14:06:15.000Z</time>
      </trkpt>
      <trkpt lat="42.90269" lon="19.23744">
        <ele>1616.1099853516</ele>
        <time>2024-09-22T14:06:16.000Z</time>
      </trkpt>
      <trkpt lat="42.90264" lon="19.23748">
        <ele>1615.6300048828</ele>
        <time>2024-09-22T14:06:17.000Z</time>
      </trkpt>
      <trkpt lat="42.90261" lon="19.23751">
        <ele>1615.6300048828</ele>
        <time>2024-09-22T14:06:18.000Z</time>
      </trkpt>
      <trkpt lat="42.90257" lon="19.23753">
        <ele>1615.1500244141</ele>
        <time>2024-09-22T14:06:19.000Z</time>
      </trkpt>
      <trkpt lat="42.90246" lon="19.2378">
        <ele>1612.2700195312</ele>
        <time>2024-09-22T14:06:26.000Z</time>
      </trkpt>
      <trkpt lat="42.90249" lon="19.23792">
        <ele>1611.3100585938</ele>
        <time>2024-09-22T14:06:29.000Z</time>
      </trkpt>
      <trkpt lat="42.9025" lon="19.23798">
        <ele>1610.3499755859</ele>
        <time>2024-09-22T14:06:30.000Z</time>
      </trkpt>
      <trkpt lat="42.90251" lon="19.23806">
        <ele>1609.3800048828</ele>
        <time>2024-09-22T14:06:31.000Z</time>
      </trkpt>
      <trkpt lat="42.90253" lon="19.23813">
        <ele>1608.9000244141</ele>
        <time>2024-09-22T14:06:32.000Z</time>
      </trkpt>
      <trkpt lat="42.90255" lon="19.2382">
        <ele>1608.4200439453</ele>
        <time>2024-09-22T14:06:33.000Z</time>
      </trkpt>
      <trkpt lat="42.90259" lon="19.23828">
        <ele>1607.9399414062</ele>
        <time>2024-09-22T14:06:34.000Z</time>
      </trkpt>
      <trkpt lat="42.90264" lon="19.23834">
        <ele>1607.4599609375</ele>
        <time>2024-09-22T14:06:35.000Z</time>
      </trkpt>
      <trkpt lat="42.90269" lon="19.23837">
        <ele>1607.4599609375</ele>
        <time>2024-09-22T14:06:36.000Z</time>
      </trkpt>
      <trkpt lat="42.90276" lon="19.23842">
        <ele>1606.5</ele>
        <time>2024-09-22T14:06:37.000Z</time>
      </trkpt>
      <trkpt lat="42.90282" lon="19.23847">
        <ele>1605.5400390625</ele>
        <time>2024-09-22T14:06:38.000Z</time>
      </trkpt>
      <trkpt lat="42.90283" lon="19.23849">
        <ele>1605.0600585938</ele>
        <time>2024-09-22T14:06:39.000Z</time>
      </trkpt>
      <trkpt lat="42.90287" lon="19.23861">
        <ele>1603.1400146484</ele>
        <time>2024-09-22T14:06:41.000Z</time>
      </trkpt>
      <trkpt lat="42.90287" lon="19.23863">
        <ele>1602.6600341797</ele>
        <time>2024-09-22T14:06:42.000Z</time>
      </trkpt>
      <trkpt lat="42.90285" lon="19.23871">
        <ele>1601.6899414062</ele>
        <time>2024-09-22T14:06:43.000Z</time>
      </trkpt>
      <trkpt lat="42.9028" lon="19.23883">
        <ele>1599.7700195312</ele>
        <time>2024-09-22T14:06:44.000Z</time>
      </trkpt>
      <trkpt lat="42.90275" lon="19.23893">
        <ele>1598.8100585938</ele>
        <time>2024-09-22T14:06:45.000Z</time>
      </trkpt>
      <trkpt lat="42.90266" lon="19.23911">
        <ele>1596.4100341797</ele>
        <time>2024-09-22T14:06:46.000Z</time>
      </trkpt>
      <trkpt lat="42.90259" lon="19.23923">
        <ele>1595.4499511719</ele>
        <time>2024-09-22T14:06:48.000Z</time>
      </trkpt>
      <trkpt lat="42.90255" lon="19.23932">
        <ele>1594.4799804688</ele>
        <time>2024-09-22T14:06:49.000Z</time>
      </trkpt>
      <trkpt lat="42.90252" lon="19.23941">
        <ele>1593.5200195312</ele>
        <time>2024-09-22T14:06:50.000Z</time>
      </trkpt>
      <trkpt lat="42.9025" lon="19.23952">
        <ele>1592.0799560547</ele>
        <time>2024-09-22T14:06:51.000Z</time>
      </trkpt>
      <trkpt lat="42.90249" lon="19.23964">
        <ele>1591.1199951172</ele>
        <time>2024-09-22T14:06:52.000Z</time>
      </trkpt>
      <trkpt lat="42.90248" lon="19.23971">
        <ele>1590.6400146484</ele>
        <time>2024-09-22T14:06:53.000Z</time>
      </trkpt>
      <trkpt lat="42.90245" lon="19.23979">
        <ele>1590.1600341797</ele>
        <time>2024-09-22T14:06:54.000Z</time>
      </trkpt>
      <trkpt lat="42.90241" lon="19.23986">
        <ele>1589.1999511719</ele>
        <time>2024-09-22T14:06:55.000Z</time>
      </trkpt>
      <trkpt lat="42.90235" lon="19.23994">
        <ele>1588.2399902344</ele>
        <time>2024-09-22T14:06:56.000Z</time>
      </trkpt>
      <trkpt lat="42.90227" lon="19.24001">
        <ele>1586.7900390625</ele>
        <time>2024-09-22T14:06:57.000Z</time>
      </trkpt>
      <trkpt lat="42.90222" lon="19.24006">
        <ele>1586.7900390625</ele>
        <time>2024-09-22T14:06:58.000Z</time>
      </trkpt>
      <trkpt lat="42.90219" lon="19.24013">
        <ele>1586.7900390625</ele>
        <time>2024-09-22T14:06:59.000Z</time>
      </trkpt>
      <trkpt lat="42.90218" lon="19.24021">
        <ele>1586.3100585938</ele>
        <time>2024-09-22T14:07:00.000Z</time>
      </trkpt>
      <trkpt lat="42.90217" lon="19.24029">
        <ele>1585.8299560547</ele>
        <time>2024-09-22T14:07:01.000Z</time>
      </trkpt>
      <trkpt lat="42.90215" lon="19.2404">
        <ele>1585.3499755859</ele>
        <time>2024-09-22T14:07:02.000Z</time>
      </trkpt>
      <trkpt lat="42.90209" lon="19.24059">
        <ele>1583.9100341797</ele>
        <time>2024-09-22T14:07:03.000Z</time>
      </trkpt>
      <trkpt lat="42.90205" lon="19.2407">
        <ele>1583.4300537109</ele>
        <time>2024-09-22T14:07:04.000Z</time>
      </trkpt>
      <trkpt lat="42.90203" lon="19.24076">
        <ele>1582.9499511719</ele>
        <time>2024-09-22T14:07:05.000Z</time>
      </trkpt>
      <trkpt lat="42.90199" lon="19.24085">
        <ele>1581.9899902344</ele>
        <time>2024-09-22T14:07:06.000Z</time>
      </trkpt>
      <trkpt lat="42.90197" lon="19.24092">
        <ele>1581.9899902344</ele>
        <time>2024-09-22T14:07:07.000Z</time>
      </trkpt>
      <trkpt lat="42.90196" lon="19.24101">
        <ele>1582.4699707031</ele>
        <time>2024-09-22T14:07:08.000Z</time>
      </trkpt>
      <trkpt lat="42.90197" lon="19.2411">
        <ele>1582.4699707031</ele>
        <time>2024-09-22T14:07:09.000Z</time>
      </trkpt>
      <trkpt lat="42.90202" lon="19.24122">
        <ele>1583.4300537109</ele>
        <time>2024-09-22T14:07:10.000Z</time>
      </trkpt>
      <trkpt lat="42.90205" lon="19.24131">
        <ele>1583.9100341797</ele>
        <time>2024-09-22T14:07:11.000Z</time>
      </trkpt>
      <trkpt lat="42.90213" lon="19.24161">
        <ele>1584.3900146484</ele>
        <time>2024-09-22T14:07:13.000Z</time>
      </trkpt>
      <trkpt lat="42.90215" lon="19.24173">
        <ele>1584.8699951172</ele>
        <time>2024-09-22T14:07:14.000Z</time>
      </trkpt>
      <trkpt lat="42.90217" lon="19.24186">
        <ele>1585.3499755859</ele>
        <time>2024-09-22T14:07:15.000Z</time>
      </trkpt>
      <trkpt lat="42.90217" lon="19.24199">
        <ele>1586.3100585938</ele>
        <time>2024-09-22T14:07:16.000Z</time>
      </trkpt>
      <trkpt lat="42.90216" lon="19.24219">
        <ele>1588.2399902344</ele>
        <time>2024-09-22T14:07:17.000Z</time>
      </trkpt>
      <trkpt lat="42.90215" lon="19.24223">
        <ele>1588.7199707031</ele>
        <time>2024-09-22T14:07:18.000Z</time>
      </trkpt>
      <trkpt lat="42.90214" lon="19.24236">
        <ele>1589.6800537109</ele>
        <time>2024-09-22T14:07:19.000Z</time>
      </trkpt>
      <trkpt lat="42.90214" lon="19.24248">
        <ele>1591.5999755859</ele>
        <time>2024-09-22T14:07:20.000Z</time>
      </trkpt>
      <trkpt lat="42.90213" lon="19.24264">
        <ele>1593.5200195312</ele>
        <time>2024-09-22T14:07:21.000Z</time>
      </trkpt>
      <trkpt lat="42.90213" lon="19.24273">
        <ele>1594.4799804688</ele>
        <time>2024-09-22T14:07:22.000Z</time>
      </trkpt>
      <trkpt lat="42.90211" lon="19.24286">
        <ele>1595.9300537109</ele>
        <time>2024-09-22T14:07:23.000Z</time>
      </trkpt>
      <trkpt lat="42.90205" lon="19.24306">
        <ele>1597.8499755859</ele>
        <time>2024-09-22T14:07:24.000Z</time>
      </trkpt>
      <trkpt lat="42.90204" lon="19.24308">
        <ele>1597.8499755859</ele>
        <time>2024-09-22T14:07:25.000Z</time>
      </trkpt>
      <trkpt lat="42.90203" lon="19.24316">
        <ele>1598.8100585938</ele>
        <time>2024-09-22T14:07:26.000Z</time>
      </trkpt>
      <trkpt lat="42.90206" lon="19.24326">
        <ele>1600.25</ele>
        <time>2024-09-22T14:07:28.000Z</time>
      </trkpt>
      <trkpt lat="42.90209" lon="19.24328">
        <ele>1601.2099609375</ele>
        <time>2024-09-22T14:07:29.000Z</time>
      </trkpt>
      <trkpt lat="42.90215" lon="19.24328">
        <ele>1602.1700439453</ele>
        <time>2024-09-22T14:07:30.000Z</time>
      </trkpt>
      <trkpt lat="42.90221" lon="19.24328">
        <ele>1603.1400146484</ele>
        <time>2024-09-22T14:07:31.000Z</time>
      </trkpt>
      <trkpt lat="42.90233" lon="19.24331">
        <ele>1604.5799560547</ele>
        <time>2024-09-22T14:07:32.000Z</time>
      </trkpt>
      <trkpt lat="42.90244" lon="19.24333">
        <ele>1605.5400390625</ele>
        <time>2024-09-22T14:07:33.000Z</time>
      </trkpt>
      <trkpt lat="42.90247" lon="19.24334">
        <ele>1606.0200195312</ele>
        <time>2024-09-22T14:07:34.000Z</time>
      </trkpt>
      <trkpt lat="42.90254" lon="19.24336">
        <ele>1606.5</ele>
        <time>2024-09-22T14:07:35.000Z</time>
      </trkpt>
      <trkpt lat="42.90258" lon="19.24339">
        <ele>1606.9799804688</ele>
        <time>2024-09-22T14:07:36.000Z</time>
      </trkpt>
      <trkpt lat="42.90261" lon="19.24348">
        <ele>1607.4599609375</ele>
        <time>2024-09-22T14:07:37.000Z</time>
      </trkpt>
      <trkpt lat="42.90261" lon="19.24349">
        <ele>1607.9399414062</ele>
        <time>2024-09-22T14:07:38.000Z</time>
      </trkpt>
      <trkpt lat="42.9026" lon="19.24355">
        <ele>1608.4200439453</ele>
        <time>2024-09-22T14:07:39.000Z</time>
      </trkpt>
      <trkpt lat="42.90258" lon="19.24363">
        <ele>1608.9000244141</ele>
        <time>2024-09-22T14:07:40.000Z</time>
      </trkpt>
      <trkpt lat="42.90255" lon="19.24371">
        <ele>1609.3800048828</ele>
        <time>2024-09-22T14:07:41.000Z</time>
      </trkpt>
      <trkpt lat="42.90252" lon="19.24381">
        <ele>1610.3499755859</ele>
        <time>2024-09-22T14:07:42.000Z</time>
      </trkpt>
      <trkpt lat="42.9025" lon="19.2439">
        <ele>1610.8299560547</ele>
        <time>2024-09-22T14:07:43.000Z</time>
      </trkpt>
      <trkpt lat="42.90247" lon="19.2441">
        <ele>1612.75</ele>
        <time>2024-09-22T14:07:44.000Z</time>
      </trkpt>
      <trkpt lat="42.90246" lon="19.24414">
        <ele>1612.75</ele>
        <time>2024-09-22T14:07:45.000Z</time>
      </trkpt>
      <trkpt lat="42.90242" lon="19.24439">
        <ele>1614.1899414062</ele>
        <time>2024-09-22T14:07:46.000Z</time>
      </trkpt>
      <trkpt lat="42.90241" lon="19.24443">
        <ele>1614.6700439453</ele>
        <time>2024-09-22T14:07:47.000Z</time>
      </trkpt>
      <trkpt lat="42.90238" lon="19.24453">
        <ele>1615.6300048828</ele>
        <time>2024-09-22T14:07:48.000Z</time>
      </trkpt>
      <trkpt lat="42.90233" lon="19.24466">
        <ele>1617.0699462891</ele>
        <time>2024-09-22T14:07:49.000Z</time>
      </trkpt>
      <trkpt lat="42.90227" lon="19.24478">
        <ele>1619</ele>
        <time>2024-09-22T14:07:50.000Z</time>
      </trkpt>
      <trkpt lat="42.90222" lon="19.24492">
        <ele>1620.4399414062</ele>
        <time>2024-09-22T14:07:51.000Z</time>
      </trkpt>
      <trkpt lat="42.90213" lon="19.24533">
        <ele>1625.25</ele>
        <time>2024-09-22T14:07:53.000Z</time>
      </trkpt>
      <trkpt lat="42.90213" lon="19.24535">
        <ele>1625.25</ele>
        <time>2024-09-22T14:07:54.000Z</time>
      </trkpt>
      <trkpt lat="42.90211" lon="19.24549">
        <ele>1626.6899414062</ele>
        <time>2024-09-22T14:07:55.000Z</time>
      </trkpt>
      <trkpt lat="42.9021" lon="19.24555">
        <ele>1627.1700439453</ele>
        <time>2024-09-22T14:07:56.000Z</time>
      </trkpt>
      <trkpt lat="42.90206" lon="19.24571">
        <ele>1627.6500244141</ele>
        <time>2024-09-22T14:07:57.000Z</time>
      </trkpt>
      <trkpt lat="42.90203" lon="19.24584">
        <ele>1627.6500244141</ele>
        <time>2024-09-22T14:07:59.000Z</time>
      </trkpt>
      <trkpt lat="42.90202" lon="19.24591">
        <ele>1627.6500244141</ele>
        <time>2024-09-22T14:08:00.000Z</time>
      </trkpt>
      <trkpt lat="42.90198" lon="19.24611">
        <ele>1628.1300048828</ele>
        <time>2024-09-22T14:08:02.000Z</time>
      </trkpt>
      <trkpt lat="42.90197" lon="19.24616">
        <ele>1628.1300048828</ele>
        <time>2024-09-22T14:08:03.000Z</time>
      </trkpt>
      <trkpt lat="42.90195" lon="19.24624">
        <ele>1628.1300048828</ele>
        <time>2024-09-22T14:08:04.000Z</time>
      </trkpt>
      <trkpt lat="42.90194" lon="19.24632">
        <ele>1628.1300048828</ele>
        <time>2024-09-22T14:08:05.000Z</time>
      </trkpt>
      <trkpt lat="42.90191" lon="19.2466">
        <ele>1628.1300048828</ele>
        <time>2024-09-22T14:08:07.000Z</time>
      </trkpt>
      <trkpt lat="42.90191" lon="19.24664">
        <ele>1628.1300048828</ele>
        <time>2024-09-22T14:08:08.000Z</time>
      </trkpt>
      <trkpt lat="42.90191" lon="19.24675">
        <ele>1628.1300048828</ele>
        <time>2024-09-22T14:08:09.000Z</time>
      </trkpt>
      <trkpt lat="42.90191" lon="19.2469">
        <ele>1627.6500244141</ele>
        <time>2024-09-22T14:08:10.000Z</time>
      </trkpt>
      <trkpt lat="42.90192" lon="19.24698">
        <ele>1627.6500244141</ele>
        <time>2024-09-22T14:08:11.000Z</time>
      </trkpt>
      <trkpt lat="42.90195" lon="19.2471">
        <ele>1627.1700439453</ele>
        <time>2024-09-22T14:08:12.000Z</time>
      </trkpt>
      <trkpt lat="42.90203" lon="19.24737">
        <ele>1626.2099609375</ele>
        <time>2024-09-22T14:08:14.000Z</time>
      </trkpt>
      <trkpt lat="42.90207" lon="19.24747">
        <ele>1625.7299804688</ele>
        <time>2024-09-22T14:08:15.000Z</time>
      </trkpt>
      <trkpt lat="42.90234" lon="19.24808">
        <ele>1623.3199462891</ele>
        <time>2024-09-22T14:08:20.000Z</time>
      </trkpt>
      <trkpt lat="42.90246" lon="19.24844">
        <ele>1623.3199462891</ele>
        <time>2024-09-22T14:08:22.000Z</time>
      </trkpt>
      <trkpt lat="42.90254" lon="19.24882">
        <ele>1623.3199462891</ele>
        <time>2024-09-22T14:08:24.000Z</time>
      </trkpt>
      <trkpt lat="42.90263" lon="19.24928">
        <ele>1623.3199462891</ele>
        <time>2024-09-22T14:08:27.000Z</time>
      </trkpt>
      <trkpt lat="42.90277" lon="19.25031">
        <ele>1626.2099609375</ele>
        <time>2024-09-22T14:08:32.000Z</time>
      </trkpt>
      <trkpt lat="42.90279" lon="19.25043">
        <ele>1626.6899414062</ele>
        <time>2024-09-22T14:08:33.000Z</time>
      </trkpt>
      <trkpt lat="42.90284" lon="19.25063">
        <ele>1628.6099853516</ele>
        <time>2024-09-22T14:08:34.000Z</time>
      </trkpt>
      <trkpt lat="42.90301" lon="19.25104">
        <ele>1633.4200439453</ele>
        <time>2024-09-22T14:08:36.000Z</time>
      </trkpt>
      <trkpt lat="42.90314" lon="19.25133">
        <ele>1634.3800048828</ele>
        <time>2024-09-22T14:08:39.000Z</time>
      </trkpt>
      <trkpt lat="42.90318" lon="19.25145">
        <ele>1634.8599853516</ele>
        <time>2024-09-22T14:08:40.000Z</time>
      </trkpt>
      <trkpt lat="42.9032" lon="19.25162">
        <ele>1634.8599853516</ele>
        <time>2024-09-22T14:08:41.000Z</time>
      </trkpt>
      <trkpt lat="42.90321" lon="19.25173">
        <ele>1634.8599853516</ele>
        <time>2024-09-22T14:08:42.000Z</time>
      </trkpt>
      <trkpt lat="42.90323" lon="19.25189">
        <ele>1634.8599853516</ele>
        <time>2024-09-22T14:08:43.000Z</time>
      </trkpt>
      <trkpt lat="42.90327" lon="19.25208">
        <ele>1633.9000244141</ele>
        <time>2024-09-22T14:08:44.000Z</time>
      </trkpt>
      <trkpt lat="42.90333" lon="19.25225">
        <ele>1632.9399414062</ele>
        <time>2024-09-22T14:08:45.000Z</time>
      </trkpt>
      <trkpt lat="42.90337" lon="19.25244">
        <ele>1631.9799804688</ele>
        <time>2024-09-22T14:08:46.000Z</time>
      </trkpt>
      <trkpt lat="42.90338" lon="19.25246">
        <ele>1631.4899902344</ele>
        <time>2024-09-22T14:08:47.000Z</time>
      </trkpt>
      <trkpt lat="42.90342" lon="19.25257">
        <ele>1630.5300292969</ele>
        <time>2024-09-22T14:08:48.000Z</time>
      </trkpt>
      <trkpt lat="42.90348" lon="19.25266">
        <ele>1629.5699462891</ele>
        <time>2024-09-22T14:08:49.000Z</time>
      </trkpt>
      <trkpt lat="42.90355" lon="19.25272">
        <ele>1629.5699462891</ele>
        <time>2024-09-22T14:08:50.000Z</time>
      </trkpt>
      <trkpt lat="42.90362" lon="19.25273">
        <ele>1629.0899658203</ele>
        <time>2024-09-22T14:08:51.000Z</time>
      </trkpt>
      <trkpt lat="42.90369" lon="19.25268">
        <ele>1628.6099853516</ele>
        <time>2024-09-22T14:08:52.000Z</time>
      </trkpt>
      <trkpt lat="42.90376" lon="19.2526">
        <ele>1627.1700439453</ele>
        <time>2024-09-22T14:08:53.000Z</time>
      </trkpt>
      <trkpt lat="42.90385" lon="19.25253">
        <ele>1626.2099609375</ele>
        <time>2024-09-22T14:08:54.000Z</time>
      </trkpt>
      <trkpt lat="42.90393" lon="19.25249">
        <ele>1625.25</ele>
        <time>2024-09-22T14:08:55.000Z</time>
      </trkpt>
      <trkpt lat="42.90402" lon="19.25249">
        <ele>1623.8000488281</ele>
        <time>2024-09-22T14:08:56.000Z</time>
      </trkpt>
      <trkpt lat="42.9041" lon="19.25252">
        <ele>1622.8399658203</ele>
        <time>2024-09-22T14:08:57.000Z</time>
      </trkpt>
      <trkpt lat="42.90418" lon="19.25254">
        <ele>1621.8800048828</ele>
        <time>2024-09-22T14:08:58.000Z</time>
      </trkpt>
      <trkpt lat="42.90426" lon="19.25253">
        <ele>1620.9200439453</ele>
        <time>2024-09-22T14:08:59.000Z</time>
      </trkpt>
      <trkpt lat="42.90432" lon="19.25253">
        <ele>1620.4399414062</ele>
        <time>2024-09-22T14:09:00.000Z</time>
      </trkpt>
      <trkpt lat="42.90435" lon="19.25256">
        <ele>1619.4799804688</ele>
        <time>2024-09-22T14:09:01.000Z</time>
      </trkpt>
      <trkpt lat="42.90435" lon="19.25261">
        <ele>1618.5200195312</ele>
        <time>2024-09-22T14:09:02.000Z</time>
      </trkpt>
      <trkpt lat="42.90432" lon="19.25266">
        <ele>1617.5600585938</ele>
        <time>2024-09-22T14:09:03.000Z</time>
      </trkpt>
      <trkpt lat="42.90427" lon="19.25271">
        <ele>1616.1099853516</ele>
        <time>2024-09-22T14:09:04.000Z</time>
      </trkpt>
      <trkpt lat="42.90417" lon="19.25278">
        <ele>1614.6700439453</ele>
        <time>2024-09-22T14:09:05.000Z</time>
      </trkpt>
      <trkpt lat="42.90402" lon="19.25287">
        <ele>1611.7900390625</ele>
        <time>2024-09-22T14:09:07.000Z</time>
      </trkpt>
      <trkpt lat="42.90394" lon="19.25294">
        <ele>1610.3499755859</ele>
        <time>2024-09-22T14:09:08.000Z</time>
      </trkpt>
      <trkpt lat="42.90387" lon="19.25304">
        <ele>1609.3800048828</ele>
        <time>2024-09-22T14:09:09.000Z</time>
      </trkpt>
      <trkpt lat="42.9038" lon="19.25316">
        <ele>1608.4200439453</ele>
        <time>2024-09-22T14:09:10.000Z</time>
      </trkpt>
      <trkpt lat="42.90374" lon="19.25329">
        <ele>1606.5</ele>
        <time>2024-09-22T14:09:11.000Z</time>
      </trkpt>
      <trkpt lat="42.90368" lon="19.25346">
        <ele>1604.5799560547</ele>
        <time>2024-09-22T14:09:12.000Z</time>
      </trkpt>
      <trkpt lat="42.90354" lon="19.25396">
        <ele>1599.2900390625</ele>
        <time>2024-09-22T14:09:15.000Z</time>
      </trkpt>
      <trkpt lat="42.90349" lon="19.2541">
        <ele>1597.8499755859</ele>
        <time>2024-09-22T14:09:16.000Z</time>
      </trkpt>
      <trkpt lat="42.90345" lon="19.25423">
        <ele>1597.3699951172</ele>
        <time>2024-09-22T14:09:17.000Z</time>
      </trkpt>
      <trkpt lat="42.90341" lon="19.25439">
        <ele>1596.8900146484</ele>
        <time>2024-09-22T14:09:18.000Z</time>
      </trkpt>
      <trkpt lat="42.90338" lon="19.25454">
        <ele>1596.8900146484</ele>
        <time>2024-09-22T14:09:19.000Z</time>
      </trkpt>
      <trkpt lat="42.90335" lon="19.25469">
        <ele>1596.4100341797</ele>
        <time>2024-09-22T14:09:20.000Z</time>
      </trkpt>
      <trkpt lat="42.90328" lon="19.25488">
        <ele>1594.9599609375</ele>
        <time>2024-09-22T14:09:21.000Z</time>
      </trkpt>
      <trkpt lat="42.90324" lon="19.25498">
        <ele>1594</ele>
        <time>2024-09-22T14:09:22.000Z</time>
      </trkpt>
      <trkpt lat="42.90316" lon="19.25526">
        <ele>1592.0799560547</ele>
        <time>2024-09-22T14:09:23.000Z</time>
      </trkpt>
      <trkpt lat="42.90313" lon="19.25535">
        <ele>1592.0799560547</ele>
        <time>2024-09-22T14:09:24.000Z</time>
      </trkpt>
      <trkpt lat="42.90311" lon="19.25547">
        <ele>1592.0799560547</ele>
        <time>2024-09-22T14:09:25.000Z</time>
      </trkpt>
      <trkpt lat="42.90308" lon="19.25561">
        <ele>1591.5999755859</ele>
        <time>2024-09-22T14:09:26.000Z</time>
      </trkpt>
      <trkpt lat="42.90308" lon="19.25571">
        <ele>1591.1199951172</ele>
        <time>2024-09-22T14:09:27.000Z</time>
      </trkpt>
      <trkpt lat="42.9031" lon="19.25584">
        <ele>1591.1199951172</ele>
        <time>2024-09-22T14:09:28.000Z</time>
      </trkpt>
      <trkpt lat="42.90314" lon="19.25596">
        <ele>1590.6400146484</ele>
        <time>2024-09-22T14:09:29.000Z</time>
      </trkpt>
      <trkpt lat="42.90321" lon="19.25609">
        <ele>1591.1199951172</ele>
        <time>2024-09-22T14:09:30.000Z</time>
      </trkpt>
      <trkpt lat="42.90326" lon="19.25618">
        <ele>1591.1199951172</ele>
        <time>2024-09-22T14:09:31.000Z</time>
      </trkpt>
      <trkpt lat="42.9033" lon="19.2563">
        <ele>1591.5999755859</ele>
        <time>2024-09-22T14:09:32.000Z</time>
      </trkpt>
      <trkpt lat="42.90333" lon="19.25653">
        <ele>1591.5999755859</ele>
        <time>2024-09-22T14:09:33.000Z</time>
      </trkpt>
      <trkpt lat="42.90334" lon="19.25657">
        <ele>1591.1199951172</ele>
        <time>2024-09-22T14:09:34.000Z</time>
      </trkpt>
      <trkpt lat="42.90338" lon="19.25669">
        <ele>1591.1199951172</ele>
        <time>2024-09-22T14:09:35.000Z</time>
      </trkpt>
      <trkpt lat="42.90344" lon="19.25678">
        <ele>1590.6400146484</ele>
        <time>2024-09-22T14:09:36.000Z</time>
      </trkpt>
      <trkpt lat="42.90356" lon="19.2569">
        <ele>1590.6400146484</ele>
        <time>2024-09-22T14:09:37.000Z</time>
      </trkpt>
      <trkpt lat="42.9036" lon="19.25694">
        <ele>1590.6400146484</ele>
        <time>2024-09-22T14:09:38.000Z</time>
      </trkpt>
      <trkpt lat="42.90369" lon="19.25706">
        <ele>1590.6400146484</ele>
        <time>2024-09-22T14:09:39.000Z</time>
      </trkpt>
      <trkpt lat="42.90375" lon="19.25719">
        <ele>1590.1600341797</ele>
        <time>2024-09-22T14:09:40.000Z</time>
      </trkpt>
      <trkpt lat="42.90378" lon="19.25735">
        <ele>1591.1199951172</ele>
        <time>2024-09-22T14:09:41.000Z</time>
      </trkpt>
      <trkpt lat="42.9038" lon="19.2575">
        <ele>1593.0400390625</ele>
        <time>2024-09-22T14:09:42.000Z</time>
      </trkpt>
      <trkpt lat="42.90382" lon="19.25762">
        <ele>1594.4799804688</ele>
        <time>2024-09-22T14:09:43.000Z</time>
      </trkpt>
      <trkpt lat="42.90388" lon="19.25792">
        <ele>1599.2900390625</ele>
        <time>2024-09-22T14:09:46.000Z</time>
      </trkpt>
      <trkpt lat="42.9039" lon="19.25798">
        <ele>1599.2900390625</ele>
        <time>2024-09-22T14:09:52.000Z</time>
      </trkpt>
      <trkpt lat="42.90394" lon="19.25808">
        <ele>1601.6899414062</ele>
        <time>2024-09-22T14:11:19.000Z</time>
      </trkpt>
      <trkpt lat="42.90396" lon="19.25812">
        <ele>1602.1700439453</ele>
        <time>2024-09-22T14:11:20.000Z</time>
      </trkpt>
      <trkpt lat="42.904" lon="19.25822">
        <ele>1602.1700439453</ele>
        <time>2024-09-22T14:11:21.000Z</time>
      </trkpt>
      <trkpt lat="42.90405" lon="19.25829">
        <ele>1603.1400146484</ele>
        <time>2024-09-22T14:11:22.000Z</time>
      </trkpt>
      <trkpt lat="42.9041" lon="19.25833">
        <ele>1604.0999755859</ele>
        <time>2024-09-22T14:11:23.000Z</time>
      </trkpt>
      <trkpt lat="42.90416" lon="19.25835">
        <ele>1604.5799560547</ele>
        <time>2024-09-22T14:11:24.000Z</time>
      </trkpt>
      <trkpt lat="42.90424" lon="19.25833">
        <ele>1605.0600585938</ele>
        <time>2024-09-22T14:11:25.000Z</time>
      </trkpt>
      <trkpt lat="42.90431" lon="19.25832">
        <ele>1605.0600585938</ele>
        <time>2024-09-22T14:11:26.000Z</time>
      </trkpt>
      <trkpt lat="42.90439" lon="19.25833">
        <ele>1604.5799560547</ele>
        <time>2024-09-22T14:11:27.000Z</time>
      </trkpt>
      <trkpt lat="42.90448" lon="19.25835">
        <ele>1604.0999755859</ele>
        <time>2024-09-22T14:11:28.000Z</time>
      </trkpt>
      <trkpt lat="42.90459" lon="19.25838">
        <ele>1602.6600341797</ele>
        <time>2024-09-22T14:11:29.000Z</time>
      </trkpt>
      <trkpt lat="42.90463" lon="19.25839">
        <ele>1602.1700439453</ele>
        <time>2024-09-22T14:11:30.000Z</time>
      </trkpt>
      <trkpt lat="42.90468" lon="19.25843">
        <ele>1601.2099609375</ele>
        <time>2024-09-22T14:11:31.000Z</time>
      </trkpt>
      <trkpt lat="42.9047" lon="19.25849">
        <ele>1600.25</ele>
        <time>2024-09-22T14:11:32.000Z</time>
      </trkpt>
      <trkpt lat="42.90473" lon="19.25863">
        <ele>1598.8100585938</ele>
        <time>2024-09-22T14:11:33.000Z</time>
      </trkpt>
      <trkpt lat="42.90474" lon="19.25867">
        <ele>1598.3299560547</ele>
        <time>2024-09-22T14:11:34.000Z</time>
      </trkpt>
      <trkpt lat="42.90476" lon="19.25874">
        <ele>1597.3699951172</ele>
        <time>2024-09-22T14:11:35.000Z</time>
      </trkpt>
      <trkpt lat="42.90481" lon="19.25884">
        <ele>1596.4100341797</ele>
        <time>2024-09-22T14:11:36.000Z</time>
      </trkpt>
      <trkpt lat="42.90487" lon="19.25894">
        <ele>1595.4499511719</ele>
        <time>2024-09-22T14:11:37.000Z</time>
      </trkpt>
      <trkpt lat="42.9049" lon="19.25903">
        <ele>1594.4799804688</ele>
        <time>2024-09-22T14:11:38.000Z</time>
      </trkpt>
      <trkpt lat="42.90493" lon="19.25914">
        <ele>1594</ele>
        <time>2024-09-22T14:11:39.000Z</time>
      </trkpt>
      <trkpt lat="42.90494" lon="19.25928">
        <ele>1593.0400390625</ele>
        <time>2024-09-22T14:11:40.000Z</time>
      </trkpt>
      <trkpt lat="42.90496" lon="19.2595">
        <ele>1592.0799560547</ele>
        <time>2024-09-22T14:11:41.000Z</time>
      </trkpt>
      <trkpt lat="42.90497" lon="19.2596">
        <ele>1591.5999755859</ele>
        <time>2024-09-22T14:11:42.000Z</time>
      </trkpt>
      <trkpt lat="42.90499" lon="19.25976">
        <ele>1591.5999755859</ele>
        <time>2024-09-22T14:11:43.000Z</time>
      </trkpt>
      <trkpt lat="42.90504" lon="19.26007">
        <ele>1590.1600341797</ele>
        <time>2024-09-22T14:11:45.000Z</time>
      </trkpt>
      <trkpt lat="42.90505" lon="19.26018">
        <ele>1589.6800537109</ele>
        <time>2024-09-22T14:11:46.000Z</time>
      </trkpt>
      <trkpt lat="42.90505" lon="19.26038">
        <ele>1588.2399902344</ele>
        <time>2024-09-22T14:11:47.000Z</time>
      </trkpt>
      <trkpt lat="42.90504" lon="19.26045">
        <ele>1587.75</ele>
        <time>2024-09-22T14:11:48.000Z</time>
      </trkpt>
      <trkpt lat="42.90506" lon="19.26057">
        <ele>1587.2700195312</ele>
        <time>2024-09-22T14:11:49.000Z</time>
      </trkpt>
      <trkpt lat="42.90511" lon="19.26064">
        <ele>1586.3100585938</ele>
        <time>2024-09-22T14:11:50.000Z</time>
      </trkpt>
      <trkpt lat="42.90519" lon="19.2607">
        <ele>1585.8299560547</ele>
        <time>2024-09-22T14:11:51.000Z</time>
      </trkpt>
      <trkpt lat="42.90527" lon="19.26074">
        <ele>1585.3499755859</ele>
        <time>2024-09-22T14:11:52.000Z</time>
      </trkpt>
      <trkpt lat="42.90533" lon="19.26081">
        <ele>1583.9100341797</ele>
        <time>2024-09-22T14:11:53.000Z</time>
      </trkpt>
      <trkpt lat="42.90537" lon="19.26089">
        <ele>1583.4300537109</ele>
        <time>2024-09-22T14:11:54.000Z</time>
      </trkpt>
      <trkpt lat="42.9054" lon="19.26099">
        <ele>1582.9499511719</ele>
        <time>2024-09-22T14:11:55.000Z</time>
      </trkpt>
      <trkpt lat="42.90545" lon="19.26105">
        <ele>1582.9499511719</ele>
        <time>2024-09-22T14:11:56.000Z</time>
      </trkpt>
      <trkpt lat="42.90552" lon="19.26109">
        <ele>1582.4699707031</ele>
        <time>2024-09-22T14:11:57.000Z</time>
      </trkpt>
      <trkpt lat="42.9056" lon="19.26112">
        <ele>1581.5100097656</ele>
        <time>2024-09-22T14:11:58.000Z</time>
      </trkpt>
      <trkpt lat="42.90566" lon="19.26117">
        <ele>1580.5400390625</ele>
        <time>2024-09-22T14:11:59.000Z</time>
      </trkpt>
      <trkpt lat="42.90569" lon="19.26124">
        <ele>1579.5799560547</ele>
        <time>2024-09-22T14:12:00.000Z</time>
      </trkpt>
      <trkpt lat="42.90569" lon="19.26133">
        <ele>1578.6199951172</ele>
        <time>2024-09-22T14:12:01.000Z</time>
      </trkpt>
      <trkpt lat="42.90566" lon="19.26145">
        <ele>1577.1800537109</ele>
        <time>2024-09-22T14:12:02.000Z</time>
      </trkpt>
      <trkpt lat="42.90559" lon="19.26159">
        <ele>1575.2600097656</ele>
        <time>2024-09-22T14:12:03.000Z</time>
      </trkpt>
      <trkpt lat="42.90556" lon="19.26166">
        <ele>1573.8199462891</ele>
        <time>2024-09-22T14:12:04.000Z</time>
      </trkpt>
      <trkpt lat="42.90555" lon="19.26176">
        <ele>1572.8499755859</ele>
        <time>2024-09-22T14:12:05.000Z</time>
      </trkpt>
      <trkpt lat="42.90557" lon="19.26187">
        <ele>1570.9300537109</ele>
        <time>2024-09-22T14:12:06.000Z</time>
      </trkpt>
      <trkpt lat="42.90562" lon="19.262">
        <ele>1569.0100097656</ele>
        <time>2024-09-22T14:12:07.000Z</time>
      </trkpt>
      <trkpt lat="42.9057" lon="19.26214">
        <ele>1567.0899658203</ele>
        <time>2024-09-22T14:12:08.000Z</time>
      </trkpt>
      <trkpt lat="42.9058" lon="19.26232">
        <ele>1564.1999511719</ele>
        <time>2024-09-22T14:12:09.000Z</time>
      </trkpt>
      <trkpt lat="42.90588" lon="19.26242">
        <ele>1562.2800292969</ele>
        <time>2024-09-22T14:12:10.000Z</time>
      </trkpt>
      <trkpt lat="42.90606" lon="19.26262">
        <ele>1557.9499511719</ele>
        <time>2024-09-22T14:12:11.000Z</time>
      </trkpt>
      <trkpt lat="42.90652" lon="19.26313">
        <ele>1550.2600097656</ele>
        <time>2024-09-22T14:12:16.000Z</time>
      </trkpt>
      <trkpt lat="42.90657" lon="19.2632">
        <ele>1549.3000488281</ele>
        <time>2024-09-22T14:12:17.000Z</time>
      </trkpt>
      <trkpt lat="42.90664" lon="19.26329">
        <ele>1548.3399658203</ele>
        <time>2024-09-22T14:12:18.000Z</time>
      </trkpt>
      <trkpt lat="42.90668" lon="19.26341">
        <ele>1547.3800048828</ele>
        <time>2024-09-22T14:12:19.000Z</time>
      </trkpt>
      <trkpt lat="42.90668" lon="19.26354">
        <ele>1546.9000244141</ele>
        <time>2024-09-22T14:12:20.000Z</time>
      </trkpt>
      <trkpt lat="42.90667" lon="19.26376">
        <ele>1545.4599609375</ele>
        <time>2024-09-22T14:12:21.000Z</time>
      </trkpt>
      <trkpt lat="42.90667" lon="19.26385">
        <ele>1545.4599609375</ele>
        <time>2024-09-22T14:12:22.000Z</time>
      </trkpt>
      <trkpt lat="42.90667" lon="19.264">
        <ele>1544.0100097656</ele>
        <time>2024-09-22T14:12:23.000Z</time>
      </trkpt>
      <trkpt lat="42.90669" lon="19.26417">
        <ele>1542.0899658203</ele>
        <time>2024-09-22T14:12:24.000Z</time>
      </trkpt>
      <trkpt lat="42.90671" lon="19.2644">
        <ele>1539.6899414062</ele>
        <time>2024-09-22T14:12:25.000Z</time>
      </trkpt>
      <trkpt lat="42.90671" lon="19.26442">
        <ele>1539.6899414062</ele>
        <time>2024-09-22T14:12:26.000Z</time>
      </trkpt>
      <trkpt lat="42.90672" lon="19.26455">
        <ele>1539.2099609375</ele>
        <time>2024-09-22T14:12:27.000Z</time>
      </trkpt>
      <trkpt lat="42.90672" lon="19.26461">
        <ele>1538.7299804688</ele>
        <time>2024-09-22T14:12:28.000Z</time>
      </trkpt>
      <trkpt lat="42.9067" lon="19.26464">
        <ele>1538.25</ele>
        <time>2024-09-22T14:12:29.000Z</time>
      </trkpt>
      <trkpt lat="42.90668" lon="19.26465">
        <ele>1537.7700195312</ele>
        <time>2024-09-22T14:12:30.000Z</time>
      </trkpt>
      <trkpt lat="42.90665" lon="19.26444">
        <ele>1538.7299804688</ele>
        <time>2024-09-22T14:12:36.000Z</time>
      </trkpt>
      <trkpt lat="42.90664" lon="19.26435">
        <ele>1539.2099609375</ele>
        <time>2024-09-22T14:12:47.000Z</time>
      </trkpt>
      <trkpt lat="42.90664" lon="19.26431">
        <ele>1540.6500244141</ele>
        <time>2024-09-22T14:13:09.000Z</time>
      </trkpt>
      <trkpt lat="42.90664" lon="19.26428">
        <ele>1540.6500244141</ele>
        <time>2024-09-22T14:13:10.000Z</time>
      </trkpt>
      <trkpt lat="42.9066" lon="19.2641">
        <ele>1541.1300048828</ele>
        <time>2024-09-22T14:13:11.000Z</time>
      </trkpt>
      <trkpt lat="42.90658" lon="19.26398">
        <ele>1541.1300048828</ele>
        <time>2024-09-22T14:13:12.000Z</time>
      </trkpt>
      <trkpt lat="42.90658" lon="19.26396">
        <ele>1541.1300048828</ele>
        <time>2024-09-22T14:13:13.000Z</time>
      </trkpt>
      <trkpt lat="42.90656" lon="19.26381">
        <ele>1541.1300048828</ele>
        <time>2024-09-22T14:13:14.000Z</time>
      </trkpt>
      <trkpt lat="42.90655" lon="19.26366">
        <ele>1540.6500244141</ele>
        <time>2024-09-22T14:13:15.000Z</time>
      </trkpt>
      <trkpt lat="42.90653" lon="19.26355">
        <ele>1540.6500244141</ele>
        <time>2024-09-22T14:13:16.000Z</time>
      </trkpt>
      <trkpt lat="42.9065" lon="19.26344">
        <ele>1540.1700439453</ele>
        <time>2024-09-22T14:13:17.000Z</time>
      </trkpt>
      <trkpt lat="42.90645" lon="19.26336">
        <ele>1539.6899414062</ele>
        <time>2024-09-22T14:13:18.000Z</time>
      </trkpt>
      <trkpt lat="42.90637" lon="19.26328">
        <ele>1539.2099609375</ele>
        <time>2024-09-22T14:13:19.000Z</time>
      </trkpt>
      <trkpt lat="42.90597" lon="19.26309">
        <ele>1536.3199462891</ele>
        <time>2024-09-22T14:13:22.000Z</time>
      </trkpt>
      <trkpt lat="42.90585" lon="19.26304">
        <ele>1535.3599853516</ele>
        <time>2024-09-22T14:13:23.000Z</time>
      </trkpt>
      <trkpt lat="42.90577" lon="19.26301">
        <ele>1534.4000244141</ele>
        <time>2024-09-22T14:13:24.000Z</time>
      </trkpt>
      <trkpt lat="42.90563" lon="19.26298">
        <ele>1532.9599609375</ele>
        <time>2024-09-22T14:13:25.000Z</time>
      </trkpt>
      <trkpt lat="42.90549" lon="19.26297">
        <ele>1532</ele>
        <time>2024-09-22T14:13:26.000Z</time>
      </trkpt>
      <trkpt lat="42.90534" lon="19.263">
        <ele>1531.0400390625</ele>
        <time>2024-09-22T14:13:27.000Z</time>
      </trkpt>
      <trkpt lat="42.90522" lon="19.26304">
        <ele>1530.0799560547</ele>
        <time>2024-09-22T14:13:28.000Z</time>
      </trkpt>
      <trkpt lat="42.90512" lon="19.26307">
        <ele>1529.5899658203</ele>
        <time>2024-09-22T14:13:29.000Z</time>
      </trkpt>
      <trkpt lat="42.90505" lon="19.26312">
        <ele>1529.1099853516</ele>
        <time>2024-09-22T14:13:30.000Z</time>
      </trkpt>
      <trkpt lat="42.90501" lon="19.26319">
        <ele>1528.1500244141</ele>
        <time>2024-09-22T14:13:31.000Z</time>
      </trkpt>
      <trkpt lat="42.90502" lon="19.26326">
        <ele>1528.1500244141</ele>
        <time>2024-09-22T14:13:32.000Z</time>
      </trkpt>
      <trkpt lat="42.90507" lon="19.26331">
        <ele>1527.6700439453</ele>
        <time>2024-09-22T14:13:33.000Z</time>
      </trkpt>
      <trkpt lat="42.90512" lon="19.26332">
        <ele>1526.7099609375</ele>
        <time>2024-09-22T14:13:34.000Z</time>
      </trkpt>
      <trkpt lat="42.9052" lon="19.26331">
        <ele>1526.2299804688</ele>
        <time>2024-09-22T14:13:35.000Z</time>
      </trkpt>
      <trkpt lat="42.90535" lon="19.26327">
        <ele>1524.7900390625</ele>
        <time>2024-09-22T14:13:37.000Z</time>
      </trkpt>
      <trkpt lat="42.90545" lon="19.26325">
        <ele>1524.3100585938</ele>
        <time>2024-09-22T14:13:38.000Z</time>
      </trkpt>
      <trkpt lat="42.90556" lon="19.26326">
        <ele>1523.3499755859</ele>
        <time>2024-09-22T14:13:39.000Z</time>
      </trkpt>
      <trkpt lat="42.90569" lon="19.26333">
        <ele>1522.3900146484</ele>
        <time>2024-09-22T14:13:40.000Z</time>
      </trkpt>
      <trkpt lat="42.90593" lon="19.26348">
        <ele>1520.4599609375</ele>
        <time>2024-09-22T14:13:41.000Z</time>
      </trkpt>
      <trkpt lat="42.90595" lon="19.26349">
        <ele>1520.4599609375</ele>
        <time>2024-09-22T14:13:42.000Z</time>
      </trkpt>
      <trkpt lat="42.90606" lon="19.26359">
        <ele>1519.5</ele>
        <time>2024-09-22T14:13:43.000Z</time>
      </trkpt>
      <trkpt lat="42.90611" lon="19.26369">
        <ele>1518.0600585938</ele>
        <time>2024-09-22T14:13:44.000Z</time>
      </trkpt>
      <trkpt lat="42.90613" lon="19.2638">
        <ele>1516.6199951172</ele>
        <time>2024-09-22T14:13:45.000Z</time>
      </trkpt>
      <trkpt lat="42.90611" lon="19.2639">
        <ele>1515.1800537109</ele>
        <time>2024-09-22T14:13:46.000Z</time>
      </trkpt>
      <trkpt lat="42.90603" lon="19.264">
        <ele>1514.2099609375</ele>
        <time>2024-09-22T14:13:47.000Z</time>
      </trkpt>
      <trkpt lat="42.90593" lon="19.2641">
        <ele>1513.25</ele>
        <time>2024-09-22T14:13:48.000Z</time>
      </trkpt>
      <trkpt lat="42.90586" lon="19.26425">
        <ele>1512.2900390625</ele>
        <time>2024-09-22T14:13:49.000Z</time>
      </trkpt>
      <trkpt lat="42.90581" lon="19.26445">
        <ele>1510.3699951172</ele>
        <time>2024-09-22T14:13:50.000Z</time>
      </trkpt>
      <trkpt lat="42.90573" lon="19.26464">
        <ele>1508.9300537109</ele>
        <time>2024-09-22T14:13:51.000Z</time>
      </trkpt>
      <trkpt lat="42.90563" lon="19.2648">
        <ele>1507.9699707031</ele>
        <time>2024-09-22T14:13:52.000Z</time>
      </trkpt>
      <trkpt lat="42.90552" lon="19.26497">
        <ele>1506.0400390625</ele>
        <time>2024-09-22T14:13:53.000Z</time>
      </trkpt>
      <trkpt lat="42.90545" lon="19.26516">
        <ele>1504.1199951172</ele>
        <time>2024-09-22T14:13:54.000Z</time>
      </trkpt>
      <trkpt lat="42.90538" lon="19.26544">
        <ele>1502.1999511719</ele>
        <time>2024-09-22T14:13:55.000Z</time>
      </trkpt>
      <trkpt lat="42.90533" lon="19.26565">
        <ele>1499.7900390625</ele>
        <time>2024-09-22T14:13:56.000Z</time>
      </trkpt>
      <trkpt lat="42.90531" lon="19.26575">
        <ele>1498.3499755859</ele>
        <time>2024-09-22T14:13:57.000Z</time>
      </trkpt>
      <trkpt lat="42.90529" lon="19.26591">
        <ele>1496.4300537109</ele>
        <time>2024-09-22T14:13:58.000Z</time>
      </trkpt>
      <trkpt lat="42.90528" lon="19.26644">
        <ele>1493.0600585938</ele>
        <time>2024-09-22T14:14:00.000Z</time>
      </trkpt>
      <trkpt lat="42.90528" lon="19.26647">
        <ele>1493.0600585938</ele>
        <time>2024-09-22T14:14:01.000Z</time>
      </trkpt>
      <trkpt lat="42.90525" lon="19.26666">
        <ele>1491.6199951172</ele>
        <time>2024-09-22T14:14:02.000Z</time>
      </trkpt>
      <trkpt lat="42.90518" lon="19.26688">
        <ele>1490.1800537109</ele>
        <time>2024-09-22T14:14:03.000Z</time>
      </trkpt>
      <trkpt lat="42.9051" lon="19.26715">
        <ele>1488.7399902344</ele>
        <time>2024-09-22T14:14:04.000Z</time>
      </trkpt>
      <trkpt lat="42.90506" lon="19.2673">
        <ele>1487.7800292969</ele>
        <time>2024-09-22T14:14:05.000Z</time>
      </trkpt>
      <trkpt lat="42.90495" lon="19.26771">
        <ele>1485.3699951172</ele>
        <time>2024-09-22T14:14:07.000Z</time>
      </trkpt>
      <trkpt lat="42.90476" lon="19.26833">
        <ele>1479.6099853516</ele>
        <time>2024-09-22T14:14:10.000Z</time>
      </trkpt>
      <trkpt lat="42.90468" lon="19.26857">
        <ele>1477.1999511719</ele>
        <time>2024-09-22T14:14:11.000Z</time>
      </trkpt>
      <trkpt lat="42.90464" lon="19.26869">
        <ele>1476.2399902344</ele>
        <time>2024-09-22T14:14:12.000Z</time>
      </trkpt>
      <trkpt lat="42.90459" lon="19.26881">
        <ele>1475.2800292969</ele>
        <time>2024-09-22T14:14:13.000Z</time>
      </trkpt>
      <trkpt lat="42.90449" lon="19.269">
        <ele>1473.3599853516</ele>
        <time>2024-09-22T14:14:14.000Z</time>
      </trkpt>
      <trkpt lat="42.90438" lon="19.2692">
        <ele>1472.4000244141</ele>
        <time>2024-09-22T14:14:15.000Z</time>
      </trkpt>
      <trkpt lat="42.90422" lon="19.26955">
        <ele>1469.9899902344</ele>
        <time>2024-09-22T14:14:17.000Z</time>
      </trkpt>
      <trkpt lat="42.90412" lon="19.26972">
        <ele>1468.0699462891</ele>
        <time>2024-09-22T14:14:18.000Z</time>
      </trkpt>
      <trkpt lat="42.904" lon="19.26991">
        <ele>1466.1500244141</ele>
        <time>2024-09-22T14:14:19.000Z</time>
      </trkpt>
      <trkpt lat="42.90393" lon="19.27003">
        <ele>1464.7099609375</ele>
        <time>2024-09-22T14:14:20.000Z</time>
      </trkpt>
      <trkpt lat="42.90385" lon="19.27017">
        <ele>1463.7399902344</ele>
        <time>2024-09-22T14:14:21.000Z</time>
      </trkpt>
      <trkpt lat="42.90353" lon="19.27082">
        <ele>1458.9399414062</ele>
        <time>2024-09-22T14:14:24.000Z</time>
      </trkpt>
      <trkpt lat="42.90346" lon="19.27093">
        <ele>1457.9799804688</ele>
        <time>2024-09-22T14:14:25.000Z</time>
      </trkpt>
      <trkpt lat="42.90234" lon="19.27226">
        <ele>1445.9599609375</ele>
        <time>2024-09-22T14:14:33.000Z</time>
      </trkpt>
      <trkpt lat="42.90221" lon="19.27238">
        <ele>1444.5200195312</ele>
        <time>2024-09-22T14:14:34.000Z</time>
      </trkpt>
      <trkpt lat="42.90204" lon="19.27249">
        <ele>1442.5999755859</ele>
        <time>2024-09-22T14:14:35.000Z</time>
      </trkpt>
      <trkpt lat="42.9012" lon="19.27301">
        <ele>1432.5</ele>
        <time>2024-09-22T14:14:40.000Z</time>
      </trkpt>
      <trkpt lat="42.90103" lon="19.27313">
        <ele>1430.0999755859</ele>
        <time>2024-09-22T14:14:41.000Z</time>
      </trkpt>
      <trkpt lat="42.90081" lon="19.27327">
        <ele>1427.6999511719</ele>
        <time>2024-09-22T14:14:43.000Z</time>
      </trkpt>
      <trkpt lat="42.90046" lon="19.27346">
        <ele>1426.25</ele>
        <time>2024-09-22T14:14:45.000Z</time>
      </trkpt>
      <trkpt lat="42.90007" lon="19.27367">
        <ele>1423.8499755859</ele>
        <time>2024-09-22T14:14:48.000Z</time>
      </trkpt>
      <trkpt lat="42.89998" lon="19.27372">
        <ele>1423.8499755859</ele>
        <time>2024-09-22T14:14:49.000Z</time>
      </trkpt>
      <trkpt lat="42.89987" lon="19.27381">
        <ele>1422.8900146484</ele>
        <time>2024-09-22T14:14:50.000Z</time>
      </trkpt>
      <trkpt lat="42.89977" lon="19.27392">
        <ele>1421.9300537109</ele>
        <time>2024-09-22T14:14:51.000Z</time>
      </trkpt>
      <trkpt lat="42.89969" lon="19.27399">
        <ele>1421.4499511719</ele>
        <time>2024-09-22T14:14:52.000Z</time>
      </trkpt>
      <trkpt lat="42.89954" lon="19.27405">
        <ele>1420.4899902344</ele>
        <time>2024-09-22T14:14:53.000Z</time>
      </trkpt>
      <trkpt lat="42.89938" lon="19.27412">
        <ele>1418.0799560547</ele>
        <time>2024-09-22T14:14:54.000Z</time>
      </trkpt>
      <trkpt lat="42.89914" lon="19.27425">
        <ele>1414.2399902344</ele>
        <time>2024-09-22T14:14:56.000Z</time>
      </trkpt>
      <trkpt lat="42.89907" lon="19.2743">
        <ele>1413.2800292969</ele>
        <time>2024-09-22T14:14:57.000Z</time>
      </trkpt>
      <trkpt lat="42.89852" lon="19.27482">
        <ele>1406.0699462891</ele>
        <time>2024-09-22T14:15:01.000Z</time>
      </trkpt>
      <trkpt lat="42.89848" lon="19.27486">
        <ele>1405.5799560547</ele>
        <time>2024-09-22T14:15:02.000Z</time>
      </trkpt>
      <trkpt lat="42.89838" lon="19.27497">
        <ele>1404.6199951172</ele>
        <time>2024-09-22T14:15:03.000Z</time>
      </trkpt>
      <trkpt lat="42.89828" lon="19.27512">
        <ele>1403.1800537109</ele>
        <time>2024-09-22T14:15:04.000Z</time>
      </trkpt>
      <trkpt lat="42.89819" lon="19.27528">
        <ele>1401.7399902344</ele>
        <time>2024-09-22T14:15:05.000Z</time>
      </trkpt>
      <trkpt lat="42.89801" lon="19.27559">
        <ele>1398.8599853516</ele>
        <time>2024-09-22T14:15:07.000Z</time>
      </trkpt>
      <trkpt lat="42.89789" lon="19.27576">
        <ele>1396.9300537109</ele>
        <time>2024-09-22T14:15:08.000Z</time>
      </trkpt>
      <trkpt lat="42.89764" lon="19.27602">
        <ele>1393.0899658203</ele>
        <time>2024-09-22T14:15:10.000Z</time>
      </trkpt>
      <trkpt lat="42.89752" lon="19.27615">
        <ele>1391.1700439453</ele>
        <time>2024-09-22T14:15:11.000Z</time>
      </trkpt>
      <trkpt lat="42.89703" lon="19.27667">
        <ele>1382.0300292969</ele>
        <time>2024-09-22T14:15:14.000Z</time>
      </trkpt>
      <trkpt lat="42.89691" lon="19.27679">
        <ele>1380.5899658203</ele>
        <time>2024-09-22T14:15:15.000Z</time>
      </trkpt>
      <trkpt lat="42.89657" lon="19.27707">
        <ele>1377.2299804688</ele>
        <time>2024-09-22T14:15:17.000Z</time>
      </trkpt>
      <trkpt lat="42.89651" lon="19.27714">
        <ele>1376.75</ele>
        <time>2024-09-22T14:15:18.000Z</time>
      </trkpt>
      <trkpt lat="42.89641" lon="19.27728">
        <ele>1376.2600097656</ele>
        <time>2024-09-22T14:15:19.000Z</time>
      </trkpt>
      <trkpt lat="42.8963" lon="19.27747">
        <ele>1374.8199462891</ele>
        <time>2024-09-22T14:15:20.000Z</time>
      </trkpt>
      <trkpt lat="42.89621" lon="19.27761">
        <ele>1373.8599853516</ele>
        <time>2024-09-22T14:15:21.000Z</time>
      </trkpt>
      <trkpt lat="42.89608" lon="19.27775">
        <ele>1372.4200439453</ele>
        <time>2024-09-22T14:15:22.000Z</time>
      </trkpt>
      <trkpt lat="42.89594" lon="19.27784">
        <ele>1372.4200439453</ele>
        <time>2024-09-22T14:15:23.000Z</time>
      </trkpt>
      <trkpt lat="42.89579" lon="19.27789">
        <ele>1372.4200439453</ele>
        <time>2024-09-22T14:15:24.000Z</time>
      </trkpt>
      <trkpt lat="42.89562" lon="19.27791">
        <ele>1371.9399414062</ele>
        <time>2024-09-22T14:15:25.000Z</time>
      </trkpt>
      <trkpt lat="42.8955" lon="19.27795">
        <ele>1371.4599609375</ele>
        <time>2024-09-22T14:15:26.000Z</time>
      </trkpt>
      <trkpt lat="42.89538" lon="19.27803">
        <ele>1369.5400390625</ele>
        <time>2024-09-22T14:15:27.000Z</time>
      </trkpt>
      <trkpt lat="42.89527" lon="19.27814">
        <ele>1368.0899658203</ele>
        <time>2024-09-22T14:15:28.000Z</time>
      </trkpt>
      <trkpt lat="42.89516" lon="19.27833">
        <ele>1366.1700439453</ele>
        <time>2024-09-22T14:15:29.000Z</time>
      </trkpt>
      <trkpt lat="42.89511" lon="19.2784">
        <ele>1365.6899414062</ele>
        <time>2024-09-22T14:15:30.000Z</time>
      </trkpt>
      <trkpt lat="42.89503" lon="19.27846">
        <ele>1364.25</ele>
        <time>2024-09-22T14:15:31.000Z</time>
      </trkpt>
      <trkpt lat="42.89495" lon="19.27845">
        <ele>1363.7700195312</ele>
        <time>2024-09-22T14:15:32.000Z</time>
      </trkpt>
      <trkpt lat="42.89491" lon="19.27838">
        <ele>1362.8100585938</ele>
        <time>2024-09-22T14:15:33.000Z</time>
      </trkpt>
      <trkpt lat="42.8949" lon="19.2783">
        <ele>1361.3599853516</ele>
        <time>2024-09-22T14:15:34.000Z</time>
      </trkpt>
      <trkpt lat="42.89494" lon="19.27821">
        <ele>1360.4000244141</ele>
        <time>2024-09-22T14:15:35.000Z</time>
      </trkpt>
      <trkpt lat="42.89501" lon="19.27807">
        <ele>1359.9200439453</ele>
        <time>2024-09-22T14:15:36.000Z</time>
      </trkpt>
      <trkpt lat="42.89512" lon="19.27774">
        <ele>1358</ele>
        <time>2024-09-22T14:15:38.000Z</time>
      </trkpt>
      <trkpt lat="42.89519" lon="19.27759">
        <ele>1357.0400390625</ele>
        <time>2024-09-22T14:15:39.000Z</time>
      </trkpt>
      <trkpt lat="42.89527" lon="19.27747">
        <ele>1355.1199951172</ele>
        <time>2024-09-22T14:15:40.000Z</time>
      </trkpt>
      <trkpt lat="42.89538" lon="19.2774">
        <ele>1353.6700439453</ele>
        <time>2024-09-22T14:15:41.000Z</time>
      </trkpt>
      <trkpt lat="42.89549" lon="19.27735">
        <ele>1352.7099609375</ele>
        <time>2024-09-22T14:15:42.000Z</time>
      </trkpt>
      <trkpt lat="42.89565" lon="19.27733">
        <ele>1350.7900390625</ele>
        <time>2024-09-22T14:15:43.000Z</time>
      </trkpt>
      <trkpt lat="42.89576" lon="19.27732">
        <ele>1349.8299560547</ele>
        <time>2024-09-22T14:15:44.000Z</time>
      </trkpt>
      <trkpt lat="42.89588" lon="19.27727">
        <ele>1347.9100341797</ele>
        <time>2024-09-22T14:15:45.000Z</time>
      </trkpt>
      <trkpt lat="42.89598" lon="19.27714">
        <ele>1346.9399414062</ele>
        <time>2024-09-22T14:15:46.000Z</time>
      </trkpt>
      <trkpt lat="42.89663" lon="19.27597">
        <ele>1337.3299560547</ele>
        <time>2024-09-22T14:15:52.000Z</time>
      </trkpt>
      <trkpt lat="42.89688" lon="19.27553">
        <ele>1332.5200195312</ele>
        <time>2024-09-22T14:15:54.000Z</time>
      </trkpt>
      <trkpt lat="42.8969" lon="19.2755">
        <ele>1332.0400390625</ele>
        <time>2024-09-22T14:15:55.000Z</time>
      </trkpt>
      <trkpt lat="42.89706" lon="19.27526">
        <ele>1329.6400146484</ele>
        <time>2024-09-22T14:15:56.000Z</time>
      </trkpt>
      <trkpt lat="42.89714" lon="19.27513">
        <ele>1328.1999511719</ele>
        <time>2024-09-22T14:15:57.000Z</time>
      </trkpt>
      <trkpt lat="42.89724" lon="19.27491">
        <ele>1326.2800292969</ele>
        <time>2024-09-22T14:15:58.000Z</time>
      </trkpt>
      <trkpt lat="42.8974" lon="19.27455">
        <ele>1322.9100341797</ele>
        <time>2024-09-22T14:15:59.000Z</time>
      </trkpt>
      <trkpt lat="42.89747" lon="19.27441">
        <ele>1321.9499511719</ele>
        <time>2024-09-22T14:16:00.000Z</time>
      </trkpt>
      <trkpt lat="42.89752" lon="19.27431">
        <ele>1320.9899902344</ele>
        <time>2024-09-22T14:16:01.000Z</time>
      </trkpt>
      <trkpt lat="42.89771" lon="19.27402">
        <ele>1318.0999755859</ele>
        <time>2024-09-22T14:16:02.000Z</time>
      </trkpt>
      <trkpt lat="42.89782" lon="19.27385">
        <ele>1316.6600341797</ele>
        <time>2024-09-22T14:16:03.000Z</time>
      </trkpt>
      <trkpt lat="42.89828" lon="19.27302">
        <ele>1309.9300537109</ele>
        <time>2024-09-22T14:16:07.000Z</time>
      </trkpt>
      <trkpt lat="42.89835" lon="19.27291">
        <ele>1308.9699707031</ele>
        <time>2024-09-22T14:16:08.000Z</time>
      </trkpt>
      <trkpt lat="42.89859" lon="19.2726">
        <ele>1306.0899658203</ele>
        <time>2024-09-22T14:16:10.000Z</time>
      </trkpt>
      <trkpt lat="42.89873" lon="19.27244">
        <ele>1304.6500244141</ele>
        <time>2024-09-22T14:16:11.000Z</time>
      </trkpt>
      <trkpt lat="42.89893" lon="19.27224">
        <ele>1302.2399902344</ele>
        <time>2024-09-22T14:16:12.000Z</time>
      </trkpt>
      <trkpt lat="42.89903" lon="19.27215">
        <ele>1300.8000488281</ele>
        <time>2024-09-22T14:16:13.000Z</time>
      </trkpt>
      <trkpt lat="42.89914" lon="19.27203">
        <ele>1299.8399658203</ele>
        <time>2024-09-22T14:16:14.000Z</time>
      </trkpt>
      <trkpt lat="42.89927" lon="19.27186">
        <ele>1298.4000244141</ele>
        <time>2024-09-22T14:16:15.000Z</time>
      </trkpt>
      <trkpt lat="42.8994" lon="19.27165">
        <ele>1296.4799804688</ele>
        <time>2024-09-22T14:16:16.000Z</time>
      </trkpt>
      <trkpt lat="42.89971" lon="19.27114">
        <ele>1292.6300048828</ele>
        <time>2024-09-22T14:16:18.000Z</time>
      </trkpt>
      <trkpt lat="42.9001" lon="19.2706">
        <ele>1288.3000488281</ele>
        <time>2024-09-22T14:16:22.000Z</time>
      </trkpt>
      <trkpt lat="42.90022" lon="19.27045">
        <ele>1286.8599853516</ele>
        <time>2024-09-22T14:16:23.000Z</time>
      </trkpt>
      <trkpt lat="42.90027" lon="19.27036">
        <ele>1286.3800048828</ele>
        <time>2024-09-22T14:16:24.000Z</time>
      </trkpt>
      <trkpt lat="42.9003" lon="19.27024">
        <ele>1285.9000244141</ele>
        <time>2024-09-22T14:16:25.000Z</time>
      </trkpt>
      <trkpt lat="42.90029" lon="19.27016">
        <ele>1285.4200439453</ele>
        <time>2024-09-22T14:16:26.000Z</time>
      </trkpt>
      <trkpt lat="42.90019" lon="19.27014">
        <ele>1283.0200195312</ele>
        <time>2024-09-22T14:16:28.000Z</time>
      </trkpt>
      <trkpt lat="42.90011" lon="19.27022">
        <ele>1282.0600585938</ele>
        <time>2024-09-22T14:16:29.000Z</time>
      </trkpt>
      <trkpt lat="42.90001" lon="19.27039">
        <ele>1281.5699462891</ele>
        <time>2024-09-22T14:16:30.000Z</time>
      </trkpt>
      <trkpt lat="42.89991" lon="19.27049">
        <ele>1280.6099853516</ele>
        <time>2024-09-22T14:16:31.000Z</time>
      </trkpt>
      <trkpt lat="42.89955" lon="19.27083">
        <ele>1277.25</ele>
        <time>2024-09-22T14:16:33.000Z</time>
      </trkpt>
      <trkpt lat="42.89929" lon="19.27106">
        <ele>1273.8800048828</ele>
        <time>2024-09-22T14:16:35.000Z</time>
      </trkpt>
      <trkpt lat="42.89915" lon="19.27117">
        <ele>1272.9200439453</ele>
        <time>2024-09-22T14:16:36.000Z</time>
      </trkpt>
      <trkpt lat="42.89893" lon="19.27131">
        <ele>1271</ele>
        <time>2024-09-22T14:16:37.000Z</time>
      </trkpt>
      <trkpt lat="42.89878" lon="19.27139">
        <ele>1270.0400390625</ele>
        <time>2024-09-22T14:16:38.000Z</time>
      </trkpt>
      <trkpt lat="42.89818" lon="19.27162">
        <ele>1265.2299804688</ele>
        <time>2024-09-22T14:16:41.000Z</time>
      </trkpt>
      <trkpt lat="42.89813" lon="19.27165">
        <ele>1265.2299804688</ele>
        <time>2024-09-22T14:16:42.000Z</time>
      </trkpt>
      <trkpt lat="42.89801" lon="19.27172">
        <ele>1263.7900390625</ele>
        <time>2024-09-22T14:16:43.000Z</time>
      </trkpt>
      <trkpt lat="42.89782" lon="19.2719">
        <ele>1261.8699951172</ele>
        <time>2024-09-22T14:16:44.000Z</time>
      </trkpt>
      <trkpt lat="42.89658" lon="19.27327">
        <ele>1245.5300292969</ele>
        <time>2024-09-22T14:16:52.000Z</time>
      </trkpt>
      <trkpt lat="42.89541" lon="19.27454">
        <ele>1235.9100341797</ele>
        <time>2024-09-22T14:17:00.000Z</time>
      </trkpt>
      <trkpt lat="42.8953" lon="19.27463">
        <ele>1235.4300537109</ele>
        <time>2024-09-22T14:17:01.000Z</time>
      </trkpt>
      <trkpt lat="42.89514" lon="19.27471">
        <ele>1234.4699707031</ele>
        <time>2024-09-22T14:17:02.000Z</time>
      </trkpt>
      <trkpt lat="42.89497" lon="19.27476">
        <ele>1233.9899902344</ele>
        <time>2024-09-22T14:17:03.000Z</time>
      </trkpt>
      <trkpt lat="42.89441" lon="19.27483">
        <ele>1231.1099853516</ele>
        <time>2024-09-22T14:17:06.000Z</time>
      </trkpt>
      <trkpt lat="42.89425" lon="19.27486">
        <ele>1230.1400146484</ele>
        <time>2024-09-22T14:17:07.000Z</time>
      </trkpt>
      <trkpt lat="42.89406" lon="19.27493">
        <ele>1229.6600341797</ele>
        <time>2024-09-22T14:17:08.000Z</time>
      </trkpt>
      <trkpt lat="42.89385" lon="19.27503">
        <ele>1229.1800537109</ele>
        <time>2024-09-22T14:17:09.000Z</time>
      </trkpt>
      <trkpt lat="42.8937" lon="19.27512">
        <ele>1228.6999511719</ele>
        <time>2024-09-22T14:17:10.000Z</time>
      </trkpt>
      <trkpt lat="42.89356" lon="19.27522">
        <ele>1228.2199707031</ele>
        <time>2024-09-22T14:17:11.000Z</time>
      </trkpt>
      <trkpt lat="42.89341" lon="19.27536">
        <ele>1227.2600097656</ele>
        <time>2024-09-22T14:17:12.000Z</time>
      </trkpt>
      <trkpt lat="42.89329" lon="19.27552">
        <ele>1227.2600097656</ele>
        <time>2024-09-22T14:17:13.000Z</time>
      </trkpt>
      <trkpt lat="42.89319" lon="19.27571">
        <ele>1226.3000488281</ele>
        <time>2024-09-22T14:17:14.000Z</time>
      </trkpt>
      <trkpt lat="42.89309" lon="19.27597">
        <ele>1224.8599853516</ele>
        <time>2024-09-22T14:17:15.000Z</time>
      </trkpt>
      <trkpt lat="42.89303" lon="19.27612">
        <ele>1224.3800048828</ele>
        <time>2024-09-22T14:17:16.000Z</time>
      </trkpt>
      <trkpt lat="42.89292" lon="19.27636">
        <ele>1222.9300537109</ele>
        <time>2024-09-22T14:17:17.000Z</time>
      </trkpt>
      <trkpt lat="42.89279" lon="19.27656">
        <ele>1221.9699707031</ele>
        <time>2024-09-22T14:17:18.000Z</time>
      </trkpt>
      <trkpt lat="42.89264" lon="19.27676">
        <ele>1220.0500488281</ele>
        <time>2024-09-22T14:17:19.000Z</time>
      </trkpt>
      <trkpt lat="42.89252" lon="19.27693">
        <ele>1218.1300048828</ele>
        <time>2024-09-22T14:17:20.000Z</time>
      </trkpt>
      <trkpt lat="42.89245" lon="19.27703">
        <ele>1217.6500244141</ele>
        <time>2024-09-22T14:17:21.000Z</time>
      </trkpt>
      <trkpt lat="42.89236" lon="19.27722">
        <ele>1215.7199707031</ele>
        <time>2024-09-22T14:17:22.000Z</time>
      </trkpt>
      <trkpt lat="42.89228" lon="19.27743">
        <ele>1214.2800292969</ele>
        <time>2024-09-22T14:17:23.000Z</time>
      </trkpt>
      <trkpt lat="42.892" lon="19.27848">
        <ele>1207.5500488281</ele>
        <time>2024-09-22T14:17:27.000Z</time>
      </trkpt>
      <trkpt lat="42.89196" lon="19.27861">
        <ele>1206.5899658203</ele>
        <time>2024-09-22T14:17:28.000Z</time>
      </trkpt>
      <trkpt lat="42.89189" lon="19.27879">
        <ele>1205.1500244141</ele>
        <time>2024-09-22T14:17:29.000Z</time>
      </trkpt>
      <trkpt lat="42.89179" lon="19.27898">
        <ele>1203.2299804688</ele>
        <time>2024-09-22T14:17:30.000Z</time>
      </trkpt>
      <trkpt lat="42.89167" lon="19.27913">
        <ele>1201.7900390625</ele>
        <time>2024-09-22T14:17:31.000Z</time>
      </trkpt>
      <trkpt lat="42.89153" lon="19.27926">
        <ele>1199.3800048828</ele>
        <time>2024-09-22T14:17:32.000Z</time>
      </trkpt>
      <trkpt lat="42.89076" lon="19.27969">
        <ele>1191.6899414062</ele>
        <time>2024-09-22T14:17:36.000Z</time>
      </trkpt>
      <trkpt lat="42.89059" lon="19.27979">
        <ele>1190.25</ele>
        <time>2024-09-22T14:17:37.000Z</time>
      </trkpt>
      <trkpt lat="42.89051" lon="19.27985">
        <ele>1188.8100585938</ele>
        <time>2024-09-22T14:17:38.000Z</time>
      </trkpt>
      <trkpt lat="42.89033" lon="19.28001">
        <ele>1186.4000244141</ele>
        <time>2024-09-22T14:17:39.000Z</time>
      </trkpt>
      <trkpt lat="42.8895" lon="19.28099">
        <ele>1175.8299560547</ele>
        <time>2024-09-22T14:17:44.000Z</time>
      </trkpt>
      <trkpt lat="42.8889" lon="19.28181">
        <ele>1168.6199951172</ele>
        <time>2024-09-22T14:17:48.000Z</time>
      </trkpt>
      <trkpt lat="42.88848" lon="19.28238">
        <ele>1164.2900390625</ele>
        <time>2024-09-22T14:17:51.000Z</time>
      </trkpt>
      <trkpt lat="42.88732" lon="19.28376">
        <ele>1151.8000488281</ele>
        <time>2024-09-22T14:17:59.000Z</time>
      </trkpt>
      <trkpt lat="42.88678" lon="19.28439">
        <ele>1145.5500488281</ele>
        <time>2024-09-22T14:18:03.000Z</time>
      </trkpt>
      <trkpt lat="42.88615" lon="19.28519">
        <ele>1136.9000244141</ele>
        <time>2024-09-22T14:18:07.000Z</time>
      </trkpt>
      <trkpt lat="42.88608" lon="19.28531">
        <ele>1135.9399414062</ele>
        <time>2024-09-22T14:18:08.000Z</time>
      </trkpt>
      <trkpt lat="42.88597" lon="19.28551">
        <ele>1134.0100097656</ele>
        <time>2024-09-22T14:18:09.000Z</time>
      </trkpt>
      <trkpt lat="42.88587" lon="19.28571">
        <ele>1132.0899658203</ele>
        <time>2024-09-22T14:18:10.000Z</time>
      </trkpt>
      <trkpt lat="42.88535" lon="19.28745">
        <ele>1118.1500244141</ele>
        <time>2024-09-22T14:18:16.000Z</time>
      </trkpt>
      <trkpt lat="42.8852" lon="19.28813">
        <ele>1112.8599853516</ele>
        <time>2024-09-22T14:18:19.000Z</time>
      </trkpt>
      <trkpt lat="42.88517" lon="19.28834">
        <ele>1111.4200439453</ele>
        <time>2024-09-22T14:18:20.000Z</time>
      </trkpt>
      <trkpt lat="42.88514" lon="19.28869">
        <ele>1108.5400390625</ele>
        <time>2024-09-22T14:18:21.000Z</time>
      </trkpt>
      <trkpt lat="42.88512" lon="19.28883">
        <ele>1107.5799560547</ele>
        <time>2024-09-22T14:18:22.000Z</time>
      </trkpt>
      <trkpt lat="42.88507" lon="19.28905">
        <ele>1105.1700439453</ele>
        <time>2024-09-22T14:18:23.000Z</time>
      </trkpt>
      <trkpt lat="42.88499" lon="19.28929">
        <ele>1103.25</ele>
        <time>2024-09-22T14:18:24.000Z</time>
      </trkpt>
      <trkpt lat="42.88494" lon="19.28947">
        <ele>1101.8100585938</ele>
        <time>2024-09-22T14:18:25.000Z</time>
      </trkpt>
      <trkpt lat="42.88479" lon="19.29023">
        <ele>1095.5600585938</ele>
        <time>2024-09-22T14:18:28.000Z</time>
      </trkpt>
      <trkpt lat="42.88477" lon="19.29037">
        <ele>1094.5999755859</ele>
        <time>2024-09-22T14:18:29.000Z</time>
      </trkpt>
      <trkpt lat="42.88476" lon="19.29056">
        <ele>1093.1600341797</ele>
        <time>2024-09-22T14:18:30.000Z</time>
      </trkpt>
      <trkpt lat="42.88478" lon="19.29076">
        <ele>1091.2299804688</ele>
        <time>2024-09-22T14:18:31.000Z</time>
      </trkpt>
      <trkpt lat="42.88482" lon="19.29096">
        <ele>1089.7900390625</ele>
        <time>2024-09-22T14:18:32.000Z</time>
      </trkpt>
      <trkpt lat="42.8849" lon="19.29121">
        <ele>1087.8699951172</ele>
        <time>2024-09-22T14:18:33.000Z</time>
      </trkpt>
      <trkpt lat="42.88493" lon="19.29132">
        <ele>1086.9100341797</ele>
        <time>2024-09-22T14:18:34.000Z</time>
      </trkpt>
      <trkpt lat="42.88496" lon="19.29148">
        <ele>1085.4699707031</ele>
        <time>2024-09-22T14:18:35.000Z</time>
      </trkpt>
      <trkpt lat="42.88495" lon="19.29164">
        <ele>1084.0200195312</ele>
        <time>2024-09-22T14:18:36.000Z</time>
      </trkpt>
      <trkpt lat="42.88492" lon="19.29181">
        <ele>1082.5799560547</ele>
        <time>2024-09-22T14:18:37.000Z</time>
      </trkpt>
      <trkpt lat="42.88481" lon="19.2922">
        <ele>1079.2199707031</ele>
        <time>2024-09-22T14:18:39.000Z</time>
      </trkpt>
      <trkpt lat="42.88463" lon="19.29275">
        <ele>1074.8900146484</ele>
        <time>2024-09-22T14:18:41.000Z</time>
      </trkpt>
      <trkpt lat="42.8846" lon="19.29285">
        <ele>1073.9300537109</ele>
        <time>2024-09-22T14:18:42.000Z</time>
      </trkpt>
      <trkpt lat="42.88457" lon="19.293">
        <ele>1072.9699707031</ele>
        <time>2024-09-22T14:18:43.000Z</time>
      </trkpt>
      <trkpt lat="42.88453" lon="19.29322">
        <ele>1071.0500488281</ele>
        <time>2024-09-22T14:18:44.000Z</time>
      </trkpt>
      <trkpt lat="42.8845" lon="19.29353">
        <ele>1069.1199951172</ele>
        <time>2024-09-22T14:18:45.000Z</time>
      </trkpt>
      <trkpt lat="42.88449" lon="19.29418">
        <ele>1064.3199462891</ele>
        <time>2024-09-22T14:18:48.000Z</time>
      </trkpt>
      <trkpt lat="42.88446" lon="19.2944">
        <ele>1062.8699951172</ele>
        <time>2024-09-22T14:18:49.000Z</time>
      </trkpt>
      <trkpt lat="42.88442" lon="19.2946">
        <ele>1061.4300537109</ele>
        <time>2024-09-22T14:18:50.000Z</time>
      </trkpt>
      <trkpt lat="42.88436" lon="19.29481">
        <ele>1059.9899902344</ele>
        <time>2024-09-22T14:18:51.000Z</time>
      </trkpt>
      <trkpt lat="42.88422" lon="19.29516">
        <ele>1057.1099853516</ele>
        <time>2024-09-22T14:18:52.000Z</time>
      </trkpt>
      <trkpt lat="42.88369" lon="19.29637">
        <ele>1049.9000244141</ele>
        <time>2024-09-22T14:18:58.000Z</time>
      </trkpt>
      <trkpt lat="42.88365" lon="19.29645">
        <ele>1049.4200439453</ele>
        <time>2024-09-22T14:18:59.000Z</time>
      </trkpt>
      <trkpt lat="42.88354" lon="19.29666">
        <ele>1047.9699707031</ele>
        <time>2024-09-22T14:19:00.000Z</time>
      </trkpt>
      <trkpt lat="42.88339" lon="19.29686">
        <ele>1046.5300292969</ele>
        <time>2024-09-22T14:19:01.000Z</time>
      </trkpt>
      <trkpt lat="42.88314" lon="19.29715">
        <ele>1044.6099853516</ele>
        <time>2024-09-22T14:19:03.000Z</time>
      </trkpt>
      <trkpt lat="42.88295" lon="19.29734">
        <ele>1043.1700439453</ele>
        <time>2024-09-22T14:19:04.000Z</time>
      </trkpt>
      <trkpt lat="42.88282" lon="19.29746">
        <ele>1042.2099609375</ele>
        <time>2024-09-22T14:19:05.000Z</time>
      </trkpt>
      <trkpt lat="42.88214" lon="19.29788">
        <ele>1038.3599853516</ele>
        <time>2024-09-22T14:19:09.000Z</time>
      </trkpt>
      <trkpt lat="42.88166" lon="19.29811">
        <ele>1036.4399414062</ele>
        <time>2024-09-22T14:19:11.000Z</time>
      </trkpt>
      <trkpt lat="42.88152" lon="19.29816">
        <ele>1035.4799804688</ele>
        <time>2024-09-22T14:19:12.000Z</time>
      </trkpt>
      <trkpt lat="42.8813" lon="19.29822">
        <ele>1034.0400390625</ele>
        <time>2024-09-22T14:19:13.000Z</time>
      </trkpt>
      <trkpt lat="42.88008" lon="19.29864">
        <ele>1027.3100585938</ele>
        <time>2024-09-22T14:19:20.000Z</time>
      </trkpt>
      <trkpt lat="42.87921" lon="19.29899">
        <ele>1023.4600219727</ele>
        <time>2024-09-22T14:19:25.000Z</time>
      </trkpt>
      <trkpt lat="42.87904" lon="19.29908">
        <ele>1022.9799804688</ele>
        <time>2024-09-22T14:19:26.000Z</time>
      </trkpt>
      <trkpt lat="42.87888" lon="19.29919">
        <ele>1022.0200195312</ele>
        <time>2024-09-22T14:19:27.000Z</time>
      </trkpt>
      <trkpt lat="42.87876" lon="19.29932">
        <ele>1021.5399780273</ele>
        <time>2024-09-22T14:19:28.000Z</time>
      </trkpt>
      <trkpt lat="42.8782" lon="19.30017">
        <ele>1017.6900024414</ele>
        <time>2024-09-22T14:19:34.000Z</time>
      </trkpt>
      <trkpt lat="42.87814" lon="19.30031">
        <ele>1017.2100219727</ele>
        <time>2024-09-22T14:19:35.000Z</time>
      </trkpt>
      <trkpt lat="42.87809" lon="19.30048">
        <ele>1016.25</ele>
        <time>2024-09-22T14:19:36.000Z</time>
      </trkpt>
      <trkpt lat="42.87802" lon="19.30077">
        <ele>1014.8099975586</ele>
        <time>2024-09-22T14:19:37.000Z</time>
      </trkpt>
      <trkpt lat="42.8779" lon="19.30156">
        <ele>1011.4400024414</ele>
        <time>2024-09-22T14:19:41.000Z</time>
      </trkpt>
      <trkpt lat="42.87788" lon="19.3017">
        <ele>1010.9600219727</ele>
        <time>2024-09-22T14:19:42.000Z</time>
      </trkpt>
      <trkpt lat="42.87787" lon="19.30182">
        <ele>1010.4799804688</ele>
        <time>2024-09-22T14:19:43.000Z</time>
      </trkpt>
      <trkpt lat="42.87787" lon="19.30197">
        <ele>1010</ele>
        <time>2024-09-22T14:19:44.000Z</time>
      </trkpt>
      <trkpt lat="42.87786" lon="19.30206">
        <ele>1009.5200195312</ele>
        <time>2024-09-22T14:19:45.000Z</time>
      </trkpt>
      <trkpt lat="42.87784" lon="19.30218">
        <ele>1009.0399780273</ele>
        <time>2024-09-22T14:19:46.000Z</time>
      </trkpt>
      <trkpt lat="42.87781" lon="19.3023">
        <ele>1008.0800170898</ele>
        <time>2024-09-22T14:19:47.000Z</time>
      </trkpt>
      <trkpt lat="42.87776" lon="19.30242">
        <ele>1007.5999755859</ele>
        <time>2024-09-22T14:19:48.000Z</time>
      </trkpt>
      <trkpt lat="42.87769" lon="19.30254">
        <ele>1006.6400146484</ele>
        <time>2024-09-22T14:19:49.000Z</time>
      </trkpt>
      <trkpt lat="42.8776" lon="19.30265">
        <ele>1006.1599731445</ele>
        <time>2024-09-22T14:19:50.000Z</time>
      </trkpt>
      <trkpt lat="42.8774" lon="19.30286">
        <ele>1004.7199707031</ele>
        <time>2024-09-22T14:19:52.000Z</time>
      </trkpt>
      <trkpt lat="42.87728" lon="19.30296">
        <ele>1004.2299804688</ele>
        <time>2024-09-22T14:19:53.000Z</time>
      </trkpt>
      <trkpt lat="42.8772" lon="19.30304">
        <ele>1003.75</ele>
        <time>2024-09-22T14:19:54.000Z</time>
      </trkpt>
      <trkpt lat="42.87711" lon="19.30314">
        <ele>1003.2700195312</ele>
        <time>2024-09-22T14:19:55.000Z</time>
      </trkpt>
      <trkpt lat="42.87704" lon="19.30328">
        <ele>1002.7899780273</ele>
        <time>2024-09-22T14:19:56.000Z</time>
      </trkpt>
      <trkpt lat="42.87698" lon="19.30344">
        <ele>1002.3099975586</ele>
        <time>2024-09-22T14:19:57.000Z</time>
      </trkpt>
      <trkpt lat="42.87694" lon="19.30362">
        <ele>1001.8300170898</ele>
        <time>2024-09-22T14:19:58.000Z</time>
      </trkpt>
      <trkpt lat="42.87691" lon="19.30381">
        <ele>1001.3499755859</ele>
        <time>2024-09-22T14:19:59.000Z</time>
      </trkpt>
      <trkpt lat="42.87691" lon="19.30409">
        <ele>1000.3900146484</ele>
        <time>2024-09-22T14:20:00.000Z</time>
      </trkpt>
      <trkpt lat="42.87691" lon="19.30424">
        <ele>999.90997314453</ele>
        <time>2024-09-22T14:20:01.000Z</time>
      </trkpt>
      <trkpt lat="42.87687" lon="19.30476">
        <ele>997.98999023438</ele>
        <time>2024-09-22T14:20:03.000Z</time>
      </trkpt>
      <trkpt lat="42.87685" lon="19.3049">
        <ele>997.02001953125</ele>
        <time>2024-09-22T14:20:04.000Z</time>
      </trkpt>
      <trkpt lat="42.87679" lon="19.30527">
        <ele>994.61999511719</ele>
        <time>2024-09-22T14:20:05.000Z</time>
      </trkpt>
      <trkpt lat="42.87676" lon="19.30541">
        <ele>993.17999267578</ele>
        <time>2024-09-22T14:20:06.000Z</time>
      </trkpt>
      <trkpt lat="42.87658" lon="19.30616">
        <ele>988.84997558594</ele>
        <time>2024-09-22T14:20:09.000Z</time>
      </trkpt>
      <trkpt lat="42.87656" lon="19.30629">
        <ele>987.89001464844</ele>
        <time>2024-09-22T14:20:10.000Z</time>
      </trkpt>
      <trkpt lat="42.87654" lon="19.30649">
        <ele>986.92999267578</ele>
        <time>2024-09-22T14:20:11.000Z</time>
      </trkpt>
      <trkpt lat="42.87655" lon="19.30669">
        <ele>985.96997070312</ele>
        <time>2024-09-22T14:20:12.000Z</time>
      </trkpt>
      <trkpt lat="42.8766" lon="19.30708">
        <ele>984.04998779297</ele>
        <time>2024-09-22T14:20:13.000Z</time>
      </trkpt>
      <trkpt lat="42.8766" lon="19.30714">
        <ele>983.57000732422</ele>
        <time>2024-09-22T14:20:14.000Z</time>
      </trkpt>
      <trkpt lat="42.87661" lon="19.30737">
        <ele>982.11999511719</ele>
        <time>2024-09-22T14:20:15.000Z</time>
      </trkpt>
      <trkpt lat="42.8766" lon="19.30759">
        <ele>980.67999267578</ele>
        <time>2024-09-22T14:20:16.000Z</time>
      </trkpt>
      <trkpt lat="42.87653" lon="19.30799">
        <ele>977.79998779297</ele>
        <time>2024-09-22T14:20:17.000Z</time>
      </trkpt>
      <trkpt lat="42.87649" lon="19.30817">
        <ele>976.84002685547</ele>
        <time>2024-09-22T14:20:18.000Z</time>
      </trkpt>
      <trkpt lat="42.87637" lon="19.30863">
        <ele>973.46997070312</ele>
        <time>2024-09-22T14:20:20.000Z</time>
      </trkpt>
      <trkpt lat="42.87634" lon="19.30872">
        <ele>972.98999023438</ele>
        <time>2024-09-22T14:20:21.000Z</time>
      </trkpt>
      <trkpt lat="42.87626" lon="19.30893">
        <ele>971.54998779297</ele>
        <time>2024-09-22T14:20:22.000Z</time>
      </trkpt>
      <trkpt lat="42.87612" lon="19.30923">
        <ele>969.63000488281</ele>
        <time>2024-09-22T14:20:23.000Z</time>
      </trkpt>
      <trkpt lat="42.87522" lon="19.31064">
        <ele>958.09002685547</ele>
        <time>2024-09-22T14:20:30.000Z</time>
      </trkpt>
      <trkpt lat="42.87455" lon="19.31151">
        <ele>951.35998535156</ele>
        <time>2024-09-22T14:20:35.000Z</time>
      </trkpt>
      <trkpt lat="42.87449" lon="19.3116">
        <ele>950.88000488281</ele>
        <time>2024-09-22T14:20:36.000Z</time>
      </trkpt>
      <trkpt lat="42.8744" lon="19.31176">
        <ele>950.40002441406</ele>
        <time>2024-09-22T14:20:37.000Z</time>
      </trkpt>
      <trkpt lat="42.87435" lon="19.31194">
        <ele>949.91998291016</ele>
        <time>2024-09-22T14:20:38.000Z</time>
      </trkpt>
      <trkpt lat="42.87433" lon="19.31214">
        <ele>949.44000244141</ele>
        <time>2024-09-22T14:20:39.000Z</time>
      </trkpt>
      <trkpt lat="42.87434" lon="19.31236">
        <ele>948.96002197266</ele>
        <time>2024-09-22T14:20:40.000Z</time>
      </trkpt>
      <trkpt lat="42.87438" lon="19.31258">
        <ele>948.47998046875</ele>
        <time>2024-09-22T14:20:41.000Z</time>
      </trkpt>
      <trkpt lat="42.87443" lon="19.31281">
        <ele>947.52001953125</ele>
        <time>2024-09-22T14:20:42.000Z</time>
      </trkpt>
      <trkpt lat="42.87486" lon="19.31414">
        <ele>943.19000244141</ele>
        <time>2024-09-22T14:20:48.000Z</time>
      </trkpt>
      <trkpt lat="42.8749" lon="19.31431">
        <ele>942.71002197266</ele>
        <time>2024-09-22T14:20:49.000Z</time>
      </trkpt>
      <trkpt lat="42.87491" lon="19.31445">
        <ele>942.22998046875</ele>
        <time>2024-09-22T14:20:50.000Z</time>
      </trkpt>
      <trkpt lat="42.87488" lon="19.31454">
        <ele>941.27001953125</ele>
        <time>2024-09-22T14:20:51.000Z</time>
      </trkpt>
      <trkpt lat="42.87483" lon="19.31459">
        <ele>940.78997802734</ele>
        <time>2024-09-22T14:20:52.000Z</time>
      </trkpt>
      <trkpt lat="42.87476" lon="19.31459">
        <ele>940.30999755859</ele>
        <time>2024-09-22T14:20:53.000Z</time>
      </trkpt>
      <trkpt lat="42.8747" lon="19.31455">
        <ele>939.83001708984</ele>
        <time>2024-09-22T14:20:54.000Z</time>
      </trkpt>
      <trkpt lat="42.87465" lon="19.31446">
        <ele>939.34997558594</ele>
        <time>2024-09-22T14:20:55.000Z</time>
      </trkpt>
      <trkpt lat="42.87463" lon="19.31434">
        <ele>939.34997558594</ele>
        <time>2024-09-22T14:20:56.000Z</time>
      </trkpt>
      <trkpt lat="42.87463" lon="19.31412">
        <ele>938.85998535156</ele>
        <time>2024-09-22T14:20:57.000Z</time>
      </trkpt>
      <trkpt lat="42.87462" lon="19.31401">
        <ele>938.38000488281</ele>
        <time>2024-09-22T14:20:58.000Z</time>
      </trkpt>
      <trkpt lat="42.87459" lon="19.31378">
        <ele>937.90002441406</ele>
        <time>2024-09-22T14:20:59.000Z</time>
      </trkpt>
      <trkpt lat="42.87456" lon="19.31363">
        <ele>937.90002441406</ele>
        <time>2024-09-22T14:21:00.000Z</time>
      </trkpt>
      <trkpt lat="42.87449" lon="19.31344">
        <ele>937.41998291016</ele>
        <time>2024-09-22T14:21:01.000Z</time>
      </trkpt>
      <trkpt lat="42.87427" lon="19.3129">
        <ele>935.5</ele>
        <time>2024-09-22T14:21:03.000Z</time>
      </trkpt>
      <trkpt lat="42.87421" lon="19.31274">
        <ele>935.02001953125</ele>
        <time>2024-09-22T14:21:04.000Z</time>
      </trkpt>
      <trkpt lat="42.87416" lon="19.31255">
        <ele>934.05999755859</ele>
        <time>2024-09-22T14:21:05.000Z</time>
      </trkpt>
      <trkpt lat="42.87414" lon="19.31247">
        <ele>934.05999755859</ele>
        <time>2024-09-22T14:21:06.000Z</time>
      </trkpt>
      <trkpt lat="42.8741" lon="19.31228">
        <ele>933.58001708984</ele>
        <time>2024-09-22T14:21:07.000Z</time>
      </trkpt>
      <trkpt lat="42.8741" lon="19.31208">
        <ele>932.61999511719</ele>
        <time>2024-09-22T14:21:08.000Z</time>
      </trkpt>
      <trkpt lat="42.87413" lon="19.31188">
        <ele>932.14001464844</ele>
        <time>2024-09-22T14:21:09.000Z</time>
      </trkpt>
      <trkpt lat="42.8742" lon="19.31167">
        <ele>932.14001464844</ele>
        <time>2024-09-22T14:21:10.000Z</time>
      </trkpt>
      <trkpt lat="42.87463" lon="19.31054">
        <ele>926.84997558594</ele>
        <time>2024-09-22T14:21:14.000Z</time>
      </trkpt>
      <trkpt lat="42.87467" lon="19.31042">
        <ele>926.36999511719</ele>
        <time>2024-09-22T14:21:15.000Z</time>
      </trkpt>
      <trkpt lat="42.87471" lon="19.31021">
        <ele>925.40997314453</ele>
        <time>2024-09-22T14:21:16.000Z</time>
      </trkpt>
      <trkpt lat="42.87474" lon="19.30996">
        <ele>924.45001220703</ele>
        <time>2024-09-22T14:21:17.000Z</time>
      </trkpt>
      <trkpt lat="42.87476" lon="19.3095">
        <ele>923</ele>
        <time>2024-09-22T14:21:19.000Z</time>
      </trkpt>
      <trkpt lat="42.87479" lon="19.30926">
        <ele>921.55999755859</ele>
        <time>2024-09-22T14:21:20.000Z</time>
      </trkpt>
      <trkpt lat="42.87484" lon="19.30905">
        <ele>920.59997558594</ele>
        <time>2024-09-22T14:21:21.000Z</time>
      </trkpt>
      <trkpt lat="42.8749" lon="19.30884">
        <ele>919.64001464844</ele>
        <time>2024-09-22T14:21:22.000Z</time>
      </trkpt>
      <trkpt lat="42.87513" lon="19.30829">
        <ele>916.75</ele>
        <time>2024-09-22T14:21:24.000Z</time>
      </trkpt>
      <trkpt lat="42.87514" lon="19.30825">
        <ele>916.75</ele>
        <time>2024-09-22T14:21:25.000Z</time>
      </trkpt>
      <trkpt lat="42.8752" lon="19.30805">
        <ele>915.30999755859</ele>
        <time>2024-09-22T14:21:26.000Z</time>
      </trkpt>
      <trkpt lat="42.87523" lon="19.30784">
        <ele>914.34997558594</ele>
        <time>2024-09-22T14:21:27.000Z</time>
      </trkpt>
      <trkpt lat="42.87522" lon="19.3076">
        <ele>913.39001464844</ele>
        <time>2024-09-22T14:21:28.000Z</time>
      </trkpt>
      <trkpt lat="42.87516" lon="19.30707">
        <ele>910.51000976562</ele>
        <time>2024-09-22T14:21:30.000Z</time>
      </trkpt>
      <trkpt lat="42.87514" lon="19.30683">
        <ele>909.05999755859</ele>
        <time>2024-09-22T14:21:31.000Z</time>
      </trkpt>
      <trkpt lat="42.87513" lon="19.30661">
        <ele>908.09997558594</ele>
        <time>2024-09-22T14:21:32.000Z</time>
      </trkpt>
      <trkpt lat="42.87515" lon="19.3064">
        <ele>907.61999511719</ele>
        <time>2024-09-22T14:21:33.000Z</time>
      </trkpt>
      <trkpt lat="42.8752" lon="19.30621">
        <ele>906.17999267578</ele>
        <time>2024-09-22T14:21:34.000Z</time>
      </trkpt>
      <trkpt lat="42.87527" lon="19.30604">
        <ele>905.21997070312</ele>
        <time>2024-09-22T14:21:35.000Z</time>
      </trkpt>
      <trkpt lat="42.87537" lon="19.30587">
        <ele>904.26000976562</ele>
        <time>2024-09-22T14:21:36.000Z</time>
      </trkpt>
      <trkpt lat="42.87542" lon="19.30575">
        <ele>903.29998779297</ele>
        <time>2024-09-22T14:21:37.000Z</time>
      </trkpt>
      <trkpt lat="42.87545" lon="19.30559">
        <ele>902.82000732422</ele>
        <time>2024-09-22T14:21:38.000Z</time>
      </trkpt>
      <trkpt lat="42.87545" lon="19.30539">
        <ele>902.33001708984</ele>
        <time>2024-09-22T14:21:39.000Z</time>
      </trkpt>
      <trkpt lat="42.87543" lon="19.30517">
        <ele>901.36999511719</ele>
        <time>2024-09-22T14:21:40.000Z</time>
      </trkpt>
      <trkpt lat="42.87542" lon="19.30501">
        <ele>900.40997314453</ele>
        <time>2024-09-22T14:21:41.000Z</time>
      </trkpt>
      <trkpt lat="42.87541" lon="19.30469">
        <ele>899.45001220703</ele>
        <time>2024-09-22T14:21:42.000Z</time>
      </trkpt>
      <trkpt lat="42.8754" lon="19.30458">
        <ele>898.48999023438</ele>
        <time>2024-09-22T14:21:43.000Z</time>
      </trkpt>
      <trkpt lat="42.87537" lon="19.30436">
        <ele>897.53002929688</ele>
        <time>2024-09-22T14:21:44.000Z</time>
      </trkpt>
      <trkpt lat="42.87527" lon="19.30387">
        <ele>895.11999511719</ele>
        <time>2024-09-22T14:21:46.000Z</time>
      </trkpt>
      <trkpt lat="42.87523" lon="19.30369">
        <ele>894.15997314453</ele>
        <time>2024-09-22T14:21:47.000Z</time>
      </trkpt>
      <trkpt lat="42.87521" lon="19.30344">
        <ele>892.71997070312</ele>
        <time>2024-09-22T14:21:48.000Z</time>
      </trkpt>
      <trkpt lat="42.87519" lon="19.30304">
        <ele>891.28002929688</ele>
        <time>2024-09-22T14:21:49.000Z</time>
      </trkpt>
      <trkpt lat="42.87516" lon="19.30275">
        <ele>889.84002685547</ele>
        <time>2024-09-22T14:21:50.000Z</time>
      </trkpt>
      <trkpt lat="42.87516" lon="19.30268">
        <ele>889.35998535156</ele>
        <time>2024-09-22T14:21:51.000Z</time>
      </trkpt>
      <trkpt lat="42.87507" lon="19.30217">
        <ele>885.98999023438</ele>
        <time>2024-09-22T14:21:53.000Z</time>
      </trkpt>
      <trkpt lat="42.87505" lon="19.30204">
        <ele>885.03002929688</ele>
        <time>2024-09-22T14:21:54.000Z</time>
      </trkpt>
      <trkpt lat="42.87505" lon="19.30183">
        <ele>884.54998779297</ele>
        <time>2024-09-22T14:21:55.000Z</time>
      </trkpt>
      <trkpt lat="42.87509" lon="19.30161">
        <ele>883.59002685547</ele>
        <time>2024-09-22T14:21:56.000Z</time>
      </trkpt>
      <trkpt lat="42.87526" lon="19.30116">
        <ele>881.19000244141</ele>
        <time>2024-09-22T14:21:58.000Z</time>
      </trkpt>
      <trkpt lat="42.87531" lon="19.30098">
        <ele>880.21997070312</ele>
        <time>2024-09-22T14:21:59.000Z</time>
      </trkpt>
      <trkpt lat="42.87536" lon="19.30074">
        <ele>878.78002929688</ele>
        <time>2024-09-22T14:22:00.000Z</time>
      </trkpt>
      <trkpt lat="42.87539" lon="19.3005">
        <ele>877.82000732422</ele>
        <time>2024-09-22T14:22:01.000Z</time>
      </trkpt>
      <trkpt lat="42.87541" lon="19.30011">
        <ele>876.38000488281</ele>
        <time>2024-09-22T14:22:02.000Z</time>
      </trkpt>
      <trkpt lat="42.87542" lon="19.30001">
        <ele>875.90002441406</ele>
        <time>2024-09-22T14:22:03.000Z</time>
      </trkpt>
      <trkpt lat="42.87546" lon="19.29976">
        <ele>874.94000244141</ele>
        <time>2024-09-22T14:22:04.000Z</time>
      </trkpt>
      <trkpt lat="42.87557" lon="19.29934">
        <ele>873.5</ele>
        <time>2024-09-22T14:22:06.000Z</time>
      </trkpt>
      <trkpt lat="42.87563" lon="19.29913">
        <ele>873.01000976562</ele>
        <time>2024-09-22T14:22:07.000Z</time>
      </trkpt>
      <trkpt lat="42.87566" lon="19.29893">
        <ele>873.01000976562</ele>
        <time>2024-09-22T14:22:08.000Z</time>
      </trkpt>
      <trkpt lat="42.87569" lon="19.29854">
        <ele>872.04998779297</ele>
        <time>2024-09-22T14:22:10.000Z</time>
      </trkpt>
      <trkpt lat="42.87572" lon="19.29836">
        <ele>872.04998779297</ele>
        <time>2024-09-22T14:22:11.000Z</time>
      </trkpt>
      <trkpt lat="42.87576" lon="19.2982">
        <ele>871.57000732422</ele>
        <time>2024-09-22T14:22:12.000Z</time>
      </trkpt>
      <trkpt lat="42.87584" lon="19.29806">
        <ele>871.09002685547</ele>
        <time>2024-09-22T14:22:13.000Z</time>
      </trkpt>
      <trkpt lat="42.87594" lon="19.29793">
        <ele>871.09002685547</ele>
        <time>2024-09-22T14:22:14.000Z</time>
      </trkpt>
      <trkpt lat="42.87606" lon="19.29783">
        <ele>871.09002685547</ele>
        <time>2024-09-22T14:22:15.000Z</time>
      </trkpt>
      <trkpt lat="42.87614" lon="19.29773">
        <ele>870.60998535156</ele>
        <time>2024-09-22T14:22:16.000Z</time>
      </trkpt>
      <trkpt lat="42.87619" lon="19.29762">
        <ele>870.60998535156</ele>
        <time>2024-09-22T14:22:17.000Z</time>
      </trkpt>
      <trkpt lat="42.87619" lon="19.29752">
        <ele>871.09002685547</ele>
        <time>2024-09-22T14:22:18.000Z</time>
      </trkpt>
      <trkpt lat="42.87615" lon="19.29744">
        <ele>870.60998535156</ele>
        <time>2024-09-22T14:22:19.000Z</time>
      </trkpt>
      <trkpt lat="42.87607" lon="19.29741">
        <ele>869.65002441406</ele>
        <time>2024-09-22T14:22:20.000Z</time>
      </trkpt>
      <trkpt lat="42.87599" lon="19.29743">
        <ele>869.16998291016</ele>
        <time>2024-09-22T14:22:21.000Z</time>
      </trkpt>
      <trkpt lat="42.87592" lon="19.2975">
        <ele>868.69000244141</ele>
        <time>2024-09-22T14:22:22.000Z</time>
      </trkpt>
      <trkpt lat="42.8756" lon="19.29801">
        <ele>864.84002685547</ele>
        <time>2024-09-22T14:22:25.000Z</time>
      </trkpt>
      <trkpt lat="42.87557" lon="19.29806">
        <ele>864.35998535156</ele>
        <time>2024-09-22T14:22:26.000Z</time>
      </trkpt>
      <trkpt lat="42.87549" lon="19.29821">
        <ele>862.91998291016</ele>
        <time>2024-09-22T14:22:27.000Z</time>
      </trkpt>
      <trkpt lat="42.87542" lon="19.29839">
        <ele>860.52001953125</ele>
        <time>2024-09-22T14:22:28.000Z</time>
      </trkpt>
      <trkpt lat="42.87531" lon="19.29886">
        <ele>856.66998291016</ele>
        <time>2024-09-22T14:22:30.000Z</time>
      </trkpt>
      <trkpt lat="42.87528" lon="19.299">
        <ele>855.22998046875</ele>
        <time>2024-09-22T14:22:31.000Z</time>
      </trkpt>
      <trkpt lat="42.87522" lon="19.29919">
        <ele>853.78997802734</ele>
        <time>2024-09-22T14:22:32.000Z</time>
      </trkpt>
      <trkpt lat="42.87513" lon="19.29938">
        <ele>851.38000488281</ele>
        <time>2024-09-22T14:22:33.000Z</time>
      </trkpt>
      <trkpt lat="42.87503" lon="19.29954">
        <ele>848.97998046875</ele>
        <time>2024-09-22T14:22:34.000Z</time>
      </trkpt>
      <trkpt lat="42.87491" lon="19.2997">
        <ele>847.05999755859</ele>
        <time>2024-09-22T14:22:35.000Z</time>
      </trkpt>
      <trkpt lat="42.87482" lon="19.29988">
        <ele>845.14001464844</ele>
        <time>2024-09-22T14:22:36.000Z</time>
      </trkpt>
      <trkpt lat="42.87474" lon="19.30008">
        <ele>843.69000244141</ele>
        <time>2024-09-22T14:22:37.000Z</time>
      </trkpt>
      <trkpt lat="42.87454" lon="19.30072">
        <ele>839.36999511719</ele>
        <time>2024-09-22T14:22:39.000Z</time>
      </trkpt>
      <trkpt lat="42.87453" lon="19.30076">
        <ele>838.89001464844</ele>
        <time>2024-09-22T14:22:40.000Z</time>
      </trkpt>
      <trkpt lat="42.87447" lon="19.30095">
        <ele>837.92999267578</ele>
        <time>2024-09-22T14:22:41.000Z</time>
      </trkpt>
      <trkpt lat="42.87444" lon="19.30116">
        <ele>836</ele>
        <time>2024-09-22T14:22:42.000Z</time>
      </trkpt>
      <trkpt lat="42.87442" lon="19.30138">
        <ele>834.55999755859</ele>
        <time>2024-09-22T14:22:43.000Z</time>
      </trkpt>
      <trkpt lat="42.87444" lon="19.30198">
        <ele>829.76000976562</ele>
        <time>2024-09-22T14:22:45.000Z</time>
      </trkpt>
      <trkpt lat="42.87443" lon="19.30217">
        <ele>827.83001708984</ele>
        <time>2024-09-22T14:22:46.000Z</time>
      </trkpt>
      <trkpt lat="42.87442" lon="19.30233">
        <ele>826.39001464844</ele>
        <time>2024-09-22T14:22:47.000Z</time>
      </trkpt>
      <trkpt lat="42.87433" lon="19.30318">
        <ele>819.17999267578</ele>
        <time>2024-09-22T14:22:50.000Z</time>
      </trkpt>
      <trkpt lat="42.87432" lon="19.3035">
        <ele>816.78002929688</ele>
        <time>2024-09-22T14:22:52.000Z</time>
      </trkpt>
      <trkpt lat="42.8743" lon="19.3037">
        <ele>814.84997558594</ele>
        <time>2024-09-22T14:22:53.000Z</time>
      </trkpt>
      <trkpt lat="42.87426" lon="19.30394">
        <ele>812.92999267578</ele>
        <time>2024-09-22T14:22:54.000Z</time>
      </trkpt>
      <trkpt lat="42.87416" lon="19.30428">
        <ele>809.57000732422</ele>
        <time>2024-09-22T14:22:55.000Z</time>
      </trkpt>
      <trkpt lat="42.87414" lon="19.30436">
        <ele>809.09002685547</ele>
        <time>2024-09-22T14:22:56.000Z</time>
      </trkpt>
      <trkpt lat="42.87411" lon="19.30458">
        <ele>807.15997314453</ele>
        <time>2024-09-22T14:22:57.000Z</time>
      </trkpt>
      <trkpt lat="42.87409" lon="19.30483">
        <ele>805.23999023438</ele>
        <time>2024-09-22T14:22:58.000Z</time>
      </trkpt>
      <trkpt lat="42.87408" lon="19.30494">
        <ele>804.28002929688</ele>
        <time>2024-09-22T14:22:59.000Z</time>
      </trkpt>
      <trkpt lat="42.87404" lon="19.30507">
        <ele>803.32000732422</ele>
        <time>2024-09-22T14:23:00.000Z</time>
      </trkpt>
      <trkpt lat="42.87397" lon="19.30517">
        <ele>801.88000488281</ele>
        <time>2024-09-22T14:23:01.000Z</time>
      </trkpt>
      <trkpt lat="42.87388" lon="19.30526">
        <ele>800.44000244141</ele>
        <time>2024-09-22T14:23:02.000Z</time>
      </trkpt>
      <trkpt lat="42.87372" lon="19.30537">
        <ele>797.54998779297</ele>
        <time>2024-09-22T14:23:03.000Z</time>
      </trkpt>
      <trkpt lat="42.87353" lon="19.3055">
        <ele>794.66998291016</ele>
        <time>2024-09-22T14:23:04.000Z</time>
      </trkpt>
      <trkpt lat="42.8735" lon="19.30551">
        <ele>794.19000244141</ele>
        <time>2024-09-22T14:23:05.000Z</time>
      </trkpt>
      <trkpt lat="42.8734" lon="19.30561">
        <ele>793.21997070312</ele>
        <time>2024-09-22T14:23:06.000Z</time>
      </trkpt>
      <trkpt lat="42.87331" lon="19.30575">
        <ele>792.26000976562</ele>
        <time>2024-09-22T14:23:07.000Z</time>
      </trkpt>
      <trkpt lat="42.87323" lon="19.30593">
        <ele>790.82000732422</ele>
        <time>2024-09-22T14:23:08.000Z</time>
      </trkpt>
      <trkpt lat="42.87317" lon="19.30613">
        <ele>789.38000488281</ele>
        <time>2024-09-22T14:23:09.000Z</time>
      </trkpt>
      <trkpt lat="42.87308" lon="19.30638">
        <ele>787.94000244141</ele>
        <time>2024-09-22T14:23:10.000Z</time>
      </trkpt>
      <trkpt lat="42.87305" lon="19.30649">
        <ele>786.97998046875</ele>
        <time>2024-09-22T14:23:11.000Z</time>
      </trkpt>
      <trkpt lat="42.87301" lon="19.30669">
        <ele>785.04998779297</ele>
        <time>2024-09-22T14:23:12.000Z</time>
      </trkpt>
      <trkpt lat="42.873" lon="19.30689">
        <ele>784.09002685547</ele>
        <time>2024-09-22T14:23:13.000Z</time>
      </trkpt>
      <trkpt lat="42.87297" lon="19.30709">
        <ele>782.16998291016</ele>
        <time>2024-09-22T14:23:14.000Z</time>
      </trkpt>
      <trkpt lat="42.87293" lon="19.30728">
        <ele>780.72998046875</ele>
        <time>2024-09-22T14:23:15.000Z</time>
      </trkpt>
      <trkpt lat="42.87286" lon="19.30746">
        <ele>779.77001953125</ele>
        <time>2024-09-22T14:23:16.000Z</time>
      </trkpt>
      <trkpt lat="42.87268" lon="19.30781">
        <ele>776.88000488281</ele>
        <time>2024-09-22T14:23:17.000Z</time>
      </trkpt>
      <trkpt lat="42.87249" lon="19.30819">
        <ele>773.52001953125</ele>
        <time>2024-09-22T14:23:19.000Z</time>
      </trkpt>
      <trkpt lat="42.87245" lon="19.30826">
        <ele>773.03997802734</ele>
        <time>2024-09-22T14:23:20.000Z</time>
      </trkpt>
      <trkpt lat="42.87238" lon="19.30842">
        <ele>771.59997558594</ele>
        <time>2024-09-22T14:23:21.000Z</time>
      </trkpt>
      <trkpt lat="42.8723" lon="19.30869">
        <ele>769.66998291016</ele>
        <time>2024-09-22T14:23:22.000Z</time>
      </trkpt>
      <trkpt lat="42.87225" lon="19.30885">
        <ele>768.22998046875</ele>
        <time>2024-09-22T14:23:23.000Z</time>
      </trkpt>
      <trkpt lat="42.87218" lon="19.30902">
        <ele>766.30999755859</ele>
        <time>2024-09-22T14:23:24.000Z</time>
      </trkpt>
      <trkpt lat="42.87208" lon="19.30922">
        <ele>764.39001464844</ele>
        <time>2024-09-22T14:23:25.000Z</time>
      </trkpt>
      <trkpt lat="42.87184" lon="19.30958">
        <ele>761.02001953125</ele>
        <time>2024-09-22T14:23:27.000Z</time>
      </trkpt>
      <trkpt lat="42.87129" lon="19.31037">
        <ele>753.33001708984</ele>
        <time>2024-09-22T14:23:31.000Z</time>
      </trkpt>
      <trkpt lat="42.87107" lon="19.31066">
        <ele>749.96997070312</ele>
        <time>2024-09-22T14:23:33.000Z</time>
      </trkpt>
      <trkpt lat="42.8708" lon="19.31096">
        <ele>745.64001464844</ele>
        <time>2024-09-22T14:23:35.000Z</time>
      </trkpt>
      <trkpt lat="42.87075" lon="19.31102">
        <ele>745.15997314453</ele>
        <time>2024-09-22T14:23:36.000Z</time>
      </trkpt>
      <trkpt lat="42.87062" lon="19.31117">
        <ele>743.23999023438</ele>
        <time>2024-09-22T14:23:37.000Z</time>
      </trkpt>
      <trkpt lat="42.87053" lon="19.31133">
        <ele>741.30999755859</ele>
        <time>2024-09-22T14:23:38.000Z</time>
      </trkpt>
      <trkpt lat="42.87047" lon="19.31152">
        <ele>739.39001464844</ele>
        <time>2024-09-22T14:23:39.000Z</time>
      </trkpt>
      <trkpt lat="42.87043" lon="19.31172">
        <ele>737.46997070312</ele>
        <time>2024-09-22T14:23:40.000Z</time>
      </trkpt>
      <trkpt lat="42.87028" lon="19.31274">
        <ele>729.29998779297</ele>
        <time>2024-09-22T14:23:44.000Z</time>
      </trkpt>
      <trkpt lat="42.87025" lon="19.31289">
        <ele>727.85998535156</ele>
        <time>2024-09-22T14:23:45.000Z</time>
      </trkpt>
      <trkpt lat="42.87019" lon="19.31307">
        <ele>725.92999267578</ele>
        <time>2024-09-22T14:23:46.000Z</time>
      </trkpt>
      <trkpt lat="42.8701" lon="19.31321">
        <ele>724.48999023438</ele>
        <time>2024-09-22T14:23:47.000Z</time>
      </trkpt>
      <trkpt lat="42.86999" lon="19.3133">
        <ele>723.53002929688</ele>
        <time>2024-09-22T14:23:48.000Z</time>
      </trkpt>
      <trkpt lat="42.86989" lon="19.31333">
        <ele>723.04998779297</ele>
        <time>2024-09-22T14:23:49.000Z</time>
      </trkpt>
      <trkpt lat="42.8698" lon="19.31331">
        <ele>722.09002685547</ele>
        <time>2024-09-22T14:23:50.000Z</time>
      </trkpt>
      <trkpt lat="42.86974" lon="19.31325">
        <ele>721.13000488281</ele>
        <time>2024-09-22T14:23:51.000Z</time>
      </trkpt>
      <trkpt lat="42.86968" lon="19.31313">
        <ele>720.65002441406</ele>
        <time>2024-09-22T14:23:52.000Z</time>
      </trkpt>
      <trkpt lat="42.86961" lon="19.31299">
        <ele>720.65002441406</ele>
        <time>2024-09-22T14:23:53.000Z</time>
      </trkpt>
      <trkpt lat="42.86951" lon="19.31285">
        <ele>720.65002441406</ele>
        <time>2024-09-22T14:23:54.000Z</time>
      </trkpt>
      <trkpt lat="42.86941" lon="19.31276">
        <ele>720.65002441406</ele>
        <time>2024-09-22T14:23:55.000Z</time>
      </trkpt>
      <trkpt lat="42.8693" lon="19.31272">
        <ele>720.15997314453</ele>
        <time>2024-09-22T14:23:56.000Z</time>
      </trkpt>
      <trkpt lat="42.86921" lon="19.31273">
        <ele>719.20001220703</ele>
        <time>2024-09-22T14:23:57.000Z</time>
      </trkpt>
      <trkpt lat="42.86912" lon="19.31281">
        <ele>718.23999023438</ele>
        <time>2024-09-22T14:23:58.000Z</time>
      </trkpt>
      <trkpt lat="42.86899" lon="19.313">
        <ele>715.84002685547</ele>
        <time>2024-09-22T14:23:59.000Z</time>
      </trkpt>
      <trkpt lat="42.86876" lon="19.3133">
        <ele>711.98999023438</ele>
        <time>2024-09-22T14:24:01.000Z</time>
      </trkpt>
      <trkpt lat="42.86874" lon="19.31333">
        <ele>711.51000976562</ele>
        <time>2024-09-22T14:24:02.000Z</time>
      </trkpt>
      <trkpt lat="42.8686" lon="19.31346">
        <ele>710.07000732422</ele>
        <time>2024-09-22T14:24:03.000Z</time>
      </trkpt>
      <trkpt lat="42.86843" lon="19.3136">
        <ele>707.66998291016</ele>
        <time>2024-09-22T14:24:04.000Z</time>
      </trkpt>
      <trkpt lat="42.86717" lon="19.31439">
        <ele>699.5</ele>
        <time>2024-09-22T14:24:12.000Z</time>
      </trkpt>
      <trkpt lat="42.86705" lon="19.31449">
        <ele>698.53002929688</ele>
        <time>2024-09-22T14:24:13.000Z</time>
      </trkpt>
      <trkpt lat="42.86664" lon="19.31486">
        <ele>696.60998535156</ele>
        <time>2024-09-22T14:24:16.000Z</time>
      </trkpt>
      <trkpt lat="42.86643" lon="19.31504">
        <ele>695.65002441406</ele>
        <time>2024-09-22T14:24:17.000Z</time>
      </trkpt>
      <trkpt lat="42.86601" lon="19.31534">
        <ele>694.21002197266</ele>
        <time>2024-09-22T14:24:20.000Z</time>
      </trkpt>
      <trkpt lat="42.86581" lon="19.3155">
        <ele>693.25</ele>
        <time>2024-09-22T14:24:21.000Z</time>
      </trkpt>
      <trkpt lat="42.86575" lon="19.31555">
        <ele>692.77001953125</ele>
        <time>2024-09-22T14:24:22.000Z</time>
      </trkpt>
      <trkpt lat="42.8656" lon="19.31569">
        <ele>691.80999755859</ele>
        <time>2024-09-22T14:24:23.000Z</time>
      </trkpt>
      <trkpt lat="42.86528" lon="19.31609">
        <ele>690.35998535156</ele>
        <time>2024-09-22T14:24:25.000Z</time>
      </trkpt>
      <trkpt lat="42.86507" lon="19.31631">
        <ele>689.88000488281</ele>
        <time>2024-09-22T14:24:26.000Z</time>
      </trkpt>
      <trkpt lat="42.8648" lon="19.31657">
        <ele>688.44000244141</ele>
        <time>2024-09-22T14:24:28.000Z</time>
      </trkpt>
      <trkpt lat="42.86468" lon="19.3167">
        <ele>688.44000244141</ele>
        <time>2024-09-22T14:24:29.000Z</time>
      </trkpt>
      <trkpt lat="42.86397" lon="19.3176">
        <ele>684.11999511719</ele>
        <time>2024-09-22T14:24:34.000Z</time>
      </trkpt>
      <trkpt lat="42.86379" lon="19.31777">
        <ele>683.15002441406</ele>
        <time>2024-09-22T14:24:35.000Z</time>
      </trkpt>
      <trkpt lat="42.86353" lon="19.31797">
        <ele>681.22998046875</ele>
        <time>2024-09-22T14:24:36.000Z</time>
      </trkpt>
      <trkpt lat="42.86285" lon="19.31846">
        <ele>675.46002197266</ele>
        <time>2024-09-22T14:24:40.000Z</time>
      </trkpt>
      <trkpt lat="42.86266" lon="19.31864">
        <ele>673.53997802734</ele>
        <time>2024-09-22T14:24:41.000Z</time>
      </trkpt>
      <trkpt lat="42.86253" lon="19.31878">
        <ele>672.58001708984</ele>
        <time>2024-09-22T14:24:42.000Z</time>
      </trkpt>
      <trkpt lat="42.86181" lon="19.31982">
        <ele>665.84997558594</ele>
        <time>2024-09-22T14:24:47.000Z</time>
      </trkpt>
      <trkpt lat="42.86169" lon="19.32004">
        <ele>664.89001464844</ele>
        <time>2024-09-22T14:24:48.000Z</time>
      </trkpt>
      <trkpt lat="42.86149" lon="19.32045">
        <ele>663.45001220703</ele>
        <time>2024-09-22T14:24:50.000Z</time>
      </trkpt>
      <trkpt lat="42.86138" lon="19.32063">
        <ele>662.48999023438</ele>
        <time>2024-09-22T14:24:51.000Z</time>
      </trkpt>
      <trkpt lat="42.86124" lon="19.32076">
        <ele>662.48999023438</ele>
        <time>2024-09-22T14:24:52.000Z</time>
      </trkpt>
      <trkpt lat="42.8608" lon="19.32099">
        <ele>662.48999023438</ele>
        <time>2024-09-22T14:24:54.000Z</time>
      </trkpt>
      <trkpt lat="42.86071" lon="19.32104">
        <ele>662.48999023438</ele>
        <time>2024-09-22T14:24:55.000Z</time>
      </trkpt>
      <trkpt lat="42.86056" lon="19.32116">
        <ele>662.48999023438</ele>
        <time>2024-09-22T14:24:56.000Z</time>
      </trkpt>
      <trkpt lat="42.86039" lon="19.32134">
        <ele>662.48999023438</ele>
        <time>2024-09-22T14:24:57.000Z</time>
      </trkpt>
      <trkpt lat="42.86019" lon="19.32158">
        <ele>662.48999023438</ele>
        <time>2024-09-22T14:24:58.000Z</time>
      </trkpt>
      <trkpt lat="42.86005" lon="19.32172">
        <ele>662.01000976562</ele>
        <time>2024-09-22T14:24:59.000Z</time>
      </trkpt>
      <trkpt lat="42.85877" lon="19.32275">
        <ele>660.55999755859</ele>
        <time>2024-09-22T14:25:07.000Z</time>
      </trkpt>
      <trkpt lat="42.85853" lon="19.32293">
        <ele>660.08001708984</ele>
        <time>2024-09-22T14:25:08.000Z</time>
      </trkpt>
      <trkpt lat="42.85843" lon="19.323">
        <ele>659.59997558594</ele>
        <time>2024-09-22T14:25:09.000Z</time>
      </trkpt>
      <trkpt lat="42.85788" lon="19.32327">
        <ele>657.20001220703</ele>
        <time>2024-09-22T14:25:11.000Z</time>
      </trkpt>
      <trkpt lat="42.85775" lon="19.32335">
        <ele>656.23999023438</ele>
        <time>2024-09-22T14:25:12.000Z</time>
      </trkpt>
      <trkpt lat="42.85682" lon="19.32408">
        <ele>650.46997070312</ele>
        <time>2024-09-22T14:25:18.000Z</time>
      </trkpt>
      <trkpt lat="42.85665" lon="19.32422">
        <ele>649.03002929688</ele>
        <time>2024-09-22T14:25:19.000Z</time>
      </trkpt>
      <trkpt lat="42.85649" lon="19.32434">
        <ele>648.07000732422</ele>
        <time>2024-09-22T14:25:20.000Z</time>
      </trkpt>
      <trkpt lat="42.85529" lon="19.32529">
        <ele>633.16998291016</ele>
        <time>2024-09-22T14:25:28.000Z</time>
      </trkpt>
      <trkpt lat="42.85482" lon="19.32568">
        <ele>625.96002197266</ele>
        <time>2024-09-22T14:25:31.000Z</time>
      </trkpt>
      <trkpt lat="42.85467" lon="19.32582">
        <ele>623.54998779297</ele>
        <time>2024-09-22T14:25:32.000Z</time>
      </trkpt>
      <trkpt lat="42.85447" lon="19.32604">
        <ele>621.15002441406</ele>
        <time>2024-09-22T14:25:33.000Z</time>
      </trkpt>
      <trkpt lat="42.85433" lon="19.32623">
        <ele>619.71002197266</ele>
        <time>2024-09-22T14:25:34.000Z</time>
      </trkpt>
      <trkpt lat="42.85421" lon="19.32642">
        <ele>617.78002929688</ele>
        <time>2024-09-22T14:25:35.000Z</time>
      </trkpt>
      <trkpt lat="42.85408" lon="19.32663">
        <ele>615.38000488281</ele>
        <time>2024-09-22T14:25:36.000Z</time>
      </trkpt>
      <trkpt lat="42.8535" lon="19.32773">
        <ele>605.28997802734</ele>
        <time>2024-09-22T14:25:41.000Z</time>
      </trkpt>
      <trkpt lat="42.85336" lon="19.32803">
        <ele>602.40002441406</ele>
        <time>2024-09-22T14:25:42.000Z</time>
      </trkpt>
      <trkpt lat="42.85327" lon="19.32818">
        <ele>600.96002197266</ele>
        <time>2024-09-22T14:25:43.000Z</time>
      </trkpt>
      <trkpt lat="42.85234" lon="19.32967">
        <ele>584.61999511719</ele>
        <time>2024-09-22T14:25:50.000Z</time>
      </trkpt>
      <trkpt lat="42.85218" lon="19.32988">
        <ele>582.21997070312</ele>
        <time>2024-09-22T14:25:51.000Z</time>
      </trkpt>
      <trkpt lat="42.85207" lon="19.33001">
        <ele>580.77001953125</ele>
        <time>2024-09-22T14:25:52.000Z</time>
      </trkpt>
      <trkpt lat="42.85192" lon="19.33014">
        <ele>578.36999511719</ele>
        <time>2024-09-22T14:25:53.000Z</time>
      </trkpt>
      <trkpt lat="42.85164" lon="19.33039">
        <ele>574.03997802734</ele>
        <time>2024-09-22T14:25:55.000Z</time>
      </trkpt>
      <trkpt lat="42.85148" lon="19.33055">
        <ele>571.64001464844</ele>
        <time>2024-09-22T14:25:56.000Z</time>
      </trkpt>
      <trkpt lat="42.85135" lon="19.33071">
        <ele>569.71997070312</ele>
        <time>2024-09-22T14:25:57.000Z</time>
      </trkpt>
      <trkpt lat="42.85124" lon="19.33089">
        <ele>567.79998779297</ele>
        <time>2024-09-22T14:25:58.000Z</time>
      </trkpt>
      <trkpt lat="42.851" lon="19.33131">
        <ele>563.46997070312</ele>
        <time>2024-09-22T14:26:00.000Z</time>
      </trkpt>
      <trkpt lat="42.85095" lon="19.3314">
        <ele>562.98999023438</ele>
        <time>2024-09-22T14:26:01.000Z</time>
      </trkpt>
      <trkpt lat="42.85085" lon="19.33151">
        <ele>561.54998779297</ele>
        <time>2024-09-22T14:26:02.000Z</time>
      </trkpt>
      <trkpt lat="42.85073" lon="19.33158">
        <ele>560.10998535156</ele>
        <time>2024-09-22T14:26:03.000Z</time>
      </trkpt>
      <trkpt lat="42.85061" lon="19.33161">
        <ele>559.14001464844</ele>
        <time>2024-09-22T14:26:04.000Z</time>
      </trkpt>
      <trkpt lat="42.85048" lon="19.33164">
        <ele>557.21997070312</ele>
        <time>2024-09-22T14:26:05.000Z</time>
      </trkpt>
      <trkpt lat="42.85035" lon="19.33169">
        <ele>555.78002929688</ele>
        <time>2024-09-22T14:26:06.000Z</time>
      </trkpt>
      <trkpt lat="42.85023" lon="19.33178">
        <ele>554.34002685547</ele>
        <time>2024-09-22T14:26:07.000Z</time>
      </trkpt>
      <trkpt lat="42.84988" lon="19.33212">
        <ele>550.01000976562</ele>
        <time>2024-09-22T14:26:09.000Z</time>
      </trkpt>
      <trkpt lat="42.84952" lon="19.33246">
        <ele>546.16998291016</ele>
        <time>2024-09-22T14:26:12.000Z</time>
      </trkpt>
      <trkpt lat="42.84948" lon="19.3325">
        <ele>545.69000244141</ele>
        <time>2024-09-22T14:26:13.000Z</time>
      </trkpt>
      <trkpt lat="42.8494" lon="19.3326">
        <ele>544.71997070312</ele>
        <time>2024-09-22T14:26:14.000Z</time>
      </trkpt>
      <trkpt lat="42.84932" lon="19.33274">
        <ele>543.76000976562</ele>
        <time>2024-09-22T14:26:15.000Z</time>
      </trkpt>
      <trkpt lat="42.84928" lon="19.3329">
        <ele>543.28002929688</ele>
        <time>2024-09-22T14:26:16.000Z</time>
      </trkpt>
      <trkpt lat="42.84927" lon="19.33305">
        <ele>543.28002929688</ele>
        <time>2024-09-22T14:26:17.000Z</time>
      </trkpt>
      <trkpt lat="42.8493" lon="19.33325">
        <ele>542.79998779297</ele>
        <time>2024-09-22T14:26:18.000Z</time>
      </trkpt>
      <trkpt lat="42.84936" lon="19.33362">
        <ele>541.35998535156</ele>
        <time>2024-09-22T14:26:20.000Z</time>
      </trkpt>
      <trkpt lat="42.8494" lon="19.33378">
        <ele>540.40002441406</ele>
        <time>2024-09-22T14:26:21.000Z</time>
      </trkpt>
      <trkpt lat="42.84945" lon="19.33393">
        <ele>539.91998291016</ele>
        <time>2024-09-22T14:26:22.000Z</time>
      </trkpt>
      <trkpt lat="42.84953" lon="19.33411">
        <ele>539.44000244141</ele>
        <time>2024-09-22T14:26:23.000Z</time>
      </trkpt>
      <trkpt lat="42.8497" lon="19.33448">
        <ele>537.98999023438</ele>
        <time>2024-09-22T14:26:25.000Z</time>
      </trkpt>
      <trkpt lat="42.84972" lon="19.33455">
        <ele>537.98999023438</ele>
        <time>2024-09-22T14:26:26.000Z</time>
      </trkpt>
      <trkpt lat="42.84976" lon="19.33469">
        <ele>537.03002929688</ele>
        <time>2024-09-22T14:26:27.000Z</time>
      </trkpt>
      <trkpt lat="42.84976" lon="19.33483">
        <ele>536.54998779297</ele>
        <time>2024-09-22T14:26:28.000Z</time>
      </trkpt>
      <trkpt lat="42.84973" lon="19.33496">
        <ele>535.59002685547</ele>
        <time>2024-09-22T14:26:29.000Z</time>
      </trkpt>
      <trkpt lat="42.84967" lon="19.33507">
        <ele>534.15002441406</ele>
        <time>2024-09-22T14:26:30.000Z</time>
      </trkpt>
      <trkpt lat="42.84959" lon="19.33512">
        <ele>533.66998291016</ele>
        <time>2024-09-22T14:26:31.000Z</time>
      </trkpt>
      <trkpt lat="42.84949" lon="19.33512">
        <ele>533.66998291016</ele>
        <time>2024-09-22T14:26:32.000Z</time>
      </trkpt>
      <trkpt lat="42.8494" lon="19.33508">
        <ele>532.22998046875</ele>
        <time>2024-09-22T14:26:33.000Z</time>
      </trkpt>
      <trkpt lat="42.84911" lon="19.33485">
        <ele>530.29998779297</ele>
        <time>2024-09-22T14:26:35.000Z</time>
      </trkpt>
      <trkpt lat="42.84903" lon="19.33479">
        <ele>529.82000732422</ele>
        <time>2024-09-22T14:26:36.000Z</time>
      </trkpt>
      <trkpt lat="42.84898" lon="19.33473">
        <ele>529.34002685547</ele>
        <time>2024-09-22T14:26:37.000Z</time>
      </trkpt>
      <trkpt lat="42.84887" lon="19.33462">
        <ele>530.29998779297</ele>
        <time>2024-09-22T14:26:38.000Z</time>
      </trkpt>
      <trkpt lat="42.84876" lon="19.33453">
        <ele>530.78997802734</ele>
        <time>2024-09-22T14:26:39.000Z</time>
      </trkpt>
      <trkpt lat="42.84865" lon="19.33449">
        <ele>530.29998779297</ele>
        <time>2024-09-22T14:26:40.000Z</time>
      </trkpt>
      <trkpt lat="42.84853" lon="19.3345">
        <ele>531.75</ele>
        <time>2024-09-22T14:26:41.000Z</time>
      </trkpt>
      <trkpt lat="42.84842" lon="19.33456">
        <ele>531.75</ele>
        <time>2024-09-22T14:26:42.000Z</time>
      </trkpt>
      <trkpt lat="42.84831" lon="19.33468">
        <ele>530.78997802734</ele>
        <time>2024-09-22T14:26:43.000Z</time>
      </trkpt>
      <trkpt lat="42.84803" lon="19.33511">
        <ele>530.78997802734</ele>
        <time>2024-09-22T14:26:45.000Z</time>
      </trkpt>
      <trkpt lat="42.84798" lon="19.33518">
        <ele>530.78997802734</ele>
        <time>2024-09-22T14:26:46.000Z</time>
      </trkpt>
      <trkpt lat="42.84788" lon="19.3353">
        <ele>531.75</ele>
        <time>2024-09-22T14:26:47.000Z</time>
      </trkpt>
      <trkpt lat="42.84775" lon="19.33543">
        <ele>532.22998046875</ele>
        <time>2024-09-22T14:26:48.000Z</time>
      </trkpt>
      <trkpt lat="42.84744" lon="19.33567">
        <ele>533.66998291016</ele>
        <time>2024-09-22T14:26:50.000Z</time>
      </trkpt>
      <trkpt lat="42.8473" lon="19.33577">
        <ele>535.10998535156</ele>
        <time>2024-09-22T14:26:51.000Z</time>
      </trkpt>
      <trkpt lat="42.8472" lon="19.33585">
        <ele>535.59002685547</ele>
        <time>2024-09-22T14:26:52.000Z</time>
      </trkpt>
      <trkpt lat="42.84709" lon="19.33599">
        <ele>537.03002929688</ele>
        <time>2024-09-22T14:26:53.000Z</time>
      </trkpt>
      <trkpt lat="42.84701" lon="19.33615">
        <ele>537.98999023438</ele>
        <time>2024-09-22T14:26:54.000Z</time>
      </trkpt>
      <trkpt lat="42.84691" lon="19.33635">
        <ele>538.47998046875</ele>
        <time>2024-09-22T14:26:55.000Z</time>
      </trkpt>
      <trkpt lat="42.84681" lon="19.33651">
        <ele>538.96002197266</ele>
        <time>2024-09-22T14:26:56.000Z</time>
      </trkpt>
      <trkpt lat="42.84664" lon="19.33673">
        <ele>539.91998291016</ele>
        <time>2024-09-22T14:26:57.000Z</time>
      </trkpt>
      <trkpt lat="42.84656" lon="19.33685">
        <ele>540.40002441406</ele>
        <time>2024-09-22T14:26:58.000Z</time>
      </trkpt>
      <trkpt lat="42.84631" lon="19.33725">
        <ele>540.88000488281</ele>
        <time>2024-09-22T14:27:00.000Z</time>
      </trkpt>
      <trkpt lat="42.84621" lon="19.33738">
        <ele>541.35998535156</ele>
        <time>2024-09-22T14:27:01.000Z</time>
      </trkpt>
      <trkpt lat="42.84589" lon="19.33772">
        <ele>542.32000732422</ele>
        <time>2024-09-22T14:27:03.000Z</time>
      </trkpt>
      <trkpt lat="42.84572" lon="19.33794">
        <ele>541.84002685547</ele>
        <time>2024-09-22T14:27:04.000Z</time>
      </trkpt>
      <trkpt lat="42.84554" lon="19.33823">
        <ele>541.35998535156</ele>
        <time>2024-09-22T14:27:06.000Z</time>
      </trkpt>
      <trkpt lat="42.84546" lon="19.33837">
        <ele>541.35998535156</ele>
        <time>2024-09-22T14:27:07.000Z</time>
      </trkpt>
      <trkpt lat="42.84535" lon="19.33859">
        <ele>540.88000488281</ele>
        <time>2024-09-22T14:27:08.000Z</time>
      </trkpt>
      <trkpt lat="42.84522" lon="19.33888">
        <ele>540.40002441406</ele>
        <time>2024-09-22T14:27:09.000Z</time>
      </trkpt>
      <trkpt lat="42.84521" lon="19.33891">
        <ele>540.40002441406</ele>
        <time>2024-09-22T14:27:10.000Z</time>
      </trkpt>
      <trkpt lat="42.84511" lon="19.33905">
        <ele>539.91998291016</ele>
        <time>2024-09-22T14:27:11.000Z</time>
      </trkpt>
      <trkpt lat="42.84501" lon="19.33915">
        <ele>539.91998291016</ele>
        <time>2024-09-22T14:27:12.000Z</time>
      </trkpt>
      <trkpt lat="42.84491" lon="19.3392">
        <ele>539.44000244141</ele>
        <time>2024-09-22T14:27:13.000Z</time>
      </trkpt>
      <trkpt lat="42.8448" lon="19.33919">
        <ele>538.96002197266</ele>
        <time>2024-09-22T14:27:14.000Z</time>
      </trkpt>
      <trkpt lat="42.84466" lon="19.33915">
        <ele>537.98999023438</ele>
        <time>2024-09-22T14:27:15.000Z</time>
      </trkpt>
      <trkpt lat="42.84455" lon="19.33913">
        <ele>538.47998046875</ele>
        <time>2024-09-22T14:27:16.000Z</time>
      </trkpt>
      <trkpt lat="42.84442" lon="19.33915">
        <ele>538.47998046875</ele>
        <time>2024-09-22T14:27:17.000Z</time>
      </trkpt>
      <trkpt lat="42.84429" lon="19.33923">
        <ele>537.98999023438</ele>
        <time>2024-09-22T14:27:18.000Z</time>
      </trkpt>
      <trkpt lat="42.84417" lon="19.33935">
        <ele>537.98999023438</ele>
        <time>2024-09-22T14:27:19.000Z</time>
      </trkpt>
      <trkpt lat="42.84406" lon="19.3395">
        <ele>537.98999023438</ele>
        <time>2024-09-22T14:27:20.000Z</time>
      </trkpt>
      <trkpt lat="42.84362" lon="19.34017">
        <ele>535.59002685547</ele>
        <time>2024-09-22T14:27:23.000Z</time>
      </trkpt>
      <trkpt lat="42.84322" lon="19.34067">
        <ele>535.59002685547</ele>
        <time>2024-09-22T14:27:27.000Z</time>
      </trkpt>
      <trkpt lat="42.84315" lon="19.34079">
        <ele>537.03002929688</ele>
        <time>2024-09-22T14:27:28.000Z</time>
      </trkpt>
      <trkpt lat="42.84309" lon="19.34095">
        <ele>537.98999023438</ele>
        <time>2024-09-22T14:27:29.000Z</time>
      </trkpt>
      <trkpt lat="42.84306" lon="19.34115">
        <ele>538.47998046875</ele>
        <time>2024-09-22T14:27:30.000Z</time>
      </trkpt>
      <trkpt lat="42.84302" lon="19.34164">
        <ele>540.88000488281</ele>
        <time>2024-09-22T14:27:32.000Z</time>
      </trkpt>
      <trkpt lat="42.84301" lon="19.34174">
        <ele>541.35998535156</ele>
        <time>2024-09-22T14:27:33.000Z</time>
      </trkpt>
      <trkpt lat="42.84297" lon="19.34192">
        <ele>542.32000732422</ele>
        <time>2024-09-22T14:27:34.000Z</time>
      </trkpt>
      <trkpt lat="42.84291" lon="19.34208">
        <ele>542.79998779297</ele>
        <time>2024-09-22T14:27:35.000Z</time>
      </trkpt>
      <trkpt lat="42.84281" lon="19.3422">
        <ele>543.28002929688</ele>
        <time>2024-09-22T14:27:36.000Z</time>
      </trkpt>
      <trkpt lat="42.84269" lon="19.34229">
        <ele>544.23999023438</ele>
        <time>2024-09-22T14:27:37.000Z</time>
      </trkpt>
      <trkpt lat="42.84254" lon="19.34234">
        <ele>545.69000244141</ele>
        <time>2024-09-22T14:27:38.000Z</time>
      </trkpt>
      <trkpt lat="42.84243" lon="19.34237">
        <ele>545.69000244141</ele>
        <time>2024-09-22T14:27:39.000Z</time>
      </trkpt>
      <trkpt lat="42.84231" lon="19.34245">
        <ele>545.20001220703</ele>
        <time>2024-09-22T14:27:40.000Z</time>
      </trkpt>
      <trkpt lat="42.84209" lon="19.34266">
        <ele>546.65002441406</ele>
        <time>2024-09-22T14:27:41.000Z</time>
      </trkpt>
      <trkpt lat="42.84206" lon="19.34267">
        <ele>546.65002441406</ele>
        <time>2024-09-22T14:27:42.000Z</time>
      </trkpt>
      <trkpt lat="42.84195" lon="19.34274">
        <ele>547.13000488281</ele>
        <time>2024-09-22T14:27:43.000Z</time>
      </trkpt>
      <trkpt lat="42.84184" lon="19.34275">
        <ele>546.65002441406</ele>
        <time>2024-09-22T14:27:44.000Z</time>
      </trkpt>
      <trkpt lat="42.84174" lon="19.34272">
        <ele>546.16998291016</ele>
        <time>2024-09-22T14:27:45.000Z</time>
      </trkpt>
      <trkpt lat="42.84161" lon="19.34263">
        <ele>545.69000244141</ele>
        <time>2024-09-22T14:27:46.000Z</time>
      </trkpt>
      <trkpt lat="42.84152" lon="19.34258">
        <ele>546.16998291016</ele>
        <time>2024-09-22T14:27:47.000Z</time>
      </trkpt>
      <trkpt lat="42.84141" lon="19.34257">
        <ele>545.69000244141</ele>
        <time>2024-09-22T14:27:48.000Z</time>
      </trkpt>
      <trkpt lat="42.8413" lon="19.3426">
        <ele>545.69000244141</ele>
        <time>2024-09-22T14:27:49.000Z</time>
      </trkpt>
      <trkpt lat="42.84119" lon="19.34268">
        <ele>544.71997070312</ele>
        <time>2024-09-22T14:27:50.000Z</time>
      </trkpt>
      <trkpt lat="42.84108" lon="19.3428">
        <ele>544.71997070312</ele>
        <time>2024-09-22T14:27:51.000Z</time>
      </trkpt>
      <trkpt lat="42.84093" lon="19.34298">
        <ele>544.23999023438</ele>
        <time>2024-09-22T14:27:52.000Z</time>
      </trkpt>
      <trkpt lat="42.84083" lon="19.34309">
        <ele>543.76000976562</ele>
        <time>2024-09-22T14:27:53.000Z</time>
      </trkpt>
      <trkpt lat="42.84069" lon="19.34322">
        <ele>543.28002929688</ele>
        <time>2024-09-22T14:27:54.000Z</time>
      </trkpt>
      <trkpt lat="42.84025" lon="19.3436">
        <ele>542.79998779297</ele>
        <time>2024-09-22T14:27:57.000Z</time>
      </trkpt>
      <trkpt lat="42.84013" lon="19.34368">
        <ele>542.79998779297</ele>
        <time>2024-09-22T14:27:58.000Z</time>
      </trkpt>
      <trkpt lat="42.83997" lon="19.34377">
        <ele>543.28002929688</ele>
        <time>2024-09-22T14:27:59.000Z</time>
      </trkpt>
      <trkpt lat="42.83974" lon="19.34388">
        <ele>543.76000976562</ele>
        <time>2024-09-22T14:28:00.000Z</time>
      </trkpt>
      <trkpt lat="42.83965" lon="19.34394">
        <ele>544.71997070312</ele>
        <time>2024-09-22T14:28:01.000Z</time>
      </trkpt>
      <trkpt lat="42.83951" lon="19.34405">
        <ele>545.69000244141</ele>
        <time>2024-09-22T14:28:02.000Z</time>
      </trkpt>
      <trkpt lat="42.83939" lon="19.3442">
        <ele>547.13000488281</ele>
        <time>2024-09-22T14:28:03.000Z</time>
      </trkpt>
      <trkpt lat="42.83923" lon="19.34449">
        <ele>549.04998779297</ele>
        <time>2024-09-22T14:28:04.000Z</time>
      </trkpt>
      <trkpt lat="42.83905" lon="19.34484">
        <ele>550.96997070312</ele>
        <time>2024-09-22T14:28:06.000Z</time>
      </trkpt>
      <trkpt lat="42.839" lon="19.34495">
        <ele>551.92999267578</ele>
        <time>2024-09-22T14:28:07.000Z</time>
      </trkpt>
      <trkpt lat="42.83895" lon="19.34513">
        <ele>552.90002441406</ele>
        <time>2024-09-22T14:28:08.000Z</time>
      </trkpt>
      <trkpt lat="42.83893" lon="19.34531">
        <ele>554.34002685547</ele>
        <time>2024-09-22T14:28:09.000Z</time>
      </trkpt>
      <trkpt lat="42.83896" lon="19.3455">
        <ele>555.78002929688</ele>
        <time>2024-09-22T14:28:10.000Z</time>
      </trkpt>
      <trkpt lat="42.8391" lon="19.34609">
        <ele>558.17999267578</ele>
        <time>2024-09-22T14:28:12.000Z</time>
      </trkpt>
      <trkpt lat="42.83911" lon="19.34613">
        <ele>558.17999267578</ele>
        <time>2024-09-22T14:28:13.000Z</time>
      </trkpt>
      <trkpt lat="42.83918" lon="19.34635">
        <ele>559.14001464844</ele>
        <time>2024-09-22T14:28:14.000Z</time>
      </trkpt>
      <trkpt lat="42.83934" lon="19.34677">
        <ele>560.10998535156</ele>
        <time>2024-09-22T14:28:16.000Z</time>
      </trkpt>
      <trkpt lat="42.83938" lon="19.34686">
        <ele>560.59002685547</ele>
        <time>2024-09-22T14:28:17.000Z</time>
      </trkpt>
      <trkpt lat="42.83941" lon="19.34701">
        <ele>560.59002685547</ele>
        <time>2024-09-22T14:28:18.000Z</time>
      </trkpt>
      <trkpt lat="42.83941" lon="19.34714">
        <ele>560.59002685547</ele>
        <time>2024-09-22T14:28:19.000Z</time>
      </trkpt>
      <trkpt lat="42.83938" lon="19.34726">
        <ele>559.61999511719</ele>
        <time>2024-09-22T14:28:20.000Z</time>
      </trkpt>
      <trkpt lat="42.83933" lon="19.34735">
        <ele>559.14001464844</ele>
        <time>2024-09-22T14:28:21.000Z</time>
      </trkpt>
      <trkpt lat="42.83923" lon="19.34739">
        <ele>559.14001464844</ele>
        <time>2024-09-22T14:28:22.000Z</time>
      </trkpt>
      <trkpt lat="42.83911" lon="19.34738">
        <ele>559.61999511719</ele>
        <time>2024-09-22T14:28:23.000Z</time>
      </trkpt>
      <trkpt lat="42.839" lon="19.34733">
        <ele>558.65997314453</ele>
        <time>2024-09-22T14:28:24.000Z</time>
      </trkpt>
      <trkpt lat="42.83886" lon="19.34723">
        <ele>557.21997070312</ele>
        <time>2024-09-22T14:28:25.000Z</time>
      </trkpt>
      <trkpt lat="42.83873" lon="19.34712">
        <ele>556.73999023438</ele>
        <time>2024-09-22T14:28:26.000Z</time>
      </trkpt>
      <trkpt lat="42.83845" lon="19.34685">
        <ele>554.82000732422</ele>
        <time>2024-09-22T14:28:27.000Z</time>
      </trkpt>
      <trkpt lat="42.83822" lon="19.34664">
        <ele>552.90002441406</ele>
        <time>2024-09-22T14:28:29.000Z</time>
      </trkpt>
      <trkpt lat="42.83812" lon="19.34656">
        <ele>552.40997314453</ele>
        <time>2024-09-22T14:28:30.000Z</time>
      </trkpt>
      <trkpt lat="42.83797" lon="19.34648">
        <ele>550.96997070312</ele>
        <time>2024-09-22T14:28:31.000Z</time>
      </trkpt>
      <trkpt lat="42.83782" lon="19.34643">
        <ele>550.01000976562</ele>
        <time>2024-09-22T14:28:32.000Z</time>
      </trkpt>
      <trkpt lat="42.83767" lon="19.34645">
        <ele>549.53002929688</ele>
        <time>2024-09-22T14:28:33.000Z</time>
      </trkpt>
      <trkpt lat="42.8375" lon="19.3465">
        <ele>548.09002685547</ele>
        <time>2024-09-22T14:28:34.000Z</time>
      </trkpt>
      <trkpt lat="42.83715" lon="19.34664">
        <ele>545.69000244141</ele>
        <time>2024-09-22T14:28:36.000Z</time>
      </trkpt>
      <trkpt lat="42.83703" lon="19.3467">
        <ele>544.71997070312</ele>
        <time>2024-09-22T14:28:37.000Z</time>
      </trkpt>
      <trkpt lat="42.8369" lon="19.34681">
        <ele>543.28002929688</ele>
        <time>2024-09-22T14:28:38.000Z</time>
      </trkpt>
      <trkpt lat="42.83679" lon="19.34697">
        <ele>542.79998779297</ele>
        <time>2024-09-22T14:28:39.000Z</time>
      </trkpt>
      <trkpt lat="42.83669" lon="19.34715">
        <ele>541.84002685547</ele>
        <time>2024-09-22T14:28:40.000Z</time>
      </trkpt>
      <trkpt lat="42.83642" lon="19.34778">
        <ele>537.98999023438</ele>
        <time>2024-09-22T14:28:42.000Z</time>
      </trkpt>
      <trkpt lat="42.83641" lon="19.34782">
        <ele>537.98999023438</ele>
        <time>2024-09-22T14:28:43.000Z</time>
      </trkpt>
      <trkpt lat="42.83634" lon="19.34804">
        <ele>537.98999023438</ele>
        <time>2024-09-22T14:28:44.000Z</time>
      </trkpt>
      <trkpt lat="42.83621" lon="19.34868">
        <ele>537.51000976562</ele>
        <time>2024-09-22T14:28:46.000Z</time>
      </trkpt>
      <trkpt lat="42.83619" lon="19.34877">
        <ele>537.51000976562</ele>
        <time>2024-09-22T14:28:47.000Z</time>
      </trkpt>
      <trkpt lat="42.83616" lon="19.34886">
        <ele>537.51000976562</ele>
        <time>2024-09-22T14:28:48.000Z</time>
      </trkpt>
      <trkpt lat="42.83609" lon="19.349">
        <ele>536.07000732422</ele>
        <time>2024-09-22T14:28:49.000Z</time>
      </trkpt>
      <trkpt lat="42.83598" lon="19.34911">
        <ele>536.07000732422</ele>
        <time>2024-09-22T14:28:50.000Z</time>
      </trkpt>
      <trkpt lat="42.83586" lon="19.34921">
        <ele>536.07000732422</ele>
        <time>2024-09-22T14:28:51.000Z</time>
      </trkpt>
      <trkpt lat="42.83573" lon="19.34934">
        <ele>536.54998779297</ele>
        <time>2024-09-22T14:28:52.000Z</time>
      </trkpt>
      <trkpt lat="42.83561" lon="19.3495">
        <ele>537.03002929688</ele>
        <time>2024-09-22T14:28:53.000Z</time>
      </trkpt>
      <trkpt lat="42.83495" lon="19.35061">
        <ele>537.03002929688</ele>
        <time>2024-09-22T14:28:59.000Z</time>
      </trkpt>
      <trkpt lat="42.83485" lon="19.35077">
        <ele>537.51000976562</ele>
        <time>2024-09-22T14:29:00.000Z</time>
      </trkpt>
      <trkpt lat="42.83474" lon="19.35095">
        <ele>537.51000976562</ele>
        <time>2024-09-22T14:29:01.000Z</time>
      </trkpt>
      <trkpt lat="42.83438" lon="19.35174">
        <ele>538.96002197266</ele>
        <time>2024-09-22T14:29:05.000Z</time>
      </trkpt>
      <trkpt lat="42.83428" lon="19.35191">
        <ele>538.96002197266</ele>
        <time>2024-09-22T14:29:06.000Z</time>
      </trkpt>
      <trkpt lat="42.83355" lon="19.35287">
        <ele>537.98999023438</ele>
        <time>2024-09-22T14:29:11.000Z</time>
      </trkpt>
      <trkpt lat="42.83352" lon="19.3529">
        <ele>537.98999023438</ele>
        <time>2024-09-22T14:29:12.000Z</time>
      </trkpt>
      <trkpt lat="42.83337" lon="19.35304">
        <ele>537.51000976562</ele>
        <time>2024-09-22T14:29:13.000Z</time>
      </trkpt>
      <trkpt lat="42.83323" lon="19.35315">
        <ele>537.03002929688</ele>
        <time>2024-09-22T14:29:14.000Z</time>
      </trkpt>
      <trkpt lat="42.83274" lon="19.35351">
        <ele>535.59002685547</ele>
        <time>2024-09-22T14:29:17.000Z</time>
      </trkpt>
      <trkpt lat="42.83264" lon="19.35359">
        <ele>535.59002685547</ele>
        <time>2024-09-22T14:29:18.000Z</time>
      </trkpt>
      <trkpt lat="42.83255" lon="19.35372">
        <ele>535.10998535156</ele>
        <time>2024-09-22T14:29:19.000Z</time>
      </trkpt>
      <trkpt lat="42.83249" lon="19.35387">
        <ele>534.63000488281</ele>
        <time>2024-09-22T14:29:20.000Z</time>
      </trkpt>
      <trkpt lat="42.83248" lon="19.35402">
        <ele>534.63000488281</ele>
        <time>2024-09-22T14:29:21.000Z</time>
      </trkpt>
      <trkpt lat="42.83253" lon="19.35417">
        <ele>534.63000488281</ele>
        <time>2024-09-22T14:29:22.000Z</time>
      </trkpt>
      <trkpt lat="42.83261" lon="19.35431">
        <ele>534.15002441406</ele>
        <time>2024-09-22T14:29:23.000Z</time>
      </trkpt>
      <trkpt lat="42.83271" lon="19.35443">
        <ele>534.63000488281</ele>
        <time>2024-09-22T14:29:24.000Z</time>
      </trkpt>
      <trkpt lat="42.83284" lon="19.3545">
        <ele>534.15002441406</ele>
        <time>2024-09-22T14:29:25.000Z</time>
      </trkpt>
      <trkpt lat="42.83311" lon="19.35456">
        <ele>534.63000488281</ele>
        <time>2024-09-22T14:29:27.000Z</time>
      </trkpt>
      <trkpt lat="42.83325" lon="19.35461">
        <ele>534.63000488281</ele>
        <time>2024-09-22T14:29:28.000Z</time>
      </trkpt>
      <trkpt lat="42.83334" lon="19.35465">
        <ele>534.63000488281</ele>
        <time>2024-09-22T14:29:29.000Z</time>
      </trkpt>
      <trkpt lat="42.83344" lon="19.35474">
        <ele>534.15002441406</ele>
        <time>2024-09-22T14:29:30.000Z</time>
      </trkpt>
      <trkpt lat="42.83352" lon="19.35486">
        <ele>533.66998291016</ele>
        <time>2024-09-22T14:29:31.000Z</time>
      </trkpt>
      <trkpt lat="42.83358" lon="19.355">
        <ele>533.19000244141</ele>
        <time>2024-09-22T14:29:32.000Z</time>
      </trkpt>
      <trkpt lat="42.83363" lon="19.35516">
        <ele>532.71002197266</ele>
        <time>2024-09-22T14:29:33.000Z</time>
      </trkpt>
      <trkpt lat="42.83365" lon="19.35533">
        <ele>532.22998046875</ele>
        <time>2024-09-22T14:29:34.000Z</time>
      </trkpt>
      <trkpt lat="42.83364" lon="19.35548">
        <ele>532.22998046875</ele>
        <time>2024-09-22T14:29:35.000Z</time>
      </trkpt>
      <trkpt lat="42.8336" lon="19.35561">
        <ele>531.75</ele>
        <time>2024-09-22T14:29:36.000Z</time>
      </trkpt>
      <trkpt lat="42.83353" lon="19.35572">
        <ele>531.27001953125</ele>
        <time>2024-09-22T14:29:37.000Z</time>
      </trkpt>
      <trkpt lat="42.83343" lon="19.35581">
        <ele>531.27001953125</ele>
        <time>2024-09-22T14:29:38.000Z</time>
      </trkpt>
      <trkpt lat="42.83331" lon="19.35585">
        <ele>532.22998046875</ele>
        <time>2024-09-22T14:29:39.000Z</time>
      </trkpt>
      <trkpt lat="42.83302" lon="19.35585">
        <ele>533.19000244141</ele>
        <time>2024-09-22T14:29:41.000Z</time>
      </trkpt>
      <trkpt lat="42.83217" lon="19.35575">
        <ele>539.91998291016</ele>
        <time>2024-09-22T14:29:46.000Z</time>
      </trkpt>
      <trkpt lat="42.83209" lon="19.35574">
        <ele>541.84002685547</ele>
        <time>2024-09-22T14:29:47.000Z</time>
      </trkpt>
      <trkpt lat="42.83194" lon="19.35576">
        <ele>544.23999023438</ele>
        <time>2024-09-22T14:29:48.000Z</time>
      </trkpt>
      <trkpt lat="42.83168" lon="19.35583">
        <ele>546.65002441406</ele>
        <time>2024-09-22T14:29:49.000Z</time>
      </trkpt>
      <trkpt lat="42.83164" lon="19.35585">
        <ele>546.65002441406</ele>
        <time>2024-09-22T14:29:50.000Z</time>
      </trkpt>
      <trkpt lat="42.83152" lon="19.3559">
        <ele>547.60998535156</ele>
        <time>2024-09-22T14:29:51.000Z</time>
      </trkpt>
      <trkpt lat="42.8314" lon="19.35597">
        <ele>548.57000732422</ele>
        <time>2024-09-22T14:29:52.000Z</time>
      </trkpt>
      <trkpt lat="42.83133" lon="19.35608">
        <ele>550.01000976562</ele>
        <time>2024-09-22T14:29:53.000Z</time>
      </trkpt>
      <trkpt lat="42.83129" lon="19.35622">
        <ele>550.48999023438</ele>
        <time>2024-09-22T14:29:54.000Z</time>
      </trkpt>
      <trkpt lat="42.83129" lon="19.35637">
        <ele>551.45001220703</ele>
        <time>2024-09-22T14:29:55.000Z</time>
      </trkpt>
      <trkpt lat="42.83133" lon="19.35653">
        <ele>551.92999267578</ele>
        <time>2024-09-22T14:29:56.000Z</time>
      </trkpt>
      <trkpt lat="42.83144" lon="19.35678">
        <ele>550.48999023438</ele>
        <time>2024-09-22T14:29:57.000Z</time>
      </trkpt>
      <trkpt lat="42.83147" lon="19.35685">
        <ele>550.48999023438</ele>
        <time>2024-09-22T14:29:58.000Z</time>
      </trkpt>
      <trkpt lat="42.83153" lon="19.35704">
        <ele>549.53002929688</ele>
        <time>2024-09-22T14:29:59.000Z</time>
      </trkpt>
      <trkpt lat="42.83165" lon="19.35784">
        <ele>546.16998291016</ele>
        <time>2024-09-22T14:30:02.000Z</time>
      </trkpt>
      <trkpt lat="42.83167" lon="19.35799">
        <ele>545.69000244141</ele>
        <time>2024-09-22T14:30:03.000Z</time>
      </trkpt>
      <trkpt lat="42.83167" lon="19.35813">
        <ele>545.20001220703</ele>
        <time>2024-09-22T14:30:04.000Z</time>
      </trkpt>
      <trkpt lat="42.83165" lon="19.35831">
        <ele>545.20001220703</ele>
        <time>2024-09-22T14:30:05.000Z</time>
      </trkpt>
      <trkpt lat="42.83161" lon="19.35849">
        <ele>544.71997070312</ele>
        <time>2024-09-22T14:30:06.000Z</time>
      </trkpt>
      <trkpt lat="42.83154" lon="19.35867">
        <ele>545.20001220703</ele>
        <time>2024-09-22T14:30:07.000Z</time>
      </trkpt>
      <trkpt lat="42.8315" lon="19.35885">
        <ele>545.69000244141</ele>
        <time>2024-09-22T14:30:08.000Z</time>
      </trkpt>
      <trkpt lat="42.83149" lon="19.35904">
        <ele>546.16998291016</ele>
        <time>2024-09-22T14:30:09.000Z</time>
      </trkpt>
      <trkpt lat="42.83149" lon="19.35924">
        <ele>546.65002441406</ele>
        <time>2024-09-22T14:30:10.000Z</time>
      </trkpt>
      <trkpt lat="42.83152" lon="19.35944">
        <ele>547.13000488281</ele>
        <time>2024-09-22T14:30:11.000Z</time>
      </trkpt>
      <trkpt lat="42.83155" lon="19.35962">
        <ele>547.60998535156</ele>
        <time>2024-09-22T14:30:12.000Z</time>
      </trkpt>
      <trkpt lat="42.83161" lon="19.35978">
        <ele>548.57000732422</ele>
        <time>2024-09-22T14:30:13.000Z</time>
      </trkpt>
      <trkpt lat="42.83169" lon="19.35992">
        <ele>549.04998779297</ele>
        <time>2024-09-22T14:30:14.000Z</time>
      </trkpt>
      <trkpt lat="42.83183" lon="19.36008">
        <ele>549.53002929688</ele>
        <time>2024-09-22T14:30:15.000Z</time>
      </trkpt>
      <trkpt lat="42.83188" lon="19.36014">
        <ele>549.53002929688</ele>
        <time>2024-09-22T14:30:16.000Z</time>
      </trkpt>
      <trkpt lat="42.83195" lon="19.36028">
        <ele>549.53002929688</ele>
        <time>2024-09-22T14:30:17.000Z</time>
      </trkpt>
      <trkpt lat="42.83201" lon="19.36047">
        <ele>549.53002929688</ele>
        <time>2024-09-22T14:30:18.000Z</time>
      </trkpt>
      <trkpt lat="42.83204" lon="19.36065">
        <ele>549.04998779297</ele>
        <time>2024-09-22T14:30:19.000Z</time>
      </trkpt>
      <trkpt lat="42.83206" lon="19.36081">
        <ele>548.57000732422</ele>
        <time>2024-09-22T14:30:20.000Z</time>
      </trkpt>
      <trkpt lat="42.83203" lon="19.36095">
        <ele>547.60998535156</ele>
        <time>2024-09-22T14:30:21.000Z</time>
      </trkpt>
      <trkpt lat="42.83198" lon="19.36107">
        <ele>545.69000244141</ele>
        <time>2024-09-22T14:30:22.000Z</time>
      </trkpt>
      <trkpt lat="42.83191" lon="19.36117">
        <ele>544.71997070312</ele>
        <time>2024-09-22T14:30:23.000Z</time>
      </trkpt>
      <trkpt lat="42.83179" lon="19.36124">
        <ele>544.71997070312</ele>
        <time>2024-09-22T14:30:24.000Z</time>
      </trkpt>
      <trkpt lat="42.83163" lon="19.36127">
        <ele>544.23999023438</ele>
        <time>2024-09-22T14:30:25.000Z</time>
      </trkpt>
      <trkpt lat="42.8315" lon="19.3613">
        <ele>543.28002929688</ele>
        <time>2024-09-22T14:30:26.000Z</time>
      </trkpt>
      <trkpt lat="42.83135" lon="19.36131">
        <ele>542.32000732422</ele>
        <time>2024-09-22T14:30:27.000Z</time>
      </trkpt>
      <trkpt lat="42.83119" lon="19.3613">
        <ele>541.35998535156</ele>
        <time>2024-09-22T14:30:28.000Z</time>
      </trkpt>
      <trkpt lat="42.83105" lon="19.36126">
        <ele>541.84002685547</ele>
        <time>2024-09-22T14:30:29.000Z</time>
      </trkpt>
      <trkpt lat="42.83094" lon="19.36125">
        <ele>541.84002685547</ele>
        <time>2024-09-22T14:30:30.000Z</time>
      </trkpt>
      <trkpt lat="42.8308" lon="19.36129">
        <ele>540.88000488281</ele>
        <time>2024-09-22T14:30:31.000Z</time>
      </trkpt>
      <trkpt lat="42.83067" lon="19.36137">
        <ele>540.40002441406</ele>
        <time>2024-09-22T14:30:32.000Z</time>
      </trkpt>
      <trkpt lat="42.83054" lon="19.36146">
        <ele>538.96002197266</ele>
        <time>2024-09-22T14:30:33.000Z</time>
      </trkpt>
      <trkpt lat="42.8304" lon="19.36153">
        <ele>537.98999023438</ele>
        <time>2024-09-22T14:30:34.000Z</time>
      </trkpt>
      <trkpt lat="42.83027" lon="19.36156">
        <ele>537.51000976562</ele>
        <time>2024-09-22T14:30:35.000Z</time>
      </trkpt>
      <trkpt lat="42.8301" lon="19.36158">
        <ele>536.54998779297</ele>
        <time>2024-09-22T14:30:36.000Z</time>
      </trkpt>
      <trkpt lat="42.82998" lon="19.36161">
        <ele>536.07000732422</ele>
        <time>2024-09-22T14:30:37.000Z</time>
      </trkpt>
      <trkpt lat="42.82984" lon="19.36167">
        <ele>535.10998535156</ele>
        <time>2024-09-22T14:30:38.000Z</time>
      </trkpt>
      <trkpt lat="42.82971" lon="19.36178">
        <ele>534.15002441406</ele>
        <time>2024-09-22T14:30:39.000Z</time>
      </trkpt>
      <trkpt lat="42.82959" lon="19.36194">
        <ele>533.19000244141</ele>
        <time>2024-09-22T14:30:40.000Z</time>
      </trkpt>
      <trkpt lat="42.82951" lon="19.36209">
        <ele>532.22998046875</ele>
        <time>2024-09-22T14:30:41.000Z</time>
      </trkpt>
      <trkpt lat="42.82943" lon="19.36226">
        <ele>530.78997802734</ele>
        <time>2024-09-22T14:30:42.000Z</time>
      </trkpt>
      <trkpt lat="42.82938" lon="19.36244">
        <ele>529.82000732422</ele>
        <time>2024-09-22T14:30:43.000Z</time>
      </trkpt>
      <trkpt lat="42.82937" lon="19.36263">
        <ele>528.85998535156</ele>
        <time>2024-09-22T14:30:44.000Z</time>
      </trkpt>
      <trkpt lat="42.8294" lon="19.36281">
        <ele>528.38000488281</ele>
        <time>2024-09-22T14:30:45.000Z</time>
      </trkpt>
      <trkpt lat="42.82945" lon="19.36299">
        <ele>527.41998291016</ele>
        <time>2024-09-22T14:30:46.000Z</time>
      </trkpt>
      <trkpt lat="42.82958" lon="19.3633">
        <ele>525.97998046875</ele>
        <time>2024-09-22T14:30:47.000Z</time>
      </trkpt>
      <trkpt lat="42.82959" lon="19.36333">
        <ele>525.5</ele>
        <time>2024-09-22T14:30:48.000Z</time>
      </trkpt>
      <trkpt lat="42.82964" lon="19.36348">
        <ele>525.02001953125</ele>
        <time>2024-09-22T14:30:49.000Z</time>
      </trkpt>
      <trkpt lat="42.82965" lon="19.36362">
        <ele>523.58001708984</ele>
        <time>2024-09-22T14:30:50.000Z</time>
      </trkpt>
      <trkpt lat="42.82961" lon="19.36375">
        <ele>522.60998535156</ele>
        <time>2024-09-22T14:30:51.000Z</time>
      </trkpt>
      <trkpt lat="42.82953" lon="19.36384">
        <ele>522.13000488281</ele>
        <time>2024-09-22T14:30:52.000Z</time>
      </trkpt>
      <trkpt lat="42.82943" lon="19.36388">
        <ele>521.16998291016</ele>
        <time>2024-09-22T14:30:53.000Z</time>
      </trkpt>
      <trkpt lat="42.82932" lon="19.36385">
        <ele>520.21002197266</ele>
        <time>2024-09-22T14:30:54.000Z</time>
      </trkpt>
      <trkpt lat="42.82921" lon="19.36378">
        <ele>519.25</ele>
        <time>2024-09-22T14:30:55.000Z</time>
      </trkpt>
      <trkpt lat="42.8291" lon="19.36364">
        <ele>517.80999755859</ele>
        <time>2024-09-22T14:30:56.000Z</time>
      </trkpt>
      <trkpt lat="42.8288" lon="19.36324">
        <ele>514.44000244141</ele>
        <time>2024-09-22T14:30:58.000Z</time>
      </trkpt>
      <trkpt lat="42.82877" lon="19.36319">
        <ele>513.96002197266</ele>
        <time>2024-09-22T14:30:59.000Z</time>
      </trkpt>
      <trkpt lat="42.82861" lon="19.36291">
        <ele>512.03997802734</ele>
        <time>2024-09-22T14:31:00.000Z</time>
      </trkpt>
      <trkpt lat="42.82855" lon="19.36282">
        <ele>510.60000610352</ele>
        <time>2024-09-22T14:31:01.000Z</time>
      </trkpt>
      <trkpt lat="42.82847" lon="19.36272">
        <ele>508.19000244141</ele>
        <time>2024-09-22T14:31:02.000Z</time>
      </trkpt>
      <trkpt lat="42.82836" lon="19.36263">
        <ele>507.70999145508</ele>
        <time>2024-09-22T14:31:03.000Z</time>
      </trkpt>
      <trkpt lat="42.82824" lon="19.3626">
        <ele>507.23001098633</ele>
        <time>2024-09-22T14:31:04.000Z</time>
      </trkpt>
      <trkpt lat="42.82811" lon="19.36262">
        <ele>506.75</ele>
        <time>2024-09-22T14:31:05.000Z</time>
      </trkpt>
      <trkpt lat="42.82785" lon="19.36274">
        <ele>504.35000610352</ele>
        <time>2024-09-22T14:31:07.000Z</time>
      </trkpt>
      <trkpt lat="42.8277" lon="19.36279">
        <ele>502.42999267578</ele>
        <time>2024-09-22T14:31:08.000Z</time>
      </trkpt>
      <trkpt lat="42.82756" lon="19.36281">
        <ele>501.45999145508</ele>
        <time>2024-09-22T14:31:09.000Z</time>
      </trkpt>
      <trkpt lat="42.8273" lon="19.36282">
        <ele>499.05999755859</ele>
        <time>2024-09-22T14:31:10.000Z</time>
      </trkpt>
      <trkpt lat="42.82688" lon="19.36286">
        <ele>493.76998901367</ele>
        <time>2024-09-22T14:31:13.000Z</time>
      </trkpt>
      <trkpt lat="42.82679" lon="19.36287">
        <ele>493.29000854492</ele>
        <time>2024-09-22T14:31:14.000Z</time>
      </trkpt>
      <trkpt lat="42.82666" lon="19.36292">
        <ele>491.85000610352</ele>
        <time>2024-09-22T14:31:15.000Z</time>
      </trkpt>
      <trkpt lat="42.82654" lon="19.36303">
        <ele>489.45001220703</ele>
        <time>2024-09-22T14:31:16.000Z</time>
      </trkpt>
      <trkpt lat="42.82642" lon="19.36316">
        <ele>488.48999023438</ele>
        <time>2024-09-22T14:31:17.000Z</time>
      </trkpt>
      <trkpt lat="42.82632" lon="19.3633">
        <ele>487.04998779297</ele>
        <time>2024-09-22T14:31:18.000Z</time>
      </trkpt>
      <trkpt lat="42.82623" lon="19.36347">
        <ele>484.64001464844</ele>
        <time>2024-09-22T14:31:19.000Z</time>
      </trkpt>
      <trkpt lat="42.82617" lon="19.36368">
        <ele>483.67999267578</ele>
        <time>2024-09-22T14:31:20.000Z</time>
      </trkpt>
      <trkpt lat="42.82612" lon="19.36392">
        <ele>482.23999023438</ele>
        <time>2024-09-22T14:31:21.000Z</time>
      </trkpt>
      <trkpt lat="42.8261" lon="19.36414">
        <ele>481.2799987793</ele>
        <time>2024-09-22T14:31:22.000Z</time>
      </trkpt>
      <trkpt lat="42.82609" lon="19.36435">
        <ele>480.32000732422</ele>
        <time>2024-09-22T14:31:23.000Z</time>
      </trkpt>
      <trkpt lat="42.82609" lon="19.36461">
        <ele>478.86999511719</ele>
        <time>2024-09-22T14:31:24.000Z</time>
      </trkpt>
      <trkpt lat="42.82614" lon="19.36508">
        <ele>476.95001220703</ele>
        <time>2024-09-22T14:31:26.000Z</time>
      </trkpt>
      <trkpt lat="42.82615" lon="19.36524">
        <ele>475.98999023438</ele>
        <time>2024-09-22T14:31:27.000Z</time>
      </trkpt>
      <trkpt lat="42.82615" lon="19.36539">
        <ele>475.0299987793</ele>
        <time>2024-09-22T14:31:28.000Z</time>
      </trkpt>
      <trkpt lat="42.82614" lon="19.36554">
        <ele>474.54998779297</ele>
        <time>2024-09-22T14:31:29.000Z</time>
      </trkpt>
      <trkpt lat="42.82609" lon="19.36568">
        <ele>474.07000732422</ele>
        <time>2024-09-22T14:31:30.000Z</time>
      </trkpt>
      <trkpt lat="42.82602" lon="19.3658">
        <ele>473.58999633789</ele>
        <time>2024-09-22T14:31:31.000Z</time>
      </trkpt>
      <trkpt lat="42.82583" lon="19.36606">
        <ele>472.14001464844</ele>
        <time>2024-09-22T14:31:33.000Z</time>
      </trkpt>
      <trkpt lat="42.82576" lon="19.36614">
        <ele>472.14001464844</ele>
        <time>2024-09-22T14:31:34.000Z</time>
      </trkpt>
      <trkpt lat="42.82567" lon="19.36629">
        <ele>471.66000366211</ele>
        <time>2024-09-22T14:31:35.000Z</time>
      </trkpt>
      <trkpt lat="42.82561" lon="19.3664">
        <ele>471.17999267578</ele>
        <time>2024-09-22T14:31:36.000Z</time>
      </trkpt>
      <trkpt lat="42.82556" lon="19.36651">
        <ele>471.17999267578</ele>
        <time>2024-09-22T14:31:37.000Z</time>
      </trkpt>
      <trkpt lat="42.82548" lon="19.3667">
        <ele>471.17999267578</ele>
        <time>2024-09-22T14:31:38.000Z</time>
      </trkpt>
      <trkpt lat="42.8254" lon="19.36694">
        <ele>471.17999267578</ele>
        <time>2024-09-22T14:31:40.000Z</time>
      </trkpt>
      <trkpt lat="42.82533" lon="19.36708">
        <ele>470.70001220703</ele>
        <time>2024-09-22T14:31:41.000Z</time>
      </trkpt>
      <trkpt lat="42.82525" lon="19.36723">
        <ele>470.2200012207</ele>
        <time>2024-09-22T14:31:42.000Z</time>
      </trkpt>
      <trkpt lat="42.82516" lon="19.36734">
        <ele>470.2200012207</ele>
        <time>2024-09-22T14:31:43.000Z</time>
      </trkpt>
      <trkpt lat="42.8251" lon="19.36747">
        <ele>470.2200012207</ele>
        <time>2024-09-22T14:31:44.000Z</time>
      </trkpt>
      <trkpt lat="42.82506" lon="19.36762">
        <ele>470.2200012207</ele>
        <time>2024-09-22T14:31:45.000Z</time>
      </trkpt>
      <trkpt lat="42.82505" lon="19.36778">
        <ele>469.73999023438</ele>
        <time>2024-09-22T14:31:46.000Z</time>
      </trkpt>
      <trkpt lat="42.82506" lon="19.36827">
        <ele>469.26000976562</ele>
        <time>2024-09-22T14:31:48.000Z</time>
      </trkpt>
      <trkpt lat="42.82507" lon="19.36834">
        <ele>468.7799987793</ele>
        <time>2024-09-22T14:31:49.000Z</time>
      </trkpt>
      <trkpt lat="42.82509" lon="19.36847">
        <ele>468.29998779297</ele>
        <time>2024-09-22T14:31:50.000Z</time>
      </trkpt>
      <trkpt lat="42.82513" lon="19.36862">
        <ele>467.82000732422</ele>
        <time>2024-09-22T14:31:51.000Z</time>
      </trkpt>
      <trkpt lat="42.82528" lon="19.36891">
        <ele>466.85998535156</ele>
        <time>2024-09-22T14:31:53.000Z</time>
      </trkpt>
      <trkpt lat="42.82533" lon="19.36903">
        <ele>466.38000488281</ele>
        <time>2024-09-22T14:31:54.000Z</time>
      </trkpt>
      <trkpt lat="42.82538" lon="19.36921">
        <ele>465.89999389648</ele>
        <time>2024-09-22T14:31:55.000Z</time>
      </trkpt>
      <trkpt lat="42.82541" lon="19.36939">
        <ele>465.42001342773</ele>
        <time>2024-09-22T14:31:56.000Z</time>
      </trkpt>
      <trkpt lat="42.82544" lon="19.36967">
        <ele>463.9700012207</ele>
        <time>2024-09-22T14:31:57.000Z</time>
      </trkpt>
      <trkpt lat="42.82549" lon="19.37004">
        <ele>462.5299987793</ele>
        <time>2024-09-22T14:31:59.000Z</time>
      </trkpt>
      <trkpt lat="42.82551" lon="19.37014">
        <ele>461.57000732422</ele>
        <time>2024-09-22T14:32:00.000Z</time>
      </trkpt>
      <trkpt lat="42.82557" lon="19.3703">
        <ele>461.08999633789</ele>
        <time>2024-09-22T14:32:01.000Z</time>
      </trkpt>
      <trkpt lat="42.82566" lon="19.37043">
        <ele>460.60998535156</ele>
        <time>2024-09-22T14:32:02.000Z</time>
      </trkpt>
      <trkpt lat="42.82585" lon="19.37064">
        <ele>459.17001342773</ele>
        <time>2024-09-22T14:32:04.000Z</time>
      </trkpt>
      <trkpt lat="42.82593" lon="19.37075">
        <ele>459.17001342773</ele>
        <time>2024-09-22T14:32:05.000Z</time>
      </trkpt>
      <trkpt lat="42.82599" lon="19.37086">
        <ele>458.69000244141</ele>
        <time>2024-09-22T14:32:06.000Z</time>
      </trkpt>
      <trkpt lat="42.82602" lon="19.37097">
        <ele>458.20999145508</ele>
        <time>2024-09-22T14:32:07.000Z</time>
      </trkpt>
      <trkpt lat="42.826" lon="19.37108">
        <ele>457.7200012207</ele>
        <time>2024-09-22T14:32:08.000Z</time>
      </trkpt>
      <trkpt lat="42.82594" lon="19.3712">
        <ele>457.23999023438</ele>
        <time>2024-09-22T14:32:09.000Z</time>
      </trkpt>
      <trkpt lat="42.82583" lon="19.3713">
        <ele>457.23999023438</ele>
        <time>2024-09-22T14:32:10.000Z</time>
      </trkpt>
      <trkpt lat="42.82574" lon="19.37139">
        <ele>457.23999023438</ele>
        <time>2024-09-22T14:32:11.000Z</time>
      </trkpt>
      <trkpt lat="42.82566" lon="19.37148">
        <ele>457.23999023438</ele>
        <time>2024-09-22T14:32:12.000Z</time>
      </trkpt>
      <trkpt lat="42.82553" lon="19.37165">
        <ele>457.23999023438</ele>
        <time>2024-09-22T14:32:13.000Z</time>
      </trkpt>
      <trkpt lat="42.82504" lon="19.37243">
        <ele>459.17001342773</ele>
        <time>2024-09-22T14:32:18.000Z</time>
      </trkpt>
      <trkpt lat="42.82497" lon="19.37255">
        <ele>460.13000488281</ele>
        <time>2024-09-22T14:32:19.000Z</time>
      </trkpt>
      <trkpt lat="42.82489" lon="19.37267">
        <ele>460.60998535156</ele>
        <time>2024-09-22T14:32:20.000Z</time>
      </trkpt>
      <trkpt lat="42.82484" lon="19.37282">
        <ele>461.08999633789</ele>
        <time>2024-09-22T14:32:21.000Z</time>
      </trkpt>
      <trkpt lat="42.82481" lon="19.37299">
        <ele>462.04998779297</ele>
        <time>2024-09-22T14:32:22.000Z</time>
      </trkpt>
      <trkpt lat="42.82481" lon="19.37316">
        <ele>463.01000976562</ele>
        <time>2024-09-22T14:32:23.000Z</time>
      </trkpt>
      <trkpt lat="42.82483" lon="19.37333">
        <ele>463.48999023438</ele>
        <time>2024-09-22T14:32:24.000Z</time>
      </trkpt>
      <trkpt lat="42.82485" lon="19.3735">
        <ele>463.9700012207</ele>
        <time>2024-09-22T14:32:25.000Z</time>
      </trkpt>
      <trkpt lat="42.82482" lon="19.37364">
        <ele>464.45001220703</ele>
        <time>2024-09-22T14:32:26.000Z</time>
      </trkpt>
      <trkpt lat="42.82477" lon="19.37376">
        <ele>464.92999267578</ele>
        <time>2024-09-22T14:32:27.000Z</time>
      </trkpt>
      <trkpt lat="42.82469" lon="19.37387">
        <ele>465.42001342773</ele>
        <time>2024-09-22T14:32:28.000Z</time>
      </trkpt>
      <trkpt lat="42.82453" lon="19.37398">
        <ele>466.38000488281</ele>
        <time>2024-09-22T14:32:29.000Z</time>
      </trkpt>
      <trkpt lat="42.82447" lon="19.37401">
        <ele>466.38000488281</ele>
        <time>2024-09-22T14:32:30.000Z</time>
      </trkpt>
      <trkpt lat="42.82434" lon="19.374">
        <ele>466.85998535156</ele>
        <time>2024-09-22T14:32:31.000Z</time>
      </trkpt>
      <trkpt lat="42.8242" lon="19.37398">
        <ele>467.82000732422</ele>
        <time>2024-09-22T14:32:32.000Z</time>
      </trkpt>
      <trkpt lat="42.82408" lon="19.37401">
        <ele>468.7799987793</ele>
        <time>2024-09-22T14:32:33.000Z</time>
      </trkpt>
      <trkpt lat="42.824" lon="19.37409">
        <ele>469.26000976562</ele>
        <time>2024-09-22T14:32:34.000Z</time>
      </trkpt>
      <trkpt lat="42.82395" lon="19.37422">
        <ele>470.2200012207</ele>
        <time>2024-09-22T14:32:35.000Z</time>
      </trkpt>
      <trkpt lat="42.82395" lon="19.37435">
        <ele>470.70001220703</ele>
        <time>2024-09-22T14:32:36.000Z</time>
      </trkpt>
      <trkpt lat="42.82399" lon="19.3745">
        <ele>471.66000366211</ele>
        <time>2024-09-22T14:32:37.000Z</time>
      </trkpt>
      <trkpt lat="42.82408" lon="19.3747">
        <ele>472.63000488281</ele>
        <time>2024-09-22T14:32:38.000Z</time>
      </trkpt>
      <trkpt lat="42.82411" lon="19.37479">
        <ele>472.63000488281</ele>
        <time>2024-09-22T14:32:39.000Z</time>
      </trkpt>
      <trkpt lat="42.82413" lon="19.37495">
        <ele>473.58999633789</ele>
        <time>2024-09-22T14:32:40.000Z</time>
      </trkpt>
      <trkpt lat="42.82411" lon="19.37511">
        <ele>474.07000732422</ele>
        <time>2024-09-22T14:32:41.000Z</time>
      </trkpt>
      <trkpt lat="42.82407" lon="19.37528">
        <ele>474.07000732422</ele>
        <time>2024-09-22T14:32:42.000Z</time>
      </trkpt>
      <trkpt lat="42.82405" lon="19.37545">
        <ele>474.07000732422</ele>
        <time>2024-09-22T14:32:43.000Z</time>
      </trkpt>
      <trkpt lat="42.82405" lon="19.37561">
        <ele>474.54998779297</ele>
        <time>2024-09-22T14:32:44.000Z</time>
      </trkpt>
      <trkpt lat="42.82409" lon="19.37587">
        <ele>475.0299987793</ele>
        <time>2024-09-22T14:32:45.000Z</time>
      </trkpt>
      <trkpt lat="42.8241" lon="19.37595">
        <ele>475.0299987793</ele>
        <time>2024-09-22T14:32:46.000Z</time>
      </trkpt>
      <trkpt lat="42.8241" lon="19.37611">
        <ele>475.0299987793</ele>
        <time>2024-09-22T14:32:47.000Z</time>
      </trkpt>
      <trkpt lat="42.82406" lon="19.37625">
        <ele>475.0299987793</ele>
        <time>2024-09-22T14:32:48.000Z</time>
      </trkpt>
      <trkpt lat="42.82399" lon="19.37637">
        <ele>474.54998779297</ele>
        <time>2024-09-22T14:32:49.000Z</time>
      </trkpt>
      <trkpt lat="42.82388" lon="19.37647">
        <ele>474.07000732422</ele>
        <time>2024-09-22T14:32:50.000Z</time>
      </trkpt>
      <trkpt lat="42.82377" lon="19.37661">
        <ele>473.58999633789</ele>
        <time>2024-09-22T14:32:51.000Z</time>
      </trkpt>
      <trkpt lat="42.82369" lon="19.37675">
        <ele>473.58999633789</ele>
        <time>2024-09-22T14:32:52.000Z</time>
      </trkpt>
      <trkpt lat="42.82361" lon="19.37692">
        <ele>473.58999633789</ele>
        <time>2024-09-22T14:32:53.000Z</time>
      </trkpt>
      <trkpt lat="42.82344" lon="19.37745">
        <ele>473.10998535156</ele>
        <time>2024-09-22T14:32:55.000Z</time>
      </trkpt>
      <trkpt lat="42.8234" lon="19.37759">
        <ele>472.63000488281</ele>
        <time>2024-09-22T14:32:56.000Z</time>
      </trkpt>
      <trkpt lat="42.82338" lon="19.37767">
        <ele>472.63000488281</ele>
        <time>2024-09-22T14:32:57.000Z</time>
      </trkpt>
      <trkpt lat="42.82336" lon="19.37786">
        <ele>472.63000488281</ele>
        <time>2024-09-22T14:32:58.000Z</time>
      </trkpt>
      <trkpt lat="42.82336" lon="19.37806">
        <ele>472.63000488281</ele>
        <time>2024-09-22T14:32:59.000Z</time>
      </trkpt>
      <trkpt lat="42.82343" lon="19.37846">
        <ele>472.14001464844</ele>
        <time>2024-09-22T14:33:01.000Z</time>
      </trkpt>
      <trkpt lat="42.82346" lon="19.37864">
        <ele>471.66000366211</ele>
        <time>2024-09-22T14:33:02.000Z</time>
      </trkpt>
      <trkpt lat="42.82346" lon="19.37878">
        <ele>471.66000366211</ele>
        <time>2024-09-22T14:33:03.000Z</time>
      </trkpt>
      <trkpt lat="42.82343" lon="19.3789">
        <ele>471.66000366211</ele>
        <time>2024-09-22T14:33:04.000Z</time>
      </trkpt>
      <trkpt lat="42.82337" lon="19.37901">
        <ele>471.66000366211</ele>
        <time>2024-09-22T14:33:05.000Z</time>
      </trkpt>
      <trkpt lat="42.82328" lon="19.37909">
        <ele>471.66000366211</ele>
        <time>2024-09-22T14:33:06.000Z</time>
      </trkpt>
      <trkpt lat="42.82318" lon="19.37911">
        <ele>471.66000366211</ele>
        <time>2024-09-22T14:33:07.000Z</time>
      </trkpt>
      <trkpt lat="42.82305" lon="19.37912">
        <ele>471.17999267578</ele>
        <time>2024-09-22T14:33:08.000Z</time>
      </trkpt>
      <trkpt lat="42.8229" lon="19.37905">
        <ele>471.66000366211</ele>
        <time>2024-09-22T14:33:09.000Z</time>
      </trkpt>
      <trkpt lat="42.82273" lon="19.37899">
        <ele>472.63000488281</ele>
        <time>2024-09-22T14:33:10.000Z</time>
      </trkpt>
      <trkpt lat="42.8226" lon="19.37893">
        <ele>473.10998535156</ele>
        <time>2024-09-22T14:33:11.000Z</time>
      </trkpt>
      <trkpt lat="42.82241" lon="19.37881">
        <ele>474.54998779297</ele>
        <time>2024-09-22T14:33:12.000Z</time>
      </trkpt>
      <trkpt lat="42.8223" lon="19.37875">
        <ele>475.51000976562</ele>
        <time>2024-09-22T14:33:13.000Z</time>
      </trkpt>
      <trkpt lat="42.82215" lon="19.37868">
        <ele>476.95001220703</ele>
        <time>2024-09-22T14:33:14.000Z</time>
      </trkpt>
      <trkpt lat="42.82199" lon="19.37865">
        <ele>478.86999511719</ele>
        <time>2024-09-22T14:33:15.000Z</time>
      </trkpt>
      <trkpt lat="42.82167" lon="19.37868">
        <ele>480.79998779297</ele>
        <time>2024-09-22T14:33:16.000Z</time>
      </trkpt>
      <trkpt lat="42.82147" lon="19.37872">
        <ele>481.76000976562</ele>
        <time>2024-09-22T14:33:18.000Z</time>
      </trkpt>
      <trkpt lat="42.82135" lon="19.37875">
        <ele>482.23999023438</ele>
        <time>2024-09-22T14:33:19.000Z</time>
      </trkpt>
      <trkpt lat="42.82123" lon="19.37883">
        <ele>483.20001220703</ele>
        <time>2024-09-22T14:33:20.000Z</time>
      </trkpt>
      <trkpt lat="42.82114" lon="19.37893">
        <ele>483.67999267578</ele>
        <time>2024-09-22T14:33:21.000Z</time>
      </trkpt>
      <trkpt lat="42.82108" lon="19.37908">
        <ele>484.64001464844</ele>
        <time>2024-09-22T14:33:22.000Z</time>
      </trkpt>
      <trkpt lat="42.82103" lon="19.37931">
        <ele>486.07998657227</ele>
        <time>2024-09-22T14:33:23.000Z</time>
      </trkpt>
      <trkpt lat="42.82099" lon="19.37944">
        <ele>486.07998657227</ele>
        <time>2024-09-22T14:33:24.000Z</time>
      </trkpt>
      <trkpt lat="42.82092" lon="19.37956">
        <ele>486.07998657227</ele>
        <time>2024-09-22T14:33:25.000Z</time>
      </trkpt>
      <trkpt lat="42.82082" lon="19.37965">
        <ele>486.55999755859</ele>
        <time>2024-09-22T14:33:26.000Z</time>
      </trkpt>
      <trkpt lat="42.8207" lon="19.37973">
        <ele>486.55999755859</ele>
        <time>2024-09-22T14:33:27.000Z</time>
      </trkpt>
      <trkpt lat="42.82053" lon="19.37981">
        <ele>486.55999755859</ele>
        <time>2024-09-22T14:33:28.000Z</time>
      </trkpt>
      <trkpt lat="42.82043" lon="19.37987">
        <ele>486.07998657227</ele>
        <time>2024-09-22T14:33:29.000Z</time>
      </trkpt>
      <trkpt lat="42.82032" lon="19.37996">
        <ele>485.60000610352</ele>
        <time>2024-09-22T14:33:30.000Z</time>
      </trkpt>
      <trkpt lat="42.82023" lon="19.38008">
        <ele>485.11999511719</ele>
        <time>2024-09-22T14:33:31.000Z</time>
      </trkpt>
      <trkpt lat="42.82018" lon="19.38024">
        <ele>484.16000366211</ele>
        <time>2024-09-22T14:33:32.000Z</time>
      </trkpt>
      <trkpt lat="42.82015" lon="19.38041">
        <ele>484.16000366211</ele>
        <time>2024-09-22T14:33:33.000Z</time>
      </trkpt>
      <trkpt lat="42.82014" lon="19.38059">
        <ele>483.20001220703</ele>
        <time>2024-09-22T14:33:34.000Z</time>
      </trkpt>
      <trkpt lat="42.82012" lon="19.38072">
        <ele>482.7200012207</ele>
        <time>2024-09-22T14:33:35.000Z</time>
      </trkpt>
      <trkpt lat="42.82008" lon="19.38087">
        <ele>481.76000976562</ele>
        <time>2024-09-22T14:33:36.000Z</time>
      </trkpt>
      <trkpt lat="42.82001" lon="19.38099">
        <ele>481.2799987793</ele>
        <time>2024-09-22T14:33:37.000Z</time>
      </trkpt>
      <trkpt lat="42.81991" lon="19.38108">
        <ele>480.79998779297</ele>
        <time>2024-09-22T14:33:38.000Z</time>
      </trkpt>
      <trkpt lat="42.81979" lon="19.38115">
        <ele>480.32000732422</ele>
        <time>2024-09-22T14:33:39.000Z</time>
      </trkpt>
      <trkpt lat="42.81963" lon="19.38119">
        <ele>479.83999633789</ele>
        <time>2024-09-22T14:33:40.000Z</time>
      </trkpt>
      <trkpt lat="42.81825" lon="19.38143">
        <ele>485.60000610352</ele>
        <time>2024-09-22T14:33:48.000Z</time>
      </trkpt>
      <trkpt lat="42.81822" lon="19.38143">
        <ele>485.60000610352</ele>
        <time>2024-09-22T14:33:49.000Z</time>
      </trkpt>
      <trkpt lat="42.81811" lon="19.38144">
        <ele>486.07998657227</ele>
        <time>2024-09-22T14:33:50.000Z</time>
      </trkpt>
      <trkpt lat="42.81799" lon="19.38148">
        <ele>484.64001464844</ele>
        <time>2024-09-22T14:33:51.000Z</time>
      </trkpt>
      <trkpt lat="42.8179" lon="19.38156">
        <ele>483.67999267578</ele>
        <time>2024-09-22T14:33:52.000Z</time>
      </trkpt>
      <trkpt lat="42.81784" lon="19.38167">
        <ele>483.20001220703</ele>
        <time>2024-09-22T14:33:53.000Z</time>
      </trkpt>
      <trkpt lat="42.8178" lon="19.38182">
        <ele>482.7200012207</ele>
        <time>2024-09-22T14:33:54.000Z</time>
      </trkpt>
      <trkpt lat="42.81779" lon="19.38198">
        <ele>481.76000976562</ele>
        <time>2024-09-22T14:33:55.000Z</time>
      </trkpt>
      <trkpt lat="42.8178" lon="19.38215">
        <ele>480.79998779297</ele>
        <time>2024-09-22T14:33:56.000Z</time>
      </trkpt>
      <trkpt lat="42.81781" lon="19.38235">
        <ele>479.35000610352</ele>
        <time>2024-09-22T14:33:57.000Z</time>
      </trkpt>
      <trkpt lat="42.81783" lon="19.3826">
        <ele>477.91000366211</ele>
        <time>2024-09-22T14:33:58.000Z</time>
      </trkpt>
      <trkpt lat="42.81786" lon="19.38298">
        <ele>475.98999023438</ele>
        <time>2024-09-22T14:34:00.000Z</time>
      </trkpt>
      <trkpt lat="42.81786" lon="19.38303">
        <ele>475.51000976562</ele>
        <time>2024-09-22T14:34:01.000Z</time>
      </trkpt>
      <trkpt lat="42.81788" lon="19.38323">
        <ele>474.54998779297</ele>
        <time>2024-09-22T14:34:02.000Z</time>
      </trkpt>
      <trkpt lat="42.8179" lon="19.38341">
        <ele>473.58999633789</ele>
        <time>2024-09-22T14:34:03.000Z</time>
      </trkpt>
      <trkpt lat="42.81792" lon="19.38363">
        <ele>472.14001464844</ele>
        <time>2024-09-22T14:34:04.000Z</time>
      </trkpt>
      <trkpt lat="42.81792" lon="19.38369">
        <ele>471.66000366211</ele>
        <time>2024-09-22T14:34:05.000Z</time>
      </trkpt>
      <trkpt lat="42.81796" lon="19.38385">
        <ele>470.70001220703</ele>
        <time>2024-09-22T14:34:06.000Z</time>
      </trkpt>
      <trkpt lat="42.81801" lon="19.384">
        <ele>469.73999023438</ele>
        <time>2024-09-22T14:34:07.000Z</time>
      </trkpt>
      <trkpt lat="42.81807" lon="19.38413">
        <ele>468.7799987793</ele>
        <time>2024-09-22T14:34:08.000Z</time>
      </trkpt>
      <trkpt lat="42.81815" lon="19.38424">
        <ele>467.82000732422</ele>
        <time>2024-09-22T14:34:09.000Z</time>
      </trkpt>
      <trkpt lat="42.81825" lon="19.38433">
        <ele>466.85998535156</ele>
        <time>2024-09-22T14:34:10.000Z</time>
      </trkpt>
      <trkpt lat="42.81836" lon="19.38438">
        <ele>465.89999389648</ele>
        <time>2024-09-22T14:34:11.000Z</time>
      </trkpt>
      <trkpt lat="42.81846" lon="19.38441">
        <ele>465.42001342773</ele>
        <time>2024-09-22T14:34:12.000Z</time>
      </trkpt>
      <trkpt lat="42.81857" lon="19.38441">
        <ele>464.92999267578</ele>
        <time>2024-09-22T14:34:13.000Z</time>
      </trkpt>
      <trkpt lat="42.81869" lon="19.38439">
        <ele>464.45001220703</ele>
        <time>2024-09-22T14:34:14.000Z</time>
      </trkpt>
      <trkpt lat="42.8188" lon="19.38435">
        <ele>463.48999023438</ele>
        <time>2024-09-22T14:34:15.000Z</time>
      </trkpt>
      <trkpt lat="42.81891" lon="19.3843">
        <ele>463.01000976562</ele>
        <time>2024-09-22T14:34:16.000Z</time>
      </trkpt>
      <trkpt lat="42.81902" lon="19.38424">
        <ele>462.5299987793</ele>
        <time>2024-09-22T14:34:17.000Z</time>
      </trkpt>
      <trkpt lat="42.81912" lon="19.38419">
        <ele>462.04998779297</ele>
        <time>2024-09-22T14:34:18.000Z</time>
      </trkpt>
      <trkpt lat="42.81926" lon="19.38415">
        <ele>461.08999633789</ele>
        <time>2024-09-22T14:34:19.000Z</time>
      </trkpt>
      <trkpt lat="42.81936" lon="19.38414">
        <ele>460.60998535156</ele>
        <time>2024-09-22T14:34:20.000Z</time>
      </trkpt>
      <trkpt lat="42.81965" lon="19.38414">
        <ele>459.64999389648</ele>
        <time>2024-09-22T14:34:22.000Z</time>
      </trkpt>
      <trkpt lat="42.81997" lon="19.38415">
        <ele>459.17001342773</ele>
        <time>2024-09-22T14:34:25.000Z</time>
      </trkpt>
      <trkpt lat="42.81999" lon="19.38415">
        <ele>458.69000244141</ele>
        <time>2024-09-22T14:34:26.000Z</time>
      </trkpt>
      <trkpt lat="42.8201" lon="19.38416">
        <ele>458.69000244141</ele>
        <time>2024-09-22T14:34:27.000Z</time>
      </trkpt>
      <trkpt lat="42.82017" lon="19.38419">
        <ele>458.20999145508</ele>
        <time>2024-09-22T14:34:28.000Z</time>
      </trkpt>
      <trkpt lat="42.82029" lon="19.38424">
        <ele>457.7200012207</ele>
        <time>2024-09-22T14:34:29.000Z</time>
      </trkpt>
      <trkpt lat="42.82038" lon="19.3843">
        <ele>457.23999023438</ele>
        <time>2024-09-22T14:34:30.000Z</time>
      </trkpt>
      <trkpt lat="42.82048" lon="19.38438">
        <ele>456.76000976562</ele>
        <time>2024-09-22T14:34:31.000Z</time>
      </trkpt>
      <trkpt lat="42.82059" lon="19.38448">
        <ele>456.2799987793</ele>
        <time>2024-09-22T14:34:32.000Z</time>
      </trkpt>
      <trkpt lat="42.82066" lon="19.38458">
        <ele>456.2799987793</ele>
        <time>2024-09-22T14:34:33.000Z</time>
      </trkpt>
      <trkpt lat="42.82071" lon="19.3847">
        <ele>455.79998779297</ele>
        <time>2024-09-22T14:34:34.000Z</time>
      </trkpt>
      <trkpt lat="42.82072" lon="19.38483">
        <ele>455.79998779297</ele>
        <time>2024-09-22T14:34:35.000Z</time>
      </trkpt>
      <trkpt lat="42.8207" lon="19.38498">
        <ele>455.79998779297</ele>
        <time>2024-09-22T14:34:36.000Z</time>
      </trkpt>
      <trkpt lat="42.82065" lon="19.3851">
        <ele>455.79998779297</ele>
        <time>2024-09-22T14:34:37.000Z</time>
      </trkpt>
      <trkpt lat="42.82058" lon="19.3852">
        <ele>455.79998779297</ele>
        <time>2024-09-22T14:34:38.000Z</time>
      </trkpt>
      <trkpt lat="42.82048" lon="19.38525">
        <ele>456.2799987793</ele>
        <time>2024-09-22T14:34:39.000Z</time>
      </trkpt>
      <trkpt lat="42.82037" lon="19.38529">
        <ele>456.2799987793</ele>
        <time>2024-09-22T14:34:40.000Z</time>
      </trkpt>
      <trkpt lat="42.81999" lon="19.38536">
        <ele>457.23999023438</ele>
        <time>2024-09-22T14:34:43.000Z</time>
      </trkpt>
      <trkpt lat="42.81983" lon="19.38541">
        <ele>458.20999145508</ele>
        <time>2024-09-22T14:34:44.000Z</time>
      </trkpt>
      <trkpt lat="42.81972" lon="19.38545">
        <ele>458.69000244141</ele>
        <time>2024-09-22T14:34:45.000Z</time>
      </trkpt>
      <trkpt lat="42.81959" lon="19.38553">
        <ele>460.13000488281</ele>
        <time>2024-09-22T14:34:46.000Z</time>
      </trkpt>
      <trkpt lat="42.8195" lon="19.38559">
        <ele>461.57000732422</ele>
        <time>2024-09-22T14:34:47.000Z</time>
      </trkpt>
      <trkpt lat="42.81939" lon="19.38569">
        <ele>463.01000976562</ele>
        <time>2024-09-22T14:34:48.000Z</time>
      </trkpt>
      <trkpt lat="42.81928" lon="19.38583">
        <ele>464.45001220703</ele>
        <time>2024-09-22T14:34:49.000Z</time>
      </trkpt>
      <trkpt lat="42.81902" lon="19.38617">
        <ele>468.29998779297</ele>
        <time>2024-09-22T14:34:52.000Z</time>
      </trkpt>
      <trkpt lat="42.81891" lon="19.38629">
        <ele>469.73999023438</ele>
        <time>2024-09-22T14:34:53.000Z</time>
      </trkpt>
      <trkpt lat="42.81881" lon="19.38639">
        <ele>470.2200012207</ele>
        <time>2024-09-22T14:34:54.000Z</time>
      </trkpt>
      <trkpt lat="42.8187" lon="19.38644">
        <ele>471.17999267578</ele>
        <time>2024-09-22T14:34:55.000Z</time>
      </trkpt>
      <trkpt lat="42.81853" lon="19.38645">
        <ele>471.66000366211</ele>
        <time>2024-09-22T14:34:56.000Z</time>
      </trkpt>
      <trkpt lat="42.8184" lon="19.38645">
        <ele>472.14001464844</ele>
        <time>2024-09-22T14:34:57.000Z</time>
      </trkpt>
      <trkpt lat="42.8183" lon="19.38646">
        <ele>472.63000488281</ele>
        <time>2024-09-22T14:34:58.000Z</time>
      </trkpt>
      <trkpt lat="42.81819" lon="19.38648">
        <ele>474.07000732422</ele>
        <time>2024-09-22T14:34:59.000Z</time>
      </trkpt>
      <trkpt lat="42.81807" lon="19.38653">
        <ele>474.54998779297</ele>
        <time>2024-09-22T14:35:00.000Z</time>
      </trkpt>
      <trkpt lat="42.81796" lon="19.38661">
        <ele>475.51000976562</ele>
        <time>2024-09-22T14:35:01.000Z</time>
      </trkpt>
      <trkpt lat="42.81787" lon="19.38673">
        <ele>475.98999023438</ele>
        <time>2024-09-22T14:35:02.000Z</time>
      </trkpt>
      <trkpt lat="42.81772" lon="19.38694">
        <ele>477.42999267578</ele>
        <time>2024-09-22T14:35:03.000Z</time>
      </trkpt>
      <trkpt lat="42.81769" lon="19.38699">
        <ele>477.42999267578</ele>
        <time>2024-09-22T14:35:04.000Z</time>
      </trkpt>
      <trkpt lat="42.81762" lon="19.38714">
        <ele>477.91000366211</ele>
        <time>2024-09-22T14:35:05.000Z</time>
      </trkpt>
      <trkpt lat="42.81757" lon="19.38728">
        <ele>478.39001464844</ele>
        <time>2024-09-22T14:35:06.000Z</time>
      </trkpt>
      <trkpt lat="42.81753" lon="19.38743">
        <ele>478.39001464844</ele>
        <time>2024-09-22T14:35:07.000Z</time>
      </trkpt>
      <trkpt lat="42.8175" lon="19.38757">
        <ele>478.86999511719</ele>
        <time>2024-09-22T14:35:08.000Z</time>
      </trkpt>
      <trkpt lat="42.81749" lon="19.38775">
        <ele>479.35000610352</ele>
        <time>2024-09-22T14:35:09.000Z</time>
      </trkpt>
      <trkpt lat="42.81749" lon="19.38795">
        <ele>479.35000610352</ele>
        <time>2024-09-22T14:35:10.000Z</time>
      </trkpt>
      <trkpt lat="42.8175" lon="19.38807">
        <ele>479.35000610352</ele>
        <time>2024-09-22T14:35:11.000Z</time>
      </trkpt>
      <trkpt lat="42.81752" lon="19.38823">
        <ele>479.83999633789</ele>
        <time>2024-09-22T14:35:12.000Z</time>
      </trkpt>
      <trkpt lat="42.81759" lon="19.38851">
        <ele>479.83999633789</ele>
        <time>2024-09-22T14:35:13.000Z</time>
      </trkpt>
      <trkpt lat="42.81779" lon="19.38922">
        <ele>480.32000732422</ele>
        <time>2024-09-22T14:35:18.000Z</time>
      </trkpt>
      <trkpt lat="42.81784" lon="19.3894">
        <ele>480.32000732422</ele>
        <time>2024-09-22T14:35:19.000Z</time>
      </trkpt>
      <trkpt lat="42.81786" lon="19.38952">
        <ele>480.79998779297</ele>
        <time>2024-09-22T14:35:20.000Z</time>
      </trkpt>
      <trkpt lat="42.81787" lon="19.38968">
        <ele>480.79998779297</ele>
        <time>2024-09-22T14:35:21.000Z</time>
      </trkpt>
      <trkpt lat="42.81784" lon="19.38982">
        <ele>480.79998779297</ele>
        <time>2024-09-22T14:35:22.000Z</time>
      </trkpt>
      <trkpt lat="42.81778" lon="19.38994">
        <ele>480.79998779297</ele>
        <time>2024-09-22T14:35:23.000Z</time>
      </trkpt>
      <trkpt lat="42.81769" lon="19.39002">
        <ele>482.23999023438</ele>
        <time>2024-09-22T14:35:24.000Z</time>
      </trkpt>
      <trkpt lat="42.8176" lon="19.39007">
        <ele>482.23999023438</ele>
        <time>2024-09-22T14:35:25.000Z</time>
      </trkpt>
      <trkpt lat="42.81749" lon="19.39006">
        <ele>481.76000976562</ele>
        <time>2024-09-22T14:35:26.000Z</time>
      </trkpt>
      <trkpt lat="42.81738" lon="19.39001">
        <ele>481.2799987793</ele>
        <time>2024-09-22T14:35:27.000Z</time>
      </trkpt>
      <trkpt lat="42.81727" lon="19.38992">
        <ele>481.76000976562</ele>
        <time>2024-09-22T14:35:28.000Z</time>
      </trkpt>
      <trkpt lat="42.81715" lon="19.3899">
        <ele>483.20001220703</ele>
        <time>2024-09-22T14:35:29.000Z</time>
      </trkpt>
      <trkpt lat="42.81704" lon="19.38994">
        <ele>484.64001464844</ele>
        <time>2024-09-22T14:35:30.000Z</time>
      </trkpt>
      <trkpt lat="42.81694" lon="19.39002">
        <ele>485.60000610352</ele>
        <time>2024-09-22T14:35:31.000Z</time>
      </trkpt>
      <trkpt lat="42.81684" lon="19.39014">
        <ele>486.55999755859</ele>
        <time>2024-09-22T14:35:32.000Z</time>
      </trkpt>
      <trkpt lat="42.8167" lon="19.39036">
        <ele>487.5299987793</ele>
        <time>2024-09-22T14:35:33.000Z</time>
      </trkpt>
      <trkpt lat="42.81668" lon="19.39038">
        <ele>488.01000976562</ele>
        <time>2024-09-22T14:35:34.000Z</time>
      </trkpt>
      <trkpt lat="42.81659" lon="19.39046">
        <ele>488.48999023438</ele>
        <time>2024-09-22T14:35:35.000Z</time>
      </trkpt>
      <trkpt lat="42.81649" lon="19.39051">
        <ele>488.48999023438</ele>
        <time>2024-09-22T14:35:36.000Z</time>
      </trkpt>
      <trkpt lat="42.81638" lon="19.39051">
        <ele>489.45001220703</ele>
        <time>2024-09-22T14:35:37.000Z</time>
      </trkpt>
      <trkpt lat="42.81627" lon="19.3905">
        <ele>490.89001464844</ele>
        <time>2024-09-22T14:35:38.000Z</time>
      </trkpt>
      <trkpt lat="42.81618" lon="19.39049">
        <ele>491.85000610352</ele>
        <time>2024-09-22T14:35:39.000Z</time>
      </trkpt>
      <trkpt lat="42.81607" lon="19.39051">
        <ele>492.80999755859</ele>
        <time>2024-09-22T14:35:40.000Z</time>
      </trkpt>
      <trkpt lat="42.81597" lon="19.39055">
        <ele>493.76998901367</ele>
        <time>2024-09-22T14:35:41.000Z</time>
      </trkpt>
      <trkpt lat="42.81577" lon="19.39067">
        <ele>495.70001220703</ele>
        <time>2024-09-22T14:35:42.000Z</time>
      </trkpt>
      <trkpt lat="42.81558" lon="19.39078">
        <ele>498.10000610352</ele>
        <time>2024-09-22T14:35:44.000Z</time>
      </trkpt>
      <trkpt lat="42.81552" lon="19.3908">
        <ele>498.57998657227</ele>
        <time>2024-09-22T14:35:45.000Z</time>
      </trkpt>
      <trkpt lat="42.8154" lon="19.39081">
        <ele>500.5</ele>
        <time>2024-09-22T14:35:46.000Z</time>
      </trkpt>
      <trkpt lat="42.81528" lon="19.39077">
        <ele>502.42999267578</ele>
        <time>2024-09-22T14:35:47.000Z</time>
      </trkpt>
      <trkpt lat="42.81519" lon="19.39075">
        <ele>503.39001464844</ele>
        <time>2024-09-22T14:35:48.000Z</time>
      </trkpt>
      <trkpt lat="42.81508" lon="19.39073">
        <ele>506.26998901367</ele>
        <time>2024-09-22T14:35:49.000Z</time>
      </trkpt>
      <trkpt lat="42.81497" lon="19.39075">
        <ele>506.75</ele>
        <time>2024-09-22T14:35:50.000Z</time>
      </trkpt>
      <trkpt lat="42.81489" lon="19.39083">
        <ele>507.70999145508</ele>
        <time>2024-09-22T14:35:51.000Z</time>
      </trkpt>
      <trkpt lat="42.81483" lon="19.39094">
        <ele>508.67001342773</ele>
        <time>2024-09-22T14:35:52.000Z</time>
      </trkpt>
      <trkpt lat="42.8148" lon="19.39107">
        <ele>509.64001464844</ele>
        <time>2024-09-22T14:35:53.000Z</time>
      </trkpt>
      <trkpt lat="42.8148" lon="19.39121">
        <ele>511.55999755859</ele>
        <time>2024-09-22T14:35:54.000Z</time>
      </trkpt>
      <trkpt lat="42.81483" lon="19.39136">
        <ele>513</ele>
        <time>2024-09-22T14:35:55.000Z</time>
      </trkpt>
      <trkpt lat="42.8151" lon="19.39232">
        <ele>520.69000244141</ele>
        <time>2024-09-22T14:36:01.000Z</time>
      </trkpt>
      <trkpt lat="42.81513" lon="19.39246">
        <ele>521.65002441406</ele>
        <time>2024-09-22T14:36:02.000Z</time>
      </trkpt>
      <trkpt lat="42.81514" lon="19.39261">
        <ele>523.09002685547</ele>
        <time>2024-09-22T14:36:03.000Z</time>
      </trkpt>
      <trkpt lat="42.81514" lon="19.39274">
        <ele>524.05999755859</ele>
        <time>2024-09-22T14:36:04.000Z</time>
      </trkpt>
      <trkpt lat="42.81512" lon="19.39298">
        <ele>525.97998046875</ele>
        <time>2024-09-22T14:36:05.000Z</time>
      </trkpt>
      <trkpt lat="42.81511" lon="19.39305">
        <ele>526.94000244141</ele>
        <time>2024-09-22T14:36:06.000Z</time>
      </trkpt>
      <trkpt lat="42.81512" lon="19.39321">
        <ele>527.41998291016</ele>
        <time>2024-09-22T14:36:07.000Z</time>
      </trkpt>
      <trkpt lat="42.81514" lon="19.39334">
        <ele>528.85998535156</ele>
        <time>2024-09-22T14:36:08.000Z</time>
      </trkpt>
      <trkpt lat="42.81519" lon="19.3935">
        <ele>530.29998779297</ele>
        <time>2024-09-22T14:36:09.000Z</time>
      </trkpt>
      <trkpt lat="42.81528" lon="19.39373">
        <ele>532.71002197266</ele>
        <time>2024-09-22T14:36:10.000Z</time>
      </trkpt>
      <trkpt lat="42.81559" lon="19.39438">
        <ele>537.51000976562</ele>
        <time>2024-09-22T14:36:14.000Z</time>
      </trkpt>
      <trkpt lat="42.81566" lon="19.39454">
        <ele>538.47998046875</ele>
        <time>2024-09-22T14:36:15.000Z</time>
      </trkpt>
      <trkpt lat="42.81586" lon="19.39498">
        <ele>540.88000488281</ele>
        <time>2024-09-22T14:36:17.000Z</time>
      </trkpt>
      <trkpt lat="42.8159" lon="19.39504">
        <ele>541.35998535156</ele>
        <time>2024-09-22T14:36:18.000Z</time>
      </trkpt>
      <trkpt lat="42.81599" lon="19.39517">
        <ele>541.84002685547</ele>
        <time>2024-09-22T14:36:19.000Z</time>
      </trkpt>
      <trkpt lat="42.8161" lon="19.39525">
        <ele>543.28002929688</ele>
        <time>2024-09-22T14:36:20.000Z</time>
      </trkpt>
      <trkpt lat="42.81621" lon="19.3953">
        <ele>544.23999023438</ele>
        <time>2024-09-22T14:36:21.000Z</time>
      </trkpt>
      <trkpt lat="42.81632" lon="19.39536">
        <ele>544.71997070312</ele>
        <time>2024-09-22T14:36:22.000Z</time>
      </trkpt>
      <trkpt lat="42.81639" lon="19.39545">
        <ele>545.69000244141</ele>
        <time>2024-09-22T14:36:23.000Z</time>
      </trkpt>
      <trkpt lat="42.81643" lon="19.39557">
        <ele>546.65002441406</ele>
        <time>2024-09-22T14:36:24.000Z</time>
      </trkpt>
      <trkpt lat="42.81642" lon="19.3957">
        <ele>547.13000488281</ele>
        <time>2024-09-22T14:36:25.000Z</time>
      </trkpt>
      <trkpt lat="42.81638" lon="19.39583">
        <ele>548.09002685547</ele>
        <time>2024-09-22T14:36:26.000Z</time>
      </trkpt>
      <trkpt lat="42.8163" lon="19.39595">
        <ele>548.57000732422</ele>
        <time>2024-09-22T14:36:27.000Z</time>
      </trkpt>
      <trkpt lat="42.81621" lon="19.39607">
        <ele>549.53002929688</ele>
        <time>2024-09-22T14:36:28.000Z</time>
      </trkpt>
      <trkpt lat="42.81614" lon="19.39617">
        <ele>550.48999023438</ele>
        <time>2024-09-22T14:36:29.000Z</time>
      </trkpt>
      <trkpt lat="42.81606" lon="19.39631">
        <ele>551.45001220703</ele>
        <time>2024-09-22T14:36:30.000Z</time>
      </trkpt>
      <trkpt lat="42.81602" lon="19.39644">
        <ele>551.92999267578</ele>
        <time>2024-09-22T14:36:31.000Z</time>
      </trkpt>
      <trkpt lat="42.81602" lon="19.39656">
        <ele>552.90002441406</ele>
        <time>2024-09-22T14:36:32.000Z</time>
      </trkpt>
      <trkpt lat="42.81606" lon="19.39669">
        <ele>553.85998535156</ele>
        <time>2024-09-22T14:36:33.000Z</time>
      </trkpt>
      <trkpt lat="42.81614" lon="19.39684">
        <ele>554.82000732422</ele>
        <time>2024-09-22T14:36:34.000Z</time>
      </trkpt>
      <trkpt lat="42.81635" lon="19.39717">
        <ele>558.17999267578</ele>
        <time>2024-09-22T14:36:36.000Z</time>
      </trkpt>
      <trkpt lat="42.81637" lon="19.39722">
        <ele>558.65997314453</ele>
        <time>2024-09-22T14:36:37.000Z</time>
      </trkpt>
      <trkpt lat="42.81643" lon="19.39735">
        <ele>559.61999511719</ele>
        <time>2024-09-22T14:36:38.000Z</time>
      </trkpt>
      <trkpt lat="42.81645" lon="19.39747">
        <ele>560.59002685547</ele>
        <time>2024-09-22T14:36:39.000Z</time>
      </trkpt>
      <trkpt lat="42.81641" lon="19.39759">
        <ele>561.54998779297</ele>
        <time>2024-09-22T14:36:40.000Z</time>
      </trkpt>
      <trkpt lat="42.81635" lon="19.39769">
        <ele>562.98999023438</ele>
        <time>2024-09-22T14:36:41.000Z</time>
      </trkpt>
      <trkpt lat="42.81626" lon="19.39776">
        <ele>564.42999267578</ele>
        <time>2024-09-22T14:36:42.000Z</time>
      </trkpt>
      <trkpt lat="42.81614" lon="19.39781">
        <ele>564.90997314453</ele>
        <time>2024-09-22T14:36:43.000Z</time>
      </trkpt>
      <trkpt lat="42.816" lon="19.39783">
        <ele>566.83001708984</ele>
        <time>2024-09-22T14:36:44.000Z</time>
      </trkpt>
      <trkpt lat="42.81591" lon="19.39785">
        <ele>567.79998779297</ele>
        <time>2024-09-22T14:36:45.000Z</time>
      </trkpt>
      <trkpt lat="42.81582" lon="19.3979">
        <ele>569.23999023438</ele>
        <time>2024-09-22T14:36:46.000Z</time>
      </trkpt>
      <trkpt lat="42.81574" lon="19.39798">
        <ele>569.71997070312</ele>
        <time>2024-09-22T14:36:47.000Z</time>
      </trkpt>
      <trkpt lat="42.8157" lon="19.39808">
        <ele>570.67999267578</ele>
        <time>2024-09-22T14:36:48.000Z</time>
      </trkpt>
      <trkpt lat="42.8157" lon="19.39821">
        <ele>572.11999511719</ele>
        <time>2024-09-22T14:36:49.000Z</time>
      </trkpt>
      <trkpt lat="42.81574" lon="19.39833">
        <ele>573.08001708984</ele>
        <time>2024-09-22T14:36:50.000Z</time>
      </trkpt>
      <trkpt lat="42.8158" lon="19.39846">
        <ele>574.53002929688</ele>
        <time>2024-09-22T14:36:51.000Z</time>
      </trkpt>
      <trkpt lat="42.81595" lon="19.39866">
        <ele>575.96997070312</ele>
        <time>2024-09-22T14:36:52.000Z</time>
      </trkpt>
      <trkpt lat="42.81625" lon="19.39901">
        <ele>579.80999755859</ele>
        <time>2024-09-22T14:36:55.000Z</time>
      </trkpt>
      <trkpt lat="42.81629" lon="19.39905">
        <ele>580.28997802734</ele>
        <time>2024-09-22T14:36:56.000Z</time>
      </trkpt>
      <trkpt lat="42.81637" lon="19.39912">
        <ele>581.25</ele>
        <time>2024-09-22T14:36:57.000Z</time>
      </trkpt>
      <trkpt lat="42.81648" lon="19.39921">
        <ele>582.70001220703</ele>
        <time>2024-09-22T14:36:58.000Z</time>
      </trkpt>
      <trkpt lat="42.81669" lon="19.39933">
        <ele>585.09997558594</ele>
        <time>2024-09-22T14:36:59.000Z</time>
      </trkpt>
      <trkpt lat="42.81686" lon="19.39941">
        <ele>586.53997802734</ele>
        <time>2024-09-22T14:37:01.000Z</time>
      </trkpt>
      <trkpt lat="42.81698" lon="19.3995">
        <ele>587.5</ele>
        <time>2024-09-22T14:37:02.000Z</time>
      </trkpt>
      <trkpt lat="42.81721" lon="19.39972">
        <ele>588.95001220703</ele>
        <time>2024-09-22T14:37:04.000Z</time>
      </trkpt>
      <trkpt lat="42.81731" lon="19.39979">
        <ele>589.42999267578</ele>
        <time>2024-09-22T14:37:05.000Z</time>
      </trkpt>
      <trkpt lat="42.81742" lon="19.39983">
        <ele>589.90997314453</ele>
        <time>2024-09-22T14:37:06.000Z</time>
      </trkpt>
      <trkpt lat="42.81753" lon="19.39984">
        <ele>590.39001464844</ele>
        <time>2024-09-22T14:37:07.000Z</time>
      </trkpt>
      <trkpt lat="42.81771" lon="19.3998">
        <ele>591.34997558594</ele>
        <time>2024-09-22T14:37:08.000Z</time>
      </trkpt>
      <trkpt lat="42.8178" lon="19.39978">
        <ele>591.83001708984</ele>
        <time>2024-09-22T14:37:09.000Z</time>
      </trkpt>
      <trkpt lat="42.81791" lon="19.39977">
        <ele>591.83001708984</ele>
        <time>2024-09-22T14:37:10.000Z</time>
      </trkpt>
      <trkpt lat="42.81803" lon="19.39979">
        <ele>592.30999755859</ele>
        <time>2024-09-22T14:37:11.000Z</time>
      </trkpt>
      <trkpt lat="42.81815" lon="19.39984">
        <ele>592.30999755859</ele>
        <time>2024-09-22T14:37:12.000Z</time>
      </trkpt>
      <trkpt lat="42.81827" lon="19.39992">
        <ele>592.30999755859</ele>
        <time>2024-09-22T14:37:13.000Z</time>
      </trkpt>
      <trkpt lat="42.81841" lon="19.40004">
        <ele>592.30999755859</ele>
        <time>2024-09-22T14:37:14.000Z</time>
      </trkpt>
      <trkpt lat="42.8185" lon="19.40016">
        <ele>592.30999755859</ele>
        <time>2024-09-22T14:37:15.000Z</time>
      </trkpt>
      <trkpt lat="42.8186" lon="19.40032">
        <ele>592.30999755859</ele>
        <time>2024-09-22T14:37:16.000Z</time>
      </trkpt>
      <trkpt lat="42.81874" lon="19.40055">
        <ele>591.83001708984</ele>
        <time>2024-09-22T14:37:17.000Z</time>
      </trkpt>
      <trkpt lat="42.81942" lon="19.4019">
        <ele>592.78997802734</ele>
        <time>2024-09-22T14:37:24.000Z</time>
      </trkpt>
      <trkpt lat="42.81944" lon="19.40193">
        <ele>592.78997802734</ele>
        <time>2024-09-22T14:37:25.000Z</time>
      </trkpt>
      <trkpt lat="42.81948" lon="19.40208">
        <ele>592.78997802734</ele>
        <time>2024-09-22T14:37:26.000Z</time>
      </trkpt>
      <trkpt lat="42.8195" lon="19.40222">
        <ele>592.78997802734</ele>
        <time>2024-09-22T14:37:27.000Z</time>
      </trkpt>
      <trkpt lat="42.81949" lon="19.40236">
        <ele>592.78997802734</ele>
        <time>2024-09-22T14:37:28.000Z</time>
      </trkpt>
      <trkpt lat="42.81945" lon="19.40249">
        <ele>593.27001953125</ele>
        <time>2024-09-22T14:37:29.000Z</time>
      </trkpt>
      <trkpt lat="42.81938" lon="19.40259">
        <ele>592.78997802734</ele>
        <time>2024-09-22T14:37:30.000Z</time>
      </trkpt>
      <trkpt lat="42.81929" lon="19.40265">
        <ele>593.27001953125</ele>
        <time>2024-09-22T14:37:31.000Z</time>
      </trkpt>
      <trkpt lat="42.81919" lon="19.40269">
        <ele>593.75</ele>
        <time>2024-09-22T14:37:32.000Z</time>
      </trkpt>
      <trkpt lat="42.81909" lon="19.4027">
        <ele>594.22998046875</ele>
        <time>2024-09-22T14:37:33.000Z</time>
      </trkpt>
      <trkpt lat="42.81901" lon="19.40269">
        <ele>594.71002197266</ele>
        <time>2024-09-22T14:37:34.000Z</time>
      </trkpt>
      <trkpt lat="42.81894" lon="19.40268">
        <ele>594.71002197266</ele>
        <time>2024-09-22T14:37:35.000Z</time>
      </trkpt>
      <trkpt lat="42.81889" lon="19.40267">
        <ele>594.71002197266</ele>
        <time>2024-09-22T14:37:36.000Z</time>
      </trkpt>
      <trkpt lat="42.81882" lon="19.40267">
        <ele>594.71002197266</ele>
        <time>2024-09-22T14:37:37.000Z</time>
      </trkpt>
      <trkpt lat="42.81882" lon="19.40267">
        <ele>594.71002197266</ele>
        <time>2024-09-22T14:37:38.000Z</time>
      </trkpt>
      <trkpt lat="42.81878" lon="19.40271">
        <ele>594.71002197266</ele>
        <time>2024-09-22T14:37:39.000Z</time>
      </trkpt>
      <trkpt lat="42.81867" lon="19.40284">
        <ele>595.19000244141</ele>
        <time>2024-09-22T14:37:41.000Z</time>
      </trkpt>
      <trkpt lat="42.81864" lon="19.40287">
        <ele>595.19000244141</ele>
        <time>2024-09-22T14:37:42.000Z</time>
      </trkpt>
      <trkpt lat="42.81857" lon="19.40292">
        <ele>595.19000244141</ele>
        <time>2024-09-22T14:37:43.000Z</time>
      </trkpt>
      <trkpt lat="42.8185" lon="19.40294">
        <ele>595.66998291016</ele>
        <time>2024-09-22T14:37:44.000Z</time>
      </trkpt>
      <trkpt lat="42.81841" lon="19.40294">
        <ele>595.66998291016</ele>
        <time>2024-09-22T14:37:45.000Z</time>
      </trkpt>
      <trkpt lat="42.81815" lon="19.40289">
        <ele>596.15002441406</ele>
        <time>2024-09-22T14:37:47.000Z</time>
      </trkpt>
      <trkpt lat="42.81806" lon="19.40286">
        <ele>595.66998291016</ele>
        <time>2024-09-22T14:37:48.000Z</time>
      </trkpt>
      <trkpt lat="42.81795" lon="19.4028">
        <ele>595.66998291016</ele>
        <time>2024-09-22T14:37:49.000Z</time>
      </trkpt>
      <trkpt lat="42.81765" lon="19.40264">
        <ele>597.11999511719</ele>
        <time>2024-09-22T14:37:51.000Z</time>
      </trkpt>
      <trkpt lat="42.81757" lon="19.4026">
        <ele>597.59997558594</ele>
        <time>2024-09-22T14:37:52.000Z</time>
      </trkpt>
      <trkpt lat="42.81743" lon="19.40257">
        <ele>597.11999511719</ele>
        <time>2024-09-22T14:37:53.000Z</time>
      </trkpt>
      <trkpt lat="42.81729" lon="19.40258">
        <ele>597.11999511719</ele>
        <time>2024-09-22T14:37:54.000Z</time>
      </trkpt>
      <trkpt lat="42.81714" lon="19.40261">
        <ele>598.08001708984</ele>
        <time>2024-09-22T14:37:55.000Z</time>
      </trkpt>
      <trkpt lat="42.81689" lon="19.40271">
        <ele>600.47998046875</ele>
        <time>2024-09-22T14:37:56.000Z</time>
      </trkpt>
      <trkpt lat="42.81646" lon="19.4029">
        <ele>603.84997558594</ele>
        <time>2024-09-22T14:37:59.000Z</time>
      </trkpt>
      <trkpt lat="42.81638" lon="19.40292">
        <ele>604.33001708984</ele>
        <time>2024-09-22T14:38:00.000Z</time>
      </trkpt>
      <trkpt lat="42.81622" lon="19.40295">
        <ele>605.77001953125</ele>
        <time>2024-09-22T14:38:01.000Z</time>
      </trkpt>
      <trkpt lat="42.81606" lon="19.40293">
        <ele>607.21002197266</ele>
        <time>2024-09-22T14:38:02.000Z</time>
      </trkpt>
      <trkpt lat="42.81591" lon="19.40288">
        <ele>609.13000488281</ele>
        <time>2024-09-22T14:38:03.000Z</time>
      </trkpt>
      <trkpt lat="42.81576" lon="19.40279">
        <ele>610.57000732422</ele>
        <time>2024-09-22T14:38:04.000Z</time>
      </trkpt>
      <trkpt lat="42.81562" lon="19.40268">
        <ele>612.5</ele>
        <time>2024-09-22T14:38:05.000Z</time>
      </trkpt>
      <trkpt lat="42.81547" lon="19.40253">
        <ele>613.94000244141</ele>
        <time>2024-09-22T14:38:06.000Z</time>
      </trkpt>
      <trkpt lat="42.81526" lon="19.40228">
        <ele>614.90002441406</ele>
        <time>2024-09-22T14:38:07.000Z</time>
      </trkpt>
      <trkpt lat="42.81487" lon="19.40171">
        <ele>616.82000732422</ele>
        <time>2024-09-22T14:38:10.000Z</time>
      </trkpt>
      <trkpt lat="42.81423" lon="19.40071">
        <ele>623.07000732422</ele>
        <time>2024-09-22T14:38:15.000Z</time>
      </trkpt>
      <trkpt lat="42.81418" lon="19.40063">
        <ele>624.03002929688</ele>
        <time>2024-09-22T14:38:16.000Z</time>
      </trkpt>
      <trkpt lat="42.81403" lon="19.40043">
        <ele>625.46997070312</ele>
        <time>2024-09-22T14:38:17.000Z</time>
      </trkpt>
      <trkpt lat="42.81391" lon="19.4003">
        <ele>626.44000244141</ele>
        <time>2024-09-22T14:38:18.000Z</time>
      </trkpt>
      <trkpt lat="42.81376" lon="19.40017">
        <ele>627.40002441406</ele>
        <time>2024-09-22T14:38:19.000Z</time>
      </trkpt>
      <trkpt lat="42.8136" lon="19.40007">
        <ele>628.84002685547</ele>
        <time>2024-09-22T14:38:20.000Z</time>
      </trkpt>
      <trkpt lat="42.81343" lon="19.4">
        <ele>629.79998779297</ele>
        <time>2024-09-22T14:38:21.000Z</time>
      </trkpt>
      <trkpt lat="42.81311" lon="19.39994">
        <ele>631.23999023438</ele>
        <time>2024-09-22T14:38:22.000Z</time>
      </trkpt>
      <trkpt lat="42.81302" lon="19.39993">
        <ele>631.23999023438</ele>
        <time>2024-09-22T14:38:23.000Z</time>
      </trkpt>
      <trkpt lat="42.81287" lon="19.39989">
        <ele>632.20001220703</ele>
        <time>2024-09-22T14:38:24.000Z</time>
      </trkpt>
      <trkpt lat="42.81274" lon="19.39983">
        <ele>632.67999267578</ele>
        <time>2024-09-22T14:38:25.000Z</time>
      </trkpt>
      <trkpt lat="42.81259" lon="19.39973">
        <ele>633.16998291016</ele>
        <time>2024-09-22T14:38:26.000Z</time>
      </trkpt>
      <trkpt lat="42.81246" lon="19.39959">
        <ele>634.13000488281</ele>
        <time>2024-09-22T14:38:27.000Z</time>
      </trkpt>
      <trkpt lat="42.81236" lon="19.39941">
        <ele>634.60998535156</ele>
        <time>2024-09-22T14:38:28.000Z</time>
      </trkpt>
      <trkpt lat="42.81229" lon="19.39918">
        <ele>635.57000732422</ele>
        <time>2024-09-22T14:38:29.000Z</time>
      </trkpt>
      <trkpt lat="42.81225" lon="19.39893">
        <ele>636.53002929688</ele>
        <time>2024-09-22T14:38:30.000Z</time>
      </trkpt>
      <trkpt lat="42.81222" lon="19.39866">
        <ele>637.96997070312</ele>
        <time>2024-09-22T14:38:31.000Z</time>
      </trkpt>
      <trkpt lat="42.81222" lon="19.3979">
        <ele>642.78002929688</ele>
        <time>2024-09-22T14:38:33.000Z</time>
      </trkpt>
      <trkpt lat="42.81221" lon="19.39782">
        <ele>643.73999023438</ele>
        <time>2024-09-22T14:38:34.000Z</time>
      </trkpt>
      <trkpt lat="42.81218" lon="19.39758">
        <ele>644.70001220703</ele>
        <time>2024-09-22T14:38:35.000Z</time>
      </trkpt>
      <trkpt lat="42.81212" lon="19.39731">
        <ele>647.09997558594</ele>
        <time>2024-09-22T14:38:36.000Z</time>
      </trkpt>
      <trkpt lat="42.81203" lon="19.39705">
        <ele>649.03002929688</ele>
        <time>2024-09-22T14:38:37.000Z</time>
      </trkpt>
      <trkpt lat="42.81156" lon="19.39605">
        <ele>656.23999023438</ele>
        <time>2024-09-22T14:38:40.000Z</time>
      </trkpt>
      <trkpt lat="42.81153" lon="19.39598">
        <ele>656.71997070312</ele>
        <time>2024-09-22T14:38:41.000Z</time>
      </trkpt>
      <trkpt lat="42.81131" lon="19.3955">
        <ele>660.08001708984</ele>
        <time>2024-09-22T14:38:43.000Z</time>
      </trkpt>
      <trkpt lat="42.81119" lon="19.39526">
        <ele>662.01000976562</ele>
        <time>2024-09-22T14:38:44.000Z</time>
      </trkpt>
      <trkpt lat="42.8111" lon="19.39511">
        <ele>662.48999023438</ele>
        <time>2024-09-22T14:38:45.000Z</time>
      </trkpt>
      <trkpt lat="42.81096" lon="19.39495">
        <ele>664.40997314453</ele>
        <time>2024-09-22T14:38:46.000Z</time>
      </trkpt>
      <trkpt lat="42.8108" lon="19.39484">
        <ele>665.36999511719</ele>
        <time>2024-09-22T14:38:47.000Z</time>
      </trkpt>
      <trkpt lat="42.81063" lon="19.39477">
        <ele>666.33001708984</ele>
        <time>2024-09-22T14:38:48.000Z</time>
      </trkpt>
      <trkpt lat="42.81045" lon="19.39475">
        <ele>668.72998046875</ele>
        <time>2024-09-22T14:38:49.000Z</time>
      </trkpt>
      <trkpt lat="42.81027" lon="19.39479">
        <ele>670.65997314453</ele>
        <time>2024-09-22T14:38:50.000Z</time>
      </trkpt>
      <trkpt lat="42.80918" lon="19.39519">
        <ele>674.97998046875</ele>
        <time>2024-09-22T14:38:55.000Z</time>
      </trkpt>
      <trkpt lat="42.80895" lon="19.39525">
        <ele>674.97998046875</ele>
        <time>2024-09-22T14:38:56.000Z</time>
      </trkpt>
      <trkpt lat="42.80858" lon="19.39533">
        <ele>665.84997558594</ele>
        <time>2024-09-22T14:38:58.000Z</time>
      </trkpt>
      <trkpt lat="42.80849" lon="19.39533">
        <ele>663.45001220703</ele>
        <time>2024-09-22T14:38:59.000Z</time>
      </trkpt>
      <trkpt lat="42.8083" lon="19.39524">
        <ele>659.11999511719</ele>
        <time>2024-09-22T14:39:00.000Z</time>
      </trkpt>
      <trkpt lat="42.80806" lon="19.39502">
        <ele>660.08001708984</ele>
        <time>2024-09-22T14:39:01.000Z</time>
      </trkpt>
      <trkpt lat="42.80759" lon="19.39486">
        <ele>660.55999755859</ele>
        <time>2024-09-22T14:39:04.000Z</time>
      </trkpt>
      <trkpt lat="42.80717" lon="19.39485">
        <ele>689.88000488281</ele>
        <time>2024-09-22T14:39:06.000Z</time>
      </trkpt>
      <trkpt lat="42.80705" lon="19.39483">
        <ele>693.25</ele>
        <time>2024-09-22T14:39:07.000Z</time>
      </trkpt>
      <trkpt lat="42.80688" lon="19.39483">
        <ele>694.69000244141</ele>
        <time>2024-09-22T14:39:08.000Z</time>
      </trkpt>
      <trkpt lat="42.80673" lon="19.3949">
        <ele>697.09002685547</ele>
        <time>2024-09-22T14:39:09.000Z</time>
      </trkpt>
      <trkpt lat="42.80659" lon="19.39503">
        <ele>698.53002929688</ele>
        <time>2024-09-22T14:39:10.000Z</time>
      </trkpt>
      <trkpt lat="42.80633" lon="19.39535">
        <ele>699.97998046875</ele>
        <time>2024-09-22T14:39:12.000Z</time>
      </trkpt>
      <trkpt lat="42.80616" lon="19.3955">
        <ele>700.46002197266</ele>
        <time>2024-09-22T14:39:13.000Z</time>
      </trkpt>
      <trkpt lat="42.806" lon="19.39559">
        <ele>700.94000244141</ele>
        <time>2024-09-22T14:39:14.000Z</time>
      </trkpt>
      <trkpt lat="42.80584" lon="19.39562">
        <ele>701.90002441406</ele>
        <time>2024-09-22T14:39:15.000Z</time>
      </trkpt>
      <trkpt lat="42.80568" lon="19.3956">
        <ele>703.34002685547</ele>
        <time>2024-09-22T14:39:16.000Z</time>
      </trkpt>
      <trkpt lat="42.80553" lon="19.39553">
        <ele>703.82000732422</ele>
        <time>2024-09-22T14:39:17.000Z</time>
      </trkpt>
      <trkpt lat="42.80538" lon="19.39542">
        <ele>703.82000732422</ele>
        <time>2024-09-22T14:39:18.000Z</time>
      </trkpt>
      <trkpt lat="42.80488" lon="19.39488">
        <ele>707.66998291016</ele>
        <time>2024-09-22T14:39:21.000Z</time>
      </trkpt>
      <trkpt lat="42.80478" lon="19.39478">
        <ele>708.63000488281</ele>
        <time>2024-09-22T14:39:22.000Z</time>
      </trkpt>
      <trkpt lat="42.80467" lon="19.39469">
        <ele>709.59002685547</ele>
        <time>2024-09-22T14:39:23.000Z</time>
      </trkpt>
      <trkpt lat="42.80452" lon="19.39462">
        <ele>711.03002929688</ele>
        <time>2024-09-22T14:39:24.000Z</time>
      </trkpt>
      <trkpt lat="42.80437" lon="19.39458">
        <ele>712.95001220703</ele>
        <time>2024-09-22T14:39:25.000Z</time>
      </trkpt>
      <trkpt lat="42.80421" lon="19.39458">
        <ele>714.40002441406</ele>
        <time>2024-09-22T14:39:26.000Z</time>
      </trkpt>
      <trkpt lat="42.80404" lon="19.39462">
        <ele>714.88000488281</ele>
        <time>2024-09-22T14:39:27.000Z</time>
      </trkpt>
      <trkpt lat="42.8034" lon="19.39492">
        <ele>720.15997314453</ele>
        <time>2024-09-22T14:39:30.000Z</time>
      </trkpt>
      <trkpt lat="42.80337" lon="19.39493">
        <ele>720.15997314453</ele>
        <time>2024-09-22T14:39:31.000Z</time>
      </trkpt>
      <trkpt lat="42.8032" lon="19.39497">
        <ele>720.65002441406</ele>
        <time>2024-09-22T14:39:32.000Z</time>
      </trkpt>
      <trkpt lat="42.803" lon="19.39495">
        <ele>722.09002685547</ele>
        <time>2024-09-22T14:39:33.000Z</time>
      </trkpt>
      <trkpt lat="42.80267" lon="19.39484">
        <ele>724.01000976562</ele>
        <time>2024-09-22T14:39:35.000Z</time>
      </trkpt>
      <trkpt lat="42.8025" lon="19.3948">
        <ele>725.45001220703</ele>
        <time>2024-09-22T14:39:36.000Z</time>
      </trkpt>
      <trkpt lat="42.80234" lon="19.3948">
        <ele>726.40997314453</ele>
        <time>2024-09-22T14:39:37.000Z</time>
      </trkpt>
      <trkpt lat="42.80219" lon="19.39487">
        <ele>726.40997314453</ele>
        <time>2024-09-22T14:39:38.000Z</time>
      </trkpt>
      <trkpt lat="42.80204" lon="19.39498">
        <ele>727.36999511719</ele>
        <time>2024-09-22T14:39:39.000Z</time>
      </trkpt>
      <trkpt lat="42.80132" lon="19.39582">
        <ele>734.09997558594</ele>
        <time>2024-09-22T14:39:44.000Z</time>
      </trkpt>
      <trkpt lat="42.8012" lon="19.39601">
        <ele>735.54998779297</ele>
        <time>2024-09-22T14:39:45.000Z</time>
      </trkpt>
      <trkpt lat="42.80098" lon="19.39659">
        <ele>736.51000976562</ele>
        <time>2024-09-22T14:39:48.000Z</time>
      </trkpt>
      <trkpt lat="42.80096" lon="19.39681">
        <ele>737.95001220703</ele>
        <time>2024-09-22T14:39:49.000Z</time>
      </trkpt>
      <trkpt lat="42.80106" lon="19.39708">
        <ele>739.39001464844</ele>
        <time>2024-09-22T14:39:50.000Z</time>
      </trkpt>
      <trkpt lat="42.8012" lon="19.3973">
        <ele>740.83001708984</ele>
        <time>2024-09-22T14:39:51.000Z</time>
      </trkpt>
      <trkpt lat="42.80164" lon="19.39798">
        <ele>746.11999511719</ele>
        <time>2024-09-22T14:39:54.000Z</time>
      </trkpt>
      <trkpt lat="42.8018" lon="19.39821">
        <ele>748.52001953125</ele>
        <time>2024-09-22T14:39:55.000Z</time>
      </trkpt>
      <trkpt lat="42.80191" lon="19.39835">
        <ele>749.96997070312</ele>
        <time>2024-09-22T14:39:56.000Z</time>
      </trkpt>
      <trkpt lat="42.8021" lon="19.39853">
        <ele>752.36999511719</ele>
        <time>2024-09-22T14:39:57.000Z</time>
      </trkpt>
      <trkpt lat="42.80231" lon="19.39871">
        <ele>754.28997802734</ele>
        <time>2024-09-22T14:39:58.000Z</time>
      </trkpt>
      <trkpt lat="42.80241" lon="19.39881">
        <ele>755.25</ele>
        <time>2024-09-22T14:39:59.000Z</time>
      </trkpt>
      <trkpt lat="42.80258" lon="19.39902">
        <ele>757.17999267578</ele>
        <time>2024-09-22T14:40:00.000Z</time>
      </trkpt>
      <trkpt lat="42.80271" lon="19.39925">
        <ele>759.09997558594</ele>
        <time>2024-09-22T14:40:01.000Z</time>
      </trkpt>
      <trkpt lat="42.80282" lon="19.39949">
        <ele>761.02001953125</ele>
        <time>2024-09-22T14:40:02.000Z</time>
      </trkpt>
      <trkpt lat="42.80315" lon="19.40072">
        <ele>769.19000244141</ele>
        <time>2024-09-22T14:40:06.000Z</time>
      </trkpt>
      <trkpt lat="42.80357" lon="19.40184">
        <ele>775.44000244141</ele>
        <time>2024-09-22T14:40:11.000Z</time>
      </trkpt>
      <trkpt lat="42.80362" lon="19.40206">
        <ele>776.40002441406</ele>
        <time>2024-09-22T14:40:12.000Z</time>
      </trkpt>
      <trkpt lat="42.80366" lon="19.40231">
        <ele>776.88000488281</ele>
        <time>2024-09-22T14:40:13.000Z</time>
      </trkpt>
      <trkpt lat="42.80367" lon="19.40254">
        <ele>777.35998535156</ele>
        <time>2024-09-22T14:40:14.000Z</time>
      </trkpt>
      <trkpt lat="42.80364" lon="19.40275">
        <ele>777.84002685547</ele>
        <time>2024-09-22T14:40:15.000Z</time>
      </trkpt>
      <trkpt lat="42.80357" lon="19.40295">
        <ele>778.32000732422</ele>
        <time>2024-09-22T14:40:16.000Z</time>
      </trkpt>
      <trkpt lat="42.80348" lon="19.40311">
        <ele>778.32000732422</ele>
        <time>2024-09-22T14:40:17.000Z</time>
      </trkpt>
      <trkpt lat="42.80336" lon="19.40324">
        <ele>778.32000732422</ele>
        <time>2024-09-22T14:40:18.000Z</time>
      </trkpt>
      <trkpt lat="42.80322" lon="19.40333">
        <ele>778.80999755859</ele>
        <time>2024-09-22T14:40:19.000Z</time>
      </trkpt>
      <trkpt lat="42.80307" lon="19.40337">
        <ele>779.28997802734</ele>
        <time>2024-09-22T14:40:20.000Z</time>
      </trkpt>
      <trkpt lat="42.80291" lon="19.40337">
        <ele>779.28997802734</ele>
        <time>2024-09-22T14:40:21.000Z</time>
      </trkpt>
      <trkpt lat="42.80275" lon="19.40332">
        <ele>778.80999755859</ele>
        <time>2024-09-22T14:40:22.000Z</time>
      </trkpt>
      <trkpt lat="42.80257" lon="19.40322">
        <ele>779.28997802734</ele>
        <time>2024-09-22T14:40:23.000Z</time>
      </trkpt>
      <trkpt lat="42.80243" lon="19.40312">
        <ele>779.28997802734</ele>
        <time>2024-09-22T14:40:24.000Z</time>
      </trkpt>
      <trkpt lat="42.8019" lon="19.40258">
        <ele>779.77001953125</ele>
        <time>2024-09-22T14:40:27.000Z</time>
      </trkpt>
      <trkpt lat="42.8006" lon="19.40132">
        <ele>787.94000244141</ele>
        <time>2024-09-22T14:40:35.000Z</time>
      </trkpt>
      <trkpt lat="42.80056" lon="19.40128">
        <ele>788.41998291016</ele>
        <time>2024-09-22T14:40:36.000Z</time>
      </trkpt>
      <trkpt lat="42.80041" lon="19.40112">
        <ele>789.38000488281</ele>
        <time>2024-09-22T14:40:37.000Z</time>
      </trkpt>
      <trkpt lat="42.80009" lon="19.40069">
        <ele>791.78002929688</ele>
        <time>2024-09-22T14:40:39.000Z</time>
      </trkpt>
      <trkpt lat="42.79998" lon="19.40055">
        <ele>792.26000976562</ele>
        <time>2024-09-22T14:40:40.000Z</time>
      </trkpt>
      <trkpt lat="42.7997" lon="19.40018">
        <ele>795.15002441406</ele>
        <time>2024-09-22T14:40:42.000Z</time>
      </trkpt>
      <trkpt lat="42.79961" lon="19.40008">
        <ele>795.63000488281</ele>
        <time>2024-09-22T14:40:43.000Z</time>
      </trkpt>
      <trkpt lat="42.79946" lon="19.39997">
        <ele>797.07000732422</ele>
        <time>2024-09-22T14:40:44.000Z</time>
      </trkpt>
      <trkpt lat="42.79932" lon="19.39992">
        <ele>798.51000976562</ele>
        <time>2024-09-22T14:40:45.000Z</time>
      </trkpt>
      <trkpt lat="42.79916" lon="19.39991">
        <ele>799.46997070312</ele>
        <time>2024-09-22T14:40:46.000Z</time>
      </trkpt>
      <trkpt lat="42.79901" lon="19.39996">
        <ele>800.44000244141</ele>
        <time>2024-09-22T14:40:47.000Z</time>
      </trkpt>
      <trkpt lat="42.79832" lon="19.4002">
        <ele>804.28002929688</ele>
        <time>2024-09-22T14:40:51.000Z</time>
      </trkpt>
      <trkpt lat="42.79814" lon="19.40023">
        <ele>805.71997070312</ele>
        <time>2024-09-22T14:40:52.000Z</time>
      </trkpt>
      <trkpt lat="42.79796" lon="19.40023">
        <ele>807.15997314453</ele>
        <time>2024-09-22T14:40:53.000Z</time>
      </trkpt>
      <trkpt lat="42.79734" lon="19.40028">
        <ele>808.60998535156</ele>
        <time>2024-09-22T14:40:56.000Z</time>
      </trkpt>
      <trkpt lat="42.79723" lon="19.4003">
        <ele>808.60998535156</ele>
        <time>2024-09-22T14:40:57.000Z</time>
      </trkpt>
      <trkpt lat="42.7969" lon="19.40043">
        <ele>835.52001953125</ele>
        <time>2024-09-22T14:40:59.000Z</time>
      </trkpt>
      <trkpt lat="42.79682" lon="19.40054">
        <ele>813.40997314453</ele>
        <time>2024-09-22T14:41:00.000Z</time>
      </trkpt>
      <trkpt lat="42.79671" lon="19.40076">
        <ele>818.70001220703</ele>
        <time>2024-09-22T14:41:01.000Z</time>
      </trkpt>
      <trkpt lat="42.79649" lon="19.40121">
        <ele>820.14001464844</ele>
        <time>2024-09-22T14:41:03.000Z</time>
      </trkpt>
      <trkpt lat="42.79637" lon="19.4014">
        <ele>821.09997558594</ele>
        <time>2024-09-22T14:41:04.000Z</time>
      </trkpt>
      <trkpt lat="42.79623" lon="19.40158">
        <ele>821.09997558594</ele>
        <time>2024-09-22T14:41:05.000Z</time>
      </trkpt>
      <trkpt lat="42.79595" lon="19.40188">
        <ele>822.05999755859</ele>
        <time>2024-09-22T14:41:07.000Z</time>
      </trkpt>
      <trkpt lat="42.79583" lon="19.40202">
        <ele>823.03002929688</ele>
        <time>2024-09-22T14:41:08.000Z</time>
      </trkpt>
      <trkpt lat="42.79572" lon="19.40219">
        <ele>823.98999023438</ele>
        <time>2024-09-22T14:41:09.000Z</time>
      </trkpt>
      <trkpt lat="42.79563" lon="19.40267">
        <ele>825.42999267578</ele>
        <time>2024-09-22T14:41:11.000Z</time>
      </trkpt>
      <trkpt lat="42.79561" lon="19.40281">
        <ele>825.90997314453</ele>
        <time>2024-09-22T14:41:12.000Z</time>
      </trkpt>
      <trkpt lat="42.79571" lon="19.4032">
        <ele>825.90997314453</ele>
        <time>2024-09-22T14:41:14.000Z</time>
      </trkpt>
      <trkpt lat="42.7959" lon="19.40352">
        <ele>825.90997314453</ele>
        <time>2024-09-22T14:41:16.000Z</time>
      </trkpt>
      <trkpt lat="42.79594" lon="19.40363">
        <ele>836.96002197266</ele>
        <time>2024-09-22T14:41:17.000Z</time>
      </trkpt>
      <trkpt lat="42.79617" lon="19.40387">
        <ele>831.67999267578</ele>
        <time>2024-09-22T14:41:18.000Z</time>
      </trkpt>
      <trkpt lat="42.79623" lon="19.40392">
        <ele>832.64001464844</ele>
        <time>2024-09-22T14:41:19.000Z</time>
      </trkpt>
      <trkpt lat="42.79679" lon="19.40437">
        <ele>836.96002197266</ele>
        <time>2024-09-22T14:41:22.000Z</time>
      </trkpt>
      <trkpt lat="42.79683" lon="19.4044">
        <ele>837.45001220703</ele>
        <time>2024-09-22T14:41:23.000Z</time>
      </trkpt>
      <trkpt lat="42.79698" lon="19.40447">
        <ele>839.36999511719</ele>
        <time>2024-09-22T14:41:24.000Z</time>
      </trkpt>
      <trkpt lat="42.79715" lon="19.40452">
        <ele>840.80999755859</ele>
        <time>2024-09-22T14:41:25.000Z</time>
      </trkpt>
      <trkpt lat="42.79804" lon="19.40454">
        <ele>847.05999755859</ele>
        <time>2024-09-22T14:41:30.000Z</time>
      </trkpt>
      <trkpt lat="42.79822" lon="19.40456">
        <ele>848.5</ele>
        <time>2024-09-22T14:41:31.000Z</time>
      </trkpt>
      <trkpt lat="42.79854" lon="19.40464">
        <ele>850.41998291016</ele>
        <time>2024-09-22T14:41:32.000Z</time>
      </trkpt>
      <trkpt lat="42.79862" lon="19.40466">
        <ele>850.90002441406</ele>
        <time>2024-09-22T14:41:33.000Z</time>
      </trkpt>
      <trkpt lat="42.79875" lon="19.40473">
        <ele>851.86999511719</ele>
        <time>2024-09-22T14:41:34.000Z</time>
      </trkpt>
      <trkpt lat="42.79899" lon="19.40487">
        <ele>853.30999755859</ele>
        <time>2024-09-22T14:41:35.000Z</time>
      </trkpt>
      <trkpt lat="42.80024" lon="19.40582">
        <ele>862.91998291016</ele>
        <time>2024-09-22T14:41:43.000Z</time>
      </trkpt>
      <trkpt lat="42.80037" lon="19.40596">
        <ele>864.35998535156</ele>
        <time>2024-09-22T14:41:44.000Z</time>
      </trkpt>
      <trkpt lat="42.80056" lon="19.40619">
        <ele>865.79998779297</ele>
        <time>2024-09-22T14:41:45.000Z</time>
      </trkpt>
      <trkpt lat="42.8007" lon="19.40641">
        <ele>867.25</ele>
        <time>2024-09-22T14:41:46.000Z</time>
      </trkpt>
      <trkpt lat="42.80099" lon="19.40685">
        <ele>870.13000488281</ele>
        <time>2024-09-22T14:41:49.000Z</time>
      </trkpt>
      <trkpt lat="42.80113" lon="19.40703">
        <ele>871.57000732422</ele>
        <time>2024-09-22T14:41:50.000Z</time>
      </trkpt>
      <trkpt lat="42.80243" lon="19.40829">
        <ele>882.63000488281</ele>
        <time>2024-09-22T14:41:58.000Z</time>
      </trkpt>
      <trkpt lat="42.80254" lon="19.40842">
        <ele>883.59002685547</ele>
        <time>2024-09-22T14:41:59.000Z</time>
      </trkpt>
      <trkpt lat="42.80368" lon="19.41022">
        <ele>894.64001464844</ele>
        <time>2024-09-22T14:42:08.000Z</time>
      </trkpt>
      <trkpt lat="42.80394" lon="19.41073">
        <ele>898.01000976562</ele>
        <time>2024-09-22T14:42:10.000Z</time>
      </trkpt>
      <trkpt lat="42.804" lon="19.41087">
        <ele>898.96997070312</ele>
        <time>2024-09-22T14:42:11.000Z</time>
      </trkpt>
      <trkpt lat="42.80409" lon="19.41112">
        <ele>899.92999267578</ele>
        <time>2024-09-22T14:42:12.000Z</time>
      </trkpt>
      <trkpt lat="42.80414" lon="19.41138">
        <ele>901.36999511719</ele>
        <time>2024-09-22T14:42:13.000Z</time>
      </trkpt>
      <trkpt lat="42.80417" lon="19.41165">
        <ele>902.82000732422</ele>
        <time>2024-09-22T14:42:14.000Z</time>
      </trkpt>
      <trkpt lat="42.80414" lon="19.41192">
        <ele>904.26000976562</ele>
        <time>2024-09-22T14:42:15.000Z</time>
      </trkpt>
      <trkpt lat="42.80408" lon="19.41218">
        <ele>905.70001220703</ele>
        <time>2024-09-22T14:42:16.000Z</time>
      </trkpt>
      <trkpt lat="42.80398" lon="19.41242">
        <ele>906.65997314453</ele>
        <time>2024-09-22T14:42:17.000Z</time>
      </trkpt>
      <trkpt lat="42.80383" lon="19.41265">
        <ele>908.09997558594</ele>
        <time>2024-09-22T14:42:18.000Z</time>
      </trkpt>
      <trkpt lat="42.80366" lon="19.41282">
        <ele>910.03002929688</ele>
        <time>2024-09-22T14:42:19.000Z</time>
      </trkpt>
      <trkpt lat="42.80336" lon="19.41308">
        <ele>912.90997314453</ele>
        <time>2024-09-22T14:42:20.000Z</time>
      </trkpt>
      <trkpt lat="42.80331" lon="19.41312">
        <ele>913.39001464844</ele>
        <time>2024-09-22T14:42:21.000Z</time>
      </trkpt>
      <trkpt lat="42.80316" lon="19.41329">
        <ele>914.34997558594</ele>
        <time>2024-09-22T14:42:22.000Z</time>
      </trkpt>
      <trkpt lat="42.80302" lon="19.41349">
        <ele>915.78997802734</ele>
        <time>2024-09-22T14:42:23.000Z</time>
      </trkpt>
      <trkpt lat="42.80291" lon="19.41371">
        <ele>917.71997070312</ele>
        <time>2024-09-22T14:42:24.000Z</time>
      </trkpt>
      <trkpt lat="42.80273" lon="19.41433">
        <ele>918.20001220703</ele>
        <time>2024-09-22T14:42:26.000Z</time>
      </trkpt>
      <trkpt lat="42.8026" lon="19.41473">
        <ele>918.67999267578</ele>
        <time>2024-09-22T14:42:28.000Z</time>
      </trkpt>
      <trkpt lat="42.80232" lon="19.41506">
        <ele>929.72998046875</ele>
        <time>2024-09-22T14:42:29.000Z</time>
      </trkpt>
      <trkpt lat="42.80228" lon="19.4152">
        <ele>929.72998046875</ele>
        <time>2024-09-22T14:42:30.000Z</time>
      </trkpt>
      <trkpt lat="42.80219" lon="19.41538">
        <ele>930.69000244141</ele>
        <time>2024-09-22T14:42:31.000Z</time>
      </trkpt>
      <trkpt lat="42.80205" lon="19.41554">
        <ele>930.69000244141</ele>
        <time>2024-09-22T14:42:32.000Z</time>
      </trkpt>
      <trkpt lat="42.80188" lon="19.41566">
        <ele>931.65002441406</ele>
        <time>2024-09-22T14:42:33.000Z</time>
      </trkpt>
      <trkpt lat="42.8017" lon="19.41576">
        <ele>932.14001464844</ele>
        <time>2024-09-22T14:42:34.000Z</time>
      </trkpt>
      <trkpt lat="42.80151" lon="19.41582">
        <ele>933.09997558594</ele>
        <time>2024-09-22T14:42:35.000Z</time>
      </trkpt>
      <trkpt lat="42.80131" lon="19.41585">
        <ele>934.05999755859</ele>
        <time>2024-09-22T14:42:36.000Z</time>
      </trkpt>
      <trkpt lat="42.80027" lon="19.41596">
        <ele>941.75</ele>
        <time>2024-09-22T14:42:41.000Z</time>
      </trkpt>
      <trkpt lat="42.80008" lon="19.41602">
        <ele>943.19000244141</ele>
        <time>2024-09-22T14:42:42.000Z</time>
      </trkpt>
      <trkpt lat="42.79992" lon="19.41612">
        <ele>944.63000488281</ele>
        <time>2024-09-22T14:42:43.000Z</time>
      </trkpt>
      <trkpt lat="42.79979" lon="19.41626">
        <ele>945.59002685547</ele>
        <time>2024-09-22T14:42:44.000Z</time>
      </trkpt>
      <trkpt lat="42.79969" lon="19.41641">
        <ele>947.03997802734</ele>
        <time>2024-09-22T14:42:45.000Z</time>
      </trkpt>
      <trkpt lat="42.79961" lon="19.41659">
        <ele>948.47998046875</ele>
        <time>2024-09-22T14:42:46.000Z</time>
      </trkpt>
      <trkpt lat="42.79955" lon="19.41678">
        <ele>949.91998291016</ele>
        <time>2024-09-22T14:42:47.000Z</time>
      </trkpt>
      <trkpt lat="42.79956" lon="19.4172">
        <ele>952.32000732422</ele>
        <time>2024-09-22T14:42:50.000Z</time>
      </trkpt>
      <trkpt lat="42.79969" lon="19.41765">
        <ele>952.79998779297</ele>
        <time>2024-09-22T14:42:51.000Z</time>
      </trkpt>
      <trkpt lat="42.7994" lon="19.41789">
        <ele>953.28002929688</ele>
        <time>2024-09-22T14:42:52.000Z</time>
      </trkpt>
      <trkpt lat="42.79947" lon="19.41802">
        <ele>953.28002929688</ele>
        <time>2024-09-22T14:42:53.000Z</time>
      </trkpt>
      <trkpt lat="42.79972" lon="19.41824">
        <ele>954.25</ele>
        <time>2024-09-22T14:42:54.000Z</time>
      </trkpt>
      <trkpt lat="42.79986" lon="19.41842">
        <ele>955.21002197266</ele>
        <time>2024-09-22T14:42:55.000Z</time>
      </trkpt>
      <trkpt lat="42.80001" lon="19.41873">
        <ele>956.16998291016</ele>
        <time>2024-09-22T14:42:56.000Z</time>
      </trkpt>
      <trkpt lat="42.80038" lon="19.41908">
        <ele>957.13000488281</ele>
        <time>2024-09-22T14:42:58.000Z</time>
      </trkpt>
      <trkpt lat="42.80034" lon="19.41932">
        <ele>958.57000732422</ele>
        <time>2024-09-22T14:42:59.000Z</time>
      </trkpt>
      <trkpt lat="42.80037" lon="19.41942">
        <ele>959.04998779297</ele>
        <time>2024-09-22T14:43:00.000Z</time>
      </trkpt>
      <trkpt lat="42.80053" lon="19.41971">
        <ele>960.01000976562</ele>
        <time>2024-09-22T14:43:01.000Z</time>
      </trkpt>
      <trkpt lat="42.80048" lon="19.41995">
        <ele>960.48999023438</ele>
        <time>2024-09-22T14:43:02.000Z</time>
      </trkpt>
      <trkpt lat="42.80065" lon="19.42062">
        <ele>963.38000488281</ele>
        <time>2024-09-22T14:43:05.000Z</time>
      </trkpt>
      <trkpt lat="42.80068" lon="19.42071">
        <ele>963.38000488281</ele>
        <time>2024-09-22T14:43:06.000Z</time>
      </trkpt>
      <trkpt lat="42.80134" lon="19.42248">
        <ele>973.95001220703</ele>
        <time>2024-09-22T14:43:13.000Z</time>
      </trkpt>
      <trkpt lat="42.80136" lon="19.42254">
        <ele>974.42999267578</ele>
        <time>2024-09-22T14:43:14.000Z</time>
      </trkpt>
      <trkpt lat="42.80141" lon="19.42277">
        <ele>975.88000488281</ele>
        <time>2024-09-22T14:43:15.000Z</time>
      </trkpt>
      <trkpt lat="42.80142" lon="19.423">
        <ele>977.32000732422</ele>
        <time>2024-09-22T14:43:16.000Z</time>
      </trkpt>
      <trkpt lat="42.80139" lon="19.4232">
        <ele>978.76000976562</ele>
        <time>2024-09-22T14:43:17.000Z</time>
      </trkpt>
      <trkpt lat="42.8013" lon="19.42339">
        <ele>980.20001220703</ele>
        <time>2024-09-22T14:43:18.000Z</time>
      </trkpt>
      <trkpt lat="42.80117" lon="19.42353">
        <ele>981.64001464844</ele>
        <time>2024-09-22T14:43:19.000Z</time>
      </trkpt>
      <trkpt lat="42.80083" lon="19.42374">
        <ele>982.59997558594</ele>
        <time>2024-09-22T14:43:21.000Z</time>
      </trkpt>
      <trkpt lat="42.80063" lon="19.42388">
        <ele>983.57000732422</ele>
        <time>2024-09-22T14:43:22.000Z</time>
      </trkpt>
      <trkpt lat="42.8005" lon="19.42402">
        <ele>984.53002929688</ele>
        <time>2024-09-22T14:43:23.000Z</time>
      </trkpt>
      <trkpt lat="42.80034" lon="19.42423">
        <ele>985.48999023438</ele>
        <time>2024-09-22T14:43:24.000Z</time>
      </trkpt>
      <trkpt lat="42.8002" lon="19.42447">
        <ele>986.92999267578</ele>
        <time>2024-09-22T14:43:25.000Z</time>
      </trkpt>
      <trkpt lat="42.80009" lon="19.42472">
        <ele>988.36999511719</ele>
        <time>2024-09-22T14:43:26.000Z</time>
      </trkpt>
      <trkpt lat="42.80001" lon="19.425">
        <ele>989.80999755859</ele>
        <time>2024-09-22T14:43:27.000Z</time>
      </trkpt>
      <trkpt lat="42.79995" lon="19.42528">
        <ele>991.26000976562</ele>
        <time>2024-09-22T14:43:28.000Z</time>
      </trkpt>
      <trkpt lat="42.7999" lon="19.42566">
        <ele>993.17999267578</ele>
        <time>2024-09-22T14:43:29.000Z</time>
      </trkpt>
      <trkpt lat="42.79987" lon="19.42594">
        <ele>994.61999511719</ele>
        <time>2024-09-22T14:43:30.000Z</time>
      </trkpt>
      <trkpt lat="42.79985" lon="19.4262">
        <ele>996.05999755859</ele>
        <time>2024-09-22T14:43:31.000Z</time>
      </trkpt>
      <trkpt lat="42.7998" lon="19.42671">
        <ele>998.46997070312</ele>
        <time>2024-09-22T14:43:33.000Z</time>
      </trkpt>
      <trkpt lat="42.79978" lon="19.42678">
        <ele>998.95001220703</ele>
        <time>2024-09-22T14:43:34.000Z</time>
      </trkpt>
      <trkpt lat="42.79974" lon="19.42696">
        <ele>999.90997314453</ele>
        <time>2024-09-22T14:43:35.000Z</time>
      </trkpt>
      <trkpt lat="42.79967" lon="19.4271">
        <ele>1000.3900146484</ele>
        <time>2024-09-22T14:43:36.000Z</time>
      </trkpt>
      <trkpt lat="42.79958" lon="19.42721">
        <ele>1000.8699951172</ele>
        <time>2024-09-22T14:43:37.000Z</time>
      </trkpt>
      <trkpt lat="42.79947" lon="19.42728">
        <ele>1001.8300170898</ele>
        <time>2024-09-22T14:43:38.000Z</time>
      </trkpt>
      <trkpt lat="42.79933" lon="19.42729">
        <ele>1002.7899780273</ele>
        <time>2024-09-22T14:43:39.000Z</time>
      </trkpt>
      <trkpt lat="42.79919" lon="19.42726">
        <ele>1003.75</ele>
        <time>2024-09-22T14:43:40.000Z</time>
      </trkpt>
      <trkpt lat="42.79903" lon="19.42719">
        <ele>1004.2299804688</ele>
        <time>2024-09-22T14:43:41.000Z</time>
      </trkpt>
      <trkpt lat="42.79879" lon="19.42709">
        <ele>1005.200012207</ele>
        <time>2024-09-22T14:43:42.000Z</time>
      </trkpt>
      <trkpt lat="42.79872" lon="19.42706">
        <ele>1005.6799926758</ele>
        <time>2024-09-22T14:43:43.000Z</time>
      </trkpt>
      <trkpt lat="42.79861" lon="19.42703">
        <ele>1006.1599731445</ele>
        <time>2024-09-22T14:43:44.000Z</time>
      </trkpt>
      <trkpt lat="42.79847" lon="19.42701">
        <ele>1007.1199951172</ele>
        <time>2024-09-22T14:43:45.000Z</time>
      </trkpt>
      <trkpt lat="42.79833" lon="19.42703">
        <ele>1008.0800170898</ele>
        <time>2024-09-22T14:43:46.000Z</time>
      </trkpt>
      <trkpt lat="42.79821" lon="19.42707">
        <ele>1009.0399780273</ele>
        <time>2024-09-22T14:43:47.000Z</time>
      </trkpt>
      <trkpt lat="42.79808" lon="19.42714">
        <ele>1010</ele>
        <time>2024-09-22T14:43:48.000Z</time>
      </trkpt>
      <trkpt lat="42.79797" lon="19.42723">
        <ele>1010.9600219727</ele>
        <time>2024-09-22T14:43:49.000Z</time>
      </trkpt>
      <trkpt lat="42.79784" lon="19.42737">
        <ele>1012.4099731445</ele>
        <time>2024-09-22T14:43:50.000Z</time>
      </trkpt>
      <trkpt lat="42.79758" lon="19.42769">
        <ele>1014.8099975586</ele>
        <time>2024-09-22T14:43:52.000Z</time>
      </trkpt>
      <trkpt lat="42.79756" lon="19.42771">
        <ele>1014.8099975586</ele>
        <time>2024-09-22T14:43:53.000Z</time>
      </trkpt>
      <trkpt lat="42.79744" lon="19.42781">
        <ele>1015.7700195312</ele>
        <time>2024-09-22T14:43:54.000Z</time>
      </trkpt>
      <trkpt lat="42.79733" lon="19.42788">
        <ele>1016.25</ele>
        <time>2024-09-22T14:43:55.000Z</time>
      </trkpt>
      <trkpt lat="42.7972" lon="19.42794">
        <ele>1016.7299804688</ele>
        <time>2024-09-22T14:43:56.000Z</time>
      </trkpt>
      <trkpt lat="42.79706" lon="19.42798">
        <ele>1017.6900024414</ele>
        <time>2024-09-22T14:43:57.000Z</time>
      </trkpt>
      <trkpt lat="42.79672" lon="19.42801">
        <ele>1019.6199951172</ele>
        <time>2024-09-22T14:43:59.000Z</time>
      </trkpt>
      <trkpt lat="42.79663" lon="19.42802">
        <ele>1020.0999755859</ele>
        <time>2024-09-22T14:44:00.000Z</time>
      </trkpt>
      <trkpt lat="42.79651" lon="19.42805">
        <ele>1021.0599975586</ele>
        <time>2024-09-22T14:44:01.000Z</time>
      </trkpt>
      <trkpt lat="42.79639" lon="19.42811">
        <ele>1022.0200195312</ele>
        <time>2024-09-22T14:44:02.000Z</time>
      </trkpt>
      <trkpt lat="42.79628" lon="19.42818">
        <ele>1023.4600219727</ele>
        <time>2024-09-22T14:44:03.000Z</time>
      </trkpt>
      <trkpt lat="42.79619" lon="19.42828">
        <ele>1024.4200439453</ele>
        <time>2024-09-22T14:44:04.000Z</time>
      </trkpt>
      <trkpt lat="42.7961" lon="19.42842">
        <ele>1024.9000244141</ele>
        <time>2024-09-22T14:44:05.000Z</time>
      </trkpt>
      <trkpt lat="42.79604" lon="19.42857">
        <ele>1026.3399658203</ele>
        <time>2024-09-22T14:44:06.000Z</time>
      </trkpt>
      <trkpt lat="42.79599" lon="19.42874">
        <ele>1026.8299560547</ele>
        <time>2024-09-22T14:44:07.000Z</time>
      </trkpt>
      <trkpt lat="42.79597" lon="19.42891">
        <ele>1027.7900390625</ele>
        <time>2024-09-22T14:44:08.000Z</time>
      </trkpt>
      <trkpt lat="42.79597" lon="19.42908">
        <ele>1028.75</ele>
        <time>2024-09-22T14:44:09.000Z</time>
      </trkpt>
      <trkpt lat="42.796" lon="19.42926">
        <ele>1029.7099609375</ele>
        <time>2024-09-22T14:44:10.000Z</time>
      </trkpt>
      <trkpt lat="42.79619" lon="19.43008">
        <ele>1034.0400390625</ele>
        <time>2024-09-22T14:44:14.000Z</time>
      </trkpt>
      <trkpt lat="42.7962" lon="19.43016">
        <ele>1034.5200195312</ele>
        <time>2024-09-22T14:44:15.000Z</time>
      </trkpt>
      <trkpt lat="42.79621" lon="19.43034">
        <ele>1035</ele>
        <time>2024-09-22T14:44:16.000Z</time>
      </trkpt>
      <trkpt lat="42.79619" lon="19.43052">
        <ele>1035.9599609375</ele>
        <time>2024-09-22T14:44:17.000Z</time>
      </trkpt>
      <trkpt lat="42.79615" lon="19.43069">
        <ele>1036.9200439453</ele>
        <time>2024-09-22T14:44:18.000Z</time>
      </trkpt>
      <trkpt lat="42.79607" lon="19.43084">
        <ele>1037.8800048828</ele>
        <time>2024-09-22T14:44:19.000Z</time>
      </trkpt>
      <trkpt lat="42.79598" lon="19.43098">
        <ele>1038.8399658203</ele>
        <time>2024-09-22T14:44:20.000Z</time>
      </trkpt>
      <trkpt lat="42.79554" lon="19.43146">
        <ele>1042.6899414062</ele>
        <time>2024-09-22T14:44:24.000Z</time>
      </trkpt>
      <trkpt lat="42.79516" lon="19.4321">
        <ele>1045.5699462891</ele>
        <time>2024-09-22T14:44:28.000Z</time>
      </trkpt>
      <trkpt lat="42.79509" lon="19.43221">
        <ele>1046.0500488281</ele>
        <time>2024-09-22T14:44:29.000Z</time>
      </trkpt>
      <trkpt lat="42.79501" lon="19.43267">
        <ele>1046.5300292969</ele>
        <time>2024-09-22T14:44:32.000Z</time>
      </trkpt>
      <trkpt lat="42.79486" lon="19.43281">
        <ele>1040.7600097656</ele>
        <time>2024-09-22T14:44:33.000Z</time>
      </trkpt>
      <trkpt lat="42.79486" lon="19.433">
        <ele>1044.1300048828</ele>
        <time>2024-09-22T14:44:34.000Z</time>
      </trkpt>
      <trkpt lat="42.79491" lon="19.43321">
        <ele>1052.7800292969</ele>
        <time>2024-09-22T14:44:35.000Z</time>
      </trkpt>
      <trkpt lat="42.79515" lon="19.43463">
        <ele>1062.3900146484</ele>
        <time>2024-09-22T14:44:42.000Z</time>
      </trkpt>
      <trkpt lat="42.79517" lon="19.43477">
        <ele>1063.3599853516</ele>
        <time>2024-09-22T14:44:43.000Z</time>
      </trkpt>
      <trkpt lat="42.79527" lon="19.43525">
        <ele>1065.2800292969</ele>
        <time>2024-09-22T14:44:46.000Z</time>
      </trkpt>
      <trkpt lat="42.79589" lon="19.43673">
        <ele>1069.1199951172</ele>
        <time>2024-09-22T14:44:54.000Z</time>
      </trkpt>
      <trkpt lat="42.79591" lon="19.43678">
        <ele>1068.6400146484</ele>
        <time>2024-09-22T14:44:55.000Z</time>
      </trkpt>
      <trkpt lat="42.79598" lon="19.43698">
        <ele>1068.6400146484</ele>
        <time>2024-09-22T14:44:56.000Z</time>
      </trkpt>
      <trkpt lat="42.79603" lon="19.43715">
        <ele>1069.1199951172</ele>
        <time>2024-09-22T14:44:57.000Z</time>
      </trkpt>
      <trkpt lat="42.79606" lon="19.43735">
        <ele>1069.1199951172</ele>
        <time>2024-09-22T14:44:58.000Z</time>
      </trkpt>
      <trkpt lat="42.79608" lon="19.43756">
        <ele>1069.1199951172</ele>
        <time>2024-09-22T14:44:59.000Z</time>
      </trkpt>
      <trkpt lat="42.79607" lon="19.4379">
        <ele>1069.5999755859</ele>
        <time>2024-09-22T14:45:00.000Z</time>
      </trkpt>
      <trkpt lat="42.79603" lon="19.43839">
        <ele>1069.1199951172</ele>
        <time>2024-09-22T14:45:03.000Z</time>
      </trkpt>
      <trkpt lat="42.79603" lon="19.43851">
        <ele>1069.1199951172</ele>
        <time>2024-09-22T14:45:04.000Z</time>
      </trkpt>
      <trkpt lat="42.79603" lon="19.4387">
        <ele>1069.1199951172</ele>
        <time>2024-09-22T14:45:05.000Z</time>
      </trkpt>
      <trkpt lat="42.79606" lon="19.43888">
        <ele>1068.6400146484</ele>
        <time>2024-09-22T14:45:06.000Z</time>
      </trkpt>
      <trkpt lat="42.7961" lon="19.43907">
        <ele>1068.6400146484</ele>
        <time>2024-09-22T14:45:07.000Z</time>
      </trkpt>
      <trkpt lat="42.79615" lon="19.43924">
        <ele>1068.1600341797</ele>
        <time>2024-09-22T14:45:08.000Z</time>
      </trkpt>
      <trkpt lat="42.79624" lon="19.43941">
        <ele>1068.1600341797</ele>
        <time>2024-09-22T14:45:09.000Z</time>
      </trkpt>
      <trkpt lat="42.79634" lon="19.43958">
        <ele>1067.6800537109</ele>
        <time>2024-09-22T14:45:10.000Z</time>
      </trkpt>
      <trkpt lat="42.79672" lon="19.44007">
        <ele>1065.7600097656</ele>
        <time>2024-09-22T14:45:12.000Z</time>
      </trkpt>
      <trkpt lat="42.79675" lon="19.44011">
        <ele>1065.2800292969</ele>
        <time>2024-09-22T14:45:13.000Z</time>
      </trkpt>
      <trkpt lat="42.79689" lon="19.44031">
        <ele>1064.3199462891</ele>
        <time>2024-09-22T14:45:14.000Z</time>
      </trkpt>
      <trkpt lat="42.797" lon="19.44048">
        <ele>1063.8399658203</ele>
        <time>2024-09-22T14:45:15.000Z</time>
      </trkpt>
      <trkpt lat="42.79709" lon="19.4407">
        <ele>1062.8699951172</ele>
        <time>2024-09-22T14:45:16.000Z</time>
      </trkpt>
      <trkpt lat="42.79716" lon="19.44092">
        <ele>1061.9100341797</ele>
        <time>2024-09-22T14:45:17.000Z</time>
      </trkpt>
      <trkpt lat="42.79719" lon="19.44119">
        <ele>1060.9499511719</ele>
        <time>2024-09-22T14:45:18.000Z</time>
      </trkpt>
      <trkpt lat="42.7972" lon="19.4414">
        <ele>1060.4699707031</ele>
        <time>2024-09-22T14:45:19.000Z</time>
      </trkpt>
      <trkpt lat="42.79719" lon="19.44231">
        <ele>1057.5899658203</ele>
        <time>2024-09-22T14:45:22.000Z</time>
      </trkpt>
      <trkpt lat="42.7972" lon="19.44267">
        <ele>1056.6300048828</ele>
        <time>2024-09-22T14:45:23.000Z</time>
      </trkpt>
      <trkpt lat="42.79721" lon="19.44275">
        <ele>1056.1500244141</ele>
        <time>2024-09-22T14:45:24.000Z</time>
      </trkpt>
      <trkpt lat="42.79724" lon="19.44295">
        <ele>1055.6700439453</ele>
        <time>2024-09-22T14:45:25.000Z</time>
      </trkpt>
      <trkpt lat="42.7973" lon="19.44322">
        <ele>1055.1800537109</ele>
        <time>2024-09-22T14:45:26.000Z</time>
      </trkpt>
      <trkpt lat="42.79778" lon="19.44447">
        <ele>1050.8599853516</ele>
        <time>2024-09-22T14:45:31.000Z</time>
      </trkpt>
      <trkpt lat="42.79781" lon="19.44456">
        <ele>1050.3800048828</ele>
        <time>2024-09-22T14:45:32.000Z</time>
      </trkpt>
      <trkpt lat="42.79788" lon="19.4448">
        <ele>1049.4200439453</ele>
        <time>2024-09-22T14:45:33.000Z</time>
      </trkpt>
      <trkpt lat="42.79793" lon="19.44502">
        <ele>1048.4499511719</ele>
        <time>2024-09-22T14:45:34.000Z</time>
      </trkpt>
      <trkpt lat="42.79796" lon="19.44521">
        <ele>1047.9699707031</ele>
        <time>2024-09-22T14:45:35.000Z</time>
      </trkpt>
      <trkpt lat="42.79802" lon="19.44664">
        <ele>1043.6500244141</ele>
        <time>2024-09-22T14:45:41.000Z</time>
      </trkpt>
      <trkpt lat="42.79803" lon="19.44677">
        <ele>1043.6500244141</ele>
        <time>2024-09-22T14:45:42.000Z</time>
      </trkpt>
      <trkpt lat="42.7981" lon="19.44761">
        <ele>1041.25</ele>
        <time>2024-09-22T14:45:46.000Z</time>
      </trkpt>
      <trkpt lat="42.79812" lon="19.44772">
        <ele>1041.25</ele>
        <time>2024-09-22T14:45:47.000Z</time>
      </trkpt>
      <trkpt lat="42.79824" lon="19.44834">
        <ele>1040.2800292969</ele>
        <time>2024-09-22T14:45:50.000Z</time>
      </trkpt>
      <trkpt lat="42.79828" lon="19.44849">
        <ele>1039.8000488281</ele>
        <time>2024-09-22T14:45:51.000Z</time>
      </trkpt>
      <trkpt lat="42.79838" lon="19.44863">
        <ele>1039.3199462891</ele>
        <time>2024-09-22T14:45:52.000Z</time>
      </trkpt>
      <trkpt lat="42.79846" lon="19.44876">
        <ele>1038.3599853516</ele>
        <time>2024-09-22T14:45:53.000Z</time>
      </trkpt>
      <trkpt lat="42.79855" lon="19.4489">
        <ele>1037.4000244141</ele>
        <time>2024-09-22T14:45:54.000Z</time>
      </trkpt>
      <trkpt lat="42.79867" lon="19.44904">
        <ele>1035.9599609375</ele>
        <time>2024-09-22T14:45:55.000Z</time>
      </trkpt>
      <trkpt lat="42.79878" lon="19.44917">
        <ele>1035.9599609375</ele>
        <time>2024-09-22T14:45:56.000Z</time>
      </trkpt>
      <trkpt lat="42.79894" lon="19.44932">
        <ele>1035</ele>
        <time>2024-09-22T14:45:57.000Z</time>
      </trkpt>
      <trkpt lat="42.79901" lon="19.44938">
        <ele>1034.5200195312</ele>
        <time>2024-09-22T14:45:58.000Z</time>
      </trkpt>
      <trkpt lat="42.79922" lon="19.44953">
        <ele>1033.5500488281</ele>
        <time>2024-09-22T14:45:59.000Z</time>
      </trkpt>
      <trkpt lat="42.80001" lon="19.45002">
        <ele>1028.2700195312</ele>
        <time>2024-09-22T14:46:06.000Z</time>
      </trkpt>
      <trkpt lat="42.80004" lon="19.45004">
        <ele>1027.7900390625</ele>
        <time>2024-09-22T14:46:07.000Z</time>
      </trkpt>
      <trkpt lat="42.80013" lon="19.45012">
        <ele>1026.8299560547</ele>
        <time>2024-09-22T14:46:08.000Z</time>
      </trkpt>
      <trkpt lat="42.8002" lon="19.45021">
        <ele>1026.3399658203</ele>
        <time>2024-09-22T14:46:09.000Z</time>
      </trkpt>
      <trkpt lat="42.80027" lon="19.45031">
        <ele>1025.3800048828</ele>
        <time>2024-09-22T14:46:10.000Z</time>
      </trkpt>
      <trkpt lat="42.80033" lon="19.45043">
        <ele>1024.9000244141</ele>
        <time>2024-09-22T14:46:11.000Z</time>
      </trkpt>
      <trkpt lat="42.80037" lon="19.45058">
        <ele>1023.9400024414</ele>
        <time>2024-09-22T14:46:12.000Z</time>
      </trkpt>
      <trkpt lat="42.8004" lon="19.45074">
        <ele>1023.4600219727</ele>
        <time>2024-09-22T14:46:13.000Z</time>
      </trkpt>
      <trkpt lat="42.80041" lon="19.45091">
        <ele>1022.5</ele>
        <time>2024-09-22T14:46:14.000Z</time>
      </trkpt>
      <trkpt lat="42.8004" lon="19.45109">
        <ele>1021.5399780273</ele>
        <time>2024-09-22T14:46:15.000Z</time>
      </trkpt>
      <trkpt lat="42.80036" lon="19.45127">
        <ele>1020.5800170898</ele>
        <time>2024-09-22T14:46:16.000Z</time>
      </trkpt>
      <trkpt lat="42.80031" lon="19.45143">
        <ele>1019.6199951172</ele>
        <time>2024-09-22T14:46:17.000Z</time>
      </trkpt>
      <trkpt lat="42.80023" lon="19.45159">
        <ele>1019.1300048828</ele>
        <time>2024-09-22T14:46:18.000Z</time>
      </trkpt>
      <trkpt lat="42.79989" lon="19.45212">
        <ele>1016.7299804688</ele>
        <time>2024-09-22T14:46:22.000Z</time>
      </trkpt>
      <trkpt lat="42.79981" lon="19.45229">
        <ele>1015.7700195312</ele>
        <time>2024-09-22T14:46:23.000Z</time>
      </trkpt>
      <trkpt lat="42.79975" lon="19.45245">
        <ele>1015.2899780273</ele>
        <time>2024-09-22T14:46:24.000Z</time>
      </trkpt>
      <trkpt lat="42.79971" lon="19.45263">
        <ele>1014.8099975586</ele>
        <time>2024-09-22T14:46:25.000Z</time>
      </trkpt>
      <trkpt lat="42.79968" lon="19.4528">
        <ele>1014.3300170898</ele>
        <time>2024-09-22T14:46:26.000Z</time>
      </trkpt>
      <trkpt lat="42.79967" lon="19.45307">
        <ele>1013.3699951172</ele>
        <time>2024-09-22T14:46:27.000Z</time>
      </trkpt>
      <trkpt lat="42.79963" lon="19.45464">
        <ele>1010.4799804688</ele>
        <time>2024-09-22T14:46:33.000Z</time>
      </trkpt>
      <trkpt lat="42.79962" lon="19.45479">
        <ele>1010.4799804688</ele>
        <time>2024-09-22T14:46:34.000Z</time>
      </trkpt>
      <trkpt lat="42.7995" lon="19.45573">
        <ele>1010</ele>
        <time>2024-09-22T14:46:38.000Z</time>
      </trkpt>
      <trkpt lat="42.7995" lon="19.45577">
        <ele>1010</ele>
        <time>2024-09-22T14:46:39.000Z</time>
      </trkpt>
      <trkpt lat="42.7995" lon="19.45601">
        <ele>1010</ele>
        <time>2024-09-22T14:46:40.000Z</time>
      </trkpt>
      <trkpt lat="42.79965" lon="19.45698">
        <ele>1010</ele>
        <time>2024-09-22T14:46:43.000Z</time>
      </trkpt>
      <trkpt lat="42.79969" lon="19.45726">
        <ele>1009.5200195312</ele>
        <time>2024-09-22T14:46:44.000Z</time>
      </trkpt>
      <trkpt lat="42.79973" lon="19.45763">
        <ele>1009.5200195312</ele>
        <time>2024-09-22T14:46:45.000Z</time>
      </trkpt>
      <trkpt lat="42.79975" lon="19.458">
        <ele>1009.0399780273</ele>
        <time>2024-09-22T14:46:46.000Z</time>
      </trkpt>
      <trkpt lat="42.79975" lon="19.45827">
        <ele>1009.0399780273</ele>
        <time>2024-09-22T14:46:47.000Z</time>
      </trkpt>
      <trkpt lat="42.7997" lon="19.45889">
        <ele>1008.0800170898</ele>
        <time>2024-09-22T14:46:49.000Z</time>
      </trkpt>
      <trkpt lat="42.79969" lon="19.45918">
        <ele>1008.0800170898</ele>
        <time>2024-09-22T14:46:50.000Z</time>
      </trkpt>
      <trkpt lat="42.79972" lon="19.45953">
        <ele>1007.5999755859</ele>
        <time>2024-09-22T14:46:51.000Z</time>
      </trkpt>
      <trkpt lat="42.79975" lon="19.45971">
        <ele>1007.1199951172</ele>
        <time>2024-09-22T14:46:52.000Z</time>
      </trkpt>
      <trkpt lat="42.79982" lon="19.45997">
        <ele>1006.6400146484</ele>
        <time>2024-09-22T14:46:53.000Z</time>
      </trkpt>
      <trkpt lat="42.7999" lon="19.46018">
        <ele>1006.1599731445</ele>
        <time>2024-09-22T14:46:54.000Z</time>
      </trkpt>
      <trkpt lat="42.80003" lon="19.46044">
        <ele>1004.7199707031</ele>
        <time>2024-09-22T14:46:55.000Z</time>
      </trkpt>
      <trkpt lat="42.8003" lon="19.46088">
        <ele>1002.7899780273</ele>
        <time>2024-09-22T14:46:57.000Z</time>
      </trkpt>
      <trkpt lat="42.80037" lon="19.46102">
        <ele>1002.3099975586</ele>
        <time>2024-09-22T14:46:58.000Z</time>
      </trkpt>
      <trkpt lat="42.80047" lon="19.46125">
        <ele>1001.3499755859</ele>
        <time>2024-09-22T14:46:59.000Z</time>
      </trkpt>
      <trkpt lat="42.80054" lon="19.46149">
        <ele>1000.8699951172</ele>
        <time>2024-09-22T14:47:00.000Z</time>
      </trkpt>
      <trkpt lat="42.80058" lon="19.46174">
        <ele>1000.3900146484</ele>
        <time>2024-09-22T14:47:01.000Z</time>
      </trkpt>
      <trkpt lat="42.80059" lon="19.462">
        <ele>999.90997314453</ele>
        <time>2024-09-22T14:47:02.000Z</time>
      </trkpt>
      <trkpt lat="42.80057" lon="19.46226">
        <ele>999.42999267578</ele>
        <time>2024-09-22T14:47:03.000Z</time>
      </trkpt>
      <trkpt lat="42.80051" lon="19.46252">
        <ele>998.95001220703</ele>
        <time>2024-09-22T14:47:04.000Z</time>
      </trkpt>
      <trkpt lat="42.80043" lon="19.46275">
        <ele>998.46997070312</ele>
        <time>2024-09-22T14:47:05.000Z</time>
      </trkpt>
      <trkpt lat="42.80032" lon="19.46296">
        <ele>997.51000976562</ele>
        <time>2024-09-22T14:47:06.000Z</time>
      </trkpt>
      <trkpt lat="42.80019" lon="19.46314">
        <ele>997.02001953125</ele>
        <time>2024-09-22T14:47:07.000Z</time>
      </trkpt>
      <trkpt lat="42.79989" lon="19.46345">
        <ele>995.58001708984</ele>
        <time>2024-09-22T14:47:09.000Z</time>
      </trkpt>
      <trkpt lat="42.79978" lon="19.46358">
        <ele>995.09997558594</ele>
        <time>2024-09-22T14:47:10.000Z</time>
      </trkpt>
      <trkpt lat="42.79968" lon="19.46372">
        <ele>995.58001708984</ele>
        <time>2024-09-22T14:47:11.000Z</time>
      </trkpt>
      <trkpt lat="42.79959" lon="19.46391">
        <ele>995.58001708984</ele>
        <time>2024-09-22T14:47:12.000Z</time>
      </trkpt>
      <trkpt lat="42.79952" lon="19.46412">
        <ele>995.09997558594</ele>
        <time>2024-09-22T14:47:13.000Z</time>
      </trkpt>
      <trkpt lat="42.79948" lon="19.46435">
        <ele>995.09997558594</ele>
        <time>2024-09-22T14:47:14.000Z</time>
      </trkpt>
      <trkpt lat="42.79947" lon="19.46458">
        <ele>995.09997558594</ele>
        <time>2024-09-22T14:47:15.000Z</time>
      </trkpt>
      <trkpt lat="42.7995" lon="19.46518">
        <ele>994.61999511719</ele>
        <time>2024-09-22T14:47:17.000Z</time>
      </trkpt>
      <trkpt lat="42.79952" lon="19.46547">
        <ele>994.14001464844</ele>
        <time>2024-09-22T14:47:18.000Z</time>
      </trkpt>
      <trkpt lat="42.79953" lon="19.46551">
        <ele>994.14001464844</ele>
        <time>2024-09-22T14:47:19.000Z</time>
      </trkpt>
      <trkpt lat="42.79948" lon="19.46626">
        <ele>993.17999267578</ele>
        <time>2024-09-22T14:47:22.000Z</time>
      </trkpt>
      <trkpt lat="42.79942" lon="19.46671">
        <ele>992.21997070312</ele>
        <time>2024-09-22T14:47:24.000Z</time>
      </trkpt>
      <trkpt lat="42.7994" lon="19.46691">
        <ele>992.21997070312</ele>
        <time>2024-09-22T14:47:25.000Z</time>
      </trkpt>
      <trkpt lat="42.79939" lon="19.46706">
        <ele>991.73999023438</ele>
        <time>2024-09-22T14:47:26.000Z</time>
      </trkpt>
      <trkpt lat="42.79939" lon="19.46727">
        <ele>991.73999023438</ele>
        <time>2024-09-22T14:47:27.000Z</time>
      </trkpt>
      <trkpt lat="42.79941" lon="19.46749">
        <ele>991.26000976562</ele>
        <time>2024-09-22T14:47:28.000Z</time>
      </trkpt>
      <trkpt lat="42.79947" lon="19.46785">
        <ele>991.26000976562</ele>
        <time>2024-09-22T14:47:29.000Z</time>
      </trkpt>
      <trkpt lat="42.79956" lon="19.46821">
        <ele>990.29998779297</ele>
        <time>2024-09-22T14:47:30.000Z</time>
      </trkpt>
      <trkpt lat="42.79959" lon="19.46831">
        <ele>990.29998779297</ele>
        <time>2024-09-22T14:47:31.000Z</time>
      </trkpt>
      <trkpt lat="42.79966" lon="19.46853">
        <ele>989.80999755859</ele>
        <time>2024-09-22T14:47:32.000Z</time>
      </trkpt>
      <trkpt lat="42.79986" lon="19.46912">
        <ele>989.33001708984</ele>
        <time>2024-09-22T14:47:34.000Z</time>
      </trkpt>
      <trkpt lat="42.79989" lon="19.46925">
        <ele>989.33001708984</ele>
        <time>2024-09-22T14:47:35.000Z</time>
      </trkpt>
      <trkpt lat="42.79997" lon="19.46961">
        <ele>988.36999511719</ele>
        <time>2024-09-22T14:47:36.000Z</time>
      </trkpt>
      <trkpt lat="42.80003" lon="19.47013">
        <ele>987.89001464844</ele>
        <time>2024-09-22T14:47:38.000Z</time>
      </trkpt>
      <trkpt lat="42.80004" lon="19.4703">
        <ele>987.40997314453</ele>
        <time>2024-09-22T14:47:39.000Z</time>
      </trkpt>
      <trkpt lat="42.80004" lon="19.47056">
        <ele>987.40997314453</ele>
        <time>2024-09-22T14:47:40.000Z</time>
      </trkpt>
      <trkpt lat="42.80003" lon="19.47081">
        <ele>986.92999267578</ele>
        <time>2024-09-22T14:47:41.000Z</time>
      </trkpt>
      <trkpt lat="42.7998" lon="19.47272">
        <ele>985.48999023438</ele>
        <time>2024-09-22T14:47:48.000Z</time>
      </trkpt>
      <trkpt lat="42.79979" lon="19.47286">
        <ele>985.01000976562</ele>
        <time>2024-09-22T14:47:49.000Z</time>
      </trkpt>
      <trkpt lat="42.79979" lon="19.47303">
        <ele>985.01000976562</ele>
        <time>2024-09-22T14:47:50.000Z</time>
      </trkpt>
      <trkpt lat="42.79982" lon="19.47381">
        <ele>984.53002929688</ele>
        <time>2024-09-22T14:47:53.000Z</time>
      </trkpt>
      <trkpt lat="42.79986" lon="19.47404">
        <ele>984.04998779297</ele>
        <time>2024-09-22T14:47:54.000Z</time>
      </trkpt>
      <trkpt lat="42.79991" lon="19.47432">
        <ele>984.04998779297</ele>
        <time>2024-09-22T14:47:55.000Z</time>
      </trkpt>
      <trkpt lat="42.80002" lon="19.47471">
        <ele>983.09002685547</ele>
        <time>2024-09-22T14:47:56.000Z</time>
      </trkpt>
      <trkpt lat="42.80005" lon="19.47481">
        <ele>983.09002685547</ele>
        <time>2024-09-22T14:47:57.000Z</time>
      </trkpt>
      <trkpt lat="42.80016" lon="19.47508">
        <ele>983.09002685547</ele>
        <time>2024-09-22T14:47:58.000Z</time>
      </trkpt>
      <trkpt lat="42.80026" lon="19.4753">
        <ele>983.09002685547</ele>
        <time>2024-09-22T14:47:59.000Z</time>
      </trkpt>
      <trkpt lat="42.80042" lon="19.47561">
        <ele>982.59997558594</ele>
        <time>2024-09-22T14:48:00.000Z</time>
      </trkpt>
      <trkpt lat="42.8005" lon="19.47574">
        <ele>982.11999511719</ele>
        <time>2024-09-22T14:48:01.000Z</time>
      </trkpt>
      <trkpt lat="42.80097" lon="19.47636">
        <ele>981.15997314453</ele>
        <time>2024-09-22T14:48:04.000Z</time>
      </trkpt>
      <trkpt lat="42.8011" lon="19.47657">
        <ele>980.67999267578</ele>
        <time>2024-09-22T14:48:05.000Z</time>
      </trkpt>
      <trkpt lat="42.8012" lon="19.4768">
        <ele>980.20001220703</ele>
        <time>2024-09-22T14:48:06.000Z</time>
      </trkpt>
      <trkpt lat="42.80126" lon="19.47703">
        <ele>979.71997070312</ele>
        <time>2024-09-22T14:48:07.000Z</time>
      </trkpt>
      <trkpt lat="42.80129" lon="19.47727">
        <ele>979.23999023438</ele>
        <time>2024-09-22T14:48:08.000Z</time>
      </trkpt>
      <trkpt lat="42.80129" lon="19.47751">
        <ele>978.76000976562</ele>
        <time>2024-09-22T14:48:09.000Z</time>
      </trkpt>
      <trkpt lat="42.80126" lon="19.47774">
        <ele>978.28002929688</ele>
        <time>2024-09-22T14:48:10.000Z</time>
      </trkpt>
      <trkpt lat="42.80121" lon="19.47797">
        <ele>977.32000732422</ele>
        <time>2024-09-22T14:48:11.000Z</time>
      </trkpt>
      <trkpt lat="42.80113" lon="19.47818">
        <ele>976.84002685547</ele>
        <time>2024-09-22T14:48:12.000Z</time>
      </trkpt>
      <trkpt lat="42.80103" lon="19.47837">
        <ele>976.35998535156</ele>
        <time>2024-09-22T14:48:13.000Z</time>
      </trkpt>
      <trkpt lat="42.80077" lon="19.4788">
        <ele>976.84002685547</ele>
        <time>2024-09-22T14:48:15.000Z</time>
      </trkpt>
      <trkpt lat="42.80072" lon="19.47891">
        <ele>977.32000732422</ele>
        <time>2024-09-22T14:48:16.000Z</time>
      </trkpt>
      <trkpt lat="42.80065" lon="19.4791">
        <ele>977.32000732422</ele>
        <time>2024-09-22T14:48:17.000Z</time>
      </trkpt>
      <trkpt lat="42.80061" lon="19.47931">
        <ele>977.79998779297</ele>
        <time>2024-09-22T14:48:18.000Z</time>
      </trkpt>
      <trkpt lat="42.80061" lon="19.47951">
        <ele>978.28002929688</ele>
        <time>2024-09-22T14:48:19.000Z</time>
      </trkpt>
      <trkpt lat="42.80063" lon="19.47972">
        <ele>978.28002929688</ele>
        <time>2024-09-22T14:48:20.000Z</time>
      </trkpt>
      <trkpt lat="42.80066" lon="19.4799">
        <ele>978.76000976562</ele>
        <time>2024-09-22T14:48:21.000Z</time>
      </trkpt>
      <trkpt lat="42.80072" lon="19.48009">
        <ele>978.76000976562</ele>
        <time>2024-09-22T14:48:22.000Z</time>
      </trkpt>
      <trkpt lat="42.80081" lon="19.48028">
        <ele>979.23999023438</ele>
        <time>2024-09-22T14:48:23.000Z</time>
      </trkpt>
      <trkpt lat="42.80093" lon="19.48046">
        <ele>979.71997070312</ele>
        <time>2024-09-22T14:48:24.000Z</time>
      </trkpt>
      <trkpt lat="42.80107" lon="19.4806">
        <ele>979.71997070312</ele>
        <time>2024-09-22T14:48:25.000Z</time>
      </trkpt>
      <trkpt lat="42.80124" lon="19.48071">
        <ele>979.71997070312</ele>
        <time>2024-09-22T14:48:26.000Z</time>
      </trkpt>
      <trkpt lat="42.80141" lon="19.48082">
        <ele>980.20001220703</ele>
        <time>2024-09-22T14:48:27.000Z</time>
      </trkpt>
      <trkpt lat="42.8018" lon="19.4811">
        <ele>980.20001220703</ele>
        <time>2024-09-22T14:48:29.000Z</time>
      </trkpt>
      <trkpt lat="42.8019" lon="19.48119">
        <ele>979.71997070312</ele>
        <time>2024-09-22T14:48:30.000Z</time>
      </trkpt>
      <trkpt lat="42.80212" lon="19.48142">
        <ele>979.23999023438</ele>
        <time>2024-09-22T14:48:31.000Z</time>
      </trkpt>
      <trkpt lat="42.8022" lon="19.48152">
        <ele>978.76000976562</ele>
        <time>2024-09-22T14:48:32.000Z</time>
      </trkpt>
      <trkpt lat="42.80232" lon="19.48168">
        <ele>978.28002929688</ele>
        <time>2024-09-22T14:48:33.000Z</time>
      </trkpt>
      <trkpt lat="42.80244" lon="19.48187">
        <ele>977.79998779297</ele>
        <time>2024-09-22T14:48:34.000Z</time>
      </trkpt>
      <trkpt lat="42.80266" lon="19.48231">
        <ele>976.35998535156</ele>
        <time>2024-09-22T14:48:36.000Z</time>
      </trkpt>
      <trkpt lat="42.80285" lon="19.48284">
        <ele>975.39001464844</ele>
        <time>2024-09-22T14:48:38.000Z</time>
      </trkpt>
      <trkpt lat="42.80328" lon="19.48524">
        <ele>972.03002929688</ele>
        <time>2024-09-22T14:48:47.000Z</time>
      </trkpt>
      <trkpt lat="42.80352" lon="19.48612">
        <ele>971.07000732422</ele>
        <time>2024-09-22T14:48:50.000Z</time>
      </trkpt>
      <trkpt lat="42.80357" lon="19.48627">
        <ele>971.07000732422</ele>
        <time>2024-09-22T14:48:51.000Z</time>
      </trkpt>
      <trkpt lat="42.80415" lon="19.48766">
        <ele>969.63000488281</ele>
        <time>2024-09-22T14:48:56.000Z</time>
      </trkpt>
      <trkpt lat="42.80417" lon="19.48773">
        <ele>969.63000488281</ele>
        <time>2024-09-22T14:48:57.000Z</time>
      </trkpt>
      <trkpt lat="42.80424" lon="19.48796">
        <ele>969.15002441406</ele>
        <time>2024-09-22T14:48:58.000Z</time>
      </trkpt>
      <trkpt lat="42.80428" lon="19.4882">
        <ele>969.15002441406</ele>
        <time>2024-09-22T14:48:59.000Z</time>
      </trkpt>
      <trkpt lat="42.80433" lon="19.48878">
        <ele>968.66998291016</ele>
        <time>2024-09-22T14:49:01.000Z</time>
      </trkpt>
      <trkpt lat="42.80433" lon="19.48898">
        <ele>968.66998291016</ele>
        <time>2024-09-22T14:49:02.000Z</time>
      </trkpt>
      <trkpt lat="42.80431" lon="19.48998">
        <ele>968.17999267578</ele>
        <time>2024-09-22T14:49:06.000Z</time>
      </trkpt>
      <trkpt lat="42.80432" lon="19.49025">
        <ele>968.17999267578</ele>
        <time>2024-09-22T14:49:07.000Z</time>
      </trkpt>
      <trkpt lat="42.80435" lon="19.49047">
        <ele>968.17999267578</ele>
        <time>2024-09-22T14:49:08.000Z</time>
      </trkpt>
      <trkpt lat="42.8044" lon="19.4907">
        <ele>968.17999267578</ele>
        <time>2024-09-22T14:49:09.000Z</time>
      </trkpt>
      <trkpt lat="42.80448" lon="19.49096">
        <ele>968.17999267578</ele>
        <time>2024-09-22T14:49:10.000Z</time>
      </trkpt>
      <trkpt lat="42.80457" lon="19.49116">
        <ele>968.17999267578</ele>
        <time>2024-09-22T14:49:11.000Z</time>
      </trkpt>
      <trkpt lat="42.80489" lon="19.49182">
        <ele>968.17999267578</ele>
        <time>2024-09-22T14:49:14.000Z</time>
      </trkpt>
      <trkpt lat="42.80498" lon="19.49202">
        <ele>968.17999267578</ele>
        <time>2024-09-22T14:49:15.000Z</time>
      </trkpt>
      <trkpt lat="42.80546" lon="19.49385">
        <ele>965.29998779297</ele>
        <time>2024-09-22T14:49:22.000Z</time>
      </trkpt>
      <trkpt lat="42.80548" lon="19.49401">
        <ele>965.29998779297</ele>
        <time>2024-09-22T14:49:23.000Z</time>
      </trkpt>
      <trkpt lat="42.80549" lon="19.49424">
        <ele>964.82000732422</ele>
        <time>2024-09-22T14:49:24.000Z</time>
      </trkpt>
      <trkpt lat="42.80545" lon="19.49526">
        <ele>963.85998535156</ele>
        <time>2024-09-22T14:49:27.000Z</time>
      </trkpt>
      <trkpt lat="42.80546" lon="19.49535">
        <ele>963.85998535156</ele>
        <time>2024-09-22T14:49:28.000Z</time>
      </trkpt>
      <trkpt lat="42.80547" lon="19.49564">
        <ele>963.38000488281</ele>
        <time>2024-09-22T14:49:29.000Z</time>
      </trkpt>
      <trkpt lat="42.80555" lon="19.49612">
        <ele>962.90002441406</ele>
        <time>2024-09-22T14:49:30.000Z</time>
      </trkpt>
      <trkpt lat="42.80557" lon="19.4962">
        <ele>962.90002441406</ele>
        <time>2024-09-22T14:49:31.000Z</time>
      </trkpt>
      <trkpt lat="42.80581" lon="19.49704">
        <ele>961.94000244141</ele>
        <time>2024-09-22T14:49:34.000Z</time>
      </trkpt>
      <trkpt lat="42.80587" lon="19.49729">
        <ele>961.46002197266</ele>
        <time>2024-09-22T14:49:35.000Z</time>
      </trkpt>
      <trkpt lat="42.80592" lon="19.4976">
        <ele>960.97998046875</ele>
        <time>2024-09-22T14:49:36.000Z</time>
      </trkpt>
      <trkpt lat="42.80594" lon="19.498">
        <ele>960.48999023438</ele>
        <time>2024-09-22T14:49:37.000Z</time>
      </trkpt>
      <trkpt lat="42.80588" lon="19.49987">
        <ele>959.53002929688</ele>
        <time>2024-09-22T14:49:44.000Z</time>
      </trkpt>
      <trkpt lat="42.8059" lon="19.50015">
        <ele>959.04998779297</ele>
        <time>2024-09-22T14:49:45.000Z</time>
      </trkpt>
      <trkpt lat="42.80595" lon="19.50047">
        <ele>959.04998779297</ele>
        <time>2024-09-22T14:49:46.000Z</time>
      </trkpt>
      <trkpt lat="42.80602" lon="19.50074">
        <ele>958.57000732422</ele>
        <time>2024-09-22T14:49:47.000Z</time>
      </trkpt>
      <trkpt lat="42.80611" lon="19.50101">
        <ele>958.57000732422</ele>
        <time>2024-09-22T14:49:48.000Z</time>
      </trkpt>
      <trkpt lat="42.80689" lon="19.50242">
        <ele>957.13000488281</ele>
        <time>2024-09-22T14:49:54.000Z</time>
      </trkpt>
      <trkpt lat="42.8075" lon="19.50417">
        <ele>954.25</ele>
        <time>2024-09-22T14:50:02.000Z</time>
      </trkpt>
      <trkpt lat="42.80758" lon="19.50455">
        <ele>953.77001953125</ele>
        <time>2024-09-22T14:50:04.000Z</time>
      </trkpt>
      <trkpt lat="42.8078" lon="19.50596">
        <ele>952.32000732422</ele>
        <time>2024-09-22T14:50:10.000Z</time>
      </trkpt>
      <trkpt lat="42.80781" lon="19.506">
        <ele>952.32000732422</ele>
        <time>2024-09-22T14:50:11.000Z</time>
      </trkpt>
      <trkpt lat="42.80789" lon="19.50629">
        <ele>952.32000732422</ele>
        <time>2024-09-22T14:50:12.000Z</time>
      </trkpt>
      <trkpt lat="42.80794" lon="19.50645">
        <ele>952.32000732422</ele>
        <time>2024-09-22T14:50:13.000Z</time>
      </trkpt>
      <trkpt lat="42.80801" lon="19.50659">
        <ele>951.84002685547</ele>
        <time>2024-09-22T14:50:14.000Z</time>
      </trkpt>
      <trkpt lat="42.80822" lon="19.50696">
        <ele>951.84002685547</ele>
        <time>2024-09-22T14:50:16.000Z</time>
      </trkpt>
      <trkpt lat="42.80829" lon="19.50705">
        <ele>951.84002685547</ele>
        <time>2024-09-22T14:50:17.000Z</time>
      </trkpt>
      <trkpt lat="42.80841" lon="19.5072">
        <ele>951.35998535156</ele>
        <time>2024-09-22T14:50:18.000Z</time>
      </trkpt>
      <trkpt lat="42.81058" lon="19.50843">
        <ele>948.47998046875</ele>
        <time>2024-09-22T15:05:29.000Z</time>
      </trkpt>
      <trkpt lat="42.81062" lon="19.50846">
        <ele>948.47998046875</ele>
        <time>2024-09-22T15:05:30.000Z</time>
      </trkpt>
      <trkpt lat="42.81067" lon="19.50849">
        <ele>948</ele>
        <time>2024-09-22T15:05:31.000Z</time>
      </trkpt>
      <trkpt lat="42.81069" lon="19.5085">
        <ele>948</ele>
        <time>2024-09-22T15:05:32.000Z</time>
      </trkpt>
      <trkpt lat="42.81082" lon="19.50858">
        <ele>947.52001953125</ele>
        <time>2024-09-22T15:05:35.000Z</time>
      </trkpt>
      <trkpt lat="42.81084" lon="19.50859">
        <ele>947.52001953125</ele>
        <time>2024-09-22T15:05:36.000Z</time>
      </trkpt>
      <trkpt lat="42.81092" lon="19.50864">
        <ele>947.03997802734</ele>
        <time>2024-09-22T15:05:37.000Z</time>
      </trkpt>
      <trkpt lat="42.81098" lon="19.50868">
        <ele>947.03997802734</ele>
        <time>2024-09-22T15:05:38.000Z</time>
      </trkpt>
      <trkpt lat="42.81104" lon="19.50874">
        <ele>946.55999755859</ele>
        <time>2024-09-22T15:05:39.000Z</time>
      </trkpt>
      <trkpt lat="42.8111" lon="19.5088">
        <ele>946.55999755859</ele>
        <time>2024-09-22T15:05:40.000Z</time>
      </trkpt>
      <trkpt lat="42.81121" lon="19.50892">
        <ele>946.07000732422</ele>
        <time>2024-09-22T15:05:41.000Z</time>
      </trkpt>
      <trkpt lat="42.81127" lon="19.50901">
        <ele>946.07000732422</ele>
        <time>2024-09-22T15:05:42.000Z</time>
      </trkpt>
      <trkpt lat="42.81171" lon="19.50973">
        <ele>945.59002685547</ele>
        <time>2024-09-22T15:05:46.000Z</time>
      </trkpt>
      <trkpt lat="42.81175" lon="19.50978">
        <ele>945.10998535156</ele>
        <time>2024-09-22T15:05:47.000Z</time>
      </trkpt>
      <trkpt lat="42.81185" lon="19.50992">
        <ele>944.63000488281</ele>
        <time>2024-09-22T15:05:48.000Z</time>
      </trkpt>
      <trkpt lat="42.81197" lon="19.51006">
        <ele>944.63000488281</ele>
        <time>2024-09-22T15:05:49.000Z</time>
      </trkpt>
      <trkpt lat="42.81247" lon="19.51053">
        <ele>944.15002441406</ele>
        <time>2024-09-22T15:05:52.000Z</time>
      </trkpt>
      <trkpt lat="42.8126" lon="19.51062">
        <ele>944.15002441406</ele>
        <time>2024-09-22T15:05:53.000Z</time>
      </trkpt>
      <trkpt lat="42.81274" lon="19.5107">
        <ele>944.15002441406</ele>
        <time>2024-09-22T15:05:54.000Z</time>
      </trkpt>
      <trkpt lat="42.81291" lon="19.51076">
        <ele>944.15002441406</ele>
        <time>2024-09-22T15:05:55.000Z</time>
      </trkpt>
      <trkpt lat="42.81309" lon="19.51079">
        <ele>944.15002441406</ele>
        <time>2024-09-22T15:05:56.000Z</time>
      </trkpt>
      <trkpt lat="42.81327" lon="19.51079">
        <ele>943.66998291016</ele>
        <time>2024-09-22T15:05:57.000Z</time>
      </trkpt>
      <trkpt lat="42.81373" lon="19.51073">
        <ele>943.19000244141</ele>
        <time>2024-09-22T15:05:59.000Z</time>
      </trkpt>
      <trkpt lat="42.81384" lon="19.51073">
        <ele>943.19000244141</ele>
        <time>2024-09-22T15:06:00.000Z</time>
      </trkpt>
      <trkpt lat="42.81402" lon="19.51075">
        <ele>943.19000244141</ele>
        <time>2024-09-22T15:06:01.000Z</time>
      </trkpt>
      <trkpt lat="42.8142" lon="19.51081">
        <ele>943.19000244141</ele>
        <time>2024-09-22T15:06:02.000Z</time>
      </trkpt>
      <trkpt lat="42.81436" lon="19.51092">
        <ele>943.19000244141</ele>
        <time>2024-09-22T15:06:03.000Z</time>
      </trkpt>
      <trkpt lat="42.8145" lon="19.51107">
        <ele>943.66998291016</ele>
        <time>2024-09-22T15:06:04.000Z</time>
      </trkpt>
      <trkpt lat="42.81465" lon="19.51125">
        <ele>944.15002441406</ele>
        <time>2024-09-22T15:06:05.000Z</time>
      </trkpt>
      <trkpt lat="42.81492" lon="19.51158">
        <ele>945.59002685547</ele>
        <time>2024-09-22T15:06:08.000Z</time>
      </trkpt>
      <trkpt lat="42.81509" lon="19.51174">
        <ele>947.52001953125</ele>
        <time>2024-09-22T15:06:10.000Z</time>
      </trkpt>
      <trkpt lat="42.8153" lon="19.51188">
        <ele>948.96002197266</ele>
        <time>2024-09-22T15:06:13.000Z</time>
      </trkpt>
      <trkpt lat="42.81536" lon="19.51194">
        <ele>949.44000244141</ele>
        <time>2024-09-22T15:06:14.000Z</time>
      </trkpt>
      <trkpt lat="42.81539" lon="19.51199">
        <ele>949.91998291016</ele>
        <time>2024-09-22T15:06:15.000Z</time>
      </trkpt>
      <trkpt lat="42.8154" lon="19.51208">
        <ele>949.91998291016</ele>
        <time>2024-09-22T15:06:16.000Z</time>
      </trkpt>
      <trkpt lat="42.8154" lon="19.51217">
        <ele>949.91998291016</ele>
        <time>2024-09-22T15:06:17.000Z</time>
      </trkpt>
      <trkpt lat="42.8153" lon="19.51315">
        <ele>948.47998046875</ele>
        <time>2024-09-22T15:06:24.000Z</time>
      </trkpt>
      <trkpt lat="42.81523" lon="19.51347">
        <ele>946.55999755859</ele>
        <time>2024-09-22T15:06:27.000Z</time>
      </trkpt>
      <trkpt lat="42.81519" lon="19.51362">
        <ele>945.59002685547</ele>
        <time>2024-09-22T15:06:28.000Z</time>
      </trkpt>
      <trkpt lat="42.81513" lon="19.51376">
        <ele>945.10998535156</ele>
        <time>2024-09-22T15:06:29.000Z</time>
      </trkpt>
      <trkpt lat="42.81506" lon="19.51389">
        <ele>944.63000488281</ele>
        <time>2024-09-22T15:06:30.000Z</time>
      </trkpt>
      <trkpt lat="42.81496" lon="19.51403">
        <ele>944.15002441406</ele>
        <time>2024-09-22T15:06:31.000Z</time>
      </trkpt>
      <trkpt lat="42.81488" lon="19.51413">
        <ele>944.15002441406</ele>
        <time>2024-09-22T15:06:32.000Z</time>
      </trkpt>
      <trkpt lat="42.81477" lon="19.51423">
        <ele>943.66998291016</ele>
        <time>2024-09-22T15:06:33.000Z</time>
      </trkpt>
      <trkpt lat="42.81467" lon="19.51431">
        <ele>944.15002441406</ele>
        <time>2024-09-22T15:06:34.000Z</time>
      </trkpt>
      <trkpt lat="42.81402" lon="19.51472">
        <ele>948</ele>
        <time>2024-09-22T15:06:39.000Z</time>
      </trkpt>
      <trkpt lat="42.81391" lon="19.51481">
        <ele>948.96002197266</ele>
        <time>2024-09-22T15:06:40.000Z</time>
      </trkpt>
      <trkpt lat="42.81379" lon="19.51492">
        <ele>949.44000244141</ele>
        <time>2024-09-22T15:06:41.000Z</time>
      </trkpt>
      <trkpt lat="42.81368" lon="19.51505">
        <ele>950.40002441406</ele>
        <time>2024-09-22T15:06:42.000Z</time>
      </trkpt>
      <trkpt lat="42.81359" lon="19.51519">
        <ele>950.88000488281</ele>
        <time>2024-09-22T15:06:43.000Z</time>
      </trkpt>
      <trkpt lat="42.81351" lon="19.51535">
        <ele>950.88000488281</ele>
        <time>2024-09-22T15:06:44.000Z</time>
      </trkpt>
      <trkpt lat="42.81338" lon="19.51572">
        <ele>950.88000488281</ele>
        <time>2024-09-22T15:06:46.000Z</time>
      </trkpt>
      <trkpt lat="42.81336" lon="19.51579">
        <ele>950.88000488281</ele>
        <time>2024-09-22T15:06:47.000Z</time>
      </trkpt>
      <trkpt lat="42.81331" lon="19.51589">
        <ele>950.40002441406</ele>
        <time>2024-09-22T15:06:48.000Z</time>
      </trkpt>
      <trkpt lat="42.81324" lon="19.51593">
        <ele>949.91998291016</ele>
        <time>2024-09-22T15:06:49.000Z</time>
      </trkpt>
      <trkpt lat="42.81317" lon="19.51592">
        <ele>950.40002441406</ele>
        <time>2024-09-22T15:06:50.000Z</time>
      </trkpt>
      <trkpt lat="42.81307" lon="19.51589">
        <ele>950.40002441406</ele>
        <time>2024-09-22T15:06:51.000Z</time>
      </trkpt>
      <trkpt lat="42.81294" lon="19.51583">
        <ele>950.40002441406</ele>
        <time>2024-09-22T15:06:52.000Z</time>
      </trkpt>
      <trkpt lat="42.81262" lon="19.51573">
        <ele>950.88000488281</ele>
        <time>2024-09-22T15:06:54.000Z</time>
      </trkpt>
      <trkpt lat="42.81249" lon="19.5157">
        <ele>950.88000488281</ele>
        <time>2024-09-22T15:06:55.000Z</time>
      </trkpt>
      <trkpt lat="42.81234" lon="19.51569">
        <ele>950.88000488281</ele>
        <time>2024-09-22T15:06:56.000Z</time>
      </trkpt>
      <trkpt lat="42.81219" lon="19.51574">
        <ele>950.88000488281</ele>
        <time>2024-09-22T15:06:57.000Z</time>
      </trkpt>
      <trkpt lat="42.81206" lon="19.51583">
        <ele>950.88000488281</ele>
        <time>2024-09-22T15:06:58.000Z</time>
      </trkpt>
      <trkpt lat="42.81196" lon="19.51597">
        <ele>951.35998535156</ele>
        <time>2024-09-22T15:06:59.000Z</time>
      </trkpt>
      <trkpt lat="42.81188" lon="19.51615">
        <ele>950.88000488281</ele>
        <time>2024-09-22T15:07:00.000Z</time>
      </trkpt>
      <trkpt lat="42.81182" lon="19.51633">
        <ele>950.88000488281</ele>
        <time>2024-09-22T15:07:01.000Z</time>
      </trkpt>
      <trkpt lat="42.81176" lon="19.51656">
        <ele>950.88000488281</ele>
        <time>2024-09-22T15:07:02.000Z</time>
      </trkpt>
      <trkpt lat="42.81169" lon="19.51673">
        <ele>950.40002441406</ele>
        <time>2024-09-22T15:07:03.000Z</time>
      </trkpt>
      <trkpt lat="42.81159" lon="19.51688">
        <ele>950.40002441406</ele>
        <time>2024-09-22T15:07:04.000Z</time>
      </trkpt>
      <trkpt lat="42.81145" lon="19.517">
        <ele>950.40002441406</ele>
        <time>2024-09-22T15:07:05.000Z</time>
      </trkpt>
      <trkpt lat="42.81131" lon="19.51704">
        <ele>950.40002441406</ele>
        <time>2024-09-22T15:07:06.000Z</time>
      </trkpt>
      <trkpt lat="42.81117" lon="19.51704">
        <ele>949.91998291016</ele>
        <time>2024-09-22T15:07:07.000Z</time>
      </trkpt>
      <trkpt lat="42.81068" lon="19.51692">
        <ele>949.91998291016</ele>
        <time>2024-09-22T15:07:10.000Z</time>
      </trkpt>
      <trkpt lat="42.8105" lon="19.51689">
        <ele>950.88000488281</ele>
        <time>2024-09-22T15:07:11.000Z</time>
      </trkpt>
      <trkpt lat="42.81031" lon="19.5169">
        <ele>951.35998535156</ele>
        <time>2024-09-22T15:07:12.000Z</time>
      </trkpt>
      <trkpt lat="42.81019" lon="19.51692">
        <ele>951.35998535156</ele>
        <time>2024-09-22T15:07:13.000Z</time>
      </trkpt>
      <trkpt lat="42.81005" lon="19.51695">
        <ele>951.35998535156</ele>
        <time>2024-09-22T15:07:14.000Z</time>
      </trkpt>
      <trkpt lat="42.80989" lon="19.517">
        <ele>951.84002685547</ele>
        <time>2024-09-22T15:07:15.000Z</time>
      </trkpt>
      <trkpt lat="42.80976" lon="19.51705">
        <ele>952.32000732422</ele>
        <time>2024-09-22T15:07:16.000Z</time>
      </trkpt>
      <trkpt lat="42.80965" lon="19.51708">
        <ele>952.79998779297</ele>
        <time>2024-09-22T15:07:17.000Z</time>
      </trkpt>
      <trkpt lat="42.80952" lon="19.51713">
        <ele>953.77001953125</ele>
        <time>2024-09-22T15:07:18.000Z</time>
      </trkpt>
      <trkpt lat="42.80935" lon="19.51719">
        <ele>954.25</ele>
        <time>2024-09-22T15:07:19.000Z</time>
      </trkpt>
      <trkpt lat="42.80925" lon="19.51722">
        <ele>954.72998046875</ele>
        <time>2024-09-22T15:07:20.000Z</time>
      </trkpt>
      <trkpt lat="42.80922" lon="19.51723">
        <ele>955.21002197266</ele>
        <time>2024-09-22T15:07:21.000Z</time>
      </trkpt>
      <trkpt lat="42.80911" lon="19.51727">
        <ele>955.21002197266</ele>
        <time>2024-09-22T15:07:22.000Z</time>
      </trkpt>
      <trkpt lat="42.809" lon="19.5173">
        <ele>955.69000244141</ele>
        <time>2024-09-22T15:07:23.000Z</time>
      </trkpt>
      <trkpt lat="42.8089" lon="19.51731">
        <ele>955.69000244141</ele>
        <time>2024-09-22T15:07:24.000Z</time>
      </trkpt>
      <trkpt lat="42.80878" lon="19.51731">
        <ele>956.16998291016</ele>
        <time>2024-09-22T15:07:25.000Z</time>
      </trkpt>
      <trkpt lat="42.80866" lon="19.5173">
        <ele>956.16998291016</ele>
        <time>2024-09-22T15:07:26.000Z</time>
      </trkpt>
      <trkpt lat="42.80856" lon="19.51726">
        <ele>956.65002441406</ele>
        <time>2024-09-22T15:07:27.000Z</time>
      </trkpt>
      <trkpt lat="42.80842" lon="19.51719">
        <ele>957.13000488281</ele>
        <time>2024-09-22T15:07:28.000Z</time>
      </trkpt>
      <trkpt lat="42.80823" lon="19.51708">
        <ele>958.57000732422</ele>
        <time>2024-09-22T15:07:29.000Z</time>
      </trkpt>
      <trkpt lat="42.80818" lon="19.51705">
        <ele>959.04998779297</ele>
        <time>2024-09-22T15:07:30.000Z</time>
      </trkpt>
      <trkpt lat="42.80805" lon="19.51699">
        <ele>960.01000976562</ele>
        <time>2024-09-22T15:07:31.000Z</time>
      </trkpt>
      <trkpt lat="42.80796" lon="19.51697">
        <ele>960.48999023438</ele>
        <time>2024-09-22T15:07:32.000Z</time>
      </trkpt>
      <trkpt lat="42.80782" lon="19.51697">
        <ele>961.46002197266</ele>
        <time>2024-09-22T15:07:33.000Z</time>
      </trkpt>
      <trkpt lat="42.80773" lon="19.51699">
        <ele>961.94000244141</ele>
        <time>2024-09-22T15:07:34.000Z</time>
      </trkpt>
      <trkpt lat="42.80761" lon="19.51702">
        <ele>962.41998291016</ele>
        <time>2024-09-22T15:07:35.000Z</time>
      </trkpt>
      <trkpt lat="42.80751" lon="19.51706">
        <ele>962.41998291016</ele>
        <time>2024-09-22T15:07:36.000Z</time>
      </trkpt>
      <trkpt lat="42.80721" lon="19.51721">
        <ele>963.38000488281</ele>
        <time>2024-09-22T15:07:38.000Z</time>
      </trkpt>
      <trkpt lat="42.80702" lon="19.51728">
        <ele>963.85998535156</ele>
        <time>2024-09-22T15:07:40.000Z</time>
      </trkpt>
      <trkpt lat="42.80672" lon="19.51734">
        <ele>964.34002685547</ele>
        <time>2024-09-22T15:07:42.000Z</time>
      </trkpt>
      <trkpt lat="42.80663" lon="19.51735">
        <ele>964.34002685547</ele>
        <time>2024-09-22T15:07:43.000Z</time>
      </trkpt>
      <trkpt lat="42.80648" lon="19.51735">
        <ele>963.85998535156</ele>
        <time>2024-09-22T15:07:44.000Z</time>
      </trkpt>
      <trkpt lat="42.80632" lon="19.51733">
        <ele>963.85998535156</ele>
        <time>2024-09-22T15:07:45.000Z</time>
      </trkpt>
      <trkpt lat="42.80612" lon="19.51728">
        <ele>964.34002685547</ele>
        <time>2024-09-22T15:07:46.000Z</time>
      </trkpt>
      <trkpt lat="42.80608" lon="19.51727">
        <ele>964.34002685547</ele>
        <time>2024-09-22T15:07:47.000Z</time>
      </trkpt>
      <trkpt lat="42.80595" lon="19.51722">
        <ele>963.85998535156</ele>
        <time>2024-09-22T15:07:48.000Z</time>
      </trkpt>
      <trkpt lat="42.80581" lon="19.51715">
        <ele>963.85998535156</ele>
        <time>2024-09-22T15:07:49.000Z</time>
      </trkpt>
      <trkpt lat="42.80556" lon="19.51698">
        <ele>963.85998535156</ele>
        <time>2024-09-22T15:07:51.000Z</time>
      </trkpt>
      <trkpt lat="42.80545" lon="19.51687">
        <ele>963.38000488281</ele>
        <time>2024-09-22T15:07:52.000Z</time>
      </trkpt>
      <trkpt lat="42.80481" lon="19.51616">
        <ele>961.94000244141</ele>
        <time>2024-09-22T15:07:56.000Z</time>
      </trkpt>
      <trkpt lat="42.80476" lon="19.5161">
        <ele>961.94000244141</ele>
        <time>2024-09-22T15:07:57.000Z</time>
      </trkpt>
      <trkpt lat="42.80443" lon="19.51571">
        <ele>960.48999023438</ele>
        <time>2024-09-22T15:07:59.000Z</time>
      </trkpt>
      <trkpt lat="42.80431" lon="19.51558">
        <ele>960.48999023438</ele>
        <time>2024-09-22T15:08:00.000Z</time>
      </trkpt>
      <trkpt lat="42.8042" lon="19.51547">
        <ele>960.01000976562</ele>
        <time>2024-09-22T15:08:01.000Z</time>
      </trkpt>
      <trkpt lat="42.80409" lon="19.51537">
        <ele>960.01000976562</ele>
        <time>2024-09-22T15:08:02.000Z</time>
      </trkpt>
      <trkpt lat="42.80393" lon="19.51528">
        <ele>959.53002929688</ele>
        <time>2024-09-22T15:08:03.000Z</time>
      </trkpt>
      <trkpt lat="42.80377" lon="19.51521">
        <ele>959.53002929688</ele>
        <time>2024-09-22T15:08:04.000Z</time>
      </trkpt>
      <trkpt lat="42.80329" lon="19.51507">
        <ele>959.04998779297</ele>
        <time>2024-09-22T15:08:06.000Z</time>
      </trkpt>
      <trkpt lat="42.80325" lon="19.51505">
        <ele>959.04998779297</ele>
        <time>2024-09-22T15:08:07.000Z</time>
      </trkpt>
      <trkpt lat="42.80313" lon="19.51499">
        <ele>958.09002685547</ele>
        <time>2024-09-22T15:08:08.000Z</time>
      </trkpt>
      <trkpt lat="42.80299" lon="19.51488">
        <ele>957.60998535156</ele>
        <time>2024-09-22T15:08:09.000Z</time>
      </trkpt>
      <trkpt lat="42.80265" lon="19.51442">
        <ele>955.69000244141</ele>
        <time>2024-09-22T15:08:12.000Z</time>
      </trkpt>
      <trkpt lat="42.80253" lon="19.51424">
        <ele>955.21002197266</ele>
        <time>2024-09-22T15:08:13.000Z</time>
      </trkpt>
      <trkpt lat="42.80231" lon="19.51391">
        <ele>954.25</ele>
        <time>2024-09-22T15:08:15.000Z</time>
      </trkpt>
      <trkpt lat="42.80211" lon="19.51363">
        <ele>953.28002929688</ele>
        <time>2024-09-22T15:08:17.000Z</time>
      </trkpt>
      <trkpt lat="42.80203" lon="19.51354">
        <ele>953.28002929688</ele>
        <time>2024-09-22T15:08:18.000Z</time>
      </trkpt>
      <trkpt lat="42.80194" lon="19.51346">
        <ele>953.28002929688</ele>
        <time>2024-09-22T15:08:19.000Z</time>
      </trkpt>
      <trkpt lat="42.80185" lon="19.51341">
        <ele>953.77001953125</ele>
        <time>2024-09-22T15:08:20.000Z</time>
      </trkpt>
      <trkpt lat="42.80176" lon="19.51339">
        <ele>953.77001953125</ele>
        <time>2024-09-22T15:08:21.000Z</time>
      </trkpt>
      <trkpt lat="42.80166" lon="19.5134">
        <ele>953.28002929688</ele>
        <time>2024-09-22T15:08:22.000Z</time>
      </trkpt>
      <trkpt lat="42.80157" lon="19.51344">
        <ele>953.28002929688</ele>
        <time>2024-09-22T15:08:23.000Z</time>
      </trkpt>
      <trkpt lat="42.80148" lon="19.5135">
        <ele>952.79998779297</ele>
        <time>2024-09-22T15:08:24.000Z</time>
      </trkpt>
      <trkpt lat="42.80139" lon="19.51358">
        <ele>952.79998779297</ele>
        <time>2024-09-22T15:08:25.000Z</time>
      </trkpt>
      <trkpt lat="42.80133" lon="19.51369">
        <ele>952.79998779297</ele>
        <time>2024-09-22T15:08:26.000Z</time>
      </trkpt>
      <trkpt lat="42.80127" lon="19.51381">
        <ele>953.28002929688</ele>
        <time>2024-09-22T15:08:27.000Z</time>
      </trkpt>
      <trkpt lat="42.80122" lon="19.51393">
        <ele>953.28002929688</ele>
        <time>2024-09-22T15:08:28.000Z</time>
      </trkpt>
      <trkpt lat="42.80115" lon="19.51406">
        <ele>953.28002929688</ele>
        <time>2024-09-22T15:08:29.000Z</time>
      </trkpt>
      <trkpt lat="42.80107" lon="19.51416">
        <ele>953.28002929688</ele>
        <time>2024-09-22T15:08:30.000Z</time>
      </trkpt>
      <trkpt lat="42.80097" lon="19.51424">
        <ele>953.28002929688</ele>
        <time>2024-09-22T15:08:31.000Z</time>
      </trkpt>
      <trkpt lat="42.80086" lon="19.51429">
        <ele>953.28002929688</ele>
        <time>2024-09-22T15:08:32.000Z</time>
      </trkpt>
      <trkpt lat="42.80075" lon="19.5143">
        <ele>953.28002929688</ele>
        <time>2024-09-22T15:08:33.000Z</time>
      </trkpt>
      <trkpt lat="42.80064" lon="19.51429">
        <ele>952.79998779297</ele>
        <time>2024-09-22T15:08:34.000Z</time>
      </trkpt>
      <trkpt lat="42.80049" lon="19.51425">
        <ele>953.28002929688</ele>
        <time>2024-09-22T15:08:35.000Z</time>
      </trkpt>
      <trkpt lat="42.80039" lon="19.51423">
        <ele>953.28002929688</ele>
        <time>2024-09-22T15:08:36.000Z</time>
      </trkpt>
      <trkpt lat="42.8003" lon="19.51421">
        <ele>953.28002929688</ele>
        <time>2024-09-22T15:08:37.000Z</time>
      </trkpt>
      <trkpt lat="42.80019" lon="19.51421">
        <ele>953.77001953125</ele>
        <time>2024-09-22T15:08:38.000Z</time>
      </trkpt>
      <trkpt lat="42.80006" lon="19.51424">
        <ele>953.77001953125</ele>
        <time>2024-09-22T15:08:39.000Z</time>
      </trkpt>
      <trkpt lat="42.79907" lon="19.51467">
        <ele>956.16998291016</ele>
        <time>2024-09-22T15:08:44.000Z</time>
      </trkpt>
      <trkpt lat="42.79872" lon="19.51481">
        <ele>957.60998535156</ele>
        <time>2024-09-22T15:08:46.000Z</time>
      </trkpt>
      <trkpt lat="42.79847" lon="19.51492">
        <ele>958.57000732422</ele>
        <time>2024-09-22T15:08:47.000Z</time>
      </trkpt>
      <trkpt lat="42.79831" lon="19.51498">
        <ele>959.04998779297</ele>
        <time>2024-09-22T15:08:49.000Z</time>
      </trkpt>
      <trkpt lat="42.79817" lon="19.51503">
        <ele>959.53002929688</ele>
        <time>2024-09-22T15:08:50.000Z</time>
      </trkpt>
      <trkpt lat="42.798" lon="19.51505">
        <ele>959.53002929688</ele>
        <time>2024-09-22T15:08:51.000Z</time>
      </trkpt>
      <trkpt lat="42.79781" lon="19.51505">
        <ele>960.01000976562</ele>
        <time>2024-09-22T15:08:52.000Z</time>
      </trkpt>
      <trkpt lat="42.79775" lon="19.51504">
        <ele>960.01000976562</ele>
        <time>2024-09-22T15:08:53.000Z</time>
      </trkpt>
      <trkpt lat="42.79738" lon="19.51497">
        <ele>960.48999023438</ele>
        <time>2024-09-22T15:08:55.000Z</time>
      </trkpt>
      <trkpt lat="42.79733" lon="19.51496">
        <ele>960.48999023438</ele>
        <time>2024-09-22T15:08:56.000Z</time>
      </trkpt>
      <trkpt lat="42.79717" lon="19.51495">
        <ele>960.48999023438</ele>
        <time>2024-09-22T15:08:57.000Z</time>
      </trkpt>
      <trkpt lat="42.79703" lon="19.51497">
        <ele>960.48999023438</ele>
        <time>2024-09-22T15:08:58.000Z</time>
      </trkpt>
      <trkpt lat="42.7969" lon="19.515">
        <ele>960.48999023438</ele>
        <time>2024-09-22T15:08:59.000Z</time>
      </trkpt>
      <trkpt lat="42.79676" lon="19.51506">
        <ele>960.01000976562</ele>
        <time>2024-09-22T15:09:00.000Z</time>
      </trkpt>
      <trkpt lat="42.79662" lon="19.51515">
        <ele>960.01000976562</ele>
        <time>2024-09-22T15:09:01.000Z</time>
      </trkpt>
      <trkpt lat="42.7965" lon="19.51526">
        <ele>960.01000976562</ele>
        <time>2024-09-22T15:09:02.000Z</time>
      </trkpt>
      <trkpt lat="42.79636" lon="19.51542">
        <ele>960.01000976562</ele>
        <time>2024-09-22T15:09:03.000Z</time>
      </trkpt>
      <trkpt lat="42.79624" lon="19.5156">
        <ele>960.01000976562</ele>
        <time>2024-09-22T15:09:04.000Z</time>
      </trkpt>
      <trkpt lat="42.79616" lon="19.51572">
        <ele>960.01000976562</ele>
        <time>2024-09-22T15:09:05.000Z</time>
      </trkpt>
      <trkpt lat="42.79559" lon="19.51671">
        <ele>960.48999023438</ele>
        <time>2024-09-22T15:09:12.000Z</time>
      </trkpt>
      <trkpt lat="42.79552" lon="19.5168">
        <ele>960.48999023438</ele>
        <time>2024-09-22T15:09:13.000Z</time>
      </trkpt>
      <trkpt lat="42.79544" lon="19.51689">
        <ele>960.48999023438</ele>
        <time>2024-09-22T15:09:14.000Z</time>
      </trkpt>
      <trkpt lat="42.79535" lon="19.51696">
        <ele>960.97998046875</ele>
        <time>2024-09-22T15:09:15.000Z</time>
      </trkpt>
      <trkpt lat="42.79524" lon="19.51699">
        <ele>961.46002197266</ele>
        <time>2024-09-22T15:09:16.000Z</time>
      </trkpt>
      <trkpt lat="42.79514" lon="19.51699">
        <ele>960.97998046875</ele>
        <time>2024-09-22T15:09:17.000Z</time>
      </trkpt>
      <trkpt lat="42.79502" lon="19.51696">
        <ele>961.46002197266</ele>
        <time>2024-09-22T15:09:18.000Z</time>
      </trkpt>
      <trkpt lat="42.79489" lon="19.51691">
        <ele>961.46002197266</ele>
        <time>2024-09-22T15:09:19.000Z</time>
      </trkpt>
      <trkpt lat="42.7948" lon="19.51686">
        <ele>961.94000244141</ele>
        <time>2024-09-22T15:09:20.000Z</time>
      </trkpt>
      <trkpt lat="42.79467" lon="19.5168">
        <ele>961.94000244141</ele>
        <time>2024-09-22T15:09:21.000Z</time>
      </trkpt>
      <trkpt lat="42.79445" lon="19.5167">
        <ele>962.41998291016</ele>
        <time>2024-09-22T15:09:23.000Z</time>
      </trkpt>
      <trkpt lat="42.79443" lon="19.51669">
        <ele>962.41998291016</ele>
        <time>2024-09-22T15:09:24.000Z</time>
      </trkpt>
      <trkpt lat="42.7943" lon="19.51665">
        <ele>962.90002441406</ele>
        <time>2024-09-22T15:09:25.000Z</time>
      </trkpt>
      <trkpt lat="42.79419" lon="19.51664">
        <ele>963.85998535156</ele>
        <time>2024-09-22T15:09:26.000Z</time>
      </trkpt>
      <trkpt lat="42.79407" lon="19.51665">
        <ele>964.82000732422</ele>
        <time>2024-09-22T15:09:27.000Z</time>
      </trkpt>
      <trkpt lat="42.79395" lon="19.51668">
        <ele>965.78002929688</ele>
        <time>2024-09-22T15:09:28.000Z</time>
      </trkpt>
      <trkpt lat="42.79377" lon="19.51677">
        <ele>967.21997070312</ele>
        <time>2024-09-22T15:09:29.000Z</time>
      </trkpt>
      <trkpt lat="42.79355" lon="19.51689">
        <ele>967.21997070312</ele>
        <time>2024-09-22T15:09:31.000Z</time>
      </trkpt>
      <trkpt lat="42.79348" lon="19.51694">
        <ele>967.21997070312</ele>
        <time>2024-09-22T15:09:32.000Z</time>
      </trkpt>
      <trkpt lat="42.79335" lon="19.51705">
        <ele>968.17999267578</ele>
        <time>2024-09-22T15:09:33.000Z</time>
      </trkpt>
      <trkpt lat="42.79324" lon="19.51715">
        <ele>968.66998291016</ele>
        <time>2024-09-22T15:09:34.000Z</time>
      </trkpt>
      <trkpt lat="42.79269" lon="19.51769">
        <ele>971.07000732422</ele>
        <time>2024-09-22T15:09:39.000Z</time>
      </trkpt>
      <trkpt lat="42.79262" lon="19.51776">
        <ele>971.54998779297</ele>
        <time>2024-09-22T15:09:40.000Z</time>
      </trkpt>
      <trkpt lat="42.79244" lon="19.51796">
        <ele>971.07000732422</ele>
        <time>2024-09-22T15:09:41.000Z</time>
      </trkpt>
      <trkpt lat="42.79238" lon="19.51804">
        <ele>970.59002685547</ele>
        <time>2024-09-22T15:09:42.000Z</time>
      </trkpt>
      <trkpt lat="42.7923" lon="19.51815">
        <ele>970.10998535156</ele>
        <time>2024-09-22T15:09:43.000Z</time>
      </trkpt>
      <trkpt lat="42.79221" lon="19.51831">
        <ele>970.10998535156</ele>
        <time>2024-09-22T15:09:44.000Z</time>
      </trkpt>
      <trkpt lat="42.79213" lon="19.5185">
        <ele>969.15002441406</ele>
        <time>2024-09-22T15:09:45.000Z</time>
      </trkpt>
      <trkpt lat="42.79207" lon="19.51869">
        <ele>969.15002441406</ele>
        <time>2024-09-22T15:09:46.000Z</time>
      </trkpt>
      <trkpt lat="42.79203" lon="19.5189">
        <ele>968.66998291016</ele>
        <time>2024-09-22T15:09:47.000Z</time>
      </trkpt>
      <trkpt lat="42.79202" lon="19.51909">
        <ele>968.17999267578</ele>
        <time>2024-09-22T15:09:48.000Z</time>
      </trkpt>
      <trkpt lat="42.79201" lon="19.51946">
        <ele>967.21997070312</ele>
        <time>2024-09-22T15:09:49.000Z</time>
      </trkpt>
      <trkpt lat="42.79204" lon="19.52103">
        <ele>961.94000244141</ele>
        <time>2024-09-22T15:09:57.000Z</time>
      </trkpt>
      <trkpt lat="42.79204" lon="19.52128">
        <ele>960.97998046875</ele>
        <time>2024-09-22T15:09:58.000Z</time>
      </trkpt>
      <trkpt lat="42.79203" lon="19.52144">
        <ele>960.48999023438</ele>
        <time>2024-09-22T15:09:59.000Z</time>
      </trkpt>
      <trkpt lat="42.79202" lon="19.52154">
        <ele>960.01000976562</ele>
        <time>2024-09-22T15:10:00.000Z</time>
      </trkpt>
      <trkpt lat="42.79199" lon="19.5217">
        <ele>959.53002929688</ele>
        <time>2024-09-22T15:10:01.000Z</time>
      </trkpt>
      <trkpt lat="42.79194" lon="19.52185">
        <ele>959.53002929688</ele>
        <time>2024-09-22T15:10:02.000Z</time>
      </trkpt>
      <trkpt lat="42.79188" lon="19.52199">
        <ele>959.04998779297</ele>
        <time>2024-09-22T15:10:03.000Z</time>
      </trkpt>
      <trkpt lat="42.7918" lon="19.52212">
        <ele>958.57000732422</ele>
        <time>2024-09-22T15:10:04.000Z</time>
      </trkpt>
      <trkpt lat="42.79094" lon="19.52306">
        <ele>959.04998779297</ele>
        <time>2024-09-22T15:10:12.000Z</time>
      </trkpt>
      <trkpt lat="42.79083" lon="19.52318">
        <ele>959.04998779297</ele>
        <time>2024-09-22T15:10:13.000Z</time>
      </trkpt>
      <trkpt lat="42.79076" lon="19.52327">
        <ele>959.53002929688</ele>
        <time>2024-09-22T15:10:14.000Z</time>
      </trkpt>
      <trkpt lat="42.79068" lon="19.52338">
        <ele>959.04998779297</ele>
        <time>2024-09-22T15:10:15.000Z</time>
      </trkpt>
      <trkpt lat="42.79061" lon="19.52351">
        <ele>959.04998779297</ele>
        <time>2024-09-22T15:10:16.000Z</time>
      </trkpt>
      <trkpt lat="42.79056" lon="19.52366">
        <ele>959.04998779297</ele>
        <time>2024-09-22T15:10:17.000Z</time>
      </trkpt>
      <trkpt lat="42.79054" lon="19.52384">
        <ele>959.04998779297</ele>
        <time>2024-09-22T15:10:18.000Z</time>
      </trkpt>
      <trkpt lat="42.79054" lon="19.52458">
        <ele>959.53002929688</ele>
        <time>2024-09-22T15:10:21.000Z</time>
      </trkpt>
      <trkpt lat="42.79051" lon="19.52487">
        <ele>959.04998779297</ele>
        <time>2024-09-22T15:10:22.000Z</time>
      </trkpt>
      <trkpt lat="42.79018" lon="19.52656">
        <ele>957.13000488281</ele>
        <time>2024-09-22T15:10:27.000Z</time>
      </trkpt>
      <trkpt lat="42.78999" lon="19.52861">
        <ele>958.57000732422</ele>
        <time>2024-09-22T15:10:34.000Z</time>
      </trkpt>
      <trkpt lat="42.78986" lon="19.53019">
        <ele>960.97998046875</ele>
        <time>2024-09-22T15:10:39.000Z</time>
      </trkpt>
      <trkpt lat="42.78985" lon="19.53036">
        <ele>961.94000244141</ele>
        <time>2024-09-22T15:10:40.000Z</time>
      </trkpt>
      <trkpt lat="42.78986" lon="19.53065">
        <ele>962.90002441406</ele>
        <time>2024-09-22T15:10:41.000Z</time>
      </trkpt>
      <trkpt lat="42.78995" lon="19.53134">
        <ele>964.82000732422</ele>
        <time>2024-09-22T15:10:43.000Z</time>
      </trkpt>
      <trkpt lat="42.79004" lon="19.5319">
        <ele>966.26000976562</ele>
        <time>2024-09-22T15:10:45.000Z</time>
      </trkpt>
      <trkpt lat="42.7903" lon="19.53422">
        <ele>968.66998291016</ele>
        <time>2024-09-22T15:10:53.000Z</time>
      </trkpt>
      <trkpt lat="42.79033" lon="19.53448">
        <ele>969.15002441406</ele>
        <time>2024-09-22T15:10:54.000Z</time>
      </trkpt>
      <trkpt lat="42.79036" lon="19.53466">
        <ele>969.15002441406</ele>
        <time>2024-09-22T15:10:55.000Z</time>
      </trkpt>
      <trkpt lat="42.79044" lon="19.53492">
        <ele>968.66998291016</ele>
        <time>2024-09-22T15:10:56.000Z</time>
      </trkpt>
      <trkpt lat="42.79053" lon="19.53513">
        <ele>969.15002441406</ele>
        <time>2024-09-22T15:10:57.000Z</time>
      </trkpt>
      <trkpt lat="42.79064" lon="19.53537">
        <ele>969.15002441406</ele>
        <time>2024-09-22T15:10:58.000Z</time>
      </trkpt>
      <trkpt lat="42.79072" lon="19.53562">
        <ele>968.66998291016</ele>
        <time>2024-09-22T15:10:59.000Z</time>
      </trkpt>
      <trkpt lat="42.79075" lon="19.53587">
        <ele>968.66998291016</ele>
        <time>2024-09-22T15:11:00.000Z</time>
      </trkpt>
      <trkpt lat="42.79074" lon="19.53613">
        <ele>969.15002441406</ele>
        <time>2024-09-22T15:11:01.000Z</time>
      </trkpt>
      <trkpt lat="42.79068" lon="19.53639">
        <ele>969.15002441406</ele>
        <time>2024-09-22T15:11:02.000Z</time>
      </trkpt>
      <trkpt lat="42.79033" lon="19.53778">
        <ele>968.66998291016</ele>
        <time>2024-09-22T15:11:07.000Z</time>
      </trkpt>
      <trkpt lat="42.79026" lon="19.53798">
        <ele>968.66998291016</ele>
        <time>2024-09-22T15:11:08.000Z</time>
      </trkpt>
      <trkpt lat="42.79014" lon="19.53825">
        <ele>968.66998291016</ele>
        <time>2024-09-22T15:11:09.000Z</time>
      </trkpt>
      <trkpt lat="42.79002" lon="19.53847">
        <ele>968.17999267578</ele>
        <time>2024-09-22T15:11:10.000Z</time>
      </trkpt>
      <trkpt lat="42.78992" lon="19.53863">
        <ele>967.70001220703</ele>
        <time>2024-09-22T15:11:11.000Z</time>
      </trkpt>
      <trkpt lat="42.78975" lon="19.53884">
        <ele>966.73999023438</ele>
        <time>2024-09-22T15:11:12.000Z</time>
      </trkpt>
      <trkpt lat="42.78958" lon="19.53901">
        <ele>966.73999023438</ele>
        <time>2024-09-22T15:11:13.000Z</time>
      </trkpt>
      <trkpt lat="42.78847" lon="19.53987">
        <ele>966.73999023438</ele>
        <time>2024-09-22T15:11:19.000Z</time>
      </trkpt>
      <trkpt lat="42.78835" lon="19.53996">
        <ele>966.73999023438</ele>
        <time>2024-09-22T15:11:20.000Z</time>
      </trkpt>
      <trkpt lat="42.78812" lon="19.54014">
        <ele>966.73999023438</ele>
        <time>2024-09-22T15:11:21.000Z</time>
      </trkpt>
      <trkpt lat="42.78793" lon="19.54028">
        <ele>967.21997070312</ele>
        <time>2024-09-22T15:11:23.000Z</time>
      </trkpt>
      <trkpt lat="42.78773" lon="19.54038">
        <ele>967.21997070312</ele>
        <time>2024-09-22T15:11:24.000Z</time>
      </trkpt>
      <trkpt lat="42.78764" lon="19.54042">
        <ele>967.21997070312</ele>
        <time>2024-09-22T15:11:25.000Z</time>
      </trkpt>
      <trkpt lat="42.78735" lon="19.54055">
        <ele>967.70001220703</ele>
        <time>2024-09-22T15:11:28.000Z</time>
      </trkpt>
      <trkpt lat="42.78724" lon="19.54062">
        <ele>968.17999267578</ele>
        <time>2024-09-22T15:11:29.000Z</time>
      </trkpt>
      <trkpt lat="42.78668" lon="19.54111">
        <ele>969.15002441406</ele>
        <time>2024-09-22T15:11:35.000Z</time>
      </trkpt>
      <trkpt lat="42.78658" lon="19.54118">
        <ele>969.15002441406</ele>
        <time>2024-09-22T15:11:36.000Z</time>
      </trkpt>
      <trkpt lat="42.78644" lon="19.54126">
        <ele>970.10998535156</ele>
        <time>2024-09-22T15:11:37.000Z</time>
      </trkpt>
      <trkpt lat="42.78636" lon="19.5413">
        <ele>970.10998535156</ele>
        <time>2024-09-22T15:11:38.000Z</time>
      </trkpt>
      <trkpt lat="42.78622" lon="19.54134">
        <ele>970.10998535156</ele>
        <time>2024-09-22T15:11:39.000Z</time>
      </trkpt>
      <trkpt lat="42.78604" lon="19.54138">
        <ele>970.59002685547</ele>
        <time>2024-09-22T15:11:40.000Z</time>
      </trkpt>
      <trkpt lat="42.78601" lon="19.54138">
        <ele>970.10998535156</ele>
        <time>2024-09-22T15:11:41.000Z</time>
      </trkpt>
      <trkpt lat="42.7858" lon="19.54138">
        <ele>969.63000488281</ele>
        <time>2024-09-22T15:11:42.000Z</time>
      </trkpt>
      <trkpt lat="42.78576" lon="19.54137">
        <ele>969.63000488281</ele>
        <time>2024-09-22T15:11:43.000Z</time>
      </trkpt>
      <trkpt lat="42.7856" lon="19.54134">
        <ele>969.63000488281</ele>
        <time>2024-09-22T15:11:44.000Z</time>
      </trkpt>
      <trkpt lat="42.78544" lon="19.54129">
        <ele>970.10998535156</ele>
        <time>2024-09-22T15:11:45.000Z</time>
      </trkpt>
      <trkpt lat="42.78522" lon="19.54123">
        <ele>971.07000732422</ele>
        <time>2024-09-22T15:11:46.000Z</time>
      </trkpt>
      <trkpt lat="42.78516" lon="19.54122">
        <ele>971.07000732422</ele>
        <time>2024-09-22T15:11:47.000Z</time>
      </trkpt>
      <trkpt lat="42.78506" lon="19.54121">
        <ele>970.59002685547</ele>
        <time>2024-09-22T15:11:48.000Z</time>
      </trkpt>
      <trkpt lat="42.78492" lon="19.54121">
        <ele>970.59002685547</ele>
        <time>2024-09-22T15:11:49.000Z</time>
      </trkpt>
      <trkpt lat="42.78467" lon="19.54124">
        <ele>971.54998779297</ele>
        <time>2024-09-22T15:11:50.000Z</time>
      </trkpt>
      <trkpt lat="42.78462" lon="19.54125">
        <ele>971.07000732422</ele>
        <time>2024-09-22T15:11:51.000Z</time>
      </trkpt>
      <trkpt lat="42.78448" lon="19.54129">
        <ele>971.07000732422</ele>
        <time>2024-09-22T15:11:52.000Z</time>
      </trkpt>
      <trkpt lat="42.7844" lon="19.54133">
        <ele>970.10998535156</ele>
        <time>2024-09-22T15:11:53.000Z</time>
      </trkpt>
      <trkpt lat="42.78422" lon="19.54142">
        <ele>969.63000488281</ele>
        <time>2024-09-22T15:11:54.000Z</time>
      </trkpt>
      <trkpt lat="42.78414" lon="19.54147">
        <ele>969.63000488281</ele>
        <time>2024-09-22T15:11:55.000Z</time>
      </trkpt>
      <trkpt lat="42.78397" lon="19.54159">
        <ele>969.63000488281</ele>
        <time>2024-09-22T15:11:56.000Z</time>
      </trkpt>
      <trkpt lat="42.7839" lon="19.54165">
        <ele>970.10998535156</ele>
        <time>2024-09-22T15:11:57.000Z</time>
      </trkpt>
      <trkpt lat="42.78377" lon="19.54179">
        <ele>970.59002685547</ele>
        <time>2024-09-22T15:11:58.000Z</time>
      </trkpt>
      <trkpt lat="42.78355" lon="19.54205">
        <ele>972.03002929688</ele>
        <time>2024-09-22T15:12:00.000Z</time>
      </trkpt>
      <trkpt lat="42.7834" lon="19.54224">
        <ele>972.03002929688</ele>
        <time>2024-09-22T15:12:02.000Z</time>
      </trkpt>
      <trkpt lat="42.78327" lon="19.54241">
        <ele>972.51000976562</ele>
        <time>2024-09-22T15:12:03.000Z</time>
      </trkpt>
      <trkpt lat="42.7832" lon="19.5425">
        <ele>972.51000976562</ele>
        <time>2024-09-22T15:12:04.000Z</time>
      </trkpt>
      <trkpt lat="42.78311" lon="19.54261">
        <ele>972.51000976562</ele>
        <time>2024-09-22T15:12:05.000Z</time>
      </trkpt>
      <trkpt lat="42.783" lon="19.54271">
        <ele>972.98999023438</ele>
        <time>2024-09-22T15:12:06.000Z</time>
      </trkpt>
      <trkpt lat="42.78288" lon="19.5428">
        <ele>972.98999023438</ele>
        <time>2024-09-22T15:12:07.000Z</time>
      </trkpt>
      <trkpt lat="42.78276" lon="19.54286">
        <ele>972.98999023438</ele>
        <time>2024-09-22T15:12:08.000Z</time>
      </trkpt>
      <trkpt lat="42.78264" lon="19.54289">
        <ele>973.95001220703</ele>
        <time>2024-09-22T15:12:09.000Z</time>
      </trkpt>
      <trkpt lat="42.7825" lon="19.5429">
        <ele>973.95001220703</ele>
        <time>2024-09-22T15:12:10.000Z</time>
      </trkpt>
      <trkpt lat="42.78229" lon="19.54291">
        <ele>974.42999267578</ele>
        <time>2024-09-22T15:12:11.000Z</time>
      </trkpt>
      <trkpt lat="42.7822" lon="19.54291">
        <ele>974.42999267578</ele>
        <time>2024-09-22T15:12:12.000Z</time>
      </trkpt>
      <trkpt lat="42.78214" lon="19.54292">
        <ele>973.95001220703</ele>
        <time>2024-09-22T15:12:13.000Z</time>
      </trkpt>
      <trkpt lat="42.78201" lon="19.54293">
        <ele>973.46997070312</ele>
        <time>2024-09-22T15:12:14.000Z</time>
      </trkpt>
      <trkpt lat="42.78184" lon="19.54297">
        <ele>972.98999023438</ele>
        <time>2024-09-22T15:12:15.000Z</time>
      </trkpt>
      <trkpt lat="42.78171" lon="19.54301">
        <ele>972.98999023438</ele>
        <time>2024-09-22T15:12:16.000Z</time>
      </trkpt>
      <trkpt lat="42.78163" lon="19.54304">
        <ele>972.98999023438</ele>
        <time>2024-09-22T15:12:17.000Z</time>
      </trkpt>
      <trkpt lat="42.78146" lon="19.54311">
        <ele>973.46997070312</ele>
        <time>2024-09-22T15:12:18.000Z</time>
      </trkpt>
      <trkpt lat="42.78138" lon="19.54315">
        <ele>973.46997070312</ele>
        <time>2024-09-22T15:12:19.000Z</time>
      </trkpt>
      <trkpt lat="42.78109" lon="19.54324">
        <ele>974.42999267578</ele>
        <time>2024-09-22T15:12:21.000Z</time>
      </trkpt>
      <trkpt lat="42.78096" lon="19.54329">
        <ele>974.42999267578</ele>
        <time>2024-09-22T15:12:22.000Z</time>
      </trkpt>
      <trkpt lat="42.78087" lon="19.54333">
        <ele>974.42999267578</ele>
        <time>2024-09-22T15:12:23.000Z</time>
      </trkpt>
      <trkpt lat="42.78064" lon="19.54342">
        <ele>975.39001464844</ele>
        <time>2024-09-22T15:12:25.000Z</time>
      </trkpt>
      <trkpt lat="42.78053" lon="19.54347">
        <ele>975.88000488281</ele>
        <time>2024-09-22T15:12:26.000Z</time>
      </trkpt>
      <trkpt lat="42.78037" lon="19.54356">
        <ele>976.84002685547</ele>
        <time>2024-09-22T15:12:27.000Z</time>
      </trkpt>
      <trkpt lat="42.78024" lon="19.54366">
        <ele>977.32000732422</ele>
        <time>2024-09-22T15:12:28.000Z</time>
      </trkpt>
      <trkpt lat="42.78007" lon="19.5438">
        <ele>976.84002685547</ele>
        <time>2024-09-22T15:12:29.000Z</time>
      </trkpt>
      <trkpt lat="42.78002" lon="19.54384">
        <ele>976.84002685547</ele>
        <time>2024-09-22T15:12:30.000Z</time>
      </trkpt>
      <trkpt lat="42.77995" lon="19.54392">
        <ele>976.35998535156</ele>
        <time>2024-09-22T15:12:31.000Z</time>
      </trkpt>
      <trkpt lat="42.77982" lon="19.54404">
        <ele>976.35998535156</ele>
        <time>2024-09-22T15:12:32.000Z</time>
      </trkpt>
      <trkpt lat="42.77965" lon="19.54422">
        <ele>975.39001464844</ele>
        <time>2024-09-22T15:12:33.000Z</time>
      </trkpt>
      <trkpt lat="42.77959" lon="19.54428">
        <ele>975.39001464844</ele>
        <time>2024-09-22T15:12:34.000Z</time>
      </trkpt>
      <trkpt lat="42.7795" lon="19.54436">
        <ele>974.90997314453</ele>
        <time>2024-09-22T15:12:35.000Z</time>
      </trkpt>
      <trkpt lat="42.77937" lon="19.54447">
        <ele>974.90997314453</ele>
        <time>2024-09-22T15:12:36.000Z</time>
      </trkpt>
      <trkpt lat="42.77918" lon="19.54458">
        <ele>973.95001220703</ele>
        <time>2024-09-22T15:12:37.000Z</time>
      </trkpt>
      <trkpt lat="42.77902" lon="19.54466">
        <ele>973.95001220703</ele>
        <time>2024-09-22T15:12:38.000Z</time>
      </trkpt>
      <trkpt lat="42.77891" lon="19.54471">
        <ele>973.95001220703</ele>
        <time>2024-09-22T15:12:39.000Z</time>
      </trkpt>
      <trkpt lat="42.77795" lon="19.54498">
        <ele>972.51000976562</ele>
        <time>2024-09-22T15:12:46.000Z</time>
      </trkpt>
      <trkpt lat="42.77725" lon="19.54517">
        <ele>974.42999267578</ele>
        <time>2024-09-22T15:12:52.000Z</time>
      </trkpt>
      <trkpt lat="42.77721" lon="19.54518">
        <ele>974.42999267578</ele>
        <time>2024-09-22T15:12:53.000Z</time>
      </trkpt>
      <trkpt lat="42.77708" lon="19.5452">
        <ele>974.90997314453</ele>
        <time>2024-09-22T15:12:54.000Z</time>
      </trkpt>
      <trkpt lat="42.77685" lon="19.5452">
        <ele>975.88000488281</ele>
        <time>2024-09-22T15:12:55.000Z</time>
      </trkpt>
      <trkpt lat="42.77674" lon="19.5452">
        <ele>976.35998535156</ele>
        <time>2024-09-22T15:12:56.000Z</time>
      </trkpt>
      <trkpt lat="42.77672" lon="19.54519">
        <ele>976.35998535156</ele>
        <time>2024-09-22T15:12:57.000Z</time>
      </trkpt>
      <trkpt lat="42.7766" lon="19.54517">
        <ele>976.35998535156</ele>
        <time>2024-09-22T15:12:58.000Z</time>
      </trkpt>
      <trkpt lat="42.77647" lon="19.54514">
        <ele>976.35998535156</ele>
        <time>2024-09-22T15:12:59.000Z</time>
      </trkpt>
      <trkpt lat="42.77634" lon="19.54509">
        <ele>976.84002685547</ele>
        <time>2024-09-22T15:13:00.000Z</time>
      </trkpt>
      <trkpt lat="42.7756" lon="19.54475">
        <ele>977.79998779297</ele>
        <time>2024-09-22T15:13:06.000Z</time>
      </trkpt>
      <trkpt lat="42.77554" lon="19.54472">
        <ele>977.79998779297</ele>
        <time>2024-09-22T15:13:07.000Z</time>
      </trkpt>
      <trkpt lat="42.77542" lon="19.54465">
        <ele>977.79998779297</ele>
        <time>2024-09-22T15:13:08.000Z</time>
      </trkpt>
      <trkpt lat="42.77531" lon="19.54457">
        <ele>978.28002929688</ele>
        <time>2024-09-22T15:13:09.000Z</time>
      </trkpt>
      <trkpt lat="42.77517" lon="19.54445">
        <ele>978.76000976562</ele>
        <time>2024-09-22T15:13:10.000Z</time>
      </trkpt>
      <trkpt lat="42.77507" lon="19.54434">
        <ele>978.76000976562</ele>
        <time>2024-09-22T15:13:11.000Z</time>
      </trkpt>
      <trkpt lat="42.77498" lon="19.54423">
        <ele>978.76000976562</ele>
        <time>2024-09-22T15:13:12.000Z</time>
      </trkpt>
      <trkpt lat="42.7749" lon="19.54411">
        <ele>978.76000976562</ele>
        <time>2024-09-22T15:13:13.000Z</time>
      </trkpt>
      <trkpt lat="42.77481" lon="19.54397">
        <ele>978.76000976562</ele>
        <time>2024-09-22T15:13:14.000Z</time>
      </trkpt>
      <trkpt lat="42.77475" lon="19.54383">
        <ele>979.23999023438</ele>
        <time>2024-09-22T15:13:15.000Z</time>
      </trkpt>
      <trkpt lat="42.77465" lon="19.54358">
        <ele>979.23999023438</ele>
        <time>2024-09-22T15:13:16.000Z</time>
      </trkpt>
      <trkpt lat="42.77446" lon="19.54293">
        <ele>981.64001464844</ele>
        <time>2024-09-22T15:13:20.000Z</time>
      </trkpt>
      <trkpt lat="42.77442" lon="19.54278">
        <ele>982.11999511719</ele>
        <time>2024-09-22T15:13:21.000Z</time>
      </trkpt>
      <trkpt lat="42.77436" lon="19.54257">
        <ele>983.09002685547</ele>
        <time>2024-09-22T15:13:22.000Z</time>
      </trkpt>
      <trkpt lat="42.77435" lon="19.54253">
        <ele>983.09002685547</ele>
        <time>2024-09-22T15:13:23.000Z</time>
      </trkpt>
      <trkpt lat="42.77428" lon="19.54232">
        <ele>983.57000732422</ele>
        <time>2024-09-22T15:13:24.000Z</time>
      </trkpt>
      <trkpt lat="42.7742" lon="19.54212">
        <ele>983.57000732422</ele>
        <time>2024-09-22T15:13:25.000Z</time>
      </trkpt>
      <trkpt lat="42.77418" lon="19.54209">
        <ele>984.04998779297</ele>
        <time>2024-09-22T15:13:26.000Z</time>
      </trkpt>
      <trkpt lat="42.77392" lon="19.54164">
        <ele>984.53002929688</ele>
        <time>2024-09-22T15:13:29.000Z</time>
      </trkpt>
      <trkpt lat="42.7738" lon="19.54148">
        <ele>985.01000976562</ele>
        <time>2024-09-22T15:13:30.000Z</time>
      </trkpt>
      <trkpt lat="42.77374" lon="19.54141">
        <ele>985.01000976562</ele>
        <time>2024-09-22T15:13:31.000Z</time>
      </trkpt>
      <trkpt lat="42.77365" lon="19.54131">
        <ele>985.48999023438</ele>
        <time>2024-09-22T15:13:32.000Z</time>
      </trkpt>
      <trkpt lat="42.77355" lon="19.54121">
        <ele>985.96997070312</ele>
        <time>2024-09-22T15:13:33.000Z</time>
      </trkpt>
      <trkpt lat="42.77323" lon="19.54098">
        <ele>986.92999267578</ele>
        <time>2024-09-22T15:13:36.000Z</time>
      </trkpt>
      <trkpt lat="42.77286" lon="19.54084">
        <ele>988.36999511719</ele>
        <time>2024-09-22T15:13:39.000Z</time>
      </trkpt>
      <trkpt lat="42.77251" lon="19.54075">
        <ele>988.84997558594</ele>
        <time>2024-09-22T15:13:42.000Z</time>
      </trkpt>
      <trkpt lat="42.77049" lon="19.54157">
        <ele>1020.0999755859</ele>
        <time>2024-09-22T15:13:57.000Z</time>
      </trkpt>
      <trkpt lat="42.77048" lon="19.54165">
        <ele>1020.5800170898</ele>
        <time>2024-09-22T15:13:58.000Z</time>
      </trkpt>
      <trkpt lat="42.77037" lon="19.54185">
        <ele>1017.6900024414</ele>
        <time>2024-09-22T15:13:59.000Z</time>
      </trkpt>
      <trkpt lat="42.77025" lon="19.54208">
        <ele>1010.9600219727</ele>
        <time>2024-09-22T15:14:00.000Z</time>
      </trkpt>
      <trkpt lat="42.76969" lon="19.54302">
        <ele>1001.8300170898</ele>
        <time>2024-09-22T15:14:04.000Z</time>
      </trkpt>
      <trkpt lat="42.76962" lon="19.54314">
        <ele>1001.3499755859</ele>
        <time>2024-09-22T15:14:05.000Z</time>
      </trkpt>
      <trkpt lat="42.76952" lon="19.54331">
        <ele>1001.3499755859</ele>
        <time>2024-09-22T15:14:06.000Z</time>
      </trkpt>
      <trkpt lat="42.7693" lon="19.5437">
        <ele>998.46997070312</ele>
        <time>2024-09-22T15:14:07.000Z</time>
      </trkpt>
      <trkpt lat="42.76928" lon="19.54374">
        <ele>997.98999023438</ele>
        <time>2024-09-22T15:14:08.000Z</time>
      </trkpt>
      <trkpt lat="42.76913" lon="19.54399">
        <ele>996.53997802734</ele>
        <time>2024-09-22T15:14:09.000Z</time>
      </trkpt>
      <trkpt lat="42.76906" lon="19.54412">
        <ele>996.05999755859</ele>
        <time>2024-09-22T15:14:10.000Z</time>
      </trkpt>
      <trkpt lat="42.76898" lon="19.54428">
        <ele>995.58001708984</ele>
        <time>2024-09-22T15:14:11.000Z</time>
      </trkpt>
      <trkpt lat="42.76893" lon="19.54438">
        <ele>995.58001708984</ele>
        <time>2024-09-22T15:14:12.000Z</time>
      </trkpt>
      <trkpt lat="42.76887" lon="19.54457">
        <ele>995.09997558594</ele>
        <time>2024-09-22T15:14:13.000Z</time>
      </trkpt>
      <trkpt lat="42.76883" lon="19.54476">
        <ele>994.61999511719</ele>
        <time>2024-09-22T15:14:14.000Z</time>
      </trkpt>
      <trkpt lat="42.76882" lon="19.54496">
        <ele>994.14001464844</ele>
        <time>2024-09-22T15:14:15.000Z</time>
      </trkpt>
      <trkpt lat="42.76879" lon="19.54567">
        <ele>992.70001220703</ele>
        <time>2024-09-22T15:14:18.000Z</time>
      </trkpt>
      <trkpt lat="42.76878" lon="19.54575">
        <ele>992.21997070312</ele>
        <time>2024-09-22T15:14:19.000Z</time>
      </trkpt>
      <trkpt lat="42.76876" lon="19.54593">
        <ele>991.73999023438</ele>
        <time>2024-09-22T15:14:20.000Z</time>
      </trkpt>
      <trkpt lat="42.76872" lon="19.54614">
        <ele>991.26000976562</ele>
        <time>2024-09-22T15:14:21.000Z</time>
      </trkpt>
      <trkpt lat="42.76867" lon="19.5463">
        <ele>990.78002929688</ele>
        <time>2024-09-22T15:14:22.000Z</time>
      </trkpt>
      <trkpt lat="42.76852" lon="19.54669">
        <ele>990.29998779297</ele>
        <time>2024-09-22T15:14:24.000Z</time>
      </trkpt>
      <trkpt lat="42.76799" lon="19.5479">
        <ele>989.33001708984</ele>
        <time>2024-09-22T15:14:30.000Z</time>
      </trkpt>
      <trkpt lat="42.7679" lon="19.54806">
        <ele>989.33001708984</ele>
        <time>2024-09-22T15:14:31.000Z</time>
      </trkpt>
      <trkpt lat="42.76781" lon="19.54818">
        <ele>989.33001708984</ele>
        <time>2024-09-22T15:14:32.000Z</time>
      </trkpt>
      <trkpt lat="42.76769" lon="19.54832">
        <ele>988.84997558594</ele>
        <time>2024-09-22T15:14:33.000Z</time>
      </trkpt>
      <trkpt lat="42.76747" lon="19.54852">
        <ele>989.33001708984</ele>
        <time>2024-09-22T15:14:34.000Z</time>
      </trkpt>
      <trkpt lat="42.76742" lon="19.54855">
        <ele>989.33001708984</ele>
        <time>2024-09-22T15:14:35.000Z</time>
      </trkpt>
      <trkpt lat="42.76733" lon="19.54861">
        <ele>989.80999755859</ele>
        <time>2024-09-22T15:14:36.000Z</time>
      </trkpt>
      <trkpt lat="42.76623" lon="19.54911">
        <ele>991.73999023438</ele>
        <time>2024-09-22T15:14:44.000Z</time>
      </trkpt>
      <trkpt lat="42.7652" lon="19.54955">
        <ele>991.73999023438</ele>
        <time>2024-09-22T15:14:53.000Z</time>
      </trkpt>
      <trkpt lat="42.76505" lon="19.54961">
        <ele>991.73999023438</ele>
        <time>2024-09-22T15:14:54.000Z</time>
      </trkpt>
      <trkpt lat="42.76497" lon="19.54965">
        <ele>991.73999023438</ele>
        <time>2024-09-22T15:14:55.000Z</time>
      </trkpt>
      <trkpt lat="42.76485" lon="19.54972">
        <ele>992.21997070312</ele>
        <time>2024-09-22T15:14:56.000Z</time>
      </trkpt>
      <trkpt lat="42.76476" lon="19.54982">
        <ele>992.21997070312</ele>
        <time>2024-09-22T15:14:57.000Z</time>
      </trkpt>
      <trkpt lat="42.76468" lon="19.54994">
        <ele>992.70001220703</ele>
        <time>2024-09-22T15:14:58.000Z</time>
      </trkpt>
      <trkpt lat="42.76461" lon="19.55007">
        <ele>993.17999267578</ele>
        <time>2024-09-22T15:14:59.000Z</time>
      </trkpt>
      <trkpt lat="42.76455" lon="19.55022">
        <ele>993.17999267578</ele>
        <time>2024-09-22T15:15:00.000Z</time>
      </trkpt>
      <trkpt lat="42.76422" lon="19.55122">
        <ele>994.14001464844</ele>
        <time>2024-09-22T15:15:06.000Z</time>
      </trkpt>
      <trkpt lat="42.7642" lon="19.55125">
        <ele>994.14001464844</ele>
        <time>2024-09-22T15:15:07.000Z</time>
      </trkpt>
      <trkpt lat="42.76415" lon="19.55137">
        <ele>994.14001464844</ele>
        <time>2024-09-22T15:15:08.000Z</time>
      </trkpt>
      <trkpt lat="42.76407" lon="19.55148">
        <ele>994.14001464844</ele>
        <time>2024-09-22T15:15:09.000Z</time>
      </trkpt>
      <trkpt lat="42.764" lon="19.55157">
        <ele>994.14001464844</ele>
        <time>2024-09-22T15:15:10.000Z</time>
      </trkpt>
      <trkpt lat="42.7639" lon="19.55166">
        <ele>994.14001464844</ele>
        <time>2024-09-22T15:15:11.000Z</time>
      </trkpt>
      <trkpt lat="42.76379" lon="19.55172">
        <ele>994.61999511719</ele>
        <time>2024-09-22T15:15:12.000Z</time>
      </trkpt>
      <trkpt lat="42.76367" lon="19.55176">
        <ele>994.61999511719</ele>
        <time>2024-09-22T15:15:13.000Z</time>
      </trkpt>
      <trkpt lat="42.76355" lon="19.55177">
        <ele>995.09997558594</ele>
        <time>2024-09-22T15:15:14.000Z</time>
      </trkpt>
      <trkpt lat="42.76343" lon="19.55175">
        <ele>995.58001708984</ele>
        <time>2024-09-22T15:15:15.000Z</time>
      </trkpt>
      <trkpt lat="42.76319" lon="19.55169">
        <ele>996.05999755859</ele>
        <time>2024-09-22T15:15:17.000Z</time>
      </trkpt>
      <trkpt lat="42.76231" lon="19.55139">
        <ele>997.51000976562</ele>
        <time>2024-09-22T15:15:25.000Z</time>
      </trkpt>
      <trkpt lat="42.76195" lon="19.5513">
        <ele>997.51000976562</ele>
        <time>2024-09-22T15:15:29.000Z</time>
      </trkpt>
      <trkpt lat="42.76188" lon="19.55129">
        <ele>997.51000976562</ele>
        <time>2024-09-22T15:15:30.000Z</time>
      </trkpt>
      <trkpt lat="42.7618" lon="19.55128">
        <ele>997.51000976562</ele>
        <time>2024-09-22T15:15:31.000Z</time>
      </trkpt>
      <trkpt lat="42.76173" lon="19.5513">
        <ele>997.02001953125</ele>
        <time>2024-09-22T15:15:32.000Z</time>
      </trkpt>
      <trkpt lat="42.76167" lon="19.55136">
        <ele>997.51000976562</ele>
        <time>2024-09-22T15:15:33.000Z</time>
      </trkpt>
      <trkpt lat="42.76165" lon="19.55144">
        <ele>997.02001953125</ele>
        <time>2024-09-22T15:15:34.000Z</time>
      </trkpt>
      <trkpt lat="42.76166" lon="19.55154">
        <ele>996.53997802734</ele>
        <time>2024-09-22T15:15:35.000Z</time>
      </trkpt>
      <trkpt lat="42.76167" lon="19.55165">
        <ele>996.53997802734</ele>
        <time>2024-09-22T15:15:36.000Z</time>
      </trkpt>
      <trkpt lat="42.76167" lon="19.55178">
        <ele>996.05999755859</ele>
        <time>2024-09-22T15:15:37.000Z</time>
      </trkpt>
      <trkpt lat="42.76166" lon="19.55192">
        <ele>995.58001708984</ele>
        <time>2024-09-22T15:15:38.000Z</time>
      </trkpt>
      <trkpt lat="42.76161" lon="19.55208">
        <ele>995.09997558594</ele>
        <time>2024-09-22T15:15:39.000Z</time>
      </trkpt>
      <trkpt lat="42.76153" lon="19.55226">
        <ele>994.61999511719</ele>
        <time>2024-09-22T15:15:40.000Z</time>
      </trkpt>
      <trkpt lat="42.76146" lon="19.5524">
        <ele>994.14001464844</ele>
        <time>2024-09-22T15:15:41.000Z</time>
      </trkpt>
      <trkpt lat="42.76136" lon="19.55257">
        <ele>993.65997314453</ele>
        <time>2024-09-22T15:15:42.000Z</time>
      </trkpt>
      <trkpt lat="42.76126" lon="19.55273">
        <ele>993.65997314453</ele>
        <time>2024-09-22T15:15:43.000Z</time>
      </trkpt>
      <trkpt lat="42.76117" lon="19.55286">
        <ele>993.65997314453</ele>
        <time>2024-09-22T15:15:44.000Z</time>
      </trkpt>
      <trkpt lat="42.76112" lon="19.55297">
        <ele>993.65997314453</ele>
        <time>2024-09-22T15:15:45.000Z</time>
      </trkpt>
      <trkpt lat="42.76108" lon="19.55313">
        <ele>993.65997314453</ele>
        <time>2024-09-22T15:15:46.000Z</time>
      </trkpt>
      <trkpt lat="42.76106" lon="19.55331">
        <ele>993.65997314453</ele>
        <time>2024-09-22T15:15:47.000Z</time>
      </trkpt>
      <trkpt lat="42.76106" lon="19.55351">
        <ele>993.17999267578</ele>
        <time>2024-09-22T15:15:48.000Z</time>
      </trkpt>
      <trkpt lat="42.7611" lon="19.55412">
        <ele>993.17999267578</ele>
        <time>2024-09-22T15:15:50.000Z</time>
      </trkpt>
      <trkpt lat="42.76111" lon="19.55426">
        <ele>993.17999267578</ele>
        <time>2024-09-22T15:15:51.000Z</time>
      </trkpt>
      <trkpt lat="42.76111" lon="19.55444">
        <ele>993.17999267578</ele>
        <time>2024-09-22T15:15:52.000Z</time>
      </trkpt>
      <trkpt lat="42.76109" lon="19.55464">
        <ele>993.17999267578</ele>
        <time>2024-09-22T15:15:53.000Z</time>
      </trkpt>
      <trkpt lat="42.76106" lon="19.55486">
        <ele>993.17999267578</ele>
        <time>2024-09-22T15:15:54.000Z</time>
      </trkpt>
      <trkpt lat="42.761" lon="19.55503">
        <ele>993.17999267578</ele>
        <time>2024-09-22T15:15:55.000Z</time>
      </trkpt>
      <trkpt lat="42.76093" lon="19.55519">
        <ele>993.65997314453</ele>
        <time>2024-09-22T15:15:56.000Z</time>
      </trkpt>
      <trkpt lat="42.76079" lon="19.55538">
        <ele>994.61999511719</ele>
        <time>2024-09-22T15:15:57.000Z</time>
      </trkpt>
      <trkpt lat="42.76066" lon="19.55554">
        <ele>995.58001708984</ele>
        <time>2024-09-22T15:15:58.000Z</time>
      </trkpt>
      <trkpt lat="42.7606" lon="19.55562">
        <ele>996.53997802734</ele>
        <time>2024-09-22T15:15:59.000Z</time>
      </trkpt>
      <trkpt lat="42.76048" lon="19.55581">
        <ele>997.51000976562</ele>
        <time>2024-09-22T15:16:00.000Z</time>
      </trkpt>
      <trkpt lat="42.76039" lon="19.55598">
        <ele>997.02001953125</ele>
        <time>2024-09-22T15:16:01.000Z</time>
      </trkpt>
      <trkpt lat="42.76028" lon="19.55625">
        <ele>997.98999023438</ele>
        <time>2024-09-22T15:16:02.000Z</time>
      </trkpt>
      <trkpt lat="42.76022" lon="19.55643">
        <ele>998.46997070312</ele>
        <time>2024-09-22T15:16:03.000Z</time>
      </trkpt>
      <trkpt lat="42.75996" lon="19.55754">
        <ele>999.42999267578</ele>
        <time>2024-09-22T15:16:07.000Z</time>
      </trkpt>
      <trkpt lat="42.75985" lon="19.55798">
        <ele>999.90997314453</ele>
        <time>2024-09-22T15:16:09.000Z</time>
      </trkpt>
      <trkpt lat="42.75982" lon="19.55811">
        <ele>999.90997314453</ele>
        <time>2024-09-22T15:16:10.000Z</time>
      </trkpt>
      <trkpt lat="42.75979" lon="19.55826">
        <ele>999.90997314453</ele>
        <time>2024-09-22T15:16:11.000Z</time>
      </trkpt>
      <trkpt lat="42.75977" lon="19.55852">
        <ele>1000.3900146484</ele>
        <time>2024-09-22T15:16:12.000Z</time>
      </trkpt>
      <trkpt lat="42.75976" lon="19.55891">
        <ele>1000.8699951172</ele>
        <time>2024-09-22T15:16:13.000Z</time>
      </trkpt>
      <trkpt lat="42.75975" lon="19.55935">
        <ele>1001.3499755859</ele>
        <time>2024-09-22T15:16:15.000Z</time>
      </trkpt>
      <trkpt lat="42.75974" lon="19.55949">
        <ele>1001.3499755859</ele>
        <time>2024-09-22T15:16:16.000Z</time>
      </trkpt>
      <trkpt lat="42.7596" lon="19.56082">
        <ele>1003.2700195312</ele>
        <time>2024-09-22T15:16:21.000Z</time>
      </trkpt>
      <trkpt lat="42.7596" lon="19.56085">
        <ele>1003.75</ele>
        <time>2024-09-22T15:16:22.000Z</time>
      </trkpt>
      <trkpt lat="42.75955" lon="19.56106">
        <ele>1003.75</ele>
        <time>2024-09-22T15:16:23.000Z</time>
      </trkpt>
      <trkpt lat="42.75946" lon="19.5613">
        <ele>1003.2700195312</ele>
        <time>2024-09-22T15:16:24.000Z</time>
      </trkpt>
      <trkpt lat="42.75906" lon="19.56224">
        <ele>1003.75</ele>
        <time>2024-09-22T15:16:28.000Z</time>
      </trkpt>
      <trkpt lat="42.75902" lon="19.56232">
        <ele>1003.75</ele>
        <time>2024-09-22T15:16:29.000Z</time>
      </trkpt>
      <trkpt lat="42.75871" lon="19.56294">
        <ele>1004.7199707031</ele>
        <time>2024-09-22T15:16:32.000Z</time>
      </trkpt>
      <trkpt lat="42.75858" lon="19.56327">
        <ele>1004.7199707031</ele>
        <time>2024-09-22T15:16:33.000Z</time>
      </trkpt>
      <trkpt lat="42.75855" lon="19.56337">
        <ele>1004.7199707031</ele>
        <time>2024-09-22T15:16:34.000Z</time>
      </trkpt>
      <trkpt lat="42.75842" lon="19.56386">
        <ele>1005.200012207</ele>
        <time>2024-09-22T15:16:36.000Z</time>
      </trkpt>
      <trkpt lat="42.75834" lon="19.56429">
        <ele>1005.200012207</ele>
        <time>2024-09-22T15:16:38.000Z</time>
      </trkpt>
      <trkpt lat="42.7583" lon="19.56443">
        <ele>1005.200012207</ele>
        <time>2024-09-22T15:16:39.000Z</time>
      </trkpt>
      <trkpt lat="42.7582" lon="19.56462">
        <ele>1005.6799926758</ele>
        <time>2024-09-22T15:16:40.000Z</time>
      </trkpt>
      <trkpt lat="42.75772" lon="19.56529">
        <ele>1006.6400146484</ele>
        <time>2024-09-22T15:16:44.000Z</time>
      </trkpt>
      <trkpt lat="42.75748" lon="19.56559">
        <ele>1007.1199951172</ele>
        <time>2024-09-22T15:16:46.000Z</time>
      </trkpt>
      <trkpt lat="42.75736" lon="19.56575">
        <ele>1007.1199951172</ele>
        <time>2024-09-22T15:16:47.000Z</time>
      </trkpt>
      <trkpt lat="42.75726" lon="19.56594">
        <ele>1007.1199951172</ele>
        <time>2024-09-22T15:16:48.000Z</time>
      </trkpt>
      <trkpt lat="42.75719" lon="19.56611">
        <ele>1007.5999755859</ele>
        <time>2024-09-22T15:16:49.000Z</time>
      </trkpt>
      <trkpt lat="42.7571" lon="19.56642">
        <ele>1007.1199951172</ele>
        <time>2024-09-22T15:16:50.000Z</time>
      </trkpt>
      <trkpt lat="42.757" lon="19.56675">
        <ele>1008.0800170898</ele>
        <time>2024-09-22T15:16:52.000Z</time>
      </trkpt>
      <trkpt lat="42.75696" lon="19.56685">
        <ele>1007.5999755859</ele>
        <time>2024-09-22T15:16:53.000Z</time>
      </trkpt>
      <trkpt lat="42.75689" lon="19.56699">
        <ele>1008.0800170898</ele>
        <time>2024-09-22T15:16:54.000Z</time>
      </trkpt>
      <trkpt lat="42.75679" lon="19.5671">
        <ele>1009.0399780273</ele>
        <time>2024-09-22T15:16:55.000Z</time>
      </trkpt>
      <trkpt lat="42.75666" lon="19.56718">
        <ele>1009.5200195312</ele>
        <time>2024-09-22T15:16:56.000Z</time>
      </trkpt>
      <trkpt lat="42.75648" lon="19.56725">
        <ele>1010.4799804688</ele>
        <time>2024-09-22T15:16:57.000Z</time>
      </trkpt>
      <trkpt lat="42.75632" lon="19.56731">
        <ele>1010.9600219727</ele>
        <time>2024-09-22T15:16:58.000Z</time>
      </trkpt>
      <trkpt lat="42.7558" lon="19.56747">
        <ele>1011.4400024414</ele>
        <time>2024-09-22T15:17:01.000Z</time>
      </trkpt>
      <trkpt lat="42.75569" lon="19.56751">
        <ele>1011.9299926758</ele>
        <time>2024-09-22T15:17:02.000Z</time>
      </trkpt>
      <trkpt lat="42.7555" lon="19.56761">
        <ele>1012.4099731445</ele>
        <time>2024-09-22T15:17:03.000Z</time>
      </trkpt>
      <trkpt lat="42.75538" lon="19.56768">
        <ele>1012.4099731445</ele>
        <time>2024-09-22T15:17:04.000Z</time>
      </trkpt>
      <trkpt lat="42.75523" lon="19.56781">
        <ele>1012.8900146484</ele>
        <time>2024-09-22T15:17:05.000Z</time>
      </trkpt>
      <trkpt lat="42.75501" lon="19.56804">
        <ele>1012.8900146484</ele>
        <time>2024-09-22T15:17:06.000Z</time>
      </trkpt>
      <trkpt lat="42.75483" lon="19.56828">
        <ele>1013.3699951172</ele>
        <time>2024-09-22T15:17:08.000Z</time>
      </trkpt>
      <trkpt lat="42.75467" lon="19.56851">
        <ele>1013.3699951172</ele>
        <time>2024-09-22T15:17:09.000Z</time>
      </trkpt>
      <trkpt lat="42.75456" lon="19.56868">
        <ele>1013.3699951172</ele>
        <time>2024-09-22T15:17:10.000Z</time>
      </trkpt>
      <trkpt lat="42.75416" lon="19.56945">
        <ele>1013.8499755859</ele>
        <time>2024-09-22T15:17:14.000Z</time>
      </trkpt>
      <trkpt lat="42.75409" lon="19.5696">
        <ele>1013.3699951172</ele>
        <time>2024-09-22T15:17:15.000Z</time>
      </trkpt>
      <trkpt lat="42.75306" lon="19.57118">
        <ele>1015.2899780273</ele>
        <time>2024-09-22T15:17:24.000Z</time>
      </trkpt>
      <trkpt lat="42.75285" lon="19.5715">
        <ele>1015.7700195312</ele>
        <time>2024-09-22T15:17:26.000Z</time>
      </trkpt>
      <trkpt lat="42.75274" lon="19.57165">
        <ele>1015.7700195312</ele>
        <time>2024-09-22T15:17:27.000Z</time>
      </trkpt>
      <trkpt lat="42.75258" lon="19.57186">
        <ele>1016.25</ele>
        <time>2024-09-22T15:17:28.000Z</time>
      </trkpt>
      <trkpt lat="42.75219" lon="19.5723">
        <ele>1017.2100219727</ele>
        <time>2024-09-22T15:17:31.000Z</time>
      </trkpt>
      <trkpt lat="42.7514" lon="19.57307">
        <ele>1019.6199951172</ele>
        <time>2024-09-22T15:17:36.000Z</time>
      </trkpt>
      <trkpt lat="42.75131" lon="19.57316">
        <ele>1020.0999755859</ele>
        <time>2024-09-22T15:17:37.000Z</time>
      </trkpt>
      <trkpt lat="42.75051" lon="19.57403">
        <ele>1023.4600219727</ele>
        <time>2024-09-22T15:17:42.000Z</time>
      </trkpt>
      <trkpt lat="42.75044" lon="19.57409">
        <ele>1023.9400024414</ele>
        <time>2024-09-22T15:17:43.000Z</time>
      </trkpt>
      <trkpt lat="42.75036" lon="19.57418">
        <ele>1024.4200439453</ele>
        <time>2024-09-22T15:17:44.000Z</time>
      </trkpt>
      <trkpt lat="42.75029" lon="19.57431">
        <ele>1024.4200439453</ele>
        <time>2024-09-22T15:17:45.000Z</time>
      </trkpt>
      <trkpt lat="42.75023" lon="19.5745">
        <ele>1024.4200439453</ele>
        <time>2024-09-22T15:17:46.000Z</time>
      </trkpt>
      <trkpt lat="42.75017" lon="19.5747">
        <ele>1024.4200439453</ele>
        <time>2024-09-22T15:17:47.000Z</time>
      </trkpt>
      <trkpt lat="42.75013" lon="19.57482">
        <ele>1024.4200439453</ele>
        <time>2024-09-22T15:17:48.000Z</time>
      </trkpt>
      <trkpt lat="42.75005" lon="19.57497">
        <ele>1024.4200439453</ele>
        <time>2024-09-22T15:17:49.000Z</time>
      </trkpt>
      <trkpt lat="42.74997" lon="19.57508">
        <ele>1024.9000244141</ele>
        <time>2024-09-22T15:17:50.000Z</time>
      </trkpt>
      <trkpt lat="42.74988" lon="19.57514">
        <ele>1024.4200439453</ele>
        <time>2024-09-22T15:17:51.000Z</time>
      </trkpt>
      <trkpt lat="42.74969" lon="19.57521">
        <ele>1025.3800048828</ele>
        <time>2024-09-22T15:17:52.000Z</time>
      </trkpt>
      <trkpt lat="42.74962" lon="19.57525">
        <ele>1024.9000244141</ele>
        <time>2024-09-22T15:17:53.000Z</time>
      </trkpt>
      <trkpt lat="42.7495" lon="19.57535">
        <ele>1025.3800048828</ele>
        <time>2024-09-22T15:17:54.000Z</time>
      </trkpt>
      <trkpt lat="42.74939" lon="19.57546">
        <ele>1025.3800048828</ele>
        <time>2024-09-22T15:17:55.000Z</time>
      </trkpt>
      <trkpt lat="42.74927" lon="19.57563">
        <ele>1025.8599853516</ele>
        <time>2024-09-22T15:17:56.000Z</time>
      </trkpt>
      <trkpt lat="42.74917" lon="19.57581">
        <ele>1026.3399658203</ele>
        <time>2024-09-22T15:17:57.000Z</time>
      </trkpt>
      <trkpt lat="42.74906" lon="19.57603">
        <ele>1026.3399658203</ele>
        <time>2024-09-22T15:17:58.000Z</time>
      </trkpt>
      <trkpt lat="42.74902" lon="19.57615">
        <ele>1025.8599853516</ele>
        <time>2024-09-22T15:17:59.000Z</time>
      </trkpt>
      <trkpt lat="42.74898" lon="19.57629">
        <ele>1026.3399658203</ele>
        <time>2024-09-22T15:18:00.000Z</time>
      </trkpt>
      <trkpt lat="42.74895" lon="19.57647">
        <ele>1025.8599853516</ele>
        <time>2024-09-22T15:18:01.000Z</time>
      </trkpt>
      <trkpt lat="42.74892" lon="19.57684">
        <ele>1025.3800048828</ele>
        <time>2024-09-22T15:18:02.000Z</time>
      </trkpt>
      <trkpt lat="42.74892" lon="19.5769">
        <ele>1025.3800048828</ele>
        <time>2024-09-22T15:18:03.000Z</time>
      </trkpt>
      <trkpt lat="42.74892" lon="19.57705">
        <ele>1024.4200439453</ele>
        <time>2024-09-22T15:18:04.000Z</time>
      </trkpt>
      <trkpt lat="42.74894" lon="19.57731">
        <ele>1023.9400024414</ele>
        <time>2024-09-22T15:18:05.000Z</time>
      </trkpt>
      <trkpt lat="42.74896" lon="19.57742">
        <ele>1023.4600219727</ele>
        <time>2024-09-22T15:18:06.000Z</time>
      </trkpt>
      <trkpt lat="42.74896" lon="19.57761">
        <ele>1022.9799804688</ele>
        <time>2024-09-22T15:18:07.000Z</time>
      </trkpt>
      <trkpt lat="42.74895" lon="19.57779">
        <ele>1022.9799804688</ele>
        <time>2024-09-22T15:18:08.000Z</time>
      </trkpt>
      <trkpt lat="42.7489" lon="19.578">
        <ele>1022.9799804688</ele>
        <time>2024-09-22T15:18:09.000Z</time>
      </trkpt>
      <trkpt lat="42.74857" lon="19.57889">
        <ele>1025.3800048828</ele>
        <time>2024-09-22T15:18:13.000Z</time>
      </trkpt>
      <trkpt lat="42.74844" lon="19.57919">
        <ele>1025.8599853516</ele>
        <time>2024-09-22T15:18:14.000Z</time>
      </trkpt>
      <trkpt lat="42.74807" lon="19.57984">
        <ele>1026.3399658203</ele>
        <time>2024-09-22T15:18:17.000Z</time>
      </trkpt>
      <trkpt lat="42.74798" lon="19.57996">
        <ele>1026.8299560547</ele>
        <time>2024-09-22T15:18:18.000Z</time>
      </trkpt>
      <trkpt lat="42.74783" lon="19.58013">
        <ele>1027.3100585938</ele>
        <time>2024-09-22T15:18:19.000Z</time>
      </trkpt>
      <trkpt lat="42.74753" lon="19.5804">
        <ele>1029.2299804688</ele>
        <time>2024-09-22T15:18:21.000Z</time>
      </trkpt>
      <trkpt lat="42.74742" lon="19.58052">
        <ele>1031.1500244141</ele>
        <time>2024-09-22T15:18:22.000Z</time>
      </trkpt>
      <trkpt lat="42.74733" lon="19.58065">
        <ele>1032.5899658203</ele>
        <time>2024-09-22T15:18:23.000Z</time>
      </trkpt>
      <trkpt lat="42.74726" lon="19.58079">
        <ele>1034.0400390625</ele>
        <time>2024-09-22T15:18:24.000Z</time>
      </trkpt>
      <trkpt lat="42.74722" lon="19.58096">
        <ele>1035</ele>
        <time>2024-09-22T15:18:25.000Z</time>
      </trkpt>
      <trkpt lat="42.74722" lon="19.58112">
        <ele>1036.4399414062</ele>
        <time>2024-09-22T15:18:26.000Z</time>
      </trkpt>
      <trkpt lat="42.74725" lon="19.5813">
        <ele>1037.8800048828</ele>
        <time>2024-09-22T15:18:27.000Z</time>
      </trkpt>
      <trkpt lat="42.74729" lon="19.58148">
        <ele>1038.8399658203</ele>
        <time>2024-09-22T15:18:28.000Z</time>
      </trkpt>
      <trkpt lat="42.74735" lon="19.58163">
        <ele>1040.2800292969</ele>
        <time>2024-09-22T15:18:29.000Z</time>
      </trkpt>
      <trkpt lat="42.74755" lon="19.58219">
        <ele>1044.1300048828</ele>
        <time>2024-09-22T15:18:33.000Z</time>
      </trkpt>
      <trkpt lat="42.74759" lon="19.58227">
        <ele>1044.1300048828</ele>
        <time>2024-09-22T15:18:34.000Z</time>
      </trkpt>
      <trkpt lat="42.74763" lon="19.58235">
        <ele>1045.0899658203</ele>
        <time>2024-09-22T15:18:35.000Z</time>
      </trkpt>
      <trkpt lat="42.74778" lon="19.58258">
        <ele>1046.5300292969</ele>
        <time>2024-09-22T15:18:37.000Z</time>
      </trkpt>
      <trkpt lat="42.74781" lon="19.58261">
        <ele>1046.5300292969</ele>
        <time>2024-09-22T15:18:38.000Z</time>
      </trkpt>
      <trkpt lat="42.74788" lon="19.58266">
        <ele>1047.0100097656</ele>
        <time>2024-09-22T15:18:39.000Z</time>
      </trkpt>
      <trkpt lat="42.74803" lon="19.5827">
        <ele>1047.9699707031</ele>
        <time>2024-09-22T15:18:41.000Z</time>
      </trkpt>
      <trkpt lat="42.7481" lon="19.58273">
        <ele>1048.4499511719</ele>
        <time>2024-09-22T15:18:42.000Z</time>
      </trkpt>
      <trkpt lat="42.74817" lon="19.58278">
        <ele>1048.9399414062</ele>
        <time>2024-09-22T15:18:43.000Z</time>
      </trkpt>
      <trkpt lat="42.74823" lon="19.58285">
        <ele>1049.4200439453</ele>
        <time>2024-09-22T15:18:44.000Z</time>
      </trkpt>
      <trkpt lat="42.74827" lon="19.58293">
        <ele>1049.4200439453</ele>
        <time>2024-09-22T15:18:45.000Z</time>
      </trkpt>
      <trkpt lat="42.7483" lon="19.58303">
        <ele>1049.9000244141</ele>
        <time>2024-09-22T15:18:46.000Z</time>
      </trkpt>
      <trkpt lat="42.74832" lon="19.58313">
        <ele>1050.3800048828</ele>
        <time>2024-09-22T15:18:47.000Z</time>
      </trkpt>
      <trkpt lat="42.74832" lon="19.58326">
        <ele>1050.8599853516</ele>
        <time>2024-09-22T15:18:48.000Z</time>
      </trkpt>
      <trkpt lat="42.74832" lon="19.58331">
        <ele>1051.3399658203</ele>
        <time>2024-09-22T15:18:49.000Z</time>
      </trkpt>
      <trkpt lat="42.74834" lon="19.58342">
        <ele>1051.3399658203</ele>
        <time>2024-09-22T15:18:50.000Z</time>
      </trkpt>
      <trkpt lat="42.74848" lon="19.5838">
        <ele>1052.3000488281</ele>
        <time>2024-09-22T15:18:53.000Z</time>
      </trkpt>
      <trkpt lat="42.74852" lon="19.58394">
        <ele>1051.8199462891</ele>
        <time>2024-09-22T15:18:54.000Z</time>
      </trkpt>
      <trkpt lat="42.74855" lon="19.58407">
        <ele>1051.3399658203</ele>
        <time>2024-09-22T15:18:55.000Z</time>
      </trkpt>
      <trkpt lat="42.74858" lon="19.58417">
        <ele>1050.8599853516</ele>
        <time>2024-09-22T15:18:56.000Z</time>
      </trkpt>
      <trkpt lat="42.74864" lon="19.58429">
        <ele>1050.3800048828</ele>
        <time>2024-09-22T15:18:57.000Z</time>
      </trkpt>
      <trkpt lat="42.7487" lon="19.58441">
        <ele>1050.3800048828</ele>
        <time>2024-09-22T15:18:58.000Z</time>
      </trkpt>
      <trkpt lat="42.74876" lon="19.58457">
        <ele>1049.9000244141</ele>
        <time>2024-09-22T15:18:59.000Z</time>
      </trkpt>
      <trkpt lat="42.74879" lon="19.58473">
        <ele>1049.4200439453</ele>
        <time>2024-09-22T15:19:00.000Z</time>
      </trkpt>
      <trkpt lat="42.74879" lon="19.58488">
        <ele>1048.9399414062</ele>
        <time>2024-09-22T15:19:01.000Z</time>
      </trkpt>
      <trkpt lat="42.74878" lon="19.58504">
        <ele>1048.9399414062</ele>
        <time>2024-09-22T15:19:02.000Z</time>
      </trkpt>
      <trkpt lat="42.74872" lon="19.58524">
        <ele>1049.4200439453</ele>
        <time>2024-09-22T15:19:03.000Z</time>
      </trkpt>
      <trkpt lat="42.74868" lon="19.58542">
        <ele>1049.4200439453</ele>
        <time>2024-09-22T15:19:04.000Z</time>
      </trkpt>
      <trkpt lat="42.7486" lon="19.58593">
        <ele>1049.4200439453</ele>
        <time>2024-09-22T15:19:06.000Z</time>
      </trkpt>
      <trkpt lat="42.74856" lon="19.58609">
        <ele>1050.3800048828</ele>
        <time>2024-09-22T15:19:07.000Z</time>
      </trkpt>
      <trkpt lat="42.74853" lon="19.58626">
        <ele>1050.8599853516</ele>
        <time>2024-09-22T15:19:08.000Z</time>
      </trkpt>
      <trkpt lat="42.74853" lon="19.58642">
        <ele>1051.8199462891</ele>
        <time>2024-09-22T15:19:09.000Z</time>
      </trkpt>
      <trkpt lat="42.74855" lon="19.5866">
        <ele>1051.8199462891</ele>
        <time>2024-09-22T15:19:10.000Z</time>
      </trkpt>
      <trkpt lat="42.74863" lon="19.58703">
        <ele>1052.3000488281</ele>
        <time>2024-09-22T15:19:12.000Z</time>
      </trkpt>
      <trkpt lat="42.74864" lon="19.5871">
        <ele>1052.3000488281</ele>
        <time>2024-09-22T15:19:13.000Z</time>
      </trkpt>
      <trkpt lat="42.74864" lon="19.58721">
        <ele>1052.3000488281</ele>
        <time>2024-09-22T15:19:14.000Z</time>
      </trkpt>
      <trkpt lat="42.74861" lon="19.5873">
        <ele>1052.3000488281</ele>
        <time>2024-09-22T15:19:15.000Z</time>
      </trkpt>
      <trkpt lat="42.74855" lon="19.58736">
        <ele>1052.3000488281</ele>
        <time>2024-09-22T15:19:16.000Z</time>
      </trkpt>
      <trkpt lat="42.74846" lon="19.5874">
        <ele>1051.8199462891</ele>
        <time>2024-09-22T15:19:17.000Z</time>
      </trkpt>
      <trkpt lat="42.74836" lon="19.58745">
        <ele>1052.7800292969</ele>
        <time>2024-09-22T15:19:18.000Z</time>
      </trkpt>
      <trkpt lat="42.7483" lon="19.5875">
        <ele>1053.2600097656</ele>
        <time>2024-09-22T15:19:19.000Z</time>
      </trkpt>
      <trkpt lat="42.74826" lon="19.58756">
        <ele>1053.7399902344</ele>
        <time>2024-09-22T15:19:20.000Z</time>
      </trkpt>
      <trkpt lat="42.74824" lon="19.58763">
        <ele>1053.7399902344</ele>
        <time>2024-09-22T15:19:21.000Z</time>
      </trkpt>
      <trkpt lat="42.74823" lon="19.58773">
        <ele>1053.2600097656</ele>
        <time>2024-09-22T15:19:22.000Z</time>
      </trkpt>
      <trkpt lat="42.74823" lon="19.5878">
        <ele>1053.2600097656</ele>
        <time>2024-09-22T15:19:23.000Z</time>
      </trkpt>
      <trkpt lat="42.74824" lon="19.58789">
        <ele>1053.7399902344</ele>
        <time>2024-09-22T15:19:24.000Z</time>
      </trkpt>
      <trkpt lat="42.74825" lon="19.58796">
        <ele>1054.2199707031</ele>
        <time>2024-09-22T15:19:25.000Z</time>
      </trkpt>
      <trkpt lat="42.74828" lon="19.58802">
        <ele>1054.2199707031</ele>
        <time>2024-09-22T15:19:26.000Z</time>
      </trkpt>
      <trkpt lat="42.74831" lon="19.58808">
        <ele>1054.2199707031</ele>
        <time>2024-09-22T15:19:27.000Z</time>
      </trkpt>
      <trkpt lat="42.74846" lon="19.58837">
        <ele>1053.7399902344</ele>
        <time>2024-09-22T15:19:34.000Z</time>
      </trkpt>
      <trkpt lat="42.74845" lon="19.58841">
        <ele>1053.2600097656</ele>
        <time>2024-09-22T15:19:35.000Z</time>
      </trkpt>
      <trkpt lat="42.74844" lon="19.58847">
        <ele>1053.2600097656</ele>
        <time>2024-09-22T15:19:36.000Z</time>
      </trkpt>
      <trkpt lat="42.74842" lon="19.58853">
        <ele>1053.2600097656</ele>
        <time>2024-09-22T15:19:37.000Z</time>
      </trkpt>
      <trkpt lat="42.7484" lon="19.58858">
        <ele>1053.2600097656</ele>
        <time>2024-09-22T15:19:38.000Z</time>
      </trkpt>
      <trkpt lat="42.74838" lon="19.58863">
        <ele>1053.2600097656</ele>
        <time>2024-09-22T15:19:39.000Z</time>
      </trkpt>
      <trkpt lat="42.74837" lon="19.58868">
        <ele>1053.2600097656</ele>
        <time>2024-09-22T15:19:40.000Z</time>
      </trkpt>
      <trkpt lat="42.74835" lon="19.58875">
        <ele>1053.2600097656</ele>
        <time>2024-09-22T15:19:41.000Z</time>
      </trkpt>
      <trkpt lat="42.74834" lon="19.58882">
        <ele>1053.7399902344</ele>
        <time>2024-09-22T15:19:42.000Z</time>
      </trkpt>
      <trkpt lat="42.74833" lon="19.58885">
        <ele>1053.7399902344</ele>
        <time>2024-09-22T15:19:43.000Z</time>
      </trkpt>
      <trkpt lat="42.74831" lon="19.58892">
        <ele>1053.7399902344</ele>
        <time>2024-09-22T15:19:44.000Z</time>
      </trkpt>
      <trkpt lat="42.7483" lon="19.58897">
        <ele>1053.7399902344</ele>
        <time>2024-09-22T15:19:45.000Z</time>
      </trkpt>
      <trkpt lat="42.74827" lon="19.58906">
        <ele>1053.2600097656</ele>
        <time>2024-09-22T15:19:46.000Z</time>
      </trkpt>
      <trkpt lat="42.74824" lon="19.58911">
        <ele>1053.7399902344</ele>
        <time>2024-09-22T15:19:47.000Z</time>
      </trkpt>
      <trkpt lat="42.74823" lon="19.58912">
        <ele>1053.7399902344</ele>
        <time>2024-09-22T15:19:48.000Z</time>
      </trkpt>
      <trkpt lat="42.74819" lon="19.58921">
        <ele>1053.7399902344</ele>
        <time>2024-09-22T15:19:49.000Z</time>
      </trkpt>
      <trkpt lat="42.74819" lon="19.58922">
        <ele>1053.7399902344</ele>
        <time>2024-09-22T15:19:50.000Z</time>
      </trkpt>
      <trkpt lat="42.74815" lon="19.58932">
        <ele>1054.2199707031</ele>
        <time>2024-09-22T15:19:52.000Z</time>
      </trkpt>
      <trkpt lat="42.74812" lon="19.58939">
        <ele>1054.2199707031</ele>
        <time>2024-09-22T15:19:53.000Z</time>
      </trkpt>
      <trkpt lat="42.7481" lon="19.58943">
        <ele>1054.2199707031</ele>
        <time>2024-09-22T15:19:54.000Z</time>
      </trkpt>
      <trkpt lat="42.74807" lon="19.58949">
        <ele>1054.6999511719</ele>
        <time>2024-09-22T15:19:55.000Z</time>
      </trkpt>
      <trkpt lat="42.74804" lon="19.58954">
        <ele>1054.6999511719</ele>
        <time>2024-09-22T15:19:56.000Z</time>
      </trkpt>
      <trkpt lat="42.74789" lon="19.58975">
        <ele>1055.1800537109</ele>
        <time>2024-09-22T15:19:59.000Z</time>
      </trkpt>
      <trkpt lat="42.74788" lon="19.58976">
        <ele>1055.6700439453</ele>
        <time>2024-09-22T15:20:00.000Z</time>
      </trkpt>
      <trkpt lat="42.74784" lon="19.58982">
        <ele>1056.1500244141</ele>
        <time>2024-09-22T15:20:01.000Z</time>
      </trkpt>
      <trkpt lat="42.74776" lon="19.58992">
        <ele>1056.6300048828</ele>
        <time>2024-09-22T15:20:03.000Z</time>
      </trkpt>
      <trkpt lat="42.74772" lon="19.58999">
        <ele>1057.1099853516</ele>
        <time>2024-09-22T15:20:04.000Z</time>
      </trkpt>
      <trkpt lat="42.74767" lon="19.59006">
        <ele>1057.1099853516</ele>
        <time>2024-09-22T15:20:05.000Z</time>
      </trkpt>
      <trkpt lat="42.74763" lon="19.59012">
        <ele>1057.5899658203</ele>
        <time>2024-09-22T15:20:06.000Z</time>
      </trkpt>
      <trkpt lat="42.74759" lon="19.59018">
        <ele>1057.5899658203</ele>
        <time>2024-09-22T15:20:07.000Z</time>
      </trkpt>
      <trkpt lat="42.74755" lon="19.59027">
        <ele>1057.5899658203</ele>
        <time>2024-09-22T15:20:08.000Z</time>
      </trkpt>
      <trkpt lat="42.74741" lon="19.59056">
        <ele>1057.5899658203</ele>
        <time>2024-09-22T15:20:11.000Z</time>
      </trkpt>
      <trkpt lat="42.74732" lon="19.59081">
        <ele>1057.5899658203</ele>
        <time>2024-09-22T15:20:13.000Z</time>
      </trkpt>
      <trkpt lat="42.74729" lon="19.59089">
        <ele>1057.5899658203</ele>
        <time>2024-09-22T15:20:14.000Z</time>
      </trkpt>
      <trkpt lat="42.74719" lon="19.59108">
        <ele>1058.0699462891</ele>
        <time>2024-09-22T15:20:15.000Z</time>
      </trkpt>
      <trkpt lat="42.74718" lon="19.5911">
        <ele>1058.0699462891</ele>
        <time>2024-09-22T15:20:16.000Z</time>
      </trkpt>
      <trkpt lat="42.74714" lon="19.59122">
        <ele>1058.5500488281</ele>
        <time>2024-09-22T15:20:17.000Z</time>
      </trkpt>
      <trkpt lat="42.74708" lon="19.59142">
        <ele>1058.5500488281</ele>
        <time>2024-09-22T15:20:18.000Z</time>
      </trkpt>
      <trkpt lat="42.74705" lon="19.59151">
        <ele>1058.5500488281</ele>
        <time>2024-09-22T15:20:19.000Z</time>
      </trkpt>
      <trkpt lat="42.74702" lon="19.59171">
        <ele>1058.5500488281</ele>
        <time>2024-09-22T15:20:20.000Z</time>
      </trkpt>
      <trkpt lat="42.74701" lon="19.59185">
        <ele>1058.5500488281</ele>
        <time>2024-09-22T15:20:21.000Z</time>
      </trkpt>
      <trkpt lat="42.74701" lon="19.59207">
        <ele>1058.5500488281</ele>
        <time>2024-09-22T15:20:22.000Z</time>
      </trkpt>
      <trkpt lat="42.74703" lon="19.59222">
        <ele>1058.5500488281</ele>
        <time>2024-09-22T15:20:23.000Z</time>
      </trkpt>
      <trkpt lat="42.74709" lon="19.59288">
        <ele>1058.5500488281</ele>
        <time>2024-09-22T15:20:26.000Z</time>
      </trkpt>
      <trkpt lat="42.74711" lon="19.59298">
        <ele>1058.5500488281</ele>
        <time>2024-09-22T15:20:27.000Z</time>
      </trkpt>
      <trkpt lat="42.74715" lon="19.59314">
        <ele>1058.5500488281</ele>
        <time>2024-09-22T15:20:28.000Z</time>
      </trkpt>
      <trkpt lat="42.74722" lon="19.59329">
        <ele>1059.0300292969</ele>
        <time>2024-09-22T15:20:29.000Z</time>
      </trkpt>
      <trkpt lat="42.74737" lon="19.5935">
        <ele>1058.5500488281</ele>
        <time>2024-09-22T15:20:30.000Z</time>
      </trkpt>
      <trkpt lat="42.74739" lon="19.59354">
        <ele>1058.5500488281</ele>
        <time>2024-09-22T15:20:31.000Z</time>
      </trkpt>
      <trkpt lat="42.74747" lon="19.59368">
        <ele>1059.0300292969</ele>
        <time>2024-09-22T15:20:32.000Z</time>
      </trkpt>
      <trkpt lat="42.7476" lon="19.59405">
        <ele>1059.0300292969</ele>
        <time>2024-09-22T15:20:34.000Z</time>
      </trkpt>
      <trkpt lat="42.74764" lon="19.59415">
        <ele>1059.0300292969</ele>
        <time>2024-09-22T15:20:35.000Z</time>
      </trkpt>
      <trkpt lat="42.7477" lon="19.59427">
        <ele>1058.5500488281</ele>
        <time>2024-09-22T15:20:36.000Z</time>
      </trkpt>
      <trkpt lat="42.74777" lon="19.59437">
        <ele>1059.5100097656</ele>
        <time>2024-09-22T15:20:37.000Z</time>
      </trkpt>
      <trkpt lat="42.74785" lon="19.59444">
        <ele>1059.0300292969</ele>
        <time>2024-09-22T15:20:38.000Z</time>
      </trkpt>
      <trkpt lat="42.74796" lon="19.59451">
        <ele>1059.0300292969</ele>
        <time>2024-09-22T15:20:39.000Z</time>
      </trkpt>
      <trkpt lat="42.74805" lon="19.59459">
        <ele>1058.5500488281</ele>
        <time>2024-09-22T15:20:40.000Z</time>
      </trkpt>
      <trkpt lat="42.74814" lon="19.59471">
        <ele>1058.5500488281</ele>
        <time>2024-09-22T15:20:41.000Z</time>
      </trkpt>
      <trkpt lat="42.7482" lon="19.59484">
        <ele>1058.0699462891</ele>
        <time>2024-09-22T15:20:42.000Z</time>
      </trkpt>
      <trkpt lat="42.74826" lon="19.595">
        <ele>1058.0699462891</ele>
        <time>2024-09-22T15:20:43.000Z</time>
      </trkpt>
      <trkpt lat="42.74831" lon="19.59519">
        <ele>1057.5899658203</ele>
        <time>2024-09-22T15:20:44.000Z</time>
      </trkpt>
      <trkpt lat="42.74839" lon="19.59566">
        <ele>1056.6300048828</ele>
        <time>2024-09-22T15:20:46.000Z</time>
      </trkpt>
      <trkpt lat="42.74843" lon="19.59596">
        <ele>1056.1500244141</ele>
        <time>2024-09-22T15:20:47.000Z</time>
      </trkpt>
      <trkpt lat="42.74845" lon="19.59608">
        <ele>1055.6700439453</ele>
        <time>2024-09-22T15:20:48.000Z</time>
      </trkpt>
      <trkpt lat="42.74847" lon="19.59655">
        <ele>1055.1800537109</ele>
        <time>2024-09-22T15:20:50.000Z</time>
      </trkpt>
      <trkpt lat="42.74849" lon="19.59674">
        <ele>1055.1800537109</ele>
        <time>2024-09-22T15:20:51.000Z</time>
      </trkpt>
      <trkpt lat="42.74856" lon="19.5971">
        <ele>1055.1800537109</ele>
        <time>2024-09-22T15:20:53.000Z</time>
      </trkpt>
      <trkpt lat="42.7486" lon="19.59724">
        <ele>1055.1800537109</ele>
        <time>2024-09-22T15:20:54.000Z</time>
      </trkpt>
      <trkpt lat="42.74869" lon="19.5975">
        <ele>1054.6999511719</ele>
        <time>2024-09-22T15:20:55.000Z</time>
      </trkpt>
      <trkpt lat="42.7487" lon="19.59753">
        <ele>1054.6999511719</ele>
        <time>2024-09-22T15:20:56.000Z</time>
      </trkpt>
      <trkpt lat="42.74875" lon="19.5977">
        <ele>1055.1800537109</ele>
        <time>2024-09-22T15:20:57.000Z</time>
      </trkpt>
      <trkpt lat="42.74878" lon="19.59781">
        <ele>1055.1800537109</ele>
        <time>2024-09-22T15:20:58.000Z</time>
      </trkpt>
      <trkpt lat="42.74883" lon="19.598">
        <ele>1055.1800537109</ele>
        <time>2024-09-22T15:20:59.000Z</time>
      </trkpt>
      <trkpt lat="42.749" lon="19.59877">
        <ele>1056.1500244141</ele>
        <time>2024-09-22T15:21:03.000Z</time>
      </trkpt>
      <trkpt lat="42.74902" lon="19.59887">
        <ele>1055.6700439453</ele>
        <time>2024-09-22T15:21:04.000Z</time>
      </trkpt>
      <trkpt lat="42.74909" lon="19.59902">
        <ele>1055.6700439453</ele>
        <time>2024-09-22T15:21:05.000Z</time>
      </trkpt>
      <trkpt lat="42.74922" lon="19.59921">
        <ele>1056.1500244141</ele>
        <time>2024-09-22T15:21:06.000Z</time>
      </trkpt>
      <trkpt lat="42.74928" lon="19.59931">
        <ele>1055.6700439453</ele>
        <time>2024-09-22T15:21:07.000Z</time>
      </trkpt>
      <trkpt lat="42.74936" lon="19.59948">
        <ele>1055.6700439453</ele>
        <time>2024-09-22T15:21:08.000Z</time>
      </trkpt>
      <trkpt lat="42.74943" lon="19.59967">
        <ele>1056.6300048828</ele>
        <time>2024-09-22T15:21:09.000Z</time>
      </trkpt>
      <trkpt lat="42.74948" lon="19.59981">
        <ele>1056.6300048828</ele>
        <time>2024-09-22T15:21:10.000Z</time>
      </trkpt>
      <trkpt lat="42.74951" lon="19.6">
        <ele>1057.5899658203</ele>
        <time>2024-09-22T15:21:11.000Z</time>
      </trkpt>
      <trkpt lat="42.74952" lon="19.60021">
        <ele>1058.5500488281</ele>
        <time>2024-09-22T15:21:12.000Z</time>
      </trkpt>
      <trkpt lat="42.74951" lon="19.60039">
        <ele>1059.0300292969</ele>
        <time>2024-09-22T15:21:13.000Z</time>
      </trkpt>
      <trkpt lat="42.74948" lon="19.60101">
        <ele>1061.9100341797</ele>
        <time>2024-09-22T15:21:16.000Z</time>
      </trkpt>
      <trkpt lat="42.74946" lon="19.60116">
        <ele>1064.3199462891</ele>
        <time>2024-09-22T15:21:17.000Z</time>
      </trkpt>
      <trkpt lat="42.74941" lon="19.60131">
        <ele>1064.8000488281</ele>
        <time>2024-09-22T15:21:18.000Z</time>
      </trkpt>
      <trkpt lat="42.74926" lon="19.60157">
        <ele>1066.2399902344</ele>
        <time>2024-09-22T15:21:19.000Z</time>
      </trkpt>
      <trkpt lat="42.74924" lon="19.60159">
        <ele>1066.2399902344</ele>
        <time>2024-09-22T15:21:20.000Z</time>
      </trkpt>
      <trkpt lat="42.74913" lon="19.60176">
        <ele>1068.6400146484</ele>
        <time>2024-09-22T15:21:21.000Z</time>
      </trkpt>
      <trkpt lat="42.74911" lon="19.60181">
        <ele>1070.0799560547</ele>
        <time>2024-09-22T15:21:22.000Z</time>
      </trkpt>
      <trkpt lat="42.74907" lon="19.6019">
        <ele>1069.1199951172</ele>
        <time>2024-09-22T15:21:23.000Z</time>
      </trkpt>
      <trkpt lat="42.74908" lon="19.60202">
        <ele>1069.5999755859</ele>
        <time>2024-09-22T15:21:24.000Z</time>
      </trkpt>
      <trkpt lat="42.74911" lon="19.60222">
        <ele>1070.5699462891</ele>
        <time>2024-09-22T15:21:25.000Z</time>
      </trkpt>
      <trkpt lat="42.74911" lon="19.60232">
        <ele>1071.5300292969</ele>
        <time>2024-09-22T15:21:26.000Z</time>
      </trkpt>
      <trkpt lat="42.74912" lon="19.60248">
        <ele>1072.0100097656</ele>
        <time>2024-09-22T15:21:27.000Z</time>
      </trkpt>
      <trkpt lat="42.74911" lon="19.60277">
        <ele>1072.9699707031</ele>
        <time>2024-09-22T15:21:28.000Z</time>
      </trkpt>
      <trkpt lat="42.74912" lon="19.60289">
        <ele>1073.4499511719</ele>
        <time>2024-09-22T15:21:29.000Z</time>
      </trkpt>
      <trkpt lat="42.74913" lon="19.60301">
        <ele>1074.4100341797</ele>
        <time>2024-09-22T15:21:30.000Z</time>
      </trkpt>
      <trkpt lat="42.74918" lon="19.60317">
        <ele>1075.3699951172</ele>
        <time>2024-09-22T15:21:31.000Z</time>
      </trkpt>
      <trkpt lat="42.74928" lon="19.60332">
        <ele>1078.7399902344</ele>
        <time>2024-09-22T15:21:32.000Z</time>
      </trkpt>
      <trkpt lat="42.7494" lon="19.60344">
        <ele>1080.6600341797</ele>
        <time>2024-09-22T15:21:33.000Z</time>
      </trkpt>
      <trkpt lat="42.74958" lon="19.60361">
        <ele>1082.5799560547</ele>
        <time>2024-09-22T15:21:34.000Z</time>
      </trkpt>
      <trkpt lat="42.74968" lon="19.6037">
        <ele>1084.0200195312</ele>
        <time>2024-09-22T15:21:35.000Z</time>
      </trkpt>
      <trkpt lat="42.74981" lon="19.60381">
        <ele>1084.5</ele>
        <time>2024-09-22T15:21:36.000Z</time>
      </trkpt>
      <trkpt lat="42.74994" lon="19.60392">
        <ele>1084.9899902344</ele>
        <time>2024-09-22T15:21:37.000Z</time>
      </trkpt>
      <trkpt lat="42.75004" lon="19.604">
        <ele>1085.9499511719</ele>
        <time>2024-09-22T15:21:38.000Z</time>
      </trkpt>
      <trkpt lat="42.75018" lon="19.60409">
        <ele>1086.9100341797</ele>
        <time>2024-09-22T15:21:39.000Z</time>
      </trkpt>
      <trkpt lat="42.75025" lon="19.60414">
        <ele>1087.8699951172</ele>
        <time>2024-09-22T15:21:40.000Z</time>
      </trkpt>
      <trkpt lat="42.75027" lon="19.60415">
        <ele>1087.8699951172</ele>
        <time>2024-09-22T15:21:41.000Z</time>
      </trkpt>
      <trkpt lat="42.75031" lon="19.60421">
        <ele>1088.8299560547</ele>
        <time>2024-09-22T15:21:42.000Z</time>
      </trkpt>
      <trkpt lat="42.75034" lon="19.60428">
        <ele>1088.8299560547</ele>
        <time>2024-09-22T15:21:43.000Z</time>
      </trkpt>
      <trkpt lat="42.75038" lon="19.60439">
        <ele>1088.8299560547</ele>
        <time>2024-09-22T15:21:44.000Z</time>
      </trkpt>
      <trkpt lat="42.7504" lon="19.6045">
        <ele>1088.8299560547</ele>
        <time>2024-09-22T15:21:45.000Z</time>
      </trkpt>
      <trkpt lat="42.75042" lon="19.60465">
        <ele>1087.8699951172</ele>
        <time>2024-09-22T15:21:46.000Z</time>
      </trkpt>
      <trkpt lat="42.75041" lon="19.60493">
        <ele>1088.3499755859</ele>
        <time>2024-09-22T15:21:47.000Z</time>
      </trkpt>
      <trkpt lat="42.7504" lon="19.60512">
        <ele>1089.3100585938</ele>
        <time>2024-09-22T15:21:48.000Z</time>
      </trkpt>
      <trkpt lat="42.7504" lon="19.60542">
        <ele>1089.7900390625</ele>
        <time>2024-09-22T15:21:50.000Z</time>
      </trkpt>
      <trkpt lat="42.7504" lon="19.60556">
        <ele>1090.2700195312</ele>
        <time>2024-09-22T15:21:51.000Z</time>
      </trkpt>
      <trkpt lat="42.75042" lon="19.60574">
        <ele>1091.2299804688</ele>
        <time>2024-09-22T15:21:52.000Z</time>
      </trkpt>
      <trkpt lat="42.75044" lon="19.60592">
        <ele>1091.7099609375</ele>
        <time>2024-09-22T15:21:53.000Z</time>
      </trkpt>
      <trkpt lat="42.75048" lon="19.60619">
        <ele>1091.7099609375</ele>
        <time>2024-09-22T15:21:54.000Z</time>
      </trkpt>
      <trkpt lat="42.75048" lon="19.60624">
        <ele>1091.7099609375</ele>
        <time>2024-09-22T15:21:55.000Z</time>
      </trkpt>
      <trkpt lat="42.75047" lon="19.60636">
        <ele>1091.2299804688</ele>
        <time>2024-09-22T15:21:56.000Z</time>
      </trkpt>
      <trkpt lat="42.75043" lon="19.60647">
        <ele>1090.75</ele>
        <time>2024-09-22T15:21:57.000Z</time>
      </trkpt>
      <trkpt lat="42.75038" lon="19.60656">
        <ele>1090.75</ele>
        <time>2024-09-22T15:21:58.000Z</time>
      </trkpt>
      <trkpt lat="42.75032" lon="19.60664">
        <ele>1090.2700195312</ele>
        <time>2024-09-22T15:21:59.000Z</time>
      </trkpt>
      <trkpt lat="42.75026" lon="19.60673">
        <ele>1089.7900390625</ele>
        <time>2024-09-22T15:22:00.000Z</time>
      </trkpt>
      <trkpt lat="42.75023" lon="19.60682">
        <ele>1089.3100585938</ele>
        <time>2024-09-22T15:22:01.000Z</time>
      </trkpt>
      <trkpt lat="42.75021" lon="19.60693">
        <ele>1088.8299560547</ele>
        <time>2024-09-22T15:22:02.000Z</time>
      </trkpt>
      <trkpt lat="42.75022" lon="19.60704">
        <ele>1088.3499755859</ele>
        <time>2024-09-22T15:22:03.000Z</time>
      </trkpt>
      <trkpt lat="42.75025" lon="19.60714">
        <ele>1088.8299560547</ele>
        <time>2024-09-22T15:22:04.000Z</time>
      </trkpt>
      <trkpt lat="42.7503" lon="19.60726">
        <ele>1088.8299560547</ele>
        <time>2024-09-22T15:22:05.000Z</time>
      </trkpt>
      <trkpt lat="42.75032" lon="19.60737">
        <ele>1088.8299560547</ele>
        <time>2024-09-22T15:22:06.000Z</time>
      </trkpt>
      <trkpt lat="42.75031" lon="19.60749">
        <ele>1088.8299560547</ele>
        <time>2024-09-22T15:22:07.000Z</time>
      </trkpt>
      <trkpt lat="42.75028" lon="19.60759">
        <ele>1088.3499755859</ele>
        <time>2024-09-22T15:22:08.000Z</time>
      </trkpt>
      <trkpt lat="42.75021" lon="19.60769">
        <ele>1087.3900146484</ele>
        <time>2024-09-22T15:22:09.000Z</time>
      </trkpt>
      <trkpt lat="42.75015" lon="19.60777">
        <ele>1086.9100341797</ele>
        <time>2024-09-22T15:22:10.000Z</time>
      </trkpt>
      <trkpt lat="42.75009" lon="19.60784">
        <ele>1086.9100341797</ele>
        <time>2024-09-22T15:22:11.000Z</time>
      </trkpt>
      <trkpt lat="42.75" lon="19.6079">
        <ele>1086.4300537109</ele>
        <time>2024-09-22T15:22:12.000Z</time>
      </trkpt>
      <trkpt lat="42.74994" lon="19.60795">
        <ele>1085.4699707031</ele>
        <time>2024-09-22T15:22:13.000Z</time>
      </trkpt>
      <trkpt lat="42.74989" lon="19.60803">
        <ele>1085.4699707031</ele>
        <time>2024-09-22T15:22:14.000Z</time>
      </trkpt>
      <trkpt lat="42.74984" lon="19.60814">
        <ele>1084.9899902344</ele>
        <time>2024-09-22T15:22:15.000Z</time>
      </trkpt>
      <trkpt lat="42.74979" lon="19.60829">
        <ele>1085.4699707031</ele>
        <time>2024-09-22T15:22:16.000Z</time>
      </trkpt>
      <trkpt lat="42.74977" lon="19.60838">
        <ele>1085.4699707031</ele>
        <time>2024-09-22T15:22:17.000Z</time>
      </trkpt>
      <trkpt lat="42.74974" lon="19.60849">
        <ele>1084.9899902344</ele>
        <time>2024-09-22T15:22:18.000Z</time>
      </trkpt>
      <trkpt lat="42.7497" lon="19.60861">
        <ele>1084.9899902344</ele>
        <time>2024-09-22T15:22:19.000Z</time>
      </trkpt>
      <trkpt lat="42.74966" lon="19.60869">
        <ele>1085.4699707031</ele>
        <time>2024-09-22T15:22:20.000Z</time>
      </trkpt>
      <trkpt lat="42.74954" lon="19.60897">
        <ele>1085.9499511719</ele>
        <time>2024-09-22T15:22:22.000Z</time>
      </trkpt>
      <trkpt lat="42.74951" lon="19.60905">
        <ele>1086.4300537109</ele>
        <time>2024-09-22T15:22:23.000Z</time>
      </trkpt>
      <trkpt lat="42.74947" lon="19.6092">
        <ele>1085.9499511719</ele>
        <time>2024-09-22T15:22:24.000Z</time>
      </trkpt>
      <trkpt lat="42.74944" lon="19.60946">
        <ele>1085.9499511719</ele>
        <time>2024-09-22T15:22:25.000Z</time>
      </trkpt>
      <trkpt lat="42.74942" lon="19.60951">
        <ele>1085.9499511719</ele>
        <time>2024-09-22T15:22:26.000Z</time>
      </trkpt>
      <trkpt lat="42.74938" lon="19.60964">
        <ele>1086.4300537109</ele>
        <time>2024-09-22T15:22:27.000Z</time>
      </trkpt>
      <trkpt lat="42.74931" lon="19.60976">
        <ele>1086.4300537109</ele>
        <time>2024-09-22T15:22:28.000Z</time>
      </trkpt>
      <trkpt lat="42.74927" lon="19.60988">
        <ele>1086.9100341797</ele>
        <time>2024-09-22T15:22:29.000Z</time>
      </trkpt>
      <trkpt lat="42.74926" lon="19.61">
        <ele>1086.9100341797</ele>
        <time>2024-09-22T15:22:30.000Z</time>
      </trkpt>
      <trkpt lat="42.74929" lon="19.61015">
        <ele>1087.3900146484</ele>
        <time>2024-09-22T15:22:31.000Z</time>
      </trkpt>
      <trkpt lat="42.74935" lon="19.61031">
        <ele>1087.8699951172</ele>
        <time>2024-09-22T15:22:32.000Z</time>
      </trkpt>
      <trkpt lat="42.7494" lon="19.61046">
        <ele>1087.8699951172</ele>
        <time>2024-09-22T15:22:33.000Z</time>
      </trkpt>
      <trkpt lat="42.74941" lon="19.61057">
        <ele>1087.8699951172</ele>
        <time>2024-09-22T15:22:34.000Z</time>
      </trkpt>
      <trkpt lat="42.74942" lon="19.61072">
        <ele>1088.3499755859</ele>
        <time>2024-09-22T15:22:35.000Z</time>
      </trkpt>
      <trkpt lat="42.74942" lon="19.61084">
        <ele>1087.3900146484</ele>
        <time>2024-09-22T15:22:36.000Z</time>
      </trkpt>
      <trkpt lat="42.74939" lon="19.61097">
        <ele>1087.8699951172</ele>
        <time>2024-09-22T15:22:37.000Z</time>
      </trkpt>
      <trkpt lat="42.7493" lon="19.61118">
        <ele>1088.3499755859</ele>
        <time>2024-09-22T15:22:38.000Z</time>
      </trkpt>
      <trkpt lat="42.74926" lon="19.61129">
        <ele>1088.3499755859</ele>
        <time>2024-09-22T15:22:39.000Z</time>
      </trkpt>
      <trkpt lat="42.74919" lon="19.61144">
        <ele>1088.8299560547</ele>
        <time>2024-09-22T15:22:40.000Z</time>
      </trkpt>
      <trkpt lat="42.7491" lon="19.6116">
        <ele>1088.8299560547</ele>
        <time>2024-09-22T15:22:41.000Z</time>
      </trkpt>
      <trkpt lat="42.74903" lon="19.61176">
        <ele>1088.8299560547</ele>
        <time>2024-09-22T15:22:42.000Z</time>
      </trkpt>
      <trkpt lat="42.74898" lon="19.61194">
        <ele>1088.8299560547</ele>
        <time>2024-09-22T15:22:43.000Z</time>
      </trkpt>
      <trkpt lat="42.74894" lon="19.6122">
        <ele>1088.3499755859</ele>
        <time>2024-09-22T15:22:44.000Z</time>
      </trkpt>
      <trkpt lat="42.74893" lon="19.61233">
        <ele>1088.8299560547</ele>
        <time>2024-09-22T15:22:45.000Z</time>
      </trkpt>
      <trkpt lat="42.74892" lon="19.61249">
        <ele>1088.8299560547</ele>
        <time>2024-09-22T15:22:46.000Z</time>
      </trkpt>
      <trkpt lat="42.74894" lon="19.61268">
        <ele>1089.3100585938</ele>
        <time>2024-09-22T15:22:47.000Z</time>
      </trkpt>
      <trkpt lat="42.74898" lon="19.61285">
        <ele>1089.7900390625</ele>
        <time>2024-09-22T15:22:48.000Z</time>
      </trkpt>
      <trkpt lat="42.74901" lon="19.61299">
        <ele>1089.7900390625</ele>
        <time>2024-09-22T15:22:49.000Z</time>
      </trkpt>
      <trkpt lat="42.74902" lon="19.61312">
        <ele>1090.2700195312</ele>
        <time>2024-09-22T15:22:50.000Z</time>
      </trkpt>
      <trkpt lat="42.749" lon="19.61325">
        <ele>1090.75</ele>
        <time>2024-09-22T15:22:51.000Z</time>
      </trkpt>
      <trkpt lat="42.74892" lon="19.61345">
        <ele>1091.2299804688</ele>
        <time>2024-09-22T15:22:52.000Z</time>
      </trkpt>
      <trkpt lat="42.74889" lon="19.61355">
        <ele>1091.2299804688</ele>
        <time>2024-09-22T15:22:53.000Z</time>
      </trkpt>
      <trkpt lat="42.7488" lon="19.61394">
        <ele>1091.2299804688</ele>
        <time>2024-09-22T15:22:55.000Z</time>
      </trkpt>
      <trkpt lat="42.74876" lon="19.61423">
        <ele>1091.7099609375</ele>
        <time>2024-09-22T15:22:56.000Z</time>
      </trkpt>
      <trkpt lat="42.74875" lon="19.61429">
        <ele>1091.7099609375</ele>
        <time>2024-09-22T15:22:57.000Z</time>
      </trkpt>
      <trkpt lat="42.74871" lon="19.61442">
        <ele>1091.7099609375</ele>
        <time>2024-09-22T15:22:58.000Z</time>
      </trkpt>
      <trkpt lat="42.74865" lon="19.61455">
        <ele>1091.7099609375</ele>
        <time>2024-09-22T15:22:59.000Z</time>
      </trkpt>
      <trkpt lat="42.74847" lon="19.6148">
        <ele>1092.1999511719</ele>
        <time>2024-09-22T15:23:00.000Z</time>
      </trkpt>
      <trkpt lat="42.74839" lon="19.61492">
        <ele>1092.6800537109</ele>
        <time>2024-09-22T15:23:01.000Z</time>
      </trkpt>
      <trkpt lat="42.7483" lon="19.61506">
        <ele>1092.6800537109</ele>
        <time>2024-09-22T15:23:02.000Z</time>
      </trkpt>
      <trkpt lat="42.74826" lon="19.61513">
        <ele>1092.1999511719</ele>
        <time>2024-09-22T15:23:03.000Z</time>
      </trkpt>
      <trkpt lat="42.74819" lon="19.61524">
        <ele>1092.1999511719</ele>
        <time>2024-09-22T15:23:04.000Z</time>
      </trkpt>
      <trkpt lat="42.74814" lon="19.61536">
        <ele>1092.1999511719</ele>
        <time>2024-09-22T15:23:05.000Z</time>
      </trkpt>
      <trkpt lat="42.74812" lon="19.61548">
        <ele>1091.7099609375</ele>
        <time>2024-09-22T15:23:06.000Z</time>
      </trkpt>
      <trkpt lat="42.74814" lon="19.61559">
        <ele>1091.2299804688</ele>
        <time>2024-09-22T15:23:07.000Z</time>
      </trkpt>
      <trkpt lat="42.74821" lon="19.61572">
        <ele>1090.75</ele>
        <time>2024-09-22T15:23:08.000Z</time>
      </trkpt>
      <trkpt lat="42.74826" lon="19.61584">
        <ele>1090.2700195312</ele>
        <time>2024-09-22T15:23:09.000Z</time>
      </trkpt>
      <trkpt lat="42.74832" lon="19.61599">
        <ele>1089.7900390625</ele>
        <time>2024-09-22T15:23:10.000Z</time>
      </trkpt>
      <trkpt lat="42.74836" lon="19.61617">
        <ele>1089.3100585938</ele>
        <time>2024-09-22T15:23:11.000Z</time>
      </trkpt>
      <trkpt lat="42.74838" lon="19.61632">
        <ele>1088.8299560547</ele>
        <time>2024-09-22T15:23:12.000Z</time>
      </trkpt>
      <trkpt lat="42.74838" lon="19.61652">
        <ele>1088.3499755859</ele>
        <time>2024-09-22T15:23:13.000Z</time>
      </trkpt>
      <trkpt lat="42.74837" lon="19.61666">
        <ele>1088.3499755859</ele>
        <time>2024-09-22T15:23:14.000Z</time>
      </trkpt>
      <trkpt lat="42.74832" lon="19.61683">
        <ele>1087.8699951172</ele>
        <time>2024-09-22T15:23:15.000Z</time>
      </trkpt>
      <trkpt lat="42.74824" lon="19.61702">
        <ele>1087.3900146484</ele>
        <time>2024-09-22T15:23:16.000Z</time>
      </trkpt>
      <trkpt lat="42.74784" lon="19.61777">
        <ele>1085.9499511719</ele>
        <time>2024-09-22T15:23:20.000Z</time>
      </trkpt>
      <trkpt lat="42.74756" lon="19.61829">
        <ele>1085.9499511719</ele>
        <time>2024-09-22T15:23:22.000Z</time>
      </trkpt>
      <trkpt lat="42.74735" lon="19.61875">
        <ele>1087.3900146484</ele>
        <time>2024-09-22T15:23:24.000Z</time>
      </trkpt>
      <trkpt lat="42.74733" lon="19.61882">
        <ele>1087.3900146484</ele>
        <time>2024-09-22T15:23:25.000Z</time>
      </trkpt>
      <trkpt lat="42.74721" lon="19.61919">
        <ele>1087.3900146484</ele>
        <time>2024-09-22T15:23:26.000Z</time>
      </trkpt>
      <trkpt lat="42.74705" lon="19.61989">
        <ele>1087.8699951172</ele>
        <time>2024-09-22T15:23:29.000Z</time>
      </trkpt>
      <trkpt lat="42.74695" lon="19.62024">
        <ele>1088.3499755859</ele>
        <time>2024-09-22T15:23:31.000Z</time>
      </trkpt>
      <trkpt lat="42.74687" lon="19.6205">
        <ele>1088.8299560547</ele>
        <time>2024-09-22T15:23:32.000Z</time>
      </trkpt>
      <trkpt lat="42.74679" lon="19.62069">
        <ele>1089.3100585938</ele>
        <time>2024-09-22T15:23:33.000Z</time>
      </trkpt>
      <trkpt lat="42.74669" lon="19.62086">
        <ele>1089.7900390625</ele>
        <time>2024-09-22T15:23:34.000Z</time>
      </trkpt>
      <trkpt lat="42.7466" lon="19.62097">
        <ele>1090.2700195312</ele>
        <time>2024-09-22T15:23:35.000Z</time>
      </trkpt>
      <trkpt lat="42.74651" lon="19.62102">
        <ele>1090.75</ele>
        <time>2024-09-22T15:23:36.000Z</time>
      </trkpt>
      <trkpt lat="42.7464" lon="19.62103">
        <ele>1091.7099609375</ele>
        <time>2024-09-22T15:23:37.000Z</time>
      </trkpt>
      <trkpt lat="42.74628" lon="19.62105">
        <ele>1091.7099609375</ele>
        <time>2024-09-22T15:23:38.000Z</time>
      </trkpt>
      <trkpt lat="42.74616" lon="19.62108">
        <ele>1090.75</ele>
        <time>2024-09-22T15:23:39.000Z</time>
      </trkpt>
      <trkpt lat="42.74606" lon="19.62116">
        <ele>1091.2299804688</ele>
        <time>2024-09-22T15:23:40.000Z</time>
      </trkpt>
      <trkpt lat="42.74598" lon="19.62128">
        <ele>1091.7099609375</ele>
        <time>2024-09-22T15:23:41.000Z</time>
      </trkpt>
      <trkpt lat="42.74591" lon="19.62146">
        <ele>1092.6800537109</ele>
        <time>2024-09-22T15:23:42.000Z</time>
      </trkpt>
      <trkpt lat="42.74586" lon="19.62161">
        <ele>1093.1600341797</ele>
        <time>2024-09-22T15:23:43.000Z</time>
      </trkpt>
      <trkpt lat="42.74579" lon="19.62185">
        <ele>1095.0799560547</ele>
        <time>2024-09-22T15:23:44.000Z</time>
      </trkpt>
      <trkpt lat="42.74566" lon="19.62222">
        <ele>1096.5200195312</ele>
        <time>2024-09-22T15:23:46.000Z</time>
      </trkpt>
      <trkpt lat="42.74562" lon="19.62232">
        <ele>1097</ele>
        <time>2024-09-22T15:23:47.000Z</time>
      </trkpt>
      <trkpt lat="42.74555" lon="19.62245">
        <ele>1097.4799804688</ele>
        <time>2024-09-22T15:23:48.000Z</time>
      </trkpt>
      <trkpt lat="42.74545" lon="19.62255">
        <ele>1098.4399414062</ele>
        <time>2024-09-22T15:23:49.000Z</time>
      </trkpt>
      <trkpt lat="42.74522" lon="19.62268">
        <ele>1099.4000244141</ele>
        <time>2024-09-22T15:23:51.000Z</time>
      </trkpt>
      <trkpt lat="42.7451" lon="19.62275">
        <ele>1099.8900146484</ele>
        <time>2024-09-22T15:23:52.000Z</time>
      </trkpt>
      <trkpt lat="42.74502" lon="19.62284">
        <ele>1100.3699951172</ele>
        <time>2024-09-22T15:23:53.000Z</time>
      </trkpt>
      <trkpt lat="42.74496" lon="19.62297">
        <ele>1100.3699951172</ele>
        <time>2024-09-22T15:23:54.000Z</time>
      </trkpt>
      <trkpt lat="42.74492" lon="19.62311">
        <ele>1100.8499755859</ele>
        <time>2024-09-22T15:23:55.000Z</time>
      </trkpt>
      <trkpt lat="42.74492" lon="19.62327">
        <ele>1100.8499755859</ele>
        <time>2024-09-22T15:23:56.000Z</time>
      </trkpt>
      <trkpt lat="42.74494" lon="19.62342">
        <ele>1101.3299560547</ele>
        <time>2024-09-22T15:23:57.000Z</time>
      </trkpt>
      <trkpt lat="42.74499" lon="19.62357">
        <ele>1101.3299560547</ele>
        <time>2024-09-22T15:23:58.000Z</time>
      </trkpt>
      <trkpt lat="42.74506" lon="19.62374">
        <ele>1102.2900390625</ele>
        <time>2024-09-22T15:23:59.000Z</time>
      </trkpt>
      <trkpt lat="42.74511" lon="19.62388">
        <ele>1102.2900390625</ele>
        <time>2024-09-22T15:24:00.000Z</time>
      </trkpt>
      <trkpt lat="42.74514" lon="19.62397">
        <ele>1102.2900390625</ele>
        <time>2024-09-22T15:24:01.000Z</time>
      </trkpt>
      <trkpt lat="42.74515" lon="19.62408">
        <ele>1102.2900390625</ele>
        <time>2024-09-22T15:24:02.000Z</time>
      </trkpt>
      <trkpt lat="42.74512" lon="19.6242">
        <ele>1102.2900390625</ele>
        <time>2024-09-22T15:24:03.000Z</time>
      </trkpt>
      <trkpt lat="42.74506" lon="19.62433">
        <ele>1102.7700195312</ele>
        <time>2024-09-22T15:24:04.000Z</time>
      </trkpt>
      <trkpt lat="42.74497" lon="19.62451">
        <ele>1102.2900390625</ele>
        <time>2024-09-22T15:24:05.000Z</time>
      </trkpt>
      <trkpt lat="42.74488" lon="19.62468">
        <ele>1101.8100585938</ele>
        <time>2024-09-22T15:24:06.000Z</time>
      </trkpt>
      <trkpt lat="42.7448" lon="19.62482">
        <ele>1101.8100585938</ele>
        <time>2024-09-22T15:24:07.000Z</time>
      </trkpt>
      <trkpt lat="42.74472" lon="19.62501">
        <ele>1101.3299560547</ele>
        <time>2024-09-22T15:24:08.000Z</time>
      </trkpt>
      <trkpt lat="42.74466" lon="19.62518">
        <ele>1101.8100585938</ele>
        <time>2024-09-22T15:24:09.000Z</time>
      </trkpt>
      <trkpt lat="42.74457" lon="19.6255">
        <ele>1102.2900390625</ele>
        <time>2024-09-22T15:24:10.000Z</time>
      </trkpt>
      <trkpt lat="42.7445" lon="19.62576">
        <ele>1102.7700195312</ele>
        <time>2024-09-22T15:24:12.000Z</time>
      </trkpt>
      <trkpt lat="42.74439" lon="19.62613">
        <ele>1103.25</ele>
        <time>2024-09-22T15:24:14.000Z</time>
      </trkpt>
      <trkpt lat="42.74432" lon="19.6264">
        <ele>1103.7299804688</ele>
        <time>2024-09-22T15:24:15.000Z</time>
      </trkpt>
      <trkpt lat="42.74427" lon="19.62658">
        <ele>1103.7299804688</ele>
        <time>2024-09-22T15:24:16.000Z</time>
      </trkpt>
      <trkpt lat="42.74423" lon="19.62671">
        <ele>1103.7299804688</ele>
        <time>2024-09-22T15:24:17.000Z</time>
      </trkpt>
      <trkpt lat="42.74419" lon="19.6268">
        <ele>1103.7299804688</ele>
        <time>2024-09-22T15:24:18.000Z</time>
      </trkpt>
      <trkpt lat="42.74411" lon="19.62695">
        <ele>1104.6899414062</ele>
        <time>2024-09-22T15:24:19.000Z</time>
      </trkpt>
      <trkpt lat="42.74405" lon="19.62706">
        <ele>1105.1700439453</ele>
        <time>2024-09-22T15:24:20.000Z</time>
      </trkpt>
      <trkpt lat="42.744" lon="19.62718">
        <ele>1105.6500244141</ele>
        <time>2024-09-22T15:24:21.000Z</time>
      </trkpt>
      <trkpt lat="42.74397" lon="19.62732">
        <ele>1106.1300048828</ele>
        <time>2024-09-22T15:24:22.000Z</time>
      </trkpt>
      <trkpt lat="42.74394" lon="19.62753">
        <ele>1106.6099853516</ele>
        <time>2024-09-22T15:24:23.000Z</time>
      </trkpt>
      <trkpt lat="42.74393" lon="19.6276">
        <ele>1106.6099853516</ele>
        <time>2024-09-22T15:24:24.000Z</time>
      </trkpt>
      <trkpt lat="42.74389" lon="19.62773">
        <ele>1107.0999755859</ele>
        <time>2024-09-22T15:24:25.000Z</time>
      </trkpt>
      <trkpt lat="42.74376" lon="19.6281">
        <ele>1107.5799560547</ele>
        <time>2024-09-22T15:24:27.000Z</time>
      </trkpt>
      <trkpt lat="42.74374" lon="19.62816">
        <ele>1107.5799560547</ele>
        <time>2024-09-22T15:24:28.000Z</time>
      </trkpt>
      <trkpt lat="42.74365" lon="19.62836">
        <ele>1108.0600585938</ele>
        <time>2024-09-22T15:24:29.000Z</time>
      </trkpt>
      <trkpt lat="42.74359" lon="19.62848">
        <ele>1108.5400390625</ele>
        <time>2024-09-22T15:24:30.000Z</time>
      </trkpt>
      <trkpt lat="42.74353" lon="19.62862">
        <ele>1109.0200195312</ele>
        <time>2024-09-22T15:24:31.000Z</time>
      </trkpt>
      <trkpt lat="42.74348" lon="19.62878">
        <ele>1110.4599609375</ele>
        <time>2024-09-22T15:24:32.000Z</time>
      </trkpt>
      <trkpt lat="42.74346" lon="19.62894">
        <ele>1111.4200439453</ele>
        <time>2024-09-22T15:24:33.000Z</time>
      </trkpt>
      <trkpt lat="42.74346" lon="19.62922">
        <ele>1113.3399658203</ele>
        <time>2024-09-22T15:24:34.000Z</time>
      </trkpt>
      <trkpt lat="42.74346" lon="19.6293">
        <ele>1113.3399658203</ele>
        <time>2024-09-22T15:24:35.000Z</time>
      </trkpt>
      <trkpt lat="42.74345" lon="19.62947">
        <ele>1114.3100585938</ele>
        <time>2024-09-22T15:24:36.000Z</time>
      </trkpt>
      <trkpt lat="42.74341" lon="19.6296">
        <ele>1115.75</ele>
        <time>2024-09-22T15:24:37.000Z</time>
      </trkpt>
      <trkpt lat="42.74335" lon="19.62973">
        <ele>1116.7099609375</ele>
        <time>2024-09-22T15:24:38.000Z</time>
      </trkpt>
      <trkpt lat="42.74323" lon="19.62981">
        <ele>1118.1500244141</ele>
        <time>2024-09-22T15:24:39.000Z</time>
      </trkpt>
      <trkpt lat="42.74309" lon="19.62996">
        <ele>1119.5899658203</ele>
        <time>2024-09-22T15:24:40.000Z</time>
      </trkpt>
      <trkpt lat="42.743" lon="19.63005">
        <ele>1120.0699462891</ele>
        <time>2024-09-22T15:24:41.000Z</time>
      </trkpt>
      <trkpt lat="42.74288" lon="19.63016">
        <ele>1121.0300292969</ele>
        <time>2024-09-22T15:24:42.000Z</time>
      </trkpt>
      <trkpt lat="42.74276" lon="19.63025">
        <ele>1122.9599609375</ele>
        <time>2024-09-22T15:24:43.000Z</time>
      </trkpt>
      <trkpt lat="42.74264" lon="19.63033">
        <ele>1124.4000244141</ele>
        <time>2024-09-22T15:24:44.000Z</time>
      </trkpt>
      <trkpt lat="42.74258" lon="19.63038">
        <ele>1125.3599853516</ele>
        <time>2024-09-22T15:24:45.000Z</time>
      </trkpt>
      <trkpt lat="42.74244" lon="19.63056">
        <ele>1126.8000488281</ele>
        <time>2024-09-22T15:24:47.000Z</time>
      </trkpt>
      <trkpt lat="42.74239" lon="19.63062">
        <ele>1127.7600097656</ele>
        <time>2024-09-22T15:24:48.000Z</time>
      </trkpt>
      <trkpt lat="42.74236" lon="19.63071">
        <ele>1127.7600097656</ele>
        <time>2024-09-22T15:24:49.000Z</time>
      </trkpt>
      <trkpt lat="42.74235" lon="19.63081">
        <ele>1128.2399902344</ele>
        <time>2024-09-22T15:24:50.000Z</time>
      </trkpt>
      <trkpt lat="42.74238" lon="19.63091">
        <ele>1129.2099609375</ele>
        <time>2024-09-22T15:24:51.000Z</time>
      </trkpt>
      <trkpt lat="42.74243" lon="19.631">
        <ele>1130.1700439453</ele>
        <time>2024-09-22T15:24:52.000Z</time>
      </trkpt>
      <trkpt lat="42.74251" lon="19.6311">
        <ele>1131.1300048828</ele>
        <time>2024-09-22T15:24:53.000Z</time>
      </trkpt>
      <trkpt lat="42.74256" lon="19.63117">
        <ele>1131.6099853516</ele>
        <time>2024-09-22T15:24:54.000Z</time>
      </trkpt>
      <trkpt lat="42.74259" lon="19.63127">
        <ele>1132.0899658203</ele>
        <time>2024-09-22T15:24:55.000Z</time>
      </trkpt>
      <trkpt lat="42.7426" lon="19.6314">
        <ele>1131.6099853516</ele>
        <time>2024-09-22T15:24:56.000Z</time>
      </trkpt>
      <trkpt lat="42.74259" lon="19.63153">
        <ele>1131.6099853516</ele>
        <time>2024-09-22T15:24:57.000Z</time>
      </trkpt>
      <trkpt lat="42.74256" lon="19.63164">
        <ele>1131.6099853516</ele>
        <time>2024-09-22T15:24:58.000Z</time>
      </trkpt>
      <trkpt lat="42.7425" lon="19.63172">
        <ele>1132.0899658203</ele>
        <time>2024-09-22T15:24:59.000Z</time>
      </trkpt>
      <trkpt lat="42.74241" lon="19.63177">
        <ele>1132.0899658203</ele>
        <time>2024-09-22T15:25:00.000Z</time>
      </trkpt>
      <trkpt lat="42.74231" lon="19.63178">
        <ele>1132.5699462891</ele>
        <time>2024-09-22T15:25:01.000Z</time>
      </trkpt>
      <trkpt lat="42.742" lon="19.63173">
        <ele>1133.5300292969</ele>
        <time>2024-09-22T15:25:03.000Z</time>
      </trkpt>
      <trkpt lat="42.74187" lon="19.6317">
        <ele>1134.0100097656</ele>
        <time>2024-09-22T15:25:04.000Z</time>
      </trkpt>
      <trkpt lat="42.74183" lon="19.63169">
        <ele>1134.0100097656</ele>
        <time>2024-09-22T15:25:05.000Z</time>
      </trkpt>
      <trkpt lat="42.74175" lon="19.63169">
        <ele>1134.9699707031</ele>
        <time>2024-09-22T15:25:06.000Z</time>
      </trkpt>
      <trkpt lat="42.74169" lon="19.63173">
        <ele>1135.4499511719</ele>
        <time>2024-09-22T15:25:07.000Z</time>
      </trkpt>
      <trkpt lat="42.74163" lon="19.6318">
        <ele>1135.4499511719</ele>
        <time>2024-09-22T15:25:08.000Z</time>
      </trkpt>
      <trkpt lat="42.74158" lon="19.63188">
        <ele>1135.9399414062</ele>
        <time>2024-09-22T15:25:09.000Z</time>
      </trkpt>
      <trkpt lat="42.74151" lon="19.63205">
        <ele>1136.4200439453</ele>
        <time>2024-09-22T15:25:10.000Z</time>
      </trkpt>
      <trkpt lat="42.74147" lon="19.63215">
        <ele>1136.9000244141</ele>
        <time>2024-09-22T15:25:11.000Z</time>
      </trkpt>
      <trkpt lat="42.74132" lon="19.63269">
        <ele>1139.3000488281</ele>
        <time>2024-09-22T15:25:14.000Z</time>
      </trkpt>
      <trkpt lat="42.74128" lon="19.63284">
        <ele>1139.7800292969</ele>
        <time>2024-09-22T15:25:15.000Z</time>
      </trkpt>
      <trkpt lat="42.74121" lon="19.633">
        <ele>1141.2199707031</ele>
        <time>2024-09-22T15:25:16.000Z</time>
      </trkpt>
      <trkpt lat="42.74113" lon="19.63314">
        <ele>1142.1800537109</ele>
        <time>2024-09-22T15:25:17.000Z</time>
      </trkpt>
      <trkpt lat="42.74104" lon="19.63325">
        <ele>1143.1400146484</ele>
        <time>2024-09-22T15:25:18.000Z</time>
      </trkpt>
      <trkpt lat="42.74098" lon="19.63337">
        <ele>1144.1099853516</ele>
        <time>2024-09-22T15:25:19.000Z</time>
      </trkpt>
      <trkpt lat="42.74095" lon="19.63356">
        <ele>1144.5899658203</ele>
        <time>2024-09-22T15:25:20.000Z</time>
      </trkpt>
      <trkpt lat="42.74091" lon="19.63369">
        <ele>1145.0699462891</ele>
        <time>2024-09-22T15:25:21.000Z</time>
      </trkpt>
      <trkpt lat="42.7408" lon="19.63392">
        <ele>1146.9899902344</ele>
        <time>2024-09-22T15:25:22.000Z</time>
      </trkpt>
      <trkpt lat="42.7407" lon="19.63411">
        <ele>1147.4699707031</ele>
        <time>2024-09-22T15:25:23.000Z</time>
      </trkpt>
      <trkpt lat="42.74067" lon="19.63418">
        <ele>1147.9499511719</ele>
        <time>2024-09-22T15:25:24.000Z</time>
      </trkpt>
      <trkpt lat="42.7406" lon="19.63437">
        <ele>1148.9100341797</ele>
        <time>2024-09-22T15:25:25.000Z</time>
      </trkpt>
      <trkpt lat="42.74056" lon="19.63453">
        <ele>1149.8699951172</ele>
        <time>2024-09-22T15:25:26.000Z</time>
      </trkpt>
      <trkpt lat="42.74049" lon="19.6348">
        <ele>1151.3199462891</ele>
        <time>2024-09-22T15:25:27.000Z</time>
      </trkpt>
      <trkpt lat="42.74047" lon="19.63492">
        <ele>1152.2800292969</ele>
        <time>2024-09-22T15:25:28.000Z</time>
      </trkpt>
      <trkpt lat="42.74046" lon="19.63499">
        <ele>1152.7600097656</ele>
        <time>2024-09-22T15:25:29.000Z</time>
      </trkpt>
      <trkpt lat="42.74048" lon="19.63511">
        <ele>1153.7199707031</ele>
        <time>2024-09-22T15:25:30.000Z</time>
      </trkpt>
      <trkpt lat="42.74052" lon="19.63523">
        <ele>1154.1999511719</ele>
        <time>2024-09-22T15:25:31.000Z</time>
      </trkpt>
      <trkpt lat="42.74055" lon="19.63534">
        <ele>1154.6800537109</ele>
        <time>2024-09-22T15:25:32.000Z</time>
      </trkpt>
      <trkpt lat="42.74055" lon="19.63544">
        <ele>1154.6800537109</ele>
        <time>2024-09-22T15:25:33.000Z</time>
      </trkpt>
      <trkpt lat="42.74052" lon="19.63553">
        <ele>1155.1600341797</ele>
        <time>2024-09-22T15:25:34.000Z</time>
      </trkpt>
      <trkpt lat="42.74044" lon="19.63565">
        <ele>1155.6400146484</ele>
        <time>2024-09-22T15:25:35.000Z</time>
      </trkpt>
      <trkpt lat="42.74035" lon="19.63583">
        <ele>1156.5999755859</ele>
        <time>2024-09-22T15:25:36.000Z</time>
      </trkpt>
      <trkpt lat="42.74028" lon="19.63599">
        <ele>1157.0799560547</ele>
        <time>2024-09-22T15:25:37.000Z</time>
      </trkpt>
      <trkpt lat="42.7402" lon="19.63623">
        <ele>1158.0500488281</ele>
        <time>2024-09-22T15:25:38.000Z</time>
      </trkpt>
      <trkpt lat="42.74007" lon="19.63668">
        <ele>1160.4499511719</ele>
        <time>2024-09-22T15:25:40.000Z</time>
      </trkpt>
      <trkpt lat="42.74002" lon="19.63682">
        <ele>1161.4100341797</ele>
        <time>2024-09-22T15:25:41.000Z</time>
      </trkpt>
      <trkpt lat="42.73994" lon="19.63697">
        <ele>1162.3699951172</ele>
        <time>2024-09-22T15:25:42.000Z</time>
      </trkpt>
      <trkpt lat="42.73986" lon="19.63712">
        <ele>1162.8499755859</ele>
        <time>2024-09-22T15:25:43.000Z</time>
      </trkpt>
      <trkpt lat="42.73981" lon="19.63727">
        <ele>1162.8499755859</ele>
        <time>2024-09-22T15:25:44.000Z</time>
      </trkpt>
      <trkpt lat="42.73978" lon="19.63745">
        <ele>1163.3299560547</ele>
        <time>2024-09-22T15:25:45.000Z</time>
      </trkpt>
      <trkpt lat="42.73973" lon="19.63764">
        <ele>1164.2900390625</ele>
        <time>2024-09-22T15:25:46.000Z</time>
      </trkpt>
      <trkpt lat="42.73965" lon="19.63782">
        <ele>1164.7700195312</ele>
        <time>2024-09-22T15:25:47.000Z</time>
      </trkpt>
      <trkpt lat="42.73954" lon="19.63797">
        <ele>1165.7399902344</ele>
        <time>2024-09-22T15:25:48.000Z</time>
      </trkpt>
      <trkpt lat="42.73941" lon="19.6381">
        <ele>1167.6600341797</ele>
        <time>2024-09-22T15:25:49.000Z</time>
      </trkpt>
      <trkpt lat="42.73934" lon="19.63819">
        <ele>1167.6600341797</ele>
        <time>2024-09-22T15:25:50.000Z</time>
      </trkpt>
      <trkpt lat="42.73927" lon="19.6383">
        <ele>1167.6600341797</ele>
        <time>2024-09-22T15:25:51.000Z</time>
      </trkpt>
      <trkpt lat="42.73925" lon="19.6384">
        <ele>1168.1400146484</ele>
        <time>2024-09-22T15:25:52.000Z</time>
      </trkpt>
      <trkpt lat="42.73927" lon="19.63852">
        <ele>1168.1400146484</ele>
        <time>2024-09-22T15:25:53.000Z</time>
      </trkpt>
      <trkpt lat="42.73932" lon="19.63864">
        <ele>1168.6199951172</ele>
        <time>2024-09-22T15:25:54.000Z</time>
      </trkpt>
      <trkpt lat="42.73942" lon="19.63879">
        <ele>1169.0999755859</ele>
        <time>2024-09-22T15:25:55.000Z</time>
      </trkpt>
      <trkpt lat="42.73949" lon="19.6389">
        <ele>1169.5799560547</ele>
        <time>2024-09-22T15:25:56.000Z</time>
      </trkpt>
      <trkpt lat="42.73959" lon="19.63913">
        <ele>1170.5400390625</ele>
        <time>2024-09-22T15:25:57.000Z</time>
      </trkpt>
      <trkpt lat="42.73972" lon="19.63947">
        <ele>1171.5</ele>
        <time>2024-09-22T15:25:59.000Z</time>
      </trkpt>
      <trkpt lat="42.73987" lon="19.63981">
        <ele>1172.4699707031</ele>
        <time>2024-09-22T15:26:01.000Z</time>
      </trkpt>
      <trkpt lat="42.73993" lon="19.63999">
        <ele>1173.4300537109</ele>
        <time>2024-09-22T15:26:02.000Z</time>
      </trkpt>
      <trkpt lat="42.73996" lon="19.64014">
        <ele>1173.9100341797</ele>
        <time>2024-09-22T15:26:03.000Z</time>
      </trkpt>
      <trkpt lat="42.73997" lon="19.64026">
        <ele>1173.9100341797</ele>
        <time>2024-09-22T15:26:04.000Z</time>
      </trkpt>
      <trkpt lat="42.73993" lon="19.64035">
        <ele>1173.4300537109</ele>
        <time>2024-09-22T15:26:05.000Z</time>
      </trkpt>
      <trkpt lat="42.73986" lon="19.64039">
        <ele>1173.9100341797</ele>
        <time>2024-09-22T15:26:06.000Z</time>
      </trkpt>
      <trkpt lat="42.73976" lon="19.64038">
        <ele>1174.8699951172</ele>
        <time>2024-09-22T15:26:07.000Z</time>
      </trkpt>
      <trkpt lat="42.73961" lon="19.64028">
        <ele>1173.9100341797</ele>
        <time>2024-09-22T15:26:08.000Z</time>
      </trkpt>
      <trkpt lat="42.73955" lon="19.64025">
        <ele>1173.9100341797</ele>
        <time>2024-09-22T15:26:09.000Z</time>
      </trkpt>
      <trkpt lat="42.73942" lon="19.64018">
        <ele>1173.9100341797</ele>
        <time>2024-09-22T15:26:10.000Z</time>
      </trkpt>
      <trkpt lat="42.73933" lon="19.64013">
        <ele>1174.3900146484</ele>
        <time>2024-09-22T15:26:11.000Z</time>
      </trkpt>
      <trkpt lat="42.73924" lon="19.64012">
        <ele>1174.3900146484</ele>
        <time>2024-09-22T15:26:12.000Z</time>
      </trkpt>
      <trkpt lat="42.73914" lon="19.64015">
        <ele>1175.8299560547</ele>
        <time>2024-09-22T15:26:13.000Z</time>
      </trkpt>
      <trkpt lat="42.73905" lon="19.64024">
        <ele>1176.7900390625</ele>
        <time>2024-09-22T15:26:14.000Z</time>
      </trkpt>
      <trkpt lat="42.73888" lon="19.64047">
        <ele>1178.2299804688</ele>
        <time>2024-09-22T15:26:15.000Z</time>
      </trkpt>
      <trkpt lat="42.73884" lon="19.6405">
        <ele>1178.7099609375</ele>
        <time>2024-09-22T15:26:16.000Z</time>
      </trkpt>
      <trkpt lat="42.73873" lon="19.64063">
        <ele>1179.6700439453</ele>
        <time>2024-09-22T15:26:17.000Z</time>
      </trkpt>
      <trkpt lat="42.73849" lon="19.64084">
        <ele>1182.0799560547</ele>
        <time>2024-09-22T15:26:19.000Z</time>
      </trkpt>
      <trkpt lat="42.73839" lon="19.64097">
        <ele>1182.5600585938</ele>
        <time>2024-09-22T15:26:20.000Z</time>
      </trkpt>
      <trkpt lat="42.73829" lon="19.64112">
        <ele>1183.5200195312</ele>
        <time>2024-09-22T15:26:21.000Z</time>
      </trkpt>
      <trkpt lat="42.73817" lon="19.64142">
        <ele>1185.4399414062</ele>
        <time>2024-09-22T15:26:22.000Z</time>
      </trkpt>
      <trkpt lat="42.73795" lon="19.64202">
        <ele>1188.8100585938</ele>
        <time>2024-09-22T15:26:25.000Z</time>
      </trkpt>
      <trkpt lat="42.73789" lon="19.64218">
        <ele>1189.7700195312</ele>
        <time>2024-09-22T15:26:26.000Z</time>
      </trkpt>
      <trkpt lat="42.7374" lon="19.64322">
        <ele>1196.5</ele>
        <time>2024-09-22T15:26:31.000Z</time>
      </trkpt>
      <trkpt lat="42.73739" lon="19.64326">
        <ele>1196.5</ele>
        <time>2024-09-22T15:26:32.000Z</time>
      </trkpt>
      <trkpt lat="42.73731" lon="19.64339">
        <ele>1197.4599609375</ele>
        <time>2024-09-22T15:26:33.000Z</time>
      </trkpt>
      <trkpt lat="42.73723" lon="19.64347">
        <ele>1197.9399414062</ele>
        <time>2024-09-22T15:26:34.000Z</time>
      </trkpt>
      <trkpt lat="42.73714" lon="19.64358">
        <ele>1198.9000244141</ele>
        <time>2024-09-22T15:26:35.000Z</time>
      </trkpt>
      <trkpt lat="42.73708" lon="19.64369">
        <ele>1199.3800048828</ele>
        <time>2024-09-22T15:26:36.000Z</time>
      </trkpt>
      <trkpt lat="42.73706" lon="19.64382">
        <ele>1199.8599853516</ele>
        <time>2024-09-22T15:26:37.000Z</time>
      </trkpt>
      <trkpt lat="42.73706" lon="19.64398">
        <ele>1200.8199462891</ele>
        <time>2024-09-22T15:26:38.000Z</time>
      </trkpt>
      <trkpt lat="42.73712" lon="19.64426">
        <ele>1201.7900390625</ele>
        <time>2024-09-22T15:26:39.000Z</time>
      </trkpt>
      <trkpt lat="42.73715" lon="19.64437">
        <ele>1202.2700195312</ele>
        <time>2024-09-22T15:26:40.000Z</time>
      </trkpt>
      <trkpt lat="42.73724" lon="19.64466">
        <ele>1203.2299804688</ele>
        <time>2024-09-22T15:26:41.000Z</time>
      </trkpt>
      <trkpt lat="42.73729" lon="19.64478">
        <ele>1203.7099609375</ele>
        <time>2024-09-22T15:26:42.000Z</time>
      </trkpt>
      <trkpt lat="42.73733" lon="19.64492">
        <ele>1203.7099609375</ele>
        <time>2024-09-22T15:26:43.000Z</time>
      </trkpt>
      <trkpt lat="42.73749" lon="19.64552">
        <ele>1205.6300048828</ele>
        <time>2024-09-22T15:26:46.000Z</time>
      </trkpt>
      <trkpt lat="42.73752" lon="19.64567">
        <ele>1206.1099853516</ele>
        <time>2024-09-22T15:26:47.000Z</time>
      </trkpt>
      <trkpt lat="42.73752" lon="19.64583">
        <ele>1206.5899658203</ele>
        <time>2024-09-22T15:26:48.000Z</time>
      </trkpt>
      <trkpt lat="42.73748" lon="19.64604">
        <ele>1207.0699462891</ele>
        <time>2024-09-22T15:26:49.000Z</time>
      </trkpt>
      <trkpt lat="42.73746" lon="19.64613">
        <ele>1206.5899658203</ele>
        <time>2024-09-22T15:26:50.000Z</time>
      </trkpt>
      <trkpt lat="42.73742" lon="19.64627">
        <ele>1206.5899658203</ele>
        <time>2024-09-22T15:26:51.000Z</time>
      </trkpt>
      <trkpt lat="42.73736" lon="19.6464">
        <ele>1206.5899658203</ele>
        <time>2024-09-22T15:26:52.000Z</time>
      </trkpt>
      <trkpt lat="42.73727" lon="19.64656">
        <ele>1206.5899658203</ele>
        <time>2024-09-22T15:26:53.000Z</time>
      </trkpt>
      <trkpt lat="42.73689" lon="19.64723">
        <ele>1207.0699462891</ele>
        <time>2024-09-22T15:26:57.000Z</time>
      </trkpt>
      <trkpt lat="42.73676" lon="19.64746">
        <ele>1207.0699462891</ele>
        <time>2024-09-22T15:26:58.000Z</time>
      </trkpt>
      <trkpt lat="42.73662" lon="19.64765">
        <ele>1207.5500488281</ele>
        <time>2024-09-22T15:26:59.000Z</time>
      </trkpt>
      <trkpt lat="42.73661" lon="19.64768">
        <ele>1207.5500488281</ele>
        <time>2024-09-22T15:27:00.000Z</time>
      </trkpt>
      <trkpt lat="42.73654" lon="19.6478">
        <ele>1207.5500488281</ele>
        <time>2024-09-22T15:27:01.000Z</time>
      </trkpt>
      <trkpt lat="42.73647" lon="19.64802">
        <ele>1207.5500488281</ele>
        <time>2024-09-22T15:27:02.000Z</time>
      </trkpt>
      <trkpt lat="42.73635" lon="19.6485">
        <ele>1208.0300292969</ele>
        <time>2024-09-22T15:27:04.000Z</time>
      </trkpt>
      <trkpt lat="42.73631" lon="19.64862">
        <ele>1208.0300292969</ele>
        <time>2024-09-22T15:27:05.000Z</time>
      </trkpt>
      <trkpt lat="42.73627" lon="19.64877">
        <ele>1208.0300292969</ele>
        <time>2024-09-22T15:27:06.000Z</time>
      </trkpt>
      <trkpt lat="42.7362" lon="19.64902">
        <ele>1207.5500488281</ele>
        <time>2024-09-22T15:27:07.000Z</time>
      </trkpt>
      <trkpt lat="42.73615" lon="19.64919">
        <ele>1207.0699462891</ele>
        <time>2024-09-22T15:27:08.000Z</time>
      </trkpt>
      <trkpt lat="42.73606" lon="19.64937">
        <ele>1207.0699462891</ele>
        <time>2024-09-22T15:27:09.000Z</time>
      </trkpt>
      <trkpt lat="42.73597" lon="19.64953">
        <ele>1207.0699462891</ele>
        <time>2024-09-22T15:27:10.000Z</time>
      </trkpt>
      <trkpt lat="42.73592" lon="19.64964">
        <ele>1206.5899658203</ele>
        <time>2024-09-22T15:27:11.000Z</time>
      </trkpt>
      <trkpt lat="42.73588" lon="19.64979">
        <ele>1206.5899658203</ele>
        <time>2024-09-22T15:27:12.000Z</time>
      </trkpt>
      <trkpt lat="42.73584" lon="19.64999">
        <ele>1206.5899658203</ele>
        <time>2024-09-22T15:27:13.000Z</time>
      </trkpt>
      <trkpt lat="42.73581" lon="19.65014">
        <ele>1206.5899658203</ele>
        <time>2024-09-22T15:27:14.000Z</time>
      </trkpt>
      <trkpt lat="42.7358" lon="19.65028">
        <ele>1206.5899658203</ele>
        <time>2024-09-22T15:27:15.000Z</time>
      </trkpt>
      <trkpt lat="42.73581" lon="19.65041">
        <ele>1206.5899658203</ele>
        <time>2024-09-22T15:27:16.000Z</time>
      </trkpt>
      <trkpt lat="42.73587" lon="19.65067">
        <ele>1206.5899658203</ele>
        <time>2024-09-22T15:27:17.000Z</time>
      </trkpt>
      <trkpt lat="42.73587" lon="19.6507">
        <ele>1206.5899658203</ele>
        <time>2024-09-22T15:27:18.000Z</time>
      </trkpt>
      <trkpt lat="42.73587" lon="19.65083">
        <ele>1206.5899658203</ele>
        <time>2024-09-22T15:27:19.000Z</time>
      </trkpt>
      <trkpt lat="42.73584" lon="19.65101">
        <ele>1208.0300292969</ele>
        <time>2024-09-22T15:27:20.000Z</time>
      </trkpt>
      <trkpt lat="42.73584" lon="19.65112">
        <ele>1209.4799804688</ele>
        <time>2024-09-22T15:27:21.000Z</time>
      </trkpt>
      <trkpt lat="42.73586" lon="19.65127">
        <ele>1209.9599609375</ele>
        <time>2024-09-22T15:27:22.000Z</time>
      </trkpt>
      <trkpt lat="42.73589" lon="19.65138">
        <ele>1209.9599609375</ele>
        <time>2024-09-22T15:27:23.000Z</time>
      </trkpt>
      <trkpt lat="42.73591" lon="19.65154">
        <ele>1210.4399414062</ele>
        <time>2024-09-22T15:27:24.000Z</time>
      </trkpt>
      <trkpt lat="42.73589" lon="19.65168">
        <ele>1210.9200439453</ele>
        <time>2024-09-22T15:27:25.000Z</time>
      </trkpt>
      <trkpt lat="42.73589" lon="19.65183">
        <ele>1207.5500488281</ele>
        <time>2024-09-22T15:28:45.000Z</time>
      </trkpt>
      <trkpt lat="42.73581" lon="19.65182">
        <ele>1205.6300048828</ele>
        <time>2024-09-22T15:28:49.000Z</time>
      </trkpt>
      <trkpt lat="42.73579" lon="19.65188">
        <ele>1205.1500244141</ele>
        <time>2024-09-22T15:28:50.000Z</time>
      </trkpt>
      <trkpt lat="42.73575" lon="19.65196">
        <ele>1204.6700439453</ele>
        <time>2024-09-22T15:28:51.000Z</time>
      </trkpt>
      <trkpt lat="42.73572" lon="19.65203">
        <ele>1204.1899414062</ele>
        <time>2024-09-22T15:28:52.000Z</time>
      </trkpt>
      <trkpt lat="42.73569" lon="19.65213">
        <ele>1203.2299804688</ele>
        <time>2024-09-22T15:28:53.000Z</time>
      </trkpt>
      <trkpt lat="42.73568" lon="19.65222">
        <ele>1202.75</ele>
        <time>2024-09-22T15:28:54.000Z</time>
      </trkpt>
      <trkpt lat="42.73569" lon="19.65232">
        <ele>1202.75</ele>
        <time>2024-09-22T15:28:55.000Z</time>
      </trkpt>
      <trkpt lat="42.73569" lon="19.6524">
        <ele>1202.2700195312</ele>
        <time>2024-09-22T15:28:56.000Z</time>
      </trkpt>
      <trkpt lat="42.73569" lon="19.65248">
        <ele>1201.7900390625</ele>
        <time>2024-09-22T15:28:57.000Z</time>
      </trkpt>
      <trkpt lat="42.73569" lon="19.65259">
        <ele>1200.8199462891</ele>
        <time>2024-09-22T15:28:58.000Z</time>
      </trkpt>
      <trkpt lat="42.73568" lon="19.65266">
        <ele>1200.3399658203</ele>
        <time>2024-09-22T15:28:59.000Z</time>
      </trkpt>
      <trkpt lat="42.73566" lon="19.65278">
        <ele>1199.3800048828</ele>
        <time>2024-09-22T15:29:00.000Z</time>
      </trkpt>
      <trkpt lat="42.73565" lon="19.65284">
        <ele>1198.4200439453</ele>
        <time>2024-09-22T15:29:01.000Z</time>
      </trkpt>
      <trkpt lat="42.73563" lon="19.65293">
        <ele>1197.4599609375</ele>
        <time>2024-09-22T15:29:02.000Z</time>
      </trkpt>
      <trkpt lat="42.73564" lon="19.65303">
        <ele>1196.0200195312</ele>
        <time>2024-09-22T15:29:03.000Z</time>
      </trkpt>
      <trkpt lat="42.73565" lon="19.65313">
        <ele>1194.5799560547</ele>
        <time>2024-09-22T15:29:04.000Z</time>
      </trkpt>
      <trkpt lat="42.73568" lon="19.65325">
        <ele>1192.6500244141</ele>
        <time>2024-09-22T15:29:05.000Z</time>
      </trkpt>
      <trkpt lat="42.7357" lon="19.65333">
        <ele>1191.6899414062</ele>
        <time>2024-09-22T15:29:06.000Z</time>
      </trkpt>
      <trkpt lat="42.73574" lon="19.65343">
        <ele>1190.7299804688</ele>
        <time>2024-09-22T15:29:07.000Z</time>
      </trkpt>
      <trkpt lat="42.73579" lon="19.65352">
        <ele>1189.7700195312</ele>
        <time>2024-09-22T15:29:08.000Z</time>
      </trkpt>
      <trkpt lat="42.73585" lon="19.6536">
        <ele>1188.3299560547</ele>
        <time>2024-09-22T15:29:09.000Z</time>
      </trkpt>
      <trkpt lat="42.73589" lon="19.65367">
        <ele>1186.8800048828</ele>
        <time>2024-09-22T15:29:10.000Z</time>
      </trkpt>
      <trkpt lat="42.73592" lon="19.65373">
        <ele>1185.9200439453</ele>
        <time>2024-09-22T15:29:11.000Z</time>
      </trkpt>
      <trkpt lat="42.73594" lon="19.65382">
        <ele>1184.4799804688</ele>
        <time>2024-09-22T15:29:12.000Z</time>
      </trkpt>
      <trkpt lat="42.73594" lon="19.65389">
        <ele>1183.0400390625</ele>
        <time>2024-09-22T15:29:13.000Z</time>
      </trkpt>
      <trkpt lat="42.73593" lon="19.65397">
        <ele>1182.0799560547</ele>
        <time>2024-09-22T15:29:14.000Z</time>
      </trkpt>
      <trkpt lat="42.73591" lon="19.65407">
        <ele>1180.6400146484</ele>
        <time>2024-09-22T15:29:15.000Z</time>
      </trkpt>
      <trkpt lat="42.7359" lon="19.65419">
        <ele>1179.1899414062</ele>
        <time>2024-09-22T15:29:16.000Z</time>
      </trkpt>
      <trkpt lat="42.7359" lon="19.65426">
        <ele>1178.2299804688</ele>
        <time>2024-09-22T15:29:17.000Z</time>
      </trkpt>
      <trkpt lat="42.73589" lon="19.65439">
        <ele>1176.7900390625</ele>
        <time>2024-09-22T15:29:18.000Z</time>
      </trkpt>
      <trkpt lat="42.73589" lon="19.65451">
        <ele>1175.8299560547</ele>
        <time>2024-09-22T15:29:19.000Z</time>
      </trkpt>
      <trkpt lat="42.73587" lon="19.65459">
        <ele>1175.3499755859</ele>
        <time>2024-09-22T15:29:20.000Z</time>
      </trkpt>
      <trkpt lat="42.73584" lon="19.65468">
        <ele>1174.8699951172</ele>
        <time>2024-09-22T15:29:21.000Z</time>
      </trkpt>
      <trkpt lat="42.73579" lon="19.65477">
        <ele>1173.9100341797</ele>
        <time>2024-09-22T15:29:22.000Z</time>
      </trkpt>
      <trkpt lat="42.73572" lon="19.6549">
        <ele>1172.4699707031</ele>
        <time>2024-09-22T15:29:23.000Z</time>
      </trkpt>
      <trkpt lat="42.7357" lon="19.65495">
        <ele>1171.9799804688</ele>
        <time>2024-09-22T15:29:24.000Z</time>
      </trkpt>
      <trkpt lat="42.73566" lon="19.65511">
        <ele>1170.0600585938</ele>
        <time>2024-09-22T15:29:25.000Z</time>
      </trkpt>
      <trkpt lat="42.73564" lon="19.65519">
        <ele>1170.0600585938</ele>
        <time>2024-09-22T15:29:26.000Z</time>
      </trkpt>
      <trkpt lat="42.73564" lon="19.65525">
        <ele>1170.0600585938</ele>
        <time>2024-09-22T15:29:27.000Z</time>
      </trkpt>
      <trkpt lat="42.73563" lon="19.6554">
        <ele>1169.5799560547</ele>
        <time>2024-09-22T15:29:28.000Z</time>
      </trkpt>
      <trkpt lat="42.73563" lon="19.65546">
        <ele>1169.5799560547</ele>
        <time>2024-09-22T15:29:29.000Z</time>
      </trkpt>
      <trkpt lat="42.73563" lon="19.65555">
        <ele>1169.5799560547</ele>
        <time>2024-09-22T15:29:30.000Z</time>
      </trkpt>
      <trkpt lat="42.73562" lon="19.65567">
        <ele>1169.0999755859</ele>
        <time>2024-09-22T15:29:31.000Z</time>
      </trkpt>
      <trkpt lat="42.7356" lon="19.65576">
        <ele>1168.6199951172</ele>
        <time>2024-09-22T15:29:32.000Z</time>
      </trkpt>
      <trkpt lat="42.73557" lon="19.65583">
        <ele>1168.6199951172</ele>
        <time>2024-09-22T15:29:33.000Z</time>
      </trkpt>
      <trkpt lat="42.73554" lon="19.65588">
        <ele>1168.6199951172</ele>
        <time>2024-09-22T15:29:34.000Z</time>
      </trkpt>
      <trkpt lat="42.7355" lon="19.65594">
        <ele>1169.0999755859</ele>
        <time>2024-09-22T15:29:35.000Z</time>
      </trkpt>
      <trkpt lat="42.73544" lon="19.65601">
        <ele>1169.5799560547</ele>
        <time>2024-09-22T15:29:36.000Z</time>
      </trkpt>
      <trkpt lat="42.7354" lon="19.65606">
        <ele>1170.0600585938</ele>
        <time>2024-09-22T15:29:37.000Z</time>
      </trkpt>
      <trkpt lat="42.73533" lon="19.65613">
        <ele>1170.5400390625</ele>
        <time>2024-09-22T15:29:38.000Z</time>
      </trkpt>
      <trkpt lat="42.73523" lon="19.65624">
        <ele>1172.4699707031</ele>
        <time>2024-09-22T15:29:39.000Z</time>
      </trkpt>
      <trkpt lat="42.7352" lon="19.65627">
        <ele>1172.9499511719</ele>
        <time>2024-09-22T15:29:40.000Z</time>
      </trkpt>
      <trkpt lat="42.73515" lon="19.65635">
        <ele>1173.9100341797</ele>
        <time>2024-09-22T15:29:41.000Z</time>
      </trkpt>
      <trkpt lat="42.73506" lon="19.65646">
        <ele>1174.8699951172</ele>
        <time>2024-09-22T15:29:42.000Z</time>
      </trkpt>
      <trkpt lat="42.7349" lon="19.65663">
        <ele>1175.8299560547</ele>
        <time>2024-09-22T15:29:44.000Z</time>
      </trkpt>
      <trkpt lat="42.73487" lon="19.65665">
        <ele>1176.3100585938</ele>
        <time>2024-09-22T15:29:45.000Z</time>
      </trkpt>
      <trkpt lat="42.73481" lon="19.65671">
        <ele>1176.3100585938</ele>
        <time>2024-09-22T15:29:46.000Z</time>
      </trkpt>
      <trkpt lat="42.73477" lon="19.65679">
        <ele>1176.7900390625</ele>
        <time>2024-09-22T15:29:47.000Z</time>
      </trkpt>
      <trkpt lat="42.73474" lon="19.65688">
        <ele>1177.75</ele>
        <time>2024-09-22T15:29:48.000Z</time>
      </trkpt>
      <trkpt lat="42.73471" lon="19.65701">
        <ele>1177.75</ele>
        <time>2024-09-22T15:29:49.000Z</time>
      </trkpt>
      <trkpt lat="42.73468" lon="19.65709">
        <ele>1178.2299804688</ele>
        <time>2024-09-22T15:29:50.000Z</time>
      </trkpt>
      <trkpt lat="42.73463" lon="19.65718">
        <ele>1178.7099609375</ele>
        <time>2024-09-22T15:29:51.000Z</time>
      </trkpt>
      <trkpt lat="42.73458" lon="19.65725">
        <ele>1179.1899414062</ele>
        <time>2024-09-22T15:29:52.000Z</time>
      </trkpt>
      <trkpt lat="42.73446" lon="19.65733">
        <ele>1179.6700439453</ele>
        <time>2024-09-22T15:29:53.000Z</time>
      </trkpt>
      <trkpt lat="42.7344" lon="19.65736">
        <ele>1180.1600341797</ele>
        <time>2024-09-22T15:29:54.000Z</time>
      </trkpt>
      <trkpt lat="42.73433" lon="19.65738">
        <ele>1179.6700439453</ele>
        <time>2024-09-22T15:29:55.000Z</time>
      </trkpt>
      <trkpt lat="42.73424" lon="19.6574">
        <ele>1180.1600341797</ele>
        <time>2024-09-22T15:29:56.000Z</time>
      </trkpt>
      <trkpt lat="42.73421" lon="19.65741">
        <ele>1180.1600341797</ele>
        <time>2024-09-22T15:29:57.000Z</time>
      </trkpt>
      <trkpt lat="42.73416" lon="19.65743">
        <ele>1180.1600341797</ele>
        <time>2024-09-22T15:29:58.000Z</time>
      </trkpt>
      <trkpt lat="42.73409" lon="19.65748">
        <ele>1180.1600341797</ele>
        <time>2024-09-22T15:29:59.000Z</time>
      </trkpt>
      <trkpt lat="42.73405" lon="19.65753">
        <ele>1180.6400146484</ele>
        <time>2024-09-22T15:30:00.000Z</time>
      </trkpt>
      <trkpt lat="42.734" lon="19.65762">
        <ele>1182.5600585938</ele>
        <time>2024-09-22T15:30:01.000Z</time>
      </trkpt>
      <trkpt lat="42.73394" lon="19.65772">
        <ele>1184.4799804688</ele>
        <time>2024-09-22T15:30:02.000Z</time>
      </trkpt>
      <trkpt lat="42.73387" lon="19.65785">
        <ele>1185.9200439453</ele>
        <time>2024-09-22T15:30:03.000Z</time>
      </trkpt>
      <trkpt lat="42.73382" lon="19.65792">
        <ele>1186.8800048828</ele>
        <time>2024-09-22T15:30:04.000Z</time>
      </trkpt>
      <trkpt lat="42.73372" lon="19.65808">
        <ele>1188.3299560547</ele>
        <time>2024-09-22T15:30:06.000Z</time>
      </trkpt>
      <trkpt lat="42.73357" lon="19.65839">
        <ele>1189.7700195312</ele>
        <time>2024-09-22T15:30:09.000Z</time>
      </trkpt>
      <trkpt lat="42.73354" lon="19.65847">
        <ele>1190.25</ele>
        <time>2024-09-22T15:30:10.000Z</time>
      </trkpt>
      <trkpt lat="42.7335" lon="19.65861">
        <ele>1191.6899414062</ele>
        <time>2024-09-22T15:30:11.000Z</time>
      </trkpt>
      <trkpt lat="42.73343" lon="19.65876">
        <ele>1192.1700439453</ele>
        <time>2024-09-22T15:30:12.000Z</time>
      </trkpt>
      <trkpt lat="42.73334" lon="19.65895">
        <ele>1192.1700439453</ele>
        <time>2024-09-22T15:30:14.000Z</time>
      </trkpt>
      <trkpt lat="42.73327" lon="19.65906">
        <ele>1191.2099609375</ele>
        <time>2024-09-22T15:30:15.000Z</time>
      </trkpt>
      <trkpt lat="42.7332" lon="19.65913">
        <ele>1192.1700439453</ele>
        <time>2024-09-22T15:30:16.000Z</time>
      </trkpt>
      <trkpt lat="42.73316" lon="19.65918">
        <ele>1192.1700439453</ele>
        <time>2024-09-22T15:30:17.000Z</time>
      </trkpt>
      <trkpt lat="42.73312" lon="19.65926">
        <ele>1192.1700439453</ele>
        <time>2024-09-22T15:30:18.000Z</time>
      </trkpt>
      <trkpt lat="42.73306" lon="19.65938">
        <ele>1192.6500244141</ele>
        <time>2024-09-22T15:30:19.000Z</time>
      </trkpt>
      <trkpt lat="42.73301" lon="19.65947">
        <ele>1193.1300048828</ele>
        <time>2024-09-22T15:30:20.000Z</time>
      </trkpt>
      <trkpt lat="42.73294" lon="19.6596">
        <ele>1193.6099853516</ele>
        <time>2024-09-22T15:30:21.000Z</time>
      </trkpt>
      <trkpt lat="42.73292" lon="19.65963">
        <ele>1194.0899658203</ele>
        <time>2024-09-22T15:30:22.000Z</time>
      </trkpt>
      <trkpt lat="42.73285" lon="19.65969">
        <ele>1194.5799560547</ele>
        <time>2024-09-22T15:30:23.000Z</time>
      </trkpt>
      <trkpt lat="42.73276" lon="19.65979">
        <ele>1195.0600585938</ele>
        <time>2024-09-22T15:30:24.000Z</time>
      </trkpt>
      <trkpt lat="42.73264" lon="19.65995">
        <ele>1196.5</ele>
        <time>2024-09-22T15:30:25.000Z</time>
      </trkpt>
      <trkpt lat="42.73262" lon="19.65997">
        <ele>1196.9799804688</ele>
        <time>2024-09-22T15:30:26.000Z</time>
      </trkpt>
      <trkpt lat="42.73254" lon="19.66005">
        <ele>1197.4599609375</ele>
        <time>2024-09-22T15:30:27.000Z</time>
      </trkpt>
      <trkpt lat="42.73229" lon="19.66028">
        <ele>1199.3800048828</ele>
        <time>2024-09-22T15:30:29.000Z</time>
      </trkpt>
      <trkpt lat="42.73218" lon="19.66037">
        <ele>1200.3399658203</ele>
        <time>2024-09-22T15:30:30.000Z</time>
      </trkpt>
      <trkpt lat="42.73214" lon="19.6604">
        <ele>1200.8199462891</ele>
        <time>2024-09-22T15:30:31.000Z</time>
      </trkpt>
      <trkpt lat="42.73204" lon="19.66048">
        <ele>1200.8199462891</ele>
        <time>2024-09-22T15:30:32.000Z</time>
      </trkpt>
      <trkpt lat="42.73192" lon="19.66056">
        <ele>1201.7900390625</ele>
        <time>2024-09-22T15:30:33.000Z</time>
      </trkpt>
      <trkpt lat="42.73185" lon="19.66062">
        <ele>1202.75</ele>
        <time>2024-09-22T15:30:34.000Z</time>
      </trkpt>
      <trkpt lat="42.73173" lon="19.6607">
        <ele>1204.1899414062</ele>
        <time>2024-09-22T15:30:35.000Z</time>
      </trkpt>
      <trkpt lat="42.73167" lon="19.66075">
        <ele>1205.6300048828</ele>
        <time>2024-09-22T15:30:36.000Z</time>
      </trkpt>
      <trkpt lat="42.73162" lon="19.66082">
        <ele>1207.0699462891</ele>
        <time>2024-09-22T15:30:37.000Z</time>
      </trkpt>
      <trkpt lat="42.73157" lon="19.66094">
        <ele>1209.4799804688</ele>
        <time>2024-09-22T15:30:38.000Z</time>
      </trkpt>
      <trkpt lat="42.73152" lon="19.66106">
        <ele>1211.4000244141</ele>
        <time>2024-09-22T15:30:39.000Z</time>
      </trkpt>
      <trkpt lat="42.73151" lon="19.66108">
        <ele>1211.4000244141</ele>
        <time>2024-09-22T15:30:40.000Z</time>
      </trkpt>
      <trkpt lat="42.73146" lon="19.66115">
        <ele>1211.8800048828</ele>
        <time>2024-09-22T15:30:41.000Z</time>
      </trkpt>
      <trkpt lat="42.7314" lon="19.66123">
        <ele>1212.3599853516</ele>
        <time>2024-09-22T15:30:42.000Z</time>
      </trkpt>
      <trkpt lat="42.73134" lon="19.66132">
        <ele>1214.2800292969</ele>
        <time>2024-09-22T15:30:43.000Z</time>
      </trkpt>
      <trkpt lat="42.73127" lon="19.66146">
        <ele>1217.1700439453</ele>
        <time>2024-09-22T15:30:44.000Z</time>
      </trkpt>
      <trkpt lat="42.73125" lon="19.6615">
        <ele>1217.6500244141</ele>
        <time>2024-09-22T15:30:45.000Z</time>
      </trkpt>
      <trkpt lat="42.73121" lon="19.66155">
        <ele>1218.6099853516</ele>
        <time>2024-09-22T15:30:46.000Z</time>
      </trkpt>
      <trkpt lat="42.73116" lon="19.66159">
        <ele>1220.0500488281</ele>
        <time>2024-09-22T15:30:47.000Z</time>
      </trkpt>
      <trkpt lat="42.73112" lon="19.66161">
        <ele>1221.4899902344</ele>
        <time>2024-09-22T15:30:48.000Z</time>
      </trkpt>
      <trkpt lat="42.73106" lon="19.66161">
        <ele>1222.9300537109</ele>
        <time>2024-09-22T15:30:49.000Z</time>
      </trkpt>
      <trkpt lat="42.73096" lon="19.66161">
        <ele>1224.8599853516</ele>
        <time>2024-09-22T15:30:50.000Z</time>
      </trkpt>
      <trkpt lat="42.73094" lon="19.66161">
        <ele>1225.3399658203</ele>
        <time>2024-09-22T15:30:51.000Z</time>
      </trkpt>
      <trkpt lat="42.73087" lon="19.6616">
        <ele>1227.2600097656</ele>
        <time>2024-09-22T15:30:52.000Z</time>
      </trkpt>
      <trkpt lat="42.73082" lon="19.66159">
        <ele>1228.6999511719</ele>
        <time>2024-09-22T15:30:53.000Z</time>
      </trkpt>
      <trkpt lat="42.73077" lon="19.66156">
        <ele>1229.6600341797</ele>
        <time>2024-09-22T15:30:54.000Z</time>
      </trkpt>
      <trkpt lat="42.73072" lon="19.66151">
        <ele>1230.1400146484</ele>
        <time>2024-09-22T15:30:55.000Z</time>
      </trkpt>
      <trkpt lat="42.73068" lon="19.66146">
        <ele>1230.6199951172</ele>
        <time>2024-09-22T15:30:56.000Z</time>
      </trkpt>
      <trkpt lat="42.73061" lon="19.66141">
        <ele>1231.5899658203</ele>
        <time>2024-09-22T15:30:57.000Z</time>
      </trkpt>
      <trkpt lat="42.73055" lon="19.66138">
        <ele>1230.6199951172</ele>
        <time>2024-09-22T15:30:58.000Z</time>
      </trkpt>
      <trkpt lat="42.73047" lon="19.66136">
        <ele>1231.5899658203</ele>
        <time>2024-09-22T15:30:59.000Z</time>
      </trkpt>
      <trkpt lat="42.73033" lon="19.66135">
        <ele>1232.0699462891</ele>
        <time>2024-09-22T15:31:00.000Z</time>
      </trkpt>
      <trkpt lat="42.73031" lon="19.66135">
        <ele>1232.0699462891</ele>
        <time>2024-09-22T15:31:01.000Z</time>
      </trkpt>
      <trkpt lat="42.73023" lon="19.66134">
        <ele>1233.9899902344</ele>
        <time>2024-09-22T15:31:02.000Z</time>
      </trkpt>
      <trkpt lat="42.73018" lon="19.66133">
        <ele>1234.9499511719</ele>
        <time>2024-09-22T15:31:03.000Z</time>
      </trkpt>
      <trkpt lat="42.73011" lon="19.66131">
        <ele>1235.9100341797</ele>
        <time>2024-09-22T15:31:04.000Z</time>
      </trkpt>
      <trkpt lat="42.73003" lon="19.66128">
        <ele>1236.8699951172</ele>
        <time>2024-09-22T15:31:05.000Z</time>
      </trkpt>
      <trkpt lat="42.72989" lon="19.66123">
        <ele>1238.3199462891</ele>
        <time>2024-09-22T15:31:06.000Z</time>
      </trkpt>
      <trkpt lat="42.72987" lon="19.66123">
        <ele>1238.3199462891</ele>
        <time>2024-09-22T15:31:07.000Z</time>
      </trkpt>
      <trkpt lat="42.7298" lon="19.66123">
        <ele>1238.8000488281</ele>
        <time>2024-09-22T15:31:08.000Z</time>
      </trkpt>
      <trkpt lat="42.72975" lon="19.66124">
        <ele>1239.2800292969</ele>
        <time>2024-09-22T15:31:09.000Z</time>
      </trkpt>
      <trkpt lat="42.72971" lon="19.66128">
        <ele>1239.2800292969</ele>
        <time>2024-09-22T15:31:10.000Z</time>
      </trkpt>
      <trkpt lat="42.7297" lon="19.66134">
        <ele>1239.2800292969</ele>
        <time>2024-09-22T15:31:11.000Z</time>
      </trkpt>
      <trkpt lat="42.72971" lon="19.66142">
        <ele>1239.7600097656</ele>
        <time>2024-09-22T15:31:12.000Z</time>
      </trkpt>
      <trkpt lat="42.72973" lon="19.66148">
        <ele>1240.2399902344</ele>
        <time>2024-09-22T15:31:13.000Z</time>
      </trkpt>
      <trkpt lat="42.72977" lon="19.66155">
        <ele>1240.2399902344</ele>
        <time>2024-09-22T15:31:14.000Z</time>
      </trkpt>
      <trkpt lat="42.7298" lon="19.6616">
        <ele>1240.7199707031</ele>
        <time>2024-09-22T15:31:15.000Z</time>
      </trkpt>
      <trkpt lat="42.72981" lon="19.66167">
        <ele>1240.7199707031</ele>
        <time>2024-09-22T15:31:16.000Z</time>
      </trkpt>
      <trkpt lat="42.72969" lon="19.66178">
        <ele>1241.1999511719</ele>
        <time>2024-09-22T15:31:20.000Z</time>
      </trkpt>
      <trkpt lat="42.72964" lon="19.66176">
        <ele>1241.6800537109</ele>
        <time>2024-09-22T15:31:21.000Z</time>
      </trkpt>
      <trkpt lat="42.72952" lon="19.6617">
        <ele>1243.1199951172</ele>
        <time>2024-09-22T15:31:22.000Z</time>
      </trkpt>
      <trkpt lat="42.72951" lon="19.66169">
        <ele>1243.5999755859</ele>
        <time>2024-09-22T15:31:23.000Z</time>
      </trkpt>
      <trkpt lat="42.7294" lon="19.66166">
        <ele>1245.0400390625</ele>
        <time>2024-09-22T15:31:24.000Z</time>
      </trkpt>
      <trkpt lat="42.72935" lon="19.66163">
        <ele>1245.5300292969</ele>
        <time>2024-09-22T15:31:25.000Z</time>
      </trkpt>
      <trkpt lat="42.72926" lon="19.6616">
        <ele>1246.9699707031</ele>
        <time>2024-09-22T15:31:26.000Z</time>
      </trkpt>
      <trkpt lat="42.72918" lon="19.66159">
        <ele>1247.4499511719</ele>
        <time>2024-09-22T15:31:27.000Z</time>
      </trkpt>
      <trkpt lat="42.72912" lon="19.66159">
        <ele>1247.9300537109</ele>
        <time>2024-09-22T15:31:28.000Z</time>
      </trkpt>
      <trkpt lat="42.72906" lon="19.66161">
        <ele>1248.8900146484</ele>
        <time>2024-09-22T15:31:29.000Z</time>
      </trkpt>
      <trkpt lat="42.72894" lon="19.66169">
        <ele>1250.3299560547</ele>
        <time>2024-09-22T15:31:31.000Z</time>
      </trkpt>
      <trkpt lat="42.72887" lon="19.66172">
        <ele>1250.8100585938</ele>
        <time>2024-09-22T15:31:32.000Z</time>
      </trkpt>
      <trkpt lat="42.72881" lon="19.66175">
        <ele>1251.7700195312</ele>
        <time>2024-09-22T15:31:33.000Z</time>
      </trkpt>
      <trkpt lat="42.72868" lon="19.66176">
        <ele>1251.7700195312</ele>
        <time>2024-09-22T15:31:34.000Z</time>
      </trkpt>
      <trkpt lat="42.72864" lon="19.66176">
        <ele>1252.25</ele>
        <time>2024-09-22T15:31:35.000Z</time>
      </trkpt>
      <trkpt lat="42.72857" lon="19.66176">
        <ele>1252.7399902344</ele>
        <time>2024-09-22T15:31:36.000Z</time>
      </trkpt>
      <trkpt lat="42.72849" lon="19.66173">
        <ele>1253.2199707031</ele>
        <time>2024-09-22T15:31:37.000Z</time>
      </trkpt>
      <trkpt lat="42.72841" lon="19.66167">
        <ele>1253.2199707031</ele>
        <time>2024-09-22T15:31:38.000Z</time>
      </trkpt>
      <trkpt lat="42.72835" lon="19.6616">
        <ele>1253.6999511719</ele>
        <time>2024-09-22T15:31:39.000Z</time>
      </trkpt>
      <trkpt lat="42.7283" lon="19.66153">
        <ele>1253.6999511719</ele>
        <time>2024-09-22T15:31:40.000Z</time>
      </trkpt>
      <trkpt lat="42.72824" lon="19.66143">
        <ele>1254.6600341797</ele>
        <time>2024-09-22T15:31:41.000Z</time>
      </trkpt>
      <trkpt lat="42.72813" lon="19.66125">
        <ele>1256.0999755859</ele>
        <time>2024-09-22T15:31:43.000Z</time>
      </trkpt>
      <trkpt lat="42.72808" lon="19.66119">
        <ele>1256.5799560547</ele>
        <time>2024-09-22T15:31:44.000Z</time>
      </trkpt>
      <trkpt lat="42.72805" lon="19.66117">
        <ele>1257.5400390625</ele>
        <time>2024-09-22T15:31:45.000Z</time>
      </trkpt>
      <trkpt lat="42.728" lon="19.66115">
        <ele>1257.5400390625</ele>
        <time>2024-09-22T15:31:46.000Z</time>
      </trkpt>
      <trkpt lat="42.72793" lon="19.66117">
        <ele>1257.5400390625</ele>
        <time>2024-09-22T15:31:47.000Z</time>
      </trkpt>
      <trkpt lat="42.72788" lon="19.66121">
        <ele>1258.0200195312</ele>
        <time>2024-09-22T15:31:48.000Z</time>
      </trkpt>
      <trkpt lat="42.72778" lon="19.66129">
        <ele>1258.5</ele>
        <time>2024-09-22T15:31:49.000Z</time>
      </trkpt>
      <trkpt lat="42.72771" lon="19.66134">
        <ele>1259.4599609375</ele>
        <time>2024-09-22T15:31:50.000Z</time>
      </trkpt>
      <trkpt lat="42.72769" lon="19.66135">
        <ele>1259.9399414062</ele>
        <time>2024-09-22T15:31:51.000Z</time>
      </trkpt>
      <trkpt lat="42.72762" lon="19.66137">
        <ele>1261.3900146484</ele>
        <time>2024-09-22T15:31:52.000Z</time>
      </trkpt>
      <trkpt lat="42.72754" lon="19.66139">
        <ele>1262.3499755859</ele>
        <time>2024-09-22T15:31:53.000Z</time>
      </trkpt>
      <trkpt lat="42.72745" lon="19.66141">
        <ele>1263.3100585938</ele>
        <time>2024-09-22T15:31:54.000Z</time>
      </trkpt>
      <trkpt lat="42.72738" lon="19.66141">
        <ele>1264.2700195312</ele>
        <time>2024-09-22T15:31:55.000Z</time>
      </trkpt>
      <trkpt lat="42.72729" lon="19.6614">
        <ele>1265.2299804688</ele>
        <time>2024-09-22T15:31:56.000Z</time>
      </trkpt>
      <trkpt lat="42.72721" lon="19.66139">
        <ele>1265.2299804688</ele>
        <time>2024-09-22T15:31:57.000Z</time>
      </trkpt>
      <trkpt lat="42.72713" lon="19.66138">
        <ele>1265.2299804688</ele>
        <time>2024-09-22T15:31:58.000Z</time>
      </trkpt>
      <trkpt lat="42.72708" lon="19.66139">
        <ele>1265.7099609375</ele>
        <time>2024-09-22T15:31:59.000Z</time>
      </trkpt>
      <trkpt lat="42.72701" lon="19.6614">
        <ele>1266.6700439453</ele>
        <time>2024-09-22T15:32:00.000Z</time>
      </trkpt>
      <trkpt lat="42.72694" lon="19.66144">
        <ele>1267.6400146484</ele>
        <time>2024-09-22T15:32:01.000Z</time>
      </trkpt>
      <trkpt lat="42.72683" lon="19.66149">
        <ele>1268.1199951172</ele>
        <time>2024-09-22T15:32:02.000Z</time>
      </trkpt>
      <trkpt lat="42.72678" lon="19.6615">
        <ele>1268.5999755859</ele>
        <time>2024-09-22T15:32:03.000Z</time>
      </trkpt>
      <trkpt lat="42.72665" lon="19.66155">
        <ele>1269.0799560547</ele>
        <time>2024-09-22T15:32:04.000Z</time>
      </trkpt>
      <trkpt lat="42.72649" lon="19.66159">
        <ele>1268.5999755859</ele>
        <time>2024-09-22T15:32:05.000Z</time>
      </trkpt>
      <trkpt lat="42.72639" lon="19.66163">
        <ele>1268.1199951172</ele>
        <time>2024-09-22T15:32:06.000Z</time>
      </trkpt>
      <trkpt lat="42.72614" lon="19.66177">
        <ele>1268.5999755859</ele>
        <time>2024-09-22T15:32:09.000Z</time>
      </trkpt>
      <trkpt lat="42.72574" lon="19.662">
        <ele>1270.5200195312</ele>
        <time>2024-09-22T15:32:13.000Z</time>
      </trkpt>
      <trkpt lat="42.72559" lon="19.66207">
        <ele>1271.4799804688</ele>
        <time>2024-09-22T15:32:14.000Z</time>
      </trkpt>
      <trkpt lat="42.7255" lon="19.66211">
        <ele>1272.4399414062</ele>
        <time>2024-09-22T15:32:15.000Z</time>
      </trkpt>
      <trkpt lat="42.72533" lon="19.66222">
        <ele>1273.4000244141</ele>
        <time>2024-09-22T15:32:17.000Z</time>
      </trkpt>
      <trkpt lat="42.72518" lon="19.66234">
        <ele>1273.8800048828</ele>
        <time>2024-09-22T15:32:19.000Z</time>
      </trkpt>
      <trkpt lat="42.72512" lon="19.66237">
        <ele>1274.3599853516</ele>
        <time>2024-09-22T15:32:20.000Z</time>
      </trkpt>
      <trkpt lat="42.72508" lon="19.66237">
        <ele>1274.3599853516</ele>
        <time>2024-09-22T15:32:21.000Z</time>
      </trkpt>
      <trkpt lat="42.72503" lon="19.66234">
        <ele>1273.4000244141</ele>
        <time>2024-09-22T15:32:22.000Z</time>
      </trkpt>
      <trkpt lat="42.72498" lon="19.6623">
        <ele>1272.9200439453</ele>
        <time>2024-09-22T15:32:23.000Z</time>
      </trkpt>
      <trkpt lat="42.72491" lon="19.66222">
        <ele>1272.9200439453</ele>
        <time>2024-09-22T15:32:24.000Z</time>
      </trkpt>
      <trkpt lat="42.72485" lon="19.66218">
        <ele>1272.9200439453</ele>
        <time>2024-09-22T15:32:25.000Z</time>
      </trkpt>
      <trkpt lat="42.72477" lon="19.66213">
        <ele>1273.4000244141</ele>
        <time>2024-09-22T15:32:26.000Z</time>
      </trkpt>
      <trkpt lat="42.72472" lon="19.66212">
        <ele>1273.8800048828</ele>
        <time>2024-09-22T15:32:27.000Z</time>
      </trkpt>
      <trkpt lat="42.72465" lon="19.66211">
        <ele>1273.4000244141</ele>
        <time>2024-09-22T15:32:28.000Z</time>
      </trkpt>
      <trkpt lat="42.7246" lon="19.66211">
        <ele>1273.8800048828</ele>
        <time>2024-09-22T15:32:29.000Z</time>
      </trkpt>
      <trkpt lat="42.72451" lon="19.66211">
        <ele>1274.3599853516</ele>
        <time>2024-09-22T15:32:30.000Z</time>
      </trkpt>
      <trkpt lat="42.72424" lon="19.66211">
        <ele>1274.3599853516</ele>
        <time>2024-09-22T15:32:33.000Z</time>
      </trkpt>
      <trkpt lat="42.72415" lon="19.66211">
        <ele>1273.8800048828</ele>
        <time>2024-09-22T15:32:34.000Z</time>
      </trkpt>
      <trkpt lat="42.72404" lon="19.66212">
        <ele>1273.4000244141</ele>
        <time>2024-09-22T15:32:36.000Z</time>
      </trkpt>
      <trkpt lat="42.72398" lon="19.66214">
        <ele>1273.8800048828</ele>
        <time>2024-09-22T15:32:37.000Z</time>
      </trkpt>
      <trkpt lat="42.72395" lon="19.66215">
        <ele>1273.8800048828</ele>
        <time>2024-09-22T15:32:38.000Z</time>
      </trkpt>
      <trkpt lat="42.72389" lon="19.66217">
        <ele>1273.8800048828</ele>
        <time>2024-09-22T15:32:39.000Z</time>
      </trkpt>
      <trkpt lat="42.72381" lon="19.66221">
        <ele>1273.4000244141</ele>
        <time>2024-09-22T15:32:40.000Z</time>
      </trkpt>
      <trkpt lat="42.72379" lon="19.66222">
        <ele>1273.4000244141</ele>
        <time>2024-09-22T15:32:41.000Z</time>
      </trkpt>
      <trkpt lat="42.72375" lon="19.66225">
        <ele>1272.9200439453</ele>
        <time>2024-09-22T15:32:42.000Z</time>
      </trkpt>
      <trkpt lat="42.7237" lon="19.66229">
        <ele>1273.8800048828</ele>
        <time>2024-09-22T15:32:43.000Z</time>
      </trkpt>
      <trkpt lat="42.72361" lon="19.66235">
        <ele>1274.3599853516</ele>
        <time>2024-09-22T15:32:44.000Z</time>
      </trkpt>
      <trkpt lat="42.72355" lon="19.66238">
        <ele>1274.8499755859</ele>
        <time>2024-09-22T15:32:45.000Z</time>
      </trkpt>
      <trkpt lat="42.72348" lon="19.66242">
        <ele>1275.3299560547</ele>
        <time>2024-09-22T15:32:46.000Z</time>
      </trkpt>
      <trkpt lat="42.72331" lon="19.66249">
        <ele>1276.7700195312</ele>
        <time>2024-09-22T15:32:48.000Z</time>
      </trkpt>
      <trkpt lat="42.72322" lon="19.66255">
        <ele>1277.7299804688</ele>
        <time>2024-09-22T15:32:49.000Z</time>
      </trkpt>
      <trkpt lat="42.72311" lon="19.66264">
        <ele>1278.2099609375</ele>
        <time>2024-09-22T15:32:50.000Z</time>
      </trkpt>
      <trkpt lat="42.72304" lon="19.66272">
        <ele>1279.1700439453</ele>
        <time>2024-09-22T15:32:51.000Z</time>
      </trkpt>
      <trkpt lat="42.72299" lon="19.66278">
        <ele>1279.6500244141</ele>
        <time>2024-09-22T15:32:52.000Z</time>
      </trkpt>
      <trkpt lat="42.72294" lon="19.66285">
        <ele>1280.1300048828</ele>
        <time>2024-09-22T15:32:53.000Z</time>
      </trkpt>
      <trkpt lat="42.7229" lon="19.66292">
        <ele>1281.0899658203</ele>
        <time>2024-09-22T15:32:54.000Z</time>
      </trkpt>
      <trkpt lat="42.72288" lon="19.66302">
        <ele>1281.5699462891</ele>
        <time>2024-09-22T15:32:55.000Z</time>
      </trkpt>
      <trkpt lat="42.72285" lon="19.66313">
        <ele>1281.5699462891</ele>
        <time>2024-09-22T15:32:56.000Z</time>
      </trkpt>
      <trkpt lat="42.72282" lon="19.66323">
        <ele>1282.5400390625</ele>
        <time>2024-09-22T15:32:57.000Z</time>
      </trkpt>
      <trkpt lat="42.72281" lon="19.66333">
        <ele>1285.4200439453</ele>
        <time>2024-09-22T15:32:58.000Z</time>
      </trkpt>
      <trkpt lat="42.72282" lon="19.6634">
        <ele>1286.8599853516</ele>
        <time>2024-09-22T15:32:59.000Z</time>
      </trkpt>
      <trkpt lat="42.72284" lon="19.66346">
        <ele>1286.8599853516</ele>
        <time>2024-09-22T15:33:00.000Z</time>
      </trkpt>
      <trkpt lat="42.72288" lon="19.66351">
        <ele>1287.8199462891</ele>
        <time>2024-09-22T15:33:01.000Z</time>
      </trkpt>
      <trkpt lat="42.72291" lon="19.66352">
        <ele>1287.8199462891</ele>
        <time>2024-09-22T15:33:02.000Z</time>
      </trkpt>
      <trkpt lat="42.72296" lon="19.66352">
        <ele>1289.2700195312</ele>
        <time>2024-09-22T15:33:03.000Z</time>
      </trkpt>
      <trkpt lat="42.72302" lon="19.6635">
        <ele>1290.2299804688</ele>
        <time>2024-09-22T15:33:04.000Z</time>
      </trkpt>
      <trkpt lat="42.72307" lon="19.66347">
        <ele>1290.7099609375</ele>
        <time>2024-09-22T15:33:05.000Z</time>
      </trkpt>
      <trkpt lat="42.72315" lon="19.66341">
        <ele>1291.6700439453</ele>
        <time>2024-09-22T15:33:06.000Z</time>
      </trkpt>
      <trkpt lat="42.7232" lon="19.66337">
        <ele>1293.1099853516</ele>
        <time>2024-09-22T15:33:07.000Z</time>
      </trkpt>
      <trkpt lat="42.72324" lon="19.66334">
        <ele>1294.0699462891</ele>
        <time>2024-09-22T15:33:08.000Z</time>
      </trkpt>
      <trkpt lat="42.72334" lon="19.66344">
        <ele>1295.5100097656</ele>
        <time>2024-09-22T15:33:11.000Z</time>
      </trkpt>
      <trkpt lat="42.72334" lon="19.66346">
        <ele>1295.9899902344</ele>
        <time>2024-09-22T15:33:12.000Z</time>
      </trkpt>
      <trkpt lat="42.72335" lon="19.66352">
        <ele>1296.9599609375</ele>
        <time>2024-09-22T15:33:13.000Z</time>
      </trkpt>
      <trkpt lat="42.72333" lon="19.66359">
        <ele>1298.4000244141</ele>
        <time>2024-09-22T15:33:14.000Z</time>
      </trkpt>
      <trkpt lat="42.7233" lon="19.66364">
        <ele>1298.8800048828</ele>
        <time>2024-09-22T15:33:15.000Z</time>
      </trkpt>
      <trkpt lat="42.72325" lon="19.66368">
        <ele>1298.8800048828</ele>
        <time>2024-09-22T15:33:16.000Z</time>
      </trkpt>
      <trkpt lat="42.7232" lon="19.66371">
        <ele>1299.3599853516</ele>
        <time>2024-09-22T15:33:17.000Z</time>
      </trkpt>
      <trkpt lat="42.72312" lon="19.66375">
        <ele>1299.3599853516</ele>
        <time>2024-09-22T15:33:18.000Z</time>
      </trkpt>
      <trkpt lat="42.72307" lon="19.66378">
        <ele>1300.3199462891</ele>
        <time>2024-09-22T15:33:19.000Z</time>
      </trkpt>
      <trkpt lat="42.723" lon="19.66384">
        <ele>1301.7600097656</ele>
        <time>2024-09-22T15:33:20.000Z</time>
      </trkpt>
      <trkpt lat="42.72295" lon="19.66389">
        <ele>1303.1999511719</ele>
        <time>2024-09-22T15:33:21.000Z</time>
      </trkpt>
      <trkpt lat="42.72283" lon="19.66405">
        <ele>1306.0899658203</ele>
        <time>2024-09-22T15:33:23.000Z</time>
      </trkpt>
      <trkpt lat="42.72279" lon="19.66409">
        <ele>1306.5699462891</ele>
        <time>2024-09-22T15:33:24.000Z</time>
      </trkpt>
      <trkpt lat="42.7227" lon="19.66418">
        <ele>1308.0100097656</ele>
        <time>2024-09-22T15:33:25.000Z</time>
      </trkpt>
      <trkpt lat="42.72264" lon="19.66425">
        <ele>1308.9699707031</ele>
        <time>2024-09-22T15:33:26.000Z</time>
      </trkpt>
      <trkpt lat="42.72258" lon="19.66432">
        <ele>1309.9300537109</ele>
        <time>2024-09-22T15:33:27.000Z</time>
      </trkpt>
      <trkpt lat="42.72251" lon="19.66436">
        <ele>1311.3800048828</ele>
        <time>2024-09-22T15:33:28.000Z</time>
      </trkpt>
      <trkpt lat="42.72245" lon="19.66439">
        <ele>1312.3399658203</ele>
        <time>2024-09-22T15:33:29.000Z</time>
      </trkpt>
      <trkpt lat="42.72234" lon="19.66441">
        <ele>1313.7800292969</ele>
        <time>2024-09-22T15:33:30.000Z</time>
      </trkpt>
      <trkpt lat="42.72229" lon="19.66442">
        <ele>1314.7399902344</ele>
        <time>2024-09-22T15:33:31.000Z</time>
      </trkpt>
      <trkpt lat="42.72221" lon="19.66446">
        <ele>1316.1800537109</ele>
        <time>2024-09-22T15:33:32.000Z</time>
      </trkpt>
      <trkpt lat="42.72207" lon="19.66455">
        <ele>1317.1400146484</ele>
        <time>2024-09-22T15:33:33.000Z</time>
      </trkpt>
      <trkpt lat="42.72205" lon="19.66456">
        <ele>1317.1400146484</ele>
        <time>2024-09-22T15:33:34.000Z</time>
      </trkpt>
      <trkpt lat="42.72196" lon="19.6646">
        <ele>1318.5899658203</ele>
        <time>2024-09-22T15:33:35.000Z</time>
      </trkpt>
      <trkpt lat="42.72186" lon="19.66462">
        <ele>1319.5500488281</ele>
        <time>2024-09-22T15:33:36.000Z</time>
      </trkpt>
      <trkpt lat="42.72163" lon="19.66465">
        <ele>1318.5899658203</ele>
        <time>2024-09-22T15:33:38.000Z</time>
      </trkpt>
      <trkpt lat="42.72157" lon="19.66464">
        <ele>1318.5899658203</ele>
        <time>2024-09-22T15:33:39.000Z</time>
      </trkpt>
      <trkpt lat="42.72142" lon="19.66463">
        <ele>1319.0699462891</ele>
        <time>2024-09-22T15:33:40.000Z</time>
      </trkpt>
      <trkpt lat="42.72131" lon="19.66464">
        <ele>1319.5500488281</ele>
        <time>2024-09-22T15:33:41.000Z</time>
      </trkpt>
      <trkpt lat="42.72129" lon="19.66464">
        <ele>1319.5500488281</ele>
        <time>2024-09-22T15:33:42.000Z</time>
      </trkpt>
      <trkpt lat="42.72117" lon="19.66467">
        <ele>1320.0300292969</ele>
        <time>2024-09-22T15:33:43.000Z</time>
      </trkpt>
      <trkpt lat="42.72111" lon="19.66469">
        <ele>1320.0300292969</ele>
        <time>2024-09-22T15:33:44.000Z</time>
      </trkpt>
      <trkpt lat="42.72101" lon="19.66474">
        <ele>1320.5100097656</ele>
        <time>2024-09-22T15:33:45.000Z</time>
      </trkpt>
      <trkpt lat="42.72096" lon="19.66477">
        <ele>1320.5100097656</ele>
        <time>2024-09-22T15:33:46.000Z</time>
      </trkpt>
      <trkpt lat="42.7208" lon="19.66487">
        <ele>1319.5500488281</ele>
        <time>2024-09-22T15:33:47.000Z</time>
      </trkpt>
      <trkpt lat="42.72078" lon="19.66488">
        <ele>1320.0300292969</ele>
        <time>2024-09-22T15:33:48.000Z</time>
      </trkpt>
      <trkpt lat="42.72064" lon="19.66497">
        <ele>1318.0999755859</ele>
        <time>2024-09-22T15:33:49.000Z</time>
      </trkpt>
      <trkpt lat="42.72061" lon="19.66499">
        <ele>1317.6199951172</ele>
        <time>2024-09-22T15:33:50.000Z</time>
      </trkpt>
      <trkpt lat="42.72052" lon="19.66502">
        <ele>1317.1400146484</ele>
        <time>2024-09-22T15:33:51.000Z</time>
      </trkpt>
      <trkpt lat="42.72034" lon="19.66505">
        <ele>1317.1400146484</ele>
        <time>2024-09-22T15:33:53.000Z</time>
      </trkpt>
      <trkpt lat="42.72019" lon="19.66505">
        <ele>1316.1800537109</ele>
        <time>2024-09-22T15:33:54.000Z</time>
      </trkpt>
      <trkpt lat="42.7201" lon="19.66505">
        <ele>1315.2199707031</ele>
        <time>2024-09-22T15:33:55.000Z</time>
      </trkpt>
      <trkpt lat="42.72003" lon="19.66506">
        <ele>1315.2199707031</ele>
        <time>2024-09-22T15:33:56.000Z</time>
      </trkpt>
      <trkpt lat="42.71994" lon="19.66509">
        <ele>1315.6999511719</ele>
        <time>2024-09-22T15:33:57.000Z</time>
      </trkpt>
      <trkpt lat="42.71978" lon="19.66516">
        <ele>1316.1800537109</ele>
        <time>2024-09-22T15:33:58.000Z</time>
      </trkpt>
      <trkpt lat="42.71974" lon="19.66517">
        <ele>1316.1800537109</ele>
        <time>2024-09-22T15:33:59.000Z</time>
      </trkpt>
      <trkpt lat="42.71961" lon="19.66521">
        <ele>1316.6600341797</ele>
        <time>2024-09-22T15:34:00.000Z</time>
      </trkpt>
      <trkpt lat="42.71931" lon="19.66523">
        <ele>1318.5899658203</ele>
        <time>2024-09-22T15:34:03.000Z</time>
      </trkpt>
      <trkpt lat="42.71909" lon="19.66526">
        <ele>1320.9899902344</ele>
        <time>2024-09-22T15:34:05.000Z</time>
      </trkpt>
      <trkpt lat="42.7189" lon="19.6653">
        <ele>1321.9499511719</ele>
        <time>2024-09-22T15:34:06.000Z</time>
      </trkpt>
      <trkpt lat="42.71883" lon="19.66532">
        <ele>1321.9499511719</ele>
        <time>2024-09-22T15:34:07.000Z</time>
      </trkpt>
      <trkpt lat="42.71875" lon="19.66535">
        <ele>1321.9499511719</ele>
        <time>2024-09-22T15:34:08.000Z</time>
      </trkpt>
      <trkpt lat="42.71867" lon="19.66537">
        <ele>1322.4300537109</ele>
        <time>2024-09-22T15:34:09.000Z</time>
      </trkpt>
      <trkpt lat="42.71859" lon="19.66539">
        <ele>1322.9100341797</ele>
        <time>2024-09-22T15:34:10.000Z</time>
      </trkpt>
      <trkpt lat="42.71848" lon="19.66543">
        <ele>1322.9100341797</ele>
        <time>2024-09-22T15:34:11.000Z</time>
      </trkpt>
      <trkpt lat="42.71841" lon="19.66545">
        <ele>1322.9100341797</ele>
        <time>2024-09-22T15:34:12.000Z</time>
      </trkpt>
      <trkpt lat="42.71825" lon="19.66548">
        <ele>1322.9100341797</ele>
        <time>2024-09-22T15:34:13.000Z</time>
      </trkpt>
      <trkpt lat="42.71817" lon="19.6655">
        <ele>1322.9100341797</ele>
        <time>2024-09-22T15:34:14.000Z</time>
      </trkpt>
      <trkpt lat="42.71807" lon="19.66553">
        <ele>1322.9100341797</ele>
        <time>2024-09-22T15:34:15.000Z</time>
      </trkpt>
      <trkpt lat="42.71797" lon="19.66556">
        <ele>1323.8699951172</ele>
        <time>2024-09-22T15:34:16.000Z</time>
      </trkpt>
      <trkpt lat="42.71787" lon="19.6656">
        <ele>1323.8699951172</ele>
        <time>2024-09-22T15:34:17.000Z</time>
      </trkpt>
      <trkpt lat="42.71772" lon="19.66568">
        <ele>1324.3499755859</ele>
        <time>2024-09-22T15:34:18.000Z</time>
      </trkpt>
      <trkpt lat="42.71766" lon="19.66572">
        <ele>1324.8299560547</ele>
        <time>2024-09-22T15:34:19.000Z</time>
      </trkpt>
      <trkpt lat="42.71756" lon="19.66576">
        <ele>1325.8000488281</ele>
        <time>2024-09-22T15:34:20.000Z</time>
      </trkpt>
      <trkpt lat="42.71741" lon="19.66581">
        <ele>1326.7600097656</ele>
        <time>2024-09-22T15:34:21.000Z</time>
      </trkpt>
      <trkpt lat="42.71733" lon="19.66582">
        <ele>1327.2399902344</ele>
        <time>2024-09-22T15:34:22.000Z</time>
      </trkpt>
      <trkpt lat="42.71717" lon="19.66584">
        <ele>1328.1999511719</ele>
        <time>2024-09-22T15:34:23.000Z</time>
      </trkpt>
      <trkpt lat="42.71701" lon="19.66584">
        <ele>1329.6400146484</ele>
        <time>2024-09-22T15:34:24.000Z</time>
      </trkpt>
      <trkpt lat="42.71693" lon="19.66585">
        <ele>1330.1199951172</ele>
        <time>2024-09-22T15:34:25.000Z</time>
      </trkpt>
      <trkpt lat="42.71684" lon="19.66586">
        <ele>1330.1199951172</ele>
        <time>2024-09-22T15:34:26.000Z</time>
      </trkpt>
      <trkpt lat="42.71672" lon="19.66587">
        <ele>1331.0799560547</ele>
        <time>2024-09-22T15:34:27.000Z</time>
      </trkpt>
      <trkpt lat="42.71641" lon="19.66592">
        <ele>1333.4899902344</ele>
        <time>2024-09-22T15:34:30.000Z</time>
      </trkpt>
      <trkpt lat="42.71632" lon="19.66593">
        <ele>1334.4499511719</ele>
        <time>2024-09-22T15:34:31.000Z</time>
      </trkpt>
      <trkpt lat="42.71623" lon="19.66593">
        <ele>1334.9300537109</ele>
        <time>2024-09-22T15:34:32.000Z</time>
      </trkpt>
      <trkpt lat="42.71613" lon="19.66594">
        <ele>1335.8900146484</ele>
        <time>2024-09-22T15:34:33.000Z</time>
      </trkpt>
      <trkpt lat="42.71605" lon="19.66597">
        <ele>1336.3699951172</ele>
        <time>2024-09-22T15:34:34.000Z</time>
      </trkpt>
      <trkpt lat="42.71597" lon="19.66601">
        <ele>1336.8499755859</ele>
        <time>2024-09-22T15:34:35.000Z</time>
      </trkpt>
      <trkpt lat="42.71584" lon="19.66608">
        <ele>1338.2900390625</ele>
        <time>2024-09-22T15:34:36.000Z</time>
      </trkpt>
      <trkpt lat="42.71577" lon="19.66613">
        <ele>1339.25</ele>
        <time>2024-09-22T15:34:37.000Z</time>
      </trkpt>
      <trkpt lat="42.71573" lon="19.66616">
        <ele>1339.7299804688</ele>
        <time>2024-09-22T15:34:38.000Z</time>
      </trkpt>
      <trkpt lat="42.71564" lon="19.66624">
        <ele>1340.6999511719</ele>
        <time>2024-09-22T15:34:39.000Z</time>
      </trkpt>
      <trkpt lat="42.7156" lon="19.66627">
        <ele>1341.1800537109</ele>
        <time>2024-09-22T15:34:40.000Z</time>
      </trkpt>
      <trkpt lat="42.71555" lon="19.66629">
        <ele>1341.6600341797</ele>
        <time>2024-09-22T15:34:41.000Z</time>
      </trkpt>
      <trkpt lat="42.71548" lon="19.6663">
        <ele>1342.1400146484</ele>
        <time>2024-09-22T15:34:43.000Z</time>
      </trkpt>
      <trkpt lat="42.71543" lon="19.66628">
        <ele>1342.6199951172</ele>
        <time>2024-09-22T15:34:44.000Z</time>
      </trkpt>
      <trkpt lat="42.71538" lon="19.66624">
        <ele>1343.0999755859</ele>
        <time>2024-09-22T15:34:45.000Z</time>
      </trkpt>
      <trkpt lat="42.71533" lon="19.66623">
        <ele>1343.5799560547</ele>
        <time>2024-09-22T15:34:46.000Z</time>
      </trkpt>
      <trkpt lat="42.71527" lon="19.66622">
        <ele>1344.0600585938</ele>
        <time>2024-09-22T15:34:47.000Z</time>
      </trkpt>
      <trkpt lat="42.71515" lon="19.66622">
        <ele>1345.0200195312</ele>
        <time>2024-09-22T15:34:48.000Z</time>
      </trkpt>
      <trkpt lat="42.71513" lon="19.66623">
        <ele>1345.0200195312</ele>
        <time>2024-09-22T15:34:49.000Z</time>
      </trkpt>
      <trkpt lat="42.71488" lon="19.66624">
        <ele>1346.4599609375</ele>
        <time>2024-09-22T15:34:51.000Z</time>
      </trkpt>
      <trkpt lat="42.71486" lon="19.66624">
        <ele>1346.4599609375</ele>
        <time>2024-09-22T15:34:52.000Z</time>
      </trkpt>
      <trkpt lat="42.71474" lon="19.66625">
        <ele>1347.4300537109</ele>
        <time>2024-09-22T15:34:53.000Z</time>
      </trkpt>
      <trkpt lat="42.71465" lon="19.66626">
        <ele>1347.9100341797</ele>
        <time>2024-09-22T15:34:54.000Z</time>
      </trkpt>
      <trkpt lat="42.71456" lon="19.66627">
        <ele>1348.8699951172</ele>
        <time>2024-09-22T15:34:55.000Z</time>
      </trkpt>
      <trkpt lat="42.71447" lon="19.66627">
        <ele>1349.3499755859</ele>
        <time>2024-09-22T15:34:56.000Z</time>
      </trkpt>
      <trkpt lat="42.71439" lon="19.66625">
        <ele>1349.8299560547</ele>
        <time>2024-09-22T15:34:57.000Z</time>
      </trkpt>
      <trkpt lat="42.71425" lon="19.66622">
        <ele>1350.7900390625</ele>
        <time>2024-09-22T15:34:58.000Z</time>
      </trkpt>
      <trkpt lat="42.71417" lon="19.66622">
        <ele>1351.2700195312</ele>
        <time>2024-09-22T15:34:59.000Z</time>
      </trkpt>
      <trkpt lat="42.71398" lon="19.66624">
        <ele>1352.7099609375</ele>
        <time>2024-09-22T15:35:01.000Z</time>
      </trkpt>
      <trkpt lat="42.71386" lon="19.66623">
        <ele>1353.1899414062</ele>
        <time>2024-09-22T15:35:02.000Z</time>
      </trkpt>
      <trkpt lat="42.71382" lon="19.66623">
        <ele>1352.7099609375</ele>
        <time>2024-09-22T15:35:03.000Z</time>
      </trkpt>
      <trkpt lat="42.71377" lon="19.66623">
        <ele>1352.7099609375</ele>
        <time>2024-09-22T15:35:04.000Z</time>
      </trkpt>
      <trkpt lat="42.71366" lon="19.66622">
        <ele>1354.1500244141</ele>
        <time>2024-09-22T15:35:06.000Z</time>
      </trkpt>
      <trkpt lat="42.71357" lon="19.66621">
        <ele>1353.6700439453</ele>
        <time>2024-09-22T15:35:07.000Z</time>
      </trkpt>
      <trkpt lat="42.71343" lon="19.6662">
        <ele>1353.6700439453</ele>
        <time>2024-09-22T15:35:08.000Z</time>
      </trkpt>
      <trkpt lat="42.71334" lon="19.6662">
        <ele>1354.1500244141</ele>
        <time>2024-09-22T15:35:09.000Z</time>
      </trkpt>
      <trkpt lat="42.71325" lon="19.66621">
        <ele>1353.6700439453</ele>
        <time>2024-09-22T15:35:10.000Z</time>
      </trkpt>
      <trkpt lat="42.71319" lon="19.66621">
        <ele>1353.6700439453</ele>
        <time>2024-09-22T15:35:11.000Z</time>
      </trkpt>
      <trkpt lat="42.71313" lon="19.6662">
        <ele>1353.6700439453</ele>
        <time>2024-09-22T15:35:12.000Z</time>
      </trkpt>
      <trkpt lat="42.71306" lon="19.66618">
        <ele>1353.1899414062</ele>
        <time>2024-09-22T15:35:13.000Z</time>
      </trkpt>
      <trkpt lat="42.71299" lon="19.66612">
        <ele>1353.1899414062</ele>
        <time>2024-09-22T15:35:14.000Z</time>
      </trkpt>
      <trkpt lat="42.71293" lon="19.66609">
        <ele>1352.7099609375</ele>
        <time>2024-09-22T15:35:15.000Z</time>
      </trkpt>
      <trkpt lat="42.71286" lon="19.66606">
        <ele>1353.1899414062</ele>
        <time>2024-09-22T15:35:16.000Z</time>
      </trkpt>
      <trkpt lat="42.71278" lon="19.66605">
        <ele>1352.7099609375</ele>
        <time>2024-09-22T15:35:17.000Z</time>
      </trkpt>
      <trkpt lat="42.7127" lon="19.66606">
        <ele>1351.75</ele>
        <time>2024-09-22T15:35:18.000Z</time>
      </trkpt>
      <trkpt lat="42.71258" lon="19.66608">
        <ele>1351.75</ele>
        <time>2024-09-22T15:35:19.000Z</time>
      </trkpt>
      <trkpt lat="42.71253" lon="19.66607">
        <ele>1351.75</ele>
        <time>2024-09-22T15:35:20.000Z</time>
      </trkpt>
      <trkpt lat="42.71245" lon="19.66606">
        <ele>1352.2299804688</ele>
        <time>2024-09-22T15:35:21.000Z</time>
      </trkpt>
      <trkpt lat="42.71236" lon="19.66602">
        <ele>1352.2299804688</ele>
        <time>2024-09-22T15:35:22.000Z</time>
      </trkpt>
      <trkpt lat="42.71227" lon="19.66596">
        <ele>1352.2299804688</ele>
        <time>2024-09-22T15:35:23.000Z</time>
      </trkpt>
      <trkpt lat="42.71219" lon="19.6659">
        <ele>1352.2299804688</ele>
        <time>2024-09-22T15:35:24.000Z</time>
      </trkpt>
      <trkpt lat="42.71211" lon="19.66584">
        <ele>1352.7099609375</ele>
        <time>2024-09-22T15:35:25.000Z</time>
      </trkpt>
      <trkpt lat="42.71204" lon="19.6658">
        <ele>1353.1899414062</ele>
        <time>2024-09-22T15:35:26.000Z</time>
      </trkpt>
      <trkpt lat="42.71192" lon="19.66577">
        <ele>1354.1500244141</ele>
        <time>2024-09-22T15:35:27.000Z</time>
      </trkpt>
      <trkpt lat="42.71188" lon="19.66577">
        <ele>1354.1500244141</ele>
        <time>2024-09-22T15:35:28.000Z</time>
      </trkpt>
      <trkpt lat="42.71178" lon="19.66577">
        <ele>1355.1199951172</ele>
        <time>2024-09-22T15:35:29.000Z</time>
      </trkpt>
      <trkpt lat="42.7117" lon="19.66577">
        <ele>1355.5999755859</ele>
        <time>2024-09-22T15:35:30.000Z</time>
      </trkpt>
      <trkpt lat="42.71161" lon="19.66579">
        <ele>1356.5600585938</ele>
        <time>2024-09-22T15:35:31.000Z</time>
      </trkpt>
      <trkpt lat="42.71151" lon="19.6658">
        <ele>1358</ele>
        <time>2024-09-22T15:35:32.000Z</time>
      </trkpt>
      <trkpt lat="42.71141" lon="19.66581">
        <ele>1358.4799804688</ele>
        <time>2024-09-22T15:35:33.000Z</time>
      </trkpt>
      <trkpt lat="42.71133" lon="19.66581">
        <ele>1359.9200439453</ele>
        <time>2024-09-22T15:35:34.000Z</time>
      </trkpt>
      <trkpt lat="42.71123" lon="19.66577">
        <ele>1361.8399658203</ele>
        <time>2024-09-22T15:35:35.000Z</time>
      </trkpt>
      <trkpt lat="42.71115" lon="19.66573">
        <ele>1362.8100585938</ele>
        <time>2024-09-22T15:35:36.000Z</time>
      </trkpt>
      <trkpt lat="42.71102" lon="19.66565">
        <ele>1363.7700195312</ele>
        <time>2024-09-22T15:35:37.000Z</time>
      </trkpt>
      <trkpt lat="42.71099" lon="19.66564">
        <ele>1363.7700195312</ele>
        <time>2024-09-22T15:35:38.000Z</time>
      </trkpt>
      <trkpt lat="42.71094" lon="19.66563">
        <ele>1363.7700195312</ele>
        <time>2024-09-22T15:35:39.000Z</time>
      </trkpt>
      <trkpt lat="42.71086" lon="19.66571">
        <ele>1365.6899414062</ele>
        <time>2024-09-22T15:35:41.000Z</time>
      </trkpt>
      <trkpt lat="42.71086" lon="19.66574">
        <ele>1365.6899414062</ele>
        <time>2024-09-22T15:35:42.000Z</time>
      </trkpt>
      <trkpt lat="42.71086" lon="19.66581">
        <ele>1366.1700439453</ele>
        <time>2024-09-22T15:35:43.000Z</time>
      </trkpt>
      <trkpt lat="42.71088" lon="19.6659">
        <ele>1366.6500244141</ele>
        <time>2024-09-22T15:35:44.000Z</time>
      </trkpt>
      <trkpt lat="42.71093" lon="19.66603">
        <ele>1367.6099853516</ele>
        <time>2024-09-22T15:35:45.000Z</time>
      </trkpt>
      <trkpt lat="42.71094" lon="19.66606">
        <ele>1367.6099853516</ele>
        <time>2024-09-22T15:35:46.000Z</time>
      </trkpt>
      <trkpt lat="42.71098" lon="19.66617">
        <ele>1368.0899658203</ele>
        <time>2024-09-22T15:35:47.000Z</time>
      </trkpt>
      <trkpt lat="42.71103" lon="19.66631">
        <ele>1368.5699462891</ele>
        <time>2024-09-22T15:35:48.000Z</time>
      </trkpt>
      <trkpt lat="42.71104" lon="19.66638">
        <ele>1368.5699462891</ele>
        <time>2024-09-22T15:35:49.000Z</time>
      </trkpt>
      <trkpt lat="42.71108" lon="19.66654">
        <ele>1368.5699462891</ele>
        <time>2024-09-22T15:35:50.000Z</time>
      </trkpt>
      <trkpt lat="42.71109" lon="19.66658">
        <ele>1368.5699462891</ele>
        <time>2024-09-22T15:35:51.000Z</time>
      </trkpt>
      <trkpt lat="42.71111" lon="19.66665">
        <ele>1369.0500488281</ele>
        <time>2024-09-22T15:35:52.000Z</time>
      </trkpt>
      <trkpt lat="42.71114" lon="19.66671">
        <ele>1369.5400390625</ele>
        <time>2024-09-22T15:35:53.000Z</time>
      </trkpt>
      <trkpt lat="42.71117" lon="19.66675">
        <ele>1370.0200195312</ele>
        <time>2024-09-22T15:35:54.000Z</time>
      </trkpt>
      <trkpt lat="42.71122" lon="19.66677">
        <ele>1370.5</ele>
        <time>2024-09-22T15:35:55.000Z</time>
      </trkpt>
      <trkpt lat="42.71128" lon="19.66678">
        <ele>1370.9799804688</ele>
        <time>2024-09-22T15:35:56.000Z</time>
      </trkpt>
      <trkpt lat="42.71134" lon="19.66679">
        <ele>1371.4599609375</ele>
        <time>2024-09-22T15:35:57.000Z</time>
      </trkpt>
      <trkpt lat="42.71148" lon="19.66683">
        <ele>1371.4599609375</ele>
        <time>2024-09-22T15:35:59.000Z</time>
      </trkpt>
      <trkpt lat="42.71157" lon="19.66683">
        <ele>1372.4200439453</ele>
        <time>2024-09-22T15:36:00.000Z</time>
      </trkpt>
      <trkpt lat="42.71159" lon="19.66683">
        <ele>1372.9000244141</ele>
        <time>2024-09-22T15:36:01.000Z</time>
      </trkpt>
      <trkpt lat="42.71164" lon="19.6668">
        <ele>1373.3800048828</ele>
        <time>2024-09-22T15:36:02.000Z</time>
      </trkpt>
      <trkpt lat="42.7117" lon="19.66677">
        <ele>1373.8599853516</ele>
        <time>2024-09-22T15:36:03.000Z</time>
      </trkpt>
      <trkpt lat="42.71184" lon="19.66673">
        <ele>1374.8199462891</ele>
        <time>2024-09-22T15:36:05.000Z</time>
      </trkpt>
      <trkpt lat="42.71191" lon="19.66671">
        <ele>1375.3000488281</ele>
        <time>2024-09-22T15:36:06.000Z</time>
      </trkpt>
      <trkpt lat="42.71199" lon="19.66672">
        <ele>1376.2600097656</ele>
        <time>2024-09-22T15:36:07.000Z</time>
      </trkpt>
      <trkpt lat="42.71213" lon="19.66675">
        <ele>1376.75</ele>
        <time>2024-09-22T15:36:09.000Z</time>
      </trkpt>
      <trkpt lat="42.71224" lon="19.66677">
        <ele>1377.7099609375</ele>
        <time>2024-09-22T15:36:10.000Z</time>
      </trkpt>
      <trkpt lat="42.71235" lon="19.6668">
        <ele>1378.6700439453</ele>
        <time>2024-09-22T15:36:11.000Z</time>
      </trkpt>
      <trkpt lat="42.71237" lon="19.66682">
        <ele>1378.6700439453</ele>
        <time>2024-09-22T15:36:12.000Z</time>
      </trkpt>
      <trkpt lat="42.71251" lon="19.66691">
        <ele>1379.6300048828</ele>
        <time>2024-09-22T15:36:14.000Z</time>
      </trkpt>
      <trkpt lat="42.71259" lon="19.66698">
        <ele>1380.1099853516</ele>
        <time>2024-09-22T15:36:15.000Z</time>
      </trkpt>
      <trkpt lat="42.7127" lon="19.66709">
        <ele>1381.0699462891</ele>
        <time>2024-09-22T15:36:17.000Z</time>
      </trkpt>
      <trkpt lat="42.71282" lon="19.66717">
        <ele>1381.5500488281</ele>
        <time>2024-09-22T15:36:18.000Z</time>
      </trkpt>
      <trkpt lat="42.71294" lon="19.66725">
        <ele>1382.0300292969</ele>
        <time>2024-09-22T15:36:19.000Z</time>
      </trkpt>
      <trkpt lat="42.71301" lon="19.66729">
        <ele>1382.9899902344</ele>
        <time>2024-09-22T15:36:20.000Z</time>
      </trkpt>
      <trkpt lat="42.71304" lon="19.66732">
        <ele>1383.4699707031</ele>
        <time>2024-09-22T15:36:21.000Z</time>
      </trkpt>
      <trkpt lat="42.71312" lon="19.6674">
        <ele>1384.4399414062</ele>
        <time>2024-09-22T15:36:22.000Z</time>
      </trkpt>
      <trkpt lat="42.71317" lon="19.66744">
        <ele>1384.9200439453</ele>
        <time>2024-09-22T15:36:23.000Z</time>
      </trkpt>
      <trkpt lat="42.71323" lon="19.66747">
        <ele>1385.8800048828</ele>
        <time>2024-09-22T15:36:24.000Z</time>
      </trkpt>
      <trkpt lat="42.71331" lon="19.66749">
        <ele>1386.8399658203</ele>
        <time>2024-09-22T15:36:25.000Z</time>
      </trkpt>
      <trkpt lat="42.71341" lon="19.66749">
        <ele>1388.2800292969</ele>
        <time>2024-09-22T15:36:26.000Z</time>
      </trkpt>
      <trkpt lat="42.71348" lon="19.6675">
        <ele>1388.7600097656</ele>
        <time>2024-09-22T15:36:27.000Z</time>
      </trkpt>
      <trkpt lat="42.71351" lon="19.66752">
        <ele>1389.7199707031</ele>
        <time>2024-09-22T15:36:28.000Z</time>
      </trkpt>
      <trkpt lat="42.71356" lon="19.66755">
        <ele>1391.1700439453</ele>
        <time>2024-09-22T15:36:29.000Z</time>
      </trkpt>
      <trkpt lat="42.71369" lon="19.66766">
        <ele>1395.0100097656</ele>
        <time>2024-09-22T15:36:33.000Z</time>
      </trkpt>
      <trkpt lat="42.71371" lon="19.66768">
        <ele>1395.4899902344</ele>
        <time>2024-09-22T15:36:34.000Z</time>
      </trkpt>
      <trkpt lat="42.71387" lon="19.6678">
        <ele>1397.8900146484</ele>
        <time>2024-09-22T15:36:36.000Z</time>
      </trkpt>
      <trkpt lat="42.71389" lon="19.66782">
        <ele>1397.8900146484</ele>
        <time>2024-09-22T15:36:37.000Z</time>
      </trkpt>
      <trkpt lat="42.71393" lon="19.66787">
        <ele>1399.3399658203</ele>
        <time>2024-09-22T15:36:38.000Z</time>
      </trkpt>
      <trkpt lat="42.714" lon="19.66801">
        <ele>1400.7800292969</ele>
        <time>2024-09-22T15:36:40.000Z</time>
      </trkpt>
      <trkpt lat="42.71403" lon="19.6681">
        <ele>1401.2600097656</ele>
        <time>2024-09-22T15:36:41.000Z</time>
      </trkpt>
      <trkpt lat="42.71405" lon="19.66817">
        <ele>1402.2199707031</ele>
        <time>2024-09-22T15:36:42.000Z</time>
      </trkpt>
      <trkpt lat="42.71408" lon="19.66827">
        <ele>1403.1800537109</ele>
        <time>2024-09-22T15:36:43.000Z</time>
      </trkpt>
      <trkpt lat="42.71411" lon="19.66834">
        <ele>1404.1400146484</ele>
        <time>2024-09-22T15:36:44.000Z</time>
      </trkpt>
      <trkpt lat="42.71415" lon="19.66844">
        <ele>1405.5799560547</ele>
        <time>2024-09-22T15:36:45.000Z</time>
      </trkpt>
      <trkpt lat="42.71417" lon="19.6685">
        <ele>1406.0699462891</ele>
        <time>2024-09-22T15:36:46.000Z</time>
      </trkpt>
      <trkpt lat="42.71422" lon="19.66859">
        <ele>1407.0300292969</ele>
        <time>2024-09-22T15:36:47.000Z</time>
      </trkpt>
      <trkpt lat="42.71425" lon="19.66864">
        <ele>1407.5100097656</ele>
        <time>2024-09-22T15:36:48.000Z</time>
      </trkpt>
      <trkpt lat="42.7143" lon="19.66873">
        <ele>1407.9899902344</ele>
        <time>2024-09-22T15:36:49.000Z</time>
      </trkpt>
      <trkpt lat="42.71433" lon="19.66878">
        <ele>1408.4699707031</ele>
        <time>2024-09-22T15:36:50.000Z</time>
      </trkpt>
      <trkpt lat="42.71437" lon="19.66882">
        <ele>1408.9499511719</ele>
        <time>2024-09-22T15:36:51.000Z</time>
      </trkpt>
      <trkpt lat="42.71444" lon="19.66884">
        <ele>1409.9100341797</ele>
        <time>2024-09-22T15:36:52.000Z</time>
      </trkpt>
      <trkpt lat="42.71445" lon="19.66884">
        <ele>1409.9100341797</ele>
        <time>2024-09-22T15:36:53.000Z</time>
      </trkpt>
      <trkpt lat="42.7145" lon="19.66882">
        <ele>1410.3900146484</ele>
        <time>2024-09-22T15:36:54.000Z</time>
      </trkpt>
      <trkpt lat="42.71454" lon="19.66877">
        <ele>1410.8699951172</ele>
        <time>2024-09-22T15:36:55.000Z</time>
      </trkpt>
      <trkpt lat="42.71457" lon="19.66872">
        <ele>1411.8299560547</ele>
        <time>2024-09-22T15:36:56.000Z</time>
      </trkpt>
      <trkpt lat="42.71462" lon="19.66862">
        <ele>1412.7900390625</ele>
        <time>2024-09-22T15:36:57.000Z</time>
      </trkpt>
      <trkpt lat="42.71464" lon="19.66858">
        <ele>1413.2800292969</ele>
        <time>2024-09-22T15:36:58.000Z</time>
      </trkpt>
      <trkpt lat="42.71472" lon="19.66851">
        <ele>1415.1999511719</ele>
        <time>2024-09-22T15:36:59.000Z</time>
      </trkpt>
      <trkpt lat="42.71477" lon="19.66847">
        <ele>1415.6800537109</ele>
        <time>2024-09-22T15:37:00.000Z</time>
      </trkpt>
      <trkpt lat="42.71484" lon="19.66843">
        <ele>1416.6400146484</ele>
        <time>2024-09-22T15:37:01.000Z</time>
      </trkpt>
      <trkpt lat="42.71497" lon="19.66839">
        <ele>1419.0400390625</ele>
        <time>2024-09-22T15:37:02.000Z</time>
      </trkpt>
      <trkpt lat="42.715" lon="19.66838">
        <ele>1419.0400390625</ele>
        <time>2024-09-22T15:37:03.000Z</time>
      </trkpt>
      <trkpt lat="42.71508" lon="19.66835">
        <ele>1420.4899902344</ele>
        <time>2024-09-22T15:37:04.000Z</time>
      </trkpt>
      <trkpt lat="42.71524" lon="19.66833">
        <ele>1421.9300537109</ele>
        <time>2024-09-22T15:37:05.000Z</time>
      </trkpt>
      <trkpt lat="42.71525" lon="19.66832">
        <ele>1422.4100341797</ele>
        <time>2024-09-22T15:37:06.000Z</time>
      </trkpt>
      <trkpt lat="42.71543" lon="19.66832">
        <ele>1422.4100341797</ele>
        <time>2024-09-22T15:37:08.000Z</time>
      </trkpt>
      <trkpt lat="42.71552" lon="19.66832">
        <ele>1422.8900146484</ele>
        <time>2024-09-22T15:37:09.000Z</time>
      </trkpt>
      <trkpt lat="42.71559" lon="19.66833">
        <ele>1423.3699951172</ele>
        <time>2024-09-22T15:37:10.000Z</time>
      </trkpt>
      <trkpt lat="42.71567" lon="19.66836">
        <ele>1423.8499755859</ele>
        <time>2024-09-22T15:37:11.000Z</time>
      </trkpt>
      <trkpt lat="42.71577" lon="19.66841">
        <ele>1424.8100585938</ele>
        <time>2024-09-22T15:37:12.000Z</time>
      </trkpt>
      <trkpt lat="42.71582" lon="19.66844">
        <ele>1424.8100585938</ele>
        <time>2024-09-22T15:37:13.000Z</time>
      </trkpt>
      <trkpt lat="42.71586" lon="19.66849">
        <ele>1425.7700195312</ele>
        <time>2024-09-22T15:37:14.000Z</time>
      </trkpt>
      <trkpt lat="42.71594" lon="19.66861">
        <ele>1426.7299804688</ele>
        <time>2024-09-22T15:37:15.000Z</time>
      </trkpt>
      <trkpt lat="42.71597" lon="19.66864">
        <ele>1426.7299804688</ele>
        <time>2024-09-22T15:37:16.000Z</time>
      </trkpt>
      <trkpt lat="42.71602" lon="19.66868">
        <ele>1427.6999511719</ele>
        <time>2024-09-22T15:37:17.000Z</time>
      </trkpt>
      <trkpt lat="42.71609" lon="19.6687">
        <ele>1428.1800537109</ele>
        <time>2024-09-22T15:37:18.000Z</time>
      </trkpt>
      <trkpt lat="42.71622" lon="19.6687">
        <ele>1429.6199951172</ele>
        <time>2024-09-22T15:37:19.000Z</time>
      </trkpt>
      <trkpt lat="42.71625" lon="19.6687">
        <ele>1430.0999755859</ele>
        <time>2024-09-22T15:37:20.000Z</time>
      </trkpt>
      <trkpt lat="42.71631" lon="19.66869">
        <ele>1430.5799560547</ele>
        <time>2024-09-22T15:37:21.000Z</time>
      </trkpt>
      <trkpt lat="42.71639" lon="19.66868">
        <ele>1431.0600585938</ele>
        <time>2024-09-22T15:37:22.000Z</time>
      </trkpt>
      <trkpt lat="42.71648" lon="19.66866">
        <ele>1432.5</ele>
        <time>2024-09-22T15:37:23.000Z</time>
      </trkpt>
      <trkpt lat="42.71653" lon="19.66866">
        <ele>1432.9799804688</ele>
        <time>2024-09-22T15:37:24.000Z</time>
      </trkpt>
      <trkpt lat="42.71654" lon="19.66866">
        <ele>1432.9799804688</ele>
        <time>2024-09-22T15:37:25.000Z</time>
      </trkpt>
      <trkpt lat="42.7166" lon="19.66866">
        <ele>1434.4200439453</ele>
        <time>2024-09-22T15:37:26.000Z</time>
      </trkpt>
      <trkpt lat="42.71664" lon="19.66865">
        <ele>1435.3900146484</ele>
        <time>2024-09-22T15:37:27.000Z</time>
      </trkpt>
      <trkpt lat="42.71669" lon="19.66864">
        <ele>1436.8299560547</ele>
        <time>2024-09-22T15:37:28.000Z</time>
      </trkpt>
      <trkpt lat="42.71674" lon="19.66863">
        <ele>1437.7900390625</ele>
        <time>2024-09-22T15:37:29.000Z</time>
      </trkpt>
      <trkpt lat="42.71678" lon="19.66863">
        <ele>1438.2700195312</ele>
        <time>2024-09-22T15:37:30.000Z</time>
      </trkpt>
      <trkpt lat="42.71683" lon="19.66863">
        <ele>1439.7099609375</ele>
        <time>2024-09-22T15:37:31.000Z</time>
      </trkpt>
      <trkpt lat="42.71687" lon="19.66863">
        <ele>1440.6700439453</ele>
        <time>2024-09-22T15:37:32.000Z</time>
      </trkpt>
      <trkpt lat="42.71693" lon="19.66863">
        <ele>1441.6300048828</ele>
        <time>2024-09-22T15:37:33.000Z</time>
      </trkpt>
      <trkpt lat="42.71697" lon="19.66862">
        <ele>1442.5999755859</ele>
        <time>2024-09-22T15:37:34.000Z</time>
      </trkpt>
      <trkpt lat="42.71702" lon="19.66861">
        <ele>1443.0799560547</ele>
        <time>2024-09-22T15:37:35.000Z</time>
      </trkpt>
      <trkpt lat="42.71708" lon="19.66858">
        <ele>1444.5200195312</ele>
        <time>2024-09-22T15:37:36.000Z</time>
      </trkpt>
      <trkpt lat="42.71713" lon="19.66856">
        <ele>1445</ele>
        <time>2024-09-22T15:37:37.000Z</time>
      </trkpt>
      <trkpt lat="42.71718" lon="19.66856">
        <ele>1445.4799804688</ele>
        <time>2024-09-22T15:37:38.000Z</time>
      </trkpt>
      <trkpt lat="42.71723" lon="19.66856">
        <ele>1446.9200439453</ele>
        <time>2024-09-22T15:37:39.000Z</time>
      </trkpt>
      <trkpt lat="42.71728" lon="19.66856">
        <ele>1447.8800048828</ele>
        <time>2024-09-22T15:37:40.000Z</time>
      </trkpt>
      <trkpt lat="42.71733" lon="19.66859">
        <ele>1448.3599853516</ele>
        <time>2024-09-22T15:37:41.000Z</time>
      </trkpt>
      <trkpt lat="42.71737" lon="19.66863">
        <ele>1449.8100585938</ele>
        <time>2024-09-22T15:37:42.000Z</time>
      </trkpt>
      <trkpt lat="42.71741" lon="19.66866">
        <ele>1450.7700195312</ele>
        <time>2024-09-22T15:37:43.000Z</time>
      </trkpt>
      <trkpt lat="42.71748" lon="19.66872">
        <ele>1452.6899414062</ele>
        <time>2024-09-22T15:37:44.000Z</time>
      </trkpt>
      <trkpt lat="42.71751" lon="19.66875">
        <ele>1452.2099609375</ele>
        <time>2024-09-22T15:37:45.000Z</time>
      </trkpt>
      <trkpt lat="42.71758" lon="19.66879">
        <ele>1452.2099609375</ele>
        <time>2024-09-22T15:37:46.000Z</time>
      </trkpt>
      <trkpt lat="42.71762" lon="19.66879">
        <ele>1452.6899414062</ele>
        <time>2024-09-22T15:37:47.000Z</time>
      </trkpt>
      <trkpt lat="42.71772" lon="19.66883">
        <ele>1453.6500244141</ele>
        <time>2024-09-22T15:37:48.000Z</time>
      </trkpt>
      <trkpt lat="42.71782" lon="19.66888">
        <ele>1454.6099853516</ele>
        <time>2024-09-22T15:37:49.000Z</time>
      </trkpt>
      <trkpt lat="42.7179" lon="19.66892">
        <ele>1455.5699462891</ele>
        <time>2024-09-22T15:37:50.000Z</time>
      </trkpt>
      <trkpt lat="42.718" lon="19.66898">
        <ele>1456.5300292969</ele>
        <time>2024-09-22T15:37:51.000Z</time>
      </trkpt>
      <trkpt lat="42.71806" lon="19.66903">
        <ele>1457.5</ele>
        <time>2024-09-22T15:37:52.000Z</time>
      </trkpt>
      <trkpt lat="42.71814" lon="19.66908">
        <ele>1457.9799804688</ele>
        <time>2024-09-22T15:37:53.000Z</time>
      </trkpt>
      <trkpt lat="42.71825" lon="19.66915">
        <ele>1459.4200439453</ele>
        <time>2024-09-22T15:37:54.000Z</time>
      </trkpt>
      <trkpt lat="42.71833" lon="19.66918">
        <ele>1459.4200439453</ele>
        <time>2024-09-22T15:37:55.000Z</time>
      </trkpt>
      <trkpt lat="42.71837" lon="19.66919">
        <ele>1459.9000244141</ele>
        <time>2024-09-22T15:37:56.000Z</time>
      </trkpt>
      <trkpt lat="42.71849" lon="19.66922">
        <ele>1460.8599853516</ele>
        <time>2024-09-22T15:37:57.000Z</time>
      </trkpt>
      <trkpt lat="42.71856" lon="19.66923">
        <ele>1461.3399658203</ele>
        <time>2024-09-22T15:37:58.000Z</time>
      </trkpt>
      <trkpt lat="42.71861" lon="19.66923">
        <ele>1461.8199462891</ele>
        <time>2024-09-22T15:37:59.000Z</time>
      </trkpt>
      <trkpt lat="42.71874" lon="19.66923">
        <ele>1463.2600097656</ele>
        <time>2024-09-22T15:38:00.000Z</time>
      </trkpt>
      <trkpt lat="42.71878" lon="19.66923">
        <ele>1463.7399902344</ele>
        <time>2024-09-22T15:38:01.000Z</time>
      </trkpt>
      <trkpt lat="42.71894" lon="19.66922">
        <ele>1465.1899414062</ele>
        <time>2024-09-22T15:38:03.000Z</time>
      </trkpt>
      <trkpt lat="42.71912" lon="19.66921">
        <ele>1468.0699462891</ele>
        <time>2024-09-22T15:38:05.000Z</time>
      </trkpt>
      <trkpt lat="42.71918" lon="19.66921">
        <ele>1469.0300292969</ele>
        <time>2024-09-22T15:38:06.000Z</time>
      </trkpt>
      <trkpt lat="42.7193" lon="19.66919">
        <ele>1470.4699707031</ele>
        <time>2024-09-22T15:38:07.000Z</time>
      </trkpt>
      <trkpt lat="42.71935" lon="19.66919">
        <ele>1470.9499511719</ele>
        <time>2024-09-22T15:38:08.000Z</time>
      </trkpt>
      <trkpt lat="42.71943" lon="19.66919">
        <ele>1472.4000244141</ele>
        <time>2024-09-22T15:38:09.000Z</time>
      </trkpt>
      <trkpt lat="42.71953" lon="19.66919">
        <ele>1472.4000244141</ele>
        <time>2024-09-22T15:38:10.000Z</time>
      </trkpt>
      <trkpt lat="42.71964" lon="19.6692">
        <ele>1471.4399414062</ele>
        <time>2024-09-22T15:38:11.000Z</time>
      </trkpt>
      <trkpt lat="42.71972" lon="19.6692">
        <ele>1471.4399414062</ele>
        <time>2024-09-22T15:38:12.000Z</time>
      </trkpt>
      <trkpt lat="42.71993" lon="19.66921">
        <ele>1471.9200439453</ele>
        <time>2024-09-22T15:38:14.000Z</time>
      </trkpt>
      <trkpt lat="42.71999" lon="19.66922">
        <ele>1471.9200439453</ele>
        <time>2024-09-22T15:38:15.000Z</time>
      </trkpt>
      <trkpt lat="42.72009" lon="19.66924">
        <ele>1472.4000244141</ele>
        <time>2024-09-22T15:38:16.000Z</time>
      </trkpt>
      <trkpt lat="42.72014" lon="19.66925">
        <ele>1473.3599853516</ele>
        <time>2024-09-22T15:38:17.000Z</time>
      </trkpt>
      <trkpt lat="42.72022" lon="19.66929">
        <ele>1473.8399658203</ele>
        <time>2024-09-22T15:38:18.000Z</time>
      </trkpt>
      <trkpt lat="42.72037" lon="19.66938">
        <ele>1475.7600097656</ele>
        <time>2024-09-22T15:38:19.000Z</time>
      </trkpt>
      <trkpt lat="42.72038" lon="19.6694">
        <ele>1475.7600097656</ele>
        <time>2024-09-22T15:38:20.000Z</time>
      </trkpt>
      <trkpt lat="42.72048" lon="19.66949">
        <ele>1476.7199707031</ele>
        <time>2024-09-22T15:38:21.000Z</time>
      </trkpt>
      <trkpt lat="42.72064" lon="19.66965">
        <ele>1477.6800537109</ele>
        <time>2024-09-22T15:38:23.000Z</time>
      </trkpt>
      <trkpt lat="42.72068" lon="19.6697">
        <ele>1478.1600341797</ele>
        <time>2024-09-22T15:38:24.000Z</time>
      </trkpt>
      <trkpt lat="42.72072" lon="19.66976">
        <ele>1478.6500244141</ele>
        <time>2024-09-22T15:38:25.000Z</time>
      </trkpt>
      <trkpt lat="42.72076" lon="19.66982">
        <ele>1479.1300048828</ele>
        <time>2024-09-22T15:38:26.000Z</time>
      </trkpt>
      <trkpt lat="42.72083" lon="19.66999">
        <ele>1478.6500244141</ele>
        <time>2024-09-22T15:38:28.000Z</time>
      </trkpt>
      <trkpt lat="42.72085" lon="19.67009">
        <ele>1478.6500244141</ele>
        <time>2024-09-22T15:38:29.000Z</time>
      </trkpt>
      <trkpt lat="42.72086" lon="19.67021">
        <ele>1479.6099853516</ele>
        <time>2024-09-22T15:38:30.000Z</time>
      </trkpt>
      <trkpt lat="42.72086" lon="19.67027">
        <ele>1480.0899658203</ele>
        <time>2024-09-22T15:38:31.000Z</time>
      </trkpt>
      <trkpt lat="42.72086" lon="19.67036">
        <ele>1480.0899658203</ele>
        <time>2024-09-22T15:38:32.000Z</time>
      </trkpt>
      <trkpt lat="42.72085" lon="19.67044">
        <ele>1480.5699462891</ele>
        <time>2024-09-22T15:38:33.000Z</time>
      </trkpt>
      <trkpt lat="42.72086" lon="19.6705">
        <ele>1481.0500488281</ele>
        <time>2024-09-22T15:38:34.000Z</time>
      </trkpt>
      <trkpt lat="42.72094" lon="19.67057">
        <ele>1483.4499511719</ele>
        <time>2024-09-22T15:38:36.000Z</time>
      </trkpt>
      <trkpt lat="42.72095" lon="19.67057">
        <ele>1483.4499511719</ele>
        <time>2024-09-22T15:38:37.000Z</time>
      </trkpt>
      <trkpt lat="42.72099" lon="19.67055">
        <ele>1483.4499511719</ele>
        <time>2024-09-22T15:38:38.000Z</time>
      </trkpt>
      <trkpt lat="42.72104" lon="19.67052">
        <ele>1483.9300537109</ele>
        <time>2024-09-22T15:38:39.000Z</time>
      </trkpt>
      <trkpt lat="42.72114" lon="19.67042">
        <ele>1485.3699951172</ele>
        <time>2024-09-22T15:38:40.000Z</time>
      </trkpt>
      <trkpt lat="42.72119" lon="19.67038">
        <ele>1485.8499755859</ele>
        <time>2024-09-22T15:38:41.000Z</time>
      </trkpt>
      <trkpt lat="42.72122" lon="19.67035">
        <ele>1486.8199462891</ele>
        <time>2024-09-22T15:38:42.000Z</time>
      </trkpt>
      <trkpt lat="42.7213" lon="19.6703">
        <ele>1487.3000488281</ele>
        <time>2024-09-22T15:38:43.000Z</time>
      </trkpt>
      <trkpt lat="42.72137" lon="19.67026">
        <ele>1488.7399902344</ele>
        <time>2024-09-22T15:38:44.000Z</time>
      </trkpt>
      <trkpt lat="42.72144" lon="19.67023">
        <ele>1489.6999511719</ele>
        <time>2024-09-22T15:38:45.000Z</time>
      </trkpt>
      <trkpt lat="42.72152" lon="19.67022">
        <ele>1490.1800537109</ele>
        <time>2024-09-22T15:38:46.000Z</time>
      </trkpt>
      <trkpt lat="42.72164" lon="19.6702">
        <ele>1492.0999755859</ele>
        <time>2024-09-22T15:38:47.000Z</time>
      </trkpt>
      <trkpt lat="42.72173" lon="19.67019">
        <ele>1493.0600585938</ele>
        <time>2024-09-22T15:38:48.000Z</time>
      </trkpt>
      <trkpt lat="42.72182" lon="19.67019">
        <ele>1494.0300292969</ele>
        <time>2024-09-22T15:38:49.000Z</time>
      </trkpt>
      <trkpt lat="42.72185" lon="19.67019">
        <ele>1494.5100097656</ele>
        <time>2024-09-22T15:38:50.000Z</time>
      </trkpt>
      <trkpt lat="42.72193" lon="19.67021">
        <ele>1495.9499511719</ele>
        <time>2024-09-22T15:38:51.000Z</time>
      </trkpt>
      <trkpt lat="42.72202" lon="19.67024">
        <ele>1496.4300537109</ele>
        <time>2024-09-22T15:38:52.000Z</time>
      </trkpt>
      <trkpt lat="42.72209" lon="19.67026">
        <ele>1497.3900146484</ele>
        <time>2024-09-22T15:38:53.000Z</time>
      </trkpt>
      <trkpt lat="42.72222" lon="19.6703">
        <ele>1498.3499755859</ele>
        <time>2024-09-22T15:38:54.000Z</time>
      </trkpt>
      <trkpt lat="42.72239" lon="19.67036">
        <ele>1500.2700195312</ele>
        <time>2024-09-22T15:38:56.000Z</time>
      </trkpt>
      <trkpt lat="42.72244" lon="19.67038">
        <ele>1500.7600097656</ele>
        <time>2024-09-22T15:38:57.000Z</time>
      </trkpt>
      <trkpt lat="42.72254" lon="19.67042">
        <ele>1500.2700195312</ele>
        <time>2024-09-22T15:38:58.000Z</time>
      </trkpt>
      <trkpt lat="42.72265" lon="19.67047">
        <ele>1501.7199707031</ele>
        <time>2024-09-22T15:38:59.000Z</time>
      </trkpt>
      <trkpt lat="42.72274" lon="19.67051">
        <ele>1502.6800537109</ele>
        <time>2024-09-22T15:39:00.000Z</time>
      </trkpt>
      <trkpt lat="42.72278" lon="19.67053">
        <ele>1503.1600341797</ele>
        <time>2024-09-22T15:39:01.000Z</time>
      </trkpt>
      <trkpt lat="42.72286" lon="19.67054">
        <ele>1503.6400146484</ele>
        <time>2024-09-22T15:39:02.000Z</time>
      </trkpt>
      <trkpt lat="42.72295" lon="19.67056">
        <ele>1504.5999755859</ele>
        <time>2024-09-22T15:39:03.000Z</time>
      </trkpt>
      <trkpt lat="42.72313" lon="19.6706">
        <ele>1506.5200195312</ele>
        <time>2024-09-22T15:39:05.000Z</time>
      </trkpt>
      <trkpt lat="42.72322" lon="19.67061">
        <ele>1507.9699707031</ele>
        <time>2024-09-22T15:39:06.000Z</time>
      </trkpt>
      <trkpt lat="42.72332" lon="19.67063">
        <ele>1508.9300537109</ele>
        <time>2024-09-22T15:39:07.000Z</time>
      </trkpt>
      <trkpt lat="42.72343" lon="19.67066">
        <ele>1510.8499755859</ele>
        <time>2024-09-22T15:39:08.000Z</time>
      </trkpt>
      <trkpt lat="42.72348" lon="19.67068">
        <ele>1511.3299560547</ele>
        <time>2024-09-22T15:39:09.000Z</time>
      </trkpt>
      <trkpt lat="42.7236" lon="19.67073">
        <ele>1513.25</ele>
        <time>2024-09-22T15:39:10.000Z</time>
      </trkpt>
      <trkpt lat="42.72365" lon="19.67077">
        <ele>1513.7299804688</ele>
        <time>2024-09-22T15:39:11.000Z</time>
      </trkpt>
      <trkpt lat="42.72374" lon="19.67082">
        <ele>1515.6600341797</ele>
        <time>2024-09-22T15:39:12.000Z</time>
      </trkpt>
      <trkpt lat="42.72383" lon="19.67087">
        <ele>1518.0600585938</ele>
        <time>2024-09-22T15:39:13.000Z</time>
      </trkpt>
      <trkpt lat="42.72383" lon="19.67088">
        <ele>1518.0600585938</ele>
        <time>2024-09-22T15:39:14.000Z</time>
      </trkpt>
      <trkpt lat="42.72396" lon="19.67097">
        <ele>1521.4200439453</ele>
        <time>2024-09-22T15:39:17.000Z</time>
      </trkpt>
      <trkpt lat="42.72397" lon="19.67098">
        <ele>1521.9000244141</ele>
        <time>2024-09-22T15:39:18.000Z</time>
      </trkpt>
      <trkpt lat="42.724" lon="19.67101">
        <ele>1522.8699951172</ele>
        <time>2024-09-22T15:39:19.000Z</time>
      </trkpt>
      <trkpt lat="42.72404" lon="19.67107">
        <ele>1524.3100585938</ele>
        <time>2024-09-22T15:39:20.000Z</time>
      </trkpt>
      <trkpt lat="42.72407" lon="19.67111">
        <ele>1524.7900390625</ele>
        <time>2024-09-22T15:39:21.000Z</time>
      </trkpt>
      <trkpt lat="42.72413" lon="19.67118">
        <ele>1526.7099609375</ele>
        <time>2024-09-22T15:39:22.000Z</time>
      </trkpt>
      <trkpt lat="42.72417" lon="19.67122">
        <ele>1527.1899414062</ele>
        <time>2024-09-22T15:39:23.000Z</time>
      </trkpt>
      <trkpt lat="42.72422" lon="19.67127">
        <ele>1528.1500244141</ele>
        <time>2024-09-22T15:39:24.000Z</time>
      </trkpt>
      <trkpt lat="42.72432" lon="19.67134">
        <ele>1528.6300048828</ele>
        <time>2024-09-22T15:39:25.000Z</time>
      </trkpt>
      <trkpt lat="42.72436" lon="19.67137">
        <ele>1529.5899658203</ele>
        <time>2024-09-22T15:39:26.000Z</time>
      </trkpt>
      <trkpt lat="42.72442" lon="19.67142">
        <ele>1530.0799560547</ele>
        <time>2024-09-22T15:39:27.000Z</time>
      </trkpt>
      <trkpt lat="42.72448" lon="19.67147">
        <ele>1530.5600585938</ele>
        <time>2024-09-22T15:39:28.000Z</time>
      </trkpt>
      <trkpt lat="42.72453" lon="19.67152">
        <ele>1531.5200195312</ele>
        <time>2024-09-22T15:39:29.000Z</time>
      </trkpt>
      <trkpt lat="42.72461" lon="19.67164">
        <ele>1532.4799804688</ele>
        <time>2024-09-22T15:39:30.000Z</time>
      </trkpt>
      <trkpt lat="42.72463" lon="19.67168">
        <ele>1532.4799804688</ele>
        <time>2024-09-22T15:39:31.000Z</time>
      </trkpt>
      <trkpt lat="42.72468" lon="19.6718">
        <ele>1533.9200439453</ele>
        <time>2024-09-22T15:39:32.000Z</time>
      </trkpt>
      <trkpt lat="42.72469" lon="19.67185">
        <ele>1534.4000244141</ele>
        <time>2024-09-22T15:39:33.000Z</time>
      </trkpt>
      <trkpt lat="42.72473" lon="19.67196">
        <ele>1535.8399658203</ele>
        <time>2024-09-22T15:39:34.000Z</time>
      </trkpt>
      <trkpt lat="42.72481" lon="19.67218">
        <ele>1537.2900390625</ele>
        <time>2024-09-22T15:39:36.000Z</time>
      </trkpt>
      <trkpt lat="42.72483" lon="19.67223">
        <ele>1537.7700195312</ele>
        <time>2024-09-22T15:39:37.000Z</time>
      </trkpt>
      <trkpt lat="42.72486" lon="19.67228">
        <ele>1538.7299804688</ele>
        <time>2024-09-22T15:39:38.000Z</time>
      </trkpt>
      <trkpt lat="42.72491" lon="19.67232">
        <ele>1539.2099609375</ele>
        <time>2024-09-22T15:39:39.000Z</time>
      </trkpt>
      <trkpt lat="42.72498" lon="19.67235">
        <ele>1540.6500244141</ele>
        <time>2024-09-22T15:39:40.000Z</time>
      </trkpt>
      <trkpt lat="42.72514" lon="19.67239">
        <ele>1544.5</ele>
        <time>2024-09-22T15:39:42.000Z</time>
      </trkpt>
      <trkpt lat="42.72516" lon="19.67241">
        <ele>1544.9799804688</ele>
        <time>2024-09-22T15:39:43.000Z</time>
      </trkpt>
      <trkpt lat="42.72522" lon="19.67245">
        <ele>1546.4200439453</ele>
        <time>2024-09-22T15:39:44.000Z</time>
      </trkpt>
      <trkpt lat="42.72525" lon="19.67247">
        <ele>1546.9000244141</ele>
        <time>2024-09-22T15:39:45.000Z</time>
      </trkpt>
      <trkpt lat="42.7253" lon="19.67248">
        <ele>1546.4200439453</ele>
        <time>2024-09-22T15:39:46.000Z</time>
      </trkpt>
      <trkpt lat="42.72535" lon="19.67244">
        <ele>1546.9000244141</ele>
        <time>2024-09-22T15:39:47.000Z</time>
      </trkpt>
      <trkpt lat="42.72541" lon="19.67238">
        <ele>1547.3800048828</ele>
        <time>2024-09-22T15:39:48.000Z</time>
      </trkpt>
      <trkpt lat="42.72545" lon="19.67233">
        <ele>1547.8599853516</ele>
        <time>2024-09-22T15:39:49.000Z</time>
      </trkpt>
      <trkpt lat="42.72551" lon="19.67228">
        <ele>1548.3399658203</ele>
        <time>2024-09-22T15:39:50.000Z</time>
      </trkpt>
      <trkpt lat="42.72558" lon="19.67223">
        <ele>1548.3399658203</ele>
        <time>2024-09-22T15:39:51.000Z</time>
      </trkpt>
      <trkpt lat="42.72568" lon="19.67217">
        <ele>1548.8199462891</ele>
        <time>2024-09-22T15:39:52.000Z</time>
      </trkpt>
      <trkpt lat="42.72576" lon="19.67215">
        <ele>1548.8199462891</ele>
        <time>2024-09-22T15:39:53.000Z</time>
      </trkpt>
      <trkpt lat="42.72586" lon="19.67212">
        <ele>1549.7800292969</ele>
        <time>2024-09-22T15:39:54.000Z</time>
      </trkpt>
      <trkpt lat="42.72591" lon="19.67212">
        <ele>1549.7800292969</ele>
        <time>2024-09-22T15:39:55.000Z</time>
      </trkpt>
      <trkpt lat="42.72601" lon="19.67213">
        <ele>1550.2600097656</ele>
        <time>2024-09-22T15:39:56.000Z</time>
      </trkpt>
      <trkpt lat="42.7261" lon="19.67215">
        <ele>1550.7399902344</ele>
        <time>2024-09-22T15:39:57.000Z</time>
      </trkpt>
      <trkpt lat="42.72617" lon="19.67218">
        <ele>1551.7099609375</ele>
        <time>2024-09-22T15:39:58.000Z</time>
      </trkpt>
      <trkpt lat="42.72623" lon="19.67222">
        <ele>1552.1899414062</ele>
        <time>2024-09-22T15:39:59.000Z</time>
      </trkpt>
      <trkpt lat="42.7263" lon="19.67229">
        <ele>1552.6700439453</ele>
        <time>2024-09-22T15:40:00.000Z</time>
      </trkpt>
      <trkpt lat="42.72637" lon="19.67235">
        <ele>1553.1500244141</ele>
        <time>2024-09-22T15:40:01.000Z</time>
      </trkpt>
      <trkpt lat="42.72648" lon="19.67243">
        <ele>1553.1500244141</ele>
        <time>2024-09-22T15:40:02.000Z</time>
      </trkpt>
      <trkpt lat="42.72655" lon="19.67249">
        <ele>1553.1500244141</ele>
        <time>2024-09-22T15:40:03.000Z</time>
      </trkpt>
      <trkpt lat="42.72658" lon="19.67251">
        <ele>1553.6300048828</ele>
        <time>2024-09-22T15:40:04.000Z</time>
      </trkpt>
      <trkpt lat="42.72665" lon="19.67258">
        <ele>1553.6300048828</ele>
        <time>2024-09-22T15:40:05.000Z</time>
      </trkpt>
      <trkpt lat="42.72672" lon="19.67267">
        <ele>1554.1099853516</ele>
        <time>2024-09-22T15:40:06.000Z</time>
      </trkpt>
      <trkpt lat="42.72681" lon="19.67279">
        <ele>1554.5899658203</ele>
        <time>2024-09-22T15:40:07.000Z</time>
      </trkpt>
      <trkpt lat="42.72692" lon="19.67301">
        <ele>1555.5500488281</ele>
        <time>2024-09-22T15:40:09.000Z</time>
      </trkpt>
      <trkpt lat="42.72695" lon="19.67306">
        <ele>1556.5100097656</ele>
        <time>2024-09-22T15:40:10.000Z</time>
      </trkpt>
      <trkpt lat="42.72703" lon="19.67323">
        <ele>1557.4699707031</ele>
        <time>2024-09-22T15:40:11.000Z</time>
      </trkpt>
      <trkpt lat="42.72707" lon="19.67331">
        <ele>1557.9499511719</ele>
        <time>2024-09-22T15:40:12.000Z</time>
      </trkpt>
      <trkpt lat="42.72712" lon="19.67344">
        <ele>1559.4000244141</ele>
        <time>2024-09-22T15:40:13.000Z</time>
      </trkpt>
      <trkpt lat="42.72716" lon="19.67355">
        <ele>1559.8800048828</ele>
        <time>2024-09-22T15:40:14.000Z</time>
      </trkpt>
      <trkpt lat="42.72723" lon="19.67376">
        <ele>1561.3199462891</ele>
        <time>2024-09-22T15:40:15.000Z</time>
      </trkpt>
      <trkpt lat="42.72732" lon="19.67405">
        <ele>1563.2399902344</ele>
        <time>2024-09-22T15:40:17.000Z</time>
      </trkpt>
      <trkpt lat="42.72733" lon="19.67409">
        <ele>1564.1999511719</ele>
        <time>2024-09-22T15:40:18.000Z</time>
      </trkpt>
      <trkpt lat="42.72739" lon="19.67429">
        <ele>1564.6800537109</ele>
        <time>2024-09-22T15:40:19.000Z</time>
      </trkpt>
      <trkpt lat="42.72743" lon="19.67446">
        <ele>1565.6400146484</ele>
        <time>2024-09-22T15:40:20.000Z</time>
      </trkpt>
      <trkpt lat="42.72745" lon="19.67455">
        <ele>1565.6400146484</ele>
        <time>2024-09-22T15:40:21.000Z</time>
      </trkpt>
      <trkpt lat="42.72747" lon="19.67469">
        <ele>1566.1199951172</ele>
        <time>2024-09-22T15:40:22.000Z</time>
      </trkpt>
      <trkpt lat="42.72748" lon="19.67489">
        <ele>1566.6099853516</ele>
        <time>2024-09-22T15:40:23.000Z</time>
      </trkpt>
      <trkpt lat="42.7275" lon="19.67504">
        <ele>1566.6099853516</ele>
        <time>2024-09-22T15:40:24.000Z</time>
      </trkpt>
      <trkpt lat="42.72753" lon="19.67523">
        <ele>1567.0899658203</ele>
        <time>2024-09-22T15:40:25.000Z</time>
      </trkpt>
      <trkpt lat="42.7276" lon="19.6755">
        <ele>1568.0500488281</ele>
        <time>2024-09-22T15:40:27.000Z</time>
      </trkpt>
      <trkpt lat="42.72763" lon="19.67564">
        <ele>1568.5300292969</ele>
        <time>2024-09-22T15:40:28.000Z</time>
      </trkpt>
      <trkpt lat="42.72763" lon="19.67569">
        <ele>1569.0100097656</ele>
        <time>2024-09-22T15:40:29.000Z</time>
      </trkpt>
      <trkpt lat="42.72763" lon="19.6758">
        <ele>1569.4899902344</ele>
        <time>2024-09-22T15:40:30.000Z</time>
      </trkpt>
      <trkpt lat="42.72764" lon="19.67596">
        <ele>1569.9699707031</ele>
        <time>2024-09-22T15:40:31.000Z</time>
      </trkpt>
      <trkpt lat="42.72763" lon="19.67603">
        <ele>1570.4499511719</ele>
        <time>2024-09-22T15:40:32.000Z</time>
      </trkpt>
      <trkpt lat="42.72762" lon="19.67615">
        <ele>1570.9300537109</ele>
        <time>2024-09-22T15:40:33.000Z</time>
      </trkpt>
      <trkpt lat="42.72759" lon="19.67623">
        <ele>1571.4100341797</ele>
        <time>2024-09-22T15:40:34.000Z</time>
      </trkpt>
      <trkpt lat="42.72755" lon="19.67632">
        <ele>1571.8900146484</ele>
        <time>2024-09-22T15:40:35.000Z</time>
      </trkpt>
      <trkpt lat="42.7275" lon="19.67639">
        <ele>1571.8900146484</ele>
        <time>2024-09-22T15:40:36.000Z</time>
      </trkpt>
      <trkpt lat="42.72744" lon="19.67645">
        <ele>1572.8499755859</ele>
        <time>2024-09-22T15:40:37.000Z</time>
      </trkpt>
      <trkpt lat="42.72738" lon="19.67649">
        <ele>1573.3299560547</ele>
        <time>2024-09-22T15:40:38.000Z</time>
      </trkpt>
      <trkpt lat="42.72729" lon="19.67656">
        <ele>1575.2600097656</ele>
        <time>2024-09-22T15:40:39.000Z</time>
      </trkpt>
      <trkpt lat="42.72724" lon="19.67661">
        <ele>1575.7399902344</ele>
        <time>2024-09-22T15:40:40.000Z</time>
      </trkpt>
      <trkpt lat="42.72715" lon="19.6767">
        <ele>1576.6999511719</ele>
        <time>2024-09-22T15:40:41.000Z</time>
      </trkpt>
      <trkpt lat="42.72708" lon="19.67677">
        <ele>1576.6999511719</ele>
        <time>2024-09-22T15:40:42.000Z</time>
      </trkpt>
      <trkpt lat="42.727" lon="19.67685">
        <ele>1576.6999511719</ele>
        <time>2024-09-22T15:40:43.000Z</time>
      </trkpt>
      <trkpt lat="42.72693" lon="19.67693">
        <ele>1576.6999511719</ele>
        <time>2024-09-22T15:40:44.000Z</time>
      </trkpt>
      <trkpt lat="42.72686" lon="19.67703">
        <ele>1576.6999511719</ele>
        <time>2024-09-22T15:40:45.000Z</time>
      </trkpt>
      <trkpt lat="42.72684" lon="19.67706">
        <ele>1576.6999511719</ele>
        <time>2024-09-22T15:40:46.000Z</time>
      </trkpt>
      <trkpt lat="42.7268" lon="19.67713">
        <ele>1576.6999511719</ele>
        <time>2024-09-22T15:40:47.000Z</time>
      </trkpt>
      <trkpt lat="42.72675" lon="19.67721">
        <ele>1577.1800537109</ele>
        <time>2024-09-22T15:40:48.000Z</time>
      </trkpt>
      <trkpt lat="42.72668" lon="19.67731">
        <ele>1577.1800537109</ele>
        <time>2024-09-22T15:40:49.000Z</time>
      </trkpt>
      <trkpt lat="42.72657" lon="19.67751">
        <ele>1578.1400146484</ele>
        <time>2024-09-22T15:40:51.000Z</time>
      </trkpt>
      <trkpt lat="42.7265" lon="19.67764">
        <ele>1578.6199951172</ele>
        <time>2024-09-22T15:40:53.000Z</time>
      </trkpt>
      <trkpt lat="42.72644" lon="19.67776">
        <ele>1579.0999755859</ele>
        <time>2024-09-22T15:40:54.000Z</time>
      </trkpt>
      <trkpt lat="42.72644" lon="19.67778">
        <ele>1579.0999755859</ele>
        <time>2024-09-22T15:40:55.000Z</time>
      </trkpt>
      <trkpt lat="42.72639" lon="19.67788">
        <ele>1579.5799560547</ele>
        <time>2024-09-22T15:40:56.000Z</time>
      </trkpt>
      <trkpt lat="42.72633" lon="19.67799">
        <ele>1579.5799560547</ele>
        <time>2024-09-22T15:40:57.000Z</time>
      </trkpt>
      <trkpt lat="42.72628" lon="19.67806">
        <ele>1580.0600585938</ele>
        <time>2024-09-22T15:40:58.000Z</time>
      </trkpt>
      <trkpt lat="42.72623" lon="19.67815">
        <ele>1580.5400390625</ele>
        <time>2024-09-22T15:40:59.000Z</time>
      </trkpt>
      <trkpt lat="42.72615" lon="19.67828">
        <ele>1581.9899902344</ele>
        <time>2024-09-22T15:41:00.000Z</time>
      </trkpt>
      <trkpt lat="42.72611" lon="19.67837">
        <ele>1581.9899902344</ele>
        <time>2024-09-22T15:41:01.000Z</time>
      </trkpt>
      <trkpt lat="42.72604" lon="19.67851">
        <ele>1582.4699707031</ele>
        <time>2024-09-22T15:41:02.000Z</time>
      </trkpt>
      <trkpt lat="42.72597" lon="19.67865">
        <ele>1583.4300537109</ele>
        <time>2024-09-22T15:41:04.000Z</time>
      </trkpt>
      <trkpt lat="42.72588" lon="19.67885">
        <ele>1583.9100341797</ele>
        <time>2024-09-22T15:41:06.000Z</time>
      </trkpt>
      <trkpt lat="42.72583" lon="19.67895">
        <ele>1583.4300537109</ele>
        <time>2024-09-22T15:41:07.000Z</time>
      </trkpt>
      <trkpt lat="42.72572" lon="19.67914">
        <ele>1583.4300537109</ele>
        <time>2024-09-22T15:41:09.000Z</time>
      </trkpt>
      <trkpt lat="42.72568" lon="19.67922">
        <ele>1583.9100341797</ele>
        <time>2024-09-22T15:41:10.000Z</time>
      </trkpt>
      <trkpt lat="42.72565" lon="19.67928">
        <ele>1583.9100341797</ele>
        <time>2024-09-22T15:41:11.000Z</time>
      </trkpt>
      <trkpt lat="42.72558" lon="19.67943">
        <ele>1582.9499511719</ele>
        <time>2024-09-22T15:41:12.000Z</time>
      </trkpt>
      <trkpt lat="42.72557" lon="19.67946">
        <ele>1583.4300537109</ele>
        <time>2024-09-22T15:41:13.000Z</time>
      </trkpt>
      <trkpt lat="42.72553" lon="19.67953">
        <ele>1582.9499511719</ele>
        <time>2024-09-22T15:41:14.000Z</time>
      </trkpt>
      <trkpt lat="42.72548" lon="19.67959">
        <ele>1582.9499511719</ele>
        <time>2024-09-22T15:41:15.000Z</time>
      </trkpt>
      <trkpt lat="42.72537" lon="19.67968">
        <ele>1582.4699707031</ele>
        <time>2024-09-22T15:41:16.000Z</time>
      </trkpt>
      <trkpt lat="42.72533" lon="19.6797">
        <ele>1581.5100097656</ele>
        <time>2024-09-22T15:41:17.000Z</time>
      </trkpt>
      <trkpt lat="42.72526" lon="19.67976">
        <ele>1581.0300292969</ele>
        <time>2024-09-22T15:41:18.000Z</time>
      </trkpt>
      <trkpt lat="42.72521" lon="19.67981">
        <ele>1580.5400390625</ele>
        <time>2024-09-22T15:41:19.000Z</time>
      </trkpt>
      <trkpt lat="42.72513" lon="19.67992">
        <ele>1580.0600585938</ele>
        <time>2024-09-22T15:41:20.000Z</time>
      </trkpt>
      <trkpt lat="42.7251" lon="19.67998">
        <ele>1580.0600585938</ele>
        <time>2024-09-22T15:41:21.000Z</time>
      </trkpt>
      <trkpt lat="42.72505" lon="19.68004">
        <ele>1579.5799560547</ele>
        <time>2024-09-22T15:41:22.000Z</time>
      </trkpt>
      <trkpt lat="42.72498" lon="19.68011">
        <ele>1578.6199951172</ele>
        <time>2024-09-22T15:41:23.000Z</time>
      </trkpt>
      <trkpt lat="42.72491" lon="19.68017">
        <ele>1577.1800537109</ele>
        <time>2024-09-22T15:41:24.000Z</time>
      </trkpt>
      <trkpt lat="42.72484" lon="19.68021">
        <ele>1575.7399902344</ele>
        <time>2024-09-22T15:41:25.000Z</time>
      </trkpt>
      <trkpt lat="42.72477" lon="19.68023">
        <ele>1575.7399902344</ele>
        <time>2024-09-22T15:41:26.000Z</time>
      </trkpt>
      <trkpt lat="42.72467" lon="19.68026">
        <ele>1574.7800292969</ele>
        <time>2024-09-22T15:41:27.000Z</time>
      </trkpt>
      <trkpt lat="42.72464" lon="19.68027">
        <ele>1574.3000488281</ele>
        <time>2024-09-22T15:41:28.000Z</time>
      </trkpt>
      <trkpt lat="42.72459" lon="19.6803">
        <ele>1573.3299560547</ele>
        <time>2024-09-22T15:41:29.000Z</time>
      </trkpt>
      <trkpt lat="42.72454" lon="19.6804">
        <ele>1572.3699951172</ele>
        <time>2024-09-22T15:41:31.000Z</time>
      </trkpt>
      <trkpt lat="42.72453" lon="19.68044">
        <ele>1572.3699951172</ele>
        <time>2024-09-22T15:41:32.000Z</time>
      </trkpt>
      <trkpt lat="42.72451" lon="19.68054">
        <ele>1571.8900146484</ele>
        <time>2024-09-22T15:41:33.000Z</time>
      </trkpt>
      <trkpt lat="42.72451" lon="19.68058">
        <ele>1571.8900146484</ele>
        <time>2024-09-22T15:41:34.000Z</time>
      </trkpt>
      <trkpt lat="42.72449" lon="19.68068">
        <ele>1571.4100341797</ele>
        <time>2024-09-22T15:41:35.000Z</time>
      </trkpt>
      <trkpt lat="42.72448" lon="19.68074">
        <ele>1570.9300537109</ele>
        <time>2024-09-22T15:41:36.000Z</time>
      </trkpt>
      <trkpt lat="42.72446" lon="19.68081">
        <ele>1570.9300537109</ele>
        <time>2024-09-22T15:41:37.000Z</time>
      </trkpt>
      <trkpt lat="42.72443" lon="19.68088">
        <ele>1570.9300537109</ele>
        <time>2024-09-22T15:41:38.000Z</time>
      </trkpt>
      <trkpt lat="42.72438" lon="19.681">
        <ele>1571.4100341797</ele>
        <time>2024-09-22T15:41:39.000Z</time>
      </trkpt>
      <trkpt lat="42.72436" lon="19.68106">
        <ele>1571.4100341797</ele>
        <time>2024-09-22T15:41:40.000Z</time>
      </trkpt>
      <trkpt lat="42.72434" lon="19.68116">
        <ele>1571.4100341797</ele>
        <time>2024-09-22T15:41:41.000Z</time>
      </trkpt>
      <trkpt lat="42.72432" lon="19.68123">
        <ele>1570.9300537109</ele>
        <time>2024-09-22T15:41:42.000Z</time>
      </trkpt>
      <trkpt lat="42.72429" lon="19.68134">
        <ele>1571.4100341797</ele>
        <time>2024-09-22T15:41:43.000Z</time>
      </trkpt>
      <trkpt lat="42.72428" lon="19.68139">
        <ele>1571.4100341797</ele>
        <time>2024-09-22T15:41:44.000Z</time>
      </trkpt>
      <trkpt lat="42.72425" lon="19.68146">
        <ele>1570.9300537109</ele>
        <time>2024-09-22T15:41:45.000Z</time>
      </trkpt>
      <trkpt lat="42.72422" lon="19.68152">
        <ele>1570.9300537109</ele>
        <time>2024-09-22T15:41:46.000Z</time>
      </trkpt>
      <trkpt lat="42.72418" lon="19.68156">
        <ele>1570.9300537109</ele>
        <time>2024-09-22T15:41:47.000Z</time>
      </trkpt>
      <trkpt lat="42.72414" lon="19.68159">
        <ele>1570.4499511719</ele>
        <time>2024-09-22T15:41:48.000Z</time>
      </trkpt>
      <trkpt lat="42.72406" lon="19.68163">
        <ele>1570.4499511719</ele>
        <time>2024-09-22T15:41:49.000Z</time>
      </trkpt>
      <trkpt lat="42.72404" lon="19.68164">
        <ele>1570.4499511719</ele>
        <time>2024-09-22T15:41:50.000Z</time>
      </trkpt>
      <trkpt lat="42.72401" lon="19.68168">
        <ele>1569.4899902344</ele>
        <time>2024-09-22T15:41:51.000Z</time>
      </trkpt>
      <trkpt lat="42.72398" lon="19.68173">
        <ele>1569.4899902344</ele>
        <time>2024-09-22T15:41:52.000Z</time>
      </trkpt>
      <trkpt lat="42.72397" lon="19.68179">
        <ele>1569.9699707031</ele>
        <time>2024-09-22T15:41:53.000Z</time>
      </trkpt>
      <trkpt lat="42.72396" lon="19.68185">
        <ele>1569.9699707031</ele>
        <time>2024-09-22T15:41:54.000Z</time>
      </trkpt>
      <trkpt lat="42.72396" lon="19.68193">
        <ele>1569.9699707031</ele>
        <time>2024-09-22T15:41:55.000Z</time>
      </trkpt>
      <trkpt lat="42.72395" lon="19.68198">
        <ele>1570.4499511719</ele>
        <time>2024-09-22T15:41:56.000Z</time>
      </trkpt>
      <trkpt lat="42.72394" lon="19.68206">
        <ele>1569.9699707031</ele>
        <time>2024-09-22T15:41:57.000Z</time>
      </trkpt>
      <trkpt lat="42.72391" lon="19.68222">
        <ele>1570.4499511719</ele>
        <time>2024-09-22T15:41:59.000Z</time>
      </trkpt>
      <trkpt lat="42.72387" lon="19.68237">
        <ele>1569.9699707031</ele>
        <time>2024-09-22T15:42:00.000Z</time>
      </trkpt>
      <trkpt lat="42.72385" lon="19.68246">
        <ele>1569.9699707031</ele>
        <time>2024-09-22T15:42:01.000Z</time>
      </trkpt>
      <trkpt lat="42.72385" lon="19.68248">
        <ele>1569.9699707031</ele>
        <time>2024-09-22T15:42:02.000Z</time>
      </trkpt>
      <trkpt lat="42.72383" lon="19.68261">
        <ele>1569.9699707031</ele>
        <time>2024-09-22T15:42:03.000Z</time>
      </trkpt>
      <trkpt lat="42.72382" lon="19.68263">
        <ele>1570.4499511719</ele>
        <time>2024-09-22T15:42:04.000Z</time>
      </trkpt>
      <trkpt lat="42.7238" lon="19.68274">
        <ele>1570.4499511719</ele>
        <time>2024-09-22T15:42:05.000Z</time>
      </trkpt>
      <trkpt lat="42.72378" lon="19.68281">
        <ele>1570.9300537109</ele>
        <time>2024-09-22T15:42:06.000Z</time>
      </trkpt>
      <trkpt lat="42.72376" lon="19.68296">
        <ele>1571.8900146484</ele>
        <time>2024-09-22T15:42:08.000Z</time>
      </trkpt>
      <trkpt lat="42.72376" lon="19.68304">
        <ele>1571.8900146484</ele>
        <time>2024-09-22T15:42:09.000Z</time>
      </trkpt>
      <trkpt lat="42.72375" lon="19.68315">
        <ele>1571.4100341797</ele>
        <time>2024-09-22T15:42:10.000Z</time>
      </trkpt>
      <trkpt lat="42.72372" lon="19.68324">
        <ele>1571.4100341797</ele>
        <time>2024-09-22T15:42:11.000Z</time>
      </trkpt>
      <trkpt lat="42.72369" lon="19.68333">
        <ele>1571.4100341797</ele>
        <time>2024-09-22T15:42:12.000Z</time>
      </trkpt>
      <trkpt lat="42.72365" lon="19.68343">
        <ele>1571.4100341797</ele>
        <time>2024-09-22T15:42:13.000Z</time>
      </trkpt>
      <trkpt lat="42.72362" lon="19.68353">
        <ele>1570.9300537109</ele>
        <time>2024-09-22T15:42:14.000Z</time>
      </trkpt>
      <trkpt lat="42.72359" lon="19.68359">
        <ele>1570.9300537109</ele>
        <time>2024-09-22T15:42:15.000Z</time>
      </trkpt>
      <trkpt lat="42.72357" lon="19.68365">
        <ele>1571.4100341797</ele>
        <time>2024-09-22T15:42:16.000Z</time>
      </trkpt>
      <trkpt lat="42.72354" lon="19.68373">
        <ele>1571.8900146484</ele>
        <time>2024-09-22T15:42:17.000Z</time>
      </trkpt>
      <trkpt lat="42.7235" lon="19.68381">
        <ele>1572.8499755859</ele>
        <time>2024-09-22T15:42:18.000Z</time>
      </trkpt>
      <trkpt lat="42.72346" lon="19.68389">
        <ele>1573.3299560547</ele>
        <time>2024-09-22T15:42:19.000Z</time>
      </trkpt>
      <trkpt lat="42.72336" lon="19.68405">
        <ele>1573.8199462891</ele>
        <time>2024-09-22T15:42:21.000Z</time>
      </trkpt>
      <trkpt lat="42.72332" lon="19.6841">
        <ele>1574.3000488281</ele>
        <time>2024-09-22T15:42:22.000Z</time>
      </trkpt>
      <trkpt lat="42.72331" lon="19.68432">
        <ele>1577.6600341797</ele>
        <time>2024-09-22T15:42:29.000Z</time>
      </trkpt>
      <trkpt lat="42.72335" lon="19.68432">
        <ele>1578.1400146484</ele>
        <time>2024-09-22T15:42:30.000Z</time>
      </trkpt>
      <trkpt lat="42.72338" lon="19.68432">
        <ele>1578.1400146484</ele>
        <time>2024-09-22T15:42:31.000Z</time>
      </trkpt>
      <trkpt lat="42.72344" lon="19.68431">
        <ele>1578.1400146484</ele>
        <time>2024-09-22T15:42:32.000Z</time>
      </trkpt>
      <trkpt lat="42.72349" lon="19.68431">
        <ele>1578.1400146484</ele>
        <time>2024-09-22T15:42:33.000Z</time>
      </trkpt>
      <trkpt lat="42.72353" lon="19.6843">
        <ele>1578.1400146484</ele>
        <time>2024-09-22T15:42:34.000Z</time>
      </trkpt>
      <trkpt lat="42.72359" lon="19.68429">
        <ele>1577.6600341797</ele>
        <time>2024-09-22T15:42:35.000Z</time>
      </trkpt>
      <trkpt lat="42.72367" lon="19.68427">
        <ele>1577.6600341797</ele>
        <time>2024-09-22T15:42:36.000Z</time>
      </trkpt>
      <trkpt lat="42.7237" lon="19.68427">
        <ele>1577.6600341797</ele>
        <time>2024-09-22T15:42:37.000Z</time>
      </trkpt>
      <trkpt lat="42.72376" lon="19.68427">
        <ele>1578.1400146484</ele>
        <time>2024-09-22T15:42:38.000Z</time>
      </trkpt>
      <trkpt lat="42.72382" lon="19.68425">
        <ele>1578.1400146484</ele>
        <time>2024-09-22T15:42:39.000Z</time>
      </trkpt>
      <trkpt lat="42.72385" lon="19.68424">
        <ele>1578.1400146484</ele>
        <time>2024-09-22T15:42:40.000Z</time>
      </trkpt>
      <trkpt lat="42.72391" lon="19.68421">
        <ele>1577.1800537109</ele>
        <time>2024-09-22T15:42:41.000Z</time>
      </trkpt>
      <trkpt lat="42.72397" lon="19.68418">
        <ele>1576.2199707031</ele>
        <time>2024-09-22T15:42:42.000Z</time>
      </trkpt>
      <trkpt lat="42.72406" lon="19.68414">
        <ele>1575.2600097656</ele>
        <time>2024-09-22T15:42:43.000Z</time>
      </trkpt>
      <trkpt lat="42.72411" lon="19.68411">
        <ele>1574.7800292969</ele>
        <time>2024-09-22T15:42:44.000Z</time>
      </trkpt>
      <trkpt lat="42.7242" lon="19.68409">
        <ele>1573.3299560547</ele>
        <time>2024-09-22T15:42:45.000Z</time>
      </trkpt>
      <trkpt lat="42.7243" lon="19.68404">
        <ele>1573.3299560547</ele>
        <time>2024-09-22T15:42:46.000Z</time>
      </trkpt>
      <trkpt lat="42.72436" lon="19.68402">
        <ele>1572.8499755859</ele>
        <time>2024-09-22T15:42:47.000Z</time>
      </trkpt>
      <trkpt lat="42.72448" lon="19.68398">
        <ele>1572.8499755859</ele>
        <time>2024-09-22T15:42:48.000Z</time>
      </trkpt>
      <trkpt lat="42.72454" lon="19.68395">
        <ele>1573.3299560547</ele>
        <time>2024-09-22T15:42:49.000Z</time>
      </trkpt>
      <trkpt lat="42.72464" lon="19.68392">
        <ele>1572.8499755859</ele>
        <time>2024-09-22T15:42:50.000Z</time>
      </trkpt>
      <trkpt lat="42.72477" lon="19.68388">
        <ele>1572.3699951172</ele>
        <time>2024-09-22T15:42:52.000Z</time>
      </trkpt>
      <trkpt lat="42.72488" lon="19.68385">
        <ele>1572.3699951172</ele>
        <time>2024-09-22T15:42:53.000Z</time>
      </trkpt>
      <trkpt lat="42.7249" lon="19.68385">
        <ele>1572.3699951172</ele>
        <time>2024-09-22T15:42:54.000Z</time>
      </trkpt>
      <trkpt lat="42.725" lon="19.68384">
        <ele>1572.8499755859</ele>
        <time>2024-09-22T15:42:55.000Z</time>
      </trkpt>
      <trkpt lat="42.72508" lon="19.68383">
        <ele>1572.8499755859</ele>
        <time>2024-09-22T15:42:56.000Z</time>
      </trkpt>
      <trkpt lat="42.72512" lon="19.68384">
        <ele>1573.3299560547</ele>
        <time>2024-09-22T15:42:57.000Z</time>
      </trkpt>
      <trkpt lat="42.72519" lon="19.68386">
        <ele>1573.8199462891</ele>
        <time>2024-09-22T15:42:58.000Z</time>
      </trkpt>
      <trkpt lat="42.72533" lon="19.68392">
        <ele>1574.3000488281</ele>
        <time>2024-09-22T15:42:59.000Z</time>
      </trkpt>
      <trkpt lat="42.72534" lon="19.68392">
        <ele>1574.3000488281</ele>
        <time>2024-09-22T15:43:00.000Z</time>
      </trkpt>
      <trkpt lat="42.72544" lon="19.68398">
        <ele>1575.2600097656</ele>
        <time>2024-09-22T15:43:01.000Z</time>
      </trkpt>
      <trkpt lat="42.72549" lon="19.68401">
        <ele>1575.7399902344</ele>
        <time>2024-09-22T15:43:02.000Z</time>
      </trkpt>
      <trkpt lat="42.72552" lon="19.68403">
        <ele>1575.7399902344</ele>
        <time>2024-09-22T15:43:03.000Z</time>
      </trkpt>
      <trkpt lat="42.72561" lon="19.68412">
        <ele>1576.2199707031</ele>
        <time>2024-09-22T15:43:04.000Z</time>
      </trkpt>
      <trkpt lat="42.72573" lon="19.68425">
        <ele>1574.7800292969</ele>
        <time>2024-09-22T15:43:06.000Z</time>
      </trkpt>
      <trkpt lat="42.72583" lon="19.68437">
        <ele>1574.3000488281</ele>
        <time>2024-09-22T15:43:07.000Z</time>
      </trkpt>
      <trkpt lat="42.72599" lon="19.68456">
        <ele>1573.8199462891</ele>
        <time>2024-09-22T15:43:09.000Z</time>
      </trkpt>
      <trkpt lat="42.72605" lon="19.68462">
        <ele>1573.8199462891</ele>
        <time>2024-09-22T15:43:10.000Z</time>
      </trkpt>
      <trkpt lat="42.72613" lon="19.6847">
        <ele>1573.8199462891</ele>
        <time>2024-09-22T15:43:11.000Z</time>
      </trkpt>
      <trkpt lat="42.72621" lon="19.68478">
        <ele>1573.8199462891</ele>
        <time>2024-09-22T15:43:12.000Z</time>
      </trkpt>
      <trkpt lat="42.72627" lon="19.68484">
        <ele>1573.8199462891</ele>
        <time>2024-09-22T15:43:13.000Z</time>
      </trkpt>
      <trkpt lat="42.72635" lon="19.6849">
        <ele>1574.3000488281</ele>
        <time>2024-09-22T15:43:14.000Z</time>
      </trkpt>
      <trkpt lat="42.72646" lon="19.68499">
        <ele>1575.2600097656</ele>
        <time>2024-09-22T15:43:15.000Z</time>
      </trkpt>
      <trkpt lat="42.72657" lon="19.68508">
        <ele>1575.7399902344</ele>
        <time>2024-09-22T15:43:16.000Z</time>
      </trkpt>
      <trkpt lat="42.72665" lon="19.68514">
        <ele>1577.1800537109</ele>
        <time>2024-09-22T15:43:17.000Z</time>
      </trkpt>
      <trkpt lat="42.72669" lon="19.68519">
        <ele>1578.1400146484</ele>
        <time>2024-09-22T15:43:18.000Z</time>
      </trkpt>
      <trkpt lat="42.72677" lon="19.68531">
        <ele>1578.1400146484</ele>
        <time>2024-09-22T15:43:19.000Z</time>
      </trkpt>
      <trkpt lat="42.72682" lon="19.68539">
        <ele>1578.6199951172</ele>
        <time>2024-09-22T15:43:20.000Z</time>
      </trkpt>
      <trkpt lat="42.72686" lon="19.68548">
        <ele>1579.0999755859</ele>
        <time>2024-09-22T15:43:21.000Z</time>
      </trkpt>
      <trkpt lat="42.72696" lon="19.6857">
        <ele>1579.5799560547</ele>
        <time>2024-09-22T15:43:22.000Z</time>
      </trkpt>
      <trkpt lat="42.72698" lon="19.68575">
        <ele>1580.0600585938</ele>
        <time>2024-09-22T15:43:23.000Z</time>
      </trkpt>
      <trkpt lat="42.72701" lon="19.68583">
        <ele>1580.5400390625</ele>
        <time>2024-09-22T15:43:24.000Z</time>
      </trkpt>
      <trkpt lat="42.72706" lon="19.68591">
        <ele>1581.0300292969</ele>
        <time>2024-09-22T15:43:25.000Z</time>
      </trkpt>
      <trkpt lat="42.72711" lon="19.68601">
        <ele>1581.9899902344</ele>
        <time>2024-09-22T15:43:26.000Z</time>
      </trkpt>
      <trkpt lat="42.72716" lon="19.68609">
        <ele>1581.9899902344</ele>
        <time>2024-09-22T15:43:27.000Z</time>
      </trkpt>
      <trkpt lat="42.7272" lon="19.68615">
        <ele>1581.9899902344</ele>
        <time>2024-09-22T15:43:28.000Z</time>
      </trkpt>
      <trkpt lat="42.72731" lon="19.68629">
        <ele>1582.9499511719</ele>
        <time>2024-09-22T15:43:30.000Z</time>
      </trkpt>
      <trkpt lat="42.72748" lon="19.68653">
        <ele>1584.8699951172</ele>
        <time>2024-09-22T15:43:32.000Z</time>
      </trkpt>
      <trkpt lat="42.72751" lon="19.68658">
        <ele>1585.3499755859</ele>
        <time>2024-09-22T15:43:33.000Z</time>
      </trkpt>
      <trkpt lat="42.72759" lon="19.68672">
        <ele>1586.7900390625</ele>
        <time>2024-09-22T15:43:34.000Z</time>
      </trkpt>
      <trkpt lat="42.72761" lon="19.68676">
        <ele>1587.2700195312</ele>
        <time>2024-09-22T15:43:35.000Z</time>
      </trkpt>
      <trkpt lat="42.72765" lon="19.68681">
        <ele>1587.75</ele>
        <time>2024-09-22T15:43:36.000Z</time>
      </trkpt>
      <trkpt lat="42.7277" lon="19.68687">
        <ele>1588.7199707031</ele>
        <time>2024-09-22T15:43:37.000Z</time>
      </trkpt>
      <trkpt lat="42.72777" lon="19.68691">
        <ele>1590.1600341797</ele>
        <time>2024-09-22T15:43:38.000Z</time>
      </trkpt>
      <trkpt lat="42.72784" lon="19.68695">
        <ele>1591.1199951172</ele>
        <time>2024-09-22T15:43:39.000Z</time>
      </trkpt>
      <trkpt lat="42.72793" lon="19.687">
        <ele>1592.0799560547</ele>
        <time>2024-09-22T15:43:40.000Z</time>
      </trkpt>
      <trkpt lat="42.72804" lon="19.68705">
        <ele>1593.5200195312</ele>
        <time>2024-09-22T15:43:41.000Z</time>
      </trkpt>
      <trkpt lat="42.72805" lon="19.68706">
        <ele>1593.5200195312</ele>
        <time>2024-09-22T15:43:42.000Z</time>
      </trkpt>
      <trkpt lat="42.72812" lon="19.68709">
        <ele>1594</ele>
        <time>2024-09-22T15:43:43.000Z</time>
      </trkpt>
      <trkpt lat="42.72827" lon="19.68716">
        <ele>1596.4100341797</ele>
        <time>2024-09-22T15:43:45.000Z</time>
      </trkpt>
      <trkpt lat="42.72835" lon="19.68722">
        <ele>1596.4100341797</ele>
        <time>2024-09-22T15:43:46.000Z</time>
      </trkpt>
      <trkpt lat="42.72841" lon="19.6873">
        <ele>1597.8499755859</ele>
        <time>2024-09-22T15:43:47.000Z</time>
      </trkpt>
      <trkpt lat="42.72847" lon="19.68739">
        <ele>1598.8100585938</ele>
        <time>2024-09-22T15:43:48.000Z</time>
      </trkpt>
      <trkpt lat="42.72859" lon="19.68763">
        <ele>1600.25</ele>
        <time>2024-09-22T15:43:50.000Z</time>
      </trkpt>
      <trkpt lat="42.72863" lon="19.68773">
        <ele>1600.7299804688</ele>
        <time>2024-09-22T15:43:51.000Z</time>
      </trkpt>
      <trkpt lat="42.72871" lon="19.68796">
        <ele>1603.1400146484</ele>
        <time>2024-09-22T15:43:53.000Z</time>
      </trkpt>
      <trkpt lat="42.72872" lon="19.68799">
        <ele>1603.6199951172</ele>
        <time>2024-09-22T15:43:54.000Z</time>
      </trkpt>
      <trkpt lat="42.72865" lon="19.6881">
        <ele>1606.5</ele>
        <time>2024-09-22T15:43:58.000Z</time>
      </trkpt>
      <trkpt lat="42.72861" lon="19.68809">
        <ele>1606.9799804688</ele>
        <time>2024-09-22T15:43:59.000Z</time>
      </trkpt>
      <trkpt lat="42.72855" lon="19.68809">
        <ele>1606.9799804688</ele>
        <time>2024-09-22T15:44:00.000Z</time>
      </trkpt>
      <trkpt lat="42.72848" lon="19.68812">
        <ele>1607.9399414062</ele>
        <time>2024-09-22T15:44:01.000Z</time>
      </trkpt>
      <trkpt lat="42.72842" lon="19.68819">
        <ele>1608.9000244141</ele>
        <time>2024-09-22T15:44:02.000Z</time>
      </trkpt>
      <trkpt lat="42.72825" lon="19.68846">
        <ele>1611.3100585938</ele>
        <time>2024-09-22T15:44:04.000Z</time>
      </trkpt>
      <trkpt lat="42.72817" lon="19.68859">
        <ele>1611.7900390625</ele>
        <time>2024-09-22T15:44:05.000Z</time>
      </trkpt>
      <trkpt lat="42.72808" lon="19.68871">
        <ele>1612.75</ele>
        <time>2024-09-22T15:44:06.000Z</time>
      </trkpt>
      <trkpt lat="42.72801" lon="19.68881">
        <ele>1613.2299804688</ele>
        <time>2024-09-22T15:44:07.000Z</time>
      </trkpt>
      <trkpt lat="42.72779" lon="19.68906">
        <ele>1615.1500244141</ele>
        <time>2024-09-22T15:44:09.000Z</time>
      </trkpt>
      <trkpt lat="42.72771" lon="19.68915">
        <ele>1615.6300048828</ele>
        <time>2024-09-22T15:44:10.000Z</time>
      </trkpt>
      <trkpt lat="42.72759" lon="19.68926">
        <ele>1617.0699462891</ele>
        <time>2024-09-22T15:44:11.000Z</time>
      </trkpt>
      <trkpt lat="42.7275" lon="19.68933">
        <ele>1617.5600585938</ele>
        <time>2024-09-22T15:44:12.000Z</time>
      </trkpt>
      <trkpt lat="42.72734" lon="19.68942">
        <ele>1618.0400390625</ele>
        <time>2024-09-22T15:44:13.000Z</time>
      </trkpt>
      <trkpt lat="42.72727" lon="19.68947">
        <ele>1618.5200195312</ele>
        <time>2024-09-22T15:44:14.000Z</time>
      </trkpt>
      <trkpt lat="42.72717" lon="19.68958">
        <ele>1620.9200439453</ele>
        <time>2024-09-22T15:44:15.000Z</time>
      </trkpt>
      <trkpt lat="42.72709" lon="19.68968">
        <ele>1622.3599853516</ele>
        <time>2024-09-22T15:44:16.000Z</time>
      </trkpt>
      <trkpt lat="42.72701" lon="19.68978">
        <ele>1623.3199462891</ele>
        <time>2024-09-22T15:44:17.000Z</time>
      </trkpt>
      <trkpt lat="42.72687" lon="19.68991">
        <ele>1625.7299804688</ele>
        <time>2024-09-22T15:44:18.000Z</time>
      </trkpt>
      <trkpt lat="42.7268" lon="19.68997">
        <ele>1626.6899414062</ele>
        <time>2024-09-22T15:44:19.000Z</time>
      </trkpt>
      <trkpt lat="42.72667" lon="19.69007">
        <ele>1628.1300048828</ele>
        <time>2024-09-22T15:44:20.000Z</time>
      </trkpt>
      <trkpt lat="42.72656" lon="19.69013">
        <ele>1628.6099853516</ele>
        <time>2024-09-22T15:44:21.000Z</time>
      </trkpt>
      <trkpt lat="42.72636" lon="19.69023">
        <ele>1629.0899658203</ele>
        <time>2024-09-22T15:44:22.000Z</time>
      </trkpt>
      <trkpt lat="42.72612" lon="19.69033">
        <ele>1631.4899902344</ele>
        <time>2024-09-22T15:44:24.000Z</time>
      </trkpt>
      <trkpt lat="42.72602" lon="19.69035">
        <ele>1631.9799804688</ele>
        <time>2024-09-22T15:44:25.000Z</time>
      </trkpt>
      <trkpt lat="42.7259" lon="19.69037">
        <ele>1632.9399414062</ele>
        <time>2024-09-22T15:44:26.000Z</time>
      </trkpt>
      <trkpt lat="42.72573" lon="19.69036">
        <ele>1634.3800048828</ele>
        <time>2024-09-22T15:44:27.000Z</time>
      </trkpt>
      <trkpt lat="42.72565" lon="19.69036">
        <ele>1634.3800048828</ele>
        <time>2024-09-22T15:44:28.000Z</time>
      </trkpt>
      <trkpt lat="42.72549" lon="19.69037">
        <ele>1635.8199462891</ele>
        <time>2024-09-22T15:44:29.000Z</time>
      </trkpt>
      <trkpt lat="42.72538" lon="19.6904">
        <ele>1636.7800292969</ele>
        <time>2024-09-22T15:44:30.000Z</time>
      </trkpt>
      <trkpt lat="42.72525" lon="19.69046">
        <ele>1638.6999511719</ele>
        <time>2024-09-22T15:44:31.000Z</time>
      </trkpt>
      <trkpt lat="42.72509" lon="19.69057">
        <ele>1641.1099853516</ele>
        <time>2024-09-22T15:44:32.000Z</time>
      </trkpt>
      <trkpt lat="42.72496" lon="19.69067">
        <ele>1642.5500488281</ele>
        <time>2024-09-22T15:44:33.000Z</time>
      </trkpt>
      <trkpt lat="42.72476" lon="19.69084">
        <ele>1644.4699707031</ele>
        <time>2024-09-22T15:44:34.000Z</time>
      </trkpt>
      <trkpt lat="42.72468" lon="19.6909">
        <ele>1644.9499511719</ele>
        <time>2024-09-22T15:44:35.000Z</time>
      </trkpt>
      <trkpt lat="42.72464" lon="19.69092">
        <ele>1644.9499511719</ele>
        <time>2024-09-22T15:44:36.000Z</time>
      </trkpt>
      <trkpt lat="42.72457" lon="19.69098">
        <ele>1645.9100341797</ele>
        <time>2024-09-22T15:44:37.000Z</time>
      </trkpt>
      <trkpt lat="42.72451" lon="19.69102">
        <ele>1646.8800048828</ele>
        <time>2024-09-22T15:44:38.000Z</time>
      </trkpt>
      <trkpt lat="42.72447" lon="19.69103">
        <ele>1646.8800048828</ele>
        <time>2024-09-22T15:44:39.000Z</time>
      </trkpt>
      <trkpt lat="42.72442" lon="19.69104">
        <ele>1647.3599853516</ele>
        <time>2024-09-22T15:44:40.000Z</time>
      </trkpt>
      <trkpt lat="42.72438" lon="19.69104">
        <ele>1647.8399658203</ele>
        <time>2024-09-22T15:44:41.000Z</time>
      </trkpt>
      <trkpt lat="42.72432" lon="19.69104">
        <ele>1648.3199462891</ele>
        <time>2024-09-22T15:44:42.000Z</time>
      </trkpt>
      <trkpt lat="42.72429" lon="19.69103">
        <ele>1648.8000488281</ele>
        <time>2024-09-22T15:44:43.000Z</time>
      </trkpt>
      <trkpt lat="42.72425" lon="19.69095">
        <ele>1649.2800292969</ele>
        <time>2024-09-22T15:44:45.000Z</time>
      </trkpt>
      <trkpt lat="42.7243" lon="19.69085">
        <ele>1649.2800292969</ele>
        <time>2024-09-22T15:44:47.000Z</time>
      </trkpt>
      <trkpt lat="42.72433" lon="19.69083">
        <ele>1649.2800292969</ele>
        <time>2024-09-22T15:44:48.000Z</time>
      </trkpt>
      <trkpt lat="42.72439" lon="19.69082">
        <ele>1649.2800292969</ele>
        <time>2024-09-22T15:44:49.000Z</time>
      </trkpt>
      <trkpt lat="42.72445" lon="19.69081">
        <ele>1649.7600097656</ele>
        <time>2024-09-22T15:44:50.000Z</time>
      </trkpt>
      <trkpt lat="42.72452" lon="19.69079">
        <ele>1649.7600097656</ele>
        <time>2024-09-22T15:44:51.000Z</time>
      </trkpt>
      <trkpt lat="42.72459" lon="19.69075">
        <ele>1649.7600097656</ele>
        <time>2024-09-22T15:44:52.000Z</time>
      </trkpt>
      <trkpt lat="42.72464" lon="19.69069">
        <ele>1649.2800292969</ele>
        <time>2024-09-22T15:44:53.000Z</time>
      </trkpt>
      <trkpt lat="42.72469" lon="19.6906">
        <ele>1649.2800292969</ele>
        <time>2024-09-22T15:44:54.000Z</time>
      </trkpt>
      <trkpt lat="42.72476" lon="19.69048">
        <ele>1649.2800292969</ele>
        <time>2024-09-22T15:44:55.000Z</time>
      </trkpt>
      <trkpt lat="42.72481" lon="19.69039">
        <ele>1648.8000488281</ele>
        <time>2024-09-22T15:44:56.000Z</time>
      </trkpt>
      <trkpt lat="42.72486" lon="19.69033">
        <ele>1648.3199462891</ele>
        <time>2024-09-22T15:44:57.000Z</time>
      </trkpt>
      <trkpt lat="42.72496" lon="19.69027">
        <ele>1648.8000488281</ele>
        <time>2024-09-22T15:44:58.000Z</time>
      </trkpt>
      <trkpt lat="42.72501" lon="19.69023">
        <ele>1648.8000488281</ele>
        <time>2024-09-22T15:44:59.000Z</time>
      </trkpt>
      <trkpt lat="42.72512" lon="19.69014">
        <ele>1648.3199462891</ele>
        <time>2024-09-22T15:45:00.000Z</time>
      </trkpt>
      <trkpt lat="42.72517" lon="19.69009">
        <ele>1648.3199462891</ele>
        <time>2024-09-22T15:45:01.000Z</time>
      </trkpt>
      <trkpt lat="42.72527" lon="19.68997">
        <ele>1648.8000488281</ele>
        <time>2024-09-22T15:45:02.000Z</time>
      </trkpt>
      <trkpt lat="42.72536" lon="19.68986">
        <ele>1649.2800292969</ele>
        <time>2024-09-22T15:45:03.000Z</time>
      </trkpt>
      <trkpt lat="42.72545" lon="19.68974">
        <ele>1650.2399902344</ele>
        <time>2024-09-22T15:45:04.000Z</time>
      </trkpt>
      <trkpt lat="42.7255" lon="19.68967">
        <ele>1650.7199707031</ele>
        <time>2024-09-22T15:45:05.000Z</time>
      </trkpt>
      <trkpt lat="42.72562" lon="19.68949">
        <ele>1651.6800537109</ele>
        <time>2024-09-22T15:45:06.000Z</time>
      </trkpt>
      <trkpt lat="42.72564" lon="19.68946">
        <ele>1652.1600341797</ele>
        <time>2024-09-22T15:45:07.000Z</time>
      </trkpt>
      <trkpt lat="42.72574" lon="19.68936">
        <ele>1653.1199951172</ele>
        <time>2024-09-22T15:45:08.000Z</time>
      </trkpt>
      <trkpt lat="42.72587" lon="19.68922">
        <ele>1654.5699462891</ele>
        <time>2024-09-22T15:45:09.000Z</time>
      </trkpt>
      <trkpt lat="42.72591" lon="19.68919">
        <ele>1654.5699462891</ele>
        <time>2024-09-22T15:45:10.000Z</time>
      </trkpt>
      <trkpt lat="42.72607" lon="19.68904">
        <ele>1656.0100097656</ele>
        <time>2024-09-22T15:45:12.000Z</time>
      </trkpt>
      <trkpt lat="42.72619" lon="19.68893">
        <ele>1657.4499511719</ele>
        <time>2024-09-22T15:45:13.000Z</time>
      </trkpt>
      <trkpt lat="42.72627" lon="19.68885">
        <ele>1657.9300537109</ele>
        <time>2024-09-22T15:45:14.000Z</time>
      </trkpt>
      <trkpt lat="42.72635" lon="19.68877">
        <ele>1658.4100341797</ele>
        <time>2024-09-22T15:45:15.000Z</time>
      </trkpt>
      <trkpt lat="42.72642" lon="19.68868">
        <ele>1659.3699951172</ele>
        <time>2024-09-22T15:45:16.000Z</time>
      </trkpt>
      <trkpt lat="42.72652" lon="19.68856">
        <ele>1661.3000488281</ele>
        <time>2024-09-22T15:45:17.000Z</time>
      </trkpt>
      <trkpt lat="42.72652" lon="19.68855">
        <ele>1661.3000488281</ele>
        <time>2024-09-22T15:45:18.000Z</time>
      </trkpt>
      <trkpt lat="42.72657" lon="19.68848">
        <ele>1662.7399902344</ele>
        <time>2024-09-22T15:45:19.000Z</time>
      </trkpt>
      <trkpt lat="42.72653" lon="19.68835">
        <ele>1666.0999755859</ele>
        <time>2024-09-22T15:45:24.000Z</time>
      </trkpt>
      <trkpt lat="42.72651" lon="19.68836">
        <ele>1666.5799560547</ele>
        <time>2024-09-22T15:45:25.000Z</time>
      </trkpt>
      <trkpt lat="42.72648" lon="19.68839">
        <ele>1667.5400390625</ele>
        <time>2024-09-22T15:45:26.000Z</time>
      </trkpt>
      <trkpt lat="42.72645" lon="19.68844">
        <ele>1668.5100097656</ele>
        <time>2024-09-22T15:45:27.000Z</time>
      </trkpt>
      <trkpt lat="42.7264" lon="19.68849">
        <ele>1669.4699707031</ele>
        <time>2024-09-22T15:45:28.000Z</time>
      </trkpt>
      <trkpt lat="42.72633" lon="19.68854">
        <ele>1670.4300537109</ele>
        <time>2024-09-22T15:45:29.000Z</time>
      </trkpt>
      <trkpt lat="42.72627" lon="19.68858">
        <ele>1670.9100341797</ele>
        <time>2024-09-22T15:45:30.000Z</time>
      </trkpt>
      <trkpt lat="42.72606" lon="19.68864">
        <ele>1671.8699951172</ele>
        <time>2024-09-22T15:45:32.000Z</time>
      </trkpt>
      <trkpt lat="42.72557" lon="19.68876">
        <ele>1674.75</ele>
        <time>2024-09-22T15:45:36.000Z</time>
      </trkpt>
      <trkpt lat="42.72543" lon="19.68882">
        <ele>1675.7199707031</ele>
        <time>2024-09-22T15:45:37.000Z</time>
      </trkpt>
      <trkpt lat="42.7254" lon="19.68883">
        <ele>1675.7199707031</ele>
        <time>2024-09-22T15:45:38.000Z</time>
      </trkpt>
      <trkpt lat="42.72528" lon="19.6889">
        <ele>1676.1999511719</ele>
        <time>2024-09-22T15:45:39.000Z</time>
      </trkpt>
      <trkpt lat="42.72513" lon="19.68899">
        <ele>1677.6400146484</ele>
        <time>2024-09-22T15:45:40.000Z</time>
      </trkpt>
      <trkpt lat="42.72506" lon="19.68904">
        <ele>1678.1199951172</ele>
        <time>2024-09-22T15:45:41.000Z</time>
      </trkpt>
      <trkpt lat="42.72495" lon="19.68914">
        <ele>1680.0400390625</ele>
        <time>2024-09-22T15:45:42.000Z</time>
      </trkpt>
      <trkpt lat="42.72487" lon="19.68922">
        <ele>1680.5200195312</ele>
        <time>2024-09-22T15:45:43.000Z</time>
      </trkpt>
      <trkpt lat="42.7246" lon="19.68946">
        <ele>1683.8900146484</ele>
        <time>2024-09-22T15:45:46.000Z</time>
      </trkpt>
      <trkpt lat="42.72448" lon="19.68954">
        <ele>1685.8100585938</ele>
        <time>2024-09-22T15:45:47.000Z</time>
      </trkpt>
      <trkpt lat="42.72441" lon="19.68957">
        <ele>1686.7700195312</ele>
        <time>2024-09-22T15:45:48.000Z</time>
      </trkpt>
      <trkpt lat="42.72421" lon="19.68965">
        <ele>1689.1700439453</ele>
        <time>2024-09-22T15:45:50.000Z</time>
      </trkpt>
      <trkpt lat="42.72413" lon="19.6897">
        <ele>1689.6500244141</ele>
        <time>2024-09-22T15:45:51.000Z</time>
      </trkpt>
      <trkpt lat="42.72406" lon="19.68977">
        <ele>1690.6199951172</ele>
        <time>2024-09-22T15:45:52.000Z</time>
      </trkpt>
      <trkpt lat="42.72396" lon="19.68988">
        <ele>1690.6199951172</ele>
        <time>2024-09-22T15:45:53.000Z</time>
      </trkpt>
      <trkpt lat="42.72392" lon="19.68991">
        <ele>1691.0999755859</ele>
        <time>2024-09-22T15:45:54.000Z</time>
      </trkpt>
      <trkpt lat="42.72383" lon="19.68996">
        <ele>1692.0600585938</ele>
        <time>2024-09-22T15:45:55.000Z</time>
      </trkpt>
      <trkpt lat="42.72374" lon="19.69">
        <ele>1692.0600585938</ele>
        <time>2024-09-22T15:45:56.000Z</time>
      </trkpt>
      <trkpt lat="42.72365" lon="19.69003">
        <ele>1692.5400390625</ele>
        <time>2024-09-22T15:45:57.000Z</time>
      </trkpt>
      <trkpt lat="42.72326" lon="19.6901">
        <ele>1693.9799804688</ele>
        <time>2024-09-22T15:46:01.000Z</time>
      </trkpt>
      <trkpt lat="42.72312" lon="19.69014">
        <ele>1694.4599609375</ele>
        <time>2024-09-22T15:46:02.000Z</time>
      </trkpt>
      <trkpt lat="42.72311" lon="19.69014">
        <ele>1694.4599609375</ele>
        <time>2024-09-22T15:46:03.000Z</time>
      </trkpt>
      <trkpt lat="42.72307" lon="19.69016">
        <ele>1693.9799804688</ele>
        <time>2024-09-22T15:46:04.000Z</time>
      </trkpt>
      <trkpt lat="42.72302" lon="19.69019">
        <ele>1693.9799804688</ele>
        <time>2024-09-22T15:46:05.000Z</time>
      </trkpt>
      <trkpt lat="42.72294" lon="19.69006">
        <ele>1693.9799804688</ele>
        <time>2024-09-22T15:46:10.000Z</time>
      </trkpt>
      <trkpt lat="42.72295" lon="19.69004">
        <ele>1693.5</ele>
        <time>2024-09-22T15:46:11.000Z</time>
      </trkpt>
      <trkpt lat="42.723" lon="19.69002">
        <ele>1693.5</ele>
        <time>2024-09-22T15:46:12.000Z</time>
      </trkpt>
      <trkpt lat="42.72305" lon="19.69001">
        <ele>1693.9799804688</ele>
        <time>2024-09-22T15:46:13.000Z</time>
      </trkpt>
      <trkpt lat="42.72311" lon="19.68999">
        <ele>1693.9799804688</ele>
        <time>2024-09-22T15:46:14.000Z</time>
      </trkpt>
      <trkpt lat="42.72318" lon="19.68996">
        <ele>1694.4599609375</ele>
        <time>2024-09-22T15:46:15.000Z</time>
      </trkpt>
      <trkpt lat="42.72329" lon="19.68991">
        <ele>1694.9399414062</ele>
        <time>2024-09-22T15:46:16.000Z</time>
      </trkpt>
      <trkpt lat="42.72334" lon="19.68988">
        <ele>1695.4200439453</ele>
        <time>2024-09-22T15:46:17.000Z</time>
      </trkpt>
      <trkpt lat="42.72342" lon="19.68981">
        <ele>1695.9000244141</ele>
        <time>2024-09-22T15:46:18.000Z</time>
      </trkpt>
      <trkpt lat="42.7235" lon="19.68974">
        <ele>1696.3800048828</ele>
        <time>2024-09-22T15:46:19.000Z</time>
      </trkpt>
      <trkpt lat="42.72359" lon="19.68966">
        <ele>1697.3399658203</ele>
        <time>2024-09-22T15:46:20.000Z</time>
      </trkpt>
      <trkpt lat="42.72366" lon="19.68957">
        <ele>1697.3399658203</ele>
        <time>2024-09-22T15:46:21.000Z</time>
      </trkpt>
      <trkpt lat="42.72375" lon="19.68946">
        <ele>1697.8299560547</ele>
        <time>2024-09-22T15:46:22.000Z</time>
      </trkpt>
      <trkpt lat="42.72381" lon="19.68939">
        <ele>1698.7900390625</ele>
        <time>2024-09-22T15:46:23.000Z</time>
      </trkpt>
      <trkpt lat="42.72388" lon="19.68927">
        <ele>1699.75</ele>
        <time>2024-09-22T15:46:24.000Z</time>
      </trkpt>
      <trkpt lat="42.72395" lon="19.68912">
        <ele>1700.2299804688</ele>
        <time>2024-09-22T15:46:25.000Z</time>
      </trkpt>
      <trkpt lat="42.72402" lon="19.68897">
        <ele>1701.6700439453</ele>
        <time>2024-09-22T15:46:26.000Z</time>
      </trkpt>
      <trkpt lat="42.72406" lon="19.68889">
        <ele>1701.6700439453</ele>
        <time>2024-09-22T15:46:27.000Z</time>
      </trkpt>
      <trkpt lat="42.72412" lon="19.6888">
        <ele>1702.6300048828</ele>
        <time>2024-09-22T15:46:28.000Z</time>
      </trkpt>
      <trkpt lat="42.72419" lon="19.68869">
        <ele>1703.1099853516</ele>
        <time>2024-09-22T15:46:29.000Z</time>
      </trkpt>
      <trkpt lat="42.72426" lon="19.68856">
        <ele>1703.5899658203</ele>
        <time>2024-09-22T15:46:30.000Z</time>
      </trkpt>
      <trkpt lat="42.72431" lon="19.68847">
        <ele>1704.0699462891</ele>
        <time>2024-09-22T15:46:31.000Z</time>
      </trkpt>
      <trkpt lat="42.72434" lon="19.6884">
        <ele>1705.0400390625</ele>
        <time>2024-09-22T15:46:32.000Z</time>
      </trkpt>
      <trkpt lat="42.72436" lon="19.68834">
        <ele>1706.4799804688</ele>
        <time>2024-09-22T15:46:33.000Z</time>
      </trkpt>
      <trkpt lat="42.72437" lon="19.68829">
        <ele>1706.4799804688</ele>
        <time>2024-09-22T15:46:34.000Z</time>
      </trkpt>
      <trkpt lat="42.72434" lon="19.68824">
        <ele>1707.9200439453</ele>
        <time>2024-09-22T15:46:35.000Z</time>
      </trkpt>
      <trkpt lat="42.72431" lon="19.68823">
        <ele>1707.9200439453</ele>
        <time>2024-09-22T15:46:36.000Z</time>
      </trkpt>
      <trkpt lat="42.72426" lon="19.68824">
        <ele>1707.9200439453</ele>
        <time>2024-09-22T15:46:37.000Z</time>
      </trkpt>
      <trkpt lat="42.72419" lon="19.68828">
        <ele>1708.4000244141</ele>
        <time>2024-09-22T15:46:38.000Z</time>
      </trkpt>
      <trkpt lat="42.72407" lon="19.68837">
        <ele>1709.3599853516</ele>
        <time>2024-09-22T15:46:39.000Z</time>
      </trkpt>
      <trkpt lat="42.72401" lon="19.68842">
        <ele>1709.8399658203</ele>
        <time>2024-09-22T15:46:40.000Z</time>
      </trkpt>
      <trkpt lat="42.72396" lon="19.68847">
        <ele>1710.3199462891</ele>
        <time>2024-09-22T15:46:41.000Z</time>
      </trkpt>
      <trkpt lat="42.7237" lon="19.68873">
        <ele>1713.2099609375</ele>
        <time>2024-09-22T15:46:43.000Z</time>
      </trkpt>
      <trkpt lat="42.72363" lon="19.68879">
        <ele>1714.1700439453</ele>
        <time>2024-09-22T15:46:44.000Z</time>
      </trkpt>
      <trkpt lat="42.72358" lon="19.68883">
        <ele>1714.6500244141</ele>
        <time>2024-09-22T15:46:45.000Z</time>
      </trkpt>
      <trkpt lat="42.72348" lon="19.6889">
        <ele>1715.6099853516</ele>
        <time>2024-09-22T15:46:46.000Z</time>
      </trkpt>
      <trkpt lat="42.72337" lon="19.68897">
        <ele>1716.0899658203</ele>
        <time>2024-09-22T15:46:47.000Z</time>
      </trkpt>
      <trkpt lat="42.72327" lon="19.68906">
        <ele>1717.0500488281</ele>
        <time>2024-09-22T15:46:48.000Z</time>
      </trkpt>
      <trkpt lat="42.72324" lon="19.68908">
        <ele>1717.5300292969</ele>
        <time>2024-09-22T15:46:49.000Z</time>
      </trkpt>
      <trkpt lat="42.72318" lon="19.68912">
        <ele>1718.4899902344</ele>
        <time>2024-09-22T15:46:50.000Z</time>
      </trkpt>
      <trkpt lat="42.72311" lon="19.68914">
        <ele>1719.4599609375</ele>
        <time>2024-09-22T15:46:51.000Z</time>
      </trkpt>
      <trkpt lat="42.72304" lon="19.68914">
        <ele>1719.9399414062</ele>
        <time>2024-09-22T15:46:52.000Z</time>
      </trkpt>
      <trkpt lat="42.72296" lon="19.68914">
        <ele>1720.9000244141</ele>
        <time>2024-09-22T15:46:53.000Z</time>
      </trkpt>
      <trkpt lat="42.72292" lon="19.68914">
        <ele>1721.8599853516</ele>
        <time>2024-09-22T15:46:54.000Z</time>
      </trkpt>
      <trkpt lat="42.72284" lon="19.68916">
        <ele>1723.3000488281</ele>
        <time>2024-09-22T15:46:56.000Z</time>
      </trkpt>
      <trkpt lat="42.72279" lon="19.68919">
        <ele>1723.7800292969</ele>
        <time>2024-09-22T15:46:57.000Z</time>
      </trkpt>
      <trkpt lat="42.72274" lon="19.68921">
        <ele>1724.2600097656</ele>
        <time>2024-09-22T15:46:58.000Z</time>
      </trkpt>
      <trkpt lat="42.72269" lon="19.68923">
        <ele>1724.7399902344</ele>
        <time>2024-09-22T15:46:59.000Z</time>
      </trkpt>
      <trkpt lat="42.72263" lon="19.68925">
        <ele>1725.6999511719</ele>
        <time>2024-09-22T15:47:00.000Z</time>
      </trkpt>
      <trkpt lat="42.72254" lon="19.68926">
        <ele>1727.1500244141</ele>
        <time>2024-09-22T15:47:01.000Z</time>
      </trkpt>
      <trkpt lat="42.72252" lon="19.68926">
        <ele>1727.6300048828</ele>
        <time>2024-09-22T15:47:02.000Z</time>
      </trkpt>
      <trkpt lat="42.72246" lon="19.68924">
        <ele>1728.1099853516</ele>
        <time>2024-09-22T15:47:03.000Z</time>
      </trkpt>
      <trkpt lat="42.72241" lon="19.6892">
        <ele>1728.5899658203</ele>
        <time>2024-09-22T15:47:04.000Z</time>
      </trkpt>
      <trkpt lat="42.72237" lon="19.68916">
        <ele>1728.5899658203</ele>
        <time>2024-09-22T15:47:05.000Z</time>
      </trkpt>
      <trkpt lat="42.72233" lon="19.68912">
        <ele>1729.0699462891</ele>
        <time>2024-09-22T15:47:06.000Z</time>
      </trkpt>
      <trkpt lat="42.72227" lon="19.6891">
        <ele>1729.5500488281</ele>
        <time>2024-09-22T15:47:07.000Z</time>
      </trkpt>
      <trkpt lat="42.72222" lon="19.6891">
        <ele>1730.0300292969</ele>
        <time>2024-09-22T15:47:08.000Z</time>
      </trkpt>
      <trkpt lat="42.72216" lon="19.68913">
        <ele>1730.5100097656</ele>
        <time>2024-09-22T15:47:09.000Z</time>
      </trkpt>
      <trkpt lat="42.7221" lon="19.68918">
        <ele>1731.4699707031</ele>
        <time>2024-09-22T15:47:10.000Z</time>
      </trkpt>
      <trkpt lat="42.72204" lon="19.68924">
        <ele>1731.9499511719</ele>
        <time>2024-09-22T15:47:11.000Z</time>
      </trkpt>
      <trkpt lat="42.72199" lon="19.68932">
        <ele>1732.4300537109</ele>
        <time>2024-09-22T15:47:12.000Z</time>
      </trkpt>
      <trkpt lat="42.72193" lon="19.68942">
        <ele>1732.4300537109</ele>
        <time>2024-09-22T15:47:13.000Z</time>
      </trkpt>
      <trkpt lat="42.72188" lon="19.68951">
        <ele>1733.3900146484</ele>
        <time>2024-09-22T15:47:14.000Z</time>
      </trkpt>
      <trkpt lat="42.72181" lon="19.68965">
        <ele>1733.8800048828</ele>
        <time>2024-09-22T15:47:15.000Z</time>
      </trkpt>
      <trkpt lat="42.72177" lon="19.68972">
        <ele>1734.8399658203</ele>
        <time>2024-09-22T15:47:16.000Z</time>
      </trkpt>
      <trkpt lat="42.72169" lon="19.68982">
        <ele>1735.3199462891</ele>
        <time>2024-09-22T15:47:17.000Z</time>
      </trkpt>
      <trkpt lat="42.72165" lon="19.6899">
        <ele>1736.2800292969</ele>
        <time>2024-09-22T15:47:18.000Z</time>
      </trkpt>
      <trkpt lat="42.72158" lon="19.69003">
        <ele>1737.2399902344</ele>
        <time>2024-09-22T15:47:19.000Z</time>
      </trkpt>
      <trkpt lat="42.72155" lon="19.69008">
        <ele>1737.7199707031</ele>
        <time>2024-09-22T15:47:20.000Z</time>
      </trkpt>
      <trkpt lat="42.72151" lon="19.69016">
        <ele>1738.1999511719</ele>
        <time>2024-09-22T15:47:21.000Z</time>
      </trkpt>
      <trkpt lat="42.72145" lon="19.69022">
        <ele>1739.1600341797</ele>
        <time>2024-09-22T15:47:22.000Z</time>
      </trkpt>
      <trkpt lat="42.72139" lon="19.69027">
        <ele>1739.6400146484</ele>
        <time>2024-09-22T15:47:23.000Z</time>
      </trkpt>
      <trkpt lat="42.72132" lon="19.69031">
        <ele>1740.1199951172</ele>
        <time>2024-09-22T15:47:24.000Z</time>
      </trkpt>
      <trkpt lat="42.72125" lon="19.69034">
        <ele>1741.0799560547</ele>
        <time>2024-09-22T15:47:25.000Z</time>
      </trkpt>
      <trkpt lat="42.72115" lon="19.69035">
        <ele>1741.5699462891</ele>
        <time>2024-09-22T15:47:26.000Z</time>
      </trkpt>
      <trkpt lat="42.72108" lon="19.69036">
        <ele>1742.0500488281</ele>
        <time>2024-09-22T15:47:27.000Z</time>
      </trkpt>
      <trkpt lat="42.72098" lon="19.69039">
        <ele>1743.0100097656</ele>
        <time>2024-09-22T15:47:28.000Z</time>
      </trkpt>
      <trkpt lat="42.7209" lon="19.69043">
        <ele>1743.4899902344</ele>
        <time>2024-09-22T15:47:29.000Z</time>
      </trkpt>
      <trkpt lat="42.72078" lon="19.6905">
        <ele>1744.9300537109</ele>
        <time>2024-09-22T15:47:30.000Z</time>
      </trkpt>
      <trkpt lat="42.72071" lon="19.69056">
        <ele>1745.4100341797</ele>
        <time>2024-09-22T15:47:31.000Z</time>
      </trkpt>
      <trkpt lat="42.72064" lon="19.69062">
        <ele>1745.8900146484</ele>
        <time>2024-09-22T15:47:32.000Z</time>
      </trkpt>
      <trkpt lat="42.72058" lon="19.69069">
        <ele>1746.3699951172</ele>
        <time>2024-09-22T15:47:33.000Z</time>
      </trkpt>
      <trkpt lat="42.72053" lon="19.6908">
        <ele>1747.3299560547</ele>
        <time>2024-09-22T15:47:34.000Z</time>
      </trkpt>
      <trkpt lat="42.72049" lon="19.69091">
        <ele>1748.2900390625</ele>
        <time>2024-09-22T15:47:35.000Z</time>
      </trkpt>
      <trkpt lat="42.72043" lon="19.69101">
        <ele>1749.2600097656</ele>
        <time>2024-09-22T15:47:36.000Z</time>
      </trkpt>
      <trkpt lat="42.72038" lon="19.69107">
        <ele>1749.7399902344</ele>
        <time>2024-09-22T15:47:37.000Z</time>
      </trkpt>
      <trkpt lat="42.72029" lon="19.69114">
        <ele>1750.2199707031</ele>
        <time>2024-09-22T15:47:38.000Z</time>
      </trkpt>
      <trkpt lat="42.72021" lon="19.69121">
        <ele>1751.1800537109</ele>
        <time>2024-09-22T15:47:39.000Z</time>
      </trkpt>
      <trkpt lat="42.72011" lon="19.69127">
        <ele>1752.1400146484</ele>
        <time>2024-09-22T15:47:40.000Z</time>
      </trkpt>
      <trkpt lat="42.71998" lon="19.69135">
        <ele>1753.5799560547</ele>
        <time>2024-09-22T15:47:41.000Z</time>
      </trkpt>
      <trkpt lat="42.71972" lon="19.6915">
        <ele>1755.5</ele>
        <time>2024-09-22T15:47:43.000Z</time>
      </trkpt>
      <trkpt lat="42.71968" lon="19.69152">
        <ele>1755.9899902344</ele>
        <time>2024-09-22T15:47:44.000Z</time>
      </trkpt>
      <trkpt lat="42.7196" lon="19.69154">
        <ele>1755.9899902344</ele>
        <time>2024-09-22T15:47:45.000Z</time>
      </trkpt>
      <trkpt lat="42.71953" lon="19.69156">
        <ele>1755.5</ele>
        <time>2024-09-22T15:47:46.000Z</time>
      </trkpt>
      <trkpt lat="42.71946" lon="19.69156">
        <ele>1755.9899902344</ele>
        <time>2024-09-22T15:47:47.000Z</time>
      </trkpt>
      <trkpt lat="42.71928" lon="19.69152">
        <ele>1757.4300537109</ele>
        <time>2024-09-22T15:47:49.000Z</time>
      </trkpt>
      <trkpt lat="42.71922" lon="19.69151">
        <ele>1757.4300537109</ele>
        <time>2024-09-22T15:47:50.000Z</time>
      </trkpt>
      <trkpt lat="42.71915" lon="19.69151">
        <ele>1758.3900146484</ele>
        <time>2024-09-22T15:47:51.000Z</time>
      </trkpt>
      <trkpt lat="42.71909" lon="19.69152">
        <ele>1758.8699951172</ele>
        <time>2024-09-22T15:47:52.000Z</time>
      </trkpt>
      <trkpt lat="42.71905" lon="19.69151">
        <ele>1759.3499755859</ele>
        <time>2024-09-22T15:47:53.000Z</time>
      </trkpt>
      <trkpt lat="42.71901" lon="19.6915">
        <ele>1759.3499755859</ele>
        <time>2024-09-22T15:47:54.000Z</time>
      </trkpt>
      <trkpt lat="42.71898" lon="19.69146">
        <ele>1759.8299560547</ele>
        <time>2024-09-22T15:47:55.000Z</time>
      </trkpt>
      <trkpt lat="42.71895" lon="19.69141">
        <ele>1759.8299560547</ele>
        <time>2024-09-22T15:47:56.000Z</time>
      </trkpt>
      <trkpt lat="42.71894" lon="19.69134">
        <ele>1760.3100585938</ele>
        <time>2024-09-22T15:47:57.000Z</time>
      </trkpt>
      <trkpt lat="42.71893" lon="19.69118">
        <ele>1761.2700195312</ele>
        <time>2024-09-22T15:47:58.000Z</time>
      </trkpt>
      <trkpt lat="42.71893" lon="19.69113">
        <ele>1761.2700195312</ele>
        <time>2024-09-22T15:47:59.000Z</time>
      </trkpt>
      <trkpt lat="42.71893" lon="19.69105">
        <ele>1761.75</ele>
        <time>2024-09-22T15:48:00.000Z</time>
      </trkpt>
      <trkpt lat="42.71893" lon="19.69092">
        <ele>1761.75</ele>
        <time>2024-09-22T15:48:01.000Z</time>
      </trkpt>
      <trkpt lat="42.71893" lon="19.69085">
        <ele>1761.75</ele>
        <time>2024-09-22T15:48:02.000Z</time>
      </trkpt>
      <trkpt lat="42.71892" lon="19.69074">
        <ele>1762.7099609375</ele>
        <time>2024-09-22T15:48:03.000Z</time>
      </trkpt>
      <trkpt lat="42.71891" lon="19.69065">
        <ele>1762.7099609375</ele>
        <time>2024-09-22T15:48:04.000Z</time>
      </trkpt>
      <trkpt lat="42.7189" lon="19.69046">
        <ele>1763.1999511719</ele>
        <time>2024-09-22T15:48:05.000Z</time>
      </trkpt>
      <trkpt lat="42.7189" lon="19.69044">
        <ele>1762.7099609375</ele>
        <time>2024-09-22T15:48:06.000Z</time>
      </trkpt>
      <trkpt lat="42.7189" lon="19.6903">
        <ele>1762.7099609375</ele>
        <time>2024-09-22T15:48:07.000Z</time>
      </trkpt>
      <trkpt lat="42.7189" lon="19.69019">
        <ele>1763.1999511719</ele>
        <time>2024-09-22T15:48:08.000Z</time>
      </trkpt>
      <trkpt lat="42.71889" lon="19.69001">
        <ele>1762.7099609375</ele>
        <time>2024-09-22T15:48:10.000Z</time>
      </trkpt>
      <trkpt lat="42.71889" lon="19.68994">
        <ele>1762.7099609375</ele>
        <time>2024-09-22T15:48:11.000Z</time>
      </trkpt>
      <trkpt lat="42.71888" lon="19.6898">
        <ele>1762.7099609375</ele>
        <time>2024-09-22T15:48:12.000Z</time>
      </trkpt>
      <trkpt lat="42.71888" lon="19.68976">
        <ele>1762.7099609375</ele>
        <time>2024-09-22T15:48:13.000Z</time>
      </trkpt>
      <trkpt lat="42.71888" lon="19.68966">
        <ele>1763.1999511719</ele>
        <time>2024-09-22T15:48:14.000Z</time>
      </trkpt>
      <trkpt lat="42.71888" lon="19.68957">
        <ele>1763.6800537109</ele>
        <time>2024-09-22T15:48:15.000Z</time>
      </trkpt>
      <trkpt lat="42.71888" lon="19.68946">
        <ele>1764.1600341797</ele>
        <time>2024-09-22T15:48:16.000Z</time>
      </trkpt>
      <trkpt lat="42.71887" lon="19.68933">
        <ele>1764.6400146484</ele>
        <time>2024-09-22T15:48:17.000Z</time>
      </trkpt>
      <trkpt lat="42.71887" lon="19.68925">
        <ele>1765.1199951172</ele>
        <time>2024-09-22T15:48:18.000Z</time>
      </trkpt>
      <trkpt lat="42.71886" lon="19.68916">
        <ele>1765.5999755859</ele>
        <time>2024-09-22T15:48:19.000Z</time>
      </trkpt>
      <trkpt lat="42.71886" lon="19.68904">
        <ele>1765.5999755859</ele>
        <time>2024-09-22T15:48:20.000Z</time>
      </trkpt>
      <trkpt lat="42.71886" lon="19.68894">
        <ele>1766.5600585938</ele>
        <time>2024-09-22T15:48:21.000Z</time>
      </trkpt>
      <trkpt lat="42.71886" lon="19.68885">
        <ele>1768</ele>
        <time>2024-09-22T15:48:22.000Z</time>
      </trkpt>
      <trkpt lat="42.71884" lon="19.68872">
        <ele>1768.4799804688</ele>
        <time>2024-09-22T15:48:23.000Z</time>
      </trkpt>
      <trkpt lat="42.71883" lon="19.68865">
        <ele>1768.4799804688</ele>
        <time>2024-09-22T15:48:24.000Z</time>
      </trkpt>
      <trkpt lat="42.71881" lon="19.68854">
        <ele>1768.9599609375</ele>
        <time>2024-09-22T15:48:25.000Z</time>
      </trkpt>
      <trkpt lat="42.71878" lon="19.68842">
        <ele>1769.9200439453</ele>
        <time>2024-09-22T15:48:26.000Z</time>
      </trkpt>
      <trkpt lat="42.71877" lon="19.68836">
        <ele>1770.4100341797</ele>
        <time>2024-09-22T15:48:27.000Z</time>
      </trkpt>
      <trkpt lat="42.71874" lon="19.68829">
        <ele>1770.4100341797</ele>
        <time>2024-09-22T15:48:28.000Z</time>
      </trkpt>
      <trkpt lat="42.71872" lon="19.68821">
        <ele>1770.8900146484</ele>
        <time>2024-09-22T15:48:29.000Z</time>
      </trkpt>
      <trkpt lat="42.7187" lon="19.68814">
        <ele>1770.8900146484</ele>
        <time>2024-09-22T15:48:30.000Z</time>
      </trkpt>
      <trkpt lat="42.71869" lon="19.68806">
        <ele>1771.3699951172</ele>
        <time>2024-09-22T15:48:31.000Z</time>
      </trkpt>
      <trkpt lat="42.71868" lon="19.68797">
        <ele>1771.3699951172</ele>
        <time>2024-09-22T15:48:32.000Z</time>
      </trkpt>
      <trkpt lat="42.71866" lon="19.68791">
        <ele>1771.3699951172</ele>
        <time>2024-09-22T15:48:33.000Z</time>
      </trkpt>
      <trkpt lat="42.71863" lon="19.68785">
        <ele>1771.3699951172</ele>
        <time>2024-09-22T15:48:34.000Z</time>
      </trkpt>
      <trkpt lat="42.71859" lon="19.68779">
        <ele>1771.8499755859</ele>
        <time>2024-09-22T15:48:35.000Z</time>
      </trkpt>
      <trkpt lat="42.71855" lon="19.68774">
        <ele>1771.8499755859</ele>
        <time>2024-09-22T15:48:36.000Z</time>
      </trkpt>
      <trkpt lat="42.7185" lon="19.68769">
        <ele>1771.8499755859</ele>
        <time>2024-09-22T15:48:37.000Z</time>
      </trkpt>
      <trkpt lat="42.71846" lon="19.68764">
        <ele>1771.8499755859</ele>
        <time>2024-09-22T15:48:38.000Z</time>
      </trkpt>
      <trkpt lat="42.71843" lon="19.68759">
        <ele>1771.8499755859</ele>
        <time>2024-09-22T15:48:39.000Z</time>
      </trkpt>
      <trkpt lat="42.71841" lon="19.68754">
        <ele>1771.8499755859</ele>
        <time>2024-09-22T15:48:40.000Z</time>
      </trkpt>
      <trkpt lat="42.71835" lon="19.68741">
        <ele>1771.8499755859</ele>
        <time>2024-09-22T15:48:42.000Z</time>
      </trkpt>
      <trkpt lat="42.71833" lon="19.68735">
        <ele>1771.3699951172</ele>
        <time>2024-09-22T15:48:43.000Z</time>
      </trkpt>
      <trkpt lat="42.71828" lon="19.68722">
        <ele>1770.8900146484</ele>
        <time>2024-09-22T15:48:44.000Z</time>
      </trkpt>
      <trkpt lat="42.71824" lon="19.68711">
        <ele>1770.8900146484</ele>
        <time>2024-09-22T15:48:46.000Z</time>
      </trkpt>
      <trkpt lat="42.71819" lon="19.68701">
        <ele>1770.8900146484</ele>
        <time>2024-09-22T15:48:47.000Z</time>
      </trkpt>
      <trkpt lat="42.71816" lon="19.68696">
        <ele>1770.8900146484</ele>
        <time>2024-09-22T15:48:48.000Z</time>
      </trkpt>
      <trkpt lat="42.7181" lon="19.68687">
        <ele>1771.3699951172</ele>
        <time>2024-09-22T15:48:49.000Z</time>
      </trkpt>
      <trkpt lat="42.71805" lon="19.68679">
        <ele>1771.8499755859</ele>
        <time>2024-09-22T15:48:50.000Z</time>
      </trkpt>
      <trkpt lat="42.71802" lon="19.68675">
        <ele>1771.8499755859</ele>
        <time>2024-09-22T15:48:51.000Z</time>
      </trkpt>
      <trkpt lat="42.71798" lon="19.68666">
        <ele>1771.3699951172</ele>
        <time>2024-09-22T15:48:52.000Z</time>
      </trkpt>
      <trkpt lat="42.71792" lon="19.68654">
        <ele>1770.8900146484</ele>
        <time>2024-09-22T15:48:53.000Z</time>
      </trkpt>
      <trkpt lat="42.7179" lon="19.6865">
        <ele>1770.4100341797</ele>
        <time>2024-09-22T15:48:54.000Z</time>
      </trkpt>
      <trkpt lat="42.71786" lon="19.68641">
        <ele>1769.9200439453</ele>
        <time>2024-09-22T15:48:55.000Z</time>
      </trkpt>
      <trkpt lat="42.71781" lon="19.68628">
        <ele>1768.4799804688</ele>
        <time>2024-09-22T15:48:56.000Z</time>
      </trkpt>
      <trkpt lat="42.71778" lon="19.68623">
        <ele>1768.4799804688</ele>
        <time>2024-09-22T15:48:57.000Z</time>
      </trkpt>
      <trkpt lat="42.71774" lon="19.68615">
        <ele>1768</ele>
        <time>2024-09-22T15:48:58.000Z</time>
      </trkpt>
      <trkpt lat="42.71766" lon="19.68601">
        <ele>1767.5200195312</ele>
        <time>2024-09-22T15:48:59.000Z</time>
      </trkpt>
      <trkpt lat="42.71763" lon="19.68594">
        <ele>1767.5200195312</ele>
        <time>2024-09-22T15:49:00.000Z</time>
      </trkpt>
      <trkpt lat="42.71759" lon="19.68588">
        <ele>1767.5200195312</ele>
        <time>2024-09-22T15:49:01.000Z</time>
      </trkpt>
      <trkpt lat="42.71747" lon="19.68562">
        <ele>1767.5200195312</ele>
        <time>2024-09-22T15:49:03.000Z</time>
      </trkpt>
      <trkpt lat="42.7174" lon="19.68547">
        <ele>1767.5200195312</ele>
        <time>2024-09-22T15:49:05.000Z</time>
      </trkpt>
      <trkpt lat="42.71732" lon="19.68531">
        <ele>1768.4799804688</ele>
        <time>2024-09-22T15:49:07.000Z</time>
      </trkpt>
      <trkpt lat="42.71728" lon="19.68522">
        <ele>1768.9599609375</ele>
        <time>2024-09-22T15:49:08.000Z</time>
      </trkpt>
      <trkpt lat="42.71716" lon="19.68506">
        <ele>1769.9200439453</ele>
        <time>2024-09-22T15:49:12.000Z</time>
      </trkpt>
      <trkpt lat="42.71711" lon="19.68501">
        <ele>1769.9200439453</ele>
        <time>2024-09-22T15:49:14.000Z</time>
      </trkpt>
      <trkpt lat="42.71707" lon="19.68497">
        <ele>1769.9200439453</ele>
        <time>2024-09-22T15:49:15.000Z</time>
      </trkpt>
      <trkpt lat="42.71702" lon="19.68493">
        <ele>1769.4399414062</ele>
        <time>2024-09-22T15:49:16.000Z</time>
      </trkpt>
      <trkpt lat="42.71698" lon="19.68489">
        <ele>1768.9599609375</ele>
        <time>2024-09-22T15:49:17.000Z</time>
      </trkpt>
      <trkpt lat="42.71695" lon="19.68486">
        <ele>1768.9599609375</ele>
        <time>2024-09-22T15:49:18.000Z</time>
      </trkpt>
      <trkpt lat="42.7169" lon="19.68483">
        <ele>1768.4799804688</ele>
        <time>2024-09-22T15:49:19.000Z</time>
      </trkpt>
      <trkpt lat="42.71674" lon="19.68473">
        <ele>1767.0400390625</ele>
        <time>2024-09-22T15:49:24.000Z</time>
      </trkpt>
      <trkpt lat="42.71672" lon="19.68472">
        <ele>1767.0400390625</ele>
        <time>2024-09-22T15:49:25.000Z</time>
      </trkpt>
      <trkpt lat="42.71666" lon="19.68468">
        <ele>1767.0400390625</ele>
        <time>2024-09-22T15:49:26.000Z</time>
      </trkpt>
      <trkpt lat="42.71664" lon="19.68466">
        <ele>1767.0400390625</ele>
        <time>2024-09-22T15:49:27.000Z</time>
      </trkpt>
      <trkpt lat="42.7166" lon="19.68463">
        <ele>1767.0400390625</ele>
        <time>2024-09-22T15:49:28.000Z</time>
      </trkpt>
      <trkpt lat="42.71654" lon="19.6846">
        <ele>1767.0400390625</ele>
        <time>2024-09-22T15:49:29.000Z</time>
      </trkpt>
      <trkpt lat="42.7165" lon="19.68458">
        <ele>1767.5200195312</ele>
        <time>2024-09-22T15:49:30.000Z</time>
      </trkpt>
      <trkpt lat="42.71648" lon="19.68456">
        <ele>1767.0400390625</ele>
        <time>2024-09-22T15:49:31.000Z</time>
      </trkpt>
      <trkpt lat="42.71638" lon="19.68451">
        <ele>1767.5200195312</ele>
        <time>2024-09-22T15:49:33.000Z</time>
      </trkpt>
      <trkpt lat="42.71634" lon="19.68448">
        <ele>1767.5200195312</ele>
        <time>2024-09-22T15:49:34.000Z</time>
      </trkpt>
      <trkpt lat="42.71623" lon="19.6844">
        <ele>1767.5200195312</ele>
        <time>2024-09-22T15:49:36.000Z</time>
      </trkpt>
      <trkpt lat="42.71619" lon="19.68436">
        <ele>1767.5200195312</ele>
        <time>2024-09-22T15:49:37.000Z</time>
      </trkpt>
      <trkpt lat="42.71614" lon="19.6843">
        <ele>1767.5200195312</ele>
        <time>2024-09-22T15:49:38.000Z</time>
      </trkpt>
      <trkpt lat="42.7161" lon="19.68424">
        <ele>1767.5200195312</ele>
        <time>2024-09-22T15:49:39.000Z</time>
      </trkpt>
      <trkpt lat="42.71604" lon="19.68413">
        <ele>1768</ele>
        <time>2024-09-22T15:49:40.000Z</time>
      </trkpt>
      <trkpt lat="42.716" lon="19.68403">
        <ele>1768</ele>
        <time>2024-09-22T15:49:41.000Z</time>
      </trkpt>
      <trkpt lat="42.71597" lon="19.68397">
        <ele>1768</ele>
        <time>2024-09-22T15:49:42.000Z</time>
      </trkpt>
      <trkpt lat="42.71592" lon="19.68389">
        <ele>1767.5200195312</ele>
        <time>2024-09-22T15:49:43.000Z</time>
      </trkpt>
      <trkpt lat="42.71575" lon="19.68366">
        <ele>1768</ele>
        <time>2024-09-22T15:49:46.000Z</time>
      </trkpt>
      <trkpt lat="42.71564" lon="19.68353">
        <ele>1768.4799804688</ele>
        <time>2024-09-22T15:49:47.000Z</time>
      </trkpt>
      <trkpt lat="42.71563" lon="19.68351">
        <ele>1768.4799804688</ele>
        <time>2024-09-22T15:49:48.000Z</time>
      </trkpt>
      <trkpt lat="42.71557" lon="19.68344">
        <ele>1768.4799804688</ele>
        <time>2024-09-22T15:49:49.000Z</time>
      </trkpt>
      <trkpt lat="42.71549" lon="19.68335">
        <ele>1768.9599609375</ele>
        <time>2024-09-22T15:49:50.000Z</time>
      </trkpt>
      <trkpt lat="42.71546" lon="19.68331">
        <ele>1768.9599609375</ele>
        <time>2024-09-22T15:49:51.000Z</time>
      </trkpt>
      <trkpt lat="42.71536" lon="19.68322">
        <ele>1768.9599609375</ele>
        <time>2024-09-22T15:49:52.000Z</time>
      </trkpt>
      <trkpt lat="42.71533" lon="19.68319">
        <ele>1768.4799804688</ele>
        <time>2024-09-22T15:49:53.000Z</time>
      </trkpt>
      <trkpt lat="42.71528" lon="19.68314">
        <ele>1768.4799804688</ele>
        <time>2024-09-22T15:49:54.000Z</time>
      </trkpt>
      <trkpt lat="42.71523" lon="19.68309">
        <ele>1768.4799804688</ele>
        <time>2024-09-22T15:49:55.000Z</time>
      </trkpt>
      <trkpt lat="42.71512" lon="19.68299">
        <ele>1768.4799804688</ele>
        <time>2024-09-22T15:49:57.000Z</time>
      </trkpt>
      <trkpt lat="42.71504" lon="19.68292">
        <ele>1768.4799804688</ele>
        <time>2024-09-22T15:49:59.000Z</time>
      </trkpt>
      <trkpt lat="42.715" lon="19.68288">
        <ele>1768</ele>
        <time>2024-09-22T15:50:00.000Z</time>
      </trkpt>
      <trkpt lat="42.71493" lon="19.68278">
        <ele>1768.4799804688</ele>
        <time>2024-09-22T15:50:01.000Z</time>
      </trkpt>
      <trkpt lat="42.71492" lon="19.68277">
        <ele>1768.4799804688</ele>
        <time>2024-09-22T15:50:02.000Z</time>
      </trkpt>
      <trkpt lat="42.71488" lon="19.68271">
        <ele>1768.4799804688</ele>
        <time>2024-09-22T15:50:03.000Z</time>
      </trkpt>
      <trkpt lat="42.71481" lon="19.6826">
        <ele>1768</ele>
        <time>2024-09-22T15:50:04.000Z</time>
      </trkpt>
      <trkpt lat="42.71481" lon="19.68258">
        <ele>1768</ele>
        <time>2024-09-22T15:50:05.000Z</time>
      </trkpt>
      <trkpt lat="42.71477" lon="19.6825">
        <ele>1768</ele>
        <time>2024-09-22T15:50:06.000Z</time>
      </trkpt>
      <trkpt lat="42.71474" lon="19.68242">
        <ele>1767.5200195312</ele>
        <time>2024-09-22T15:50:07.000Z</time>
      </trkpt>
      <trkpt lat="42.71472" lon="19.68237">
        <ele>1767.5200195312</ele>
        <time>2024-09-22T15:50:08.000Z</time>
      </trkpt>
      <trkpt lat="42.71464" lon="19.68227">
        <ele>1767.0400390625</ele>
        <time>2024-09-22T15:50:11.000Z</time>
      </trkpt>
      <trkpt lat="42.7146" lon="19.68225">
        <ele>1767.5200195312</ele>
        <time>2024-09-22T15:50:12.000Z</time>
      </trkpt>
      <trkpt lat="42.71456" lon="19.68223">
        <ele>1767.5200195312</ele>
        <time>2024-09-22T15:50:13.000Z</time>
      </trkpt>
      <trkpt lat="42.71449" lon="19.68217">
        <ele>1767.5200195312</ele>
        <time>2024-09-22T15:50:14.000Z</time>
      </trkpt>
      <trkpt lat="42.71447" lon="19.68215">
        <ele>1767.5200195312</ele>
        <time>2024-09-22T15:50:15.000Z</time>
      </trkpt>
      <trkpt lat="42.71434" lon="19.68203">
        <ele>1767.5200195312</ele>
        <time>2024-09-22T15:50:17.000Z</time>
      </trkpt>
      <trkpt lat="42.71431" lon="19.682">
        <ele>1767.5200195312</ele>
        <time>2024-09-22T15:50:18.000Z</time>
      </trkpt>
      <trkpt lat="42.71423" lon="19.68192">
        <ele>1767.0400390625</ele>
        <time>2024-09-22T15:50:19.000Z</time>
      </trkpt>
      <trkpt lat="42.71417" lon="19.68184">
        <ele>1766.5600585938</ele>
        <time>2024-09-22T15:50:21.000Z</time>
      </trkpt>
      <trkpt lat="42.71411" lon="19.68178">
        <ele>1766.0799560547</ele>
        <time>2024-09-22T15:50:22.000Z</time>
      </trkpt>
      <trkpt lat="42.71402" lon="19.68172">
        <ele>1766.0799560547</ele>
        <time>2024-09-22T15:50:23.000Z</time>
      </trkpt>
      <trkpt lat="42.71392" lon="19.68164">
        <ele>1766.0799560547</ele>
        <time>2024-09-22T15:50:25.000Z</time>
      </trkpt>
      <trkpt lat="42.71388" lon="19.68161">
        <ele>1766.0799560547</ele>
        <time>2024-09-22T15:50:26.000Z</time>
      </trkpt>
      <trkpt lat="42.71381" lon="19.68154">
        <ele>1765.5999755859</ele>
        <time>2024-09-22T15:50:27.000Z</time>
      </trkpt>
      <trkpt lat="42.71378" lon="19.68151">
        <ele>1765.5999755859</ele>
        <time>2024-09-22T15:50:28.000Z</time>
      </trkpt>
      <trkpt lat="42.71372" lon="19.68143">
        <ele>1765.1199951172</ele>
        <time>2024-09-22T15:50:29.000Z</time>
      </trkpt>
      <trkpt lat="42.71366" lon="19.68136">
        <ele>1765.5999755859</ele>
        <time>2024-09-22T15:50:30.000Z</time>
      </trkpt>
      <trkpt lat="42.71364" lon="19.68132">
        <ele>1765.5999755859</ele>
        <time>2024-09-22T15:50:31.000Z</time>
      </trkpt>
      <trkpt lat="42.71358" lon="19.6812">
        <ele>1765.1199951172</ele>
        <time>2024-09-22T15:50:32.000Z</time>
      </trkpt>
      <trkpt lat="42.71355" lon="19.68115">
        <ele>1764.6400146484</ele>
        <time>2024-09-22T15:50:33.000Z</time>
      </trkpt>
      <trkpt lat="42.71351" lon="19.68108">
        <ele>1764.6400146484</ele>
        <time>2024-09-22T15:50:34.000Z</time>
      </trkpt>
      <trkpt lat="42.71344" lon="19.68101">
        <ele>1764.6400146484</ele>
        <time>2024-09-22T15:50:35.000Z</time>
      </trkpt>
      <trkpt lat="42.71329" lon="19.68091">
        <ele>1765.5999755859</ele>
        <time>2024-09-22T15:50:37.000Z</time>
      </trkpt>
      <trkpt lat="42.71322" lon="19.68086">
        <ele>1765.5999755859</ele>
        <time>2024-09-22T15:50:38.000Z</time>
      </trkpt>
      <trkpt lat="42.71317" lon="19.68082">
        <ele>1765.5999755859</ele>
        <time>2024-09-22T15:50:39.000Z</time>
      </trkpt>
      <trkpt lat="42.71309" lon="19.68075">
        <ele>1765.5999755859</ele>
        <time>2024-09-22T15:50:40.000Z</time>
      </trkpt>
      <trkpt lat="42.71303" lon="19.68068">
        <ele>1766.0799560547</ele>
        <time>2024-09-22T15:50:41.000Z</time>
      </trkpt>
      <trkpt lat="42.71299" lon="19.68063">
        <ele>1766.5600585938</ele>
        <time>2024-09-22T15:50:42.000Z</time>
      </trkpt>
      <trkpt lat="42.71295" lon="19.68057">
        <ele>1767.0400390625</ele>
        <time>2024-09-22T15:50:43.000Z</time>
      </trkpt>
      <trkpt lat="42.71292" lon="19.68051">
        <ele>1767.0400390625</ele>
        <time>2024-09-22T15:50:44.000Z</time>
      </trkpt>
      <trkpt lat="42.71291" lon="19.68044">
        <ele>1767.5200195312</ele>
        <time>2024-09-22T15:50:45.000Z</time>
      </trkpt>
      <trkpt lat="42.71289" lon="19.68037">
        <ele>1767.5200195312</ele>
        <time>2024-09-22T15:50:46.000Z</time>
      </trkpt>
      <trkpt lat="42.71285" lon="19.6803">
        <ele>1767.5200195312</ele>
        <time>2024-09-22T15:50:47.000Z</time>
      </trkpt>
      <trkpt lat="42.71251" lon="19.67996">
        <ele>1769.4399414062</ele>
        <time>2024-09-22T15:50:53.000Z</time>
      </trkpt>
      <trkpt lat="42.71242" lon="19.67986">
        <ele>1769.9200439453</ele>
        <time>2024-09-22T15:50:54.000Z</time>
      </trkpt>
      <trkpt lat="42.7124" lon="19.67984">
        <ele>1769.4399414062</ele>
        <time>2024-09-22T15:50:55.000Z</time>
      </trkpt>
      <trkpt lat="42.71233" lon="19.67974">
        <ele>1768.9599609375</ele>
        <time>2024-09-22T15:50:56.000Z</time>
      </trkpt>
      <trkpt lat="42.71228" lon="19.67969">
        <ele>1768.9599609375</ele>
        <time>2024-09-22T15:50:57.000Z</time>
      </trkpt>
      <trkpt lat="42.7122" lon="19.67962">
        <ele>1768.9599609375</ele>
        <time>2024-09-22T15:50:58.000Z</time>
      </trkpt>
      <trkpt lat="42.71209" lon="19.67953">
        <ele>1769.4399414062</ele>
        <time>2024-09-22T15:50:59.000Z</time>
      </trkpt>
      <trkpt lat="42.71199" lon="19.67947">
        <ele>1768.9599609375</ele>
        <time>2024-09-22T15:51:00.000Z</time>
      </trkpt>
      <trkpt lat="42.71197" lon="19.67945">
        <ele>1768.9599609375</ele>
        <time>2024-09-22T15:51:01.000Z</time>
      </trkpt>
      <trkpt lat="42.71189" lon="19.67942">
        <ele>1768.9599609375</ele>
        <time>2024-09-22T15:51:02.000Z</time>
      </trkpt>
      <trkpt lat="42.71164" lon="19.67938">
        <ele>1770.4100341797</ele>
        <time>2024-09-22T15:51:05.000Z</time>
      </trkpt>
      <trkpt lat="42.71159" lon="19.67937">
        <ele>1770.4100341797</ele>
        <time>2024-09-22T15:51:06.000Z</time>
      </trkpt>
      <trkpt lat="42.7115" lon="19.67934">
        <ele>1770.8900146484</ele>
        <time>2024-09-22T15:51:07.000Z</time>
      </trkpt>
      <trkpt lat="42.71138" lon="19.67929">
        <ele>1770.8900146484</ele>
        <time>2024-09-22T15:51:08.000Z</time>
      </trkpt>
      <trkpt lat="42.71135" lon="19.67927">
        <ele>1770.8900146484</ele>
        <time>2024-09-22T15:51:09.000Z</time>
      </trkpt>
      <trkpt lat="42.71117" lon="19.67921">
        <ele>1771.3699951172</ele>
        <time>2024-09-22T15:51:11.000Z</time>
      </trkpt>
      <trkpt lat="42.71115" lon="19.6792">
        <ele>1771.3699951172</ele>
        <time>2024-09-22T15:51:12.000Z</time>
      </trkpt>
      <trkpt lat="42.71109" lon="19.67917">
        <ele>1771.8499755859</ele>
        <time>2024-09-22T15:51:13.000Z</time>
      </trkpt>
      <trkpt lat="42.71089" lon="19.67891">
        <ele>1771.8499755859</ele>
        <time>2024-09-22T15:51:22.000Z</time>
      </trkpt>
      <trkpt lat="42.71087" lon="19.67888">
        <ele>1771.3699951172</ele>
        <time>2024-09-22T15:51:23.000Z</time>
      </trkpt>
      <trkpt lat="42.71085" lon="19.67883">
        <ele>1770.8900146484</ele>
        <time>2024-09-22T15:51:24.000Z</time>
      </trkpt>
      <trkpt lat="42.71081" lon="19.67878">
        <ele>1770.8900146484</ele>
        <time>2024-09-22T15:51:25.000Z</time>
      </trkpt>
      <trkpt lat="42.71076" lon="19.67873">
        <ele>1770.8900146484</ele>
        <time>2024-09-22T15:51:26.000Z</time>
      </trkpt>
      <trkpt lat="42.7107" lon="19.67868">
        <ele>1770.4100341797</ele>
        <time>2024-09-22T15:51:27.000Z</time>
      </trkpt>
      <trkpt lat="42.71058" lon="19.67861">
        <ele>1770.4100341797</ele>
        <time>2024-09-22T15:51:29.000Z</time>
      </trkpt>
      <trkpt lat="42.71052" lon="19.67857">
        <ele>1770.4100341797</ele>
        <time>2024-09-22T15:51:30.000Z</time>
      </trkpt>
      <trkpt lat="42.71044" lon="19.67849">
        <ele>1770.4100341797</ele>
        <time>2024-09-22T15:51:31.000Z</time>
      </trkpt>
      <trkpt lat="42.71042" lon="19.67847">
        <ele>1770.4100341797</ele>
        <time>2024-09-22T15:51:32.000Z</time>
      </trkpt>
      <trkpt lat="42.71039" lon="19.67843">
        <ele>1770.4100341797</ele>
        <time>2024-09-22T15:51:33.000Z</time>
      </trkpt>
      <trkpt lat="42.71031" lon="19.67833">
        <ele>1769.9200439453</ele>
        <time>2024-09-22T15:51:34.000Z</time>
      </trkpt>
      <trkpt lat="42.71029" lon="19.67831">
        <ele>1769.9200439453</ele>
        <time>2024-09-22T15:51:35.000Z</time>
      </trkpt>
      <trkpt lat="42.71025" lon="19.67826">
        <ele>1769.9200439453</ele>
        <time>2024-09-22T15:51:36.000Z</time>
      </trkpt>
      <trkpt lat="42.71015" lon="19.67819">
        <ele>1770.4100341797</ele>
        <time>2024-09-22T15:51:37.000Z</time>
      </trkpt>
      <trkpt lat="42.71012" lon="19.67817">
        <ele>1770.4100341797</ele>
        <time>2024-09-22T15:51:38.000Z</time>
      </trkpt>
      <trkpt lat="42.71006" lon="19.67814">
        <ele>1769.9200439453</ele>
        <time>2024-09-22T15:51:39.000Z</time>
      </trkpt>
      <trkpt lat="42.70915" lon="19.67781">
        <ele>1766.5600585938</ele>
        <time>2024-09-22T16:09:22.000Z</time>
      </trkpt>
      <trkpt lat="42.70914" lon="19.6778">
        <ele>1766.5600585938</ele>
        <time>2024-09-22T16:09:40.000Z</time>
      </trkpt>
      <trkpt lat="42.70912" lon="19.67777">
        <ele>1766.5600585938</ele>
        <time>2024-09-22T16:09:50.000Z</time>
      </trkpt>
      <trkpt lat="42.70911" lon="19.67777">
        <ele>1763.6800537109</ele>
        <time>2024-09-22T16:11:00.000Z</time>
      </trkpt>
      <trkpt lat="42.70896" lon="19.67767">
        <ele>1764.1600341797</ele>
        <time>2024-09-22T16:11:05.000Z</time>
      </trkpt>
      <trkpt lat="42.70895" lon="19.67766">
        <ele>1764.1600341797</ele>
        <time>2024-09-22T16:11:06.000Z</time>
      </trkpt>
      <trkpt lat="42.7089" lon="19.67764">
        <ele>1764.6400146484</ele>
        <time>2024-09-22T16:11:07.000Z</time>
      </trkpt>
      <trkpt lat="42.70886" lon="19.67763">
        <ele>1765.1199951172</ele>
        <time>2024-09-22T16:11:08.000Z</time>
      </trkpt>
      <trkpt lat="42.70878" lon="19.67761">
        <ele>1765.1199951172</ele>
        <time>2024-09-22T16:11:09.000Z</time>
      </trkpt>
      <trkpt lat="42.70876" lon="19.67761">
        <ele>1765.1199951172</ele>
        <time>2024-09-22T16:11:10.000Z</time>
      </trkpt>
      <trkpt lat="42.70872" lon="19.67759">
        <ele>1765.1199951172</ele>
        <time>2024-09-22T16:11:11.000Z</time>
      </trkpt>
      <trkpt lat="42.70865" lon="19.67756">
        <ele>1765.5999755859</ele>
        <time>2024-09-22T16:11:12.000Z</time>
      </trkpt>
      <trkpt lat="42.70861" lon="19.67754">
        <ele>1765.5999755859</ele>
        <time>2024-09-22T16:11:13.000Z</time>
      </trkpt>
      <trkpt lat="42.70852" lon="19.67749">
        <ele>1766.5600585938</ele>
        <time>2024-09-22T16:11:14.000Z</time>
      </trkpt>
      <trkpt lat="42.70841" lon="19.67745">
        <ele>1766.5600585938</ele>
        <time>2024-09-22T16:11:16.000Z</time>
      </trkpt>
      <trkpt lat="42.70836" lon="19.67743">
        <ele>1766.5600585938</ele>
        <time>2024-09-22T16:11:17.000Z</time>
      </trkpt>
      <trkpt lat="42.70835" lon="19.67742">
        <ele>1766.5600585938</ele>
        <time>2024-09-22T16:11:18.000Z</time>
      </trkpt>
      <trkpt lat="42.70829" lon="19.6774">
        <ele>1766.5600585938</ele>
        <time>2024-09-22T16:11:19.000Z</time>
      </trkpt>
      <trkpt lat="42.70821" lon="19.67738">
        <ele>1767.0400390625</ele>
        <time>2024-09-22T16:11:20.000Z</time>
      </trkpt>
      <trkpt lat="42.70819" lon="19.67738">
        <ele>1767.0400390625</ele>
        <time>2024-09-22T16:11:21.000Z</time>
      </trkpt>
      <trkpt lat="42.70802" lon="19.67732">
        <ele>1768.4799804688</ele>
        <time>2024-09-22T16:11:24.000Z</time>
      </trkpt>
      <trkpt lat="42.70796" lon="19.67729">
        <ele>1769.4399414062</ele>
        <time>2024-09-22T16:11:25.000Z</time>
      </trkpt>
      <trkpt lat="42.70787" lon="19.67726">
        <ele>1770.4100341797</ele>
        <time>2024-09-22T16:11:26.000Z</time>
      </trkpt>
      <trkpt lat="42.70786" lon="19.67726">
        <ele>1770.8900146484</ele>
        <time>2024-09-22T16:11:27.000Z</time>
      </trkpt>
      <trkpt lat="42.70774" lon="19.67724">
        <ele>1771.8499755859</ele>
        <time>2024-09-22T16:11:30.000Z</time>
      </trkpt>
      <trkpt lat="42.70771" lon="19.67724">
        <ele>1771.8499755859</ele>
        <time>2024-09-22T16:11:31.000Z</time>
      </trkpt>
      <trkpt lat="42.70766" lon="19.67724">
        <ele>1771.8499755859</ele>
        <time>2024-09-22T16:11:32.000Z</time>
      </trkpt>
      <trkpt lat="42.70755" lon="19.67724">
        <ele>1771.8499755859</ele>
        <time>2024-09-22T16:11:34.000Z</time>
      </trkpt>
      <trkpt lat="42.70748" lon="19.67724">
        <ele>1772.3299560547</ele>
        <time>2024-09-22T16:11:35.000Z</time>
      </trkpt>
      <trkpt lat="42.70744" lon="19.67723">
        <ele>1772.3299560547</ele>
        <time>2024-09-22T16:11:36.000Z</time>
      </trkpt>
      <trkpt lat="42.70737" lon="19.67722">
        <ele>1772.3299560547</ele>
        <time>2024-09-22T16:11:37.000Z</time>
      </trkpt>
      <trkpt lat="42.7073" lon="19.67722">
        <ele>1772.8100585938</ele>
        <time>2024-09-22T16:11:38.000Z</time>
      </trkpt>
      <trkpt lat="42.70726" lon="19.67722">
        <ele>1772.8100585938</ele>
        <time>2024-09-22T16:11:39.000Z</time>
      </trkpt>
      <trkpt lat="42.70713" lon="19.67719">
        <ele>1773.7700195312</ele>
        <time>2024-09-22T16:11:41.000Z</time>
      </trkpt>
      <trkpt lat="42.70699" lon="19.67715">
        <ele>1775.2099609375</ele>
        <time>2024-09-22T16:11:44.000Z</time>
      </trkpt>
      <trkpt lat="42.70689" lon="19.67712">
        <ele>1776.6500244141</ele>
        <time>2024-09-22T16:11:46.000Z</time>
      </trkpt>
      <trkpt lat="42.70686" lon="19.67711">
        <ele>1777.1300048828</ele>
        <time>2024-09-22T16:11:47.000Z</time>
      </trkpt>
      <trkpt lat="42.70679" lon="19.67709">
        <ele>1777.6099853516</ele>
        <time>2024-09-22T16:11:48.000Z</time>
      </trkpt>
      <trkpt lat="42.70676" lon="19.67707">
        <ele>1777.6099853516</ele>
        <time>2024-09-22T16:11:49.000Z</time>
      </trkpt>
      <trkpt lat="42.70663" lon="19.677">
        <ele>1778.0999755859</ele>
        <time>2024-09-22T16:11:51.000Z</time>
      </trkpt>
      <trkpt lat="42.70658" lon="19.67697">
        <ele>1778.0999755859</ele>
        <time>2024-09-22T16:11:52.000Z</time>
      </trkpt>
      <trkpt lat="42.70655" lon="19.67695">
        <ele>1777.6099853516</ele>
        <time>2024-09-22T16:11:53.000Z</time>
      </trkpt>
      <trkpt lat="42.70649" lon="19.67692">
        <ele>1777.6099853516</ele>
        <time>2024-09-22T16:11:54.000Z</time>
      </trkpt>
      <trkpt lat="42.70642" lon="19.6769">
        <ele>1778.0999755859</ele>
        <time>2024-09-22T16:11:55.000Z</time>
      </trkpt>
      <trkpt lat="42.70635" lon="19.67689">
        <ele>1778.0999755859</ele>
        <time>2024-09-22T16:11:56.000Z</time>
      </trkpt>
      <trkpt lat="42.70628" lon="19.67687">
        <ele>1777.6099853516</ele>
        <time>2024-09-22T16:11:57.000Z</time>
      </trkpt>
      <trkpt lat="42.7062" lon="19.67684">
        <ele>1777.6099853516</ele>
        <time>2024-09-22T16:11:59.000Z</time>
      </trkpt>
      <trkpt lat="42.7061" lon="19.67681">
        <ele>1778.0999755859</ele>
        <time>2024-09-22T16:12:00.000Z</time>
      </trkpt>
      <trkpt lat="42.70595" lon="19.67677">
        <ele>1778.5799560547</ele>
        <time>2024-09-22T16:12:03.000Z</time>
      </trkpt>
      <trkpt lat="42.70569" lon="19.67672">
        <ele>1779.0600585938</ele>
        <time>2024-09-22T16:12:08.000Z</time>
      </trkpt>
      <trkpt lat="42.70549" lon="19.67667">
        <ele>1779.5400390625</ele>
        <time>2024-09-22T16:12:11.000Z</time>
      </trkpt>
      <trkpt lat="42.70545" lon="19.67666">
        <ele>1779.5400390625</ele>
        <time>2024-09-22T16:12:12.000Z</time>
      </trkpt>
      <trkpt lat="42.70531" lon="19.67662">
        <ele>1780.0200195312</ele>
        <time>2024-09-22T16:12:14.000Z</time>
      </trkpt>
      <trkpt lat="42.70527" lon="19.67661">
        <ele>1780.5</ele>
        <time>2024-09-22T16:12:15.000Z</time>
      </trkpt>
      <trkpt lat="42.7052" lon="19.67659">
        <ele>1780.5</ele>
        <time>2024-09-22T16:12:16.000Z</time>
      </trkpt>
      <trkpt lat="42.70518" lon="19.67659">
        <ele>1780.5</ele>
        <time>2024-09-22T16:12:17.000Z</time>
      </trkpt>
      <trkpt lat="42.70513" lon="19.67659">
        <ele>1780.9799804688</ele>
        <time>2024-09-22T16:12:18.000Z</time>
      </trkpt>
      <trkpt lat="42.70506" lon="19.6766">
        <ele>1781.4599609375</ele>
        <time>2024-09-22T16:12:19.000Z</time>
      </trkpt>
      <trkpt lat="42.70498" lon="19.67664">
        <ele>1782.4200439453</ele>
        <time>2024-09-22T16:12:20.000Z</time>
      </trkpt>
      <trkpt lat="42.70494" lon="19.67665">
        <ele>1782.4200439453</ele>
        <time>2024-09-22T16:12:21.000Z</time>
      </trkpt>
      <trkpt lat="42.70488" lon="19.67667">
        <ele>1783.3800048828</ele>
        <time>2024-09-22T16:12:22.000Z</time>
      </trkpt>
      <trkpt lat="42.70481" lon="19.67667">
        <ele>1784.3399658203</ele>
        <time>2024-09-22T16:12:23.000Z</time>
      </trkpt>
      <trkpt lat="42.70471" lon="19.67666">
        <ele>1786.2700195312</ele>
        <time>2024-09-22T16:12:25.000Z</time>
      </trkpt>
      <trkpt lat="42.70467" lon="19.67665">
        <ele>1786.75</ele>
        <time>2024-09-22T16:12:26.000Z</time>
      </trkpt>
      <trkpt lat="42.70462" lon="19.67666">
        <ele>1787.2299804688</ele>
        <time>2024-09-22T16:12:27.000Z</time>
      </trkpt>
      <trkpt lat="42.70453" lon="19.67668">
        <ele>1787.7099609375</ele>
        <time>2024-09-22T16:12:28.000Z</time>
      </trkpt>
      <trkpt lat="42.70443" lon="19.67671">
        <ele>1787.7099609375</ele>
        <time>2024-09-22T16:12:30.000Z</time>
      </trkpt>
      <trkpt lat="42.70438" lon="19.67672">
        <ele>1787.7099609375</ele>
        <time>2024-09-22T16:12:31.000Z</time>
      </trkpt>
      <trkpt lat="42.70434" lon="19.67673">
        <ele>1787.7099609375</ele>
        <time>2024-09-22T16:12:32.000Z</time>
      </trkpt>
      <trkpt lat="42.70427" lon="19.67674">
        <ele>1787.7099609375</ele>
        <time>2024-09-22T16:12:33.000Z</time>
      </trkpt>
      <trkpt lat="42.70426" lon="19.67674">
        <ele>1787.7099609375</ele>
        <time>2024-09-22T16:12:34.000Z</time>
      </trkpt>
      <trkpt lat="42.70418" lon="19.67676">
        <ele>1787.2299804688</ele>
        <time>2024-09-22T16:12:35.000Z</time>
      </trkpt>
      <trkpt lat="42.70413" lon="19.67677">
        <ele>1787.2299804688</ele>
        <time>2024-09-22T16:12:36.000Z</time>
      </trkpt>
      <trkpt lat="42.70398" lon="19.67682">
        <ele>1786.75</ele>
        <time>2024-09-22T16:12:39.000Z</time>
      </trkpt>
      <trkpt lat="42.70393" lon="19.67683">
        <ele>1786.75</ele>
        <time>2024-09-22T16:12:40.000Z</time>
      </trkpt>
      <trkpt lat="42.70391" lon="19.67684">
        <ele>1786.75</ele>
        <time>2024-09-22T16:12:41.000Z</time>
      </trkpt>
      <trkpt lat="42.70386" lon="19.67685">
        <ele>1786.75</ele>
        <time>2024-09-22T16:12:42.000Z</time>
      </trkpt>
      <trkpt lat="42.70379" lon="19.67688">
        <ele>1786.75</ele>
        <time>2024-09-22T16:12:43.000Z</time>
      </trkpt>
      <trkpt lat="42.70377" lon="19.6769">
        <ele>1786.75</ele>
        <time>2024-09-22T16:12:44.000Z</time>
      </trkpt>
      <trkpt lat="42.70362" lon="19.67697">
        <ele>1787.7099609375</ele>
        <time>2024-09-22T16:12:51.000Z</time>
      </trkpt>
      <trkpt lat="42.70352" lon="19.67688">
        <ele>1788.6700439453</ele>
        <time>2024-09-22T16:12:58.000Z</time>
      </trkpt>
      <trkpt lat="42.70356" lon="19.67687">
        <ele>1788.1899414062</ele>
        <time>2024-09-22T16:12:59.000Z</time>
      </trkpt>
      <trkpt lat="42.70358" lon="19.67687">
        <ele>1787.7099609375</ele>
        <time>2024-09-22T16:13:00.000Z</time>
      </trkpt>
      <trkpt lat="42.70365" lon="19.67689">
        <ele>1787.2299804688</ele>
        <time>2024-09-22T16:13:01.000Z</time>
      </trkpt>
      <trkpt lat="42.70368" lon="19.67689">
        <ele>1786.75</ele>
        <time>2024-09-22T16:13:02.000Z</time>
      </trkpt>
      <trkpt lat="42.70392" lon="19.67687">
        <ele>1786.75</ele>
        <time>2024-09-22T16:13:08.000Z</time>
      </trkpt>
      <trkpt lat="42.70394" lon="19.67686">
        <ele>1786.75</ele>
        <time>2024-09-22T16:13:09.000Z</time>
      </trkpt>
      <trkpt lat="42.70397" lon="19.67685">
        <ele>1786.2700195312</ele>
        <time>2024-09-22T16:13:10.000Z</time>
      </trkpt>
      <trkpt lat="42.70402" lon="19.67683">
        <ele>1786.2700195312</ele>
        <time>2024-09-22T16:13:11.000Z</time>
      </trkpt>
      <trkpt lat="42.70406" lon="19.67681">
        <ele>1786.2700195312</ele>
        <time>2024-09-22T16:13:12.000Z</time>
      </trkpt>
      <trkpt lat="42.70457" lon="19.67669">
        <ele>1788.6700439453</ele>
        <time>2024-09-22T16:13:22.000Z</time>
      </trkpt>
      <trkpt lat="42.70462" lon="19.67668">
        <ele>1788.6700439453</ele>
        <time>2024-09-22T16:13:23.000Z</time>
      </trkpt>
      <trkpt lat="42.70469" lon="19.67668">
        <ele>1787.7099609375</ele>
        <time>2024-09-22T16:13:24.000Z</time>
      </trkpt>
      <trkpt lat="42.70483" lon="19.67669">
        <ele>1785.3100585938</ele>
        <time>2024-09-22T16:13:25.000Z</time>
      </trkpt>
      <trkpt lat="42.70485" lon="19.67669">
        <ele>1785.3100585938</ele>
        <time>2024-09-22T16:13:26.000Z</time>
      </trkpt>
      <trkpt lat="42.70491" lon="19.67669">
        <ele>1784.3399658203</ele>
        <time>2024-09-22T16:13:27.000Z</time>
      </trkpt>
      <trkpt lat="42.70497" lon="19.67667">
        <ele>1783.8599853516</ele>
        <time>2024-09-22T16:13:28.000Z</time>
      </trkpt>
      <trkpt lat="42.70506" lon="19.67663">
        <ele>1782.9000244141</ele>
        <time>2024-09-22T16:13:29.000Z</time>
      </trkpt>
      <trkpt lat="42.70508" lon="19.67663">
        <ele>1782.4200439453</ele>
        <time>2024-09-22T16:13:30.000Z</time>
      </trkpt>
      <trkpt lat="42.70514" lon="19.67662">
        <ele>1781.9399414062</ele>
        <time>2024-09-22T16:13:31.000Z</time>
      </trkpt>
      <trkpt lat="42.70522" lon="19.67662">
        <ele>1781.4599609375</ele>
        <time>2024-09-22T16:13:32.000Z</time>
      </trkpt>
      <trkpt lat="42.70537" lon="19.67666">
        <ele>1780.5</ele>
        <time>2024-09-22T16:13:34.000Z</time>
      </trkpt>
      <trkpt lat="42.70546" lon="19.67668">
        <ele>1780.0200195312</ele>
        <time>2024-09-22T16:13:36.000Z</time>
      </trkpt>
      <trkpt lat="42.70602" lon="19.67681">
        <ele>1779.0600585938</ele>
        <time>2024-09-22T16:13:45.000Z</time>
      </trkpt>
      <trkpt lat="42.70619" lon="19.67686">
        <ele>1778.0999755859</ele>
        <time>2024-09-22T16:13:47.000Z</time>
      </trkpt>
      <trkpt lat="42.70652" lon="19.67697">
        <ele>1777.1300048828</ele>
        <time>2024-09-22T16:13:52.000Z</time>
      </trkpt>
      <trkpt lat="42.70655" lon="19.67698">
        <ele>1777.6099853516</ele>
        <time>2024-09-22T16:13:53.000Z</time>
      </trkpt>
      <trkpt lat="42.70664" lon="19.67702">
        <ele>1777.6099853516</ele>
        <time>2024-09-22T16:13:54.000Z</time>
      </trkpt>
      <trkpt lat="42.70672" lon="19.67708">
        <ele>1778.0999755859</ele>
        <time>2024-09-22T16:13:55.000Z</time>
      </trkpt>
      <trkpt lat="42.70674" lon="19.67709">
        <ele>1778.0999755859</ele>
        <time>2024-09-22T16:13:56.000Z</time>
      </trkpt>
      <trkpt lat="42.70692" lon="19.67716">
        <ele>1776.1700439453</ele>
        <time>2024-09-22T16:14:01.000Z</time>
      </trkpt>
      <trkpt lat="42.70695" lon="19.67717">
        <ele>1776.1700439453</ele>
        <time>2024-09-22T16:14:02.000Z</time>
      </trkpt>
      <trkpt lat="42.70709" lon="19.67721">
        <ele>1774.25</ele>
        <time>2024-09-22T16:14:04.000Z</time>
      </trkpt>
      <trkpt lat="42.70718" lon="19.67724">
        <ele>1773.2900390625</ele>
        <time>2024-09-22T16:14:06.000Z</time>
      </trkpt>
      <trkpt lat="42.70738" lon="19.67726">
        <ele>1772.8100585938</ele>
        <time>2024-09-22T16:14:09.000Z</time>
      </trkpt>
      <trkpt lat="42.70743" lon="19.67726">
        <ele>1772.3299560547</ele>
        <time>2024-09-22T16:14:10.000Z</time>
      </trkpt>
      <trkpt lat="42.70757" lon="19.67727">
        <ele>1772.3299560547</ele>
        <time>2024-09-22T16:14:13.000Z</time>
      </trkpt>
      <trkpt lat="42.70772" lon="19.67728">
        <ele>1771.8499755859</ele>
        <time>2024-09-22T16:14:17.000Z</time>
      </trkpt>
      <trkpt lat="42.7078" lon="19.67728">
        <ele>1772.3299560547</ele>
        <time>2024-09-22T16:14:19.000Z</time>
      </trkpt>
      <trkpt lat="42.70783" lon="19.67728">
        <ele>1771.8499755859</ele>
        <time>2024-09-22T16:14:20.000Z</time>
      </trkpt>
      <trkpt lat="42.70791" lon="19.67731">
        <ele>1770.8900146484</ele>
        <time>2024-09-22T16:14:21.000Z</time>
      </trkpt>
      <trkpt lat="42.70795" lon="19.67733">
        <ele>1770.4100341797</ele>
        <time>2024-09-22T16:14:22.000Z</time>
      </trkpt>
      <trkpt lat="42.70811" lon="19.67738">
        <ele>1768.4799804688</ele>
        <time>2024-09-22T16:14:24.000Z</time>
      </trkpt>
      <trkpt lat="42.70837" lon="19.67746">
        <ele>1766.5600585938</ele>
        <time>2024-09-22T16:14:28.000Z</time>
      </trkpt>
      <trkpt lat="42.70851" lon="19.67752">
        <ele>1766.5600585938</ele>
        <time>2024-09-22T16:14:31.000Z</time>
      </trkpt>
      <trkpt lat="42.70861" lon="19.67757">
        <ele>1766.0799560547</ele>
        <time>2024-09-22T16:14:33.000Z</time>
      </trkpt>
      <trkpt lat="42.7087" lon="19.67762">
        <ele>1765.5999755859</ele>
        <time>2024-09-22T16:14:35.000Z</time>
      </trkpt>
      <trkpt lat="42.70883" lon="19.67766">
        <ele>1765.1199951172</ele>
        <time>2024-09-22T16:14:37.000Z</time>
      </trkpt>
      <trkpt lat="42.70887" lon="19.67767">
        <ele>1764.6400146484</ele>
        <time>2024-09-22T16:14:38.000Z</time>
      </trkpt>
      <trkpt lat="42.70893" lon="19.67768">
        <ele>1764.1600341797</ele>
        <time>2024-09-22T16:14:39.000Z</time>
      </trkpt>
      <trkpt lat="42.70896" lon="19.6777">
        <ele>1764.1600341797</ele>
        <time>2024-09-22T16:14:40.000Z</time>
      </trkpt>
      <trkpt lat="42.70902" lon="19.67772">
        <ele>1763.6800537109</ele>
        <time>2024-09-22T16:14:41.000Z</time>
      </trkpt>
      <trkpt lat="42.70905" lon="19.67775">
        <ele>1763.6800537109</ele>
        <time>2024-09-22T16:14:42.000Z</time>
      </trkpt>
      <trkpt lat="42.70922" lon="19.67789">
        <ele>1763.6800537109</ele>
        <time>2024-09-22T16:14:49.000Z</time>
      </trkpt>
      <trkpt lat="42.70931" lon="19.6779">
        <ele>1764.1600341797</ele>
        <time>2024-09-22T16:14:55.000Z</time>
      </trkpt>
      <trkpt lat="42.70944" lon="19.67792">
        <ele>1765.5999755859</ele>
        <time>2024-09-22T16:19:37.000Z</time>
      </trkpt>
      <trkpt lat="42.70947" lon="19.67792">
        <ele>1765.5999755859</ele>
        <time>2024-09-22T16:19:38.000Z</time>
      </trkpt>
      <trkpt lat="42.70952" lon="19.67794">
        <ele>1766.0799560547</ele>
        <time>2024-09-22T16:19:39.000Z</time>
      </trkpt>
      <trkpt lat="42.70958" lon="19.67798">
        <ele>1766.5600585938</ele>
        <time>2024-09-22T16:19:40.000Z</time>
      </trkpt>
      <trkpt lat="42.70961" lon="19.678">
        <ele>1767.0400390625</ele>
        <time>2024-09-22T16:19:41.000Z</time>
      </trkpt>
      <trkpt lat="42.70967" lon="19.67802">
        <ele>1767.0400390625</ele>
        <time>2024-09-22T16:19:42.000Z</time>
      </trkpt>
      <trkpt lat="42.71005" lon="19.67819">
        <ele>1768</ele>
        <time>2024-09-22T16:19:47.000Z</time>
      </trkpt>
      <trkpt lat="42.71013" lon="19.67824">
        <ele>1768</ele>
        <time>2024-09-22T16:19:48.000Z</time>
      </trkpt>
      <trkpt lat="42.71015" lon="19.67824">
        <ele>1768</ele>
        <time>2024-09-22T16:19:49.000Z</time>
      </trkpt>
      <trkpt lat="42.71021" lon="19.67829">
        <ele>1768</ele>
        <time>2024-09-22T16:19:50.000Z</time>
      </trkpt>
      <trkpt lat="42.71027" lon="19.67835">
        <ele>1767.5200195312</ele>
        <time>2024-09-22T16:19:51.000Z</time>
      </trkpt>
      <trkpt lat="42.71033" lon="19.67842">
        <ele>1768</ele>
        <time>2024-09-22T16:19:52.000Z</time>
      </trkpt>
      <trkpt lat="42.7104" lon="19.67851">
        <ele>1768</ele>
        <time>2024-09-22T16:19:53.000Z</time>
      </trkpt>
      <trkpt lat="42.71045" lon="19.67857">
        <ele>1768</ele>
        <time>2024-09-22T16:19:54.000Z</time>
      </trkpt>
      <trkpt lat="42.71055" lon="19.67864">
        <ele>1768.4799804688</ele>
        <time>2024-09-22T16:19:55.000Z</time>
      </trkpt>
      <trkpt lat="42.71059" lon="19.67867">
        <ele>1768.4799804688</ele>
        <time>2024-09-22T16:19:56.000Z</time>
      </trkpt>
      <trkpt lat="42.71069" lon="19.67873">
        <ele>1768</ele>
        <time>2024-09-22T16:19:57.000Z</time>
      </trkpt>
      <trkpt lat="42.71073" lon="19.67876">
        <ele>1768</ele>
        <time>2024-09-22T16:19:58.000Z</time>
      </trkpt>
      <trkpt lat="42.71079" lon="19.67882">
        <ele>1768</ele>
        <time>2024-09-22T16:19:59.000Z</time>
      </trkpt>
      <trkpt lat="42.71088" lon="19.67897">
        <ele>1768.9599609375</ele>
        <time>2024-09-22T16:20:01.000Z</time>
      </trkpt>
      <trkpt lat="42.71094" lon="19.67906">
        <ele>1769.4399414062</ele>
        <time>2024-09-22T16:20:02.000Z</time>
      </trkpt>
      <trkpt lat="42.71099" lon="19.67912">
        <ele>1769.4399414062</ele>
        <time>2024-09-22T16:20:03.000Z</time>
      </trkpt>
      <trkpt lat="42.71105" lon="19.67918">
        <ele>1769.4399414062</ele>
        <time>2024-09-22T16:20:04.000Z</time>
      </trkpt>
      <trkpt lat="42.71113" lon="19.67922">
        <ele>1768.9599609375</ele>
        <time>2024-09-22T16:20:05.000Z</time>
      </trkpt>
      <trkpt lat="42.71121" lon="19.67926">
        <ele>1768.9599609375</ele>
        <time>2024-09-22T16:20:06.000Z</time>
      </trkpt>
      <trkpt lat="42.71131" lon="19.6793">
        <ele>1768.4799804688</ele>
        <time>2024-09-22T16:20:07.000Z</time>
      </trkpt>
      <trkpt lat="42.71136" lon="19.67931">
        <ele>1768</ele>
        <time>2024-09-22T16:20:08.000Z</time>
      </trkpt>
      <trkpt lat="42.71145" lon="19.67936">
        <ele>1768.4799804688</ele>
        <time>2024-09-22T16:20:09.000Z</time>
      </trkpt>
      <trkpt lat="42.71152" lon="19.6794">
        <ele>1768.4799804688</ele>
        <time>2024-09-22T16:20:10.000Z</time>
      </trkpt>
      <trkpt lat="42.71158" lon="19.67942">
        <ele>1768.4799804688</ele>
        <time>2024-09-22T16:20:11.000Z</time>
      </trkpt>
      <trkpt lat="42.71166" lon="19.67944">
        <ele>1768</ele>
        <time>2024-09-22T16:20:12.000Z</time>
      </trkpt>
      <trkpt lat="42.71171" lon="19.67945">
        <ele>1768</ele>
        <time>2024-09-22T16:20:13.000Z</time>
      </trkpt>
      <trkpt lat="42.71183" lon="19.67945">
        <ele>1767.5200195312</ele>
        <time>2024-09-22T16:20:14.000Z</time>
      </trkpt>
      <trkpt lat="42.71188" lon="19.67946">
        <ele>1767.5200195312</ele>
        <time>2024-09-22T16:20:15.000Z</time>
      </trkpt>
      <trkpt lat="42.71196" lon="19.67949">
        <ele>1767.0400390625</ele>
        <time>2024-09-22T16:20:16.000Z</time>
      </trkpt>
      <trkpt lat="42.71222" lon="19.67969">
        <ele>1767.5200195312</ele>
        <time>2024-09-22T16:20:19.000Z</time>
      </trkpt>
      <trkpt lat="42.71225" lon="19.67972">
        <ele>1767.5200195312</ele>
        <time>2024-09-22T16:20:20.000Z</time>
      </trkpt>
      <trkpt lat="42.71231" lon="19.67979">
        <ele>1767.5200195312</ele>
        <time>2024-09-22T16:20:21.000Z</time>
      </trkpt>
      <trkpt lat="42.71246" lon="19.67997">
        <ele>1768</ele>
        <time>2024-09-22T16:20:23.000Z</time>
      </trkpt>
      <trkpt lat="42.71249" lon="19.68001">
        <ele>1768</ele>
        <time>2024-09-22T16:20:24.000Z</time>
      </trkpt>
      <trkpt lat="42.71259" lon="19.68012">
        <ele>1768</ele>
        <time>2024-09-22T16:20:25.000Z</time>
      </trkpt>
      <trkpt lat="42.7126" lon="19.68013">
        <ele>1767.5200195312</ele>
        <time>2024-09-22T16:20:26.000Z</time>
      </trkpt>
      <trkpt lat="42.71273" lon="19.68025">
        <ele>1767.0400390625</ele>
        <time>2024-09-22T16:20:27.000Z</time>
      </trkpt>
      <trkpt lat="42.71276" lon="19.68028">
        <ele>1767.0400390625</ele>
        <time>2024-09-22T16:20:28.000Z</time>
      </trkpt>
      <trkpt lat="42.71281" lon="19.68033">
        <ele>1766.5600585938</ele>
        <time>2024-09-22T16:20:29.000Z</time>
      </trkpt>
      <trkpt lat="42.71286" lon="19.6804">
        <ele>1766.5600585938</ele>
        <time>2024-09-22T16:20:30.000Z</time>
      </trkpt>
      <trkpt lat="42.71291" lon="19.68048">
        <ele>1766.5600585938</ele>
        <time>2024-09-22T16:20:31.000Z</time>
      </trkpt>
      <trkpt lat="42.71295" lon="19.68057">
        <ele>1766.5600585938</ele>
        <time>2024-09-22T16:20:32.000Z</time>
      </trkpt>
      <trkpt lat="42.713" lon="19.68065">
        <ele>1766.5600585938</ele>
        <time>2024-09-22T16:20:33.000Z</time>
      </trkpt>
      <trkpt lat="42.71306" lon="19.68073">
        <ele>1766.5600585938</ele>
        <time>2024-09-22T16:20:34.000Z</time>
      </trkpt>
      <trkpt lat="42.71313" lon="19.68081">
        <ele>1766.5600585938</ele>
        <time>2024-09-22T16:20:35.000Z</time>
      </trkpt>
      <trkpt lat="42.7132" lon="19.68087">
        <ele>1766.5600585938</ele>
        <time>2024-09-22T16:20:36.000Z</time>
      </trkpt>
      <trkpt lat="42.71326" lon="19.68093">
        <ele>1766.5600585938</ele>
        <time>2024-09-22T16:20:37.000Z</time>
      </trkpt>
      <trkpt lat="42.71333" lon="19.68098">
        <ele>1766.5600585938</ele>
        <time>2024-09-22T16:20:38.000Z</time>
      </trkpt>
      <trkpt lat="42.71341" lon="19.68103">
        <ele>1766.0799560547</ele>
        <time>2024-09-22T16:20:39.000Z</time>
      </trkpt>
      <trkpt lat="42.71348" lon="19.6811">
        <ele>1765.5999755859</ele>
        <time>2024-09-22T16:20:40.000Z</time>
      </trkpt>
      <trkpt lat="42.71354" lon="19.68118">
        <ele>1765.5999755859</ele>
        <time>2024-09-22T16:20:41.000Z</time>
      </trkpt>
      <trkpt lat="42.71363" lon="19.68135">
        <ele>1766.5600585938</ele>
        <time>2024-09-22T16:20:42.000Z</time>
      </trkpt>
      <trkpt lat="42.71364" lon="19.68136">
        <ele>1766.5600585938</ele>
        <time>2024-09-22T16:20:43.000Z</time>
      </trkpt>
      <trkpt lat="42.7137" lon="19.68145">
        <ele>1766.5600585938</ele>
        <time>2024-09-22T16:20:44.000Z</time>
      </trkpt>
      <trkpt lat="42.71382" lon="19.6816">
        <ele>1767.0400390625</ele>
        <time>2024-09-22T16:20:46.000Z</time>
      </trkpt>
      <trkpt lat="42.71389" lon="19.68166">
        <ele>1767.0400390625</ele>
        <time>2024-09-22T16:20:47.000Z</time>
      </trkpt>
      <trkpt lat="42.71405" lon="19.68178">
        <ele>1767.0400390625</ele>
        <time>2024-09-22T16:20:49.000Z</time>
      </trkpt>
      <trkpt lat="42.71411" lon="19.68182">
        <ele>1767.0400390625</ele>
        <time>2024-09-22T16:20:50.000Z</time>
      </trkpt>
      <trkpt lat="42.7142" lon="19.68194">
        <ele>1767.0400390625</ele>
        <time>2024-09-22T16:20:51.000Z</time>
      </trkpt>
      <trkpt lat="42.71424" lon="19.68198">
        <ele>1767.5200195312</ele>
        <time>2024-09-22T16:20:52.000Z</time>
      </trkpt>
      <trkpt lat="42.71437" lon="19.68212">
        <ele>1768</ele>
        <time>2024-09-22T16:20:54.000Z</time>
      </trkpt>
      <trkpt lat="42.71444" lon="19.68217">
        <ele>1768</ele>
        <time>2024-09-22T16:20:55.000Z</time>
      </trkpt>
      <trkpt lat="42.71451" lon="19.68222">
        <ele>1768</ele>
        <time>2024-09-22T16:20:56.000Z</time>
      </trkpt>
      <trkpt lat="42.71461" lon="19.68231">
        <ele>1767.5200195312</ele>
        <time>2024-09-22T16:20:57.000Z</time>
      </trkpt>
      <trkpt lat="42.71463" lon="19.68232">
        <ele>1767.5200195312</ele>
        <time>2024-09-22T16:20:58.000Z</time>
      </trkpt>
      <trkpt lat="42.71468" lon="19.68238">
        <ele>1767.5200195312</ele>
        <time>2024-09-22T16:20:59.000Z</time>
      </trkpt>
      <trkpt lat="42.71471" lon="19.68245">
        <ele>1767.5200195312</ele>
        <time>2024-09-22T16:21:00.000Z</time>
      </trkpt>
      <trkpt lat="42.71474" lon="19.68255">
        <ele>1767.5200195312</ele>
        <time>2024-09-22T16:21:01.000Z</time>
      </trkpt>
      <trkpt lat="42.71477" lon="19.68261">
        <ele>1767.5200195312</ele>
        <time>2024-09-22T16:21:02.000Z</time>
      </trkpt>
      <trkpt lat="42.71481" lon="19.68268">
        <ele>1767.5200195312</ele>
        <time>2024-09-22T16:21:03.000Z</time>
      </trkpt>
      <trkpt lat="42.71487" lon="19.68277">
        <ele>1767.5200195312</ele>
        <time>2024-09-22T16:21:04.000Z</time>
      </trkpt>
      <trkpt lat="42.71492" lon="19.68284">
        <ele>1767.5200195312</ele>
        <time>2024-09-22T16:21:05.000Z</time>
      </trkpt>
      <trkpt lat="42.71495" lon="19.68289">
        <ele>1767.5200195312</ele>
        <time>2024-09-22T16:21:06.000Z</time>
      </trkpt>
      <trkpt lat="42.71506" lon="19.68302">
        <ele>1767.5200195312</ele>
        <time>2024-09-22T16:21:07.000Z</time>
      </trkpt>
      <trkpt lat="42.71508" lon="19.68304">
        <ele>1767.5200195312</ele>
        <time>2024-09-22T16:21:08.000Z</time>
      </trkpt>
      <trkpt lat="42.71524" lon="19.68318">
        <ele>1767.0400390625</ele>
        <time>2024-09-22T16:21:10.000Z</time>
      </trkpt>
      <trkpt lat="42.71546" lon="19.68339">
        <ele>1767.0400390625</ele>
        <time>2024-09-22T16:21:13.000Z</time>
      </trkpt>
      <trkpt lat="42.71548" lon="19.68341">
        <ele>1767.0400390625</ele>
        <time>2024-09-22T16:21:14.000Z</time>
      </trkpt>
      <trkpt lat="42.71558" lon="19.68352">
        <ele>1766.5600585938</ele>
        <time>2024-09-22T16:21:15.000Z</time>
      </trkpt>
      <trkpt lat="42.7156" lon="19.68355">
        <ele>1766.5600585938</ele>
        <time>2024-09-22T16:21:16.000Z</time>
      </trkpt>
      <trkpt lat="42.71565" lon="19.68362">
        <ele>1766.5600585938</ele>
        <time>2024-09-22T16:21:17.000Z</time>
      </trkpt>
      <trkpt lat="42.71569" lon="19.68368">
        <ele>1766.0799560547</ele>
        <time>2024-09-22T16:21:18.000Z</time>
      </trkpt>
      <trkpt lat="42.71571" lon="19.68374">
        <ele>1765.5999755859</ele>
        <time>2024-09-22T16:21:19.000Z</time>
      </trkpt>
      <trkpt lat="42.71572" lon="19.68381">
        <ele>1765.1199951172</ele>
        <time>2024-09-22T16:21:20.000Z</time>
      </trkpt>
      <trkpt lat="42.7158" lon="19.68404">
        <ele>1762.2299804688</ele>
        <time>2024-09-22T16:21:22.000Z</time>
      </trkpt>
      <trkpt lat="42.71584" lon="19.68413">
        <ele>1761.75</ele>
        <time>2024-09-22T16:21:23.000Z</time>
      </trkpt>
      <trkpt lat="42.71592" lon="19.68432">
        <ele>1759.8299560547</ele>
        <time>2024-09-22T16:21:26.000Z</time>
      </trkpt>
      <trkpt lat="42.71598" lon="19.68445">
        <ele>1758.3900146484</ele>
        <time>2024-09-22T16:21:27.000Z</time>
      </trkpt>
      <trkpt lat="42.71601" lon="19.68451">
        <ele>1757.4300537109</ele>
        <time>2024-09-22T16:21:28.000Z</time>
      </trkpt>
      <trkpt lat="42.71605" lon="19.68459">
        <ele>1756.4699707031</ele>
        <time>2024-09-22T16:21:29.000Z</time>
      </trkpt>
      <trkpt lat="42.71608" lon="19.68466">
        <ele>1755.5</ele>
        <time>2024-09-22T16:21:30.000Z</time>
      </trkpt>
      <trkpt lat="42.71611" lon="19.68475">
        <ele>1754.5400390625</ele>
        <time>2024-09-22T16:21:31.000Z</time>
      </trkpt>
      <trkpt lat="42.71614" lon="19.68485">
        <ele>1753.0999755859</ele>
        <time>2024-09-22T16:21:32.000Z</time>
      </trkpt>
      <trkpt lat="42.71615" lon="19.68492">
        <ele>1752.1400146484</ele>
        <time>2024-09-22T16:21:33.000Z</time>
      </trkpt>
      <trkpt lat="42.71616" lon="19.68499">
        <ele>1751.1800537109</ele>
        <time>2024-09-22T16:21:34.000Z</time>
      </trkpt>
      <trkpt lat="42.71617" lon="19.68505">
        <ele>1750.2199707031</ele>
        <time>2024-09-22T16:21:35.000Z</time>
      </trkpt>
      <trkpt lat="42.71615" lon="19.68518">
        <ele>1748.2900390625</ele>
        <time>2024-09-22T16:21:36.000Z</time>
      </trkpt>
      <trkpt lat="42.71615" lon="19.68522">
        <ele>1747.3299560547</ele>
        <time>2024-09-22T16:21:37.000Z</time>
      </trkpt>
      <trkpt lat="42.71614" lon="19.6853">
        <ele>1746.3699951172</ele>
        <time>2024-09-22T16:21:38.000Z</time>
      </trkpt>
      <trkpt lat="42.71613" lon="19.6854">
        <ele>1744.9300537109</ele>
        <time>2024-09-22T16:21:39.000Z</time>
      </trkpt>
      <trkpt lat="42.71613" lon="19.68544">
        <ele>1744.4499511719</ele>
        <time>2024-09-22T16:21:40.000Z</time>
      </trkpt>
      <trkpt lat="42.71615" lon="19.68555">
        <ele>1742.5300292969</ele>
        <time>2024-09-22T16:21:41.000Z</time>
      </trkpt>
      <trkpt lat="42.71615" lon="19.68559">
        <ele>1742.0500488281</ele>
        <time>2024-09-22T16:21:42.000Z</time>
      </trkpt>
      <trkpt lat="42.71615" lon="19.68566">
        <ele>1741.0799560547</ele>
        <time>2024-09-22T16:21:43.000Z</time>
      </trkpt>
      <trkpt lat="42.71614" lon="19.68571">
        <ele>1740.5999755859</ele>
        <time>2024-09-22T16:21:44.000Z</time>
      </trkpt>
      <trkpt lat="42.71612" lon="19.68578">
        <ele>1739.1600341797</ele>
        <time>2024-09-22T16:21:45.000Z</time>
      </trkpt>
      <trkpt lat="42.7161" lon="19.68583">
        <ele>1738.1999511719</ele>
        <time>2024-09-22T16:21:46.000Z</time>
      </trkpt>
      <trkpt lat="42.71608" lon="19.68588">
        <ele>1737.2399902344</ele>
        <time>2024-09-22T16:21:47.000Z</time>
      </trkpt>
      <trkpt lat="42.71607" lon="19.68594">
        <ele>1736.7600097656</ele>
        <time>2024-09-22T16:21:48.000Z</time>
      </trkpt>
      <trkpt lat="42.71607" lon="19.686">
        <ele>1735.3199462891</ele>
        <time>2024-09-22T16:21:49.000Z</time>
      </trkpt>
      <trkpt lat="42.71608" lon="19.68607">
        <ele>1734.3599853516</ele>
        <time>2024-09-22T16:21:50.000Z</time>
      </trkpt>
      <trkpt lat="42.71614" lon="19.68621">
        <ele>1731.9499511719</ele>
        <time>2024-09-22T16:21:52.000Z</time>
      </trkpt>
      <trkpt lat="42.71617" lon="19.68629">
        <ele>1730.9899902344</ele>
        <time>2024-09-22T16:21:53.000Z</time>
      </trkpt>
      <trkpt lat="42.7162" lon="19.68636">
        <ele>1729.5500488281</ele>
        <time>2024-09-22T16:21:54.000Z</time>
      </trkpt>
      <trkpt lat="42.71624" lon="19.68645">
        <ele>1728.5899658203</ele>
        <time>2024-09-22T16:21:55.000Z</time>
      </trkpt>
      <trkpt lat="42.71626" lon="19.68648">
        <ele>1728.1099853516</ele>
        <time>2024-09-22T16:21:56.000Z</time>
      </trkpt>
      <trkpt lat="42.71628" lon="19.68653">
        <ele>1727.1500244141</ele>
        <time>2024-09-22T16:21:57.000Z</time>
      </trkpt>
      <trkpt lat="42.71628" lon="19.68658">
        <ele>1726.1800537109</ele>
        <time>2024-09-22T16:21:58.000Z</time>
      </trkpt>
      <trkpt lat="42.7162" lon="19.68667">
        <ele>1724.7399902344</ele>
        <time>2024-09-22T16:22:01.000Z</time>
      </trkpt>
      <trkpt lat="42.71616" lon="19.68666">
        <ele>1724.2600097656</ele>
        <time>2024-09-22T16:22:02.000Z</time>
      </trkpt>
      <trkpt lat="42.71611" lon="19.68665">
        <ele>1723.3000488281</ele>
        <time>2024-09-22T16:22:03.000Z</time>
      </trkpt>
      <trkpt lat="42.71605" lon="19.68662">
        <ele>1722.8199462891</ele>
        <time>2024-09-22T16:22:04.000Z</time>
      </trkpt>
      <trkpt lat="42.71599" lon="19.68658">
        <ele>1722.3399658203</ele>
        <time>2024-09-22T16:22:05.000Z</time>
      </trkpt>
      <trkpt lat="42.71585" lon="19.68648">
        <ele>1720.4200439453</ele>
        <time>2024-09-22T16:22:08.000Z</time>
      </trkpt>
      <trkpt lat="42.71581" lon="19.68645">
        <ele>1719.9399414062</ele>
        <time>2024-09-22T16:22:09.000Z</time>
      </trkpt>
      <trkpt lat="42.71575" lon="19.68639">
        <ele>1719.4599609375</ele>
        <time>2024-09-22T16:22:10.000Z</time>
      </trkpt>
      <trkpt lat="42.71572" lon="19.68634">
        <ele>1718.4899902344</ele>
        <time>2024-09-22T16:22:11.000Z</time>
      </trkpt>
      <trkpt lat="42.71569" lon="19.68626">
        <ele>1718.0100097656</ele>
        <time>2024-09-22T16:22:12.000Z</time>
      </trkpt>
      <trkpt lat="42.71566" lon="19.68619">
        <ele>1717.0500488281</ele>
        <time>2024-09-22T16:22:13.000Z</time>
      </trkpt>
      <trkpt lat="42.71562" lon="19.68613">
        <ele>1716.0899658203</ele>
        <time>2024-09-22T16:22:14.000Z</time>
      </trkpt>
      <trkpt lat="42.71558" lon="19.68607">
        <ele>1715.6099853516</ele>
        <time>2024-09-22T16:22:15.000Z</time>
      </trkpt>
      <trkpt lat="42.71553" lon="19.68604">
        <ele>1716.0899658203</ele>
        <time>2024-09-22T16:22:16.000Z</time>
      </trkpt>
      <trkpt lat="42.71546" lon="19.68604">
        <ele>1715.6099853516</ele>
        <time>2024-09-22T16:22:17.000Z</time>
      </trkpt>
      <trkpt lat="42.7154" lon="19.68603">
        <ele>1714.6500244141</ele>
        <time>2024-09-22T16:22:18.000Z</time>
      </trkpt>
      <trkpt lat="42.71534" lon="19.68601">
        <ele>1714.1700439453</ele>
        <time>2024-09-22T16:22:19.000Z</time>
      </trkpt>
      <trkpt lat="42.71521" lon="19.68596">
        <ele>1713.2099609375</ele>
        <time>2024-09-22T16:22:21.000Z</time>
      </trkpt>
      <trkpt lat="42.71516" lon="19.68593">
        <ele>1712.25</ele>
        <time>2024-09-22T16:22:22.000Z</time>
      </trkpt>
      <trkpt lat="42.71511" lon="19.6859">
        <ele>1711.7600097656</ele>
        <time>2024-09-22T16:22:23.000Z</time>
      </trkpt>
      <trkpt lat="42.71506" lon="19.68585">
        <ele>1711.2800292969</ele>
        <time>2024-09-22T16:22:24.000Z</time>
      </trkpt>
      <trkpt lat="42.71501" lon="19.68579">
        <ele>1710.3199462891</ele>
        <time>2024-09-22T16:22:25.000Z</time>
      </trkpt>
      <trkpt lat="42.71498" lon="19.68575">
        <ele>1709.8399658203</ele>
        <time>2024-09-22T16:22:26.000Z</time>
      </trkpt>
      <trkpt lat="42.71493" lon="19.6857">
        <ele>1709.3599853516</ele>
        <time>2024-09-22T16:22:27.000Z</time>
      </trkpt>
      <trkpt lat="42.71487" lon="19.68566">
        <ele>1708.4000244141</ele>
        <time>2024-09-22T16:22:28.000Z</time>
      </trkpt>
      <trkpt lat="42.71478" lon="19.68561">
        <ele>1707.9200439453</ele>
        <time>2024-09-22T16:22:29.000Z</time>
      </trkpt>
      <trkpt lat="42.71474" lon="19.68558">
        <ele>1706.9599609375</ele>
        <time>2024-09-22T16:22:30.000Z</time>
      </trkpt>
      <trkpt lat="42.7147" lon="19.68554">
        <ele>1706.4799804688</ele>
        <time>2024-09-22T16:22:31.000Z</time>
      </trkpt>
      <trkpt lat="42.71467" lon="19.68549">
        <ele>1706</ele>
        <time>2024-09-22T16:22:32.000Z</time>
      </trkpt>
      <trkpt lat="42.71464" lon="19.68545">
        <ele>1705.0400390625</ele>
        <time>2024-09-22T16:22:33.000Z</time>
      </trkpt>
      <trkpt lat="42.71458" lon="19.68553">
        <ele>1704.0699462891</ele>
        <time>2024-09-22T16:22:38.000Z</time>
      </trkpt>
      <trkpt lat="42.71461" lon="19.68557">
        <ele>1703.5899658203</ele>
        <time>2024-09-22T16:22:39.000Z</time>
      </trkpt>
      <trkpt lat="42.71465" lon="19.68563">
        <ele>1703.5899658203</ele>
        <time>2024-09-22T16:22:40.000Z</time>
      </trkpt>
      <trkpt lat="42.71468" lon="19.68567">
        <ele>1703.1099853516</ele>
        <time>2024-09-22T16:22:41.000Z</time>
      </trkpt>
      <trkpt lat="42.71472" lon="19.68573">
        <ele>1702.6300048828</ele>
        <time>2024-09-22T16:22:42.000Z</time>
      </trkpt>
      <trkpt lat="42.71478" lon="19.68579">
        <ele>1702.6300048828</ele>
        <time>2024-09-22T16:22:43.000Z</time>
      </trkpt>
      <trkpt lat="42.71483" lon="19.68585">
        <ele>1702.1500244141</ele>
        <time>2024-09-22T16:22:44.000Z</time>
      </trkpt>
      <trkpt lat="42.7149" lon="19.68593">
        <ele>1701.6700439453</ele>
        <time>2024-09-22T16:22:45.000Z</time>
      </trkpt>
      <trkpt lat="42.71492" lon="19.68596">
        <ele>1701.6700439453</ele>
        <time>2024-09-22T16:22:46.000Z</time>
      </trkpt>
      <trkpt lat="42.71496" lon="19.68604">
        <ele>1701.6700439453</ele>
        <time>2024-09-22T16:22:47.000Z</time>
      </trkpt>
      <trkpt lat="42.71499" lon="19.68608">
        <ele>1701.6700439453</ele>
        <time>2024-09-22T16:22:48.000Z</time>
      </trkpt>
      <trkpt lat="42.71502" lon="19.68617">
        <ele>1701.6700439453</ele>
        <time>2024-09-22T16:22:49.000Z</time>
      </trkpt>
      <trkpt lat="42.71506" lon="19.68628">
        <ele>1701.6700439453</ele>
        <time>2024-09-22T16:22:50.000Z</time>
      </trkpt>
      <trkpt lat="42.71509" lon="19.68636">
        <ele>1701.6700439453</ele>
        <time>2024-09-22T16:22:51.000Z</time>
      </trkpt>
      <trkpt lat="42.71513" lon="19.68645">
        <ele>1701.1899414062</ele>
        <time>2024-09-22T16:22:52.000Z</time>
      </trkpt>
      <trkpt lat="42.71517" lon="19.68654">
        <ele>1701.1899414062</ele>
        <time>2024-09-22T16:22:53.000Z</time>
      </trkpt>
      <trkpt lat="42.71521" lon="19.68662">
        <ele>1700.7099609375</ele>
        <time>2024-09-22T16:22:54.000Z</time>
      </trkpt>
      <trkpt lat="42.71527" lon="19.68673">
        <ele>1700.7099609375</ele>
        <time>2024-09-22T16:22:55.000Z</time>
      </trkpt>
      <trkpt lat="42.71533" lon="19.68684">
        <ele>1699.75</ele>
        <time>2024-09-22T16:22:56.000Z</time>
      </trkpt>
      <trkpt lat="42.71538" lon="19.68692">
        <ele>1699.2700195312</ele>
        <time>2024-09-22T16:22:57.000Z</time>
      </trkpt>
      <trkpt lat="42.71556" lon="19.68717">
        <ele>1697.8299560547</ele>
        <time>2024-09-22T16:22:59.000Z</time>
      </trkpt>
      <trkpt lat="42.7156" lon="19.68723">
        <ele>1697.3399658203</ele>
        <time>2024-09-22T16:23:00.000Z</time>
      </trkpt>
      <trkpt lat="42.71566" lon="19.68736">
        <ele>1696.8599853516</ele>
        <time>2024-09-22T16:23:01.000Z</time>
      </trkpt>
      <trkpt lat="42.71569" lon="19.68747">
        <ele>1696.3800048828</ele>
        <time>2024-09-22T16:23:02.000Z</time>
      </trkpt>
      <trkpt lat="42.7157" lon="19.68759">
        <ele>1696.3800048828</ele>
        <time>2024-09-22T16:23:03.000Z</time>
      </trkpt>
      <trkpt lat="42.71572" lon="19.6877">
        <ele>1695.9000244141</ele>
        <time>2024-09-22T16:23:04.000Z</time>
      </trkpt>
      <trkpt lat="42.71574" lon="19.68779">
        <ele>1695.4200439453</ele>
        <time>2024-09-22T16:23:05.000Z</time>
      </trkpt>
      <trkpt lat="42.71579" lon="19.68786">
        <ele>1694.9399414062</ele>
        <time>2024-09-22T16:23:06.000Z</time>
      </trkpt>
      <trkpt lat="42.71584" lon="19.68793">
        <ele>1694.9399414062</ele>
        <time>2024-09-22T16:23:07.000Z</time>
      </trkpt>
      <trkpt lat="42.71592" lon="19.688">
        <ele>1694.9399414062</ele>
        <time>2024-09-22T16:23:08.000Z</time>
      </trkpt>
      <trkpt lat="42.71599" lon="19.68805">
        <ele>1694.4599609375</ele>
        <time>2024-09-22T16:23:09.000Z</time>
      </trkpt>
      <trkpt lat="42.71608" lon="19.68811">
        <ele>1693.5</ele>
        <time>2024-09-22T16:23:10.000Z</time>
      </trkpt>
      <trkpt lat="42.71624" lon="19.68819">
        <ele>1692.0600585938</ele>
        <time>2024-09-22T16:23:11.000Z</time>
      </trkpt>
      <trkpt lat="42.71626" lon="19.6882">
        <ele>1692.0600585938</ele>
        <time>2024-09-22T16:23:12.000Z</time>
      </trkpt>
      <trkpt lat="42.71636" lon="19.68827">
        <ele>1690.6199951172</ele>
        <time>2024-09-22T16:23:13.000Z</time>
      </trkpt>
      <trkpt lat="42.71645" lon="19.68835">
        <ele>1690.1400146484</ele>
        <time>2024-09-22T16:23:14.000Z</time>
      </trkpt>
      <trkpt lat="42.71655" lon="19.68848">
        <ele>1689.1700439453</ele>
        <time>2024-09-22T16:23:15.000Z</time>
      </trkpt>
      <trkpt lat="42.71662" lon="19.68858">
        <ele>1688.2099609375</ele>
        <time>2024-09-22T16:23:16.000Z</time>
      </trkpt>
      <trkpt lat="42.71669" lon="19.68868">
        <ele>1687.7299804688</ele>
        <time>2024-09-22T16:23:17.000Z</time>
      </trkpt>
      <trkpt lat="42.71676" lon="19.68877">
        <ele>1686.7700195312</ele>
        <time>2024-09-22T16:23:18.000Z</time>
      </trkpt>
      <trkpt lat="42.71681" lon="19.68885">
        <ele>1685.8100585938</ele>
        <time>2024-09-22T16:23:19.000Z</time>
      </trkpt>
      <trkpt lat="42.71683" lon="19.68895">
        <ele>1684.8499755859</ele>
        <time>2024-09-22T16:23:20.000Z</time>
      </trkpt>
      <trkpt lat="42.71683" lon="19.68906">
        <ele>1683.8900146484</ele>
        <time>2024-09-22T16:23:21.000Z</time>
      </trkpt>
      <trkpt lat="42.71682" lon="19.6892">
        <ele>1683.8900146484</ele>
        <time>2024-09-22T16:23:22.000Z</time>
      </trkpt>
      <trkpt lat="42.71683" lon="19.68932">
        <ele>1683.8900146484</ele>
        <time>2024-09-22T16:23:23.000Z</time>
      </trkpt>
      <trkpt lat="42.71688" lon="19.68946">
        <ele>1683.4100341797</ele>
        <time>2024-09-22T16:23:24.000Z</time>
      </trkpt>
      <trkpt lat="42.7169" lon="19.68956">
        <ele>1682.9300537109</ele>
        <time>2024-09-22T16:23:25.000Z</time>
      </trkpt>
      <trkpt lat="42.71696" lon="19.68988">
        <ele>1681.4799804688</ele>
        <time>2024-09-22T16:23:27.000Z</time>
      </trkpt>
      <trkpt lat="42.71699" lon="19.69009">
        <ele>1681</ele>
        <time>2024-09-22T16:23:28.000Z</time>
      </trkpt>
      <trkpt lat="42.717" lon="19.69015">
        <ele>1680.5200195312</ele>
        <time>2024-09-22T16:23:29.000Z</time>
      </trkpt>
      <trkpt lat="42.71702" lon="19.69032">
        <ele>1679.5600585938</ele>
        <time>2024-09-22T16:23:30.000Z</time>
      </trkpt>
      <trkpt lat="42.71706" lon="19.69051">
        <ele>1678.5999755859</ele>
        <time>2024-09-22T16:23:31.000Z</time>
      </trkpt>
      <trkpt lat="42.71707" lon="19.69058">
        <ele>1678.5999755859</ele>
        <time>2024-09-22T16:23:32.000Z</time>
      </trkpt>
      <trkpt lat="42.71708" lon="19.69072">
        <ele>1677.6400146484</ele>
        <time>2024-09-22T16:23:33.000Z</time>
      </trkpt>
      <trkpt lat="42.71708" lon="19.69087">
        <ele>1677.1600341797</ele>
        <time>2024-09-22T16:23:34.000Z</time>
      </trkpt>
      <trkpt lat="42.71709" lon="19.69101">
        <ele>1676.1999511719</ele>
        <time>2024-09-22T16:23:35.000Z</time>
      </trkpt>
      <trkpt lat="42.71712" lon="19.69119">
        <ele>1675.2299804688</ele>
        <time>2024-09-22T16:23:36.000Z</time>
      </trkpt>
      <trkpt lat="42.71717" lon="19.69143">
        <ele>1674.2700195312</ele>
        <time>2024-09-22T16:23:37.000Z</time>
      </trkpt>
      <trkpt lat="42.71718" lon="19.69145">
        <ele>1673.7900390625</ele>
        <time>2024-09-22T16:23:38.000Z</time>
      </trkpt>
      <trkpt lat="42.71721" lon="19.69163">
        <ele>1672.8299560547</ele>
        <time>2024-09-22T16:23:39.000Z</time>
      </trkpt>
      <trkpt lat="42.71723" lon="19.69171">
        <ele>1672.3499755859</ele>
        <time>2024-09-22T16:23:40.000Z</time>
      </trkpt>
      <trkpt lat="42.71727" lon="19.69183">
        <ele>1671.8699951172</ele>
        <time>2024-09-22T16:23:41.000Z</time>
      </trkpt>
      <trkpt lat="42.7173" lon="19.69196">
        <ele>1671.3900146484</ele>
        <time>2024-09-22T16:23:42.000Z</time>
      </trkpt>
      <trkpt lat="42.71731" lon="19.6921">
        <ele>1670.9100341797</ele>
        <time>2024-09-22T16:23:43.000Z</time>
      </trkpt>
      <trkpt lat="42.71731" lon="19.69237">
        <ele>1669.4699707031</ele>
        <time>2024-09-22T16:23:44.000Z</time>
      </trkpt>
      <trkpt lat="42.71731" lon="19.69252">
        <ele>1668.0200195312</ele>
        <time>2024-09-22T16:23:45.000Z</time>
      </trkpt>
      <trkpt lat="42.71731" lon="19.69255">
        <ele>1668.0200195312</ele>
        <time>2024-09-22T16:23:46.000Z</time>
      </trkpt>
      <trkpt lat="42.71731" lon="19.6927">
        <ele>1666.5799560547</ele>
        <time>2024-09-22T16:23:47.000Z</time>
      </trkpt>
      <trkpt lat="42.71733" lon="19.69283">
        <ele>1666.0999755859</ele>
        <time>2024-09-22T16:23:48.000Z</time>
      </trkpt>
      <trkpt lat="42.71735" lon="19.69298">
        <ele>1665.1400146484</ele>
        <time>2024-09-22T16:23:49.000Z</time>
      </trkpt>
      <trkpt lat="42.71741" lon="19.69322">
        <ele>1663.6999511719</ele>
        <time>2024-09-22T16:23:50.000Z</time>
      </trkpt>
      <trkpt lat="42.71742" lon="19.69327">
        <ele>1663.2199707031</ele>
        <time>2024-09-22T16:23:51.000Z</time>
      </trkpt>
      <trkpt lat="42.71743" lon="19.6934">
        <ele>1662.2600097656</ele>
        <time>2024-09-22T16:23:52.000Z</time>
      </trkpt>
      <trkpt lat="42.71742" lon="19.69352">
        <ele>1661.3000488281</ele>
        <time>2024-09-22T16:23:53.000Z</time>
      </trkpt>
      <trkpt lat="42.71737" lon="19.69367">
        <ele>1659.8499755859</ele>
        <time>2024-09-22T16:23:54.000Z</time>
      </trkpt>
      <trkpt lat="42.7173" lon="19.69381">
        <ele>1657.9300537109</ele>
        <time>2024-09-22T16:23:55.000Z</time>
      </trkpt>
      <trkpt lat="42.71726" lon="19.6939">
        <ele>1656.9699707031</ele>
        <time>2024-09-22T16:23:56.000Z</time>
      </trkpt>
      <trkpt lat="42.71725" lon="19.69402">
        <ele>1656.0100097656</ele>
        <time>2024-09-22T16:23:57.000Z</time>
      </trkpt>
      <trkpt lat="42.71724" lon="19.69416">
        <ele>1654.5699462891</ele>
        <time>2024-09-22T16:23:58.000Z</time>
      </trkpt>
      <trkpt lat="42.71722" lon="19.69432">
        <ele>1653.5999755859</ele>
        <time>2024-09-22T16:23:59.000Z</time>
      </trkpt>
      <trkpt lat="42.71715" lon="19.69459">
        <ele>1650.7199707031</ele>
        <time>2024-09-22T16:24:00.000Z</time>
      </trkpt>
      <trkpt lat="42.71713" lon="19.69468">
        <ele>1649.7600097656</ele>
        <time>2024-09-22T16:24:01.000Z</time>
      </trkpt>
      <trkpt lat="42.71711" lon="19.69475">
        <ele>1649.2800292969</ele>
        <time>2024-09-22T16:24:02.000Z</time>
      </trkpt>
      <trkpt lat="42.71704" lon="19.69492">
        <ele>1647.3599853516</ele>
        <time>2024-09-22T16:24:03.000Z</time>
      </trkpt>
      <trkpt lat="42.71696" lon="19.6951">
        <ele>1645.4300537109</ele>
        <time>2024-09-22T16:24:04.000Z</time>
      </trkpt>
      <trkpt lat="42.71687" lon="19.69531">
        <ele>1643.0300292969</ele>
        <time>2024-09-22T16:24:05.000Z</time>
      </trkpt>
      <trkpt lat="42.71686" lon="19.69535">
        <ele>1642.5500488281</ele>
        <time>2024-09-22T16:24:06.000Z</time>
      </trkpt>
      <trkpt lat="42.71679" lon="19.69555">
        <ele>1641.1099853516</ele>
        <time>2024-09-22T16:24:07.000Z</time>
      </trkpt>
      <trkpt lat="42.71673" lon="19.69568">
        <ele>1641.1099853516</ele>
        <time>2024-09-22T16:24:08.000Z</time>
      </trkpt>
      <trkpt lat="42.71665" lon="19.69586">
        <ele>1640.6300048828</ele>
        <time>2024-09-22T16:24:09.000Z</time>
      </trkpt>
      <trkpt lat="42.71662" lon="19.69592">
        <ele>1640.1500244141</ele>
        <time>2024-09-22T16:24:10.000Z</time>
      </trkpt>
      <trkpt lat="42.71656" lon="19.69603">
        <ele>1639.6700439453</ele>
        <time>2024-09-22T16:24:11.000Z</time>
      </trkpt>
      <trkpt lat="42.71648" lon="19.69614">
        <ele>1639.1899414062</ele>
        <time>2024-09-22T16:24:12.000Z</time>
      </trkpt>
      <trkpt lat="42.71635" lon="19.69628">
        <ele>1640.1500244141</ele>
        <time>2024-09-22T16:24:13.000Z</time>
      </trkpt>
      <trkpt lat="42.71625" lon="19.69642">
        <ele>1640.1500244141</ele>
        <time>2024-09-22T16:24:14.000Z</time>
      </trkpt>
      <trkpt lat="42.71616" lon="19.69656">
        <ele>1640.6300048828</ele>
        <time>2024-09-22T16:24:15.000Z</time>
      </trkpt>
      <trkpt lat="42.71614" lon="19.6966">
        <ele>1640.6300048828</ele>
        <time>2024-09-22T16:24:16.000Z</time>
      </trkpt>
      <trkpt lat="42.71607" lon="19.69675">
        <ele>1641.1099853516</ele>
        <time>2024-09-22T16:24:17.000Z</time>
      </trkpt>
      <trkpt lat="42.71604" lon="19.69686">
        <ele>1641.5899658203</ele>
        <time>2024-09-22T16:24:18.000Z</time>
      </trkpt>
      <trkpt lat="42.71602" lon="19.69701">
        <ele>1642.0699462891</ele>
        <time>2024-09-22T16:24:19.000Z</time>
      </trkpt>
      <trkpt lat="42.71602" lon="19.69716">
        <ele>1643.0300292969</ele>
        <time>2024-09-22T16:24:20.000Z</time>
      </trkpt>
      <trkpt lat="42.71605" lon="19.69731">
        <ele>1643.5100097656</ele>
        <time>2024-09-22T16:24:21.000Z</time>
      </trkpt>
      <trkpt lat="42.71611" lon="19.69751">
        <ele>1643.9899902344</ele>
        <time>2024-09-22T16:24:22.000Z</time>
      </trkpt>
      <trkpt lat="42.71617" lon="19.69765">
        <ele>1643.0300292969</ele>
        <time>2024-09-22T16:24:23.000Z</time>
      </trkpt>
      <trkpt lat="42.71622" lon="19.69777">
        <ele>1642.0699462891</ele>
        <time>2024-09-22T16:24:24.000Z</time>
      </trkpt>
      <trkpt lat="42.71629" lon="19.69801">
        <ele>1641.5899658203</ele>
        <time>2024-09-22T16:24:25.000Z</time>
      </trkpt>
      <trkpt lat="42.71632" lon="19.69816">
        <ele>1641.1099853516</ele>
        <time>2024-09-22T16:24:26.000Z</time>
      </trkpt>
      <trkpt lat="42.71635" lon="19.69828">
        <ele>1640.1500244141</ele>
        <time>2024-09-22T16:24:27.000Z</time>
      </trkpt>
      <trkpt lat="42.71641" lon="19.69851">
        <ele>1638.2199707031</ele>
        <time>2024-09-22T16:24:28.000Z</time>
      </trkpt>
      <trkpt lat="42.71643" lon="19.69862">
        <ele>1637.2600097656</ele>
        <time>2024-09-22T16:24:29.000Z</time>
      </trkpt>
      <trkpt lat="42.71644" lon="19.6988">
        <ele>1636.7800292969</ele>
        <time>2024-09-22T16:24:30.000Z</time>
      </trkpt>
      <trkpt lat="42.71643" lon="19.69894">
        <ele>1636.3000488281</ele>
        <time>2024-09-22T16:24:31.000Z</time>
      </trkpt>
      <trkpt lat="42.71641" lon="19.69907">
        <ele>1635.8199462891</ele>
        <time>2024-09-22T16:24:32.000Z</time>
      </trkpt>
      <trkpt lat="42.7164" lon="19.69923">
        <ele>1635.3399658203</ele>
        <time>2024-09-22T16:24:33.000Z</time>
      </trkpt>
      <trkpt lat="42.7164" lon="19.69937">
        <ele>1634.8599853516</ele>
        <time>2024-09-22T16:24:34.000Z</time>
      </trkpt>
      <trkpt lat="42.71643" lon="19.6995">
        <ele>1636.3000488281</ele>
        <time>2024-09-22T16:24:35.000Z</time>
      </trkpt>
      <trkpt lat="42.71647" lon="19.69961">
        <ele>1636.3000488281</ele>
        <time>2024-09-22T16:24:36.000Z</time>
      </trkpt>
      <trkpt lat="42.71653" lon="19.69975">
        <ele>1636.7800292969</ele>
        <time>2024-09-22T16:24:37.000Z</time>
      </trkpt>
      <trkpt lat="42.7166" lon="19.69986">
        <ele>1637.2600097656</ele>
        <time>2024-09-22T16:24:38.000Z</time>
      </trkpt>
      <trkpt lat="42.7167" lon="19.70002">
        <ele>1637.2600097656</ele>
        <time>2024-09-22T16:24:39.000Z</time>
      </trkpt>
      <trkpt lat="42.71675" lon="19.70011">
        <ele>1636.7800292969</ele>
        <time>2024-09-22T16:24:40.000Z</time>
      </trkpt>
      <trkpt lat="42.71682" lon="19.70027">
        <ele>1636.7800292969</ele>
        <time>2024-09-22T16:24:41.000Z</time>
      </trkpt>
      <trkpt lat="42.71693" lon="19.70051">
        <ele>1635.8199462891</ele>
        <time>2024-09-22T16:24:42.000Z</time>
      </trkpt>
      <trkpt lat="42.71696" lon="19.70058">
        <ele>1635.3399658203</ele>
        <time>2024-09-22T16:24:43.000Z</time>
      </trkpt>
      <trkpt lat="42.71703" lon="19.70071">
        <ele>1634.3800048828</ele>
        <time>2024-09-22T16:24:44.000Z</time>
      </trkpt>
      <trkpt lat="42.71709" lon="19.70084">
        <ele>1634.3800048828</ele>
        <time>2024-09-22T16:24:45.000Z</time>
      </trkpt>
      <trkpt lat="42.71716" lon="19.70095">
        <ele>1633.9000244141</ele>
        <time>2024-09-22T16:24:46.000Z</time>
      </trkpt>
      <trkpt lat="42.71726" lon="19.70112">
        <ele>1634.3800048828</ele>
        <time>2024-09-22T16:24:47.000Z</time>
      </trkpt>
      <trkpt lat="42.71729" lon="19.70118">
        <ele>1634.8599853516</ele>
        <time>2024-09-22T16:24:48.000Z</time>
      </trkpt>
      <trkpt lat="42.71741" lon="19.70136">
        <ele>1635.3399658203</ele>
        <time>2024-09-22T16:24:50.000Z</time>
      </trkpt>
      <trkpt lat="42.71747" lon="19.70143">
        <ele>1635.8199462891</ele>
        <time>2024-09-22T16:24:51.000Z</time>
      </trkpt>
      <trkpt lat="42.71753" lon="19.70148">
        <ele>1636.3000488281</ele>
        <time>2024-09-22T16:24:52.000Z</time>
      </trkpt>
      <trkpt lat="42.71757" lon="19.70153">
        <ele>1636.3000488281</ele>
        <time>2024-09-22T16:24:53.000Z</time>
      </trkpt>
      <trkpt lat="42.7176" lon="19.70158">
        <ele>1636.3000488281</ele>
        <time>2024-09-22T16:24:54.000Z</time>
      </trkpt>
      <trkpt lat="42.71764" lon="19.70165">
        <ele>1636.3000488281</ele>
        <time>2024-09-22T16:24:55.000Z</time>
      </trkpt>
      <trkpt lat="42.71768" lon="19.70171">
        <ele>1636.3000488281</ele>
        <time>2024-09-22T16:24:56.000Z</time>
      </trkpt>
      <trkpt lat="42.71772" lon="19.70177">
        <ele>1635.8199462891</ele>
        <time>2024-09-22T16:24:57.000Z</time>
      </trkpt>
      <trkpt lat="42.71776" lon="19.70182">
        <ele>1635.3399658203</ele>
        <time>2024-09-22T16:24:58.000Z</time>
      </trkpt>
      <trkpt lat="42.71781" lon="19.7019">
        <ele>1634.3800048828</ele>
        <time>2024-09-22T16:24:59.000Z</time>
      </trkpt>
      <trkpt lat="42.71785" lon="19.70196">
        <ele>1633.9000244141</ele>
        <time>2024-09-22T16:25:00.000Z</time>
      </trkpt>
      <trkpt lat="42.71791" lon="19.70207">
        <ele>1632.9399414062</ele>
        <time>2024-09-22T16:25:01.000Z</time>
      </trkpt>
      <trkpt lat="42.71794" lon="19.70212">
        <ele>1632.4599609375</ele>
        <time>2024-09-22T16:25:02.000Z</time>
      </trkpt>
      <trkpt lat="42.71799" lon="19.70223">
        <ele>1631.4899902344</ele>
        <time>2024-09-22T16:25:03.000Z</time>
      </trkpt>
      <trkpt lat="42.71802" lon="19.70228">
        <ele>1631.0100097656</ele>
        <time>2024-09-22T16:25:04.000Z</time>
      </trkpt>
      <trkpt lat="42.71809" lon="19.70243">
        <ele>1629.0899658203</ele>
        <time>2024-09-22T16:25:05.000Z</time>
      </trkpt>
      <trkpt lat="42.71811" lon="19.70247">
        <ele>1628.6099853516</ele>
        <time>2024-09-22T16:25:06.000Z</time>
      </trkpt>
      <trkpt lat="42.71822" lon="19.70277">
        <ele>1624.7700195312</ele>
        <time>2024-09-22T16:25:09.000Z</time>
      </trkpt>
      <trkpt lat="42.71825" lon="19.70285">
        <ele>1623.3199462891</ele>
        <time>2024-09-22T16:25:10.000Z</time>
      </trkpt>
      <trkpt lat="42.71834" lon="19.70304">
        <ele>1620.9200439453</ele>
        <time>2024-09-22T16:25:11.000Z</time>
      </trkpt>
      <trkpt lat="42.71838" lon="19.70312">
        <ele>1619.9599609375</ele>
        <time>2024-09-22T16:25:12.000Z</time>
      </trkpt>
      <trkpt lat="42.7184" lon="19.70317">
        <ele>1619.4799804688</ele>
        <time>2024-09-22T16:25:13.000Z</time>
      </trkpt>
      <trkpt lat="42.71842" lon="19.70324">
        <ele>1618.5200195312</ele>
        <time>2024-09-22T16:25:14.000Z</time>
      </trkpt>
      <trkpt lat="42.71845" lon="19.70333">
        <ele>1618.0400390625</ele>
        <time>2024-09-22T16:25:15.000Z</time>
      </trkpt>
      <trkpt lat="42.71847" lon="19.70343">
        <ele>1618.0400390625</ele>
        <time>2024-09-22T16:25:16.000Z</time>
      </trkpt>
      <trkpt lat="42.71848" lon="19.70351">
        <ele>1617.5600585938</ele>
        <time>2024-09-22T16:25:17.000Z</time>
      </trkpt>
      <trkpt lat="42.7185" lon="19.70367">
        <ele>1616.5899658203</ele>
        <time>2024-09-22T16:25:18.000Z</time>
      </trkpt>
      <trkpt lat="42.7185" lon="19.70369">
        <ele>1616.5899658203</ele>
        <time>2024-09-22T16:25:19.000Z</time>
      </trkpt>
      <trkpt lat="42.71851" lon="19.70383">
        <ele>1615.1500244141</ele>
        <time>2024-09-22T16:25:20.000Z</time>
      </trkpt>
      <trkpt lat="42.71851" lon="19.70387">
        <ele>1615.1500244141</ele>
        <time>2024-09-22T16:25:21.000Z</time>
      </trkpt>
      <trkpt lat="42.71852" lon="19.70396">
        <ele>1614.1899414062</ele>
        <time>2024-09-22T16:25:22.000Z</time>
      </trkpt>
      <trkpt lat="42.71852" lon="19.70405">
        <ele>1613.2299804688</ele>
        <time>2024-09-22T16:25:23.000Z</time>
      </trkpt>
      <trkpt lat="42.71852" lon="19.7042">
        <ele>1612.75</ele>
        <time>2024-09-22T16:25:24.000Z</time>
      </trkpt>
      <trkpt lat="42.71852" lon="19.70423">
        <ele>1612.2700195312</ele>
        <time>2024-09-22T16:25:25.000Z</time>
      </trkpt>
      <trkpt lat="42.71852" lon="19.70433">
        <ele>1611.7900390625</ele>
        <time>2024-09-22T16:25:26.000Z</time>
      </trkpt>
      <trkpt lat="42.71851" lon="19.70442">
        <ele>1611.7900390625</ele>
        <time>2024-09-22T16:25:27.000Z</time>
      </trkpt>
      <trkpt lat="42.7185" lon="19.70453">
        <ele>1611.3100585938</ele>
        <time>2024-09-22T16:25:28.000Z</time>
      </trkpt>
      <trkpt lat="42.71849" lon="19.70457">
        <ele>1610.8299560547</ele>
        <time>2024-09-22T16:25:29.000Z</time>
      </trkpt>
      <trkpt lat="42.71846" lon="19.70471">
        <ele>1610.8299560547</ele>
        <time>2024-09-22T16:25:30.000Z</time>
      </trkpt>
      <trkpt lat="42.71843" lon="19.70479">
        <ele>1610.8299560547</ele>
        <time>2024-09-22T16:25:31.000Z</time>
      </trkpt>
      <trkpt lat="42.7184" lon="19.70495">
        <ele>1609.8599853516</ele>
        <time>2024-09-22T16:25:32.000Z</time>
      </trkpt>
      <trkpt lat="42.71839" lon="19.70502">
        <ele>1609.8599853516</ele>
        <time>2024-09-22T16:25:33.000Z</time>
      </trkpt>
      <trkpt lat="42.71838" lon="19.70509">
        <ele>1609.3800048828</ele>
        <time>2024-09-22T16:25:34.000Z</time>
      </trkpt>
      <trkpt lat="42.71836" lon="19.70526">
        <ele>1609.3800048828</ele>
        <time>2024-09-22T16:25:35.000Z</time>
      </trkpt>
      <trkpt lat="42.71836" lon="19.7053">
        <ele>1608.9000244141</ele>
        <time>2024-09-22T16:25:36.000Z</time>
      </trkpt>
      <trkpt lat="42.71835" lon="19.70539">
        <ele>1608.9000244141</ele>
        <time>2024-09-22T16:25:37.000Z</time>
      </trkpt>
      <trkpt lat="42.71836" lon="19.70548">
        <ele>1608.4200439453</ele>
        <time>2024-09-22T16:25:38.000Z</time>
      </trkpt>
      <trkpt lat="42.71835" lon="19.70562">
        <ele>1607.4599609375</ele>
        <time>2024-09-22T16:25:39.000Z</time>
      </trkpt>
      <trkpt lat="42.71835" lon="19.70577">
        <ele>1606.9799804688</ele>
        <time>2024-09-22T16:25:40.000Z</time>
      </trkpt>
      <trkpt lat="42.71835" lon="19.70582">
        <ele>1606.9799804688</ele>
        <time>2024-09-22T16:25:41.000Z</time>
      </trkpt>
      <trkpt lat="42.71834" lon="19.70594">
        <ele>1606.5</ele>
        <time>2024-09-22T16:25:42.000Z</time>
      </trkpt>
      <trkpt lat="42.71834" lon="19.70602">
        <ele>1606.0200195312</ele>
        <time>2024-09-22T16:25:43.000Z</time>
      </trkpt>
      <trkpt lat="42.71834" lon="19.70611">
        <ele>1606.0200195312</ele>
        <time>2024-09-22T16:25:44.000Z</time>
      </trkpt>
      <trkpt lat="42.71834" lon="19.70623">
        <ele>1605.5400390625</ele>
        <time>2024-09-22T16:25:45.000Z</time>
      </trkpt>
      <trkpt lat="42.71834" lon="19.70631">
        <ele>1605.0600585938</ele>
        <time>2024-09-22T16:25:46.000Z</time>
      </trkpt>
      <trkpt lat="42.71834" lon="19.70635">
        <ele>1605.0600585938</ele>
        <time>2024-09-22T16:25:47.000Z</time>
      </trkpt>
      <trkpt lat="42.71834" lon="19.70644">
        <ele>1604.5799560547</ele>
        <time>2024-09-22T16:25:48.000Z</time>
      </trkpt>
      <trkpt lat="42.71834" lon="19.70652">
        <ele>1604.0999755859</ele>
        <time>2024-09-22T16:25:49.000Z</time>
      </trkpt>
      <trkpt lat="42.71832" lon="19.70659">
        <ele>1604.0999755859</ele>
        <time>2024-09-22T16:25:50.000Z</time>
      </trkpt>
      <trkpt lat="42.7183" lon="19.70667">
        <ele>1604.0999755859</ele>
        <time>2024-09-22T16:25:51.000Z</time>
      </trkpt>
      <trkpt lat="42.71827" lon="19.70676">
        <ele>1604.0999755859</ele>
        <time>2024-09-22T16:25:52.000Z</time>
      </trkpt>
      <trkpt lat="42.71822" lon="19.7069">
        <ele>1604.5799560547</ele>
        <time>2024-09-22T16:25:54.000Z</time>
      </trkpt>
      <trkpt lat="42.7182" lon="19.70699">
        <ele>1605.5400390625</ele>
        <time>2024-09-22T16:25:55.000Z</time>
      </trkpt>
      <trkpt lat="42.71819" lon="19.70703">
        <ele>1606.0200195312</ele>
        <time>2024-09-22T16:25:56.000Z</time>
      </trkpt>
      <trkpt lat="42.71819" lon="19.7071">
        <ele>1606.5</ele>
        <time>2024-09-22T16:25:57.000Z</time>
      </trkpt>
      <trkpt lat="42.71819" lon="19.70718">
        <ele>1606.9799804688</ele>
        <time>2024-09-22T16:25:58.000Z</time>
      </trkpt>
      <trkpt lat="42.71819" lon="19.70726">
        <ele>1606.9799804688</ele>
        <time>2024-09-22T16:25:59.000Z</time>
      </trkpt>
      <trkpt lat="42.71819" lon="19.70731">
        <ele>1606.9799804688</ele>
        <time>2024-09-22T16:26:00.000Z</time>
      </trkpt>
      <trkpt lat="42.71818" lon="19.70738">
        <ele>1607.4599609375</ele>
        <time>2024-09-22T16:26:01.000Z</time>
      </trkpt>
      <trkpt lat="42.71818" lon="19.70746">
        <ele>1607.4599609375</ele>
        <time>2024-09-22T16:26:02.000Z</time>
      </trkpt>
      <trkpt lat="42.71819" lon="19.70754">
        <ele>1607.4599609375</ele>
        <time>2024-09-22T16:26:03.000Z</time>
      </trkpt>
      <trkpt lat="42.71821" lon="19.70762">
        <ele>1607.9399414062</ele>
        <time>2024-09-22T16:26:04.000Z</time>
      </trkpt>
      <trkpt lat="42.71825" lon="19.70775">
        <ele>1608.4200439453</ele>
        <time>2024-09-22T16:26:05.000Z</time>
      </trkpt>
      <trkpt lat="42.71831" lon="19.70791">
        <ele>1608.9000244141</ele>
        <time>2024-09-22T16:26:07.000Z</time>
      </trkpt>
      <trkpt lat="42.71832" lon="19.70796">
        <ele>1608.9000244141</ele>
        <time>2024-09-22T16:26:08.000Z</time>
      </trkpt>
      <trkpt lat="42.71839" lon="19.70812">
        <ele>1608.9000244141</ele>
        <time>2024-09-22T16:26:10.000Z</time>
      </trkpt>
      <trkpt lat="42.71842" lon="19.70822">
        <ele>1608.9000244141</ele>
        <time>2024-09-22T16:26:11.000Z</time>
      </trkpt>
      <trkpt lat="42.71851" lon="19.70842">
        <ele>1608.9000244141</ele>
        <time>2024-09-22T16:26:13.000Z</time>
      </trkpt>
      <trkpt lat="42.71859" lon="19.70863">
        <ele>1609.3800048828</ele>
        <time>2024-09-22T16:26:15.000Z</time>
      </trkpt>
      <trkpt lat="42.7186" lon="19.70867">
        <ele>1609.3800048828</ele>
        <time>2024-09-22T16:26:16.000Z</time>
      </trkpt>
      <trkpt lat="42.71864" lon="19.70879">
        <ele>1609.3800048828</ele>
        <time>2024-09-22T16:26:17.000Z</time>
      </trkpt>
      <trkpt lat="42.71866" lon="19.70885">
        <ele>1609.8599853516</ele>
        <time>2024-09-22T16:26:18.000Z</time>
      </trkpt>
      <trkpt lat="42.71868" lon="19.70893">
        <ele>1609.8599853516</ele>
        <time>2024-09-22T16:26:19.000Z</time>
      </trkpt>
      <trkpt lat="42.71869" lon="19.70901">
        <ele>1609.8599853516</ele>
        <time>2024-09-22T16:26:20.000Z</time>
      </trkpt>
      <trkpt lat="42.7187" lon="19.70908">
        <ele>1609.8599853516</ele>
        <time>2024-09-22T16:26:21.000Z</time>
      </trkpt>
      <trkpt lat="42.71871" lon="19.70919">
        <ele>1608.9000244141</ele>
        <time>2024-09-22T16:26:22.000Z</time>
      </trkpt>
      <trkpt lat="42.71872" lon="19.7093">
        <ele>1608.4200439453</ele>
        <time>2024-09-22T16:26:23.000Z</time>
      </trkpt>
      <trkpt lat="42.71872" lon="19.70937">
        <ele>1607.9399414062</ele>
        <time>2024-09-22T16:26:24.000Z</time>
      </trkpt>
      <trkpt lat="42.71872" lon="19.70947">
        <ele>1606.9799804688</ele>
        <time>2024-09-22T16:26:25.000Z</time>
      </trkpt>
      <trkpt lat="42.71873" lon="19.70968">
        <ele>1606.0200195312</ele>
        <time>2024-09-22T16:26:26.000Z</time>
      </trkpt>
      <trkpt lat="42.71873" lon="19.70971">
        <ele>1605.5400390625</ele>
        <time>2024-09-22T16:26:27.000Z</time>
      </trkpt>
      <trkpt lat="42.71874" lon="19.70987">
        <ele>1605.5400390625</ele>
        <time>2024-09-22T16:26:28.000Z</time>
      </trkpt>
      <trkpt lat="42.71874" lon="19.70993">
        <ele>1605.0600585938</ele>
        <time>2024-09-22T16:26:29.000Z</time>
      </trkpt>
      <trkpt lat="42.71874" lon="19.7101">
        <ele>1604.5799560547</ele>
        <time>2024-09-22T16:26:30.000Z</time>
      </trkpt>
      <trkpt lat="42.71875" lon="19.71017">
        <ele>1604.0999755859</ele>
        <time>2024-09-22T16:26:31.000Z</time>
      </trkpt>
      <trkpt lat="42.71877" lon="19.71037">
        <ele>1603.1400146484</ele>
        <time>2024-09-22T16:26:32.000Z</time>
      </trkpt>
      <trkpt lat="42.71879" lon="19.71055">
        <ele>1601.6899414062</ele>
        <time>2024-09-22T16:26:34.000Z</time>
      </trkpt>
      <trkpt lat="42.7188" lon="19.71061">
        <ele>1601.2099609375</ele>
        <time>2024-09-22T16:26:35.000Z</time>
      </trkpt>
      <trkpt lat="42.71883" lon="19.71079">
        <ele>1599.7700195312</ele>
        <time>2024-09-22T16:26:36.000Z</time>
      </trkpt>
      <trkpt lat="42.71886" lon="19.71089">
        <ele>1599.7700195312</ele>
        <time>2024-09-22T16:26:37.000Z</time>
      </trkpt>
      <trkpt lat="42.71887" lon="19.71095">
        <ele>1599.7700195312</ele>
        <time>2024-09-22T16:26:38.000Z</time>
      </trkpt>
      <trkpt lat="42.7189" lon="19.71104">
        <ele>1599.2900390625</ele>
        <time>2024-09-22T16:26:39.000Z</time>
      </trkpt>
      <trkpt lat="42.719" lon="19.71132">
        <ele>1598.3299560547</ele>
        <time>2024-09-22T16:26:41.000Z</time>
      </trkpt>
      <trkpt lat="42.71903" lon="19.7114">
        <ele>1597.8499755859</ele>
        <time>2024-09-22T16:26:42.000Z</time>
      </trkpt>
      <trkpt lat="42.71905" lon="19.71146">
        <ele>1597.3699951172</ele>
        <time>2024-09-22T16:26:43.000Z</time>
      </trkpt>
      <trkpt lat="42.71906" lon="19.71152">
        <ele>1596.8900146484</ele>
        <time>2024-09-22T16:26:44.000Z</time>
      </trkpt>
      <trkpt lat="42.71908" lon="19.71162">
        <ele>1595.9300537109</ele>
        <time>2024-09-22T16:26:45.000Z</time>
      </trkpt>
      <trkpt lat="42.71908" lon="19.71172">
        <ele>1594.9599609375</ele>
        <time>2024-09-22T16:26:46.000Z</time>
      </trkpt>
      <trkpt lat="42.71907" lon="19.7118">
        <ele>1594</ele>
        <time>2024-09-22T16:26:47.000Z</time>
      </trkpt>
      <trkpt lat="42.71904" lon="19.7119">
        <ele>1593.5200195312</ele>
        <time>2024-09-22T16:26:48.000Z</time>
      </trkpt>
      <trkpt lat="42.71899" lon="19.71198">
        <ele>1593.0400390625</ele>
        <time>2024-09-22T16:26:49.000Z</time>
      </trkpt>
      <trkpt lat="42.71893" lon="19.71205">
        <ele>1593.0400390625</ele>
        <time>2024-09-22T16:26:50.000Z</time>
      </trkpt>
      <trkpt lat="42.71887" lon="19.71212">
        <ele>1593.0400390625</ele>
        <time>2024-09-22T16:26:51.000Z</time>
      </trkpt>
      <trkpt lat="42.71882" lon="19.7122">
        <ele>1593.0400390625</ele>
        <time>2024-09-22T16:26:52.000Z</time>
      </trkpt>
      <trkpt lat="42.71873" lon="19.7123">
        <ele>1593.0400390625</ele>
        <time>2024-09-22T16:26:53.000Z</time>
      </trkpt>
      <trkpt lat="42.71867" lon="19.71237">
        <ele>1593.0400390625</ele>
        <time>2024-09-22T16:26:54.000Z</time>
      </trkpt>
      <trkpt lat="42.71863" lon="19.7124">
        <ele>1593.0400390625</ele>
        <time>2024-09-22T16:26:55.000Z</time>
      </trkpt>
      <trkpt lat="42.71858" lon="19.71244">
        <ele>1592.5600585938</ele>
        <time>2024-09-22T16:26:56.000Z</time>
      </trkpt>
      <trkpt lat="42.71852" lon="19.71249">
        <ele>1592.5600585938</ele>
        <time>2024-09-22T16:26:57.000Z</time>
      </trkpt>
      <trkpt lat="42.71846" lon="19.71253">
        <ele>1592.5600585938</ele>
        <time>2024-09-22T16:26:58.000Z</time>
      </trkpt>
      <trkpt lat="42.7184" lon="19.71257">
        <ele>1592.5600585938</ele>
        <time>2024-09-22T16:26:59.000Z</time>
      </trkpt>
      <trkpt lat="42.71831" lon="19.7126">
        <ele>1592.5600585938</ele>
        <time>2024-09-22T16:27:00.000Z</time>
      </trkpt>
      <trkpt lat="42.71824" lon="19.71263">
        <ele>1592.0799560547</ele>
        <time>2024-09-22T16:27:01.000Z</time>
      </trkpt>
      <trkpt lat="42.71819" lon="19.71265">
        <ele>1592.0799560547</ele>
        <time>2024-09-22T16:27:02.000Z</time>
      </trkpt>
      <trkpt lat="42.71805" lon="19.7127">
        <ele>1592.0799560547</ele>
        <time>2024-09-22T16:27:03.000Z</time>
      </trkpt>
      <trkpt lat="42.71796" lon="19.71274">
        <ele>1591.5999755859</ele>
        <time>2024-09-22T16:27:04.000Z</time>
      </trkpt>
      <trkpt lat="42.7179" lon="19.71277">
        <ele>1591.1199951172</ele>
        <time>2024-09-22T16:27:05.000Z</time>
      </trkpt>
      <trkpt lat="42.71783" lon="19.7128">
        <ele>1590.6400146484</ele>
        <time>2024-09-22T16:27:06.000Z</time>
      </trkpt>
      <trkpt lat="42.7176" lon="19.71294">
        <ele>1589.6800537109</ele>
        <time>2024-09-22T16:27:09.000Z</time>
      </trkpt>
      <trkpt lat="42.7173" lon="19.71309">
        <ele>1588.2399902344</ele>
        <time>2024-09-22T16:27:12.000Z</time>
      </trkpt>
      <trkpt lat="42.71724" lon="19.71312">
        <ele>1587.75</ele>
        <time>2024-09-22T16:27:13.000Z</time>
      </trkpt>
      <trkpt lat="42.71717" lon="19.71317">
        <ele>1587.2700195312</ele>
        <time>2024-09-22T16:27:14.000Z</time>
      </trkpt>
      <trkpt lat="42.71712" lon="19.71321">
        <ele>1587.2700195312</ele>
        <time>2024-09-22T16:27:15.000Z</time>
      </trkpt>
      <trkpt lat="42.71705" lon="19.71326">
        <ele>1586.7900390625</ele>
        <time>2024-09-22T16:27:16.000Z</time>
      </trkpt>
      <trkpt lat="42.71694" lon="19.71337">
        <ele>1586.3100585938</ele>
        <time>2024-09-22T16:27:17.000Z</time>
      </trkpt>
      <trkpt lat="42.7169" lon="19.7134">
        <ele>1586.3100585938</ele>
        <time>2024-09-22T16:27:18.000Z</time>
      </trkpt>
      <trkpt lat="42.71675" lon="19.71351">
        <ele>1585.3499755859</ele>
        <time>2024-09-22T16:27:20.000Z</time>
      </trkpt>
      <trkpt lat="42.71668" lon="19.71356">
        <ele>1584.8699951172</ele>
        <time>2024-09-22T16:27:21.000Z</time>
      </trkpt>
      <trkpt lat="42.7166" lon="19.71362">
        <ele>1584.8699951172</ele>
        <time>2024-09-22T16:27:22.000Z</time>
      </trkpt>
      <trkpt lat="42.71655" lon="19.71366">
        <ele>1584.8699951172</ele>
        <time>2024-09-22T16:27:23.000Z</time>
      </trkpt>
      <trkpt lat="42.71648" lon="19.71372">
        <ele>1584.3900146484</ele>
        <time>2024-09-22T16:27:24.000Z</time>
      </trkpt>
      <trkpt lat="42.71638" lon="19.71381">
        <ele>1583.9100341797</ele>
        <time>2024-09-22T16:27:25.000Z</time>
      </trkpt>
      <trkpt lat="42.71632" lon="19.71386">
        <ele>1583.9100341797</ele>
        <time>2024-09-22T16:27:26.000Z</time>
      </trkpt>
      <trkpt lat="42.71627" lon="19.71391">
        <ele>1582.9499511719</ele>
        <time>2024-09-22T16:27:27.000Z</time>
      </trkpt>
      <trkpt lat="42.71618" lon="19.71397">
        <ele>1582.4699707031</ele>
        <time>2024-09-22T16:27:28.000Z</time>
      </trkpt>
      <trkpt lat="42.71613" lon="19.714">
        <ele>1581.9899902344</ele>
        <time>2024-09-22T16:27:29.000Z</time>
      </trkpt>
      <trkpt lat="42.71605" lon="19.71405">
        <ele>1581.5100097656</ele>
        <time>2024-09-22T16:27:30.000Z</time>
      </trkpt>
      <trkpt lat="42.71595" lon="19.71409">
        <ele>1581.0300292969</ele>
        <time>2024-09-22T16:27:32.000Z</time>
      </trkpt>
      <trkpt lat="42.71591" lon="19.71411">
        <ele>1581.0300292969</ele>
        <time>2024-09-22T16:27:33.000Z</time>
      </trkpt>
      <trkpt lat="42.71583" lon="19.71413">
        <ele>1580.0600585938</ele>
        <time>2024-09-22T16:27:34.000Z</time>
      </trkpt>
      <trkpt lat="42.71566" lon="19.71415">
        <ele>1579.0999755859</ele>
        <time>2024-09-22T16:27:37.000Z</time>
      </trkpt>
      <trkpt lat="42.71562" lon="19.71416">
        <ele>1579.0999755859</ele>
        <time>2024-09-22T16:27:38.000Z</time>
      </trkpt>
      <trkpt lat="42.71557" lon="19.71418">
        <ele>1578.6199951172</ele>
        <time>2024-09-22T16:27:39.000Z</time>
      </trkpt>
      <trkpt lat="42.71544" lon="19.71428">
        <ele>1578.6199951172</ele>
        <time>2024-09-22T16:27:41.000Z</time>
      </trkpt>
      <trkpt lat="42.71539" lon="19.71431">
        <ele>1578.1400146484</ele>
        <time>2024-09-22T16:27:42.000Z</time>
      </trkpt>
      <trkpt lat="42.71513" lon="19.71447">
        <ele>1576.2199707031</ele>
        <time>2024-09-22T16:27:46.000Z</time>
      </trkpt>
      <trkpt lat="42.71496" lon="19.71459">
        <ele>1575.2600097656</ele>
        <time>2024-09-22T16:27:49.000Z</time>
      </trkpt>
      <trkpt lat="42.71484" lon="19.71466">
        <ele>1574.3000488281</ele>
        <time>2024-09-22T16:27:50.000Z</time>
      </trkpt>
      <trkpt lat="42.71477" lon="19.71471">
        <ele>1573.8199462891</ele>
        <time>2024-09-22T16:27:51.000Z</time>
      </trkpt>
      <trkpt lat="42.71472" lon="19.71474">
        <ele>1572.8499755859</ele>
        <time>2024-09-22T16:27:52.000Z</time>
      </trkpt>
      <trkpt lat="42.71466" lon="19.71478">
        <ele>1572.3699951172</ele>
        <time>2024-09-22T16:27:53.000Z</time>
      </trkpt>
      <trkpt lat="42.71459" lon="19.71484">
        <ele>1571.8900146484</ele>
        <time>2024-09-22T16:27:54.000Z</time>
      </trkpt>
      <trkpt lat="42.71454" lon="19.71492">
        <ele>1571.4100341797</ele>
        <time>2024-09-22T16:27:55.000Z</time>
      </trkpt>
      <trkpt lat="42.71447" lon="19.71504">
        <ele>1570.4499511719</ele>
        <time>2024-09-22T16:27:56.000Z</time>
      </trkpt>
      <trkpt lat="42.71444" lon="19.71509">
        <ele>1570.4499511719</ele>
        <time>2024-09-22T16:27:57.000Z</time>
      </trkpt>
      <trkpt lat="42.71438" lon="19.71517">
        <ele>1569.4899902344</ele>
        <time>2024-09-22T16:27:58.000Z</time>
      </trkpt>
      <trkpt lat="42.71436" lon="19.71521">
        <ele>1569.4899902344</ele>
        <time>2024-09-22T16:27:59.000Z</time>
      </trkpt>
      <trkpt lat="42.71425" lon="19.71537">
        <ele>1567.5699462891</ele>
        <time>2024-09-22T16:28:01.000Z</time>
      </trkpt>
      <trkpt lat="42.71421" lon="19.71542">
        <ele>1566.6099853516</ele>
        <time>2024-09-22T16:28:02.000Z</time>
      </trkpt>
      <trkpt lat="42.71419" lon="19.71548">
        <ele>1565.6400146484</ele>
        <time>2024-09-22T16:28:03.000Z</time>
      </trkpt>
      <trkpt lat="42.71415" lon="19.71556">
        <ele>1565.1600341797</ele>
        <time>2024-09-22T16:28:04.000Z</time>
      </trkpt>
      <trkpt lat="42.71412" lon="19.71565">
        <ele>1564.1999511719</ele>
        <time>2024-09-22T16:28:05.000Z</time>
      </trkpt>
      <trkpt lat="42.71408" lon="19.71575">
        <ele>1563.2399902344</ele>
        <time>2024-09-22T16:28:06.000Z</time>
      </trkpt>
      <trkpt lat="42.71405" lon="19.71584">
        <ele>1562.2800292969</ele>
        <time>2024-09-22T16:28:07.000Z</time>
      </trkpt>
      <trkpt lat="42.71401" lon="19.71593">
        <ele>1561.8000488281</ele>
        <time>2024-09-22T16:28:08.000Z</time>
      </trkpt>
      <trkpt lat="42.71397" lon="19.71602">
        <ele>1560.8399658203</ele>
        <time>2024-09-22T16:28:09.000Z</time>
      </trkpt>
      <trkpt lat="42.71395" lon="19.71607">
        <ele>1560.3599853516</ele>
        <time>2024-09-22T16:28:10.000Z</time>
      </trkpt>
      <trkpt lat="42.71393" lon="19.71614">
        <ele>1559.8800048828</ele>
        <time>2024-09-22T16:28:11.000Z</time>
      </trkpt>
      <trkpt lat="42.71384" lon="19.71654">
        <ele>1555.5500488281</ele>
        <time>2024-09-22T16:28:15.000Z</time>
      </trkpt>
      <trkpt lat="42.71383" lon="19.71681">
        <ele>1552.6700439453</ele>
        <time>2024-09-22T16:28:17.000Z</time>
      </trkpt>
      <trkpt lat="42.71382" lon="19.71687">
        <ele>1552.1899414062</ele>
        <time>2024-09-22T16:28:18.000Z</time>
      </trkpt>
      <trkpt lat="42.71383" lon="19.71702">
        <ele>1549.7800292969</ele>
        <time>2024-09-22T16:28:19.000Z</time>
      </trkpt>
      <trkpt lat="42.71383" lon="19.7171">
        <ele>1548.8199462891</ele>
        <time>2024-09-22T16:28:20.000Z</time>
      </trkpt>
      <trkpt lat="42.71383" lon="19.71716">
        <ele>1547.8599853516</ele>
        <time>2024-09-22T16:28:21.000Z</time>
      </trkpt>
      <trkpt lat="42.71382" lon="19.71726">
        <ele>1546.4200439453</ele>
        <time>2024-09-22T16:28:22.000Z</time>
      </trkpt>
      <trkpt lat="42.7138" lon="19.71734">
        <ele>1544.9799804688</ele>
        <time>2024-09-22T16:28:23.000Z</time>
      </trkpt>
      <trkpt lat="42.71376" lon="19.71744">
        <ele>1543.0500488281</ele>
        <time>2024-09-22T16:28:24.000Z</time>
      </trkpt>
      <trkpt lat="42.71373" lon="19.71752">
        <ele>1542.0899658203</ele>
        <time>2024-09-22T16:28:25.000Z</time>
      </trkpt>
      <trkpt lat="42.71372" lon="19.7176">
        <ele>1540.6500244141</ele>
        <time>2024-09-22T16:28:26.000Z</time>
      </trkpt>
      <trkpt lat="42.71371" lon="19.71768">
        <ele>1539.2099609375</ele>
        <time>2024-09-22T16:28:27.000Z</time>
      </trkpt>
      <trkpt lat="42.71371" lon="19.71789">
        <ele>1535.8399658203</ele>
        <time>2024-09-22T16:28:29.000Z</time>
      </trkpt>
      <trkpt lat="42.71368" lon="19.71845">
        <ele>1527.6700439453</ele>
        <time>2024-09-22T16:28:34.000Z</time>
      </trkpt>
      <trkpt lat="42.71368" lon="19.71848">
        <ele>1527.6700439453</ele>
        <time>2024-09-22T16:28:35.000Z</time>
      </trkpt>
      <trkpt lat="42.71367" lon="19.71856">
        <ele>1526.2299804688</ele>
        <time>2024-09-22T16:28:36.000Z</time>
      </trkpt>
      <trkpt lat="42.71364" lon="19.71876">
        <ele>1523.3499755859</ele>
        <time>2024-09-22T16:28:38.000Z</time>
      </trkpt>
      <trkpt lat="42.71362" lon="19.71891">
        <ele>1521.9000244141</ele>
        <time>2024-09-22T16:28:39.000Z</time>
      </trkpt>
      <trkpt lat="42.7136" lon="19.71897">
        <ele>1520.9399414062</ele>
        <time>2024-09-22T16:28:40.000Z</time>
      </trkpt>
      <trkpt lat="42.71356" lon="19.71911">
        <ele>1519.5</ele>
        <time>2024-09-22T16:28:41.000Z</time>
      </trkpt>
      <trkpt lat="42.71353" lon="19.71917">
        <ele>1519.0200195312</ele>
        <time>2024-09-22T16:28:42.000Z</time>
      </trkpt>
      <trkpt lat="42.71341" lon="19.71961">
        <ele>1513.25</ele>
        <time>2024-09-22T16:28:46.000Z</time>
      </trkpt>
      <trkpt lat="42.71341" lon="19.71963">
        <ele>1512.7700195312</ele>
        <time>2024-09-22T16:28:47.000Z</time>
      </trkpt>
      <trkpt lat="42.71337" lon="19.71975">
        <ele>1511.8100585938</ele>
        <time>2024-09-22T16:28:48.000Z</time>
      </trkpt>
      <trkpt lat="42.71332" lon="19.71989">
        <ele>1510.3699951172</ele>
        <time>2024-09-22T16:28:49.000Z</time>
      </trkpt>
      <trkpt lat="42.71331" lon="19.71992">
        <ele>1509.8900146484</ele>
        <time>2024-09-22T16:28:50.000Z</time>
      </trkpt>
      <trkpt lat="42.71326" lon="19.72005">
        <ele>1508.4499511719</ele>
        <time>2024-09-22T16:28:51.000Z</time>
      </trkpt>
      <trkpt lat="42.71321" lon="19.72021">
        <ele>1506.0400390625</ele>
        <time>2024-09-22T16:28:53.000Z</time>
      </trkpt>
      <trkpt lat="42.71317" lon="19.72032">
        <ele>1505.0799560547</ele>
        <time>2024-09-22T16:28:54.000Z</time>
      </trkpt>
      <trkpt lat="42.71297" lon="19.721">
        <ele>1498.8299560547</ele>
        <time>2024-09-22T16:29:00.000Z</time>
      </trkpt>
      <trkpt lat="42.71295" lon="19.72106">
        <ele>1497.8699951172</ele>
        <time>2024-09-22T16:29:01.000Z</time>
      </trkpt>
      <trkpt lat="42.7129" lon="19.72121">
        <ele>1495.9499511719</ele>
        <time>2024-09-22T16:29:02.000Z</time>
      </trkpt>
      <trkpt lat="42.71289" lon="19.72123">
        <ele>1495.9499511719</ele>
        <time>2024-09-22T16:29:03.000Z</time>
      </trkpt>
      <trkpt lat="42.71283" lon="19.72136">
        <ele>1494.0300292969</ele>
        <time>2024-09-22T16:29:04.000Z</time>
      </trkpt>
      <trkpt lat="42.71279" lon="19.72146">
        <ele>1492.5799560547</ele>
        <time>2024-09-22T16:29:05.000Z</time>
      </trkpt>
      <trkpt lat="42.71265" lon="19.72181">
        <ele>1488.7399902344</ele>
        <time>2024-09-22T16:29:08.000Z</time>
      </trkpt>
      <trkpt lat="42.71263" lon="19.72187">
        <ele>1488.2600097656</ele>
        <time>2024-09-22T16:29:09.000Z</time>
      </trkpt>
      <trkpt lat="42.71262" lon="19.72192">
        <ele>1487.7800292969</ele>
        <time>2024-09-22T16:29:10.000Z</time>
      </trkpt>
      <trkpt lat="42.71259" lon="19.72203">
        <ele>1486.8199462891</ele>
        <time>2024-09-22T16:29:11.000Z</time>
      </trkpt>
      <trkpt lat="42.71257" lon="19.7221">
        <ele>1486.3399658203</ele>
        <time>2024-09-22T16:29:12.000Z</time>
      </trkpt>
      <trkpt lat="42.71254" lon="19.72218">
        <ele>1486.3399658203</ele>
        <time>2024-09-22T16:29:13.000Z</time>
      </trkpt>
      <trkpt lat="42.71252" lon="19.72224">
        <ele>1485.8499755859</ele>
        <time>2024-09-22T16:29:14.000Z</time>
      </trkpt>
      <trkpt lat="42.71246" lon="19.72236">
        <ele>1485.3699951172</ele>
        <time>2024-09-22T16:29:15.000Z</time>
      </trkpt>
      <trkpt lat="42.71244" lon="19.7224">
        <ele>1484.8900146484</ele>
        <time>2024-09-22T16:29:16.000Z</time>
      </trkpt>
      <trkpt lat="42.71241" lon="19.72245">
        <ele>1484.4100341797</ele>
        <time>2024-09-22T16:29:17.000Z</time>
      </trkpt>
      <trkpt lat="42.71238" lon="19.72251">
        <ele>1483.9300537109</ele>
        <time>2024-09-22T16:29:18.000Z</time>
      </trkpt>
      <trkpt lat="42.7123" lon="19.72263">
        <ele>1481.5300292969</ele>
        <time>2024-09-22T16:29:19.000Z</time>
      </trkpt>
      <trkpt lat="42.71229" lon="19.72265">
        <ele>1481.5300292969</ele>
        <time>2024-09-22T16:29:20.000Z</time>
      </trkpt>
      <trkpt lat="42.7122" lon="19.72279">
        <ele>1479.6099853516</ele>
        <time>2024-09-22T16:29:22.000Z</time>
      </trkpt>
      <trkpt lat="42.71215" lon="19.72286">
        <ele>1478.6500244141</ele>
        <time>2024-09-22T16:29:23.000Z</time>
      </trkpt>
      <trkpt lat="42.71213" lon="19.72289">
        <ele>1477.6800537109</ele>
        <time>2024-09-22T16:29:24.000Z</time>
      </trkpt>
      <trkpt lat="42.71208" lon="19.72294">
        <ele>1476.7199707031</ele>
        <time>2024-09-22T16:29:25.000Z</time>
      </trkpt>
      <trkpt lat="42.71202" lon="19.72299">
        <ele>1475.2800292969</ele>
        <time>2024-09-22T16:29:26.000Z</time>
      </trkpt>
      <trkpt lat="42.71188" lon="19.7231">
        <ele>1470.9499511719</ele>
        <time>2024-09-22T16:29:28.000Z</time>
      </trkpt>
      <trkpt lat="42.71186" lon="19.72311">
        <ele>1469.9899902344</ele>
        <time>2024-09-22T16:29:29.000Z</time>
      </trkpt>
      <trkpt lat="42.7118" lon="19.72315">
        <ele>1468.0699462891</ele>
        <time>2024-09-22T16:29:30.000Z</time>
      </trkpt>
      <trkpt lat="42.71168" lon="19.72321">
        <ele>1464.2299804688</ele>
        <time>2024-09-22T16:29:31.000Z</time>
      </trkpt>
      <trkpt lat="42.71167" lon="19.72322">
        <ele>1463.7399902344</ele>
        <time>2024-09-22T16:29:32.000Z</time>
      </trkpt>
      <trkpt lat="42.71161" lon="19.72325">
        <ele>1462.7800292969</ele>
        <time>2024-09-22T16:29:33.000Z</time>
      </trkpt>
      <trkpt lat="42.71154" lon="19.7233">
        <ele>1460.8599853516</ele>
        <time>2024-09-22T16:29:34.000Z</time>
      </trkpt>
      <trkpt lat="42.71149" lon="19.72336">
        <ele>1459.4200439453</ele>
        <time>2024-09-22T16:29:35.000Z</time>
      </trkpt>
      <trkpt lat="42.71143" lon="19.72344">
        <ele>1457.5</ele>
        <time>2024-09-22T16:29:36.000Z</time>
      </trkpt>
      <trkpt lat="42.71129" lon="19.72367">
        <ele>1453.6500244141</ele>
        <time>2024-09-22T16:29:38.000Z</time>
      </trkpt>
      <trkpt lat="42.71125" lon="19.72374">
        <ele>1452.6899414062</ele>
        <time>2024-09-22T16:29:39.000Z</time>
      </trkpt>
      <trkpt lat="42.71122" lon="19.72379">
        <ele>1452.2099609375</ele>
        <time>2024-09-22T16:29:40.000Z</time>
      </trkpt>
      <trkpt lat="42.71119" lon="19.72384">
        <ele>1451.7299804688</ele>
        <time>2024-09-22T16:29:41.000Z</time>
      </trkpt>
      <trkpt lat="42.71116" lon="19.72391">
        <ele>1450.7700195312</ele>
        <time>2024-09-22T16:29:42.000Z</time>
      </trkpt>
      <trkpt lat="42.71113" lon="19.72399">
        <ele>1449.8100585938</ele>
        <time>2024-09-22T16:29:43.000Z</time>
      </trkpt>
      <trkpt lat="42.71106" lon="19.72419">
        <ele>1446.9200439453</ele>
        <time>2024-09-22T16:29:45.000Z</time>
      </trkpt>
      <trkpt lat="42.71103" lon="19.72427">
        <ele>1445.9599609375</ele>
        <time>2024-09-22T16:29:46.000Z</time>
      </trkpt>
      <trkpt lat="42.71093" lon="19.72467">
        <ele>1439.2299804688</ele>
        <time>2024-09-22T16:29:50.000Z</time>
      </trkpt>
      <trkpt lat="42.71091" lon="19.72476">
        <ele>1437.7900390625</ele>
        <time>2024-09-22T16:29:51.000Z</time>
      </trkpt>
      <trkpt lat="42.71088" lon="19.72484">
        <ele>1436.8299560547</ele>
        <time>2024-09-22T16:29:52.000Z</time>
      </trkpt>
      <trkpt lat="42.71085" lon="19.72492">
        <ele>1435.3900146484</ele>
        <time>2024-09-22T16:29:53.000Z</time>
      </trkpt>
      <trkpt lat="42.71079" lon="19.72505">
        <ele>1433.4599609375</ele>
        <time>2024-09-22T16:29:54.000Z</time>
      </trkpt>
      <trkpt lat="42.71072" lon="19.72518">
        <ele>1431.5400390625</ele>
        <time>2024-09-22T16:29:56.000Z</time>
      </trkpt>
      <trkpt lat="42.71067" lon="19.72529">
        <ele>1430.0999755859</ele>
        <time>2024-09-22T16:29:57.000Z</time>
      </trkpt>
      <trkpt lat="42.71063" lon="19.72537">
        <ele>1429.1400146484</ele>
        <time>2024-09-22T16:29:58.000Z</time>
      </trkpt>
      <trkpt lat="42.71059" lon="19.72546">
        <ele>1428.1800537109</ele>
        <time>2024-09-22T16:29:59.000Z</time>
      </trkpt>
      <trkpt lat="42.71054" lon="19.72558">
        <ele>1426.7299804688</ele>
        <time>2024-09-22T16:30:00.000Z</time>
      </trkpt>
      <trkpt lat="42.71051" lon="19.72564">
        <ele>1426.25</ele>
        <time>2024-09-22T16:30:01.000Z</time>
      </trkpt>
      <trkpt lat="42.71045" lon="19.72573">
        <ele>1424.8100585938</ele>
        <time>2024-09-22T16:30:02.000Z</time>
      </trkpt>
      <trkpt lat="42.7104" lon="19.72581">
        <ele>1424.3299560547</ele>
        <time>2024-09-22T16:30:03.000Z</time>
      </trkpt>
      <trkpt lat="42.71035" lon="19.72589">
        <ele>1423.3699951172</ele>
        <time>2024-09-22T16:30:04.000Z</time>
      </trkpt>
      <trkpt lat="42.71029" lon="19.72599">
        <ele>1422.4100341797</ele>
        <time>2024-09-22T16:30:05.000Z</time>
      </trkpt>
      <trkpt lat="42.71013" lon="19.72622">
        <ele>1420.4899902344</ele>
        <time>2024-09-22T16:30:08.000Z</time>
      </trkpt>
      <trkpt lat="42.70996" lon="19.72643">
        <ele>1418.0799560547</ele>
        <time>2024-09-22T16:30:10.000Z</time>
      </trkpt>
      <trkpt lat="42.70993" lon="19.72647">
        <ele>1417.5999755859</ele>
        <time>2024-09-22T16:30:11.000Z</time>
      </trkpt>
      <trkpt lat="42.70983" lon="19.72658">
        <ele>1416.6400146484</ele>
        <time>2024-09-22T16:30:12.000Z</time>
      </trkpt>
      <trkpt lat="42.70965" lon="19.7268">
        <ele>1414.7199707031</ele>
        <time>2024-09-22T16:30:15.000Z</time>
      </trkpt>
      <trkpt lat="42.70958" lon="19.72687">
        <ele>1413.7600097656</ele>
        <time>2024-09-22T16:30:16.000Z</time>
      </trkpt>
      <trkpt lat="42.70955" lon="19.72691">
        <ele>1413.7600097656</ele>
        <time>2024-09-22T16:30:17.000Z</time>
      </trkpt>
      <trkpt lat="42.70944" lon="19.72704">
        <ele>1412.3100585938</ele>
        <time>2024-09-22T16:30:19.000Z</time>
      </trkpt>
      <trkpt lat="42.70939" lon="19.7271">
        <ele>1411.8299560547</ele>
        <time>2024-09-22T16:30:20.000Z</time>
      </trkpt>
      <trkpt lat="42.70924" lon="19.72724">
        <ele>1410.3900146484</ele>
        <time>2024-09-22T16:30:22.000Z</time>
      </trkpt>
      <trkpt lat="42.70916" lon="19.72731">
        <ele>1409.4300537109</ele>
        <time>2024-09-22T16:30:23.000Z</time>
      </trkpt>
      <trkpt lat="42.7091" lon="19.72737">
        <ele>1408.4699707031</ele>
        <time>2024-09-22T16:30:24.000Z</time>
      </trkpt>
      <trkpt lat="42.70903" lon="19.72745">
        <ele>1407.0300292969</ele>
        <time>2024-09-22T16:30:25.000Z</time>
      </trkpt>
      <trkpt lat="42.70896" lon="19.72756">
        <ele>1405.5799560547</ele>
        <time>2024-09-22T16:30:26.000Z</time>
      </trkpt>
      <trkpt lat="42.70882" lon="19.72782">
        <ele>1403.6600341797</ele>
        <time>2024-09-22T16:30:28.000Z</time>
      </trkpt>
      <trkpt lat="42.70879" lon="19.72787">
        <ele>1403.1800537109</ele>
        <time>2024-09-22T16:30:29.000Z</time>
      </trkpt>
      <trkpt lat="42.70873" lon="19.72796">
        <ele>1402.6999511719</ele>
        <time>2024-09-22T16:30:30.000Z</time>
      </trkpt>
      <trkpt lat="42.70866" lon="19.72804">
        <ele>1402.6999511719</ele>
        <time>2024-09-22T16:30:31.000Z</time>
      </trkpt>
      <trkpt lat="42.70858" lon="19.72812">
        <ele>1402.2199707031</ele>
        <time>2024-09-22T16:30:32.000Z</time>
      </trkpt>
      <trkpt lat="42.70851" lon="19.72821">
        <ele>1402.2199707031</ele>
        <time>2024-09-22T16:30:33.000Z</time>
      </trkpt>
      <trkpt lat="42.70847" lon="19.72827">
        <ele>1401.7399902344</ele>
        <time>2024-09-22T16:30:34.000Z</time>
      </trkpt>
      <trkpt lat="42.70828" lon="19.72852">
        <ele>1400.7800292969</ele>
        <time>2024-09-22T16:30:37.000Z</time>
      </trkpt>
      <trkpt lat="42.70823" lon="19.7286">
        <ele>1400.7800292969</ele>
        <time>2024-09-22T16:30:38.000Z</time>
      </trkpt>
      <trkpt lat="42.70817" lon="19.72872">
        <ele>1400.3000488281</ele>
        <time>2024-09-22T16:30:39.000Z</time>
      </trkpt>
      <trkpt lat="42.70814" lon="19.72878">
        <ele>1400.3000488281</ele>
        <time>2024-09-22T16:30:40.000Z</time>
      </trkpt>
      <trkpt lat="42.70807" lon="19.72886">
        <ele>1400.3000488281</ele>
        <time>2024-09-22T16:30:41.000Z</time>
      </trkpt>
      <trkpt lat="42.708" lon="19.72892">
        <ele>1399.8199462891</ele>
        <time>2024-09-22T16:30:42.000Z</time>
      </trkpt>
      <trkpt lat="42.70793" lon="19.72896">
        <ele>1399.8199462891</ele>
        <time>2024-09-22T16:30:43.000Z</time>
      </trkpt>
      <trkpt lat="42.70773" lon="19.72901">
        <ele>1398.8599853516</ele>
        <time>2024-09-22T16:30:45.000Z</time>
      </trkpt>
      <trkpt lat="42.70764" lon="19.72904">
        <ele>1398.3699951172</ele>
        <time>2024-09-22T16:30:46.000Z</time>
      </trkpt>
      <trkpt lat="42.70757" lon="19.72907">
        <ele>1397.8900146484</ele>
        <time>2024-09-22T16:30:47.000Z</time>
      </trkpt>
      <trkpt lat="42.70749" lon="19.72913">
        <ele>1397.8900146484</ele>
        <time>2024-09-22T16:30:48.000Z</time>
      </trkpt>
      <trkpt lat="42.70741" lon="19.7292">
        <ele>1397.4100341797</ele>
        <time>2024-09-22T16:30:49.000Z</time>
      </trkpt>
      <trkpt lat="42.70734" lon="19.72926">
        <ele>1397.4100341797</ele>
        <time>2024-09-22T16:30:50.000Z</time>
      </trkpt>
      <trkpt lat="42.70729" lon="19.72929">
        <ele>1397.4100341797</ele>
        <time>2024-09-22T16:30:51.000Z</time>
      </trkpt>
      <trkpt lat="42.70722" lon="19.72933">
        <ele>1396.9300537109</ele>
        <time>2024-09-22T16:30:52.000Z</time>
      </trkpt>
      <trkpt lat="42.70706" lon="19.72936">
        <ele>1395.9699707031</ele>
        <time>2024-09-22T16:30:54.000Z</time>
      </trkpt>
      <trkpt lat="42.70701" lon="19.72938">
        <ele>1395.4899902344</ele>
        <time>2024-09-22T16:30:55.000Z</time>
      </trkpt>
      <trkpt lat="42.70693" lon="19.72942">
        <ele>1395.0100097656</ele>
        <time>2024-09-22T16:30:56.000Z</time>
      </trkpt>
      <trkpt lat="42.70686" lon="19.72946">
        <ele>1393.5699462891</ele>
        <time>2024-09-22T16:30:57.000Z</time>
      </trkpt>
      <trkpt lat="42.70681" lon="19.72949">
        <ele>1393.0899658203</ele>
        <time>2024-09-22T16:30:58.000Z</time>
      </trkpt>
      <trkpt lat="42.70675" lon="19.72951">
        <ele>1392.6099853516</ele>
        <time>2024-09-22T16:30:59.000Z</time>
      </trkpt>
      <trkpt lat="42.70668" lon="19.72951">
        <ele>1392.1300048828</ele>
        <time>2024-09-22T16:31:00.000Z</time>
      </trkpt>
      <trkpt lat="42.70662" lon="19.72951">
        <ele>1391.6500244141</ele>
        <time>2024-09-22T16:31:01.000Z</time>
      </trkpt>
      <trkpt lat="42.70652" lon="19.72951">
        <ele>1390.1999511719</ele>
        <time>2024-09-22T16:31:02.000Z</time>
      </trkpt>
      <trkpt lat="42.70649" lon="19.72951">
        <ele>1390.1999511719</ele>
        <time>2024-09-22T16:31:03.000Z</time>
      </trkpt>
      <trkpt lat="42.7064" lon="19.72952">
        <ele>1388.7600097656</ele>
        <time>2024-09-22T16:31:04.000Z</time>
      </trkpt>
      <trkpt lat="42.70635" lon="19.72953">
        <ele>1388.2800292969</ele>
        <time>2024-09-22T16:31:05.000Z</time>
      </trkpt>
      <trkpt lat="42.70631" lon="19.72954">
        <ele>1387.8000488281</ele>
        <time>2024-09-22T16:31:06.000Z</time>
      </trkpt>
      <trkpt lat="42.70624" lon="19.72955">
        <ele>1387.3199462891</ele>
        <time>2024-09-22T16:31:07.000Z</time>
      </trkpt>
      <trkpt lat="42.70618" lon="19.72957">
        <ele>1386.3599853516</ele>
        <time>2024-09-22T16:31:08.000Z</time>
      </trkpt>
      <trkpt lat="42.70613" lon="19.72959">
        <ele>1385.8800048828</ele>
        <time>2024-09-22T16:31:09.000Z</time>
      </trkpt>
      <trkpt lat="42.70597" lon="19.72965">
        <ele>1384.9200439453</ele>
        <time>2024-09-22T16:31:11.000Z</time>
      </trkpt>
      <trkpt lat="42.70585" lon="19.72969">
        <ele>1384.4399414062</ele>
        <time>2024-09-22T16:31:14.000Z</time>
      </trkpt>
      <trkpt lat="42.70579" lon="19.7297">
        <ele>1383.9599609375</ele>
        <time>2024-09-22T16:31:15.000Z</time>
      </trkpt>
      <trkpt lat="42.70573" lon="19.7297">
        <ele>1383.4699707031</ele>
        <time>2024-09-22T16:31:16.000Z</time>
      </trkpt>
      <trkpt lat="42.70565" lon="19.72969">
        <ele>1383.4699707031</ele>
        <time>2024-09-22T16:31:17.000Z</time>
      </trkpt>
      <trkpt lat="42.70542" lon="19.72967">
        <ele>1382.5100097656</ele>
        <time>2024-09-22T16:31:21.000Z</time>
      </trkpt>
      <trkpt lat="42.70539" lon="19.72968">
        <ele>1382.0300292969</ele>
        <time>2024-09-22T16:31:22.000Z</time>
      </trkpt>
      <trkpt lat="42.70532" lon="19.72969">
        <ele>1382.0300292969</ele>
        <time>2024-09-22T16:31:23.000Z</time>
      </trkpt>
      <trkpt lat="42.70519" lon="19.72972">
        <ele>1380.5899658203</ele>
        <time>2024-09-22T16:31:25.000Z</time>
      </trkpt>
      <trkpt lat="42.70512" lon="19.72973">
        <ele>1380.1099853516</ele>
        <time>2024-09-22T16:31:26.000Z</time>
      </trkpt>
      <trkpt lat="42.70506" lon="19.72975">
        <ele>1379.6300048828</ele>
        <time>2024-09-22T16:31:27.000Z</time>
      </trkpt>
      <trkpt lat="42.705" lon="19.72975">
        <ele>1378.6700439453</ele>
        <time>2024-09-22T16:31:28.000Z</time>
      </trkpt>
      <trkpt lat="42.70487" lon="19.72976">
        <ele>1377.7099609375</ele>
        <time>2024-09-22T16:31:30.000Z</time>
      </trkpt>
      <trkpt lat="42.70481" lon="19.72975">
        <ele>1376.75</ele>
        <time>2024-09-22T16:31:31.000Z</time>
      </trkpt>
      <trkpt lat="42.70476" lon="19.72975">
        <ele>1376.2600097656</ele>
        <time>2024-09-22T16:31:32.000Z</time>
      </trkpt>
      <trkpt lat="42.70468" lon="19.72975">
        <ele>1375.7800292969</ele>
        <time>2024-09-22T16:31:33.000Z</time>
      </trkpt>
      <trkpt lat="42.70462" lon="19.72977">
        <ele>1374.8199462891</ele>
        <time>2024-09-22T16:31:34.000Z</time>
      </trkpt>
      <trkpt lat="42.70455" lon="19.7298">
        <ele>1374.3399658203</ele>
        <time>2024-09-22T16:31:35.000Z</time>
      </trkpt>
      <trkpt lat="42.7045" lon="19.72983">
        <ele>1373.3800048828</ele>
        <time>2024-09-22T16:31:36.000Z</time>
      </trkpt>
      <trkpt lat="42.70443" lon="19.72986">
        <ele>1372.9000244141</ele>
        <time>2024-09-22T16:31:37.000Z</time>
      </trkpt>
      <trkpt lat="42.70438" lon="19.72987">
        <ele>1372.4200439453</ele>
        <time>2024-09-22T16:31:38.000Z</time>
      </trkpt>
      <trkpt lat="42.70433" lon="19.72989">
        <ele>1371.9399414062</ele>
        <time>2024-09-22T16:31:39.000Z</time>
      </trkpt>
      <trkpt lat="42.70421" lon="19.73007">
        <ele>1370.9799804688</ele>
        <time>2024-09-22T16:31:45.000Z</time>
      </trkpt>
      <trkpt lat="42.70417" lon="19.73014">
        <ele>1370.9799804688</ele>
        <time>2024-09-22T16:31:46.000Z</time>
      </trkpt>
      <trkpt lat="42.70414" lon="19.7302">
        <ele>1370.5</ele>
        <time>2024-09-22T16:31:48.000Z</time>
      </trkpt>
      <trkpt lat="42.70411" lon="19.73027">
        <ele>1370.5</ele>
        <time>2024-09-22T16:31:49.000Z</time>
      </trkpt>
      <trkpt lat="42.70408" lon="19.73034">
        <ele>1370.5</ele>
        <time>2024-09-22T16:31:50.000Z</time>
      </trkpt>
      <trkpt lat="42.70405" lon="19.73042">
        <ele>1370.0200195312</ele>
        <time>2024-09-22T16:31:51.000Z</time>
      </trkpt>
      <trkpt lat="42.70402" lon="19.7305">
        <ele>1370.0200195312</ele>
        <time>2024-09-22T16:31:52.000Z</time>
      </trkpt>
      <trkpt lat="42.704" lon="19.73056">
        <ele>1370.0200195312</ele>
        <time>2024-09-22T16:31:53.000Z</time>
      </trkpt>
      <trkpt lat="42.70399" lon="19.73062">
        <ele>1369.5400390625</ele>
        <time>2024-09-22T16:31:54.000Z</time>
      </trkpt>
      <trkpt lat="42.70387" lon="19.73133">
        <ele>1366.6500244141</ele>
        <time>2024-09-22T16:32:01.000Z</time>
      </trkpt>
      <trkpt lat="42.70386" lon="19.73142">
        <ele>1366.1700439453</ele>
        <time>2024-09-22T16:32:02.000Z</time>
      </trkpt>
      <trkpt lat="42.70386" lon="19.7315">
        <ele>1365.2099609375</ele>
        <time>2024-09-22T16:32:03.000Z</time>
      </trkpt>
      <trkpt lat="42.70386" lon="19.73171">
        <ele>1363.7700195312</ele>
        <time>2024-09-22T16:32:05.000Z</time>
      </trkpt>
      <trkpt lat="42.70386" lon="19.73205">
        <ele>1361.8399658203</ele>
        <time>2024-09-22T16:32:08.000Z</time>
      </trkpt>
      <trkpt lat="42.70386" lon="19.73207">
        <ele>1361.8399658203</ele>
        <time>2024-09-22T16:32:09.000Z</time>
      </trkpt>
      <trkpt lat="42.70387" lon="19.73235">
        <ele>1360.4000244141</ele>
        <time>2024-09-22T16:32:12.000Z</time>
      </trkpt>
      <trkpt lat="42.70389" lon="19.73248">
        <ele>1359.4399414062</ele>
        <time>2024-09-22T16:32:13.000Z</time>
      </trkpt>
      <trkpt lat="42.7039" lon="19.73257">
        <ele>1358.4799804688</ele>
        <time>2024-09-22T16:32:14.000Z</time>
      </trkpt>
      <trkpt lat="42.70392" lon="19.73264">
        <ele>1358</ele>
        <time>2024-09-22T16:32:15.000Z</time>
      </trkpt>
      <trkpt lat="42.70397" lon="19.7329">
        <ele>1357.0400390625</ele>
        <time>2024-09-22T16:32:17.000Z</time>
      </trkpt>
      <trkpt lat="42.70403" lon="19.7332">
        <ele>1356.5600585938</ele>
        <time>2024-09-22T16:32:20.000Z</time>
      </trkpt>
      <trkpt lat="42.70404" lon="19.73327">
        <ele>1356.5600585938</ele>
        <time>2024-09-22T16:32:21.000Z</time>
      </trkpt>
      <trkpt lat="42.70406" lon="19.73343">
        <ele>1356.0799560547</ele>
        <time>2024-09-22T16:32:22.000Z</time>
      </trkpt>
      <trkpt lat="42.70407" lon="19.73348">
        <ele>1356.0799560547</ele>
        <time>2024-09-22T16:32:23.000Z</time>
      </trkpt>
      <trkpt lat="42.70409" lon="19.73358">
        <ele>1355.5999755859</ele>
        <time>2024-09-22T16:32:24.000Z</time>
      </trkpt>
      <trkpt lat="42.70411" lon="19.73368">
        <ele>1355.1199951172</ele>
        <time>2024-09-22T16:32:25.000Z</time>
      </trkpt>
      <trkpt lat="42.70425" lon="19.73406">
        <ele>1354.1500244141</ele>
        <time>2024-09-22T16:32:28.000Z</time>
      </trkpt>
      <trkpt lat="42.70426" lon="19.73409">
        <ele>1354.1500244141</ele>
        <time>2024-09-22T16:32:29.000Z</time>
      </trkpt>
      <trkpt lat="42.70429" lon="19.7342">
        <ele>1354.1500244141</ele>
        <time>2024-09-22T16:32:30.000Z</time>
      </trkpt>
      <trkpt lat="42.70432" lon="19.73434">
        <ele>1353.6700439453</ele>
        <time>2024-09-22T16:32:31.000Z</time>
      </trkpt>
      <trkpt lat="42.70434" lon="19.73441">
        <ele>1353.6700439453</ele>
        <time>2024-09-22T16:32:32.000Z</time>
      </trkpt>
      <trkpt lat="42.70438" lon="19.73453">
        <ele>1353.6700439453</ele>
        <time>2024-09-22T16:32:33.000Z</time>
      </trkpt>
      <trkpt lat="42.70443" lon="19.73466">
        <ele>1353.1899414062</ele>
        <time>2024-09-22T16:32:34.000Z</time>
      </trkpt>
      <trkpt lat="42.70445" lon="19.7347">
        <ele>1352.7099609375</ele>
        <time>2024-09-22T16:32:35.000Z</time>
      </trkpt>
      <trkpt lat="42.70451" lon="19.73485">
        <ele>1352.2299804688</ele>
        <time>2024-09-22T16:32:36.000Z</time>
      </trkpt>
      <trkpt lat="42.70454" lon="19.73491">
        <ele>1351.75</ele>
        <time>2024-09-22T16:32:37.000Z</time>
      </trkpt>
      <trkpt lat="42.70458" lon="19.73503">
        <ele>1351.2700195312</ele>
        <time>2024-09-22T16:32:38.000Z</time>
      </trkpt>
      <trkpt lat="42.7046" lon="19.73508">
        <ele>1350.7900390625</ele>
        <time>2024-09-22T16:32:39.000Z</time>
      </trkpt>
      <trkpt lat="42.70463" lon="19.7352">
        <ele>1350.3100585938</ele>
        <time>2024-09-22T16:32:40.000Z</time>
      </trkpt>
      <trkpt lat="42.70465" lon="19.73533">
        <ele>1349.8299560547</ele>
        <time>2024-09-22T16:32:41.000Z</time>
      </trkpt>
      <trkpt lat="42.70466" lon="19.73543">
        <ele>1349.8299560547</ele>
        <time>2024-09-22T16:32:42.000Z</time>
      </trkpt>
      <trkpt lat="42.70469" lon="19.73596">
        <ele>1347.9100341797</ele>
        <time>2024-09-22T16:32:47.000Z</time>
      </trkpt>
      <trkpt lat="42.70471" lon="19.73608">
        <ele>1347.4300537109</ele>
        <time>2024-09-22T16:32:48.000Z</time>
      </trkpt>
      <trkpt lat="42.70475" lon="19.73619">
        <ele>1346.4599609375</ele>
        <time>2024-09-22T16:32:49.000Z</time>
      </trkpt>
      <trkpt lat="42.7048" lon="19.73629">
        <ele>1345.9799804688</ele>
        <time>2024-09-22T16:32:50.000Z</time>
      </trkpt>
      <trkpt lat="42.70491" lon="19.73646">
        <ele>1344.5400390625</ele>
        <time>2024-09-22T16:32:52.000Z</time>
      </trkpt>
      <trkpt lat="42.705" lon="19.7366">
        <ele>1344.0600585938</ele>
        <time>2024-09-22T16:32:53.000Z</time>
      </trkpt>
      <trkpt lat="42.70503" lon="19.73664">
        <ele>1343.5799560547</ele>
        <time>2024-09-22T16:32:54.000Z</time>
      </trkpt>
      <trkpt lat="42.70521" lon="19.73686">
        <ele>1342.1400146484</ele>
        <time>2024-09-22T16:32:57.000Z</time>
      </trkpt>
      <trkpt lat="42.70527" lon="19.73694">
        <ele>1341.1800537109</ele>
        <time>2024-09-22T16:32:58.000Z</time>
      </trkpt>
      <trkpt lat="42.7053" lon="19.73703">
        <ele>1340.6999511719</ele>
        <time>2024-09-22T16:32:59.000Z</time>
      </trkpt>
      <trkpt lat="42.70533" lon="19.73713">
        <ele>1340.2199707031</ele>
        <time>2024-09-22T16:33:00.000Z</time>
      </trkpt>
      <trkpt lat="42.7054" lon="19.73731">
        <ele>1339.25</ele>
        <time>2024-09-22T16:33:01.000Z</time>
      </trkpt>
      <trkpt lat="42.70547" lon="19.7375">
        <ele>1338.7700195312</ele>
        <time>2024-09-22T16:33:03.000Z</time>
      </trkpt>
      <trkpt lat="42.70554" lon="19.73772">
        <ele>1338.2900390625</ele>
        <time>2024-09-22T16:33:05.000Z</time>
      </trkpt>
      <trkpt lat="42.70555" lon="19.73775">
        <ele>1338.2900390625</ele>
        <time>2024-09-22T16:33:06.000Z</time>
      </trkpt>
      <trkpt lat="42.70559" lon="19.73784">
        <ele>1337.8100585938</ele>
        <time>2024-09-22T16:33:07.000Z</time>
      </trkpt>
      <trkpt lat="42.70563" lon="19.7379">
        <ele>1337.8100585938</ele>
        <time>2024-09-22T16:33:08.000Z</time>
      </trkpt>
      <trkpt lat="42.70574" lon="19.73798">
        <ele>1337.8100585938</ele>
        <time>2024-09-22T16:33:14.000Z</time>
      </trkpt>
      <trkpt lat="42.70583" lon="19.738">
        <ele>1337.8100585938</ele>
        <time>2024-09-22T16:33:18.000Z</time>
      </trkpt>
      <trkpt lat="42.70588" lon="19.73801">
        <ele>1337.8100585938</ele>
        <time>2024-09-22T16:33:20.000Z</time>
      </trkpt>
      <trkpt lat="42.70595" lon="19.73802">
        <ele>1337.8100585938</ele>
        <time>2024-09-22T16:33:21.000Z</time>
      </trkpt>
      <trkpt lat="42.70598" lon="19.73802">
        <ele>1337.8100585938</ele>
        <time>2024-09-22T16:33:22.000Z</time>
      </trkpt>
      <trkpt lat="42.70603" lon="19.73804">
        <ele>1337.8100585938</ele>
        <time>2024-09-22T16:33:23.000Z</time>
      </trkpt>
      <trkpt lat="42.70612" lon="19.73807">
        <ele>1337.8100585938</ele>
        <time>2024-09-22T16:33:25.000Z</time>
      </trkpt>
      <trkpt lat="42.70616" lon="19.7381">
        <ele>1337.8100585938</ele>
        <time>2024-09-22T16:33:26.000Z</time>
      </trkpt>
      <trkpt lat="42.70622" lon="19.73814">
        <ele>1337.8100585938</ele>
        <time>2024-09-22T16:33:27.000Z</time>
      </trkpt>
      <trkpt lat="42.70625" lon="19.73817">
        <ele>1337.3299560547</ele>
        <time>2024-09-22T16:33:28.000Z</time>
      </trkpt>
      <trkpt lat="42.7063" lon="19.7382">
        <ele>1337.3299560547</ele>
        <time>2024-09-22T16:33:29.000Z</time>
      </trkpt>
      <trkpt lat="42.70639" lon="19.73828">
        <ele>1336.8499755859</ele>
        <time>2024-09-22T16:33:31.000Z</time>
      </trkpt>
      <trkpt lat="42.70642" lon="19.73831">
        <ele>1336.8499755859</ele>
        <time>2024-09-22T16:33:32.000Z</time>
      </trkpt>
      <trkpt lat="42.70668" lon="19.7385">
        <ele>1334.9300537109</ele>
        <time>2024-09-22T16:33:42.000Z</time>
      </trkpt>
      <trkpt lat="42.70685" lon="19.73883">
        <ele>1333.4899902344</ele>
        <time>2024-09-22T16:33:51.000Z</time>
      </trkpt>
      <trkpt lat="42.70711" lon="19.73902">
        <ele>1332.5200195312</ele>
        <time>2024-09-22T16:34:00.000Z</time>
      </trkpt>
      <trkpt lat="42.7073" lon="19.73915">
        <ele>1331.5600585938</ele>
        <time>2024-09-22T16:34:07.000Z</time>
      </trkpt>
      <trkpt lat="42.70732" lon="19.73919">
        <ele>1331.5600585938</ele>
        <time>2024-09-22T16:34:08.000Z</time>
      </trkpt>
      <trkpt lat="42.70736" lon="19.73926">
        <ele>1331.0799560547</ele>
        <time>2024-09-22T16:34:09.000Z</time>
      </trkpt>
      <trkpt lat="42.70738" lon="19.7393">
        <ele>1330.5999755859</ele>
        <time>2024-09-22T16:34:10.000Z</time>
      </trkpt>
      <trkpt lat="42.70742" lon="19.73934">
        <ele>1330.5999755859</ele>
        <time>2024-09-22T16:34:11.000Z</time>
      </trkpt>
      <trkpt lat="42.70745" lon="19.73938">
        <ele>1330.1199951172</ele>
        <time>2024-09-22T16:34:12.000Z</time>
      </trkpt>
      <trkpt lat="42.70748" lon="19.73943">
        <ele>1329.6400146484</ele>
        <time>2024-09-22T16:34:13.000Z</time>
      </trkpt>
      <trkpt lat="42.70752" lon="19.73948">
        <ele>1329.1600341797</ele>
        <time>2024-09-22T16:34:14.000Z</time>
      </trkpt>
      <trkpt lat="42.70756" lon="19.73954">
        <ele>1328.6800537109</ele>
        <time>2024-09-22T16:34:15.000Z</time>
      </trkpt>
      <trkpt lat="42.70758" lon="19.73959">
        <ele>1328.1999511719</ele>
        <time>2024-09-22T16:34:16.000Z</time>
      </trkpt>
      <trkpt lat="42.70761" lon="19.73965">
        <ele>1328.1999511719</ele>
        <time>2024-09-22T16:34:17.000Z</time>
      </trkpt>
      <trkpt lat="42.70764" lon="19.73971">
        <ele>1327.7199707031</ele>
        <time>2024-09-22T16:34:18.000Z</time>
      </trkpt>
      <trkpt lat="42.70766" lon="19.73979">
        <ele>1327.7199707031</ele>
        <time>2024-09-22T16:34:19.000Z</time>
      </trkpt>
      <trkpt lat="42.70768" lon="19.73985">
        <ele>1327.7199707031</ele>
        <time>2024-09-22T16:34:20.000Z</time>
      </trkpt>
      <trkpt lat="42.7077" lon="19.73991">
        <ele>1327.7199707031</ele>
        <time>2024-09-22T16:34:21.000Z</time>
      </trkpt>
      <trkpt lat="42.70773" lon="19.73998">
        <ele>1327.7199707031</ele>
        <time>2024-09-22T16:34:22.000Z</time>
      </trkpt>
      <trkpt lat="42.70776" lon="19.74003">
        <ele>1327.7199707031</ele>
        <time>2024-09-22T16:34:23.000Z</time>
      </trkpt>
      <trkpt lat="42.70803" lon="19.74022">
        <ele>1325.8000488281</ele>
        <time>2024-09-22T16:34:31.000Z</time>
      </trkpt>
      <trkpt lat="42.70806" lon="19.74023">
        <ele>1325.8000488281</ele>
        <time>2024-09-22T16:34:32.000Z</time>
      </trkpt>
      <trkpt lat="42.7081" lon="19.74023">
        <ele>1325.3100585938</ele>
        <time>2024-09-22T16:34:33.000Z</time>
      </trkpt>
      <trkpt lat="42.70813" lon="19.74023">
        <ele>1325.3100585938</ele>
        <time>2024-09-22T16:34:34.000Z</time>
      </trkpt>
      <trkpt lat="42.70817" lon="19.74022">
        <ele>1325.3100585938</ele>
        <time>2024-09-22T16:34:35.000Z</time>
      </trkpt>
      <trkpt lat="42.70824" lon="19.74021">
        <ele>1324.8299560547</ele>
        <time>2024-09-22T16:34:36.000Z</time>
      </trkpt>
      <trkpt lat="42.70826" lon="19.74021">
        <ele>1324.3499755859</ele>
        <time>2024-09-22T16:34:37.000Z</time>
      </trkpt>
      <trkpt lat="42.7083" lon="19.74022">
        <ele>1324.3499755859</ele>
        <time>2024-09-22T16:34:38.000Z</time>
      </trkpt>
      <trkpt lat="42.70834" lon="19.74023">
        <ele>1324.3499755859</ele>
        <time>2024-09-22T16:34:39.000Z</time>
      </trkpt>
      <trkpt lat="42.70838" lon="19.74023">
        <ele>1323.8699951172</ele>
        <time>2024-09-22T16:34:40.000Z</time>
      </trkpt>
      <trkpt lat="42.70842" lon="19.74027">
        <ele>1323.8699951172</ele>
        <time>2024-09-22T16:34:41.000Z</time>
      </trkpt>
      <trkpt lat="42.70845" lon="19.7403">
        <ele>1323.3900146484</ele>
        <time>2024-09-22T16:34:42.000Z</time>
      </trkpt>
      <trkpt lat="42.70847" lon="19.74035">
        <ele>1323.3900146484</ele>
        <time>2024-09-22T16:34:43.000Z</time>
      </trkpt>
      <trkpt lat="42.70849" lon="19.74041">
        <ele>1323.3900146484</ele>
        <time>2024-09-22T16:34:44.000Z</time>
      </trkpt>
      <trkpt lat="42.7085" lon="19.7405">
        <ele>1323.3900146484</ele>
        <time>2024-09-22T16:34:45.000Z</time>
      </trkpt>
      <trkpt lat="42.7085" lon="19.74056">
        <ele>1323.3900146484</ele>
        <time>2024-09-22T16:34:46.000Z</time>
      </trkpt>
      <trkpt lat="42.70858" lon="19.74083">
        <ele>1322.4300537109</ele>
        <time>2024-09-22T16:34:52.000Z</time>
      </trkpt>
      <trkpt lat="42.7086" lon="19.74087">
        <ele>1321.9499511719</ele>
        <time>2024-09-22T16:34:53.000Z</time>
      </trkpt>
      <trkpt lat="42.70863" lon="19.74092">
        <ele>1321.4699707031</ele>
        <time>2024-09-22T16:34:54.000Z</time>
      </trkpt>
      <trkpt lat="42.70866" lon="19.74097">
        <ele>1320.9899902344</ele>
        <time>2024-09-22T16:34:55.000Z</time>
      </trkpt>
      <trkpt lat="42.7087" lon="19.74103">
        <ele>1320.5100097656</ele>
        <time>2024-09-22T16:34:56.000Z</time>
      </trkpt>
      <trkpt lat="42.7088" lon="19.74115">
        <ele>1319.5500488281</ele>
        <time>2024-09-22T16:34:58.000Z</time>
      </trkpt>
      <trkpt lat="42.70888" lon="19.74126">
        <ele>1319.0699462891</ele>
        <time>2024-09-22T16:34:59.000Z</time>
      </trkpt>
      <trkpt lat="42.70895" lon="19.74136">
        <ele>1318.5899658203</ele>
        <time>2024-09-22T16:35:00.000Z</time>
      </trkpt>
      <trkpt lat="42.709" lon="19.74142">
        <ele>1318.0999755859</ele>
        <time>2024-09-22T16:35:01.000Z</time>
      </trkpt>
      <trkpt lat="42.70916" lon="19.7416">
        <ele>1317.1400146484</ele>
        <time>2024-09-22T16:35:03.000Z</time>
      </trkpt>
      <trkpt lat="42.70944" lon="19.74195">
        <ele>1314.2600097656</ele>
        <time>2024-09-22T16:35:07.000Z</time>
      </trkpt>
      <trkpt lat="42.70948" lon="19.742">
        <ele>1314.2600097656</ele>
        <time>2024-09-22T16:35:08.000Z</time>
      </trkpt>
      <trkpt lat="42.70953" lon="19.74209">
        <ele>1313.7800292969</ele>
        <time>2024-09-22T16:35:09.000Z</time>
      </trkpt>
      <trkpt lat="42.70959" lon="19.7422">
        <ele>1313.7800292969</ele>
        <time>2024-09-22T16:35:10.000Z</time>
      </trkpt>
      <trkpt lat="42.70964" lon="19.74232">
        <ele>1313.3000488281</ele>
        <time>2024-09-22T16:35:11.000Z</time>
      </trkpt>
      <trkpt lat="42.70968" lon="19.74246">
        <ele>1313.3000488281</ele>
        <time>2024-09-22T16:35:12.000Z</time>
      </trkpt>
      <trkpt lat="42.7097" lon="19.74252">
        <ele>1313.3000488281</ele>
        <time>2024-09-22T16:35:13.000Z</time>
      </trkpt>
      <trkpt lat="42.70979" lon="19.74272">
        <ele>1312.8199462891</ele>
        <time>2024-09-22T16:35:15.000Z</time>
      </trkpt>
      <trkpt lat="42.70982" lon="19.74283">
        <ele>1312.8199462891</ele>
        <time>2024-09-22T16:35:16.000Z</time>
      </trkpt>
      <trkpt lat="42.70985" lon="19.74293">
        <ele>1312.3399658203</ele>
        <time>2024-09-22T16:35:17.000Z</time>
      </trkpt>
      <trkpt lat="42.70987" lon="19.74308">
        <ele>1312.8199462891</ele>
        <time>2024-09-22T16:35:18.000Z</time>
      </trkpt>
      <trkpt lat="42.70989" lon="19.74316">
        <ele>1312.8199462891</ele>
        <time>2024-09-22T16:35:19.000Z</time>
      </trkpt>
      <trkpt lat="42.70992" lon="19.74326">
        <ele>1312.8199462891</ele>
        <time>2024-09-22T16:35:20.000Z</time>
      </trkpt>
      <trkpt lat="42.70997" lon="19.74337">
        <ele>1312.3399658203</ele>
        <time>2024-09-22T16:35:21.000Z</time>
      </trkpt>
      <trkpt lat="42.71001" lon="19.74346">
        <ele>1312.8199462891</ele>
        <time>2024-09-22T16:35:22.000Z</time>
      </trkpt>
      <trkpt lat="42.71003" lon="19.74354">
        <ele>1312.3399658203</ele>
        <time>2024-09-22T16:35:23.000Z</time>
      </trkpt>
      <trkpt lat="42.71006" lon="19.74365">
        <ele>1313.3000488281</ele>
        <time>2024-09-22T16:35:24.000Z</time>
      </trkpt>
      <trkpt lat="42.71009" lon="19.74374">
        <ele>1313.3000488281</ele>
        <time>2024-09-22T16:35:25.000Z</time>
      </trkpt>
      <trkpt lat="42.71012" lon="19.74382">
        <ele>1313.3000488281</ele>
        <time>2024-09-22T16:35:26.000Z</time>
      </trkpt>
      <trkpt lat="42.71019" lon="19.74397">
        <ele>1313.3000488281</ele>
        <time>2024-09-22T16:35:27.000Z</time>
      </trkpt>
      <trkpt lat="42.71019" lon="19.74398">
        <ele>1313.3000488281</ele>
        <time>2024-09-22T16:35:28.000Z</time>
      </trkpt>
      <trkpt lat="42.71023" lon="19.74405">
        <ele>1312.8199462891</ele>
        <time>2024-09-22T16:35:29.000Z</time>
      </trkpt>
      <trkpt lat="42.71034" lon="19.74419">
        <ele>1311.3800048828</ele>
        <time>2024-09-22T16:35:31.000Z</time>
      </trkpt>
      <trkpt lat="42.71043" lon="19.74429">
        <ele>1310.4100341797</ele>
        <time>2024-09-22T16:35:32.000Z</time>
      </trkpt>
      <trkpt lat="42.71047" lon="19.74434">
        <ele>1310.4100341797</ele>
        <time>2024-09-22T16:35:33.000Z</time>
      </trkpt>
      <trkpt lat="42.71051" lon="19.74442">
        <ele>1309.9300537109</ele>
        <time>2024-09-22T16:35:34.000Z</time>
      </trkpt>
      <trkpt lat="42.71054" lon="19.74451">
        <ele>1309.4499511719</ele>
        <time>2024-09-22T16:35:35.000Z</time>
      </trkpt>
      <trkpt lat="42.71053" lon="19.7446">
        <ele>1309.4499511719</ele>
        <time>2024-09-22T16:35:36.000Z</time>
      </trkpt>
      <trkpt lat="42.71049" lon="19.74485">
        <ele>1310.9000244141</ele>
        <time>2024-09-22T16:35:38.000Z</time>
      </trkpt>
      <trkpt lat="42.71049" lon="19.7449">
        <ele>1310.9000244141</ele>
        <time>2024-09-22T16:35:39.000Z</time>
      </trkpt>
      <trkpt lat="42.71048" lon="19.74499">
        <ele>1311.8599853516</ele>
        <time>2024-09-22T16:35:40.000Z</time>
      </trkpt>
      <trkpt lat="42.71049" lon="19.74508">
        <ele>1311.8599853516</ele>
        <time>2024-09-22T16:35:41.000Z</time>
      </trkpt>
      <trkpt lat="42.71051" lon="19.74516">
        <ele>1311.3800048828</ele>
        <time>2024-09-22T16:35:42.000Z</time>
      </trkpt>
      <trkpt lat="42.71055" lon="19.74524">
        <ele>1311.3800048828</ele>
        <time>2024-09-22T16:35:43.000Z</time>
      </trkpt>
      <trkpt lat="42.71069" lon="19.74543">
        <ele>1309.9300537109</ele>
        <time>2024-09-22T16:35:45.000Z</time>
      </trkpt>
      <trkpt lat="42.71072" lon="19.74547">
        <ele>1309.4499511719</ele>
        <time>2024-09-22T16:35:46.000Z</time>
      </trkpt>
      <trkpt lat="42.71077" lon="19.74552">
        <ele>1308.9699707031</ele>
        <time>2024-09-22T16:35:47.000Z</time>
      </trkpt>
      <trkpt lat="42.71087" lon="19.74561">
        <ele>1308.0100097656</ele>
        <time>2024-09-22T16:35:48.000Z</time>
      </trkpt>
      <trkpt lat="42.71091" lon="19.74564">
        <ele>1307.5300292969</ele>
        <time>2024-09-22T16:35:49.000Z</time>
      </trkpt>
      <trkpt lat="42.71097" lon="19.7457">
        <ele>1307.0500488281</ele>
        <time>2024-09-22T16:35:50.000Z</time>
      </trkpt>
      <trkpt lat="42.71105" lon="19.74577">
        <ele>1306.5699462891</ele>
        <time>2024-09-22T16:35:51.000Z</time>
      </trkpt>
      <trkpt lat="42.71111" lon="19.74584">
        <ele>1305.6099853516</ele>
        <time>2024-09-22T16:35:52.000Z</time>
      </trkpt>
      <trkpt lat="42.71121" lon="19.74594">
        <ele>1304.6500244141</ele>
        <time>2024-09-22T16:35:53.000Z</time>
      </trkpt>
      <trkpt lat="42.71128" lon="19.74602">
        <ele>1303.6899414062</ele>
        <time>2024-09-22T16:35:55.000Z</time>
      </trkpt>
      <trkpt lat="42.71142" lon="19.74614">
        <ele>1302.2399902344</ele>
        <time>2024-09-22T16:35:57.000Z</time>
      </trkpt>
      <trkpt lat="42.7115" lon="19.74624">
        <ele>1301.2800292969</ele>
        <time>2024-09-22T16:35:58.000Z</time>
      </trkpt>
      <trkpt lat="42.71154" lon="19.74629">
        <ele>1300.8000488281</ele>
        <time>2024-09-22T16:35:59.000Z</time>
      </trkpt>
      <trkpt lat="42.71158" lon="19.74637">
        <ele>1300.8000488281</ele>
        <time>2024-09-22T16:36:00.000Z</time>
      </trkpt>
      <trkpt lat="42.71164" lon="19.74647">
        <ele>1300.8000488281</ele>
        <time>2024-09-22T16:36:01.000Z</time>
      </trkpt>
      <trkpt lat="42.7117" lon="19.74658">
        <ele>1300.3199462891</ele>
        <time>2024-09-22T16:36:02.000Z</time>
      </trkpt>
      <trkpt lat="42.71172" lon="19.74661">
        <ele>1300.3199462891</ele>
        <time>2024-09-22T16:36:03.000Z</time>
      </trkpt>
      <trkpt lat="42.71177" lon="19.74671">
        <ele>1299.8399658203</ele>
        <time>2024-09-22T16:36:04.000Z</time>
      </trkpt>
      <trkpt lat="42.71186" lon="19.74693">
        <ele>1298.8800048828</ele>
        <time>2024-09-22T16:36:06.000Z</time>
      </trkpt>
      <trkpt lat="42.7119" lon="19.74704">
        <ele>1298.4000244141</ele>
        <time>2024-09-22T16:36:07.000Z</time>
      </trkpt>
      <trkpt lat="42.71193" lon="19.7471">
        <ele>1297.9200439453</ele>
        <time>2024-09-22T16:36:08.000Z</time>
      </trkpt>
      <trkpt lat="42.71195" lon="19.74718">
        <ele>1297.9200439453</ele>
        <time>2024-09-22T16:36:09.000Z</time>
      </trkpt>
      <trkpt lat="42.71196" lon="19.74729">
        <ele>1298.4000244141</ele>
        <time>2024-09-22T16:36:10.000Z</time>
      </trkpt>
      <trkpt lat="42.71197" lon="19.74744">
        <ele>1299.3599853516</ele>
        <time>2024-09-22T16:36:11.000Z</time>
      </trkpt>
      <trkpt lat="42.71198" lon="19.74757">
        <ele>1300.8000488281</ele>
        <time>2024-09-22T16:36:12.000Z</time>
      </trkpt>
      <trkpt lat="42.712" lon="19.74766">
        <ele>1301.7600097656</ele>
        <time>2024-09-22T16:36:13.000Z</time>
      </trkpt>
      <trkpt lat="42.71203" lon="19.7478">
        <ele>1303.1999511719</ele>
        <time>2024-09-22T16:36:14.000Z</time>
      </trkpt>
      <trkpt lat="42.7122" lon="19.7483">
        <ele>1307.5300292969</ele>
        <time>2024-09-22T16:36:18.000Z</time>
      </trkpt>
      <trkpt lat="42.71224" lon="19.74839">
        <ele>1308.0100097656</ele>
        <time>2024-09-22T16:36:19.000Z</time>
      </trkpt>
      <trkpt lat="42.71227" lon="19.74851">
        <ele>1309.4499511719</ele>
        <time>2024-09-22T16:36:20.000Z</time>
      </trkpt>
      <trkpt lat="42.71234" lon="19.7487">
        <ele>1310.4100341797</ele>
        <time>2024-09-22T16:36:21.000Z</time>
      </trkpt>
      <trkpt lat="42.71236" lon="19.74876">
        <ele>1310.9000244141</ele>
        <time>2024-09-22T16:36:22.000Z</time>
      </trkpt>
      <trkpt lat="42.7124" lon="19.74886">
        <ele>1312.3399658203</ele>
        <time>2024-09-22T16:36:23.000Z</time>
      </trkpt>
      <trkpt lat="42.71242" lon="19.74896">
        <ele>1312.8199462891</ele>
        <time>2024-09-22T16:36:24.000Z</time>
      </trkpt>
      <trkpt lat="42.71243" lon="19.74905">
        <ele>1312.8199462891</ele>
        <time>2024-09-22T16:36:25.000Z</time>
      </trkpt>
      <trkpt lat="42.71244" lon="19.74915">
        <ele>1312.8199462891</ele>
        <time>2024-09-22T16:36:26.000Z</time>
      </trkpt>
      <trkpt lat="42.71244" lon="19.74927">
        <ele>1311.8599853516</ele>
        <time>2024-09-22T16:36:27.000Z</time>
      </trkpt>
      <trkpt lat="42.71246" lon="19.74949">
        <ele>1309.9300537109</ele>
        <time>2024-09-22T16:36:28.000Z</time>
      </trkpt>
      <trkpt lat="42.71247" lon="19.74958">
        <ele>1308.9699707031</ele>
        <time>2024-09-22T16:36:29.000Z</time>
      </trkpt>
      <trkpt lat="42.71247" lon="19.74967">
        <ele>1308.0100097656</ele>
        <time>2024-09-22T16:36:30.000Z</time>
      </trkpt>
      <trkpt lat="42.71247" lon="19.74979">
        <ele>1306.5699462891</ele>
        <time>2024-09-22T16:36:31.000Z</time>
      </trkpt>
      <trkpt lat="42.71245" lon="19.75012">
        <ele>1304.6500244141</ele>
        <time>2024-09-22T16:36:33.000Z</time>
      </trkpt>
      <trkpt lat="42.71245" lon="19.75017">
        <ele>1304.6500244141</ele>
        <time>2024-09-22T16:36:34.000Z</time>
      </trkpt>
      <trkpt lat="42.71245" lon="19.75037">
        <ele>1304.6500244141</ele>
        <time>2024-09-22T16:36:35.000Z</time>
      </trkpt>
      <trkpt lat="42.71244" lon="19.75045">
        <ele>1304.6500244141</ele>
        <time>2024-09-22T16:36:36.000Z</time>
      </trkpt>
      <trkpt lat="42.71244" lon="19.75054">
        <ele>1304.1700439453</ele>
        <time>2024-09-22T16:36:37.000Z</time>
      </trkpt>
      <trkpt lat="42.71242" lon="19.75069">
        <ele>1304.6500244141</ele>
        <time>2024-09-22T16:36:38.000Z</time>
      </trkpt>
      <trkpt lat="42.71242" lon="19.75084">
        <ele>1305.6099853516</ele>
        <time>2024-09-22T16:36:39.000Z</time>
      </trkpt>
      <trkpt lat="42.71242" lon="19.75088">
        <ele>1305.6099853516</ele>
        <time>2024-09-22T16:36:40.000Z</time>
      </trkpt>
      <trkpt lat="42.7124" lon="19.75102">
        <ele>1305.1300048828</ele>
        <time>2024-09-22T16:36:41.000Z</time>
      </trkpt>
      <trkpt lat="42.71238" lon="19.75117">
        <ele>1306.5699462891</ele>
        <time>2024-09-22T16:36:42.000Z</time>
      </trkpt>
      <trkpt lat="42.71237" lon="19.75128">
        <ele>1307.5300292969</ele>
        <time>2024-09-22T16:36:43.000Z</time>
      </trkpt>
      <trkpt lat="42.71237" lon="19.75132">
        <ele>1308.4899902344</ele>
        <time>2024-09-22T16:36:44.000Z</time>
      </trkpt>
      <trkpt lat="42.71238" lon="19.7514">
        <ele>1308.9699707031</ele>
        <time>2024-09-22T16:36:45.000Z</time>
      </trkpt>
      <trkpt lat="42.71241" lon="19.75147">
        <ele>1309.9300537109</ele>
        <time>2024-09-22T16:36:46.000Z</time>
      </trkpt>
      <trkpt lat="42.71245" lon="19.75156">
        <ele>1310.9000244141</ele>
        <time>2024-09-22T16:36:47.000Z</time>
      </trkpt>
      <trkpt lat="42.71248" lon="19.75161">
        <ele>1311.3800048828</ele>
        <time>2024-09-22T16:36:48.000Z</time>
      </trkpt>
      <trkpt lat="42.71251" lon="19.75167">
        <ele>1311.3800048828</ele>
        <time>2024-09-22T16:36:49.000Z</time>
      </trkpt>
      <trkpt lat="42.71253" lon="19.75174">
        <ele>1311.3800048828</ele>
        <time>2024-09-22T16:36:50.000Z</time>
      </trkpt>
      <trkpt lat="42.71255" lon="19.75179">
        <ele>1311.3800048828</ele>
        <time>2024-09-22T16:36:51.000Z</time>
      </trkpt>
      <trkpt lat="42.7126" lon="19.75191">
        <ele>1310.9000244141</ele>
        <time>2024-09-22T16:36:52.000Z</time>
      </trkpt>
      <trkpt lat="42.71261" lon="19.75192">
        <ele>1310.9000244141</ele>
        <time>2024-09-22T16:36:53.000Z</time>
      </trkpt>
      <trkpt lat="42.71264" lon="19.75199">
        <ele>1310.4100341797</ele>
        <time>2024-09-22T16:36:54.000Z</time>
      </trkpt>
      <trkpt lat="42.71268" lon="19.75206">
        <ele>1309.9300537109</ele>
        <time>2024-09-22T16:36:55.000Z</time>
      </trkpt>
      <trkpt lat="42.71279" lon="19.75221">
        <ele>1308.0100097656</ele>
        <time>2024-09-22T16:36:57.000Z</time>
      </trkpt>
      <trkpt lat="42.71281" lon="19.75224">
        <ele>1308.0100097656</ele>
        <time>2024-09-22T16:36:58.000Z</time>
      </trkpt>
      <trkpt lat="42.71284" lon="19.7523">
        <ele>1307.5300292969</ele>
        <time>2024-09-22T16:36:59.000Z</time>
      </trkpt>
      <trkpt lat="42.71286" lon="19.75237">
        <ele>1306.5699462891</ele>
        <time>2024-09-22T16:37:00.000Z</time>
      </trkpt>
      <trkpt lat="42.71287" lon="19.75246">
        <ele>1305.6099853516</ele>
        <time>2024-09-22T16:37:01.000Z</time>
      </trkpt>
      <trkpt lat="42.71287" lon="19.75258">
        <ele>1304.6500244141</ele>
        <time>2024-09-22T16:37:02.000Z</time>
      </trkpt>
      <trkpt lat="42.71287" lon="19.75268">
        <ele>1304.6500244141</ele>
        <time>2024-09-22T16:37:03.000Z</time>
      </trkpt>
      <trkpt lat="42.71288" lon="19.75276">
        <ele>1304.1700439453</ele>
        <time>2024-09-22T16:37:04.000Z</time>
      </trkpt>
      <trkpt lat="42.71294" lon="19.75301">
        <ele>1304.1700439453</ele>
        <time>2024-09-22T16:37:06.000Z</time>
      </trkpt>
      <trkpt lat="42.71297" lon="19.75309">
        <ele>1304.1700439453</ele>
        <time>2024-09-22T16:37:07.000Z</time>
      </trkpt>
      <trkpt lat="42.71302" lon="19.75325">
        <ele>1305.1300048828</ele>
        <time>2024-09-22T16:37:08.000Z</time>
      </trkpt>
      <trkpt lat="42.71303" lon="19.75326">
        <ele>1305.1300048828</ele>
        <time>2024-09-22T16:37:09.000Z</time>
      </trkpt>
      <trkpt lat="42.7131" lon="19.7534">
        <ele>1306.0899658203</ele>
        <time>2024-09-22T16:37:10.000Z</time>
      </trkpt>
      <trkpt lat="42.71316" lon="19.75351">
        <ele>1307.0500488281</ele>
        <time>2024-09-22T16:37:12.000Z</time>
      </trkpt>
      <trkpt lat="42.7132" lon="19.75359">
        <ele>1308.0100097656</ele>
        <time>2024-09-22T16:37:13.000Z</time>
      </trkpt>
      <trkpt lat="42.71326" lon="19.75369">
        <ele>1308.9699707031</ele>
        <time>2024-09-22T16:37:14.000Z</time>
      </trkpt>
      <trkpt lat="42.71343" lon="19.75395">
        <ele>1309.9300537109</ele>
        <time>2024-09-22T16:37:17.000Z</time>
      </trkpt>
      <trkpt lat="42.71361" lon="19.75423">
        <ele>1310.9000244141</ele>
        <time>2024-09-22T16:37:20.000Z</time>
      </trkpt>
      <trkpt lat="42.71365" lon="19.7543">
        <ele>1310.9000244141</ele>
        <time>2024-09-22T16:37:21.000Z</time>
      </trkpt>
      <trkpt lat="42.71371" lon="19.75442">
        <ele>1311.3800048828</ele>
        <time>2024-09-22T16:37:22.000Z</time>
      </trkpt>
      <trkpt lat="42.71376" lon="19.75452">
        <ele>1311.8599853516</ele>
        <time>2024-09-22T16:37:23.000Z</time>
      </trkpt>
      <trkpt lat="42.71381" lon="19.75461">
        <ele>1312.3399658203</ele>
        <time>2024-09-22T16:37:24.000Z</time>
      </trkpt>
      <trkpt lat="42.71388" lon="19.75471">
        <ele>1313.3000488281</ele>
        <time>2024-09-22T16:37:25.000Z</time>
      </trkpt>
      <trkpt lat="42.71394" lon="19.7548">
        <ele>1314.2600097656</ele>
        <time>2024-09-22T16:37:26.000Z</time>
      </trkpt>
      <trkpt lat="42.714" lon="19.75488">
        <ele>1314.7399902344</ele>
        <time>2024-09-22T16:37:27.000Z</time>
      </trkpt>
      <trkpt lat="42.71406" lon="19.75497">
        <ele>1315.2199707031</ele>
        <time>2024-09-22T16:37:28.000Z</time>
      </trkpt>
      <trkpt lat="42.71421" lon="19.75512">
        <ele>1316.1800537109</ele>
        <time>2024-09-22T16:37:30.000Z</time>
      </trkpt>
      <trkpt lat="42.71432" lon="19.75523">
        <ele>1317.6199951172</ele>
        <time>2024-09-22T16:37:31.000Z</time>
      </trkpt>
      <trkpt lat="42.71443" lon="19.75534">
        <ele>1318.0999755859</ele>
        <time>2024-09-22T16:37:33.000Z</time>
      </trkpt>
      <trkpt lat="42.71449" lon="19.75539">
        <ele>1318.0999755859</ele>
        <time>2024-09-22T16:37:34.000Z</time>
      </trkpt>
      <trkpt lat="42.71458" lon="19.75548">
        <ele>1318.5899658203</ele>
        <time>2024-09-22T16:37:35.000Z</time>
      </trkpt>
      <trkpt lat="42.71461" lon="19.75551">
        <ele>1318.5899658203</ele>
        <time>2024-09-22T16:37:36.000Z</time>
      </trkpt>
      <trkpt lat="42.71467" lon="19.75558">
        <ele>1318.5899658203</ele>
        <time>2024-09-22T16:37:37.000Z</time>
      </trkpt>
      <trkpt lat="42.71474" lon="19.75566">
        <ele>1318.5899658203</ele>
        <time>2024-09-22T16:37:38.000Z</time>
      </trkpt>
      <trkpt lat="42.71477" lon="19.75571">
        <ele>1318.0999755859</ele>
        <time>2024-09-22T16:37:39.000Z</time>
      </trkpt>
      <trkpt lat="42.71483" lon="19.75577">
        <ele>1317.6199951172</ele>
        <time>2024-09-22T16:37:40.000Z</time>
      </trkpt>
      <trkpt lat="42.71493" lon="19.75587">
        <ele>1316.1800537109</ele>
        <time>2024-09-22T16:37:41.000Z</time>
      </trkpt>
      <trkpt lat="42.71496" lon="19.75589">
        <ele>1315.6999511719</ele>
        <time>2024-09-22T16:37:42.000Z</time>
      </trkpt>
      <trkpt lat="42.71501" lon="19.75593">
        <ele>1315.6999511719</ele>
        <time>2024-09-22T16:37:43.000Z</time>
      </trkpt>
      <trkpt lat="42.71507" lon="19.75596">
        <ele>1315.2199707031</ele>
        <time>2024-09-22T16:37:44.000Z</time>
      </trkpt>
      <trkpt lat="42.71516" lon="19.75597">
        <ele>1315.2199707031</ele>
        <time>2024-09-22T16:37:45.000Z</time>
      </trkpt>
      <trkpt lat="42.7152" lon="19.75598">
        <ele>1314.7399902344</ele>
        <time>2024-09-22T16:37:46.000Z</time>
      </trkpt>
      <trkpt lat="42.71526" lon="19.75601">
        <ele>1314.2600097656</ele>
        <time>2024-09-22T16:37:47.000Z</time>
      </trkpt>
      <trkpt lat="42.71533" lon="19.75605">
        <ele>1313.7800292969</ele>
        <time>2024-09-22T16:37:48.000Z</time>
      </trkpt>
      <trkpt lat="42.71537" lon="19.75607">
        <ele>1313.7800292969</ele>
        <time>2024-09-22T16:37:49.000Z</time>
      </trkpt>
      <trkpt lat="42.71541" lon="19.75608">
        <ele>1313.7800292969</ele>
        <time>2024-09-22T16:37:50.000Z</time>
      </trkpt>
      <trkpt lat="42.71547" lon="19.75609">
        <ele>1313.7800292969</ele>
        <time>2024-09-22T16:37:51.000Z</time>
      </trkpt>
      <trkpt lat="42.71553" lon="19.7561">
        <ele>1312.8199462891</ele>
        <time>2024-09-22T16:37:52.000Z</time>
      </trkpt>
      <trkpt lat="42.71556" lon="19.75612">
        <ele>1312.8199462891</ele>
        <time>2024-09-22T16:37:53.000Z</time>
      </trkpt>
      <trkpt lat="42.71563" lon="19.75613">
        <ele>1312.8199462891</ele>
        <time>2024-09-22T16:37:54.000Z</time>
      </trkpt>
      <trkpt lat="42.71568" lon="19.75614">
        <ele>1312.8199462891</ele>
        <time>2024-09-22T16:37:55.000Z</time>
      </trkpt>
      <trkpt lat="42.71573" lon="19.75615">
        <ele>1312.8199462891</ele>
        <time>2024-09-22T16:37:56.000Z</time>
      </trkpt>
      <trkpt lat="42.71579" lon="19.75617">
        <ele>1312.3399658203</ele>
        <time>2024-09-22T16:37:57.000Z</time>
      </trkpt>
      <trkpt lat="42.7159" lon="19.75622">
        <ele>1311.8599853516</ele>
        <time>2024-09-22T16:37:58.000Z</time>
      </trkpt>
      <trkpt lat="42.71592" lon="19.75623">
        <ele>1311.8599853516</ele>
        <time>2024-09-22T16:37:59.000Z</time>
      </trkpt>
      <trkpt lat="42.71598" lon="19.75626">
        <ele>1311.3800048828</ele>
        <time>2024-09-22T16:38:00.000Z</time>
      </trkpt>
      <trkpt lat="42.71606" lon="19.7563">
        <ele>1312.8199462891</ele>
        <time>2024-09-22T16:38:01.000Z</time>
      </trkpt>
      <trkpt lat="42.71611" lon="19.75632">
        <ele>1313.3000488281</ele>
        <time>2024-09-22T16:38:02.000Z</time>
      </trkpt>
      <trkpt lat="42.71621" lon="19.75636">
        <ele>1314.2600097656</ele>
        <time>2024-09-22T16:38:03.000Z</time>
      </trkpt>
      <trkpt lat="42.71629" lon="19.7564">
        <ele>1314.7399902344</ele>
        <time>2024-09-22T16:38:04.000Z</time>
      </trkpt>
      <trkpt lat="42.7164" lon="19.75645">
        <ele>1315.2199707031</ele>
        <time>2024-09-22T16:38:06.000Z</time>
      </trkpt>
      <trkpt lat="42.71646" lon="19.75647">
        <ele>1315.6999511719</ele>
        <time>2024-09-22T16:38:07.000Z</time>
      </trkpt>
      <trkpt lat="42.71656" lon="19.75652">
        <ele>1316.6600341797</ele>
        <time>2024-09-22T16:38:08.000Z</time>
      </trkpt>
      <trkpt lat="42.71661" lon="19.75654">
        <ele>1317.6199951172</ele>
        <time>2024-09-22T16:38:09.000Z</time>
      </trkpt>
      <trkpt lat="42.71674" lon="19.7566">
        <ele>1318.5899658203</ele>
        <time>2024-09-22T16:38:10.000Z</time>
      </trkpt>
      <trkpt lat="42.71681" lon="19.75662">
        <ele>1318.0999755859</ele>
        <time>2024-09-22T16:38:11.000Z</time>
      </trkpt>
      <trkpt lat="42.71687" lon="19.75665">
        <ele>1318.5899658203</ele>
        <time>2024-09-22T16:38:12.000Z</time>
      </trkpt>
      <trkpt lat="42.71695" lon="19.75667">
        <ele>1318.5899658203</ele>
        <time>2024-09-22T16:38:13.000Z</time>
      </trkpt>
      <trkpt lat="42.71707" lon="19.7567">
        <ele>1319.0699462891</ele>
        <time>2024-09-22T16:38:14.000Z</time>
      </trkpt>
      <trkpt lat="42.7171" lon="19.75671">
        <ele>1319.0699462891</ele>
        <time>2024-09-22T16:38:15.000Z</time>
      </trkpt>
      <trkpt lat="42.71718" lon="19.75674">
        <ele>1320.0300292969</ele>
        <time>2024-09-22T16:38:16.000Z</time>
      </trkpt>
      <trkpt lat="42.71728" lon="19.75679">
        <ele>1320.0300292969</ele>
        <time>2024-09-22T16:38:17.000Z</time>
      </trkpt>
      <trkpt lat="42.71733" lon="19.75683">
        <ele>1320.0300292969</ele>
        <time>2024-09-22T16:38:18.000Z</time>
      </trkpt>
      <trkpt lat="42.71738" lon="19.75687">
        <ele>1320.5100097656</ele>
        <time>2024-09-22T16:38:19.000Z</time>
      </trkpt>
      <trkpt lat="42.71745" lon="19.75691">
        <ele>1320.5100097656</ele>
        <time>2024-09-22T16:38:20.000Z</time>
      </trkpt>
      <trkpt lat="42.71755" lon="19.75697">
        <ele>1321.4699707031</ele>
        <time>2024-09-22T16:38:21.000Z</time>
      </trkpt>
      <trkpt lat="42.71759" lon="19.75698">
        <ele>1321.9499511719</ele>
        <time>2024-09-22T16:38:22.000Z</time>
      </trkpt>
      <trkpt lat="42.71767" lon="19.75701">
        <ele>1322.9100341797</ele>
        <time>2024-09-22T16:38:23.000Z</time>
      </trkpt>
      <trkpt lat="42.71774" lon="19.75704">
        <ele>1323.3900146484</ele>
        <time>2024-09-22T16:38:24.000Z</time>
      </trkpt>
      <trkpt lat="42.71782" lon="19.75708">
        <ele>1324.3499755859</ele>
        <time>2024-09-22T16:38:25.000Z</time>
      </trkpt>
      <trkpt lat="42.71789" lon="19.75712">
        <ele>1325.3100585938</ele>
        <time>2024-09-22T16:38:26.000Z</time>
      </trkpt>
      <trkpt lat="42.718" lon="19.75719">
        <ele>1327.2399902344</ele>
        <time>2024-09-22T16:38:27.000Z</time>
      </trkpt>
      <trkpt lat="42.71811" lon="19.75724">
        <ele>1329.1600341797</ele>
        <time>2024-09-22T16:38:28.000Z</time>
      </trkpt>
      <trkpt lat="42.71813" lon="19.75725">
        <ele>1329.1600341797</ele>
        <time>2024-09-22T16:38:29.000Z</time>
      </trkpt>
      <trkpt lat="42.71821" lon="19.75729">
        <ele>1329.6400146484</ele>
        <time>2024-09-22T16:38:30.000Z</time>
      </trkpt>
      <trkpt lat="42.71831" lon="19.75735">
        <ele>1330.5999755859</ele>
        <time>2024-09-22T16:38:31.000Z</time>
      </trkpt>
      <trkpt lat="42.71835" lon="19.75737">
        <ele>1331.0799560547</ele>
        <time>2024-09-22T16:38:32.000Z</time>
      </trkpt>
      <trkpt lat="42.71843" lon="19.75741">
        <ele>1332.5200195312</ele>
        <time>2024-09-22T16:38:33.000Z</time>
      </trkpt>
      <trkpt lat="42.71852" lon="19.75744">
        <ele>1333.9699707031</ele>
        <time>2024-09-22T16:38:34.000Z</time>
      </trkpt>
      <trkpt lat="42.71859" lon="19.75746">
        <ele>1334.4499511719</ele>
        <time>2024-09-22T16:38:35.000Z</time>
      </trkpt>
      <trkpt lat="42.71867" lon="19.75748">
        <ele>1335.8900146484</ele>
        <time>2024-09-22T16:38:36.000Z</time>
      </trkpt>
      <trkpt lat="42.71875" lon="19.75751">
        <ele>1336.8499755859</ele>
        <time>2024-09-22T16:38:37.000Z</time>
      </trkpt>
      <trkpt lat="42.71883" lon="19.75755">
        <ele>1337.8100585938</ele>
        <time>2024-09-22T16:38:38.000Z</time>
      </trkpt>
      <trkpt lat="42.71891" lon="19.75759">
        <ele>1337.8100585938</ele>
        <time>2024-09-22T16:38:39.000Z</time>
      </trkpt>
      <trkpt lat="42.71908" lon="19.75768">
        <ele>1338.7700195312</ele>
        <time>2024-09-22T16:38:41.000Z</time>
      </trkpt>
      <trkpt lat="42.71913" lon="19.75771">
        <ele>1338.7700195312</ele>
        <time>2024-09-22T16:38:42.000Z</time>
      </trkpt>
      <trkpt lat="42.71919" lon="19.75774">
        <ele>1338.7700195312</ele>
        <time>2024-09-22T16:38:43.000Z</time>
      </trkpt>
      <trkpt lat="42.71926" lon="19.7578">
        <ele>1338.2900390625</ele>
        <time>2024-09-22T16:38:44.000Z</time>
      </trkpt>
      <trkpt lat="42.71932" lon="19.75785">
        <ele>1338.2900390625</ele>
        <time>2024-09-22T16:38:45.000Z</time>
      </trkpt>
      <trkpt lat="42.71943" lon="19.7579">
        <ele>1338.2900390625</ele>
        <time>2024-09-22T16:38:46.000Z</time>
      </trkpt>
      <trkpt lat="42.71947" lon="19.75792">
        <ele>1338.7700195312</ele>
        <time>2024-09-22T16:38:47.000Z</time>
      </trkpt>
      <trkpt lat="42.71957" lon="19.75796">
        <ele>1339.25</ele>
        <time>2024-09-22T16:38:48.000Z</time>
      </trkpt>
      <trkpt lat="42.71965" lon="19.75799">
        <ele>1338.7700195312</ele>
        <time>2024-09-22T16:38:49.000Z</time>
      </trkpt>
      <trkpt lat="42.71969" lon="19.75801">
        <ele>1338.7700195312</ele>
        <time>2024-09-22T16:38:50.000Z</time>
      </trkpt>
      <trkpt lat="42.71977" lon="19.75803">
        <ele>1339.25</ele>
        <time>2024-09-22T16:38:51.000Z</time>
      </trkpt>
      <trkpt lat="42.71985" lon="19.75803">
        <ele>1339.7299804688</ele>
        <time>2024-09-22T16:38:52.000Z</time>
      </trkpt>
      <trkpt lat="42.71993" lon="19.75802">
        <ele>1340.6999511719</ele>
        <time>2024-09-22T16:38:53.000Z</time>
      </trkpt>
      <trkpt lat="42.72008" lon="19.75798">
        <ele>1340.2199707031</ele>
        <time>2024-09-22T16:38:55.000Z</time>
      </trkpt>
      <trkpt lat="42.72015" lon="19.75794">
        <ele>1339.25</ele>
        <time>2024-09-22T16:38:56.000Z</time>
      </trkpt>
      <trkpt lat="42.72022" lon="19.75787">
        <ele>1338.2900390625</ele>
        <time>2024-09-22T16:38:57.000Z</time>
      </trkpt>
      <trkpt lat="42.72029" lon="19.75782">
        <ele>1337.8100585938</ele>
        <time>2024-09-22T16:38:58.000Z</time>
      </trkpt>
      <trkpt lat="42.72036" lon="19.75777">
        <ele>1337.3299560547</ele>
        <time>2024-09-22T16:38:59.000Z</time>
      </trkpt>
      <trkpt lat="42.72042" lon="19.75773">
        <ele>1336.8499755859</ele>
        <time>2024-09-22T16:39:00.000Z</time>
      </trkpt>
      <trkpt lat="42.72047" lon="19.7577">
        <ele>1335.8900146484</ele>
        <time>2024-09-22T16:39:01.000Z</time>
      </trkpt>
      <trkpt lat="42.72054" lon="19.75764">
        <ele>1334.9300537109</ele>
        <time>2024-09-22T16:39:02.000Z</time>
      </trkpt>
      <trkpt lat="42.7206" lon="19.7576">
        <ele>1334.4499511719</ele>
        <time>2024-09-22T16:39:03.000Z</time>
      </trkpt>
      <trkpt lat="42.72066" lon="19.75756">
        <ele>1333.4899902344</ele>
        <time>2024-09-22T16:39:04.000Z</time>
      </trkpt>
      <trkpt lat="42.72073" lon="19.75753">
        <ele>1332.5200195312</ele>
        <time>2024-09-22T16:39:05.000Z</time>
      </trkpt>
      <trkpt lat="42.72082" lon="19.75751">
        <ele>1331.5600585938</ele>
        <time>2024-09-22T16:39:06.000Z</time>
      </trkpt>
      <trkpt lat="42.7209" lon="19.75752">
        <ele>1330.5999755859</ele>
        <time>2024-09-22T16:39:07.000Z</time>
      </trkpt>
      <trkpt lat="42.72096" lon="19.75753">
        <ele>1329.1600341797</ele>
        <time>2024-09-22T16:39:08.000Z</time>
      </trkpt>
      <trkpt lat="42.72103" lon="19.75757">
        <ele>1328.1999511719</ele>
        <time>2024-09-22T16:39:09.000Z</time>
      </trkpt>
      <trkpt lat="42.72108" lon="19.75761">
        <ele>1327.2399902344</ele>
        <time>2024-09-22T16:39:10.000Z</time>
      </trkpt>
      <trkpt lat="42.72116" lon="19.75766">
        <ele>1325.3100585938</ele>
        <time>2024-09-22T16:39:11.000Z</time>
      </trkpt>
      <trkpt lat="42.72122" lon="19.7577">
        <ele>1324.3499755859</ele>
        <time>2024-09-22T16:39:12.000Z</time>
      </trkpt>
      <trkpt lat="42.72139" lon="19.75778">
        <ele>1321.4699707031</ele>
        <time>2024-09-22T16:39:14.000Z</time>
      </trkpt>
      <trkpt lat="42.72146" lon="19.75783">
        <ele>1320.5100097656</ele>
        <time>2024-09-22T16:39:15.000Z</time>
      </trkpt>
      <trkpt lat="42.72151" lon="19.75786">
        <ele>1319.5500488281</ele>
        <time>2024-09-22T16:39:16.000Z</time>
      </trkpt>
      <trkpt lat="42.72158" lon="19.75793">
        <ele>1318.0999755859</ele>
        <time>2024-09-22T16:39:17.000Z</time>
      </trkpt>
      <trkpt lat="42.72165" lon="19.75801">
        <ele>1316.6600341797</ele>
        <time>2024-09-22T16:39:18.000Z</time>
      </trkpt>
      <trkpt lat="42.7217" lon="19.75806">
        <ele>1315.6999511719</ele>
        <time>2024-09-22T16:39:19.000Z</time>
      </trkpt>
      <trkpt lat="42.72175" lon="19.75813">
        <ele>1314.7399902344</ele>
        <time>2024-09-22T16:39:20.000Z</time>
      </trkpt>
      <trkpt lat="42.72179" lon="19.75822">
        <ele>1313.3000488281</ele>
        <time>2024-09-22T16:39:21.000Z</time>
      </trkpt>
      <trkpt lat="42.72183" lon="19.7583">
        <ele>1311.8599853516</ele>
        <time>2024-09-22T16:39:22.000Z</time>
      </trkpt>
      <trkpt lat="42.72186" lon="19.75842">
        <ele>1310.4100341797</ele>
        <time>2024-09-22T16:39:23.000Z</time>
      </trkpt>
      <trkpt lat="42.72188" lon="19.7585">
        <ele>1309.4499511719</ele>
        <time>2024-09-22T16:39:24.000Z</time>
      </trkpt>
      <trkpt lat="42.72189" lon="19.75863">
        <ele>1307.5300292969</ele>
        <time>2024-09-22T16:39:25.000Z</time>
      </trkpt>
      <trkpt lat="42.7219" lon="19.75872">
        <ele>1306.5699462891</ele>
        <time>2024-09-22T16:39:26.000Z</time>
      </trkpt>
      <trkpt lat="42.7219" lon="19.75885">
        <ele>1304.6500244141</ele>
        <time>2024-09-22T16:39:27.000Z</time>
      </trkpt>
      <trkpt lat="42.7219" lon="19.75901">
        <ele>1302.2399902344</ele>
        <time>2024-09-22T16:39:28.000Z</time>
      </trkpt>
      <trkpt lat="42.7219" lon="19.75911">
        <ele>1301.2800292969</ele>
        <time>2024-09-22T16:39:29.000Z</time>
      </trkpt>
      <trkpt lat="42.72191" lon="19.75931">
        <ele>1298.8800048828</ele>
        <time>2024-09-22T16:39:31.000Z</time>
      </trkpt>
      <trkpt lat="42.7219" lon="19.75942">
        <ele>1297.4399414062</ele>
        <time>2024-09-22T16:39:32.000Z</time>
      </trkpt>
      <trkpt lat="42.72188" lon="19.7595">
        <ele>1295.9899902344</ele>
        <time>2024-09-22T16:39:33.000Z</time>
      </trkpt>
      <trkpt lat="42.72185" lon="19.75959">
        <ele>1294.0699462891</ele>
        <time>2024-09-22T16:39:34.000Z</time>
      </trkpt>
      <trkpt lat="42.72181" lon="19.75969">
        <ele>1292.1500244141</ele>
        <time>2024-09-22T16:39:35.000Z</time>
      </trkpt>
      <trkpt lat="42.72177" lon="19.75979">
        <ele>1290.7099609375</ele>
        <time>2024-09-22T16:39:36.000Z</time>
      </trkpt>
      <trkpt lat="42.72176" lon="19.7599">
        <ele>1289.75</ele>
        <time>2024-09-22T16:39:37.000Z</time>
      </trkpt>
      <trkpt lat="42.72176" lon="19.76003">
        <ele>1288.3000488281</ele>
        <time>2024-09-22T16:39:38.000Z</time>
      </trkpt>
      <trkpt lat="42.72177" lon="19.76013">
        <ele>1287.3399658203</ele>
        <time>2024-09-22T16:39:39.000Z</time>
      </trkpt>
      <trkpt lat="42.72178" lon="19.76026">
        <ele>1285.9000244141</ele>
        <time>2024-09-22T16:39:40.000Z</time>
      </trkpt>
      <trkpt lat="42.72179" lon="19.76035">
        <ele>1284.9399414062</ele>
        <time>2024-09-22T16:39:41.000Z</time>
      </trkpt>
      <trkpt lat="42.72182" lon="19.76047">
        <ele>1283.5</ele>
        <time>2024-09-22T16:39:42.000Z</time>
      </trkpt>
      <trkpt lat="42.72185" lon="19.76057">
        <ele>1282.5400390625</ele>
        <time>2024-09-22T16:39:43.000Z</time>
      </trkpt>
      <trkpt lat="42.72188" lon="19.76063">
        <ele>1281.5699462891</ele>
        <time>2024-09-22T16:39:44.000Z</time>
      </trkpt>
      <trkpt lat="42.72192" lon="19.76073">
        <ele>1280.1300048828</ele>
        <time>2024-09-22T16:39:45.000Z</time>
      </trkpt>
      <trkpt lat="42.72193" lon="19.7608">
        <ele>1279.1700439453</ele>
        <time>2024-09-22T16:39:46.000Z</time>
      </trkpt>
      <trkpt lat="42.72194" lon="19.76091">
        <ele>1277.25</ele>
        <time>2024-09-22T16:39:47.000Z</time>
      </trkpt>
      <trkpt lat="42.72194" lon="19.76097">
        <ele>1276.2900390625</ele>
        <time>2024-09-22T16:39:48.000Z</time>
      </trkpt>
      <trkpt lat="42.72193" lon="19.76105">
        <ele>1274.8499755859</ele>
        <time>2024-09-22T16:39:49.000Z</time>
      </trkpt>
      <trkpt lat="42.7219" lon="19.76112">
        <ele>1273.8800048828</ele>
        <time>2024-09-22T16:39:50.000Z</time>
      </trkpt>
      <trkpt lat="42.72186" lon="19.76127">
        <ele>1271.9599609375</ele>
        <time>2024-09-22T16:39:52.000Z</time>
      </trkpt>
      <trkpt lat="42.72182" lon="19.7614">
        <ele>1270.0400390625</ele>
        <time>2024-09-22T16:39:53.000Z</time>
      </trkpt>
      <trkpt lat="42.7218" lon="19.76144">
        <ele>1269.0799560547</ele>
        <time>2024-09-22T16:39:54.000Z</time>
      </trkpt>
      <trkpt lat="42.72177" lon="19.76151">
        <ele>1268.1199951172</ele>
        <time>2024-09-22T16:39:55.000Z</time>
      </trkpt>
      <trkpt lat="42.72174" lon="19.76159">
        <ele>1267.1600341797</ele>
        <time>2024-09-22T16:39:56.000Z</time>
      </trkpt>
      <trkpt lat="42.72171" lon="19.76166">
        <ele>1265.7099609375</ele>
        <time>2024-09-22T16:39:57.000Z</time>
      </trkpt>
      <trkpt lat="42.72166" lon="19.76172">
        <ele>1264.2700195312</ele>
        <time>2024-09-22T16:39:58.000Z</time>
      </trkpt>
      <trkpt lat="42.72155" lon="19.76183">
        <ele>1261.8699951172</ele>
        <time>2024-09-22T16:39:59.000Z</time>
      </trkpt>
      <trkpt lat="42.72153" lon="19.76186">
        <ele>1261.3900146484</ele>
        <time>2024-09-22T16:40:00.000Z</time>
      </trkpt>
      <trkpt lat="42.7215" lon="19.7619">
        <ele>1260.9100341797</ele>
        <time>2024-09-22T16:40:01.000Z</time>
      </trkpt>
      <trkpt lat="42.72146" lon="19.76197">
        <ele>1259.4599609375</ele>
        <time>2024-09-22T16:40:02.000Z</time>
      </trkpt>
      <trkpt lat="42.7214" lon="19.76208">
        <ele>1257.0600585938</ele>
        <time>2024-09-22T16:40:03.000Z</time>
      </trkpt>
      <trkpt lat="42.72137" lon="19.76211">
        <ele>1256.0999755859</ele>
        <time>2024-09-22T16:40:04.000Z</time>
      </trkpt>
      <trkpt lat="42.72132" lon="19.76217">
        <ele>1254.6600341797</ele>
        <time>2024-09-22T16:40:05.000Z</time>
      </trkpt>
      <trkpt lat="42.72124" lon="19.76226">
        <ele>1252.7399902344</ele>
        <time>2024-09-22T16:40:06.000Z</time>
      </trkpt>
      <trkpt lat="42.72118" lon="19.76232">
        <ele>1251.2900390625</ele>
        <time>2024-09-22T16:40:07.000Z</time>
      </trkpt>
      <trkpt lat="42.7211" lon="19.76239">
        <ele>1249.8499755859</ele>
        <time>2024-09-22T16:40:08.000Z</time>
      </trkpt>
      <trkpt lat="42.72109" lon="19.76241">
        <ele>1249.3699951172</ele>
        <time>2024-09-22T16:40:09.000Z</time>
      </trkpt>
      <trkpt lat="42.72105" lon="19.76247">
        <ele>1248.8900146484</ele>
        <time>2024-09-22T16:40:10.000Z</time>
      </trkpt>
      <trkpt lat="42.72108" lon="19.7626">
        <ele>1248.8900146484</ele>
        <time>2024-09-22T16:40:13.000Z</time>
      </trkpt>
      <trkpt lat="42.72113" lon="19.76261">
        <ele>1248.4100341797</ele>
        <time>2024-09-22T16:40:14.000Z</time>
      </trkpt>
      <trkpt lat="42.72118" lon="19.7626">
        <ele>1248.4100341797</ele>
        <time>2024-09-22T16:40:15.000Z</time>
      </trkpt>
      <trkpt lat="42.72123" lon="19.76261">
        <ele>1248.4100341797</ele>
        <time>2024-09-22T16:40:16.000Z</time>
      </trkpt>
      <trkpt lat="42.72128" lon="19.76263">
        <ele>1247.9300537109</ele>
        <time>2024-09-22T16:40:17.000Z</time>
      </trkpt>
      <trkpt lat="42.72132" lon="19.76268">
        <ele>1247.9300537109</ele>
        <time>2024-09-22T16:40:18.000Z</time>
      </trkpt>
      <trkpt lat="42.72136" lon="19.76275">
        <ele>1247.4499511719</ele>
        <time>2024-09-22T16:40:19.000Z</time>
      </trkpt>
      <trkpt lat="42.72141" lon="19.7628">
        <ele>1247.4499511719</ele>
        <time>2024-09-22T16:40:20.000Z</time>
      </trkpt>
      <trkpt lat="42.72146" lon="19.76284">
        <ele>1246.9699707031</ele>
        <time>2024-09-22T16:40:21.000Z</time>
      </trkpt>
      <trkpt lat="42.72151" lon="19.76286">
        <ele>1246.4899902344</ele>
        <time>2024-09-22T16:40:22.000Z</time>
      </trkpt>
      <trkpt lat="42.72158" lon="19.76286">
        <ele>1246.4899902344</ele>
        <time>2024-09-22T16:40:23.000Z</time>
      </trkpt>
      <trkpt lat="42.72165" lon="19.76285">
        <ele>1246.0100097656</ele>
        <time>2024-09-22T16:40:24.000Z</time>
      </trkpt>
      <trkpt lat="42.72169" lon="19.76283">
        <ele>1246.0100097656</ele>
        <time>2024-09-22T16:40:25.000Z</time>
      </trkpt>
      <trkpt lat="42.72175" lon="19.76279">
        <ele>1245.5300292969</ele>
        <time>2024-09-22T16:40:26.000Z</time>
      </trkpt>
      <trkpt lat="42.72181" lon="19.76276">
        <ele>1245.5300292969</ele>
        <time>2024-09-22T16:40:27.000Z</time>
      </trkpt>
      <trkpt lat="42.72187" lon="19.76271">
        <ele>1245.5300292969</ele>
        <time>2024-09-22T16:40:28.000Z</time>
      </trkpt>
      <trkpt lat="42.72199" lon="19.76264">
        <ele>1245.0400390625</ele>
        <time>2024-09-22T16:40:29.000Z</time>
      </trkpt>
      <trkpt lat="42.72201" lon="19.76262">
        <ele>1245.0400390625</ele>
        <time>2024-09-22T16:40:30.000Z</time>
      </trkpt>
      <trkpt lat="42.72207" lon="19.76257">
        <ele>1245.0400390625</ele>
        <time>2024-09-22T16:40:31.000Z</time>
      </trkpt>
      <trkpt lat="42.72213" lon="19.7625">
        <ele>1244.5600585938</ele>
        <time>2024-09-22T16:40:32.000Z</time>
      </trkpt>
      <trkpt lat="42.72217" lon="19.76244">
        <ele>1244.0799560547</ele>
        <time>2024-09-22T16:40:33.000Z</time>
      </trkpt>
      <trkpt lat="42.72223" lon="19.76235">
        <ele>1243.1199951172</ele>
        <time>2024-09-22T16:40:34.000Z</time>
      </trkpt>
      <trkpt lat="42.7223" lon="19.76227">
        <ele>1242.6400146484</ele>
        <time>2024-09-22T16:40:35.000Z</time>
      </trkpt>
      <trkpt lat="42.72236" lon="19.7622">
        <ele>1242.6400146484</ele>
        <time>2024-09-22T16:40:36.000Z</time>
      </trkpt>
      <trkpt lat="42.7224" lon="19.76216">
        <ele>1242.1600341797</ele>
        <time>2024-09-22T16:40:37.000Z</time>
      </trkpt>
      <trkpt lat="42.72246" lon="19.76212">
        <ele>1242.1600341797</ele>
        <time>2024-09-22T16:40:38.000Z</time>
      </trkpt>
      <trkpt lat="42.72253" lon="19.7621">
        <ele>1241.6800537109</ele>
        <time>2024-09-22T16:40:39.000Z</time>
      </trkpt>
      <trkpt lat="42.7226" lon="19.76206">
        <ele>1241.1999511719</ele>
        <time>2024-09-22T16:40:40.000Z</time>
      </trkpt>
      <trkpt lat="42.72271" lon="19.76201">
        <ele>1240.7199707031</ele>
        <time>2024-09-22T16:40:41.000Z</time>
      </trkpt>
      <trkpt lat="42.72281" lon="19.76196">
        <ele>1239.7600097656</ele>
        <time>2024-09-22T16:40:42.000Z</time>
      </trkpt>
      <trkpt lat="42.72282" lon="19.76195">
        <ele>1239.2800292969</ele>
        <time>2024-09-22T16:40:43.000Z</time>
      </trkpt>
      <trkpt lat="42.7229" lon="19.76193">
        <ele>1238.8000488281</ele>
        <time>2024-09-22T16:40:44.000Z</time>
      </trkpt>
      <trkpt lat="42.72298" lon="19.76189">
        <ele>1237.8299560547</ele>
        <time>2024-09-22T16:40:45.000Z</time>
      </trkpt>
      <trkpt lat="42.72309" lon="19.76184">
        <ele>1237.3499755859</ele>
        <time>2024-09-22T16:40:46.000Z</time>
      </trkpt>
      <trkpt lat="42.72313" lon="19.76183">
        <ele>1236.8699951172</ele>
        <time>2024-09-22T16:40:47.000Z</time>
      </trkpt>
      <trkpt lat="42.72317" lon="19.76181">
        <ele>1236.8699951172</ele>
        <time>2024-09-22T16:40:48.000Z</time>
      </trkpt>
      <trkpt lat="42.72323" lon="19.76181">
        <ele>1235.9100341797</ele>
        <time>2024-09-22T16:40:49.000Z</time>
      </trkpt>
      <trkpt lat="42.72327" lon="19.76183">
        <ele>1235.4300537109</ele>
        <time>2024-09-22T16:40:50.000Z</time>
      </trkpt>
      <trkpt lat="42.72333" lon="19.7619">
        <ele>1233.9899902344</ele>
        <time>2024-09-22T16:40:51.000Z</time>
      </trkpt>
      <trkpt lat="42.72334" lon="19.76192">
        <ele>1233.9899902344</ele>
        <time>2024-09-22T16:40:52.000Z</time>
      </trkpt>
      <trkpt lat="42.72337" lon="19.76199">
        <ele>1233.0300292969</ele>
        <time>2024-09-22T16:40:53.000Z</time>
      </trkpt>
      <trkpt lat="42.72338" lon="19.76206">
        <ele>1232.5500488281</ele>
        <time>2024-09-22T16:40:54.000Z</time>
      </trkpt>
      <trkpt lat="42.72337" lon="19.76213">
        <ele>1231.5899658203</ele>
        <time>2024-09-22T16:40:55.000Z</time>
      </trkpt>
      <trkpt lat="42.72333" lon="19.7622">
        <ele>1230.6199951172</ele>
        <time>2024-09-22T16:40:56.000Z</time>
      </trkpt>
      <trkpt lat="42.72328" lon="19.76226">
        <ele>1229.1800537109</ele>
        <time>2024-09-22T16:40:57.000Z</time>
      </trkpt>
      <trkpt lat="42.72321" lon="19.76233">
        <ele>1227.7399902344</ele>
        <time>2024-09-22T16:40:58.000Z</time>
      </trkpt>
      <trkpt lat="42.7231" lon="19.76244">
        <ele>1225.8199462891</ele>
        <time>2024-09-22T16:40:59.000Z</time>
      </trkpt>
      <trkpt lat="42.72306" lon="19.76247">
        <ele>1225.3399658203</ele>
        <time>2024-09-22T16:41:00.000Z</time>
      </trkpt>
      <trkpt lat="42.72302" lon="19.76254">
        <ele>1224.3800048828</ele>
        <time>2024-09-22T16:41:01.000Z</time>
      </trkpt>
      <trkpt lat="42.72296" lon="19.76262">
        <ele>1222.9300537109</ele>
        <time>2024-09-22T16:41:02.000Z</time>
      </trkpt>
      <trkpt lat="42.72291" lon="19.76272">
        <ele>1221.0100097656</ele>
        <time>2024-09-22T16:41:03.000Z</time>
      </trkpt>
      <trkpt lat="42.72283" lon="19.76287">
        <ele>1219.5699462891</ele>
        <time>2024-09-22T16:41:04.000Z</time>
      </trkpt>
      <trkpt lat="42.72276" lon="19.76302">
        <ele>1216.6899414062</ele>
        <time>2024-09-22T16:41:06.000Z</time>
      </trkpt>
      <trkpt lat="42.72269" lon="19.76313">
        <ele>1214.2800292969</ele>
        <time>2024-09-22T16:41:08.000Z</time>
      </trkpt>
      <trkpt lat="42.72265" lon="19.76321">
        <ele>1212.3599853516</ele>
        <time>2024-09-22T16:41:09.000Z</time>
      </trkpt>
      <trkpt lat="42.72259" lon="19.76332">
        <ele>1210.4399414062</ele>
        <time>2024-09-22T16:41:10.000Z</time>
      </trkpt>
      <trkpt lat="42.72254" lon="19.76343">
        <ele>1209</ele>
        <time>2024-09-22T16:41:11.000Z</time>
      </trkpt>
      <trkpt lat="42.72252" lon="19.76348">
        <ele>1208.5100097656</ele>
        <time>2024-09-22T16:41:12.000Z</time>
      </trkpt>
      <trkpt lat="42.72248" lon="19.7636">
        <ele>1207.5500488281</ele>
        <time>2024-09-22T16:41:13.000Z</time>
      </trkpt>
      <trkpt lat="42.72246" lon="19.76369">
        <ele>1206.5899658203</ele>
        <time>2024-09-22T16:41:14.000Z</time>
      </trkpt>
      <trkpt lat="42.72239" lon="19.76383">
        <ele>1204.6700439453</ele>
        <time>2024-09-22T16:41:15.000Z</time>
      </trkpt>
      <trkpt lat="42.72237" lon="19.76387">
        <ele>1204.1899414062</ele>
        <time>2024-09-22T16:41:16.000Z</time>
      </trkpt>
      <trkpt lat="42.72233" lon="19.76395">
        <ele>1202.75</ele>
        <time>2024-09-22T16:41:17.000Z</time>
      </trkpt>
      <trkpt lat="42.72228" lon="19.76402">
        <ele>1201.3000488281</ele>
        <time>2024-09-22T16:41:18.000Z</time>
      </trkpt>
      <trkpt lat="42.72216" lon="19.76416">
        <ele>1197.9399414062</ele>
        <time>2024-09-22T16:41:20.000Z</time>
      </trkpt>
      <trkpt lat="42.72213" lon="19.76421">
        <ele>1196.9799804688</ele>
        <time>2024-09-22T16:41:21.000Z</time>
      </trkpt>
      <trkpt lat="42.72206" lon="19.76433">
        <ele>1194.5799560547</ele>
        <time>2024-09-22T16:41:22.000Z</time>
      </trkpt>
      <trkpt lat="42.72199" lon="19.76445">
        <ele>1192.1700439453</ele>
        <time>2024-09-22T16:41:23.000Z</time>
      </trkpt>
      <trkpt lat="42.72195" lon="19.76453">
        <ele>1190.7299804688</ele>
        <time>2024-09-22T16:41:24.000Z</time>
      </trkpt>
      <trkpt lat="42.72182" lon="19.76469">
        <ele>1187.3699951172</ele>
        <time>2024-09-22T16:41:26.000Z</time>
      </trkpt>
      <trkpt lat="42.72174" lon="19.76478">
        <ele>1185.9200439453</ele>
        <time>2024-09-22T16:41:27.000Z</time>
      </trkpt>
      <trkpt lat="42.72166" lon="19.76485">
        <ele>1184.4799804688</ele>
        <time>2024-09-22T16:41:28.000Z</time>
      </trkpt>
      <trkpt lat="42.72159" lon="19.76489">
        <ele>1184</ele>
        <time>2024-09-22T16:41:29.000Z</time>
      </trkpt>
      <trkpt lat="42.72151" lon="19.76491">
        <ele>1182.5600585938</ele>
        <time>2024-09-22T16:41:30.000Z</time>
      </trkpt>
      <trkpt lat="42.72142" lon="19.76491">
        <ele>1182.0799560547</ele>
        <time>2024-09-22T16:41:31.000Z</time>
      </trkpt>
      <trkpt lat="42.72139" lon="19.76492">
        <ele>1181.5999755859</ele>
        <time>2024-09-22T16:41:32.000Z</time>
      </trkpt>
      <trkpt lat="42.72135" lon="19.76494">
        <ele>1181.1199951172</ele>
        <time>2024-09-22T16:41:33.000Z</time>
      </trkpt>
      <trkpt lat="42.72127" lon="19.76508">
        <ele>1179.6700439453</ele>
        <time>2024-09-22T16:41:36.000Z</time>
      </trkpt>
      <trkpt lat="42.72125" lon="19.76514">
        <ele>1179.6700439453</ele>
        <time>2024-09-22T16:41:37.000Z</time>
      </trkpt>
      <trkpt lat="42.72122" lon="19.7652">
        <ele>1179.1899414062</ele>
        <time>2024-09-22T16:41:38.000Z</time>
      </trkpt>
      <trkpt lat="42.72118" lon="19.76526">
        <ele>1179.6700439453</ele>
        <time>2024-09-22T16:41:39.000Z</time>
      </trkpt>
      <trkpt lat="42.72115" lon="19.76532">
        <ele>1180.1600341797</ele>
        <time>2024-09-22T16:41:40.000Z</time>
      </trkpt>
      <trkpt lat="42.72111" lon="19.76539">
        <ele>1180.6400146484</ele>
        <time>2024-09-22T16:41:41.000Z</time>
      </trkpt>
      <trkpt lat="42.72107" lon="19.76547">
        <ele>1180.6400146484</ele>
        <time>2024-09-22T16:41:42.000Z</time>
      </trkpt>
      <trkpt lat="42.72105" lon="19.76553">
        <ele>1181.1199951172</ele>
        <time>2024-09-22T16:41:43.000Z</time>
      </trkpt>
      <trkpt lat="42.72102" lon="19.76559">
        <ele>1181.5999755859</ele>
        <time>2024-09-22T16:41:44.000Z</time>
      </trkpt>
      <trkpt lat="42.72099" lon="19.76566">
        <ele>1182.0799560547</ele>
        <time>2024-09-22T16:41:45.000Z</time>
      </trkpt>
      <trkpt lat="42.72096" lon="19.76571">
        <ele>1182.5600585938</ele>
        <time>2024-09-22T16:41:46.000Z</time>
      </trkpt>
      <trkpt lat="42.72092" lon="19.76577">
        <ele>1182.5600585938</ele>
        <time>2024-09-22T16:41:47.000Z</time>
      </trkpt>
      <trkpt lat="42.7209" lon="19.76581">
        <ele>1182.5600585938</ele>
        <time>2024-09-22T16:41:48.000Z</time>
      </trkpt>
      <trkpt lat="42.72087" lon="19.76587">
        <ele>1182.5600585938</ele>
        <time>2024-09-22T16:41:49.000Z</time>
      </trkpt>
      <trkpt lat="42.72085" lon="19.76592">
        <ele>1182.5600585938</ele>
        <time>2024-09-22T16:41:50.000Z</time>
      </trkpt>
      <trkpt lat="42.72083" lon="19.76599">
        <ele>1183.0400390625</ele>
        <time>2024-09-22T16:41:51.000Z</time>
      </trkpt>
      <trkpt lat="42.72083" lon="19.76604">
        <ele>1183.0400390625</ele>
        <time>2024-09-22T16:41:52.000Z</time>
      </trkpt>
      <trkpt lat="42.72084" lon="19.76611">
        <ele>1182.5600585938</ele>
        <time>2024-09-22T16:41:53.000Z</time>
      </trkpt>
      <trkpt lat="42.72088" lon="19.76618">
        <ele>1182.0799560547</ele>
        <time>2024-09-22T16:41:54.000Z</time>
      </trkpt>
      <trkpt lat="42.7209" lon="19.76622">
        <ele>1182.0799560547</ele>
        <time>2024-09-22T16:41:55.000Z</time>
      </trkpt>
      <trkpt lat="42.72096" lon="19.76628">
        <ele>1181.5999755859</ele>
        <time>2024-09-22T16:41:56.000Z</time>
      </trkpt>
      <trkpt lat="42.721" lon="19.76632">
        <ele>1181.1199951172</ele>
        <time>2024-09-22T16:41:57.000Z</time>
      </trkpt>
      <trkpt lat="42.72105" lon="19.76637">
        <ele>1180.6400146484</ele>
        <time>2024-09-22T16:41:58.000Z</time>
      </trkpt>
      <trkpt lat="42.72108" lon="19.76642">
        <ele>1180.1600341797</ele>
        <time>2024-09-22T16:41:59.000Z</time>
      </trkpt>
      <trkpt lat="42.72111" lon="19.76649">
        <ele>1179.1899414062</ele>
        <time>2024-09-22T16:42:00.000Z</time>
      </trkpt>
      <trkpt lat="42.72114" lon="19.76659">
        <ele>1178.7099609375</ele>
        <time>2024-09-22T16:42:01.000Z</time>
      </trkpt>
      <trkpt lat="42.72118" lon="19.76671">
        <ele>1176.7900390625</ele>
        <time>2024-09-22T16:42:02.000Z</time>
      </trkpt>
      <trkpt lat="42.7212" lon="19.76676">
        <ele>1175.8299560547</ele>
        <time>2024-09-22T16:42:03.000Z</time>
      </trkpt>
      <trkpt lat="42.72123" lon="19.76684">
        <ele>1174.8699951172</ele>
        <time>2024-09-22T16:42:04.000Z</time>
      </trkpt>
      <trkpt lat="42.72125" lon="19.7669">
        <ele>1174.3900146484</ele>
        <time>2024-09-22T16:42:05.000Z</time>
      </trkpt>
      <trkpt lat="42.72131" lon="19.767">
        <ele>1172.4699707031</ele>
        <time>2024-09-22T16:42:06.000Z</time>
      </trkpt>
      <trkpt lat="42.72134" lon="19.76707">
        <ele>1172.4699707031</ele>
        <time>2024-09-22T16:42:07.000Z</time>
      </trkpt>
      <trkpt lat="42.7214" lon="19.76716">
        <ele>1171.5</ele>
        <time>2024-09-22T16:42:08.000Z</time>
      </trkpt>
      <trkpt lat="42.72144" lon="19.76722">
        <ele>1171.0200195312</ele>
        <time>2024-09-22T16:42:09.000Z</time>
      </trkpt>
      <trkpt lat="42.72146" lon="19.76727">
        <ele>1170.0600585938</ele>
        <time>2024-09-22T16:42:10.000Z</time>
      </trkpt>
      <trkpt lat="42.72151" lon="19.76737">
        <ele>1168.1400146484</ele>
        <time>2024-09-22T16:42:11.000Z</time>
      </trkpt>
      <trkpt lat="42.72153" lon="19.76741">
        <ele>1167.1800537109</ele>
        <time>2024-09-22T16:42:12.000Z</time>
      </trkpt>
      <trkpt lat="42.72157" lon="19.76752">
        <ele>1164.7700195312</ele>
        <time>2024-09-22T16:42:13.000Z</time>
      </trkpt>
      <trkpt lat="42.7216" lon="19.76759">
        <ele>1163.8100585938</ele>
        <time>2024-09-22T16:42:14.000Z</time>
      </trkpt>
      <trkpt lat="42.72162" lon="19.76767">
        <ele>1163.3299560547</ele>
        <time>2024-09-22T16:42:15.000Z</time>
      </trkpt>
      <trkpt lat="42.72164" lon="19.76777">
        <ele>1162.8499755859</ele>
        <time>2024-09-22T16:42:16.000Z</time>
      </trkpt>
      <trkpt lat="42.72165" lon="19.76785">
        <ele>1161.8900146484</ele>
        <time>2024-09-22T16:42:17.000Z</time>
      </trkpt>
      <trkpt lat="42.72167" lon="19.76806">
        <ele>1161.4100341797</ele>
        <time>2024-09-22T16:42:19.000Z</time>
      </trkpt>
      <trkpt lat="42.72168" lon="19.76813">
        <ele>1160.9300537109</ele>
        <time>2024-09-22T16:42:20.000Z</time>
      </trkpt>
      <trkpt lat="42.72171" lon="19.76826">
        <ele>1159.9699707031</ele>
        <time>2024-09-22T16:42:21.000Z</time>
      </trkpt>
      <trkpt lat="42.72172" lon="19.76833">
        <ele>1160.4499511719</ele>
        <time>2024-09-22T16:42:22.000Z</time>
      </trkpt>
      <trkpt lat="42.72174" lon="19.7684">
        <ele>1160.4499511719</ele>
        <time>2024-09-22T16:42:23.000Z</time>
      </trkpt>
      <trkpt lat="42.72175" lon="19.76845">
        <ele>1160.4499511719</ele>
        <time>2024-09-22T16:42:24.000Z</time>
      </trkpt>
      <trkpt lat="42.72177" lon="19.76853">
        <ele>1160.4499511719</ele>
        <time>2024-09-22T16:42:25.000Z</time>
      </trkpt>
      <trkpt lat="42.72177" lon="19.76859">
        <ele>1160.4499511719</ele>
        <time>2024-09-22T16:42:26.000Z</time>
      </trkpt>
      <trkpt lat="42.72175" lon="19.76865">
        <ele>1159.9699707031</ele>
        <time>2024-09-22T16:42:27.000Z</time>
      </trkpt>
      <trkpt lat="42.72172" lon="19.7687">
        <ele>1159.4899902344</ele>
        <time>2024-09-22T16:42:28.000Z</time>
      </trkpt>
      <trkpt lat="42.72168" lon="19.76875">
        <ele>1158.5300292969</ele>
        <time>2024-09-22T16:42:29.000Z</time>
      </trkpt>
      <trkpt lat="42.72163" lon="19.76879">
        <ele>1158.0500488281</ele>
        <time>2024-09-22T16:42:30.000Z</time>
      </trkpt>
      <trkpt lat="42.72159" lon="19.76883">
        <ele>1157.5600585938</ele>
        <time>2024-09-22T16:42:31.000Z</time>
      </trkpt>
      <trkpt lat="42.72154" lon="19.76888">
        <ele>1156.5999755859</ele>
        <time>2024-09-22T16:42:32.000Z</time>
      </trkpt>
      <trkpt lat="42.72151" lon="19.76893">
        <ele>1156.1199951172</ele>
        <time>2024-09-22T16:42:33.000Z</time>
      </trkpt>
      <trkpt lat="42.72148" lon="19.76898">
        <ele>1155.6400146484</ele>
        <time>2024-09-22T16:42:34.000Z</time>
      </trkpt>
      <trkpt lat="42.72143" lon="19.76906">
        <ele>1154.6800537109</ele>
        <time>2024-09-22T16:42:35.000Z</time>
      </trkpt>
      <trkpt lat="42.72141" lon="19.7691">
        <ele>1154.1999511719</ele>
        <time>2024-09-22T16:42:36.000Z</time>
      </trkpt>
      <trkpt lat="42.72138" lon="19.76917">
        <ele>1153.2399902344</ele>
        <time>2024-09-22T16:42:37.000Z</time>
      </trkpt>
      <trkpt lat="42.72126" lon="19.76936">
        <ele>1149.8699951172</ele>
        <time>2024-09-22T16:42:40.000Z</time>
      </trkpt>
      <trkpt lat="42.72122" lon="19.76943">
        <ele>1149.3900146484</ele>
        <time>2024-09-22T16:42:41.000Z</time>
      </trkpt>
      <trkpt lat="42.7212" lon="19.76947">
        <ele>1149.3900146484</ele>
        <time>2024-09-22T16:42:42.000Z</time>
      </trkpt>
      <trkpt lat="42.72116" lon="19.76954">
        <ele>1149.3900146484</ele>
        <time>2024-09-22T16:42:49.000Z</time>
      </trkpt>
      <trkpt lat="42.72108" lon="19.76964">
        <ele>1147.9499511719</ele>
        <time>2024-09-22T16:44:21.000Z</time>
      </trkpt>
      <trkpt lat="42.72105" lon="19.76967">
        <ele>1147.4699707031</ele>
        <time>2024-09-22T16:44:22.000Z</time>
      </trkpt>
      <trkpt lat="42.72101" lon="19.76971">
        <ele>1147.4699707031</ele>
        <time>2024-09-22T16:44:23.000Z</time>
      </trkpt>
      <trkpt lat="42.72097" lon="19.76975">
        <ele>1147.4699707031</ele>
        <time>2024-09-22T16:44:24.000Z</time>
      </trkpt>
      <trkpt lat="42.72092" lon="19.76981">
        <ele>1147.4699707031</ele>
        <time>2024-09-22T16:44:25.000Z</time>
      </trkpt>
      <trkpt lat="42.7209" lon="19.76982">
        <ele>1147.4699707031</ele>
        <time>2024-09-22T16:44:26.000Z</time>
      </trkpt>
      <trkpt lat="42.72086" lon="19.76986">
        <ele>1147.4699707031</ele>
        <time>2024-09-22T16:44:27.000Z</time>
      </trkpt>
      <trkpt lat="42.7208" lon="19.76992">
        <ele>1146.5100097656</ele>
        <time>2024-09-22T16:44:28.000Z</time>
      </trkpt>
      <trkpt lat="42.7208" lon="19.76993">
        <ele>1146.5100097656</ele>
        <time>2024-09-22T16:44:29.000Z</time>
      </trkpt>
      <trkpt lat="42.72076" lon="19.76998">
        <ele>1146.0300292969</ele>
        <time>2024-09-22T16:44:30.000Z</time>
      </trkpt>
      <trkpt lat="42.72072" lon="19.77004">
        <ele>1145.5500488281</ele>
        <time>2024-09-22T16:44:31.000Z</time>
      </trkpt>
      <trkpt lat="42.72069" lon="19.77009">
        <ele>1145.0699462891</ele>
        <time>2024-09-22T16:44:32.000Z</time>
      </trkpt>
      <trkpt lat="42.72065" lon="19.77015">
        <ele>1144.5899658203</ele>
        <time>2024-09-22T16:44:33.000Z</time>
      </trkpt>
      <trkpt lat="42.72059" lon="19.77023">
        <ele>1143.1400146484</ele>
        <time>2024-09-22T16:44:34.000Z</time>
      </trkpt>
      <trkpt lat="42.72057" lon="19.77027">
        <ele>1142.1800537109</ele>
        <time>2024-09-22T16:44:35.000Z</time>
      </trkpt>
      <trkpt lat="42.72054" lon="19.77031">
        <ele>1141.6999511719</ele>
        <time>2024-09-22T16:44:36.000Z</time>
      </trkpt>
      <trkpt lat="42.72052" lon="19.77037">
        <ele>1140.2600097656</ele>
        <time>2024-09-22T16:44:37.000Z</time>
      </trkpt>
      <trkpt lat="42.72051" lon="19.77044">
        <ele>1139.3000488281</ele>
        <time>2024-09-22T16:44:38.000Z</time>
      </trkpt>
      <trkpt lat="42.72052" lon="19.7705">
        <ele>1138.8199462891</ele>
        <time>2024-09-22T16:44:39.000Z</time>
      </trkpt>
      <trkpt lat="42.72054" lon="19.77058">
        <ele>1137.8599853516</ele>
        <time>2024-09-22T16:44:40.000Z</time>
      </trkpt>
      <trkpt lat="42.72057" lon="19.77065">
        <ele>1136.9000244141</ele>
        <time>2024-09-22T16:44:41.000Z</time>
      </trkpt>
      <trkpt lat="42.7206" lon="19.77074">
        <ele>1135.4499511719</ele>
        <time>2024-09-22T16:44:42.000Z</time>
      </trkpt>
      <trkpt lat="42.72062" lon="19.7708">
        <ele>1134.9699707031</ele>
        <time>2024-09-22T16:44:43.000Z</time>
      </trkpt>
      <trkpt lat="42.72066" lon="19.77087">
        <ele>1134.0100097656</ele>
        <time>2024-09-22T16:44:44.000Z</time>
      </trkpt>
      <trkpt lat="42.72069" lon="19.77093">
        <ele>1133.5300292969</ele>
        <time>2024-09-22T16:44:45.000Z</time>
      </trkpt>
      <trkpt lat="42.72075" lon="19.77103">
        <ele>1132.0899658203</ele>
        <time>2024-09-22T16:44:46.000Z</time>
      </trkpt>
      <trkpt lat="42.72078" lon="19.77108">
        <ele>1131.6099853516</ele>
        <time>2024-09-22T16:44:47.000Z</time>
      </trkpt>
      <trkpt lat="42.72083" lon="19.77112">
        <ele>1130.6500244141</ele>
        <time>2024-09-22T16:44:48.000Z</time>
      </trkpt>
      <trkpt lat="42.72088" lon="19.77116">
        <ele>1129.6899414062</ele>
        <time>2024-09-22T16:44:49.000Z</time>
      </trkpt>
      <trkpt lat="42.72094" lon="19.77118">
        <ele>1129.2099609375</ele>
        <time>2024-09-22T16:44:50.000Z</time>
      </trkpt>
      <trkpt lat="42.72108" lon="19.77119">
        <ele>1126.8000488281</ele>
        <time>2024-09-22T16:44:51.000Z</time>
      </trkpt>
      <trkpt lat="42.72112" lon="19.7712">
        <ele>1126.3199462891</ele>
        <time>2024-09-22T16:44:52.000Z</time>
      </trkpt>
      <trkpt lat="42.72118" lon="19.77121">
        <ele>1125.8399658203</ele>
        <time>2024-09-22T16:44:53.000Z</time>
      </trkpt>
      <trkpt lat="42.72144" lon="19.77127">
        <ele>1122.9599609375</ele>
        <time>2024-09-22T16:44:56.000Z</time>
      </trkpt>
      <trkpt lat="42.72157" lon="19.7713">
        <ele>1121.5200195312</ele>
        <time>2024-09-22T16:44:58.000Z</time>
      </trkpt>
      <trkpt lat="42.72173" lon="19.77134">
        <ele>1119.1099853516</ele>
        <time>2024-09-22T16:44:59.000Z</time>
      </trkpt>
      <trkpt lat="42.72178" lon="19.77136">
        <ele>1118.6300048828</ele>
        <time>2024-09-22T16:45:00.000Z</time>
      </trkpt>
      <trkpt lat="42.7219" lon="19.7714">
        <ele>1117.1899414062</ele>
        <time>2024-09-22T16:45:01.000Z</time>
      </trkpt>
      <trkpt lat="42.72192" lon="19.77141">
        <ele>1116.7099609375</ele>
        <time>2024-09-22T16:45:02.000Z</time>
      </trkpt>
      <trkpt lat="42.722" lon="19.77144">
        <ele>1115.2700195312</ele>
        <time>2024-09-22T16:45:03.000Z</time>
      </trkpt>
      <trkpt lat="42.72207" lon="19.77146">
        <ele>1114.3100585938</ele>
        <time>2024-09-22T16:45:04.000Z</time>
      </trkpt>
      <trkpt lat="42.72217" lon="19.7715">
        <ele>1112.8599853516</ele>
        <time>2024-09-22T16:45:05.000Z</time>
      </trkpt>
      <trkpt lat="42.72223" lon="19.77151">
        <ele>1111.9000244141</ele>
        <time>2024-09-22T16:45:06.000Z</time>
      </trkpt>
      <trkpt lat="42.7223" lon="19.77153">
        <ele>1110.9399414062</ele>
        <time>2024-09-22T16:45:07.000Z</time>
      </trkpt>
      <trkpt lat="42.72238" lon="19.77153">
        <ele>1110.4599609375</ele>
        <time>2024-09-22T16:45:08.000Z</time>
      </trkpt>
      <trkpt lat="42.72244" lon="19.77153">
        <ele>1109.5</ele>
        <time>2024-09-22T16:45:09.000Z</time>
      </trkpt>
      <trkpt lat="42.72252" lon="19.77153">
        <ele>1109.0200195312</ele>
        <time>2024-09-22T16:45:10.000Z</time>
      </trkpt>
      <trkpt lat="42.72257" lon="19.77153">
        <ele>1109.0200195312</ele>
        <time>2024-09-22T16:45:11.000Z</time>
      </trkpt>
      <trkpt lat="42.72263" lon="19.77152">
        <ele>1108.5400390625</ele>
        <time>2024-09-22T16:45:12.000Z</time>
      </trkpt>
      <trkpt lat="42.7227" lon="19.7715">
        <ele>1108.5400390625</ele>
        <time>2024-09-22T16:45:13.000Z</time>
      </trkpt>
      <trkpt lat="42.72275" lon="19.77148">
        <ele>1108.5400390625</ele>
        <time>2024-09-22T16:45:14.000Z</time>
      </trkpt>
      <trkpt lat="42.72283" lon="19.77143">
        <ele>1108.0600585938</ele>
        <time>2024-09-22T16:45:15.000Z</time>
      </trkpt>
      <trkpt lat="42.72289" lon="19.77138">
        <ele>1107.5799560547</ele>
        <time>2024-09-22T16:45:16.000Z</time>
      </trkpt>
      <trkpt lat="42.72304" lon="19.77126">
        <ele>1106.6099853516</ele>
        <time>2024-09-22T16:45:18.000Z</time>
      </trkpt>
      <trkpt lat="42.72314" lon="19.7712">
        <ele>1106.1300048828</ele>
        <time>2024-09-22T16:45:19.000Z</time>
      </trkpt>
      <trkpt lat="42.72323" lon="19.77115">
        <ele>1105.1700439453</ele>
        <time>2024-09-22T16:45:20.000Z</time>
      </trkpt>
      <trkpt lat="42.7233" lon="19.77113">
        <ele>1104.6899414062</ele>
        <time>2024-09-22T16:45:21.000Z</time>
      </trkpt>
      <trkpt lat="42.72341" lon="19.77111">
        <ele>1103.7299804688</ele>
        <time>2024-09-22T16:45:22.000Z</time>
      </trkpt>
      <trkpt lat="42.72345" lon="19.7711">
        <ele>1103.25</ele>
        <time>2024-09-22T16:45:23.000Z</time>
      </trkpt>
      <trkpt lat="42.72351" lon="19.77111">
        <ele>1102.2900390625</ele>
        <time>2024-09-22T16:45:24.000Z</time>
      </trkpt>
      <trkpt lat="42.72357" lon="19.77114">
        <ele>1101.3299560547</ele>
        <time>2024-09-22T16:45:25.000Z</time>
      </trkpt>
      <trkpt lat="42.72363" lon="19.77119">
        <ele>1099.8900146484</ele>
        <time>2024-09-22T16:45:26.000Z</time>
      </trkpt>
      <trkpt lat="42.72369" lon="19.77126">
        <ele>1098.4399414062</ele>
        <time>2024-09-22T16:45:27.000Z</time>
      </trkpt>
      <trkpt lat="42.72373" lon="19.77135">
        <ele>1097.4799804688</ele>
        <time>2024-09-22T16:45:28.000Z</time>
      </trkpt>
      <trkpt lat="42.72377" lon="19.77144">
        <ele>1096.0400390625</ele>
        <time>2024-09-22T16:45:29.000Z</time>
      </trkpt>
      <trkpt lat="42.7238" lon="19.77155">
        <ele>1094.5999755859</ele>
        <time>2024-09-22T16:45:30.000Z</time>
      </trkpt>
      <trkpt lat="42.72383" lon="19.77163">
        <ele>1093.1600341797</ele>
        <time>2024-09-22T16:45:31.000Z</time>
      </trkpt>
      <trkpt lat="42.72387" lon="19.77172">
        <ele>1092.1999511719</ele>
        <time>2024-09-22T16:45:32.000Z</time>
      </trkpt>
      <trkpt lat="42.72394" lon="19.77184">
        <ele>1090.75</ele>
        <time>2024-09-22T16:45:33.000Z</time>
      </trkpt>
      <trkpt lat="42.72398" lon="19.7719">
        <ele>1089.7900390625</ele>
        <time>2024-09-22T16:45:34.000Z</time>
      </trkpt>
      <trkpt lat="42.72404" lon="19.77199">
        <ele>1088.8299560547</ele>
        <time>2024-09-22T16:45:35.000Z</time>
      </trkpt>
      <trkpt lat="42.72411" lon="19.77206">
        <ele>1087.3900146484</ele>
        <time>2024-09-22T16:45:36.000Z</time>
      </trkpt>
      <trkpt lat="42.72426" lon="19.77224">
        <ele>1084.9899902344</ele>
        <time>2024-09-22T16:45:38.000Z</time>
      </trkpt>
      <trkpt lat="42.72433" lon="19.77233">
        <ele>1084.0200195312</ele>
        <time>2024-09-22T16:45:39.000Z</time>
      </trkpt>
      <trkpt lat="42.72439" lon="19.77242">
        <ele>1084.0200195312</ele>
        <time>2024-09-22T16:45:40.000Z</time>
      </trkpt>
      <trkpt lat="42.72447" lon="19.77255">
        <ele>1084.9899902344</ele>
        <time>2024-09-22T16:45:41.000Z</time>
      </trkpt>
      <trkpt lat="42.72452" lon="19.77263">
        <ele>1084.9899902344</ele>
        <time>2024-09-22T16:45:42.000Z</time>
      </trkpt>
      <trkpt lat="42.72454" lon="19.77269">
        <ele>1085.4699707031</ele>
        <time>2024-09-22T16:45:43.000Z</time>
      </trkpt>
      <trkpt lat="42.72459" lon="19.77278">
        <ele>1085.4699707031</ele>
        <time>2024-09-22T16:45:44.000Z</time>
      </trkpt>
      <trkpt lat="42.72464" lon="19.77288">
        <ele>1085.9499511719</ele>
        <time>2024-09-22T16:45:45.000Z</time>
      </trkpt>
      <trkpt lat="42.72469" lon="19.77298">
        <ele>1085.9499511719</ele>
        <time>2024-09-22T16:45:46.000Z</time>
      </trkpt>
      <trkpt lat="42.72476" lon="19.77318">
        <ele>1085.4699707031</ele>
        <time>2024-09-22T16:45:47.000Z</time>
      </trkpt>
      <trkpt lat="42.72476" lon="19.7732">
        <ele>1085.4699707031</ele>
        <time>2024-09-22T16:45:48.000Z</time>
      </trkpt>
      <trkpt lat="42.72482" lon="19.77332">
        <ele>1085.4699707031</ele>
        <time>2024-09-22T16:45:49.000Z</time>
      </trkpt>
      <trkpt lat="42.72486" lon="19.7734">
        <ele>1084.5</ele>
        <time>2024-09-22T16:45:50.000Z</time>
      </trkpt>
      <trkpt lat="42.72493" lon="19.7735">
        <ele>1083.5400390625</ele>
        <time>2024-09-22T16:45:51.000Z</time>
      </trkpt>
      <trkpt lat="42.72503" lon="19.77362">
        <ele>1083.0600585938</ele>
        <time>2024-09-22T16:45:52.000Z</time>
      </trkpt>
      <trkpt lat="42.7251" lon="19.7737">
        <ele>1082.5799560547</ele>
        <time>2024-09-22T16:45:53.000Z</time>
      </trkpt>
      <trkpt lat="42.72515" lon="19.77375">
        <ele>1081.6199951172</ele>
        <time>2024-09-22T16:45:54.000Z</time>
      </trkpt>
      <trkpt lat="42.7252" lon="19.77381">
        <ele>1081.1400146484</ele>
        <time>2024-09-22T16:45:55.000Z</time>
      </trkpt>
      <trkpt lat="42.72526" lon="19.77387">
        <ele>1080.6600341797</ele>
        <time>2024-09-22T16:45:56.000Z</time>
      </trkpt>
      <trkpt lat="42.72532" lon="19.77393">
        <ele>1079.2199707031</ele>
        <time>2024-09-22T16:45:57.000Z</time>
      </trkpt>
      <trkpt lat="42.72538" lon="19.77397">
        <ele>1078.2600097656</ele>
        <time>2024-09-22T16:45:58.000Z</time>
      </trkpt>
      <trkpt lat="42.72545" lon="19.774">
        <ele>1076.8100585938</ele>
        <time>2024-09-22T16:45:59.000Z</time>
      </trkpt>
      <trkpt lat="42.72553" lon="19.77404">
        <ele>1075.3699951172</ele>
        <time>2024-09-22T16:46:00.000Z</time>
      </trkpt>
      <trkpt lat="42.72559" lon="19.77407">
        <ele>1074.4100341797</ele>
        <time>2024-09-22T16:46:01.000Z</time>
      </trkpt>
      <trkpt lat="42.72566" lon="19.7741">
        <ele>1073.4499511719</ele>
        <time>2024-09-22T16:46:02.000Z</time>
      </trkpt>
      <trkpt lat="42.72576" lon="19.77413">
        <ele>1072.0100097656</ele>
        <time>2024-09-22T16:46:03.000Z</time>
      </trkpt>
      <trkpt lat="42.72581" lon="19.77415">
        <ele>1071.0500488281</ele>
        <time>2024-09-22T16:46:04.000Z</time>
      </trkpt>
      <trkpt lat="42.72588" lon="19.77417">
        <ele>1070.5699462891</ele>
        <time>2024-09-22T16:46:05.000Z</time>
      </trkpt>
      <trkpt lat="42.72595" lon="19.77419">
        <ele>1069.5999755859</ele>
        <time>2024-09-22T16:46:06.000Z</time>
      </trkpt>
      <trkpt lat="42.72603" lon="19.77422">
        <ele>1069.1199951172</ele>
        <time>2024-09-22T16:46:07.000Z</time>
      </trkpt>
      <trkpt lat="42.72608" lon="19.77424">
        <ele>1068.6400146484</ele>
        <time>2024-09-22T16:46:08.000Z</time>
      </trkpt>
      <trkpt lat="42.72615" lon="19.77427">
        <ele>1068.1600341797</ele>
        <time>2024-09-22T16:46:09.000Z</time>
      </trkpt>
      <trkpt lat="42.72628" lon="19.77433">
        <ele>1067.6800537109</ele>
        <time>2024-09-22T16:46:10.000Z</time>
      </trkpt>
      <trkpt lat="42.72631" lon="19.77434">
        <ele>1067.6800537109</ele>
        <time>2024-09-22T16:46:11.000Z</time>
      </trkpt>
      <trkpt lat="42.72638" lon="19.77438">
        <ele>1067.1999511719</ele>
        <time>2024-09-22T16:46:12.000Z</time>
      </trkpt>
      <trkpt lat="42.72645" lon="19.77443">
        <ele>1066.7199707031</ele>
        <time>2024-09-22T16:46:13.000Z</time>
      </trkpt>
      <trkpt lat="42.72652" lon="19.77448">
        <ele>1066.7199707031</ele>
        <time>2024-09-22T16:46:14.000Z</time>
      </trkpt>
      <trkpt lat="42.7266" lon="19.77454">
        <ele>1066.7199707031</ele>
        <time>2024-09-22T16:46:15.000Z</time>
      </trkpt>
      <trkpt lat="42.72667" lon="19.77459">
        <ele>1066.2399902344</ele>
        <time>2024-09-22T16:46:16.000Z</time>
      </trkpt>
      <trkpt lat="42.72672" lon="19.77462">
        <ele>1066.2399902344</ele>
        <time>2024-09-22T16:46:17.000Z</time>
      </trkpt>
      <trkpt lat="42.72679" lon="19.77466">
        <ele>1065.2800292969</ele>
        <time>2024-09-22T16:46:18.000Z</time>
      </trkpt>
      <trkpt lat="42.72688" lon="19.77473">
        <ele>1064.8000488281</ele>
        <time>2024-09-22T16:46:19.000Z</time>
      </trkpt>
      <trkpt lat="42.72697" lon="19.77481">
        <ele>1063.3599853516</ele>
        <time>2024-09-22T16:46:20.000Z</time>
      </trkpt>
      <trkpt lat="42.72702" lon="19.77484">
        <ele>1062.8699951172</ele>
        <time>2024-09-22T16:46:21.000Z</time>
      </trkpt>
      <trkpt lat="42.72705" lon="19.77487">
        <ele>1062.3900146484</ele>
        <time>2024-09-22T16:46:22.000Z</time>
      </trkpt>
      <trkpt lat="42.72712" lon="19.77494">
        <ele>1061.9100341797</ele>
        <time>2024-09-22T16:46:23.000Z</time>
      </trkpt>
      <trkpt lat="42.72717" lon="19.77499">
        <ele>1060.9499511719</ele>
        <time>2024-09-22T16:46:24.000Z</time>
      </trkpt>
      <trkpt lat="42.72735" lon="19.77514">
        <ele>1059.0300292969</ele>
        <time>2024-09-22T16:46:27.000Z</time>
      </trkpt>
      <trkpt lat="42.72741" lon="19.77519">
        <ele>1058.5500488281</ele>
        <time>2024-09-22T16:46:28.000Z</time>
      </trkpt>
      <trkpt lat="42.72749" lon="19.77525">
        <ele>1057.5899658203</ele>
        <time>2024-09-22T16:46:29.000Z</time>
      </trkpt>
      <trkpt lat="42.72754" lon="19.77528">
        <ele>1057.1099853516</ele>
        <time>2024-09-22T16:46:30.000Z</time>
      </trkpt>
      <trkpt lat="42.72763" lon="19.77532">
        <ele>1056.1500244141</ele>
        <time>2024-09-22T16:46:31.000Z</time>
      </trkpt>
      <trkpt lat="42.72767" lon="19.77535">
        <ele>1055.6700439453</ele>
        <time>2024-09-22T16:46:32.000Z</time>
      </trkpt>
      <trkpt lat="42.72775" lon="19.7754">
        <ele>1054.6999511719</ele>
        <time>2024-09-22T16:46:33.000Z</time>
      </trkpt>
      <trkpt lat="42.7278" lon="19.77546">
        <ele>1053.2600097656</ele>
        <time>2024-09-22T16:46:34.000Z</time>
      </trkpt>
      <trkpt lat="42.72797" lon="19.77565">
        <ele>1050.3800048828</ele>
        <time>2024-09-22T16:46:36.000Z</time>
      </trkpt>
      <trkpt lat="42.72798" lon="19.77568">
        <ele>1049.9000244141</ele>
        <time>2024-09-22T16:46:37.000Z</time>
      </trkpt>
      <trkpt lat="42.72809" lon="19.77581">
        <ele>1047.4899902344</ele>
        <time>2024-09-22T16:46:38.000Z</time>
      </trkpt>
      <trkpt lat="42.7281" lon="19.77583">
        <ele>1047.0100097656</ele>
        <time>2024-09-22T16:46:39.000Z</time>
      </trkpt>
      <trkpt lat="42.72821" lon="19.77595">
        <ele>1045.0899658203</ele>
        <time>2024-09-22T16:46:40.000Z</time>
      </trkpt>
      <trkpt lat="42.72823" lon="19.77597">
        <ele>1045.0899658203</ele>
        <time>2024-09-22T16:46:41.000Z</time>
      </trkpt>
      <trkpt lat="42.72829" lon="19.77603">
        <ele>1044.1300048828</ele>
        <time>2024-09-22T16:46:42.000Z</time>
      </trkpt>
      <trkpt lat="42.72834" lon="19.77609">
        <ele>1043.1700439453</ele>
        <time>2024-09-22T16:46:43.000Z</time>
      </trkpt>
      <trkpt lat="42.72843" lon="19.77621">
        <ele>1042.2099609375</ele>
        <time>2024-09-22T16:46:44.000Z</time>
      </trkpt>
      <trkpt lat="42.72846" lon="19.77624">
        <ele>1041.7299804688</ele>
        <time>2024-09-22T16:46:45.000Z</time>
      </trkpt>
      <trkpt lat="42.72851" lon="19.7763">
        <ele>1041.25</ele>
        <time>2024-09-22T16:46:46.000Z</time>
      </trkpt>
      <trkpt lat="42.72859" lon="19.7764">
        <ele>1040.7600097656</ele>
        <time>2024-09-22T16:46:48.000Z</time>
      </trkpt>
      <trkpt lat="42.72867" lon="19.7765">
        <ele>1040.7600097656</ele>
        <time>2024-09-22T16:46:49.000Z</time>
      </trkpt>
      <trkpt lat="42.72868" lon="19.77652">
        <ele>1040.7600097656</ele>
        <time>2024-09-22T16:46:50.000Z</time>
      </trkpt>
      <trkpt lat="42.72874" lon="19.77657">
        <ele>1040.2800292969</ele>
        <time>2024-09-22T16:46:51.000Z</time>
      </trkpt>
      <trkpt lat="42.72879" lon="19.77661">
        <ele>1039.8000488281</ele>
        <time>2024-09-22T16:46:52.000Z</time>
      </trkpt>
      <trkpt lat="42.72884" lon="19.77664">
        <ele>1039.3199462891</ele>
        <time>2024-09-22T16:46:53.000Z</time>
      </trkpt>
      <trkpt lat="42.72891" lon="19.77669">
        <ele>1038.8399658203</ele>
        <time>2024-09-22T16:46:54.000Z</time>
      </trkpt>
      <trkpt lat="42.72897" lon="19.77672">
        <ele>1037.8800048828</ele>
        <time>2024-09-22T16:46:55.000Z</time>
      </trkpt>
      <trkpt lat="42.72903" lon="19.77676">
        <ele>1036.9200439453</ele>
        <time>2024-09-22T16:46:56.000Z</time>
      </trkpt>
      <trkpt lat="42.72908" lon="19.77681">
        <ele>1035.9599609375</ele>
        <time>2024-09-22T16:46:57.000Z</time>
      </trkpt>
      <trkpt lat="42.72913" lon="19.77686">
        <ele>1034.5200195312</ele>
        <time>2024-09-22T16:46:58.000Z</time>
      </trkpt>
      <trkpt lat="42.72918" lon="19.77691">
        <ele>1033.5500488281</ele>
        <time>2024-09-22T16:46:59.000Z</time>
      </trkpt>
      <trkpt lat="42.72925" lon="19.77698">
        <ele>1032.1099853516</ele>
        <time>2024-09-22T16:47:00.000Z</time>
      </trkpt>
      <trkpt lat="42.72931" lon="19.77703">
        <ele>1031.1500244141</ele>
        <time>2024-09-22T16:47:01.000Z</time>
      </trkpt>
      <trkpt lat="42.72952" lon="19.77718">
        <ele>1027.3100585938</ele>
        <time>2024-09-22T16:47:04.000Z</time>
      </trkpt>
      <trkpt lat="42.72956" lon="19.77722">
        <ele>1025.8599853516</ele>
        <time>2024-09-22T16:47:05.000Z</time>
      </trkpt>
      <trkpt lat="42.72961" lon="19.77727">
        <ele>1024.9000244141</ele>
        <time>2024-09-22T16:47:06.000Z</time>
      </trkpt>
      <trkpt lat="42.72965" lon="19.77734">
        <ele>1023.4600219727</ele>
        <time>2024-09-22T16:47:07.000Z</time>
      </trkpt>
      <trkpt lat="42.7297" lon="19.77742">
        <ele>1022.0200195312</ele>
        <time>2024-09-22T16:47:08.000Z</time>
      </trkpt>
      <trkpt lat="42.72973" lon="19.77748">
        <ele>1021.5399780273</ele>
        <time>2024-09-22T16:47:09.000Z</time>
      </trkpt>
      <trkpt lat="42.72979" lon="19.77765">
        <ele>1020.5800170898</ele>
        <time>2024-09-22T16:47:11.000Z</time>
      </trkpt>
      <trkpt lat="42.72981" lon="19.7777">
        <ele>1020.0999755859</ele>
        <time>2024-09-22T16:47:12.000Z</time>
      </trkpt>
      <trkpt lat="42.72984" lon="19.77777">
        <ele>1020.0999755859</ele>
        <time>2024-09-22T16:47:13.000Z</time>
      </trkpt>
      <trkpt lat="42.72987" lon="19.77784">
        <ele>1019.6199951172</ele>
        <time>2024-09-22T16:47:14.000Z</time>
      </trkpt>
      <trkpt lat="42.7299" lon="19.77793">
        <ele>1019.1300048828</ele>
        <time>2024-09-22T16:47:15.000Z</time>
      </trkpt>
      <trkpt lat="42.72994" lon="19.778">
        <ele>1019.1300048828</ele>
        <time>2024-09-22T16:47:16.000Z</time>
      </trkpt>
      <trkpt lat="42.72996" lon="19.77806">
        <ele>1018.6500244141</ele>
        <time>2024-09-22T16:47:17.000Z</time>
      </trkpt>
      <trkpt lat="42.73" lon="19.77814">
        <ele>1018.6500244141</ele>
        <time>2024-09-22T16:47:18.000Z</time>
      </trkpt>
      <trkpt lat="42.73002" lon="19.77819">
        <ele>1018.6500244141</ele>
        <time>2024-09-22T16:47:19.000Z</time>
      </trkpt>
      <trkpt lat="42.73006" lon="19.77826">
        <ele>1018.1699829102</ele>
        <time>2024-09-22T16:47:20.000Z</time>
      </trkpt>
      <trkpt lat="42.73009" lon="19.77832">
        <ele>1018.1699829102</ele>
        <time>2024-09-22T16:47:21.000Z</time>
      </trkpt>
      <trkpt lat="42.73011" lon="19.77838">
        <ele>1018.1699829102</ele>
        <time>2024-09-22T16:47:22.000Z</time>
      </trkpt>
      <trkpt lat="42.73013" lon="19.77844">
        <ele>1018.1699829102</ele>
        <time>2024-09-22T16:47:23.000Z</time>
      </trkpt>
      <trkpt lat="42.73016" lon="19.77849">
        <ele>1017.6900024414</ele>
        <time>2024-09-22T16:47:24.000Z</time>
      </trkpt>
      <trkpt lat="42.73018" lon="19.77856">
        <ele>1018.1699829102</ele>
        <time>2024-09-22T16:47:25.000Z</time>
      </trkpt>
      <trkpt lat="42.73019" lon="19.77859">
        <ele>1018.1699829102</ele>
        <time>2024-09-22T16:47:26.000Z</time>
      </trkpt>
      <trkpt lat="42.73022" lon="19.77864">
        <ele>1017.6900024414</ele>
        <time>2024-09-22T16:47:27.000Z</time>
      </trkpt>
      <trkpt lat="42.73025" lon="19.77868">
        <ele>1017.2100219727</ele>
        <time>2024-09-22T16:47:28.000Z</time>
      </trkpt>
      <trkpt lat="42.73031" lon="19.77873">
        <ele>1017.2100219727</ele>
        <time>2024-09-22T16:47:29.000Z</time>
      </trkpt>
      <trkpt lat="42.73034" lon="19.77877">
        <ele>1016.7299804688</ele>
        <time>2024-09-22T16:47:30.000Z</time>
      </trkpt>
      <trkpt lat="42.73039" lon="19.77882">
        <ele>1016.7299804688</ele>
        <time>2024-09-22T16:47:31.000Z</time>
      </trkpt>
      <trkpt lat="42.73044" lon="19.77887">
        <ele>1016.25</ele>
        <time>2024-09-22T16:47:32.000Z</time>
      </trkpt>
      <trkpt lat="42.73049" lon="19.77892">
        <ele>1015.7700195312</ele>
        <time>2024-09-22T16:47:33.000Z</time>
      </trkpt>
      <trkpt lat="42.73054" lon="19.77898">
        <ele>1015.2899780273</ele>
        <time>2024-09-22T16:47:34.000Z</time>
      </trkpt>
      <trkpt lat="42.73058" lon="19.77904">
        <ele>1014.8099975586</ele>
        <time>2024-09-22T16:47:35.000Z</time>
      </trkpt>
      <trkpt lat="42.73071" lon="19.77927">
        <ele>1014.3300170898</ele>
        <time>2024-09-22T16:47:38.000Z</time>
      </trkpt>
      <trkpt lat="42.73075" lon="19.77935">
        <ele>1014.3300170898</ele>
        <time>2024-09-22T16:47:39.000Z</time>
      </trkpt>
      <trkpt lat="42.73081" lon="19.77946">
        <ele>1013.8499755859</ele>
        <time>2024-09-22T16:47:40.000Z</time>
      </trkpt>
      <trkpt lat="42.73085" lon="19.77951">
        <ele>1013.8499755859</ele>
        <time>2024-09-22T16:47:41.000Z</time>
      </trkpt>
      <trkpt lat="42.7309" lon="19.77957">
        <ele>1012.8900146484</ele>
        <time>2024-09-22T16:47:42.000Z</time>
      </trkpt>
      <trkpt lat="42.73096" lon="19.77962">
        <ele>1012.4099731445</ele>
        <time>2024-09-22T16:47:43.000Z</time>
      </trkpt>
      <trkpt lat="42.73101" lon="19.77966">
        <ele>1011.9299926758</ele>
        <time>2024-09-22T16:47:44.000Z</time>
      </trkpt>
      <trkpt lat="42.73105" lon="19.77969">
        <ele>1010.9600219727</ele>
        <time>2024-09-22T16:47:45.000Z</time>
      </trkpt>
      <trkpt lat="42.73109" lon="19.77973">
        <ele>1010.4799804688</ele>
        <time>2024-09-22T16:47:46.000Z</time>
      </trkpt>
      <trkpt lat="42.73111" lon="19.77981">
        <ele>1009.5200195312</ele>
        <time>2024-09-22T16:47:47.000Z</time>
      </trkpt>
      <trkpt lat="42.73111" lon="19.77985">
        <ele>1009.0399780273</ele>
        <time>2024-09-22T16:47:48.000Z</time>
      </trkpt>
      <trkpt lat="42.7311" lon="19.7799">
        <ele>1008.0800170898</ele>
        <time>2024-09-22T16:47:49.000Z</time>
      </trkpt>
      <trkpt lat="42.73106" lon="19.77995">
        <ele>1007.1199951172</ele>
        <time>2024-09-22T16:47:50.000Z</time>
      </trkpt>
      <trkpt lat="42.73101" lon="19.77998">
        <ele>1006.1599731445</ele>
        <time>2024-09-22T16:47:51.000Z</time>
      </trkpt>
      <trkpt lat="42.73093" lon="19.78003">
        <ele>1004.2299804688</ele>
        <time>2024-09-22T16:47:52.000Z</time>
      </trkpt>
      <trkpt lat="42.73088" lon="19.78004">
        <ele>1003.2700195312</ele>
        <time>2024-09-22T16:47:53.000Z</time>
      </trkpt>
      <trkpt lat="42.73081" lon="19.78004">
        <ele>1002.3099975586</ele>
        <time>2024-09-22T16:47:54.000Z</time>
      </trkpt>
      <trkpt lat="42.73076" lon="19.78002">
        <ele>1001.3499755859</ele>
        <time>2024-09-22T16:47:55.000Z</time>
      </trkpt>
      <trkpt lat="42.73067" lon="19.77999">
        <ele>999.90997314453</ele>
        <time>2024-09-22T16:47:56.000Z</time>
      </trkpt>
      <trkpt lat="42.73056" lon="19.77994">
        <ele>997.98999023438</ele>
        <time>2024-09-22T16:47:57.000Z</time>
      </trkpt>
      <trkpt lat="42.7305" lon="19.77991">
        <ele>997.51000976562</ele>
        <time>2024-09-22T16:47:58.000Z</time>
      </trkpt>
      <trkpt lat="42.73045" lon="19.7799">
        <ele>997.02001953125</ele>
        <time>2024-09-22T16:47:59.000Z</time>
      </trkpt>
      <trkpt lat="42.73026" lon="19.77987">
        <ele>995.09997558594</ele>
        <time>2024-09-22T16:48:01.000Z</time>
      </trkpt>
      <trkpt lat="42.73005" lon="19.77984">
        <ele>993.65997314453</ele>
        <time>2024-09-22T16:48:04.000Z</time>
      </trkpt>
      <trkpt lat="42.73002" lon="19.77983">
        <ele>993.65997314453</ele>
        <time>2024-09-22T16:48:05.000Z</time>
      </trkpt>
      <trkpt lat="42.72996" lon="19.77983">
        <ele>992.70001220703</ele>
        <time>2024-09-22T16:48:06.000Z</time>
      </trkpt>
      <trkpt lat="42.72992" lon="19.77985">
        <ele>992.70001220703</ele>
        <time>2024-09-22T16:48:07.000Z</time>
      </trkpt>
      <trkpt lat="42.72988" lon="19.77988">
        <ele>992.70001220703</ele>
        <time>2024-09-22T16:48:08.000Z</time>
      </trkpt>
      <trkpt lat="42.72986" lon="19.77993">
        <ele>992.21997070312</ele>
        <time>2024-09-22T16:48:09.000Z</time>
      </trkpt>
      <trkpt lat="42.72986" lon="19.77999">
        <ele>991.73999023438</ele>
        <time>2024-09-22T16:48:10.000Z</time>
      </trkpt>
      <trkpt lat="42.72988" lon="19.78004">
        <ele>990.78002929688</ele>
        <time>2024-09-22T16:48:11.000Z</time>
      </trkpt>
      <trkpt lat="42.72991" lon="19.7801">
        <ele>990.29998779297</ele>
        <time>2024-09-22T16:48:12.000Z</time>
      </trkpt>
      <trkpt lat="42.72993" lon="19.78014">
        <ele>989.80999755859</ele>
        <time>2024-09-22T16:48:13.000Z</time>
      </trkpt>
      <trkpt lat="42.72995" lon="19.78019">
        <ele>988.84997558594</ele>
        <time>2024-09-22T16:48:14.000Z</time>
      </trkpt>
      <trkpt lat="42.72998" lon="19.78022">
        <ele>988.36999511719</ele>
        <time>2024-09-22T16:48:15.000Z</time>
      </trkpt>
      <trkpt lat="42.73003" lon="19.7803">
        <ele>986.92999267578</ele>
        <time>2024-09-22T16:48:22.000Z</time>
      </trkpt>
      <trkpt lat="42.73009" lon="19.78041">
        <ele>985.96997070312</ele>
        <time>2024-09-22T16:48:40.000Z</time>
      </trkpt>
      <trkpt lat="42.73029" lon="19.78083">
        <ele>980.20001220703</ele>
        <time>2024-09-22T16:48:47.000Z</time>
      </trkpt>
      <trkpt lat="42.73032" lon="19.78092">
        <ele>979.23999023438</ele>
        <time>2024-09-22T16:48:48.000Z</time>
      </trkpt>
      <trkpt lat="42.73038" lon="19.78107">
        <ele>977.32000732422</ele>
        <time>2024-09-22T16:48:50.000Z</time>
      </trkpt>
      <trkpt lat="42.73043" lon="19.78123">
        <ele>975.88000488281</ele>
        <time>2024-09-22T16:48:52.000Z</time>
      </trkpt>
      <trkpt lat="42.73047" lon="19.78138">
        <ele>974.42999267578</ele>
        <time>2024-09-22T16:48:54.000Z</time>
      </trkpt>
      <trkpt lat="42.73049" lon="19.78145">
        <ele>973.95001220703</ele>
        <time>2024-09-22T16:48:55.000Z</time>
      </trkpt>
      <trkpt lat="42.73051" lon="19.78154">
        <ele>972.98999023438</ele>
        <time>2024-09-22T16:48:56.000Z</time>
      </trkpt>
      <trkpt lat="42.73053" lon="19.78163">
        <ele>972.51000976562</ele>
        <time>2024-09-22T16:48:57.000Z</time>
      </trkpt>
      <trkpt lat="42.73054" lon="19.78167">
        <ele>972.03002929688</ele>
        <time>2024-09-22T16:48:58.000Z</time>
      </trkpt>
      <trkpt lat="42.73059" lon="19.78189">
        <ele>970.59002685547</ele>
        <time>2024-09-22T16:49:00.000Z</time>
      </trkpt>
      <trkpt lat="42.73062" lon="19.78199">
        <ele>970.10998535156</ele>
        <time>2024-09-22T16:49:02.000Z</time>
      </trkpt>
      <trkpt lat="42.73066" lon="19.78217">
        <ele>968.66998291016</ele>
        <time>2024-09-22T16:49:04.000Z</time>
      </trkpt>
      <trkpt lat="42.73068" lon="19.78225">
        <ele>968.17999267578</ele>
        <time>2024-09-22T16:49:05.000Z</time>
      </trkpt>
      <trkpt lat="42.73071" lon="19.78231">
        <ele>967.70001220703</ele>
        <time>2024-09-22T16:49:06.000Z</time>
      </trkpt>
      <trkpt lat="42.73075" lon="19.78239">
        <ele>966.73999023438</ele>
        <time>2024-09-22T16:49:07.000Z</time>
      </trkpt>
      <trkpt lat="42.73096" lon="19.78286">
        <ele>963.38000488281</ele>
        <time>2024-09-22T16:49:13.000Z</time>
      </trkpt>
      <trkpt lat="42.73099" lon="19.78292">
        <ele>962.90002441406</ele>
        <time>2024-09-22T16:49:14.000Z</time>
      </trkpt>
      <trkpt lat="42.73114" lon="19.78317">
        <ele>961.46002197266</ele>
        <time>2024-09-22T16:49:17.000Z</time>
      </trkpt>
      <trkpt lat="42.73118" lon="19.78323">
        <ele>960.48999023438</ele>
        <time>2024-09-22T16:49:18.000Z</time>
      </trkpt>
      <trkpt lat="42.7312" lon="19.7833">
        <ele>959.53002929688</ele>
        <time>2024-09-22T16:49:19.000Z</time>
      </trkpt>
      <trkpt lat="42.7312" lon="19.78335">
        <ele>959.04998779297</ele>
        <time>2024-09-22T16:49:20.000Z</time>
      </trkpt>
      <trkpt lat="42.73116" lon="19.78338">
        <ele>958.57000732422</ele>
        <time>2024-09-22T16:49:21.000Z</time>
      </trkpt>
      <trkpt lat="42.73111" lon="19.78338">
        <ele>957.60998535156</ele>
        <time>2024-09-22T16:49:22.000Z</time>
      </trkpt>
      <trkpt lat="42.73105" lon="19.78337">
        <ele>957.13000488281</ele>
        <time>2024-09-22T16:49:23.000Z</time>
      </trkpt>
      <trkpt lat="42.73096" lon="19.78334">
        <ele>956.65002441406</ele>
        <time>2024-09-22T16:49:24.000Z</time>
      </trkpt>
      <trkpt lat="42.73035" lon="19.78316">
        <ele>951.35998535156</ele>
        <time>2024-09-22T16:49:32.000Z</time>
      </trkpt>
      <trkpt lat="42.73031" lon="19.78315">
        <ele>951.35998535156</ele>
        <time>2024-09-22T16:49:33.000Z</time>
      </trkpt>
      <trkpt lat="42.73026" lon="19.78315">
        <ele>950.88000488281</ele>
        <time>2024-09-22T16:49:34.000Z</time>
      </trkpt>
      <trkpt lat="42.73021" lon="19.78319">
        <ele>950.40002441406</ele>
        <time>2024-09-22T16:49:35.000Z</time>
      </trkpt>
      <trkpt lat="42.73019" lon="19.78324">
        <ele>949.91998291016</ele>
        <time>2024-09-22T16:49:36.000Z</time>
      </trkpt>
      <trkpt lat="42.73019" lon="19.7833">
        <ele>948.96002197266</ele>
        <time>2024-09-22T16:49:37.000Z</time>
      </trkpt>
      <trkpt lat="42.73021" lon="19.78337">
        <ele>948.47998046875</ele>
        <time>2024-09-22T16:49:38.000Z</time>
      </trkpt>
      <trkpt lat="42.73024" lon="19.78342">
        <ele>948</ele>
        <time>2024-09-22T16:49:39.000Z</time>
      </trkpt>
      <trkpt lat="42.73028" lon="19.78347">
        <ele>947.52001953125</ele>
        <time>2024-09-22T16:49:40.000Z</time>
      </trkpt>
      <trkpt lat="42.73032" lon="19.78351">
        <ele>947.03997802734</ele>
        <time>2024-09-22T16:49:41.000Z</time>
      </trkpt>
      <trkpt lat="42.73037" lon="19.78355">
        <ele>946.55999755859</ele>
        <time>2024-09-22T16:49:42.000Z</time>
      </trkpt>
      <trkpt lat="42.7306" lon="19.78371">
        <ele>945.10998535156</ele>
        <time>2024-09-22T16:49:46.000Z</time>
      </trkpt>
      <trkpt lat="42.73067" lon="19.78377">
        <ele>944.63000488281</ele>
        <time>2024-09-22T16:49:47.000Z</time>
      </trkpt>
      <trkpt lat="42.73074" lon="19.78384">
        <ele>944.63000488281</ele>
        <time>2024-09-22T16:49:48.000Z</time>
      </trkpt>
      <trkpt lat="42.73078" lon="19.78389">
        <ele>944.63000488281</ele>
        <time>2024-09-22T16:49:49.000Z</time>
      </trkpt>
      <trkpt lat="42.73082" lon="19.78397">
        <ele>944.15002441406</ele>
        <time>2024-09-22T16:49:50.000Z</time>
      </trkpt>
      <trkpt lat="42.73086" lon="19.78407">
        <ele>944.15002441406</ele>
        <time>2024-09-22T16:49:51.000Z</time>
      </trkpt>
      <trkpt lat="42.73088" lon="19.78414">
        <ele>944.15002441406</ele>
        <time>2024-09-22T16:49:52.000Z</time>
      </trkpt>
      <trkpt lat="42.73089" lon="19.78422">
        <ele>944.15002441406</ele>
        <time>2024-09-22T16:49:53.000Z</time>
      </trkpt>
      <trkpt lat="42.73098" lon="19.78459">
        <ele>943.66998291016</ele>
        <time>2024-09-22T16:49:56.000Z</time>
      </trkpt>
      <trkpt lat="42.73101" lon="19.78468">
        <ele>943.19000244141</ele>
        <time>2024-09-22T16:49:57.000Z</time>
      </trkpt>
      <trkpt lat="42.73101" lon="19.7847">
        <ele>943.19000244141</ele>
        <time>2024-09-22T16:49:58.000Z</time>
      </trkpt>
      <trkpt lat="42.73105" lon="19.78479">
        <ele>942.71002197266</ele>
        <time>2024-09-22T16:49:59.000Z</time>
      </trkpt>
      <trkpt lat="42.73109" lon="19.78487">
        <ele>942.22998046875</ele>
        <time>2024-09-22T16:50:00.000Z</time>
      </trkpt>
      <trkpt lat="42.73113" lon="19.78495">
        <ele>941.75</ele>
        <time>2024-09-22T16:50:01.000Z</time>
      </trkpt>
      <trkpt lat="42.73122" lon="19.78507">
        <ele>940.30999755859</ele>
        <time>2024-09-22T16:50:02.000Z</time>
      </trkpt>
      <trkpt lat="42.73126" lon="19.78512">
        <ele>939.83001708984</ele>
        <time>2024-09-22T16:50:03.000Z</time>
      </trkpt>
      <trkpt lat="42.73129" lon="19.78515">
        <ele>939.83001708984</ele>
        <time>2024-09-22T16:50:04.000Z</time>
      </trkpt>
      <trkpt lat="42.73136" lon="19.78523">
        <ele>938.38000488281</ele>
        <time>2024-09-22T16:50:05.000Z</time>
      </trkpt>
      <trkpt lat="42.73141" lon="19.78528">
        <ele>937.90002441406</ele>
        <time>2024-09-22T16:50:06.000Z</time>
      </trkpt>
      <trkpt lat="42.73148" lon="19.78533">
        <ele>936.46002197266</ele>
        <time>2024-09-22T16:50:07.000Z</time>
      </trkpt>
      <trkpt lat="42.73195" lon="19.78567">
        <ele>928.77001953125</ele>
        <time>2024-09-22T16:50:13.000Z</time>
      </trkpt>
      <trkpt lat="42.73201" lon="19.78573">
        <ele>927.80999755859</ele>
        <time>2024-09-22T16:50:14.000Z</time>
      </trkpt>
      <trkpt lat="42.73206" lon="19.7858">
        <ele>926.84997558594</ele>
        <time>2024-09-22T16:50:15.000Z</time>
      </trkpt>
      <trkpt lat="42.7321" lon="19.78588">
        <ele>925.89001464844</ele>
        <time>2024-09-22T16:50:16.000Z</time>
      </trkpt>
      <trkpt lat="42.73211" lon="19.78596">
        <ele>924.92999267578</ele>
        <time>2024-09-22T16:50:17.000Z</time>
      </trkpt>
      <trkpt lat="42.73208" lon="19.78604">
        <ele>923.96002197266</ele>
        <time>2024-09-22T16:50:18.000Z</time>
      </trkpt>
      <trkpt lat="42.73203" lon="19.7861">
        <ele>923.47998046875</ele>
        <time>2024-09-22T16:50:19.000Z</time>
      </trkpt>
      <trkpt lat="42.73198" lon="19.78615">
        <ele>923</ele>
        <time>2024-09-22T16:50:20.000Z</time>
      </trkpt>
      <trkpt lat="42.73168" lon="19.78636">
        <ele>921.08001708984</ele>
        <time>2024-09-22T16:50:24.000Z</time>
      </trkpt>
      <trkpt lat="42.73164" lon="19.78639">
        <ele>921.08001708984</ele>
        <time>2024-09-22T16:50:25.000Z</time>
      </trkpt>
      <trkpt lat="42.73157" lon="19.78645">
        <ele>920.11999511719</ele>
        <time>2024-09-22T16:50:26.000Z</time>
      </trkpt>
      <trkpt lat="42.73139" lon="19.78656">
        <ele>918.20001220703</ele>
        <time>2024-09-22T16:50:28.000Z</time>
      </trkpt>
      <trkpt lat="42.73137" lon="19.78657">
        <ele>918.20001220703</ele>
        <time>2024-09-22T16:50:29.000Z</time>
      </trkpt>
      <trkpt lat="42.73131" lon="19.78662">
        <ele>917.71997070312</ele>
        <time>2024-09-22T16:50:30.000Z</time>
      </trkpt>
      <trkpt lat="42.73124" lon="19.78669">
        <ele>917.23999023438</ele>
        <time>2024-09-22T16:50:31.000Z</time>
      </trkpt>
      <trkpt lat="42.73119" lon="19.78675">
        <ele>916.75</ele>
        <time>2024-09-22T16:50:32.000Z</time>
      </trkpt>
      <trkpt lat="42.73115" lon="19.78684">
        <ele>915.78997802734</ele>
        <time>2024-09-22T16:50:33.000Z</time>
      </trkpt>
      <trkpt lat="42.73112" lon="19.78694">
        <ele>914.34997558594</ele>
        <time>2024-09-22T16:50:34.000Z</time>
      </trkpt>
      <trkpt lat="42.73112" lon="19.78704">
        <ele>912.90997314453</ele>
        <time>2024-09-22T16:50:35.000Z</time>
      </trkpt>
      <trkpt lat="42.73114" lon="19.78719">
        <ele>910.98999023438</ele>
        <time>2024-09-22T16:50:36.000Z</time>
      </trkpt>
      <trkpt lat="42.73115" lon="19.78727">
        <ele>909.53997802734</ele>
        <time>2024-09-22T16:50:37.000Z</time>
      </trkpt>
      <trkpt lat="42.73116" lon="19.78737">
        <ele>908.09997558594</ele>
        <time>2024-09-22T16:50:38.000Z</time>
      </trkpt>
      <trkpt lat="42.73115" lon="19.78749">
        <ele>906.65997314453</ele>
        <time>2024-09-22T16:50:39.000Z</time>
      </trkpt>
      <trkpt lat="42.73114" lon="19.78764">
        <ele>905.21997070312</ele>
        <time>2024-09-22T16:50:40.000Z</time>
      </trkpt>
      <trkpt lat="42.73114" lon="19.78772">
        <ele>904.73999023438</ele>
        <time>2024-09-22T16:50:41.000Z</time>
      </trkpt>
      <trkpt lat="42.73113" lon="19.78784">
        <ele>903.78002929688</ele>
        <time>2024-09-22T16:50:42.000Z</time>
      </trkpt>
      <trkpt lat="42.73113" lon="19.78787">
        <ele>903.78002929688</ele>
        <time>2024-09-22T16:50:43.000Z</time>
      </trkpt>
      <trkpt lat="42.73111" lon="19.78796">
        <ele>903.29998779297</ele>
        <time>2024-09-22T16:50:44.000Z</time>
      </trkpt>
      <trkpt lat="42.73108" lon="19.78803">
        <ele>902.33001708984</ele>
        <time>2024-09-22T16:50:45.000Z</time>
      </trkpt>
      <trkpt lat="42.73104" lon="19.78811">
        <ele>902.33001708984</ele>
        <time>2024-09-22T16:50:46.000Z</time>
      </trkpt>
      <trkpt lat="42.731" lon="19.78817">
        <ele>901.36999511719</ele>
        <time>2024-09-22T16:50:47.000Z</time>
      </trkpt>
      <trkpt lat="42.73095" lon="19.7882">
        <ele>900.89001464844</ele>
        <time>2024-09-22T16:50:48.000Z</time>
      </trkpt>
      <trkpt lat="42.73089" lon="19.78822">
        <ele>899.92999267578</ele>
        <time>2024-09-22T16:50:49.000Z</time>
      </trkpt>
      <trkpt lat="42.73082" lon="19.78821">
        <ele>899.45001220703</ele>
        <time>2024-09-22T16:50:50.000Z</time>
      </trkpt>
      <trkpt lat="42.7307" lon="19.78816">
        <ele>898.48999023438</ele>
        <time>2024-09-22T16:50:52.000Z</time>
      </trkpt>
      <trkpt lat="42.73065" lon="19.78814">
        <ele>897.53002929688</ele>
        <time>2024-09-22T16:50:53.000Z</time>
      </trkpt>
      <trkpt lat="42.73058" lon="19.78811">
        <ele>896.57000732422</ele>
        <time>2024-09-22T16:50:54.000Z</time>
      </trkpt>
      <trkpt lat="42.73051" lon="19.78809">
        <ele>896.09002685547</ele>
        <time>2024-09-22T16:50:55.000Z</time>
      </trkpt>
      <trkpt lat="42.73044" lon="19.78806">
        <ele>895.60998535156</ele>
        <time>2024-09-22T16:50:56.000Z</time>
      </trkpt>
      <trkpt lat="42.73021" lon="19.78794">
        <ele>893.67999267578</ele>
        <time>2024-09-22T16:50:59.000Z</time>
      </trkpt>
      <trkpt lat="42.7302" lon="19.78793">
        <ele>893.20001220703</ele>
        <time>2024-09-22T16:51:00.000Z</time>
      </trkpt>
      <trkpt lat="42.73014" lon="19.78788">
        <ele>892.71997070312</ele>
        <time>2024-09-22T16:51:01.000Z</time>
      </trkpt>
      <trkpt lat="42.73007" lon="19.7878">
        <ele>891.76000976562</ele>
        <time>2024-09-22T16:51:02.000Z</time>
      </trkpt>
      <trkpt lat="42.73002" lon="19.78773">
        <ele>890.79998779297</ele>
        <time>2024-09-22T16:51:03.000Z</time>
      </trkpt>
      <trkpt lat="42.72993" lon="19.78755">
        <ele>888.40002441406</ele>
        <time>2024-09-22T16:51:04.000Z</time>
      </trkpt>
      <trkpt lat="42.72989" lon="19.78748">
        <ele>887.90997314453</ele>
        <time>2024-09-22T16:51:05.000Z</time>
      </trkpt>
      <trkpt lat="42.72968" lon="19.7871">
        <ele>886.46997070312</ele>
        <time>2024-09-22T16:51:09.000Z</time>
      </trkpt>
      <trkpt lat="42.72963" lon="19.78702">
        <ele>885.98999023438</ele>
        <time>2024-09-22T16:51:10.000Z</time>
      </trkpt>
      <trkpt lat="42.72952" lon="19.7868">
        <ele>885.03002929688</ele>
        <time>2024-09-22T16:51:12.000Z</time>
      </trkpt>
      <trkpt lat="42.72943" lon="19.78664">
        <ele>883.59002685547</ele>
        <time>2024-09-22T16:51:13.000Z</time>
      </trkpt>
      <trkpt lat="42.72941" lon="19.7866">
        <ele>883.59002685547</ele>
        <time>2024-09-22T16:51:14.000Z</time>
      </trkpt>
      <trkpt lat="42.72934" lon="19.78647">
        <ele>882.15002441406</ele>
        <time>2024-09-22T16:51:15.000Z</time>
      </trkpt>
      <trkpt lat="42.72931" lon="19.78642">
        <ele>881.66998291016</ele>
        <time>2024-09-22T16:51:16.000Z</time>
      </trkpt>
      <trkpt lat="42.72926" lon="19.78636">
        <ele>880.21997070312</ele>
        <time>2024-09-22T16:51:17.000Z</time>
      </trkpt>
      <trkpt lat="42.7292" lon="19.78632">
        <ele>879.26000976562</ele>
        <time>2024-09-22T16:51:18.000Z</time>
      </trkpt>
      <trkpt lat="42.72915" lon="19.78631">
        <ele>878.29998779297</ele>
        <time>2024-09-22T16:51:19.000Z</time>
      </trkpt>
      <trkpt lat="42.7291" lon="19.78634">
        <ele>877.82000732422</ele>
        <time>2024-09-22T16:51:20.000Z</time>
      </trkpt>
      <trkpt lat="42.72907" lon="19.7864">
        <ele>876.85998535156</ele>
        <time>2024-09-22T16:51:21.000Z</time>
      </trkpt>
      <trkpt lat="42.72904" lon="19.78648">
        <ele>875.90002441406</ele>
        <time>2024-09-22T16:51:22.000Z</time>
      </trkpt>
      <trkpt lat="42.72902" lon="19.78656">
        <ele>874.46002197266</ele>
        <time>2024-09-22T16:51:23.000Z</time>
      </trkpt>
      <trkpt lat="42.72901" lon="19.78666">
        <ele>873.5</ele>
        <time>2024-09-22T16:51:24.000Z</time>
      </trkpt>
      <trkpt lat="42.72901" lon="19.78676">
        <ele>872.53002929688</ele>
        <time>2024-09-22T16:51:25.000Z</time>
      </trkpt>
      <trkpt lat="42.72901" lon="19.78684">
        <ele>872.04998779297</ele>
        <time>2024-09-22T16:51:26.000Z</time>
      </trkpt>
      <trkpt lat="42.72903" lon="19.78692">
        <ele>870.60998535156</ele>
        <time>2024-09-22T16:51:27.000Z</time>
      </trkpt>
      <trkpt lat="42.72905" lon="19.78702">
        <ele>869.65002441406</ele>
        <time>2024-09-22T16:51:28.000Z</time>
      </trkpt>
      <trkpt lat="42.72907" lon="19.7871">
        <ele>869.16998291016</ele>
        <time>2024-09-22T16:51:29.000Z</time>
      </trkpt>
      <trkpt lat="42.72908" lon="19.78716">
        <ele>868.69000244141</ele>
        <time>2024-09-22T16:51:30.000Z</time>
      </trkpt>
      <trkpt lat="42.72909" lon="19.78724">
        <ele>868.21002197266</ele>
        <time>2024-09-22T16:51:31.000Z</time>
      </trkpt>
      <trkpt lat="42.72909" lon="19.78734">
        <ele>866.77001953125</ele>
        <time>2024-09-22T16:51:32.000Z</time>
      </trkpt>
      <trkpt lat="42.7291" lon="19.78742">
        <ele>865.79998779297</ele>
        <time>2024-09-22T16:51:33.000Z</time>
      </trkpt>
      <trkpt lat="42.72913" lon="19.78754">
        <ele>864.35998535156</ele>
        <time>2024-09-22T16:51:34.000Z</time>
      </trkpt>
      <trkpt lat="42.72916" lon="19.78764">
        <ele>862.91998291016</ele>
        <time>2024-09-22T16:51:35.000Z</time>
      </trkpt>
      <trkpt lat="42.7292" lon="19.78777">
        <ele>861</ele>
        <time>2024-09-22T16:51:36.000Z</time>
      </trkpt>
      <trkpt lat="42.72922" lon="19.78784">
        <ele>859.55999755859</ele>
        <time>2024-09-22T16:51:37.000Z</time>
      </trkpt>
      <trkpt lat="42.72926" lon="19.78797">
        <ele>858.10998535156</ele>
        <time>2024-09-22T16:51:38.000Z</time>
      </trkpt>
      <trkpt lat="42.72932" lon="19.78855">
        <ele>853.78997802734</ele>
        <time>2024-09-22T16:51:42.000Z</time>
      </trkpt>
      <trkpt lat="42.72937" lon="19.78894">
        <ele>849.46002197266</ele>
        <time>2024-09-22T16:51:45.000Z</time>
      </trkpt>
      <trkpt lat="42.72937" lon="19.78898">
        <ele>848.97998046875</ele>
        <time>2024-09-22T16:51:46.000Z</time>
      </trkpt>
      <trkpt lat="42.72939" lon="19.78917">
        <ele>847.05999755859</ele>
        <time>2024-09-22T16:51:47.000Z</time>
      </trkpt>
      <trkpt lat="42.7294" lon="19.78923">
        <ele>846.09997558594</ele>
        <time>2024-09-22T16:51:48.000Z</time>
      </trkpt>
      <trkpt lat="42.72942" lon="19.78935">
        <ele>845.14001464844</ele>
        <time>2024-09-22T16:51:49.000Z</time>
      </trkpt>
      <trkpt lat="42.72946" lon="19.78946">
        <ele>844.17999267578</ele>
        <time>2024-09-22T16:51:50.000Z</time>
      </trkpt>
      <trkpt lat="42.72952" lon="19.78958">
        <ele>842.72998046875</ele>
        <time>2024-09-22T16:51:51.000Z</time>
      </trkpt>
      <trkpt lat="42.72957" lon="19.78968">
        <ele>841.28997802734</ele>
        <time>2024-09-22T16:51:52.000Z</time>
      </trkpt>
      <trkpt lat="42.72982" lon="19.79021">
        <ele>835.03997802734</ele>
        <time>2024-09-22T16:51:57.000Z</time>
      </trkpt>
      <trkpt lat="42.73013" lon="19.79066">
        <ele>827.34997558594</ele>
        <time>2024-09-22T16:52:01.000Z</time>
      </trkpt>
      <trkpt lat="42.73037" lon="19.79091">
        <ele>822.54998779297</ele>
        <time>2024-09-22T16:52:04.000Z</time>
      </trkpt>
      <trkpt lat="42.7308" lon="19.7913">
        <ele>814.84997558594</ele>
        <time>2024-09-22T16:52:09.000Z</time>
      </trkpt>
      <trkpt lat="42.73083" lon="19.79134">
        <ele>814.36999511719</ele>
        <time>2024-09-22T16:52:10.000Z</time>
      </trkpt>
      <trkpt lat="42.73089" lon="19.79141">
        <ele>813.40997314453</ele>
        <time>2024-09-22T16:52:11.000Z</time>
      </trkpt>
      <trkpt lat="42.73096" lon="19.79152">
        <ele>812.45001220703</ele>
        <time>2024-09-22T16:52:12.000Z</time>
      </trkpt>
      <trkpt lat="42.73123" lon="19.79196">
        <ele>806.20001220703</ele>
        <time>2024-09-22T16:52:16.000Z</time>
      </trkpt>
      <trkpt lat="42.73129" lon="19.79205">
        <ele>805.23999023438</ele>
        <time>2024-09-22T16:52:17.000Z</time>
      </trkpt>
      <trkpt lat="42.73137" lon="19.79217">
        <ele>804.28002929688</ele>
        <time>2024-09-22T16:52:18.000Z</time>
      </trkpt>
      <trkpt lat="42.73148" lon="19.79235">
        <ele>802.84002685547</ele>
        <time>2024-09-22T16:52:20.000Z</time>
      </trkpt>
      <trkpt lat="42.73153" lon="19.79244">
        <ele>802.35998535156</ele>
        <time>2024-09-22T16:52:21.000Z</time>
      </trkpt>
      <trkpt lat="42.73159" lon="19.79253">
        <ele>801.40002441406</ele>
        <time>2024-09-22T16:52:22.000Z</time>
      </trkpt>
      <trkpt lat="42.73167" lon="19.79263">
        <ele>800.44000244141</ele>
        <time>2024-09-22T16:52:23.000Z</time>
      </trkpt>
      <trkpt lat="42.73173" lon="19.7927">
        <ele>799.46997070312</ele>
        <time>2024-09-22T16:52:24.000Z</time>
      </trkpt>
      <trkpt lat="42.73176" lon="19.79273">
        <ele>799.46997070312</ele>
        <time>2024-09-22T16:52:25.000Z</time>
      </trkpt>
      <trkpt lat="42.73182" lon="19.79277">
        <ele>798.51000976562</ele>
        <time>2024-09-22T16:52:26.000Z</time>
      </trkpt>
      <trkpt lat="42.73187" lon="19.79278">
        <ele>798.03002929688</ele>
        <time>2024-09-22T16:52:27.000Z</time>
      </trkpt>
      <trkpt lat="42.73192" lon="19.79275">
        <ele>797.54998779297</ele>
        <time>2024-09-22T16:52:28.000Z</time>
      </trkpt>
      <trkpt lat="42.73199" lon="19.7927">
        <ele>796.10998535156</ele>
        <time>2024-09-22T16:52:29.000Z</time>
      </trkpt>
      <trkpt lat="42.73205" lon="19.79265">
        <ele>795.15002441406</ele>
        <time>2024-09-22T16:52:30.000Z</time>
      </trkpt>
      <trkpt lat="42.7321" lon="19.7926">
        <ele>794.66998291016</ele>
        <time>2024-09-22T16:52:31.000Z</time>
      </trkpt>
      <trkpt lat="42.73223" lon="19.79243">
        <ele>792.73999023438</ele>
        <time>2024-09-22T16:52:33.000Z</time>
      </trkpt>
      <trkpt lat="42.73253" lon="19.79209">
        <ele>789.85998535156</ele>
        <time>2024-09-22T16:52:37.000Z</time>
      </trkpt>
      <trkpt lat="42.73254" lon="19.79208">
        <ele>789.85998535156</ele>
        <time>2024-09-22T16:52:38.000Z</time>
      </trkpt>
      <trkpt lat="42.73261" lon="19.79203">
        <ele>789.38000488281</ele>
        <time>2024-09-22T16:52:39.000Z</time>
      </trkpt>
      <trkpt lat="42.73268" lon="19.79198">
        <ele>789.38000488281</ele>
        <time>2024-09-22T16:52:40.000Z</time>
      </trkpt>
      <trkpt lat="42.73278" lon="19.79195">
        <ele>789.38000488281</ele>
        <time>2024-09-22T16:52:41.000Z</time>
      </trkpt>
      <trkpt lat="42.73284" lon="19.79194">
        <ele>789.38000488281</ele>
        <time>2024-09-22T16:52:42.000Z</time>
      </trkpt>
      <trkpt lat="42.73292" lon="19.79192">
        <ele>788.90002441406</ele>
        <time>2024-09-22T16:52:43.000Z</time>
      </trkpt>
      <trkpt lat="42.73294" lon="19.79191">
        <ele>788.90002441406</ele>
        <time>2024-09-22T16:52:44.000Z</time>
      </trkpt>
      <trkpt lat="42.733" lon="19.79193">
        <ele>788.90002441406</ele>
        <time>2024-09-22T16:52:45.000Z</time>
      </trkpt>
      <trkpt lat="42.73305" lon="19.79199">
        <ele>788.41998291016</ele>
        <time>2024-09-22T16:52:46.000Z</time>
      </trkpt>
      <trkpt lat="42.73309" lon="19.79206">
        <ele>787.94000244141</ele>
        <time>2024-09-22T16:52:47.000Z</time>
      </trkpt>
      <trkpt lat="42.73312" lon="19.79216">
        <ele>787.46002197266</ele>
        <time>2024-09-22T16:52:48.000Z</time>
      </trkpt>
      <trkpt lat="42.73312" lon="19.79221">
        <ele>787.46002197266</ele>
        <time>2024-09-22T16:52:49.000Z</time>
      </trkpt>
      <trkpt lat="42.7331" lon="19.79229">
        <ele>786.97998046875</ele>
        <time>2024-09-22T16:52:50.000Z</time>
      </trkpt>
      <trkpt lat="42.73306" lon="19.7924">
        <ele>786.97998046875</ele>
        <time>2024-09-22T16:52:51.000Z</time>
      </trkpt>
      <trkpt lat="42.73304" lon="19.79244">
        <ele>786.5</ele>
        <time>2024-09-22T16:52:52.000Z</time>
      </trkpt>
      <trkpt lat="42.73299" lon="19.79252">
        <ele>786.5</ele>
        <time>2024-09-22T16:52:53.000Z</time>
      </trkpt>
      <trkpt lat="42.73293" lon="19.79258">
        <ele>786.5</ele>
        <time>2024-09-22T16:52:54.000Z</time>
      </trkpt>
      <trkpt lat="42.73288" lon="19.79263">
        <ele>786.5</ele>
        <time>2024-09-22T16:52:55.000Z</time>
      </trkpt>
      <trkpt lat="42.73284" lon="19.79268">
        <ele>786.5</ele>
        <time>2024-09-22T16:52:56.000Z</time>
      </trkpt>
      <trkpt lat="42.73283" lon="19.79273">
        <ele>786.02001953125</ele>
        <time>2024-09-22T16:52:57.000Z</time>
      </trkpt>
      <trkpt lat="42.73285" lon="19.79279">
        <ele>786.02001953125</ele>
        <time>2024-09-22T16:52:58.000Z</time>
      </trkpt>
      <trkpt lat="42.73288" lon="19.79285">
        <ele>785.53002929688</ele>
        <time>2024-09-22T16:52:59.000Z</time>
      </trkpt>
      <trkpt lat="42.73291" lon="19.7929">
        <ele>785.53002929688</ele>
        <time>2024-09-22T16:53:00.000Z</time>
      </trkpt>
      <trkpt lat="42.73295" lon="19.79295">
        <ele>785.04998779297</ele>
        <time>2024-09-22T16:53:01.000Z</time>
      </trkpt>
      <trkpt lat="42.73303" lon="19.79306">
        <ele>785.04998779297</ele>
        <time>2024-09-22T16:53:08.000Z</time>
      </trkpt>
      <trkpt lat="42.73311" lon="19.79316">
        <ele>786.5</ele>
        <time>2024-09-22T16:53:34.000Z</time>
        <extensions>
          <visugpx:TrkExtension xmlns:visugpx="https://www.visugpx.com/editgpx/">
            <visugpx:node>1</visugpx:node>
            </visugpx:TrkExtension>
        </extensions>
      </trkpt>
    </trkseg>
  </trk>
</gpx>